<?xml version="1.0" encoding="UTF-8" standalone="no" ?>
<gpx xmlns="http://www.topografix.com/GPX/1/1" xmlns:xsi="http://www.w3.org/2001/XMLSchema-instance" xsi:schemaLocation="http://www.topografix.com/GPX/1/1 http://www.topografix.com/GPX/1/1/gpx.xsd" version="1.1" creator="VisuGPX - https://www.visugpx.com">
  <metadata>
    <name>CMC Puigmal d'Err</name>
    <desc><![CDATA[Belle boucle avec le Puigmal d'Err, le petit Puigmal de Sègre et le Puigmal de Llo.
En option : le Puigmal de Sègre.
]]></desc>
  </metadata>
  <trk>
    <name><![CDATA[Valcebollère Marche à pied]]></name>
    <trkseg>
      <trkpt lat="42.39073" lon="2.08421">
        <ele>2037</ele>
        <time>2017-10-15T07:13:25.000Z</time>
      </trkpt>
      <trkpt lat="42.39073" lon="2.0842">
        <ele>2037</ele>
        <time>2017-10-15T07:13:26.000Z</time>
      </trkpt>
      <trkpt lat="42.39073" lon="2.08421">
        <ele>2037</ele>
        <time>2017-10-15T07:13:27.000Z</time>
      </trkpt>
      <trkpt lat="42.39075" lon="2.08422">
        <ele>2036</ele>
        <time>2017-10-15T07:13:28.000Z</time>
      </trkpt>
      <trkpt lat="42.39072" lon="2.08422">
        <ele>2037</ele>
        <time>2017-10-15T07:13:29.000Z</time>
      </trkpt>
      <trkpt lat="42.39073" lon="2.08425">
        <ele>2036</ele>
        <time>2017-10-15T07:13:30.000Z</time>
      </trkpt>
      <trkpt lat="42.39073" lon="2.08424">
        <ele>2036</ele>
        <time>2017-10-15T07:13:31.000Z</time>
      </trkpt>
      <trkpt lat="42.39074" lon="2.08427">
        <ele>2035</ele>
        <time>2017-10-15T07:13:32.000Z</time>
      </trkpt>
      <trkpt lat="42.39073" lon="2.08427">
        <ele>2036</ele>
        <time>2017-10-15T07:13:33.000Z</time>
      </trkpt>
      <trkpt lat="42.3907" lon="2.08428">
        <ele>2037</ele>
        <time>2017-10-15T07:13:34.000Z</time>
      </trkpt>
      <trkpt lat="42.3907" lon="2.08428">
        <ele>2037</ele>
        <time>2017-10-15T07:13:35.000Z</time>
      </trkpt>
      <trkpt lat="42.39069" lon="2.08432">
        <ele>2037</ele>
        <time>2017-10-15T07:13:36.000Z</time>
      </trkpt>
      <trkpt lat="42.39067" lon="2.08435">
        <ele>2037</ele>
        <time>2017-10-15T07:13:37.000Z</time>
      </trkpt>
      <trkpt lat="42.39067" lon="2.08437">
        <ele>2036</ele>
        <time>2017-10-15T07:13:38.000Z</time>
      </trkpt>
      <trkpt lat="42.39066" lon="2.08435">
        <ele>2038</ele>
        <time>2017-10-15T07:13:39.000Z</time>
      </trkpt>
      <trkpt lat="42.39066" lon="2.08438">
        <ele>2037</ele>
        <time>2017-10-15T07:13:40.000Z</time>
      </trkpt>
      <trkpt lat="42.39064" lon="2.08442">
        <ele>2037</ele>
        <time>2017-10-15T07:13:41.000Z</time>
      </trkpt>
      <trkpt lat="42.39062" lon="2.08442">
        <ele>2038</ele>
        <time>2017-10-15T07:13:42.000Z</time>
      </trkpt>
      <trkpt lat="42.39063" lon="2.08443">
        <ele>2037</ele>
        <time>2017-10-15T07:13:43.000Z</time>
      </trkpt>
      <trkpt lat="42.39061" lon="2.08444">
        <ele>2038</ele>
        <time>2017-10-15T07:13:44.000Z</time>
      </trkpt>
      <trkpt lat="42.39061" lon="2.08447">
        <ele>2038</ele>
        <time>2017-10-15T07:13:45.000Z</time>
      </trkpt>
      <trkpt lat="42.39061" lon="2.08447">
        <ele>2037</ele>
        <time>2017-10-15T07:13:46.000Z</time>
      </trkpt>
      <trkpt lat="42.39061" lon="2.08448">
        <ele>2037</ele>
        <time>2017-10-15T07:13:47.000Z</time>
      </trkpt>
      <trkpt lat="42.39061" lon="2.0845">
        <ele>2037</ele>
        <time>2017-10-15T07:13:48.000Z</time>
      </trkpt>
      <trkpt lat="42.3906" lon="2.08451">
        <ele>2037</ele>
        <time>2017-10-15T07:13:49.000Z</time>
      </trkpt>
      <trkpt lat="42.39059" lon="2.08452">
        <ele>2037</ele>
        <time>2017-10-15T07:13:50.000Z</time>
      </trkpt>
      <trkpt lat="42.39059" lon="2.08452">
        <ele>2038</ele>
        <time>2017-10-15T07:13:51.000Z</time>
      </trkpt>
      <trkpt lat="42.39058" lon="2.08452">
        <ele>2038</ele>
        <time>2017-10-15T07:13:52.000Z</time>
      </trkpt>
      <trkpt lat="42.39057" lon="2.08452">
        <ele>2038</ele>
        <time>2017-10-15T07:13:53.000Z</time>
      </trkpt>
      <trkpt lat="42.39056" lon="2.08453">
        <ele>2039</ele>
        <time>2017-10-15T07:13:54.000Z</time>
      </trkpt>
      <trkpt lat="42.39056" lon="2.08454">
        <ele>2039</ele>
        <time>2017-10-15T07:13:55.000Z</time>
      </trkpt>
      <trkpt lat="42.39055" lon="2.08455">
        <ele>2039</ele>
        <time>2017-10-15T07:13:56.000Z</time>
      </trkpt>
      <trkpt lat="42.39054" lon="2.08456">
        <ele>2039</ele>
        <time>2017-10-15T07:13:57.000Z</time>
      </trkpt>
      <trkpt lat="42.39054" lon="2.08457">
        <ele>2039</ele>
        <time>2017-10-15T07:13:58.000Z</time>
      </trkpt>
      <trkpt lat="42.39053" lon="2.08457">
        <ele>2039</ele>
        <time>2017-10-15T07:13:59.000Z</time>
      </trkpt>
      <trkpt lat="42.39053" lon="2.08458">
        <ele>2039</ele>
        <time>2017-10-15T07:14:00.000Z</time>
      </trkpt>
      <trkpt lat="42.39052" lon="2.08459">
        <ele>2039</ele>
        <time>2017-10-15T07:14:01.000Z</time>
      </trkpt>
      <trkpt lat="42.39052" lon="2.08461">
        <ele>2039</ele>
        <time>2017-10-15T07:14:02.000Z</time>
      </trkpt>
      <trkpt lat="42.39051" lon="2.08462">
        <ele>2039</ele>
        <time>2017-10-15T07:14:03.000Z</time>
      </trkpt>
      <trkpt lat="42.39051" lon="2.08463">
        <ele>2039</ele>
        <time>2017-10-15T07:14:04.000Z</time>
      </trkpt>
      <trkpt lat="42.3905" lon="2.08463">
        <ele>2039</ele>
        <time>2017-10-15T07:14:05.000Z</time>
      </trkpt>
      <trkpt lat="42.3905" lon="2.08465">
        <ele>2039</ele>
        <time>2017-10-15T07:14:06.000Z</time>
      </trkpt>
      <trkpt lat="42.3905" lon="2.08466">
        <ele>2039</ele>
        <time>2017-10-15T07:14:07.000Z</time>
      </trkpt>
      <trkpt lat="42.3905" lon="2.08467">
        <ele>2039</ele>
        <time>2017-10-15T07:14:08.000Z</time>
      </trkpt>
      <trkpt lat="42.39049" lon="2.08468">
        <ele>2039</ele>
        <time>2017-10-15T07:14:09.000Z</time>
      </trkpt>
      <trkpt lat="42.39049" lon="2.08469">
        <ele>2039</ele>
        <time>2017-10-15T07:14:10.000Z</time>
      </trkpt>
      <trkpt lat="42.39048" lon="2.0847">
        <ele>2040</ele>
        <time>2017-10-15T07:14:11.000Z</time>
      </trkpt>
      <trkpt lat="42.39047" lon="2.08471">
        <ele>2040</ele>
        <time>2017-10-15T07:14:12.000Z</time>
      </trkpt>
      <trkpt lat="42.39047" lon="2.08472">
        <ele>2040</ele>
        <time>2017-10-15T07:14:13.000Z</time>
      </trkpt>
      <trkpt lat="42.39046" lon="2.08473">
        <ele>2040</ele>
        <time>2017-10-15T07:14:14.000Z</time>
      </trkpt>
      <trkpt lat="42.39046" lon="2.08474">
        <ele>2040</ele>
        <time>2017-10-15T07:14:15.000Z</time>
      </trkpt>
      <trkpt lat="42.39045" lon="2.08475">
        <ele>2040</ele>
        <time>2017-10-15T07:14:16.000Z</time>
      </trkpt>
      <trkpt lat="42.39045" lon="2.08476">
        <ele>2040</ele>
        <time>2017-10-15T07:14:17.000Z</time>
      </trkpt>
      <trkpt lat="42.39045" lon="2.08477">
        <ele>2040</ele>
        <time>2017-10-15T07:14:18.000Z</time>
      </trkpt>
      <trkpt lat="42.39044" lon="2.08479">
        <ele>2040</ele>
        <time>2017-10-15T07:14:19.000Z</time>
      </trkpt>
      <trkpt lat="42.39043" lon="2.0848">
        <ele>2040</ele>
        <time>2017-10-15T07:14:20.000Z</time>
      </trkpt>
      <trkpt lat="42.39043" lon="2.08481">
        <ele>2041</ele>
        <time>2017-10-15T07:14:21.000Z</time>
      </trkpt>
      <trkpt lat="42.39042" lon="2.08482">
        <ele>2041</ele>
        <time>2017-10-15T07:14:22.000Z</time>
      </trkpt>
      <trkpt lat="42.39042" lon="2.08483">
        <ele>2041</ele>
        <time>2017-10-15T07:14:23.000Z</time>
      </trkpt>
      <trkpt lat="42.39041" lon="2.08484">
        <ele>2041</ele>
        <time>2017-10-15T07:14:24.000Z</time>
      </trkpt>
      <trkpt lat="42.39041" lon="2.08486">
        <ele>2041</ele>
        <time>2017-10-15T07:14:25.000Z</time>
      </trkpt>
      <trkpt lat="42.39041" lon="2.08487">
        <ele>2041</ele>
        <time>2017-10-15T07:14:26.000Z</time>
      </trkpt>
      <trkpt lat="42.3904" lon="2.08488">
        <ele>2041</ele>
        <time>2017-10-15T07:14:27.000Z</time>
      </trkpt>
      <trkpt lat="42.3904" lon="2.0849">
        <ele>2041</ele>
        <time>2017-10-15T07:14:28.000Z</time>
      </trkpt>
      <trkpt lat="42.39039" lon="2.0849">
        <ele>2041</ele>
        <time>2017-10-15T07:14:29.000Z</time>
      </trkpt>
      <trkpt lat="42.39038" lon="2.08491">
        <ele>2041</ele>
        <time>2017-10-15T07:14:30.000Z</time>
      </trkpt>
      <trkpt lat="42.39038" lon="2.08492">
        <ele>2041</ele>
        <time>2017-10-15T07:14:31.000Z</time>
      </trkpt>
      <trkpt lat="42.39038" lon="2.08494">
        <ele>2041</ele>
        <time>2017-10-15T07:14:32.000Z</time>
      </trkpt>
      <trkpt lat="42.39037" lon="2.08495">
        <ele>2041</ele>
        <time>2017-10-15T07:14:33.000Z</time>
      </trkpt>
      <trkpt lat="42.39037" lon="2.08492">
        <ele>2042</ele>
        <time>2017-10-15T07:14:34.000Z</time>
      </trkpt>
      <trkpt lat="42.39036" lon="2.08494">
        <ele>2042</ele>
        <time>2017-10-15T07:14:35.000Z</time>
      </trkpt>
      <trkpt lat="42.39036" lon="2.08494">
        <ele>2042</ele>
        <time>2017-10-15T07:14:36.000Z</time>
      </trkpt>
      <trkpt lat="42.39035" lon="2.08495">
        <ele>2042</ele>
        <time>2017-10-15T07:14:37.000Z</time>
      </trkpt>
      <trkpt lat="42.39034" lon="2.08496">
        <ele>2043</ele>
        <time>2017-10-15T07:14:38.000Z</time>
      </trkpt>
      <trkpt lat="42.39033" lon="2.08498">
        <ele>2043</ele>
        <time>2017-10-15T07:14:39.000Z</time>
      </trkpt>
      <trkpt lat="42.39032" lon="2.08499">
        <ele>2043</ele>
        <time>2017-10-15T07:14:40.000Z</time>
      </trkpt>
      <trkpt lat="42.39032" lon="2.085">
        <ele>2043</ele>
        <time>2017-10-15T07:14:41.000Z</time>
      </trkpt>
      <trkpt lat="42.39031" lon="2.08501">
        <ele>2044</ele>
        <time>2017-10-15T07:14:42.000Z</time>
      </trkpt>
      <trkpt lat="42.3903" lon="2.08502">
        <ele>2044</ele>
        <time>2017-10-15T07:14:43.000Z</time>
      </trkpt>
      <trkpt lat="42.3903" lon="2.08503">
        <ele>2044</ele>
        <time>2017-10-15T07:14:44.000Z</time>
      </trkpt>
      <trkpt lat="42.39029" lon="2.08504">
        <ele>2044</ele>
        <time>2017-10-15T07:14:45.000Z</time>
      </trkpt>
      <trkpt lat="42.39029" lon="2.08505">
        <ele>2044</ele>
        <time>2017-10-15T07:14:46.000Z</time>
      </trkpt>
      <trkpt lat="42.39028" lon="2.08507">
        <ele>2045</ele>
        <time>2017-10-15T07:14:47.000Z</time>
      </trkpt>
      <trkpt lat="42.39028" lon="2.08508">
        <ele>2045</ele>
        <time>2017-10-15T07:14:48.000Z</time>
      </trkpt>
      <trkpt lat="42.39028" lon="2.08509">
        <ele>2045</ele>
        <time>2017-10-15T07:14:49.000Z</time>
      </trkpt>
      <trkpt lat="42.39027" lon="2.08511">
        <ele>2045</ele>
        <time>2017-10-15T07:14:50.000Z</time>
      </trkpt>
      <trkpt lat="42.39027" lon="2.08512">
        <ele>2045</ele>
        <time>2017-10-15T07:14:51.000Z</time>
      </trkpt>
      <trkpt lat="42.39026" lon="2.08513">
        <ele>2045</ele>
        <time>2017-10-15T07:14:52.000Z</time>
      </trkpt>
      <trkpt lat="42.39026" lon="2.08515">
        <ele>2045</ele>
        <time>2017-10-15T07:14:53.000Z</time>
      </trkpt>
      <trkpt lat="42.39026" lon="2.08516">
        <ele>2045</ele>
        <time>2017-10-15T07:14:54.000Z</time>
      </trkpt>
      <trkpt lat="42.39025" lon="2.08517">
        <ele>2045</ele>
        <time>2017-10-15T07:14:55.000Z</time>
      </trkpt>
      <trkpt lat="42.39025" lon="2.08518">
        <ele>2045</ele>
        <time>2017-10-15T07:14:56.000Z</time>
      </trkpt>
      <trkpt lat="42.39024" lon="2.0852">
        <ele>2045</ele>
        <time>2017-10-15T07:14:57.000Z</time>
      </trkpt>
      <trkpt lat="42.39024" lon="2.08521">
        <ele>2045</ele>
        <time>2017-10-15T07:14:58.000Z</time>
      </trkpt>
      <trkpt lat="42.39024" lon="2.08522">
        <ele>2045</ele>
        <time>2017-10-15T07:14:59.000Z</time>
      </trkpt>
      <trkpt lat="42.39023" lon="2.08523">
        <ele>2045</ele>
        <time>2017-10-15T07:15:00.000Z</time>
      </trkpt>
      <trkpt lat="42.39023" lon="2.08524">
        <ele>2045</ele>
        <time>2017-10-15T07:15:01.000Z</time>
      </trkpt>
      <trkpt lat="42.39022" lon="2.08525">
        <ele>2045</ele>
        <time>2017-10-15T07:15:02.000Z</time>
      </trkpt>
      <trkpt lat="42.39021" lon="2.08526">
        <ele>2045</ele>
        <time>2017-10-15T07:15:03.000Z</time>
      </trkpt>
      <trkpt lat="42.39021" lon="2.08527">
        <ele>2045</ele>
        <time>2017-10-15T07:15:04.000Z</time>
      </trkpt>
      <trkpt lat="42.3902" lon="2.08528">
        <ele>2045</ele>
        <time>2017-10-15T07:15:05.000Z</time>
      </trkpt>
      <trkpt lat="42.3902" lon="2.0853">
        <ele>2045</ele>
        <time>2017-10-15T07:15:06.000Z</time>
      </trkpt>
      <trkpt lat="42.39019" lon="2.08531">
        <ele>2045</ele>
        <time>2017-10-15T07:15:07.000Z</time>
      </trkpt>
      <trkpt lat="42.39019" lon="2.08532">
        <ele>2045</ele>
        <time>2017-10-15T07:15:08.000Z</time>
      </trkpt>
      <trkpt lat="42.39018" lon="2.08533">
        <ele>2045</ele>
        <time>2017-10-15T07:15:09.000Z</time>
      </trkpt>
      <trkpt lat="42.39017" lon="2.08534">
        <ele>2045</ele>
        <time>2017-10-15T07:15:10.000Z</time>
      </trkpt>
      <trkpt lat="42.39017" lon="2.08535">
        <ele>2045</ele>
        <time>2017-10-15T07:15:11.000Z</time>
      </trkpt>
      <trkpt lat="42.39017" lon="2.08536">
        <ele>2045</ele>
        <time>2017-10-15T07:15:12.000Z</time>
      </trkpt>
      <trkpt lat="42.39016" lon="2.08538">
        <ele>2045</ele>
        <time>2017-10-15T07:15:13.000Z</time>
      </trkpt>
      <trkpt lat="42.39016" lon="2.08539">
        <ele>2045</ele>
        <time>2017-10-15T07:15:14.000Z</time>
      </trkpt>
      <trkpt lat="42.39016" lon="2.0854">
        <ele>2045</ele>
        <time>2017-10-15T07:15:15.000Z</time>
      </trkpt>
      <trkpt lat="42.39015" lon="2.08541">
        <ele>2045</ele>
        <time>2017-10-15T07:15:16.000Z</time>
      </trkpt>
      <trkpt lat="42.39015" lon="2.08542">
        <ele>2045</ele>
        <time>2017-10-15T07:15:17.000Z</time>
      </trkpt>
      <trkpt lat="42.39014" lon="2.08543">
        <ele>2045</ele>
        <time>2017-10-15T07:15:18.000Z</time>
      </trkpt>
      <trkpt lat="42.39014" lon="2.08544">
        <ele>2045</ele>
        <time>2017-10-15T07:15:19.000Z</time>
      </trkpt>
      <trkpt lat="42.39013" lon="2.08545">
        <ele>2045</ele>
        <time>2017-10-15T07:15:20.000Z</time>
      </trkpt>
      <trkpt lat="42.39012" lon="2.08546">
        <ele>2045</ele>
        <time>2017-10-15T07:15:21.000Z</time>
      </trkpt>
      <trkpt lat="42.39012" lon="2.08547">
        <ele>2045</ele>
        <time>2017-10-15T07:15:22.000Z</time>
      </trkpt>
      <trkpt lat="42.39011" lon="2.08549">
        <ele>2045</ele>
        <time>2017-10-15T07:15:23.000Z</time>
      </trkpt>
      <trkpt lat="42.39011" lon="2.0855">
        <ele>2045</ele>
        <time>2017-10-15T07:15:24.000Z</time>
      </trkpt>
      <trkpt lat="42.39011" lon="2.08551">
        <ele>2045</ele>
        <time>2017-10-15T07:15:25.000Z</time>
      </trkpt>
      <trkpt lat="42.3901" lon="2.08552">
        <ele>2044</ele>
        <time>2017-10-15T07:15:26.000Z</time>
      </trkpt>
      <trkpt lat="42.3901" lon="2.08553">
        <ele>2045</ele>
        <time>2017-10-15T07:15:27.000Z</time>
      </trkpt>
      <trkpt lat="42.39009" lon="2.08554">
        <ele>2045</ele>
        <time>2017-10-15T07:15:28.000Z</time>
      </trkpt>
      <trkpt lat="42.39008" lon="2.08555">
        <ele>2045</ele>
        <time>2017-10-15T07:15:29.000Z</time>
      </trkpt>
      <trkpt lat="42.39008" lon="2.08555">
        <ele>2045</ele>
        <time>2017-10-15T07:15:30.000Z</time>
      </trkpt>
      <trkpt lat="42.39007" lon="2.08556">
        <ele>2045</ele>
        <time>2017-10-15T07:15:31.000Z</time>
      </trkpt>
      <trkpt lat="42.39007" lon="2.08558">
        <ele>2045</ele>
        <time>2017-10-15T07:15:32.000Z</time>
      </trkpt>
      <trkpt lat="42.39006" lon="2.08559">
        <ele>2045</ele>
        <time>2017-10-15T07:15:33.000Z</time>
      </trkpt>
      <trkpt lat="42.39006" lon="2.0856">
        <ele>2045</ele>
        <time>2017-10-15T07:15:34.000Z</time>
      </trkpt>
      <trkpt lat="42.39005" lon="2.08562">
        <ele>2045</ele>
        <time>2017-10-15T07:15:35.000Z</time>
      </trkpt>
      <trkpt lat="42.39004" lon="2.08563">
        <ele>2045</ele>
        <time>2017-10-15T07:15:36.000Z</time>
      </trkpt>
      <trkpt lat="42.39004" lon="2.08564">
        <ele>2045</ele>
        <time>2017-10-15T07:15:37.000Z</time>
      </trkpt>
      <trkpt lat="42.39004" lon="2.08565">
        <ele>2045</ele>
        <time>2017-10-15T07:15:38.000Z</time>
      </trkpt>
      <trkpt lat="42.39003" lon="2.08566">
        <ele>2045</ele>
        <time>2017-10-15T07:15:39.000Z</time>
      </trkpt>
      <trkpt lat="42.39003" lon="2.08567">
        <ele>2045</ele>
        <time>2017-10-15T07:15:40.000Z</time>
      </trkpt>
      <trkpt lat="42.39003" lon="2.08568">
        <ele>2045</ele>
        <time>2017-10-15T07:15:41.000Z</time>
      </trkpt>
      <trkpt lat="42.39002" lon="2.08569">
        <ele>2045</ele>
        <time>2017-10-15T07:15:42.000Z</time>
      </trkpt>
      <trkpt lat="42.39002" lon="2.0857">
        <ele>2045</ele>
        <time>2017-10-15T07:15:43.000Z</time>
      </trkpt>
      <trkpt lat="42.39001" lon="2.08572">
        <ele>2045</ele>
        <time>2017-10-15T07:15:44.000Z</time>
      </trkpt>
      <trkpt lat="42.39001" lon="2.08573">
        <ele>2045</ele>
        <time>2017-10-15T07:15:45.000Z</time>
      </trkpt>
      <trkpt lat="42.39001" lon="2.08574">
        <ele>2044</ele>
        <time>2017-10-15T07:15:46.000Z</time>
      </trkpt>
      <trkpt lat="42.39" lon="2.08575">
        <ele>2044</ele>
        <time>2017-10-15T07:15:47.000Z</time>
      </trkpt>
      <trkpt lat="42.39" lon="2.08576">
        <ele>2044</ele>
        <time>2017-10-15T07:15:48.000Z</time>
      </trkpt>
      <trkpt lat="42.39" lon="2.08578">
        <ele>2044</ele>
        <time>2017-10-15T07:15:49.000Z</time>
      </trkpt>
      <trkpt lat="42.39" lon="2.08579">
        <ele>2044</ele>
        <time>2017-10-15T07:15:50.000Z</time>
      </trkpt>
      <trkpt lat="42.39" lon="2.08581">
        <ele>2044</ele>
        <time>2017-10-15T07:15:51.000Z</time>
      </trkpt>
      <trkpt lat="42.38999" lon="2.08582">
        <ele>2044</ele>
        <time>2017-10-15T07:15:52.000Z</time>
      </trkpt>
      <trkpt lat="42.38999" lon="2.08583">
        <ele>2044</ele>
        <time>2017-10-15T07:15:53.000Z</time>
      </trkpt>
      <trkpt lat="42.38998" lon="2.08584">
        <ele>2044</ele>
        <time>2017-10-15T07:15:54.000Z</time>
      </trkpt>
      <trkpt lat="42.38998" lon="2.08585">
        <ele>2044</ele>
        <time>2017-10-15T07:15:55.000Z</time>
      </trkpt>
      <trkpt lat="42.38997" lon="2.08586">
        <ele>2044</ele>
        <time>2017-10-15T07:15:56.000Z</time>
      </trkpt>
      <trkpt lat="42.38997" lon="2.08587">
        <ele>2044</ele>
        <time>2017-10-15T07:15:57.000Z</time>
      </trkpt>
      <trkpt lat="42.38996" lon="2.08588">
        <ele>2044</ele>
        <time>2017-10-15T07:15:58.000Z</time>
      </trkpt>
      <trkpt lat="42.38996" lon="2.08589">
        <ele>2044</ele>
        <time>2017-10-15T07:15:59.000Z</time>
      </trkpt>
      <trkpt lat="42.38995" lon="2.08591">
        <ele>2044</ele>
        <time>2017-10-15T07:16:00.000Z</time>
      </trkpt>
      <trkpt lat="42.38995" lon="2.08592">
        <ele>2044</ele>
        <time>2017-10-15T07:16:01.000Z</time>
      </trkpt>
      <trkpt lat="42.38994" lon="2.08593">
        <ele>2045</ele>
        <time>2017-10-15T07:16:02.000Z</time>
      </trkpt>
      <trkpt lat="42.38994" lon="2.08594">
        <ele>2045</ele>
        <time>2017-10-15T07:16:03.000Z</time>
      </trkpt>
      <trkpt lat="42.38993" lon="2.08595">
        <ele>2045</ele>
        <time>2017-10-15T07:16:04.000Z</time>
      </trkpt>
      <trkpt lat="42.38993" lon="2.08595">
        <ele>2045</ele>
        <time>2017-10-15T07:16:05.000Z</time>
      </trkpt>
      <trkpt lat="42.38993" lon="2.08596">
        <ele>2045</ele>
        <time>2017-10-15T07:16:06.000Z</time>
      </trkpt>
      <trkpt lat="42.38993" lon="2.08596">
        <ele>2045</ele>
        <time>2017-10-15T07:16:07.000Z</time>
      </trkpt>
      <trkpt lat="42.38993" lon="2.08597">
        <ele>2045</ele>
        <time>2017-10-15T07:16:08.000Z</time>
      </trkpt>
      <trkpt lat="42.38992" lon="2.08598">
        <ele>2045</ele>
        <time>2017-10-15T07:16:09.000Z</time>
      </trkpt>
      <trkpt lat="42.38992" lon="2.08599">
        <ele>2045</ele>
        <time>2017-10-15T07:16:10.000Z</time>
      </trkpt>
      <trkpt lat="42.38993" lon="2.086">
        <ele>2044</ele>
        <time>2017-10-15T07:16:11.000Z</time>
      </trkpt>
      <trkpt lat="42.38993" lon="2.08601">
        <ele>2044</ele>
        <time>2017-10-15T07:16:12.000Z</time>
      </trkpt>
      <trkpt lat="42.38992" lon="2.08601">
        <ele>2044</ele>
        <time>2017-10-15T07:16:13.000Z</time>
      </trkpt>
      <trkpt lat="42.38992" lon="2.08602">
        <ele>2045</ele>
        <time>2017-10-15T07:16:14.000Z</time>
      </trkpt>
      <trkpt lat="42.38992" lon="2.08603">
        <ele>2045</ele>
        <time>2017-10-15T07:16:15.000Z</time>
      </trkpt>
      <trkpt lat="42.38991" lon="2.08604">
        <ele>2045</ele>
        <time>2017-10-15T07:16:16.000Z</time>
      </trkpt>
      <trkpt lat="42.3899" lon="2.08605">
        <ele>2045</ele>
        <time>2017-10-15T07:16:17.000Z</time>
      </trkpt>
      <trkpt lat="42.3899" lon="2.08606">
        <ele>2045</ele>
        <time>2017-10-15T07:16:18.000Z</time>
      </trkpt>
      <trkpt lat="42.3899" lon="2.08607">
        <ele>2045</ele>
        <time>2017-10-15T07:16:19.000Z</time>
      </trkpt>
      <trkpt lat="42.38989" lon="2.08609">
        <ele>2045</ele>
        <time>2017-10-15T07:16:20.000Z</time>
      </trkpt>
      <trkpt lat="42.38989" lon="2.0861">
        <ele>2045</ele>
        <time>2017-10-15T07:16:21.000Z</time>
      </trkpt>
      <trkpt lat="42.38988" lon="2.08611">
        <ele>2045</ele>
        <time>2017-10-15T07:16:22.000Z</time>
      </trkpt>
      <trkpt lat="42.38987" lon="2.08612">
        <ele>2046</ele>
        <time>2017-10-15T07:16:23.000Z</time>
      </trkpt>
      <trkpt lat="42.38987" lon="2.08613">
        <ele>2045</ele>
        <time>2017-10-15T07:16:24.000Z</time>
      </trkpt>
      <trkpt lat="42.38987" lon="2.08614">
        <ele>2046</ele>
        <time>2017-10-15T07:16:25.000Z</time>
      </trkpt>
      <trkpt lat="42.38986" lon="2.08616">
        <ele>2046</ele>
        <time>2017-10-15T07:16:26.000Z</time>
      </trkpt>
      <trkpt lat="42.38986" lon="2.08617">
        <ele>2046</ele>
        <time>2017-10-15T07:16:27.000Z</time>
      </trkpt>
      <trkpt lat="42.38985" lon="2.08618">
        <ele>2046</ele>
        <time>2017-10-15T07:16:28.000Z</time>
      </trkpt>
      <trkpt lat="42.38985" lon="2.08619">
        <ele>2046</ele>
        <time>2017-10-15T07:16:29.000Z</time>
      </trkpt>
      <trkpt lat="42.38984" lon="2.0862">
        <ele>2047</ele>
        <time>2017-10-15T07:16:30.000Z</time>
      </trkpt>
      <trkpt lat="42.38983" lon="2.08621">
        <ele>2047</ele>
        <time>2017-10-15T07:16:31.000Z</time>
      </trkpt>
      <trkpt lat="42.38983" lon="2.08622">
        <ele>2047</ele>
        <time>2017-10-15T07:16:32.000Z</time>
      </trkpt>
      <trkpt lat="42.38982" lon="2.08623">
        <ele>2047</ele>
        <time>2017-10-15T07:16:33.000Z</time>
      </trkpt>
      <trkpt lat="42.38982" lon="2.08624">
        <ele>2047</ele>
        <time>2017-10-15T07:16:34.000Z</time>
      </trkpt>
      <trkpt lat="42.38981" lon="2.08625">
        <ele>2047</ele>
        <time>2017-10-15T07:16:35.000Z</time>
      </trkpt>
      <trkpt lat="42.3898" lon="2.08627">
        <ele>2048</ele>
        <time>2017-10-15T07:16:36.000Z</time>
      </trkpt>
      <trkpt lat="42.3898" lon="2.08628">
        <ele>2048</ele>
        <time>2017-10-15T07:16:37.000Z</time>
      </trkpt>
      <trkpt lat="42.38979" lon="2.08629">
        <ele>2048</ele>
        <time>2017-10-15T07:16:38.000Z</time>
      </trkpt>
      <trkpt lat="42.38978" lon="2.0863">
        <ele>2048</ele>
        <time>2017-10-15T07:16:39.000Z</time>
      </trkpt>
      <trkpt lat="42.38978" lon="2.08631">
        <ele>2048</ele>
        <time>2017-10-15T07:16:40.000Z</time>
      </trkpt>
      <trkpt lat="42.38977" lon="2.08632">
        <ele>2048</ele>
        <time>2017-10-15T07:16:41.000Z</time>
      </trkpt>
      <trkpt lat="42.38977" lon="2.08633">
        <ele>2049</ele>
        <time>2017-10-15T07:16:42.000Z</time>
      </trkpt>
      <trkpt lat="42.38976" lon="2.08635">
        <ele>2049</ele>
        <time>2017-10-15T07:16:43.000Z</time>
      </trkpt>
      <trkpt lat="42.38976" lon="2.08636">
        <ele>2049</ele>
        <time>2017-10-15T07:16:44.000Z</time>
      </trkpt>
      <trkpt lat="42.38975" lon="2.08637">
        <ele>2049</ele>
        <time>2017-10-15T07:16:45.000Z</time>
      </trkpt>
      <trkpt lat="42.38975" lon="2.08638">
        <ele>2049</ele>
        <time>2017-10-15T07:16:46.000Z</time>
      </trkpt>
      <trkpt lat="42.38974" lon="2.08639">
        <ele>2049</ele>
        <time>2017-10-15T07:16:47.000Z</time>
      </trkpt>
      <trkpt lat="42.38973" lon="2.0864">
        <ele>2049</ele>
        <time>2017-10-15T07:16:48.000Z</time>
      </trkpt>
      <trkpt lat="42.38972" lon="2.08642">
        <ele>2050</ele>
        <time>2017-10-15T07:16:49.000Z</time>
      </trkpt>
      <trkpt lat="42.38971" lon="2.08643">
        <ele>2050</ele>
        <time>2017-10-15T07:16:50.000Z</time>
      </trkpt>
      <trkpt lat="42.38971" lon="2.08644">
        <ele>2050</ele>
        <time>2017-10-15T07:16:51.000Z</time>
      </trkpt>
      <trkpt lat="42.3897" lon="2.08645">
        <ele>2050</ele>
        <time>2017-10-15T07:16:52.000Z</time>
      </trkpt>
      <trkpt lat="42.3897" lon="2.08646">
        <ele>2050</ele>
        <time>2017-10-15T07:16:53.000Z</time>
      </trkpt>
      <trkpt lat="42.38969" lon="2.08647">
        <ele>2050</ele>
        <time>2017-10-15T07:16:54.000Z</time>
      </trkpt>
      <trkpt lat="42.38969" lon="2.08648">
        <ele>2050</ele>
        <time>2017-10-15T07:16:55.000Z</time>
      </trkpt>
      <trkpt lat="42.38968" lon="2.08649">
        <ele>2050</ele>
        <time>2017-10-15T07:16:56.000Z</time>
      </trkpt>
      <trkpt lat="42.38968" lon="2.08651">
        <ele>2050</ele>
        <time>2017-10-15T07:16:57.000Z</time>
      </trkpt>
      <trkpt lat="42.38967" lon="2.08651">
        <ele>2050</ele>
        <time>2017-10-15T07:16:58.000Z</time>
      </trkpt>
      <trkpt lat="42.38967" lon="2.08653">
        <ele>2050</ele>
        <time>2017-10-15T07:16:59.000Z</time>
      </trkpt>
      <trkpt lat="42.38967" lon="2.08653">
        <ele>2050</ele>
        <time>2017-10-15T07:17:00.000Z</time>
      </trkpt>
      <trkpt lat="42.38967" lon="2.08654">
        <ele>2050</ele>
        <time>2017-10-15T07:17:01.000Z</time>
      </trkpt>
      <trkpt lat="42.38966" lon="2.08655">
        <ele>2050</ele>
        <time>2017-10-15T07:17:02.000Z</time>
      </trkpt>
      <trkpt lat="42.38966" lon="2.08656">
        <ele>2050</ele>
        <time>2017-10-15T07:17:03.000Z</time>
      </trkpt>
      <trkpt lat="42.38965" lon="2.08656">
        <ele>2050</ele>
        <time>2017-10-15T07:17:04.000Z</time>
      </trkpt>
      <trkpt lat="42.38965" lon="2.08657">
        <ele>2050</ele>
        <time>2017-10-15T07:17:05.000Z</time>
      </trkpt>
      <trkpt lat="42.38964" lon="2.08658">
        <ele>2050</ele>
        <time>2017-10-15T07:17:06.000Z</time>
      </trkpt>
      <trkpt lat="42.38964" lon="2.08659">
        <ele>2050</ele>
        <time>2017-10-15T07:17:07.000Z</time>
      </trkpt>
      <trkpt lat="42.38963" lon="2.0866">
        <ele>2050</ele>
        <time>2017-10-15T07:17:08.000Z</time>
      </trkpt>
      <trkpt lat="42.38963" lon="2.08661">
        <ele>2050</ele>
        <time>2017-10-15T07:17:09.000Z</time>
      </trkpt>
      <trkpt lat="42.38962" lon="2.08662">
        <ele>2051</ele>
        <time>2017-10-15T07:17:10.000Z</time>
      </trkpt>
      <trkpt lat="42.38962" lon="2.08663">
        <ele>2051</ele>
        <time>2017-10-15T07:17:11.000Z</time>
      </trkpt>
      <trkpt lat="42.38961" lon="2.08664">
        <ele>2051</ele>
        <time>2017-10-15T07:17:12.000Z</time>
      </trkpt>
      <trkpt lat="42.3896" lon="2.08665">
        <ele>2052</ele>
        <time>2017-10-15T07:17:13.000Z</time>
      </trkpt>
      <trkpt lat="42.3896" lon="2.08666">
        <ele>2052</ele>
        <time>2017-10-15T07:17:14.000Z</time>
      </trkpt>
      <trkpt lat="42.38959" lon="2.08667">
        <ele>2053</ele>
        <time>2017-10-15T07:17:15.000Z</time>
      </trkpt>
      <trkpt lat="42.38958" lon="2.08668">
        <ele>2053</ele>
        <time>2017-10-15T07:17:16.000Z</time>
      </trkpt>
      <trkpt lat="42.38957" lon="2.08669">
        <ele>2054</ele>
        <time>2017-10-15T07:17:17.000Z</time>
      </trkpt>
      <trkpt lat="42.38956" lon="2.0867">
        <ele>2054</ele>
        <time>2017-10-15T07:17:18.000Z</time>
      </trkpt>
      <trkpt lat="42.38956" lon="2.08671">
        <ele>2054</ele>
        <time>2017-10-15T07:17:19.000Z</time>
      </trkpt>
      <trkpt lat="42.38955" lon="2.08672">
        <ele>2055</ele>
        <time>2017-10-15T07:17:20.000Z</time>
      </trkpt>
      <trkpt lat="42.38955" lon="2.08673">
        <ele>2055</ele>
        <time>2017-10-15T07:17:21.000Z</time>
      </trkpt>
      <trkpt lat="42.38954" lon="2.08674">
        <ele>2055</ele>
        <time>2017-10-15T07:17:22.000Z</time>
      </trkpt>
      <trkpt lat="42.38954" lon="2.08675">
        <ele>2055</ele>
        <time>2017-10-15T07:17:23.000Z</time>
      </trkpt>
      <trkpt lat="42.38953" lon="2.08676">
        <ele>2056</ele>
        <time>2017-10-15T07:17:24.000Z</time>
      </trkpt>
      <trkpt lat="42.38952" lon="2.08677">
        <ele>2056</ele>
        <time>2017-10-15T07:17:25.000Z</time>
      </trkpt>
      <trkpt lat="42.38952" lon="2.08678">
        <ele>2057</ele>
        <time>2017-10-15T07:17:26.000Z</time>
      </trkpt>
      <trkpt lat="42.38951" lon="2.08679">
        <ele>2057</ele>
        <time>2017-10-15T07:17:27.000Z</time>
      </trkpt>
      <trkpt lat="42.3895" lon="2.08681">
        <ele>2057</ele>
        <time>2017-10-15T07:17:28.000Z</time>
      </trkpt>
      <trkpt lat="42.3895" lon="2.08682">
        <ele>2058</ele>
        <time>2017-10-15T07:17:29.000Z</time>
      </trkpt>
      <trkpt lat="42.3895" lon="2.08683">
        <ele>2058</ele>
        <time>2017-10-15T07:17:30.000Z</time>
      </trkpt>
      <trkpt lat="42.38949" lon="2.08684">
        <ele>2058</ele>
        <time>2017-10-15T07:17:31.000Z</time>
      </trkpt>
      <trkpt lat="42.38948" lon="2.08685">
        <ele>2058</ele>
        <time>2017-10-15T07:17:32.000Z</time>
      </trkpt>
      <trkpt lat="42.38948" lon="2.08686">
        <ele>2059</ele>
        <time>2017-10-15T07:17:33.000Z</time>
      </trkpt>
      <trkpt lat="42.38948" lon="2.08688">
        <ele>2059</ele>
        <time>2017-10-15T07:17:34.000Z</time>
      </trkpt>
      <trkpt lat="42.38947" lon="2.08689">
        <ele>2059</ele>
        <time>2017-10-15T07:17:35.000Z</time>
      </trkpt>
      <trkpt lat="42.38946" lon="2.0869">
        <ele>2060</ele>
        <time>2017-10-15T07:17:36.000Z</time>
      </trkpt>
      <trkpt lat="42.38946" lon="2.08691">
        <ele>2060</ele>
        <time>2017-10-15T07:17:37.000Z</time>
      </trkpt>
      <trkpt lat="42.38945" lon="2.08692">
        <ele>2060</ele>
        <time>2017-10-15T07:17:38.000Z</time>
      </trkpt>
      <trkpt lat="42.38945" lon="2.08693">
        <ele>2060</ele>
        <time>2017-10-15T07:17:39.000Z</time>
      </trkpt>
      <trkpt lat="42.38944" lon="2.08694">
        <ele>2060</ele>
        <time>2017-10-15T07:17:40.000Z</time>
      </trkpt>
      <trkpt lat="42.38943" lon="2.08696">
        <ele>2060</ele>
        <time>2017-10-15T07:17:41.000Z</time>
      </trkpt>
      <trkpt lat="42.38943" lon="2.08697">
        <ele>2059</ele>
        <time>2017-10-15T07:17:42.000Z</time>
      </trkpt>
      <trkpt lat="42.38942" lon="2.08698">
        <ele>2059</ele>
        <time>2017-10-15T07:17:43.000Z</time>
      </trkpt>
      <trkpt lat="42.38942" lon="2.08699">
        <ele>2059</ele>
        <time>2017-10-15T07:17:44.000Z</time>
      </trkpt>
      <trkpt lat="42.38941" lon="2.08699">
        <ele>2059</ele>
        <time>2017-10-15T07:17:45.000Z</time>
      </trkpt>
      <trkpt lat="42.38941" lon="2.08701">
        <ele>2059</ele>
        <time>2017-10-15T07:17:46.000Z</time>
      </trkpt>
      <trkpt lat="42.3894" lon="2.08702">
        <ele>2059</ele>
        <time>2017-10-15T07:17:47.000Z</time>
      </trkpt>
      <trkpt lat="42.38939" lon="2.08703">
        <ele>2059</ele>
        <time>2017-10-15T07:17:48.000Z</time>
      </trkpt>
      <trkpt lat="42.38939" lon="2.08704">
        <ele>2059</ele>
        <time>2017-10-15T07:17:49.000Z</time>
      </trkpt>
      <trkpt lat="42.38938" lon="2.08705">
        <ele>2059</ele>
        <time>2017-10-15T07:17:50.000Z</time>
      </trkpt>
      <trkpt lat="42.38937" lon="2.08706">
        <ele>2059</ele>
        <time>2017-10-15T07:17:51.000Z</time>
      </trkpt>
      <trkpt lat="42.38936" lon="2.08707">
        <ele>2059</ele>
        <time>2017-10-15T07:17:52.000Z</time>
      </trkpt>
      <trkpt lat="42.38936" lon="2.08709">
        <ele>2059</ele>
        <time>2017-10-15T07:17:53.000Z</time>
      </trkpt>
      <trkpt lat="42.38936" lon="2.0871">
        <ele>2059</ele>
        <time>2017-10-15T07:17:54.000Z</time>
      </trkpt>
      <trkpt lat="42.38935" lon="2.08711">
        <ele>2059</ele>
        <time>2017-10-15T07:17:55.000Z</time>
      </trkpt>
      <trkpt lat="42.38935" lon="2.08712">
        <ele>2059</ele>
        <time>2017-10-15T07:17:56.000Z</time>
      </trkpt>
      <trkpt lat="42.38934" lon="2.08713">
        <ele>2059</ele>
        <time>2017-10-15T07:17:57.000Z</time>
      </trkpt>
      <trkpt lat="42.38933" lon="2.08713">
        <ele>2059</ele>
        <time>2017-10-15T07:17:58.000Z</time>
      </trkpt>
      <trkpt lat="42.38933" lon="2.08715">
        <ele>2058</ele>
        <time>2017-10-15T07:17:59.000Z</time>
      </trkpt>
      <trkpt lat="42.38933" lon="2.08716">
        <ele>2058</ele>
        <time>2017-10-15T07:18:00.000Z</time>
      </trkpt>
      <trkpt lat="42.38932" lon="2.08716">
        <ele>2058</ele>
        <time>2017-10-15T07:18:01.000Z</time>
      </trkpt>
      <trkpt lat="42.38932" lon="2.08718">
        <ele>2058</ele>
        <time>2017-10-15T07:18:02.000Z</time>
      </trkpt>
      <trkpt lat="42.38931" lon="2.08719">
        <ele>2058</ele>
        <time>2017-10-15T07:18:03.000Z</time>
      </trkpt>
      <trkpt lat="42.38931" lon="2.08721">
        <ele>2058</ele>
        <time>2017-10-15T07:18:04.000Z</time>
      </trkpt>
      <trkpt lat="42.3893" lon="2.08722">
        <ele>2058</ele>
        <time>2017-10-15T07:18:05.000Z</time>
      </trkpt>
      <trkpt lat="42.3893" lon="2.08723">
        <ele>2058</ele>
        <time>2017-10-15T07:18:06.000Z</time>
      </trkpt>
      <trkpt lat="42.38929" lon="2.08724">
        <ele>2058</ele>
        <time>2017-10-15T07:18:07.000Z</time>
      </trkpt>
      <trkpt lat="42.38929" lon="2.08725">
        <ele>2058</ele>
        <time>2017-10-15T07:18:08.000Z</time>
      </trkpt>
      <trkpt lat="42.38928" lon="2.08726">
        <ele>2057</ele>
        <time>2017-10-15T07:18:09.000Z</time>
      </trkpt>
      <trkpt lat="42.38927" lon="2.08727">
        <ele>2057</ele>
        <time>2017-10-15T07:18:10.000Z</time>
      </trkpt>
      <trkpt lat="42.38927" lon="2.08728">
        <ele>2057</ele>
        <time>2017-10-15T07:18:11.000Z</time>
      </trkpt>
      <trkpt lat="42.38926" lon="2.0873">
        <ele>2057</ele>
        <time>2017-10-15T07:18:12.000Z</time>
      </trkpt>
      <trkpt lat="42.38925" lon="2.08731">
        <ele>2057</ele>
        <time>2017-10-15T07:18:13.000Z</time>
      </trkpt>
      <trkpt lat="42.38925" lon="2.08731">
        <ele>2057</ele>
        <time>2017-10-15T07:18:14.000Z</time>
      </trkpt>
      <trkpt lat="42.38924" lon="2.08733">
        <ele>2057</ele>
        <time>2017-10-15T07:18:15.000Z</time>
      </trkpt>
      <trkpt lat="42.38923" lon="2.08733">
        <ele>2057</ele>
        <time>2017-10-15T07:18:16.000Z</time>
      </trkpt>
      <trkpt lat="42.38923" lon="2.08734">
        <ele>2058</ele>
        <time>2017-10-15T07:18:17.000Z</time>
      </trkpt>
      <trkpt lat="42.38922" lon="2.08735">
        <ele>2058</ele>
        <time>2017-10-15T07:18:18.000Z</time>
      </trkpt>
      <trkpt lat="42.38921" lon="2.08736">
        <ele>2058</ele>
        <time>2017-10-15T07:18:19.000Z</time>
      </trkpt>
      <trkpt lat="42.3892" lon="2.08737">
        <ele>2058</ele>
        <time>2017-10-15T07:18:20.000Z</time>
      </trkpt>
      <trkpt lat="42.38919" lon="2.08738">
        <ele>2058</ele>
        <time>2017-10-15T07:18:21.000Z</time>
      </trkpt>
      <trkpt lat="42.38918" lon="2.08739">
        <ele>2058</ele>
        <time>2017-10-15T07:18:22.000Z</time>
      </trkpt>
      <trkpt lat="42.38918" lon="2.08739">
        <ele>2058</ele>
        <time>2017-10-15T07:18:23.000Z</time>
      </trkpt>
      <trkpt lat="42.38917" lon="2.0874">
        <ele>2058</ele>
        <time>2017-10-15T07:18:24.000Z</time>
      </trkpt>
      <trkpt lat="42.38916" lon="2.08741">
        <ele>2058</ele>
        <time>2017-10-15T07:18:25.000Z</time>
      </trkpt>
      <trkpt lat="42.38915" lon="2.08742">
        <ele>2058</ele>
        <time>2017-10-15T07:18:26.000Z</time>
      </trkpt>
      <trkpt lat="42.38914" lon="2.08743">
        <ele>2058</ele>
        <time>2017-10-15T07:18:27.000Z</time>
      </trkpt>
      <trkpt lat="42.38914" lon="2.08743">
        <ele>2059</ele>
        <time>2017-10-15T07:18:28.000Z</time>
      </trkpt>
      <trkpt lat="42.38913" lon="2.08744">
        <ele>2059</ele>
        <time>2017-10-15T07:18:29.000Z</time>
      </trkpt>
      <trkpt lat="42.38912" lon="2.08745">
        <ele>2059</ele>
        <time>2017-10-15T07:18:30.000Z</time>
      </trkpt>
      <trkpt lat="42.38911" lon="2.08746">
        <ele>2060</ele>
        <time>2017-10-15T07:18:31.000Z</time>
      </trkpt>
      <trkpt lat="42.38911" lon="2.08747">
        <ele>2060</ele>
        <time>2017-10-15T07:18:32.000Z</time>
      </trkpt>
      <trkpt lat="42.3891" lon="2.08748">
        <ele>2060</ele>
        <time>2017-10-15T07:18:33.000Z</time>
      </trkpt>
      <trkpt lat="42.38909" lon="2.08749">
        <ele>2060</ele>
        <time>2017-10-15T07:18:34.000Z</time>
      </trkpt>
      <trkpt lat="42.38909" lon="2.0875">
        <ele>2060</ele>
        <time>2017-10-15T07:18:35.000Z</time>
      </trkpt>
      <trkpt lat="42.38908" lon="2.08751">
        <ele>2061</ele>
        <time>2017-10-15T07:18:36.000Z</time>
      </trkpt>
      <trkpt lat="42.38907" lon="2.08752">
        <ele>2061</ele>
        <time>2017-10-15T07:18:37.000Z</time>
      </trkpt>
      <trkpt lat="42.38907" lon="2.08753">
        <ele>2061</ele>
        <time>2017-10-15T07:18:38.000Z</time>
      </trkpt>
      <trkpt lat="42.38906" lon="2.08754">
        <ele>2061</ele>
        <time>2017-10-15T07:18:39.000Z</time>
      </trkpt>
      <trkpt lat="42.38905" lon="2.08754">
        <ele>2062</ele>
        <time>2017-10-15T07:18:40.000Z</time>
      </trkpt>
      <trkpt lat="42.38905" lon="2.08755">
        <ele>2062</ele>
        <time>2017-10-15T07:18:41.000Z</time>
      </trkpt>
      <trkpt lat="42.38904" lon="2.08756">
        <ele>2062</ele>
        <time>2017-10-15T07:18:42.000Z</time>
      </trkpt>
      <trkpt lat="42.38903" lon="2.08757">
        <ele>2063</ele>
        <time>2017-10-15T07:18:43.000Z</time>
      </trkpt>
      <trkpt lat="42.38903" lon="2.08758">
        <ele>2063</ele>
        <time>2017-10-15T07:18:44.000Z</time>
      </trkpt>
      <trkpt lat="42.38902" lon="2.08759">
        <ele>2063</ele>
        <time>2017-10-15T07:18:45.000Z</time>
      </trkpt>
      <trkpt lat="42.38901" lon="2.0876">
        <ele>2064</ele>
        <time>2017-10-15T07:18:46.000Z</time>
      </trkpt>
      <trkpt lat="42.389" lon="2.0876">
        <ele>2064</ele>
        <time>2017-10-15T07:18:47.000Z</time>
      </trkpt>
      <trkpt lat="42.389" lon="2.08761">
        <ele>2064</ele>
        <time>2017-10-15T07:18:48.000Z</time>
      </trkpt>
      <trkpt lat="42.38899" lon="2.08762">
        <ele>2064</ele>
        <time>2017-10-15T07:18:49.000Z</time>
      </trkpt>
      <trkpt lat="42.38898" lon="2.08763">
        <ele>2065</ele>
        <time>2017-10-15T07:18:50.000Z</time>
      </trkpt>
      <trkpt lat="42.38898" lon="2.08763">
        <ele>2065</ele>
        <time>2017-10-15T07:18:51.000Z</time>
      </trkpt>
      <trkpt lat="42.38897" lon="2.08764">
        <ele>2065</ele>
        <time>2017-10-15T07:18:52.000Z</time>
      </trkpt>
      <trkpt lat="42.38896" lon="2.08766">
        <ele>2065</ele>
        <time>2017-10-15T07:18:53.000Z</time>
      </trkpt>
      <trkpt lat="42.38896" lon="2.08766">
        <ele>2066</ele>
        <time>2017-10-15T07:18:54.000Z</time>
      </trkpt>
      <trkpt lat="42.38895" lon="2.08768">
        <ele>2066</ele>
        <time>2017-10-15T07:18:55.000Z</time>
      </trkpt>
      <trkpt lat="42.38894" lon="2.08769">
        <ele>2066</ele>
        <time>2017-10-15T07:18:56.000Z</time>
      </trkpt>
      <trkpt lat="42.38894" lon="2.0877">
        <ele>2066</ele>
        <time>2017-10-15T07:18:57.000Z</time>
      </trkpt>
      <trkpt lat="42.38893" lon="2.08771">
        <ele>2067</ele>
        <time>2017-10-15T07:18:58.000Z</time>
      </trkpt>
      <trkpt lat="42.38892" lon="2.08772">
        <ele>2067</ele>
        <time>2017-10-15T07:18:59.000Z</time>
      </trkpt>
      <trkpt lat="42.38891" lon="2.08773">
        <ele>2067</ele>
        <time>2017-10-15T07:19:00.000Z</time>
      </trkpt>
      <trkpt lat="42.38891" lon="2.08775">
        <ele>2068</ele>
        <time>2017-10-15T07:19:01.000Z</time>
      </trkpt>
      <trkpt lat="42.3889" lon="2.08775">
        <ele>2068</ele>
        <time>2017-10-15T07:19:02.000Z</time>
      </trkpt>
      <trkpt lat="42.38889" lon="2.08776">
        <ele>2068</ele>
        <time>2017-10-15T07:19:03.000Z</time>
      </trkpt>
      <trkpt lat="42.38888" lon="2.08777">
        <ele>2068</ele>
        <time>2017-10-15T07:19:04.000Z</time>
      </trkpt>
      <trkpt lat="42.38888" lon="2.08779">
        <ele>2069</ele>
        <time>2017-10-15T07:19:05.000Z</time>
      </trkpt>
      <trkpt lat="42.38887" lon="2.0878">
        <ele>2069</ele>
        <time>2017-10-15T07:19:06.000Z</time>
      </trkpt>
      <trkpt lat="42.38886" lon="2.08781">
        <ele>2069</ele>
        <time>2017-10-15T07:19:07.000Z</time>
      </trkpt>
      <trkpt lat="42.38886" lon="2.08782">
        <ele>2070</ele>
        <time>2017-10-15T07:19:08.000Z</time>
      </trkpt>
      <trkpt lat="42.38885" lon="2.08783">
        <ele>2070</ele>
        <time>2017-10-15T07:19:09.000Z</time>
      </trkpt>
      <trkpt lat="42.38884" lon="2.08784">
        <ele>2070</ele>
        <time>2017-10-15T07:19:10.000Z</time>
      </trkpt>
      <trkpt lat="42.38883" lon="2.08785">
        <ele>2070</ele>
        <time>2017-10-15T07:19:11.000Z</time>
      </trkpt>
      <trkpt lat="42.38883" lon="2.08785">
        <ele>2071</ele>
        <time>2017-10-15T07:19:12.000Z</time>
      </trkpt>
      <trkpt lat="42.38882" lon="2.08786">
        <ele>2071</ele>
        <time>2017-10-15T07:19:13.000Z</time>
      </trkpt>
      <trkpt lat="42.38881" lon="2.08787">
        <ele>2071</ele>
        <time>2017-10-15T07:19:14.000Z</time>
      </trkpt>
      <trkpt lat="42.38881" lon="2.08788">
        <ele>2071</ele>
        <time>2017-10-15T07:19:15.000Z</time>
      </trkpt>
      <trkpt lat="42.3888" lon="2.08789">
        <ele>2072</ele>
        <time>2017-10-15T07:19:16.000Z</time>
      </trkpt>
      <trkpt lat="42.38879" lon="2.0879">
        <ele>2072</ele>
        <time>2017-10-15T07:19:17.000Z</time>
      </trkpt>
      <trkpt lat="42.38878" lon="2.08791">
        <ele>2072</ele>
        <time>2017-10-15T07:19:18.000Z</time>
      </trkpt>
      <trkpt lat="42.38878" lon="2.08792">
        <ele>2072</ele>
        <time>2017-10-15T07:19:19.000Z</time>
      </trkpt>
      <trkpt lat="42.38877" lon="2.08793">
        <ele>2072</ele>
        <time>2017-10-15T07:19:20.000Z</time>
      </trkpt>
      <trkpt lat="42.38877" lon="2.08794">
        <ele>2072</ele>
        <time>2017-10-15T07:19:21.000Z</time>
      </trkpt>
      <trkpt lat="42.38876" lon="2.08795">
        <ele>2072</ele>
        <time>2017-10-15T07:19:22.000Z</time>
      </trkpt>
      <trkpt lat="42.38875" lon="2.08796">
        <ele>2072</ele>
        <time>2017-10-15T07:19:23.000Z</time>
      </trkpt>
      <trkpt lat="42.38874" lon="2.08796">
        <ele>2072</ele>
        <time>2017-10-15T07:19:24.000Z</time>
      </trkpt>
      <trkpt lat="42.38873" lon="2.08797">
        <ele>2072</ele>
        <time>2017-10-15T07:19:25.000Z</time>
      </trkpt>
      <trkpt lat="42.38873" lon="2.08798">
        <ele>2072</ele>
        <time>2017-10-15T07:19:26.000Z</time>
      </trkpt>
      <trkpt lat="42.38872" lon="2.08799">
        <ele>2072</ele>
        <time>2017-10-15T07:19:27.000Z</time>
      </trkpt>
      <trkpt lat="42.38871" lon="2.08801">
        <ele>2072</ele>
        <time>2017-10-15T07:19:28.000Z</time>
      </trkpt>
      <trkpt lat="42.3887" lon="2.08801">
        <ele>2072</ele>
        <time>2017-10-15T07:19:29.000Z</time>
      </trkpt>
      <trkpt lat="42.3887" lon="2.08802">
        <ele>2072</ele>
        <time>2017-10-15T07:19:30.000Z</time>
      </trkpt>
      <trkpt lat="42.38869" lon="2.08803">
        <ele>2072</ele>
        <time>2017-10-15T07:19:31.000Z</time>
      </trkpt>
      <trkpt lat="42.38868" lon="2.08804">
        <ele>2072</ele>
        <time>2017-10-15T07:19:32.000Z</time>
      </trkpt>
      <trkpt lat="42.38868" lon="2.08805">
        <ele>2072</ele>
        <time>2017-10-15T07:19:33.000Z</time>
      </trkpt>
      <trkpt lat="42.38867" lon="2.08806">
        <ele>2072</ele>
        <time>2017-10-15T07:19:34.000Z</time>
      </trkpt>
      <trkpt lat="42.38867" lon="2.08807">
        <ele>2072</ele>
        <time>2017-10-15T07:19:35.000Z</time>
      </trkpt>
      <trkpt lat="42.38866" lon="2.08808">
        <ele>2072</ele>
        <time>2017-10-15T07:19:36.000Z</time>
      </trkpt>
      <trkpt lat="42.38865" lon="2.08809">
        <ele>2072</ele>
        <time>2017-10-15T07:19:37.000Z</time>
      </trkpt>
      <trkpt lat="42.38865" lon="2.0881">
        <ele>2072</ele>
        <time>2017-10-15T07:19:38.000Z</time>
      </trkpt>
      <trkpt lat="42.38864" lon="2.08811">
        <ele>2072</ele>
        <time>2017-10-15T07:19:39.000Z</time>
      </trkpt>
      <trkpt lat="42.38864" lon="2.08812">
        <ele>2072</ele>
        <time>2017-10-15T07:19:40.000Z</time>
      </trkpt>
      <trkpt lat="42.38863" lon="2.08813">
        <ele>2072</ele>
        <time>2017-10-15T07:19:41.000Z</time>
      </trkpt>
      <trkpt lat="42.38862" lon="2.08813">
        <ele>2072</ele>
        <time>2017-10-15T07:19:42.000Z</time>
      </trkpt>
      <trkpt lat="42.38861" lon="2.08814">
        <ele>2072</ele>
        <time>2017-10-15T07:19:43.000Z</time>
      </trkpt>
      <trkpt lat="42.3886" lon="2.08815">
        <ele>2072</ele>
        <time>2017-10-15T07:19:44.000Z</time>
      </trkpt>
      <trkpt lat="42.38859" lon="2.08816">
        <ele>2072</ele>
        <time>2017-10-15T07:19:45.000Z</time>
      </trkpt>
      <trkpt lat="42.38859" lon="2.08817">
        <ele>2072</ele>
        <time>2017-10-15T07:19:46.000Z</time>
      </trkpt>
      <trkpt lat="42.38858" lon="2.08818">
        <ele>2072</ele>
        <time>2017-10-15T07:19:47.000Z</time>
      </trkpt>
      <trkpt lat="42.38858" lon="2.08819">
        <ele>2072</ele>
        <time>2017-10-15T07:19:48.000Z</time>
      </trkpt>
      <trkpt lat="42.38857" lon="2.0882">
        <ele>2071</ele>
        <time>2017-10-15T07:19:49.000Z</time>
      </trkpt>
      <trkpt lat="42.38856" lon="2.08821">
        <ele>2071</ele>
        <time>2017-10-15T07:19:50.000Z</time>
      </trkpt>
      <trkpt lat="42.38856" lon="2.08822">
        <ele>2071</ele>
        <time>2017-10-15T07:19:51.000Z</time>
      </trkpt>
      <trkpt lat="42.38855" lon="2.08824">
        <ele>2071</ele>
        <time>2017-10-15T07:19:52.000Z</time>
      </trkpt>
      <trkpt lat="42.38854" lon="2.08825">
        <ele>2071</ele>
        <time>2017-10-15T07:19:53.000Z</time>
      </trkpt>
      <trkpt lat="42.38854" lon="2.08825">
        <ele>2071</ele>
        <time>2017-10-15T07:19:54.000Z</time>
      </trkpt>
      <trkpt lat="42.38853" lon="2.08826">
        <ele>2071</ele>
        <time>2017-10-15T07:19:55.000Z</time>
      </trkpt>
      <trkpt lat="42.38852" lon="2.08827">
        <ele>2072</ele>
        <time>2017-10-15T07:19:56.000Z</time>
      </trkpt>
      <trkpt lat="42.38851" lon="2.08828">
        <ele>2072</ele>
        <time>2017-10-15T07:19:57.000Z</time>
      </trkpt>
      <trkpt lat="42.38851" lon="2.08829">
        <ele>2073</ele>
        <time>2017-10-15T07:19:58.000Z</time>
      </trkpt>
      <trkpt lat="42.3885" lon="2.0883">
        <ele>2073</ele>
        <time>2017-10-15T07:19:59.000Z</time>
      </trkpt>
      <trkpt lat="42.38849" lon="2.0883">
        <ele>2074</ele>
        <time>2017-10-15T07:20:00.000Z</time>
      </trkpt>
      <trkpt lat="42.38848" lon="2.08831">
        <ele>2074</ele>
        <time>2017-10-15T07:20:01.000Z</time>
      </trkpt>
      <trkpt lat="42.38848" lon="2.08832">
        <ele>2075</ele>
        <time>2017-10-15T07:20:02.000Z</time>
      </trkpt>
      <trkpt lat="42.38847" lon="2.08833">
        <ele>2075</ele>
        <time>2017-10-15T07:20:03.000Z</time>
      </trkpt>
      <trkpt lat="42.38846" lon="2.08834">
        <ele>2076</ele>
        <time>2017-10-15T07:20:04.000Z</time>
      </trkpt>
      <trkpt lat="42.38846" lon="2.08835">
        <ele>2076</ele>
        <time>2017-10-15T07:20:05.000Z</time>
      </trkpt>
      <trkpt lat="42.38845" lon="2.08836">
        <ele>2077</ele>
        <time>2017-10-15T07:20:06.000Z</time>
      </trkpt>
      <trkpt lat="42.38844" lon="2.08837">
        <ele>2077</ele>
        <time>2017-10-15T07:20:07.000Z</time>
      </trkpt>
      <trkpt lat="42.38843" lon="2.08838">
        <ele>2078</ele>
        <time>2017-10-15T07:20:08.000Z</time>
      </trkpt>
      <trkpt lat="42.38843" lon="2.08839">
        <ele>2078</ele>
        <time>2017-10-15T07:20:09.000Z</time>
      </trkpt>
      <trkpt lat="42.38842" lon="2.0884">
        <ele>2078</ele>
        <time>2017-10-15T07:20:10.000Z</time>
      </trkpt>
      <trkpt lat="42.38841" lon="2.08841">
        <ele>2078</ele>
        <time>2017-10-15T07:20:11.000Z</time>
      </trkpt>
      <trkpt lat="42.38841" lon="2.08842">
        <ele>2078</ele>
        <time>2017-10-15T07:20:12.000Z</time>
      </trkpt>
      <trkpt lat="42.3884" lon="2.08843">
        <ele>2078</ele>
        <time>2017-10-15T07:20:13.000Z</time>
      </trkpt>
      <trkpt lat="42.38839" lon="2.08844">
        <ele>2078</ele>
        <time>2017-10-15T07:20:14.000Z</time>
      </trkpt>
      <trkpt lat="42.38839" lon="2.08845">
        <ele>2078</ele>
        <time>2017-10-15T07:20:15.000Z</time>
      </trkpt>
      <trkpt lat="42.38838" lon="2.08846">
        <ele>2078</ele>
        <time>2017-10-15T07:20:16.000Z</time>
      </trkpt>
      <trkpt lat="42.38837" lon="2.08847">
        <ele>2077</ele>
        <time>2017-10-15T07:20:17.000Z</time>
      </trkpt>
      <trkpt lat="42.38837" lon="2.08848">
        <ele>2077</ele>
        <time>2017-10-15T07:20:18.000Z</time>
      </trkpt>
      <trkpt lat="42.38836" lon="2.08849">
        <ele>2077</ele>
        <time>2017-10-15T07:20:19.000Z</time>
      </trkpt>
      <trkpt lat="42.38835" lon="2.0885">
        <ele>2077</ele>
        <time>2017-10-15T07:20:20.000Z</time>
      </trkpt>
      <trkpt lat="42.38835" lon="2.08851">
        <ele>2077</ele>
        <time>2017-10-15T07:20:21.000Z</time>
      </trkpt>
      <trkpt lat="42.38834" lon="2.08852">
        <ele>2077</ele>
        <time>2017-10-15T07:20:22.000Z</time>
      </trkpt>
      <trkpt lat="42.38834" lon="2.08853">
        <ele>2077</ele>
        <time>2017-10-15T07:20:23.000Z</time>
      </trkpt>
      <trkpt lat="42.38833" lon="2.08854">
        <ele>2077</ele>
        <time>2017-10-15T07:20:24.000Z</time>
      </trkpt>
      <trkpt lat="42.38832" lon="2.08855">
        <ele>2077</ele>
        <time>2017-10-15T07:20:25.000Z</time>
      </trkpt>
      <trkpt lat="42.38831" lon="2.08856">
        <ele>2077</ele>
        <time>2017-10-15T07:20:26.000Z</time>
      </trkpt>
      <trkpt lat="42.38831" lon="2.08857">
        <ele>2077</ele>
        <time>2017-10-15T07:20:27.000Z</time>
      </trkpt>
      <trkpt lat="42.3883" lon="2.08858">
        <ele>2077</ele>
        <time>2017-10-15T07:20:28.000Z</time>
      </trkpt>
      <trkpt lat="42.3883" lon="2.08859">
        <ele>2078</ele>
        <time>2017-10-15T07:20:29.000Z</time>
      </trkpt>
      <trkpt lat="42.38829" lon="2.0886">
        <ele>2078</ele>
        <time>2017-10-15T07:20:30.000Z</time>
      </trkpt>
      <trkpt lat="42.38828" lon="2.08861">
        <ele>2078</ele>
        <time>2017-10-15T07:20:31.000Z</time>
      </trkpt>
      <trkpt lat="42.38828" lon="2.08862">
        <ele>2078</ele>
        <time>2017-10-15T07:20:32.000Z</time>
      </trkpt>
      <trkpt lat="42.38827" lon="2.08863">
        <ele>2079</ele>
        <time>2017-10-15T07:20:33.000Z</time>
      </trkpt>
      <trkpt lat="42.38826" lon="2.08864">
        <ele>2079</ele>
        <time>2017-10-15T07:20:34.000Z</time>
      </trkpt>
      <trkpt lat="42.38826" lon="2.08865">
        <ele>2079</ele>
        <time>2017-10-15T07:20:35.000Z</time>
      </trkpt>
      <trkpt lat="42.38825" lon="2.08867">
        <ele>2079</ele>
        <time>2017-10-15T07:20:36.000Z</time>
      </trkpt>
      <trkpt lat="42.38824" lon="2.08867">
        <ele>2080</ele>
        <time>2017-10-15T07:20:37.000Z</time>
      </trkpt>
      <trkpt lat="42.38824" lon="2.08868">
        <ele>2080</ele>
        <time>2017-10-15T07:20:38.000Z</time>
      </trkpt>
      <trkpt lat="42.38823" lon="2.08869">
        <ele>2080</ele>
        <time>2017-10-15T07:20:39.000Z</time>
      </trkpt>
      <trkpt lat="42.38822" lon="2.0887">
        <ele>2080</ele>
        <time>2017-10-15T07:20:40.000Z</time>
      </trkpt>
      <trkpt lat="42.38822" lon="2.08871">
        <ele>2081</ele>
        <time>2017-10-15T07:20:41.000Z</time>
      </trkpt>
      <trkpt lat="42.38821" lon="2.08872">
        <ele>2081</ele>
        <time>2017-10-15T07:20:42.000Z</time>
      </trkpt>
      <trkpt lat="42.3882" lon="2.08873">
        <ele>2081</ele>
        <time>2017-10-15T07:20:43.000Z</time>
      </trkpt>
      <trkpt lat="42.3882" lon="2.08874">
        <ele>2081</ele>
        <time>2017-10-15T07:20:44.000Z</time>
      </trkpt>
      <trkpt lat="42.38819" lon="2.08875">
        <ele>2081</ele>
        <time>2017-10-15T07:20:45.000Z</time>
      </trkpt>
      <trkpt lat="42.38819" lon="2.08876">
        <ele>2082</ele>
        <time>2017-10-15T07:20:46.000Z</time>
      </trkpt>
      <trkpt lat="42.38818" lon="2.08877">
        <ele>2082</ele>
        <time>2017-10-15T07:20:47.000Z</time>
      </trkpt>
      <trkpt lat="42.38817" lon="2.08878">
        <ele>2082</ele>
        <time>2017-10-15T07:20:48.000Z</time>
      </trkpt>
      <trkpt lat="42.38817" lon="2.08879">
        <ele>2082</ele>
        <time>2017-10-15T07:20:49.000Z</time>
      </trkpt>
      <trkpt lat="42.38817" lon="2.0888">
        <ele>2082</ele>
        <time>2017-10-15T07:20:50.000Z</time>
      </trkpt>
      <trkpt lat="42.38816" lon="2.08881">
        <ele>2083</ele>
        <time>2017-10-15T07:20:51.000Z</time>
      </trkpt>
      <trkpt lat="42.38815" lon="2.08882">
        <ele>2083</ele>
        <time>2017-10-15T07:20:52.000Z</time>
      </trkpt>
      <trkpt lat="42.38815" lon="2.08883">
        <ele>2083</ele>
        <time>2017-10-15T07:20:53.000Z</time>
      </trkpt>
      <trkpt lat="42.38814" lon="2.08883">
        <ele>2083</ele>
        <time>2017-10-15T07:20:54.000Z</time>
      </trkpt>
      <trkpt lat="42.38813" lon="2.08884">
        <ele>2084</ele>
        <time>2017-10-15T07:20:55.000Z</time>
      </trkpt>
      <trkpt lat="42.38813" lon="2.08885">
        <ele>2084</ele>
        <time>2017-10-15T07:20:56.000Z</time>
      </trkpt>
      <trkpt lat="42.38812" lon="2.08886">
        <ele>2084</ele>
        <time>2017-10-15T07:20:57.000Z</time>
      </trkpt>
      <trkpt lat="42.38811" lon="2.08887">
        <ele>2084</ele>
        <time>2017-10-15T07:20:58.000Z</time>
      </trkpt>
      <trkpt lat="42.38811" lon="2.08888">
        <ele>2085</ele>
        <time>2017-10-15T07:20:59.000Z</time>
      </trkpt>
      <trkpt lat="42.3881" lon="2.08889">
        <ele>2085</ele>
        <time>2017-10-15T07:21:00.000Z</time>
      </trkpt>
      <trkpt lat="42.3881" lon="2.0889">
        <ele>2085</ele>
        <time>2017-10-15T07:21:01.000Z</time>
      </trkpt>
      <trkpt lat="42.38809" lon="2.0889">
        <ele>2085</ele>
        <time>2017-10-15T07:21:02.000Z</time>
      </trkpt>
      <trkpt lat="42.38808" lon="2.08891">
        <ele>2085</ele>
        <time>2017-10-15T07:21:03.000Z</time>
      </trkpt>
      <trkpt lat="42.38808" lon="2.08891">
        <ele>2085</ele>
        <time>2017-10-15T07:21:04.000Z</time>
      </trkpt>
      <trkpt lat="42.38807" lon="2.08892">
        <ele>2085</ele>
        <time>2017-10-15T07:21:05.000Z</time>
      </trkpt>
      <trkpt lat="42.38806" lon="2.08892">
        <ele>2085</ele>
        <time>2017-10-15T07:21:06.000Z</time>
      </trkpt>
      <trkpt lat="42.38805" lon="2.08893">
        <ele>2085</ele>
        <time>2017-10-15T07:21:07.000Z</time>
      </trkpt>
      <trkpt lat="42.38804" lon="2.08893">
        <ele>2085</ele>
        <time>2017-10-15T07:21:08.000Z</time>
      </trkpt>
      <trkpt lat="42.38803" lon="2.08893">
        <ele>2085</ele>
        <time>2017-10-15T07:21:09.000Z</time>
      </trkpt>
      <trkpt lat="42.38803" lon="2.08893">
        <ele>2085</ele>
        <time>2017-10-15T07:21:10.000Z</time>
      </trkpt>
      <trkpt lat="42.38802" lon="2.08893">
        <ele>2085</ele>
        <time>2017-10-15T07:21:11.000Z</time>
      </trkpt>
      <trkpt lat="42.38801" lon="2.08892">
        <ele>2085</ele>
        <time>2017-10-15T07:21:12.000Z</time>
      </trkpt>
      <trkpt lat="42.388" lon="2.08892">
        <ele>2086</ele>
        <time>2017-10-15T07:21:13.000Z</time>
      </trkpt>
      <trkpt lat="42.38799" lon="2.08892">
        <ele>2086</ele>
        <time>2017-10-15T07:21:14.000Z</time>
      </trkpt>
      <trkpt lat="42.38798" lon="2.08891">
        <ele>2086</ele>
        <time>2017-10-15T07:21:15.000Z</time>
      </trkpt>
      <trkpt lat="42.38797" lon="2.08891">
        <ele>2086</ele>
        <time>2017-10-15T07:21:16.000Z</time>
      </trkpt>
      <trkpt lat="42.38796" lon="2.08891">
        <ele>2086</ele>
        <time>2017-10-15T07:21:17.000Z</time>
      </trkpt>
      <trkpt lat="42.38796" lon="2.0889">
        <ele>2087</ele>
        <time>2017-10-15T07:21:18.000Z</time>
      </trkpt>
      <trkpt lat="42.38795" lon="2.0889">
        <ele>2087</ele>
        <time>2017-10-15T07:21:19.000Z</time>
      </trkpt>
      <trkpt lat="42.38795" lon="2.0889">
        <ele>2087</ele>
        <time>2017-10-15T07:21:20.000Z</time>
      </trkpt>
      <trkpt lat="42.3879" lon="2.08887">
        <ele>2088</ele>
        <time>2017-10-15T07:21:28.000Z</time>
      </trkpt>
      <trkpt lat="42.3879" lon="2.08887">
        <ele>2088</ele>
        <time>2017-10-15T07:21:29.000Z</time>
      </trkpt>
      <trkpt lat="42.38789" lon="2.08887">
        <ele>2088</ele>
        <time>2017-10-15T07:21:30.000Z</time>
      </trkpt>
      <trkpt lat="42.38788" lon="2.08886">
        <ele>2089</ele>
        <time>2017-10-15T07:21:31.000Z</time>
      </trkpt>
      <trkpt lat="42.38788" lon="2.08886">
        <ele>2089</ele>
        <time>2017-10-15T07:21:32.000Z</time>
      </trkpt>
      <trkpt lat="42.38788" lon="2.08886">
        <ele>2089</ele>
        <time>2017-10-15T07:21:33.000Z</time>
      </trkpt>
      <trkpt lat="42.38757" lon="2.08898">
        <ele>2091</ele>
        <time>2017-10-15T07:23:16.000Z</time>
      </trkpt>
      <trkpt lat="42.38756" lon="2.08899">
        <ele>2091</ele>
        <time>2017-10-15T07:23:18.000Z</time>
      </trkpt>
      <trkpt lat="42.38756" lon="2.08899">
        <ele>2091</ele>
        <time>2017-10-15T07:23:19.000Z</time>
      </trkpt>
      <trkpt lat="42.38755" lon="2.089">
        <ele>2091</ele>
        <time>2017-10-15T07:23:21.000Z</time>
      </trkpt>
      <trkpt lat="42.38755" lon="2.089">
        <ele>2091</ele>
        <time>2017-10-15T07:23:22.000Z</time>
      </trkpt>
      <trkpt lat="42.38754" lon="2.08901">
        <ele>2091</ele>
        <time>2017-10-15T07:23:23.000Z</time>
      </trkpt>
      <trkpt lat="42.38753" lon="2.08901">
        <ele>2091</ele>
        <time>2017-10-15T07:23:25.000Z</time>
      </trkpt>
      <trkpt lat="42.38753" lon="2.08901">
        <ele>2091</ele>
        <time>2017-10-15T07:23:26.000Z</time>
      </trkpt>
      <trkpt lat="42.38752" lon="2.08901">
        <ele>2091</ele>
        <time>2017-10-15T07:23:28.000Z</time>
      </trkpt>
      <trkpt lat="42.38752" lon="2.08901">
        <ele>2091</ele>
        <time>2017-10-15T07:23:29.000Z</time>
      </trkpt>
      <trkpt lat="42.38751" lon="2.08902">
        <ele>2091</ele>
        <time>2017-10-15T07:23:30.000Z</time>
      </trkpt>
      <trkpt lat="42.38751" lon="2.08902">
        <ele>2091</ele>
        <time>2017-10-15T07:23:31.000Z</time>
      </trkpt>
      <trkpt lat="42.3875" lon="2.08902">
        <ele>2091</ele>
        <time>2017-10-15T07:23:32.000Z</time>
      </trkpt>
      <trkpt lat="42.3875" lon="2.08902">
        <ele>2091</ele>
        <time>2017-10-15T07:23:33.000Z</time>
      </trkpt>
      <trkpt lat="42.38749" lon="2.08902">
        <ele>2091</ele>
        <time>2017-10-15T07:23:34.000Z</time>
      </trkpt>
      <trkpt lat="42.38749" lon="2.08903">
        <ele>2091</ele>
        <time>2017-10-15T07:23:36.000Z</time>
      </trkpt>
      <trkpt lat="42.38748" lon="2.08903">
        <ele>2091</ele>
        <time>2017-10-15T07:23:37.000Z</time>
      </trkpt>
      <trkpt lat="42.38747" lon="2.08904">
        <ele>2092</ele>
        <time>2017-10-15T07:23:38.000Z</time>
      </trkpt>
      <trkpt lat="42.38747" lon="2.08904">
        <ele>2092</ele>
        <time>2017-10-15T07:23:40.000Z</time>
      </trkpt>
      <trkpt lat="42.38745" lon="2.08904">
        <ele>2092</ele>
        <time>2017-10-15T07:23:41.000Z</time>
      </trkpt>
      <trkpt lat="42.38745" lon="2.08904">
        <ele>2093</ele>
        <time>2017-10-15T07:23:43.000Z</time>
      </trkpt>
      <trkpt lat="42.38744" lon="2.08904">
        <ele>2093</ele>
        <time>2017-10-15T07:23:44.000Z</time>
      </trkpt>
      <trkpt lat="42.38743" lon="2.08906">
        <ele>2093</ele>
        <time>2017-10-15T07:23:46.000Z</time>
      </trkpt>
      <trkpt lat="42.38743" lon="2.08906">
        <ele>2093</ele>
        <time>2017-10-15T07:23:47.000Z</time>
      </trkpt>
      <trkpt lat="42.38743" lon="2.08907">
        <ele>2093</ele>
        <time>2017-10-15T07:23:49.000Z</time>
      </trkpt>
      <trkpt lat="42.38741" lon="2.08908">
        <ele>2093</ele>
        <time>2017-10-15T07:23:50.000Z</time>
      </trkpt>
      <trkpt lat="42.3874" lon="2.08908">
        <ele>2094</ele>
        <time>2017-10-15T07:23:52.000Z</time>
      </trkpt>
      <trkpt lat="42.3874" lon="2.08909">
        <ele>2094</ele>
        <time>2017-10-15T07:23:53.000Z</time>
      </trkpt>
      <trkpt lat="42.38739" lon="2.08909">
        <ele>2094</ele>
        <time>2017-10-15T07:23:54.000Z</time>
      </trkpt>
      <trkpt lat="42.38739" lon="2.08908">
        <ele>2094</ele>
        <time>2017-10-15T07:23:55.000Z</time>
      </trkpt>
      <trkpt lat="42.3857" lon="2.08943">
        <ele>2162</ele>
        <time>2017-10-15T07:32:16.000Z</time>
      </trkpt>
      <trkpt lat="42.38568" lon="2.08945">
        <ele>2162</ele>
        <time>2017-10-15T07:32:17.000Z</time>
      </trkpt>
      <trkpt lat="42.38568" lon="2.08946">
        <ele>2163</ele>
        <time>2017-10-15T07:32:19.000Z</time>
      </trkpt>
      <trkpt lat="42.38567" lon="2.08948">
        <ele>2163</ele>
        <time>2017-10-15T07:32:20.000Z</time>
      </trkpt>
      <trkpt lat="42.38566" lon="2.08948">
        <ele>2163</ele>
        <time>2017-10-15T07:32:22.000Z</time>
      </trkpt>
      <trkpt lat="42.38566" lon="2.08949">
        <ele>2163</ele>
        <time>2017-10-15T07:32:23.000Z</time>
      </trkpt>
      <trkpt lat="42.38565" lon="2.0895">
        <ele>2163</ele>
        <time>2017-10-15T07:32:24.000Z</time>
      </trkpt>
      <trkpt lat="42.38564" lon="2.08951">
        <ele>2163</ele>
        <time>2017-10-15T07:32:25.000Z</time>
      </trkpt>
      <trkpt lat="42.38564" lon="2.08952">
        <ele>2163</ele>
        <time>2017-10-15T07:32:26.000Z</time>
      </trkpt>
      <trkpt lat="42.38563" lon="2.08953">
        <ele>2163</ele>
        <time>2017-10-15T07:32:27.000Z</time>
      </trkpt>
      <trkpt lat="42.38562" lon="2.08954">
        <ele>2163</ele>
        <time>2017-10-15T07:32:28.000Z</time>
      </trkpt>
      <trkpt lat="42.38562" lon="2.08955">
        <ele>2163</ele>
        <time>2017-10-15T07:32:29.000Z</time>
      </trkpt>
      <trkpt lat="42.38562" lon="2.08956">
        <ele>2163</ele>
        <time>2017-10-15T07:32:30.000Z</time>
      </trkpt>
      <trkpt lat="42.38561" lon="2.08957">
        <ele>2163</ele>
        <time>2017-10-15T07:32:31.000Z</time>
      </trkpt>
      <trkpt lat="42.38561" lon="2.08958">
        <ele>2163</ele>
        <time>2017-10-15T07:32:32.000Z</time>
      </trkpt>
      <trkpt lat="42.3856" lon="2.08959">
        <ele>2163</ele>
        <time>2017-10-15T07:32:33.000Z</time>
      </trkpt>
      <trkpt lat="42.3856" lon="2.0896">
        <ele>2163</ele>
        <time>2017-10-15T07:32:34.000Z</time>
      </trkpt>
      <trkpt lat="42.3856" lon="2.08961">
        <ele>2163</ele>
        <time>2017-10-15T07:32:35.000Z</time>
      </trkpt>
      <trkpt lat="42.38559" lon="2.08963">
        <ele>2163</ele>
        <time>2017-10-15T07:32:36.000Z</time>
      </trkpt>
      <trkpt lat="42.38559" lon="2.08964">
        <ele>2163</ele>
        <time>2017-10-15T07:32:37.000Z</time>
      </trkpt>
      <trkpt lat="42.38559" lon="2.08965">
        <ele>2163</ele>
        <time>2017-10-15T07:32:38.000Z</time>
      </trkpt>
      <trkpt lat="42.38558" lon="2.08966">
        <ele>2162</ele>
        <time>2017-10-15T07:32:39.000Z</time>
      </trkpt>
      <trkpt lat="42.38558" lon="2.08967">
        <ele>2162</ele>
        <time>2017-10-15T07:32:40.000Z</time>
      </trkpt>
      <trkpt lat="42.38558" lon="2.08968">
        <ele>2162</ele>
        <time>2017-10-15T07:32:41.000Z</time>
      </trkpt>
      <trkpt lat="42.38557" lon="2.08969">
        <ele>2162</ele>
        <time>2017-10-15T07:32:42.000Z</time>
      </trkpt>
      <trkpt lat="42.38557" lon="2.0897">
        <ele>2163</ele>
        <time>2017-10-15T07:32:43.000Z</time>
      </trkpt>
      <trkpt lat="42.38556" lon="2.08972">
        <ele>2163</ele>
        <time>2017-10-15T07:32:44.000Z</time>
      </trkpt>
      <trkpt lat="42.38555" lon="2.08973">
        <ele>2163</ele>
        <time>2017-10-15T07:32:45.000Z</time>
      </trkpt>
      <trkpt lat="42.38555" lon="2.08973">
        <ele>2163</ele>
        <time>2017-10-15T07:32:46.000Z</time>
      </trkpt>
      <trkpt lat="42.38554" lon="2.08974">
        <ele>2163</ele>
        <time>2017-10-15T07:32:47.000Z</time>
      </trkpt>
      <trkpt lat="42.38554" lon="2.08975">
        <ele>2163</ele>
        <time>2017-10-15T07:32:48.000Z</time>
      </trkpt>
      <trkpt lat="42.38553" lon="2.08976">
        <ele>2164</ele>
        <time>2017-10-15T07:32:49.000Z</time>
      </trkpt>
      <trkpt lat="42.38553" lon="2.08978">
        <ele>2164</ele>
        <time>2017-10-15T07:32:50.000Z</time>
      </trkpt>
      <trkpt lat="42.38552" lon="2.08979">
        <ele>2164</ele>
        <time>2017-10-15T07:32:51.000Z</time>
      </trkpt>
      <trkpt lat="42.38552" lon="2.08981">
        <ele>2164</ele>
        <time>2017-10-15T07:32:52.000Z</time>
      </trkpt>
      <trkpt lat="42.38552" lon="2.08982">
        <ele>2164</ele>
        <time>2017-10-15T07:32:53.000Z</time>
      </trkpt>
      <trkpt lat="42.38551" lon="2.08983">
        <ele>2164</ele>
        <time>2017-10-15T07:32:54.000Z</time>
      </trkpt>
      <trkpt lat="42.38551" lon="2.08984">
        <ele>2164</ele>
        <time>2017-10-15T07:32:55.000Z</time>
      </trkpt>
      <trkpt lat="42.3855" lon="2.08985">
        <ele>2164</ele>
        <time>2017-10-15T07:32:56.000Z</time>
      </trkpt>
      <trkpt lat="42.38549" lon="2.08986">
        <ele>2165</ele>
        <time>2017-10-15T07:32:57.000Z</time>
      </trkpt>
      <trkpt lat="42.38549" lon="2.08987">
        <ele>2165</ele>
        <time>2017-10-15T07:32:58.000Z</time>
      </trkpt>
      <trkpt lat="42.38548" lon="2.08988">
        <ele>2165</ele>
        <time>2017-10-15T07:32:59.000Z</time>
      </trkpt>
      <trkpt lat="42.38548" lon="2.0899">
        <ele>2164</ele>
        <time>2017-10-15T07:33:00.000Z</time>
      </trkpt>
      <trkpt lat="42.38548" lon="2.08991">
        <ele>2164</ele>
        <time>2017-10-15T07:33:01.000Z</time>
      </trkpt>
      <trkpt lat="42.38548" lon="2.08992">
        <ele>2164</ele>
        <time>2017-10-15T07:33:02.000Z</time>
      </trkpt>
      <trkpt lat="42.38547" lon="2.08994">
        <ele>2164</ele>
        <time>2017-10-15T07:33:03.000Z</time>
      </trkpt>
      <trkpt lat="42.38547" lon="2.08995">
        <ele>2165</ele>
        <time>2017-10-15T07:33:04.000Z</time>
      </trkpt>
      <trkpt lat="42.38547" lon="2.08996">
        <ele>2165</ele>
        <time>2017-10-15T07:33:05.000Z</time>
      </trkpt>
      <trkpt lat="42.38546" lon="2.08997">
        <ele>2165</ele>
        <time>2017-10-15T07:33:06.000Z</time>
      </trkpt>
      <trkpt lat="42.38546" lon="2.08998">
        <ele>2165</ele>
        <time>2017-10-15T07:33:07.000Z</time>
      </trkpt>
      <trkpt lat="42.38545" lon="2.09">
        <ele>2165</ele>
        <time>2017-10-15T07:33:08.000Z</time>
      </trkpt>
      <trkpt lat="42.38545" lon="2.09001">
        <ele>2165</ele>
        <time>2017-10-15T07:33:09.000Z</time>
      </trkpt>
      <trkpt lat="42.38545" lon="2.09002">
        <ele>2165</ele>
        <time>2017-10-15T07:33:10.000Z</time>
      </trkpt>
      <trkpt lat="42.38545" lon="2.09004">
        <ele>2165</ele>
        <time>2017-10-15T07:33:11.000Z</time>
      </trkpt>
      <trkpt lat="42.38545" lon="2.09005">
        <ele>2165</ele>
        <time>2017-10-15T07:33:12.000Z</time>
      </trkpt>
      <trkpt lat="42.38544" lon="2.09006">
        <ele>2165</ele>
        <time>2017-10-15T07:33:13.000Z</time>
      </trkpt>
      <trkpt lat="42.38544" lon="2.09008">
        <ele>2165</ele>
        <time>2017-10-15T07:33:14.000Z</time>
      </trkpt>
      <trkpt lat="42.38544" lon="2.09009">
        <ele>2165</ele>
        <time>2017-10-15T07:33:15.000Z</time>
      </trkpt>
      <trkpt lat="42.38543" lon="2.0901">
        <ele>2165</ele>
        <time>2017-10-15T07:33:16.000Z</time>
      </trkpt>
      <trkpt lat="42.38543" lon="2.09011">
        <ele>2165</ele>
        <time>2017-10-15T07:33:17.000Z</time>
      </trkpt>
      <trkpt lat="42.38542" lon="2.09013">
        <ele>2165</ele>
        <time>2017-10-15T07:33:18.000Z</time>
      </trkpt>
      <trkpt lat="42.38542" lon="2.09013">
        <ele>2165</ele>
        <time>2017-10-15T07:33:19.000Z</time>
      </trkpt>
      <trkpt lat="42.38541" lon="2.09015">
        <ele>2165</ele>
        <time>2017-10-15T07:33:20.000Z</time>
      </trkpt>
      <trkpt lat="42.38541" lon="2.09016">
        <ele>2166</ele>
        <time>2017-10-15T07:33:21.000Z</time>
      </trkpt>
      <trkpt lat="42.38541" lon="2.09017">
        <ele>2166</ele>
        <time>2017-10-15T07:33:22.000Z</time>
      </trkpt>
      <trkpt lat="42.3854" lon="2.09018">
        <ele>2166</ele>
        <time>2017-10-15T07:33:23.000Z</time>
      </trkpt>
      <trkpt lat="42.3854" lon="2.09019">
        <ele>2166</ele>
        <time>2017-10-15T07:33:24.000Z</time>
      </trkpt>
      <trkpt lat="42.3854" lon="2.0902">
        <ele>2166</ele>
        <time>2017-10-15T07:33:25.000Z</time>
      </trkpt>
      <trkpt lat="42.38539" lon="2.09021">
        <ele>2166</ele>
        <time>2017-10-15T07:33:26.000Z</time>
      </trkpt>
      <trkpt lat="42.38539" lon="2.09022">
        <ele>2166</ele>
        <time>2017-10-15T07:33:27.000Z</time>
      </trkpt>
      <trkpt lat="42.38538" lon="2.09023">
        <ele>2166</ele>
        <time>2017-10-15T07:33:28.000Z</time>
      </trkpt>
      <trkpt lat="42.38538" lon="2.09024">
        <ele>2166</ele>
        <time>2017-10-15T07:33:29.000Z</time>
      </trkpt>
      <trkpt lat="42.38537" lon="2.09025">
        <ele>2167</ele>
        <time>2017-10-15T07:33:30.000Z</time>
      </trkpt>
      <trkpt lat="42.38537" lon="2.09026">
        <ele>2167</ele>
        <time>2017-10-15T07:33:31.000Z</time>
      </trkpt>
      <trkpt lat="42.38536" lon="2.09027">
        <ele>2167</ele>
        <time>2017-10-15T07:33:32.000Z</time>
      </trkpt>
      <trkpt lat="42.38535" lon="2.09028">
        <ele>2167</ele>
        <time>2017-10-15T07:33:33.000Z</time>
      </trkpt>
      <trkpt lat="42.38535" lon="2.09029">
        <ele>2168</ele>
        <time>2017-10-15T07:33:34.000Z</time>
      </trkpt>
      <trkpt lat="42.38534" lon="2.09031">
        <ele>2168</ele>
        <time>2017-10-15T07:33:35.000Z</time>
      </trkpt>
      <trkpt lat="42.38534" lon="2.09032">
        <ele>2168</ele>
        <time>2017-10-15T07:33:36.000Z</time>
      </trkpt>
      <trkpt lat="42.38533" lon="2.09033">
        <ele>2168</ele>
        <time>2017-10-15T07:33:37.000Z</time>
      </trkpt>
      <trkpt lat="42.38533" lon="2.09034">
        <ele>2168</ele>
        <time>2017-10-15T07:33:38.000Z</time>
      </trkpt>
      <trkpt lat="42.38533" lon="2.09035">
        <ele>2168</ele>
        <time>2017-10-15T07:33:39.000Z</time>
      </trkpt>
      <trkpt lat="42.38532" lon="2.09037">
        <ele>2168</ele>
        <time>2017-10-15T07:33:40.000Z</time>
      </trkpt>
      <trkpt lat="42.38532" lon="2.09038">
        <ele>2168</ele>
        <time>2017-10-15T07:33:41.000Z</time>
      </trkpt>
      <trkpt lat="42.38531" lon="2.09039">
        <ele>2168</ele>
        <time>2017-10-15T07:33:42.000Z</time>
      </trkpt>
      <trkpt lat="42.38531" lon="2.0904">
        <ele>2168</ele>
        <time>2017-10-15T07:33:43.000Z</time>
      </trkpt>
      <trkpt lat="42.3853" lon="2.09041">
        <ele>2168</ele>
        <time>2017-10-15T07:33:44.000Z</time>
      </trkpt>
      <trkpt lat="42.3853" lon="2.09042">
        <ele>2168</ele>
        <time>2017-10-15T07:33:45.000Z</time>
      </trkpt>
      <trkpt lat="42.38529" lon="2.09043">
        <ele>2168</ele>
        <time>2017-10-15T07:33:46.000Z</time>
      </trkpt>
      <trkpt lat="42.38529" lon="2.09044">
        <ele>2168</ele>
        <time>2017-10-15T07:33:47.000Z</time>
      </trkpt>
      <trkpt lat="42.38528" lon="2.09045">
        <ele>2168</ele>
        <time>2017-10-15T07:33:48.000Z</time>
      </trkpt>
      <trkpt lat="42.38528" lon="2.09046">
        <ele>2168</ele>
        <time>2017-10-15T07:33:49.000Z</time>
      </trkpt>
      <trkpt lat="42.38527" lon="2.09048">
        <ele>2168</ele>
        <time>2017-10-15T07:33:50.000Z</time>
      </trkpt>
      <trkpt lat="42.38527" lon="2.09048">
        <ele>2168</ele>
        <time>2017-10-15T07:33:51.000Z</time>
      </trkpt>
      <trkpt lat="42.38526" lon="2.0905">
        <ele>2168</ele>
        <time>2017-10-15T07:33:52.000Z</time>
      </trkpt>
      <trkpt lat="42.38525" lon="2.09051">
        <ele>2169</ele>
        <time>2017-10-15T07:33:53.000Z</time>
      </trkpt>
      <trkpt lat="42.38525" lon="2.09052">
        <ele>2169</ele>
        <time>2017-10-15T07:33:54.000Z</time>
      </trkpt>
      <trkpt lat="42.38524" lon="2.09053">
        <ele>2169</ele>
        <time>2017-10-15T07:33:55.000Z</time>
      </trkpt>
      <trkpt lat="42.38524" lon="2.09054">
        <ele>2169</ele>
        <time>2017-10-15T07:33:56.000Z</time>
      </trkpt>
      <trkpt lat="42.38523" lon="2.09055">
        <ele>2169</ele>
        <time>2017-10-15T07:33:57.000Z</time>
      </trkpt>
      <trkpt lat="42.38523" lon="2.09057">
        <ele>2169</ele>
        <time>2017-10-15T07:33:58.000Z</time>
      </trkpt>
      <trkpt lat="42.38523" lon="2.09058">
        <ele>2169</ele>
        <time>2017-10-15T07:33:59.000Z</time>
      </trkpt>
      <trkpt lat="42.38522" lon="2.09059">
        <ele>2169</ele>
        <time>2017-10-15T07:34:00.000Z</time>
      </trkpt>
      <trkpt lat="42.38522" lon="2.09061">
        <ele>2169</ele>
        <time>2017-10-15T07:34:01.000Z</time>
      </trkpt>
      <trkpt lat="42.38521" lon="2.09062">
        <ele>2169</ele>
        <time>2017-10-15T07:34:02.000Z</time>
      </trkpt>
      <trkpt lat="42.38521" lon="2.09063">
        <ele>2169</ele>
        <time>2017-10-15T07:34:03.000Z</time>
      </trkpt>
      <trkpt lat="42.3852" lon="2.09064">
        <ele>2169</ele>
        <time>2017-10-15T07:34:04.000Z</time>
      </trkpt>
      <trkpt lat="42.3852" lon="2.09066">
        <ele>2169</ele>
        <time>2017-10-15T07:34:05.000Z</time>
      </trkpt>
      <trkpt lat="42.38519" lon="2.09067">
        <ele>2169</ele>
        <time>2017-10-15T07:34:06.000Z</time>
      </trkpt>
      <trkpt lat="42.38519" lon="2.09068">
        <ele>2169</ele>
        <time>2017-10-15T07:34:07.000Z</time>
      </trkpt>
      <trkpt lat="42.38519" lon="2.09069">
        <ele>2169</ele>
        <time>2017-10-15T07:34:08.000Z</time>
      </trkpt>
      <trkpt lat="42.38518" lon="2.09071">
        <ele>2168</ele>
        <time>2017-10-15T07:34:09.000Z</time>
      </trkpt>
      <trkpt lat="42.38518" lon="2.09072">
        <ele>2168</ele>
        <time>2017-10-15T07:34:10.000Z</time>
      </trkpt>
      <trkpt lat="42.38518" lon="2.09073">
        <ele>2168</ele>
        <time>2017-10-15T07:34:11.000Z</time>
      </trkpt>
      <trkpt lat="42.38517" lon="2.09075">
        <ele>2168</ele>
        <time>2017-10-15T07:34:12.000Z</time>
      </trkpt>
      <trkpt lat="42.38517" lon="2.09076">
        <ele>2168</ele>
        <time>2017-10-15T07:34:13.000Z</time>
      </trkpt>
      <trkpt lat="42.38516" lon="2.09077">
        <ele>2168</ele>
        <time>2017-10-15T07:34:14.000Z</time>
      </trkpt>
      <trkpt lat="42.38516" lon="2.09078">
        <ele>2169</ele>
        <time>2017-10-15T07:34:15.000Z</time>
      </trkpt>
      <trkpt lat="42.38515" lon="2.09079">
        <ele>2169</ele>
        <time>2017-10-15T07:34:16.000Z</time>
      </trkpt>
      <trkpt lat="42.38515" lon="2.09081">
        <ele>2169</ele>
        <time>2017-10-15T07:34:17.000Z</time>
      </trkpt>
      <trkpt lat="42.38514" lon="2.09082">
        <ele>2169</ele>
        <time>2017-10-15T07:34:18.000Z</time>
      </trkpt>
      <trkpt lat="42.38514" lon="2.09083">
        <ele>2169</ele>
        <time>2017-10-15T07:34:19.000Z</time>
      </trkpt>
      <trkpt lat="42.38513" lon="2.09084">
        <ele>2170</ele>
        <time>2017-10-15T07:34:20.000Z</time>
      </trkpt>
      <trkpt lat="42.38513" lon="2.09085">
        <ele>2170</ele>
        <time>2017-10-15T07:34:21.000Z</time>
      </trkpt>
      <trkpt lat="42.38512" lon="2.09086">
        <ele>2170</ele>
        <time>2017-10-15T07:34:22.000Z</time>
      </trkpt>
      <trkpt lat="42.38512" lon="2.09087">
        <ele>2170</ele>
        <time>2017-10-15T07:34:23.000Z</time>
      </trkpt>
      <trkpt lat="42.38511" lon="2.09089">
        <ele>2171</ele>
        <time>2017-10-15T07:34:24.000Z</time>
      </trkpt>
      <trkpt lat="42.38511" lon="2.0909">
        <ele>2171</ele>
        <time>2017-10-15T07:34:25.000Z</time>
      </trkpt>
      <trkpt lat="42.38511" lon="2.09091">
        <ele>2171</ele>
        <time>2017-10-15T07:34:26.000Z</time>
      </trkpt>
      <trkpt lat="42.3851" lon="2.09092">
        <ele>2171</ele>
        <time>2017-10-15T07:34:27.000Z</time>
      </trkpt>
      <trkpt lat="42.3851" lon="2.09093">
        <ele>2171</ele>
        <time>2017-10-15T07:34:28.000Z</time>
      </trkpt>
      <trkpt lat="42.38509" lon="2.09094">
        <ele>2171</ele>
        <time>2017-10-15T07:34:29.000Z</time>
      </trkpt>
      <trkpt lat="42.38509" lon="2.09095">
        <ele>2171</ele>
        <time>2017-10-15T07:34:30.000Z</time>
      </trkpt>
      <trkpt lat="42.38508" lon="2.09097">
        <ele>2171</ele>
        <time>2017-10-15T07:34:31.000Z</time>
      </trkpt>
      <trkpt lat="42.38507" lon="2.09098">
        <ele>2172</ele>
        <time>2017-10-15T07:34:32.000Z</time>
      </trkpt>
      <trkpt lat="42.38506" lon="2.09099">
        <ele>2172</ele>
        <time>2017-10-15T07:34:33.000Z</time>
      </trkpt>
      <trkpt lat="42.38506" lon="2.091">
        <ele>2172</ele>
        <time>2017-10-15T07:34:34.000Z</time>
      </trkpt>
      <trkpt lat="42.38506" lon="2.09101">
        <ele>2172</ele>
        <time>2017-10-15T07:34:35.000Z</time>
      </trkpt>
      <trkpt lat="42.38505" lon="2.09102">
        <ele>2172</ele>
        <time>2017-10-15T07:34:36.000Z</time>
      </trkpt>
      <trkpt lat="42.38505" lon="2.09103">
        <ele>2172</ele>
        <time>2017-10-15T07:34:37.000Z</time>
      </trkpt>
      <trkpt lat="42.38504" lon="2.09104">
        <ele>2172</ele>
        <time>2017-10-15T07:34:38.000Z</time>
      </trkpt>
      <trkpt lat="42.38504" lon="2.09105">
        <ele>2172</ele>
        <time>2017-10-15T07:34:39.000Z</time>
      </trkpt>
      <trkpt lat="42.38503" lon="2.09107">
        <ele>2172</ele>
        <time>2017-10-15T07:34:40.000Z</time>
      </trkpt>
      <trkpt lat="42.38503" lon="2.09108">
        <ele>2172</ele>
        <time>2017-10-15T07:34:41.000Z</time>
      </trkpt>
      <trkpt lat="42.38502" lon="2.09109">
        <ele>2172</ele>
        <time>2017-10-15T07:34:42.000Z</time>
      </trkpt>
      <trkpt lat="42.38502" lon="2.0911">
        <ele>2172</ele>
        <time>2017-10-15T07:34:43.000Z</time>
      </trkpt>
      <trkpt lat="42.38502" lon="2.09111">
        <ele>2172</ele>
        <time>2017-10-15T07:34:44.000Z</time>
      </trkpt>
      <trkpt lat="42.38501" lon="2.09113">
        <ele>2172</ele>
        <time>2017-10-15T07:34:45.000Z</time>
      </trkpt>
      <trkpt lat="42.38501" lon="2.09114">
        <ele>2172</ele>
        <time>2017-10-15T07:34:46.000Z</time>
      </trkpt>
      <trkpt lat="42.385" lon="2.09115">
        <ele>2173</ele>
        <time>2017-10-15T07:34:47.000Z</time>
      </trkpt>
      <trkpt lat="42.385" lon="2.09116">
        <ele>2173</ele>
        <time>2017-10-15T07:34:48.000Z</time>
      </trkpt>
      <trkpt lat="42.38499" lon="2.09117">
        <ele>2173</ele>
        <time>2017-10-15T07:34:49.000Z</time>
      </trkpt>
      <trkpt lat="42.38499" lon="2.09118">
        <ele>2173</ele>
        <time>2017-10-15T07:34:50.000Z</time>
      </trkpt>
      <trkpt lat="42.38498" lon="2.09119">
        <ele>2173</ele>
        <time>2017-10-15T07:34:51.000Z</time>
      </trkpt>
      <trkpt lat="42.38498" lon="2.0912">
        <ele>2173</ele>
        <time>2017-10-15T07:34:52.000Z</time>
      </trkpt>
      <trkpt lat="42.38497" lon="2.09122">
        <ele>2173</ele>
        <time>2017-10-15T07:34:53.000Z</time>
      </trkpt>
      <trkpt lat="42.38496" lon="2.09123">
        <ele>2173</ele>
        <time>2017-10-15T07:34:54.000Z</time>
      </trkpt>
      <trkpt lat="42.38496" lon="2.09124">
        <ele>2174</ele>
        <time>2017-10-15T07:34:55.000Z</time>
      </trkpt>
      <trkpt lat="42.38495" lon="2.09125">
        <ele>2174</ele>
        <time>2017-10-15T07:34:56.000Z</time>
      </trkpt>
      <trkpt lat="42.38494" lon="2.09126">
        <ele>2174</ele>
        <time>2017-10-15T07:34:57.000Z</time>
      </trkpt>
      <trkpt lat="42.38494" lon="2.09127">
        <ele>2174</ele>
        <time>2017-10-15T07:34:58.000Z</time>
      </trkpt>
      <trkpt lat="42.38493" lon="2.09128">
        <ele>2174</ele>
        <time>2017-10-15T07:34:59.000Z</time>
      </trkpt>
      <trkpt lat="42.38493" lon="2.0913">
        <ele>2174</ele>
        <time>2017-10-15T07:35:00.000Z</time>
      </trkpt>
      <trkpt lat="42.38492" lon="2.09131">
        <ele>2175</ele>
        <time>2017-10-15T07:35:01.000Z</time>
      </trkpt>
      <trkpt lat="42.38491" lon="2.09132">
        <ele>2175</ele>
        <time>2017-10-15T07:35:02.000Z</time>
      </trkpt>
      <trkpt lat="42.38491" lon="2.09133">
        <ele>2175</ele>
        <time>2017-10-15T07:35:03.000Z</time>
      </trkpt>
      <trkpt lat="42.3849" lon="2.09135">
        <ele>2175</ele>
        <time>2017-10-15T07:35:04.000Z</time>
      </trkpt>
      <trkpt lat="42.3849" lon="2.09136">
        <ele>2175</ele>
        <time>2017-10-15T07:35:05.000Z</time>
      </trkpt>
      <trkpt lat="42.38489" lon="2.09137">
        <ele>2175</ele>
        <time>2017-10-15T07:35:06.000Z</time>
      </trkpt>
      <trkpt lat="42.38489" lon="2.09138">
        <ele>2175</ele>
        <time>2017-10-15T07:35:07.000Z</time>
      </trkpt>
      <trkpt lat="42.38488" lon="2.09139">
        <ele>2176</ele>
        <time>2017-10-15T07:35:08.000Z</time>
      </trkpt>
      <trkpt lat="42.38488" lon="2.0914">
        <ele>2176</ele>
        <time>2017-10-15T07:35:09.000Z</time>
      </trkpt>
      <trkpt lat="42.38487" lon="2.09142">
        <ele>2176</ele>
        <time>2017-10-15T07:35:10.000Z</time>
      </trkpt>
      <trkpt lat="42.38487" lon="2.09143">
        <ele>2176</ele>
        <time>2017-10-15T07:35:11.000Z</time>
      </trkpt>
      <trkpt lat="42.38486" lon="2.09144">
        <ele>2176</ele>
        <time>2017-10-15T07:35:12.000Z</time>
      </trkpt>
      <trkpt lat="42.38486" lon="2.09146">
        <ele>2176</ele>
        <time>2017-10-15T07:35:13.000Z</time>
      </trkpt>
      <trkpt lat="42.38485" lon="2.09147">
        <ele>2176</ele>
        <time>2017-10-15T07:35:14.000Z</time>
      </trkpt>
      <trkpt lat="42.38485" lon="2.09149">
        <ele>2176</ele>
        <time>2017-10-15T07:35:15.000Z</time>
      </trkpt>
      <trkpt lat="42.38484" lon="2.0915">
        <ele>2177</ele>
        <time>2017-10-15T07:35:16.000Z</time>
      </trkpt>
      <trkpt lat="42.38483" lon="2.09151">
        <ele>2177</ele>
        <time>2017-10-15T07:35:17.000Z</time>
      </trkpt>
      <trkpt lat="42.38483" lon="2.09152">
        <ele>2177</ele>
        <time>2017-10-15T07:35:18.000Z</time>
      </trkpt>
      <trkpt lat="42.38482" lon="2.09153">
        <ele>2177</ele>
        <time>2017-10-15T07:35:19.000Z</time>
      </trkpt>
      <trkpt lat="42.38482" lon="2.09154">
        <ele>2178</ele>
        <time>2017-10-15T07:35:20.000Z</time>
      </trkpt>
      <trkpt lat="42.38481" lon="2.09156">
        <ele>2178</ele>
        <time>2017-10-15T07:35:21.000Z</time>
      </trkpt>
      <trkpt lat="42.38481" lon="2.09157">
        <ele>2178</ele>
        <time>2017-10-15T07:35:22.000Z</time>
      </trkpt>
      <trkpt lat="42.38481" lon="2.09158">
        <ele>2178</ele>
        <time>2017-10-15T07:35:23.000Z</time>
      </trkpt>
      <trkpt lat="42.3848" lon="2.0916">
        <ele>2178</ele>
        <time>2017-10-15T07:35:24.000Z</time>
      </trkpt>
      <trkpt lat="42.3848" lon="2.09161">
        <ele>2178</ele>
        <time>2017-10-15T07:35:25.000Z</time>
      </trkpt>
      <trkpt lat="42.3848" lon="2.09162">
        <ele>2178</ele>
        <time>2017-10-15T07:35:26.000Z</time>
      </trkpt>
      <trkpt lat="42.3848" lon="2.09164">
        <ele>2178</ele>
        <time>2017-10-15T07:35:27.000Z</time>
      </trkpt>
      <trkpt lat="42.3848" lon="2.09165">
        <ele>2178</ele>
        <time>2017-10-15T07:35:28.000Z</time>
      </trkpt>
      <trkpt lat="42.38479" lon="2.09166">
        <ele>2179</ele>
        <time>2017-10-15T07:35:29.000Z</time>
      </trkpt>
      <trkpt lat="42.38479" lon="2.09168">
        <ele>2179</ele>
        <time>2017-10-15T07:35:30.000Z</time>
      </trkpt>
      <trkpt lat="42.38478" lon="2.09169">
        <ele>2179</ele>
        <time>2017-10-15T07:35:31.000Z</time>
      </trkpt>
      <trkpt lat="42.38478" lon="2.09171">
        <ele>2180</ele>
        <time>2017-10-15T07:35:32.000Z</time>
      </trkpt>
      <trkpt lat="42.38477" lon="2.09172">
        <ele>2180</ele>
        <time>2017-10-15T07:35:33.000Z</time>
      </trkpt>
      <trkpt lat="42.38477" lon="2.09173">
        <ele>2180</ele>
        <time>2017-10-15T07:35:34.000Z</time>
      </trkpt>
      <trkpt lat="42.38477" lon="2.09175">
        <ele>2180</ele>
        <time>2017-10-15T07:35:35.000Z</time>
      </trkpt>
      <trkpt lat="42.38477" lon="2.09176">
        <ele>2180</ele>
        <time>2017-10-15T07:35:36.000Z</time>
      </trkpt>
      <trkpt lat="42.38477" lon="2.09177">
        <ele>2180</ele>
        <time>2017-10-15T07:35:37.000Z</time>
      </trkpt>
      <trkpt lat="42.38477" lon="2.09178">
        <ele>2180</ele>
        <time>2017-10-15T07:35:38.000Z</time>
      </trkpt>
      <trkpt lat="42.38476" lon="2.0918">
        <ele>2181</ele>
        <time>2017-10-15T07:35:39.000Z</time>
      </trkpt>
      <trkpt lat="42.38476" lon="2.09181">
        <ele>2181</ele>
        <time>2017-10-15T07:35:40.000Z</time>
      </trkpt>
      <trkpt lat="42.38476" lon="2.09182">
        <ele>2181</ele>
        <time>2017-10-15T07:35:41.000Z</time>
      </trkpt>
      <trkpt lat="42.38475" lon="2.09184">
        <ele>2181</ele>
        <time>2017-10-15T07:35:42.000Z</time>
      </trkpt>
      <trkpt lat="42.38475" lon="2.09185">
        <ele>2181</ele>
        <time>2017-10-15T07:35:43.000Z</time>
      </trkpt>
      <trkpt lat="42.38475" lon="2.09186">
        <ele>2181</ele>
        <time>2017-10-15T07:35:44.000Z</time>
      </trkpt>
      <trkpt lat="42.38475" lon="2.09188">
        <ele>2182</ele>
        <time>2017-10-15T07:35:45.000Z</time>
      </trkpt>
      <trkpt lat="42.38475" lon="2.09189">
        <ele>2182</ele>
        <time>2017-10-15T07:35:46.000Z</time>
      </trkpt>
      <trkpt lat="42.38474" lon="2.0919">
        <ele>2182</ele>
        <time>2017-10-15T07:35:47.000Z</time>
      </trkpt>
      <trkpt lat="42.38474" lon="2.09191">
        <ele>2182</ele>
        <time>2017-10-15T07:35:48.000Z</time>
      </trkpt>
      <trkpt lat="42.38473" lon="2.09192">
        <ele>2182</ele>
        <time>2017-10-15T07:35:49.000Z</time>
      </trkpt>
      <trkpt lat="42.38473" lon="2.09194">
        <ele>2183</ele>
        <time>2017-10-15T07:35:50.000Z</time>
      </trkpt>
      <trkpt lat="42.38473" lon="2.09195">
        <ele>2183</ele>
        <time>2017-10-15T07:35:51.000Z</time>
      </trkpt>
      <trkpt lat="42.38472" lon="2.09196">
        <ele>2183</ele>
        <time>2017-10-15T07:35:52.000Z</time>
      </trkpt>
      <trkpt lat="42.38472" lon="2.09198">
        <ele>2183</ele>
        <time>2017-10-15T07:35:53.000Z</time>
      </trkpt>
      <trkpt lat="42.38472" lon="2.09199">
        <ele>2183</ele>
        <time>2017-10-15T07:35:54.000Z</time>
      </trkpt>
      <trkpt lat="42.38472" lon="2.092">
        <ele>2184</ele>
        <time>2017-10-15T07:35:55.000Z</time>
      </trkpt>
      <trkpt lat="42.38472" lon="2.09202">
        <ele>2184</ele>
        <time>2017-10-15T07:35:56.000Z</time>
      </trkpt>
      <trkpt lat="42.38471" lon="2.09203">
        <ele>2184</ele>
        <time>2017-10-15T07:35:57.000Z</time>
      </trkpt>
      <trkpt lat="42.38471" lon="2.09205">
        <ele>2184</ele>
        <time>2017-10-15T07:35:58.000Z</time>
      </trkpt>
      <trkpt lat="42.38471" lon="2.09206">
        <ele>2184</ele>
        <time>2017-10-15T07:35:59.000Z</time>
      </trkpt>
      <trkpt lat="42.38471" lon="2.09207">
        <ele>2184</ele>
        <time>2017-10-15T07:36:00.000Z</time>
      </trkpt>
      <trkpt lat="42.38471" lon="2.09209">
        <ele>2184</ele>
        <time>2017-10-15T07:36:01.000Z</time>
      </trkpt>
      <trkpt lat="42.38471" lon="2.0921">
        <ele>2184</ele>
        <time>2017-10-15T07:36:02.000Z</time>
      </trkpt>
      <trkpt lat="42.38472" lon="2.09211">
        <ele>2184</ele>
        <time>2017-10-15T07:36:03.000Z</time>
      </trkpt>
      <trkpt lat="42.38472" lon="2.09213">
        <ele>2184</ele>
        <time>2017-10-15T07:36:04.000Z</time>
      </trkpt>
      <trkpt lat="42.38472" lon="2.09214">
        <ele>2184</ele>
        <time>2017-10-15T07:36:05.000Z</time>
      </trkpt>
      <trkpt lat="42.38472" lon="2.09215">
        <ele>2184</ele>
        <time>2017-10-15T07:36:06.000Z</time>
      </trkpt>
      <trkpt lat="42.38472" lon="2.09217">
        <ele>2184</ele>
        <time>2017-10-15T07:36:07.000Z</time>
      </trkpt>
      <trkpt lat="42.38472" lon="2.09218">
        <ele>2184</ele>
        <time>2017-10-15T07:36:08.000Z</time>
      </trkpt>
      <trkpt lat="42.38472" lon="2.0922">
        <ele>2184</ele>
        <time>2017-10-15T07:36:09.000Z</time>
      </trkpt>
      <trkpt lat="42.38472" lon="2.09222">
        <ele>2183</ele>
        <time>2017-10-15T07:36:10.000Z</time>
      </trkpt>
      <trkpt lat="42.38472" lon="2.09223">
        <ele>2183</ele>
        <time>2017-10-15T07:36:11.000Z</time>
      </trkpt>
      <trkpt lat="42.38472" lon="2.09225">
        <ele>2183</ele>
        <time>2017-10-15T07:36:12.000Z</time>
      </trkpt>
      <trkpt lat="42.38472" lon="2.09226">
        <ele>2183</ele>
        <time>2017-10-15T07:36:13.000Z</time>
      </trkpt>
      <trkpt lat="42.38472" lon="2.09227">
        <ele>2183</ele>
        <time>2017-10-15T07:36:14.000Z</time>
      </trkpt>
      <trkpt lat="42.38472" lon="2.09228">
        <ele>2183</ele>
        <time>2017-10-15T07:36:15.000Z</time>
      </trkpt>
      <trkpt lat="42.38473" lon="2.0923">
        <ele>2183</ele>
        <time>2017-10-15T07:36:16.000Z</time>
      </trkpt>
      <trkpt lat="42.38473" lon="2.09231">
        <ele>2183</ele>
        <time>2017-10-15T07:36:17.000Z</time>
      </trkpt>
      <trkpt lat="42.38472" lon="2.09233">
        <ele>2183</ele>
        <time>2017-10-15T07:36:18.000Z</time>
      </trkpt>
      <trkpt lat="42.38472" lon="2.09234">
        <ele>2183</ele>
        <time>2017-10-15T07:36:19.000Z</time>
      </trkpt>
      <trkpt lat="42.38472" lon="2.09235">
        <ele>2183</ele>
        <time>2017-10-15T07:36:20.000Z</time>
      </trkpt>
      <trkpt lat="42.38472" lon="2.09237">
        <ele>2183</ele>
        <time>2017-10-15T07:36:21.000Z</time>
      </trkpt>
      <trkpt lat="42.38472" lon="2.09238">
        <ele>2183</ele>
        <time>2017-10-15T07:36:22.000Z</time>
      </trkpt>
      <trkpt lat="42.38472" lon="2.0924">
        <ele>2183</ele>
        <time>2017-10-15T07:36:23.000Z</time>
      </trkpt>
      <trkpt lat="42.38472" lon="2.09241">
        <ele>2183</ele>
        <time>2017-10-15T07:36:24.000Z</time>
      </trkpt>
      <trkpt lat="42.38472" lon="2.09242">
        <ele>2183</ele>
        <time>2017-10-15T07:36:25.000Z</time>
      </trkpt>
      <trkpt lat="42.38472" lon="2.09243">
        <ele>2182</ele>
        <time>2017-10-15T07:36:26.000Z</time>
      </trkpt>
      <trkpt lat="42.38472" lon="2.09245">
        <ele>2182</ele>
        <time>2017-10-15T07:36:27.000Z</time>
      </trkpt>
      <trkpt lat="42.38472" lon="2.09246">
        <ele>2183</ele>
        <time>2017-10-15T07:36:28.000Z</time>
      </trkpt>
      <trkpt lat="42.38472" lon="2.09247">
        <ele>2183</ele>
        <time>2017-10-15T07:36:29.000Z</time>
      </trkpt>
      <trkpt lat="42.38472" lon="2.09248">
        <ele>2183</ele>
        <time>2017-10-15T07:36:30.000Z</time>
      </trkpt>
      <trkpt lat="42.38472" lon="2.0925">
        <ele>2183</ele>
        <time>2017-10-15T07:36:31.000Z</time>
      </trkpt>
      <trkpt lat="42.38472" lon="2.09251">
        <ele>2183</ele>
        <time>2017-10-15T07:36:32.000Z</time>
      </trkpt>
      <trkpt lat="42.38472" lon="2.09252">
        <ele>2183</ele>
        <time>2017-10-15T07:36:33.000Z</time>
      </trkpt>
      <trkpt lat="42.38472" lon="2.09253">
        <ele>2183</ele>
        <time>2017-10-15T07:36:34.000Z</time>
      </trkpt>
      <trkpt lat="42.38472" lon="2.09255">
        <ele>2183</ele>
        <time>2017-10-15T07:36:35.000Z</time>
      </trkpt>
      <trkpt lat="42.38472" lon="2.09256">
        <ele>2183</ele>
        <time>2017-10-15T07:36:36.000Z</time>
      </trkpt>
      <trkpt lat="42.38472" lon="2.09257">
        <ele>2183</ele>
        <time>2017-10-15T07:36:37.000Z</time>
      </trkpt>
      <trkpt lat="42.38472" lon="2.09259">
        <ele>2183</ele>
        <time>2017-10-15T07:36:38.000Z</time>
      </trkpt>
      <trkpt lat="42.38472" lon="2.0926">
        <ele>2183</ele>
        <time>2017-10-15T07:36:39.000Z</time>
      </trkpt>
      <trkpt lat="42.38472" lon="2.09261">
        <ele>2183</ele>
        <time>2017-10-15T07:36:40.000Z</time>
      </trkpt>
      <trkpt lat="42.38472" lon="2.09262">
        <ele>2183</ele>
        <time>2017-10-15T07:36:41.000Z</time>
      </trkpt>
      <trkpt lat="42.38472" lon="2.09264">
        <ele>2183</ele>
        <time>2017-10-15T07:36:42.000Z</time>
      </trkpt>
      <trkpt lat="42.38473" lon="2.09265">
        <ele>2183</ele>
        <time>2017-10-15T07:36:43.000Z</time>
      </trkpt>
      <trkpt lat="42.38473" lon="2.09267">
        <ele>2183</ele>
        <time>2017-10-15T07:36:44.000Z</time>
      </trkpt>
      <trkpt lat="42.38473" lon="2.09268">
        <ele>2183</ele>
        <time>2017-10-15T07:36:45.000Z</time>
      </trkpt>
      <trkpt lat="42.38474" lon="2.0927">
        <ele>2183</ele>
        <time>2017-10-15T07:36:46.000Z</time>
      </trkpt>
      <trkpt lat="42.38474" lon="2.09271">
        <ele>2183</ele>
        <time>2017-10-15T07:36:47.000Z</time>
      </trkpt>
      <trkpt lat="42.38474" lon="2.09273">
        <ele>2183</ele>
        <time>2017-10-15T07:36:48.000Z</time>
      </trkpt>
      <trkpt lat="42.38474" lon="2.09274">
        <ele>2183</ele>
        <time>2017-10-15T07:36:49.000Z</time>
      </trkpt>
      <trkpt lat="42.38474" lon="2.09275">
        <ele>2183</ele>
        <time>2017-10-15T07:36:50.000Z</time>
      </trkpt>
      <trkpt lat="42.38475" lon="2.09277">
        <ele>2183</ele>
        <time>2017-10-15T07:36:51.000Z</time>
      </trkpt>
      <trkpt lat="42.38475" lon="2.09278">
        <ele>2183</ele>
        <time>2017-10-15T07:36:52.000Z</time>
      </trkpt>
      <trkpt lat="42.38475" lon="2.09279">
        <ele>2182</ele>
        <time>2017-10-15T07:36:53.000Z</time>
      </trkpt>
      <trkpt lat="42.38475" lon="2.0928">
        <ele>2182</ele>
        <time>2017-10-15T07:36:54.000Z</time>
      </trkpt>
      <trkpt lat="42.38475" lon="2.09281">
        <ele>2183</ele>
        <time>2017-10-15T07:36:55.000Z</time>
      </trkpt>
      <trkpt lat="42.38475" lon="2.09283">
        <ele>2183</ele>
        <time>2017-10-15T07:36:56.000Z</time>
      </trkpt>
      <trkpt lat="42.38475" lon="2.09284">
        <ele>2182</ele>
        <time>2017-10-15T07:36:57.000Z</time>
      </trkpt>
      <trkpt lat="42.38475" lon="2.09285">
        <ele>2183</ele>
        <time>2017-10-15T07:36:58.000Z</time>
      </trkpt>
      <trkpt lat="42.38475" lon="2.09287">
        <ele>2182</ele>
        <time>2017-10-15T07:36:59.000Z</time>
      </trkpt>
      <trkpt lat="42.38476" lon="2.09288">
        <ele>2182</ele>
        <time>2017-10-15T07:37:00.000Z</time>
      </trkpt>
      <trkpt lat="42.38476" lon="2.09289">
        <ele>2182</ele>
        <time>2017-10-15T07:37:01.000Z</time>
      </trkpt>
      <trkpt lat="42.38476" lon="2.09291">
        <ele>2183</ele>
        <time>2017-10-15T07:37:02.000Z</time>
      </trkpt>
      <trkpt lat="42.38476" lon="2.09292">
        <ele>2182</ele>
        <time>2017-10-15T07:37:03.000Z</time>
      </trkpt>
      <trkpt lat="42.38476" lon="2.09293">
        <ele>2182</ele>
        <time>2017-10-15T07:37:04.000Z</time>
      </trkpt>
      <trkpt lat="42.38476" lon="2.09294">
        <ele>2182</ele>
        <time>2017-10-15T07:37:05.000Z</time>
      </trkpt>
      <trkpt lat="42.38476" lon="2.09296">
        <ele>2182</ele>
        <time>2017-10-15T07:37:06.000Z</time>
      </trkpt>
      <trkpt lat="42.38477" lon="2.09297">
        <ele>2182</ele>
        <time>2017-10-15T07:37:07.000Z</time>
      </trkpt>
      <trkpt lat="42.38477" lon="2.09299">
        <ele>2182</ele>
        <time>2017-10-15T07:37:08.000Z</time>
      </trkpt>
      <trkpt lat="42.38477" lon="2.093">
        <ele>2182</ele>
        <time>2017-10-15T07:37:09.000Z</time>
      </trkpt>
      <trkpt lat="42.38477" lon="2.09301">
        <ele>2182</ele>
        <time>2017-10-15T07:37:10.000Z</time>
      </trkpt>
      <trkpt lat="42.38477" lon="2.09302">
        <ele>2182</ele>
        <time>2017-10-15T07:37:11.000Z</time>
      </trkpt>
      <trkpt lat="42.38477" lon="2.09304">
        <ele>2182</ele>
        <time>2017-10-15T07:37:12.000Z</time>
      </trkpt>
      <trkpt lat="42.38478" lon="2.09305">
        <ele>2182</ele>
        <time>2017-10-15T07:37:13.000Z</time>
      </trkpt>
      <trkpt lat="42.38478" lon="2.09306">
        <ele>2182</ele>
        <time>2017-10-15T07:37:14.000Z</time>
      </trkpt>
      <trkpt lat="42.38478" lon="2.09308">
        <ele>2182</ele>
        <time>2017-10-15T07:37:15.000Z</time>
      </trkpt>
      <trkpt lat="42.38478" lon="2.09309">
        <ele>2182</ele>
        <time>2017-10-15T07:37:16.000Z</time>
      </trkpt>
      <trkpt lat="42.38478" lon="2.0931">
        <ele>2182</ele>
        <time>2017-10-15T07:37:17.000Z</time>
      </trkpt>
      <trkpt lat="42.38479" lon="2.09312">
        <ele>2182</ele>
        <time>2017-10-15T07:37:18.000Z</time>
      </trkpt>
      <trkpt lat="42.38479" lon="2.09313">
        <ele>2182</ele>
        <time>2017-10-15T07:37:19.000Z</time>
      </trkpt>
      <trkpt lat="42.38479" lon="2.09314">
        <ele>2182</ele>
        <time>2017-10-15T07:37:20.000Z</time>
      </trkpt>
      <trkpt lat="42.3848" lon="2.09316">
        <ele>2182</ele>
        <time>2017-10-15T07:37:21.000Z</time>
      </trkpt>
      <trkpt lat="42.3848" lon="2.09317">
        <ele>2181</ele>
        <time>2017-10-15T07:37:22.000Z</time>
      </trkpt>
      <trkpt lat="42.3848" lon="2.09318">
        <ele>2181</ele>
        <time>2017-10-15T07:37:23.000Z</time>
      </trkpt>
      <trkpt lat="42.3848" lon="2.0932">
        <ele>2181</ele>
        <time>2017-10-15T07:37:24.000Z</time>
      </trkpt>
      <trkpt lat="42.3848" lon="2.09321">
        <ele>2181</ele>
        <time>2017-10-15T07:37:25.000Z</time>
      </trkpt>
      <trkpt lat="42.38481" lon="2.09322">
        <ele>2181</ele>
        <time>2017-10-15T07:37:26.000Z</time>
      </trkpt>
      <trkpt lat="42.38481" lon="2.09323">
        <ele>2181</ele>
        <time>2017-10-15T07:37:27.000Z</time>
      </trkpt>
      <trkpt lat="42.38481" lon="2.09324">
        <ele>2181</ele>
        <time>2017-10-15T07:37:28.000Z</time>
      </trkpt>
      <trkpt lat="42.38481" lon="2.09326">
        <ele>2181</ele>
        <time>2017-10-15T07:37:29.000Z</time>
      </trkpt>
      <trkpt lat="42.38481" lon="2.09327">
        <ele>2182</ele>
        <time>2017-10-15T07:37:30.000Z</time>
      </trkpt>
      <trkpt lat="42.38481" lon="2.09328">
        <ele>2182</ele>
        <time>2017-10-15T07:37:31.000Z</time>
      </trkpt>
      <trkpt lat="42.38481" lon="2.09329">
        <ele>2182</ele>
        <time>2017-10-15T07:37:32.000Z</time>
      </trkpt>
      <trkpt lat="42.38481" lon="2.0933">
        <ele>2182</ele>
        <time>2017-10-15T07:37:33.000Z</time>
      </trkpt>
      <trkpt lat="42.38481" lon="2.09331">
        <ele>2182</ele>
        <time>2017-10-15T07:37:34.000Z</time>
      </trkpt>
      <trkpt lat="42.38481" lon="2.09333">
        <ele>2182</ele>
        <time>2017-10-15T07:37:35.000Z</time>
      </trkpt>
      <trkpt lat="42.38481" lon="2.09334">
        <ele>2182</ele>
        <time>2017-10-15T07:37:36.000Z</time>
      </trkpt>
      <trkpt lat="42.3848" lon="2.09335">
        <ele>2183</ele>
        <time>2017-10-15T07:37:37.000Z</time>
      </trkpt>
      <trkpt lat="42.3848" lon="2.09336">
        <ele>2183</ele>
        <time>2017-10-15T07:37:38.000Z</time>
      </trkpt>
      <trkpt lat="42.3848" lon="2.09337">
        <ele>2183</ele>
        <time>2017-10-15T07:37:39.000Z</time>
      </trkpt>
      <trkpt lat="42.3848" lon="2.09338">
        <ele>2183</ele>
        <time>2017-10-15T07:37:40.000Z</time>
      </trkpt>
      <trkpt lat="42.3848" lon="2.09339">
        <ele>2183</ele>
        <time>2017-10-15T07:37:41.000Z</time>
      </trkpt>
      <trkpt lat="42.38479" lon="2.0934">
        <ele>2184</ele>
        <time>2017-10-15T07:37:42.000Z</time>
      </trkpt>
      <trkpt lat="42.38478" lon="2.09341">
        <ele>2184</ele>
        <time>2017-10-15T07:37:43.000Z</time>
      </trkpt>
      <trkpt lat="42.38478" lon="2.09342">
        <ele>2185</ele>
        <time>2017-10-15T07:37:44.000Z</time>
      </trkpt>
      <trkpt lat="42.38477" lon="2.09343">
        <ele>2185</ele>
        <time>2017-10-15T07:37:45.000Z</time>
      </trkpt>
      <trkpt lat="42.38477" lon="2.09343">
        <ele>2185</ele>
        <time>2017-10-15T07:37:46.000Z</time>
      </trkpt>
      <trkpt lat="42.38476" lon="2.09343">
        <ele>2186</ele>
        <time>2017-10-15T07:37:47.000Z</time>
      </trkpt>
      <trkpt lat="42.38475" lon="2.09343">
        <ele>2186</ele>
        <time>2017-10-15T07:37:48.000Z</time>
      </trkpt>
      <trkpt lat="42.38474" lon="2.09343">
        <ele>2187</ele>
        <time>2017-10-15T07:37:49.000Z</time>
      </trkpt>
      <trkpt lat="42.38473" lon="2.09343">
        <ele>2187</ele>
        <time>2017-10-15T07:37:50.000Z</time>
      </trkpt>
      <trkpt lat="42.38472" lon="2.09342">
        <ele>2187</ele>
        <time>2017-10-15T07:37:51.000Z</time>
      </trkpt>
      <trkpt lat="42.38471" lon="2.09342">
        <ele>2188</ele>
        <time>2017-10-15T07:37:52.000Z</time>
      </trkpt>
      <trkpt lat="42.38471" lon="2.09341">
        <ele>2188</ele>
        <time>2017-10-15T07:37:53.000Z</time>
      </trkpt>
      <trkpt lat="42.3847" lon="2.09339">
        <ele>2188</ele>
        <time>2017-10-15T07:37:54.000Z</time>
      </trkpt>
      <trkpt lat="42.38469" lon="2.09339">
        <ele>2188</ele>
        <time>2017-10-15T07:37:55.000Z</time>
      </trkpt>
      <trkpt lat="42.38469" lon="2.09338">
        <ele>2189</ele>
        <time>2017-10-15T07:37:56.000Z</time>
      </trkpt>
      <trkpt lat="42.38468" lon="2.09336">
        <ele>2189</ele>
        <time>2017-10-15T07:37:57.000Z</time>
      </trkpt>
      <trkpt lat="42.38468" lon="2.09335">
        <ele>2189</ele>
        <time>2017-10-15T07:37:58.000Z</time>
      </trkpt>
      <trkpt lat="42.38467" lon="2.09334">
        <ele>2189</ele>
        <time>2017-10-15T07:37:59.000Z</time>
      </trkpt>
      <trkpt lat="42.38467" lon="2.09333">
        <ele>2189</ele>
        <time>2017-10-15T07:38:00.000Z</time>
      </trkpt>
      <trkpt lat="42.38467" lon="2.09331">
        <ele>2189</ele>
        <time>2017-10-15T07:38:01.000Z</time>
      </trkpt>
      <trkpt lat="42.38466" lon="2.0933">
        <ele>2189</ele>
        <time>2017-10-15T07:38:02.000Z</time>
      </trkpt>
      <trkpt lat="42.38466" lon="2.09329">
        <ele>2189</ele>
        <time>2017-10-15T07:38:03.000Z</time>
      </trkpt>
      <trkpt lat="42.38465" lon="2.09328">
        <ele>2189</ele>
        <time>2017-10-15T07:38:04.000Z</time>
      </trkpt>
      <trkpt lat="42.38465" lon="2.09327">
        <ele>2189</ele>
        <time>2017-10-15T07:38:05.000Z</time>
      </trkpt>
      <trkpt lat="42.38465" lon="2.09326">
        <ele>2190</ele>
        <time>2017-10-15T07:38:06.000Z</time>
      </trkpt>
      <trkpt lat="42.38464" lon="2.09325">
        <ele>2190</ele>
        <time>2017-10-15T07:38:07.000Z</time>
      </trkpt>
      <trkpt lat="42.38464" lon="2.09323">
        <ele>2190</ele>
        <time>2017-10-15T07:38:08.000Z</time>
      </trkpt>
      <trkpt lat="42.38463" lon="2.09322">
        <ele>2190</ele>
        <time>2017-10-15T07:38:09.000Z</time>
      </trkpt>
      <trkpt lat="42.38463" lon="2.09321">
        <ele>2190</ele>
        <time>2017-10-15T07:38:10.000Z</time>
      </trkpt>
      <trkpt lat="42.38463" lon="2.0932">
        <ele>2190</ele>
        <time>2017-10-15T07:38:11.000Z</time>
      </trkpt>
      <trkpt lat="42.38462" lon="2.09318">
        <ele>2190</ele>
        <time>2017-10-15T07:38:12.000Z</time>
      </trkpt>
      <trkpt lat="42.38462" lon="2.09317">
        <ele>2190</ele>
        <time>2017-10-15T07:38:13.000Z</time>
      </trkpt>
      <trkpt lat="42.38462" lon="2.09316">
        <ele>2190</ele>
        <time>2017-10-15T07:38:14.000Z</time>
      </trkpt>
      <trkpt lat="42.38462" lon="2.09314">
        <ele>2190</ele>
        <time>2017-10-15T07:38:15.000Z</time>
      </trkpt>
      <trkpt lat="42.38461" lon="2.09313">
        <ele>2190</ele>
        <time>2017-10-15T07:38:16.000Z</time>
      </trkpt>
      <trkpt lat="42.38461" lon="2.09312">
        <ele>2190</ele>
        <time>2017-10-15T07:38:17.000Z</time>
      </trkpt>
      <trkpt lat="42.38461" lon="2.09311">
        <ele>2190</ele>
        <time>2017-10-15T07:38:18.000Z</time>
      </trkpt>
      <trkpt lat="42.38461" lon="2.0931">
        <ele>2191</ele>
        <time>2017-10-15T07:38:19.000Z</time>
      </trkpt>
      <trkpt lat="42.38461" lon="2.09308">
        <ele>2191</ele>
        <time>2017-10-15T07:38:20.000Z</time>
      </trkpt>
      <trkpt lat="42.3846" lon="2.09307">
        <ele>2191</ele>
        <time>2017-10-15T07:38:21.000Z</time>
      </trkpt>
      <trkpt lat="42.3846" lon="2.09306">
        <ele>2191</ele>
        <time>2017-10-15T07:38:22.000Z</time>
      </trkpt>
      <trkpt lat="42.3846" lon="2.09304">
        <ele>2191</ele>
        <time>2017-10-15T07:38:23.000Z</time>
      </trkpt>
      <trkpt lat="42.38459" lon="2.09303">
        <ele>2191</ele>
        <time>2017-10-15T07:38:24.000Z</time>
      </trkpt>
      <trkpt lat="42.38459" lon="2.09301">
        <ele>2191</ele>
        <time>2017-10-15T07:38:25.000Z</time>
      </trkpt>
      <trkpt lat="42.38459" lon="2.09301">
        <ele>2191</ele>
        <time>2017-10-15T07:38:26.000Z</time>
      </trkpt>
      <trkpt lat="42.38459" lon="2.09299">
        <ele>2191</ele>
        <time>2017-10-15T07:38:27.000Z</time>
      </trkpt>
      <trkpt lat="42.38459" lon="2.09298">
        <ele>2191</ele>
        <time>2017-10-15T07:38:28.000Z</time>
      </trkpt>
      <trkpt lat="42.38458" lon="2.09297">
        <ele>2191</ele>
        <time>2017-10-15T07:38:29.000Z</time>
      </trkpt>
      <trkpt lat="42.38458" lon="2.09296">
        <ele>2191</ele>
        <time>2017-10-15T07:38:30.000Z</time>
      </trkpt>
      <trkpt lat="42.38458" lon="2.09294">
        <ele>2191</ele>
        <time>2017-10-15T07:38:31.000Z</time>
      </trkpt>
      <trkpt lat="42.38457" lon="2.09293">
        <ele>2191</ele>
        <time>2017-10-15T07:38:32.000Z</time>
      </trkpt>
      <trkpt lat="42.38457" lon="2.09292">
        <ele>2192</ele>
        <time>2017-10-15T07:38:33.000Z</time>
      </trkpt>
      <trkpt lat="42.38457" lon="2.0929">
        <ele>2192</ele>
        <time>2017-10-15T07:38:34.000Z</time>
      </trkpt>
      <trkpt lat="42.38456" lon="2.09289">
        <ele>2192</ele>
        <time>2017-10-15T07:38:35.000Z</time>
      </trkpt>
      <trkpt lat="42.38456" lon="2.09288">
        <ele>2192</ele>
        <time>2017-10-15T07:38:36.000Z</time>
      </trkpt>
      <trkpt lat="42.38456" lon="2.09287">
        <ele>2192</ele>
        <time>2017-10-15T07:38:37.000Z</time>
      </trkpt>
      <trkpt lat="42.38456" lon="2.09286">
        <ele>2192</ele>
        <time>2017-10-15T07:38:38.000Z</time>
      </trkpt>
      <trkpt lat="42.38455" lon="2.09285">
        <ele>2192</ele>
        <time>2017-10-15T07:38:39.000Z</time>
      </trkpt>
      <trkpt lat="42.38455" lon="2.09284">
        <ele>2192</ele>
        <time>2017-10-15T07:38:40.000Z</time>
      </trkpt>
      <trkpt lat="42.38455" lon="2.09283">
        <ele>2192</ele>
        <time>2017-10-15T07:38:41.000Z</time>
      </trkpt>
      <trkpt lat="42.38455" lon="2.09282">
        <ele>2192</ele>
        <time>2017-10-15T07:38:42.000Z</time>
      </trkpt>
      <trkpt lat="42.38454" lon="2.0928">
        <ele>2192</ele>
        <time>2017-10-15T07:38:43.000Z</time>
      </trkpt>
      <trkpt lat="42.38454" lon="2.09279">
        <ele>2192</ele>
        <time>2017-10-15T07:38:44.000Z</time>
      </trkpt>
      <trkpt lat="42.38454" lon="2.09278">
        <ele>2193</ele>
        <time>2017-10-15T07:38:45.000Z</time>
      </trkpt>
      <trkpt lat="42.38454" lon="2.09277">
        <ele>2193</ele>
        <time>2017-10-15T07:38:46.000Z</time>
      </trkpt>
      <trkpt lat="42.38454" lon="2.09276">
        <ele>2193</ele>
        <time>2017-10-15T07:38:47.000Z</time>
      </trkpt>
      <trkpt lat="42.38453" lon="2.09275">
        <ele>2193</ele>
        <time>2017-10-15T07:38:48.000Z</time>
      </trkpt>
      <trkpt lat="42.38453" lon="2.09273">
        <ele>2193</ele>
        <time>2017-10-15T07:38:49.000Z</time>
      </trkpt>
      <trkpt lat="42.38453" lon="2.09272">
        <ele>2193</ele>
        <time>2017-10-15T07:38:50.000Z</time>
      </trkpt>
      <trkpt lat="42.38453" lon="2.09271">
        <ele>2193</ele>
        <time>2017-10-15T07:38:51.000Z</time>
      </trkpt>
      <trkpt lat="42.38452" lon="2.0927">
        <ele>2193</ele>
        <time>2017-10-15T07:38:52.000Z</time>
      </trkpt>
      <trkpt lat="42.38452" lon="2.09269">
        <ele>2193</ele>
        <time>2017-10-15T07:38:53.000Z</time>
      </trkpt>
      <trkpt lat="42.38452" lon="2.09268">
        <ele>2193</ele>
        <time>2017-10-15T07:38:54.000Z</time>
      </trkpt>
      <trkpt lat="42.38452" lon="2.09267">
        <ele>2193</ele>
        <time>2017-10-15T07:38:55.000Z</time>
      </trkpt>
      <trkpt lat="42.38452" lon="2.09266">
        <ele>2193</ele>
        <time>2017-10-15T07:38:56.000Z</time>
      </trkpt>
      <trkpt lat="42.38452" lon="2.09264">
        <ele>2193</ele>
        <time>2017-10-15T07:38:57.000Z</time>
      </trkpt>
      <trkpt lat="42.38451" lon="2.09263">
        <ele>2193</ele>
        <time>2017-10-15T07:38:58.000Z</time>
      </trkpt>
      <trkpt lat="42.38451" lon="2.09262">
        <ele>2193</ele>
        <time>2017-10-15T07:38:59.000Z</time>
      </trkpt>
      <trkpt lat="42.38451" lon="2.09261">
        <ele>2193</ele>
        <time>2017-10-15T07:39:00.000Z</time>
      </trkpt>
      <trkpt lat="42.38451" lon="2.0926">
        <ele>2193</ele>
        <time>2017-10-15T07:39:01.000Z</time>
      </trkpt>
      <trkpt lat="42.38451" lon="2.09259">
        <ele>2193</ele>
        <time>2017-10-15T07:39:02.000Z</time>
      </trkpt>
      <trkpt lat="42.38451" lon="2.09257">
        <ele>2193</ele>
        <time>2017-10-15T07:39:03.000Z</time>
      </trkpt>
      <trkpt lat="42.3845" lon="2.09256">
        <ele>2193</ele>
        <time>2017-10-15T07:39:04.000Z</time>
      </trkpt>
      <trkpt lat="42.3845" lon="2.09255">
        <ele>2194</ele>
        <time>2017-10-15T07:39:05.000Z</time>
      </trkpt>
      <trkpt lat="42.3845" lon="2.09253">
        <ele>2194</ele>
        <time>2017-10-15T07:39:06.000Z</time>
      </trkpt>
      <trkpt lat="42.38449" lon="2.09252">
        <ele>2194</ele>
        <time>2017-10-15T07:39:07.000Z</time>
      </trkpt>
      <trkpt lat="42.38449" lon="2.09251">
        <ele>2194</ele>
        <time>2017-10-15T07:39:08.000Z</time>
      </trkpt>
      <trkpt lat="42.38449" lon="2.09249">
        <ele>2194</ele>
        <time>2017-10-15T07:39:09.000Z</time>
      </trkpt>
      <trkpt lat="42.38449" lon="2.09248">
        <ele>2194</ele>
        <time>2017-10-15T07:39:10.000Z</time>
      </trkpt>
      <trkpt lat="42.38449" lon="2.09247">
        <ele>2194</ele>
        <time>2017-10-15T07:39:11.000Z</time>
      </trkpt>
      <trkpt lat="42.38449" lon="2.09246">
        <ele>2194</ele>
        <time>2017-10-15T07:39:12.000Z</time>
      </trkpt>
      <trkpt lat="42.38449" lon="2.09245">
        <ele>2194</ele>
        <time>2017-10-15T07:39:13.000Z</time>
      </trkpt>
      <trkpt lat="42.38449" lon="2.09244">
        <ele>2194</ele>
        <time>2017-10-15T07:39:14.000Z</time>
      </trkpt>
      <trkpt lat="42.38449" lon="2.09243">
        <ele>2194</ele>
        <time>2017-10-15T07:39:15.000Z</time>
      </trkpt>
      <trkpt lat="42.38449" lon="2.09241">
        <ele>2194</ele>
        <time>2017-10-15T07:39:16.000Z</time>
      </trkpt>
      <trkpt lat="42.38449" lon="2.0924">
        <ele>2194</ele>
        <time>2017-10-15T07:39:17.000Z</time>
      </trkpt>
      <trkpt lat="42.38449" lon="2.09239">
        <ele>2194</ele>
        <time>2017-10-15T07:39:18.000Z</time>
      </trkpt>
      <trkpt lat="42.38449" lon="2.09238">
        <ele>2194</ele>
        <time>2017-10-15T07:39:19.000Z</time>
      </trkpt>
      <trkpt lat="42.38449" lon="2.09237">
        <ele>2194</ele>
        <time>2017-10-15T07:39:20.000Z</time>
      </trkpt>
      <trkpt lat="42.38449" lon="2.09235">
        <ele>2194</ele>
        <time>2017-10-15T07:39:21.000Z</time>
      </trkpt>
      <trkpt lat="42.38449" lon="2.09234">
        <ele>2194</ele>
        <time>2017-10-15T07:39:22.000Z</time>
      </trkpt>
      <trkpt lat="42.38449" lon="2.09233">
        <ele>2194</ele>
        <time>2017-10-15T07:39:23.000Z</time>
      </trkpt>
      <trkpt lat="42.38449" lon="2.09232">
        <ele>2194</ele>
        <time>2017-10-15T07:39:24.000Z</time>
      </trkpt>
      <trkpt lat="42.38449" lon="2.0923">
        <ele>2194</ele>
        <time>2017-10-15T07:39:25.000Z</time>
      </trkpt>
      <trkpt lat="42.38449" lon="2.09229">
        <ele>2194</ele>
        <time>2017-10-15T07:39:26.000Z</time>
      </trkpt>
      <trkpt lat="42.38448" lon="2.09228">
        <ele>2195</ele>
        <time>2017-10-15T07:39:27.000Z</time>
      </trkpt>
      <trkpt lat="42.38448" lon="2.09226">
        <ele>2195</ele>
        <time>2017-10-15T07:39:28.000Z</time>
      </trkpt>
      <trkpt lat="42.38448" lon="2.09225">
        <ele>2195</ele>
        <time>2017-10-15T07:39:29.000Z</time>
      </trkpt>
      <trkpt lat="42.38448" lon="2.09224">
        <ele>2195</ele>
        <time>2017-10-15T07:39:30.000Z</time>
      </trkpt>
      <trkpt lat="42.38448" lon="2.09222">
        <ele>2195</ele>
        <time>2017-10-15T07:39:31.000Z</time>
      </trkpt>
      <trkpt lat="42.38448" lon="2.09221">
        <ele>2195</ele>
        <time>2017-10-15T07:39:32.000Z</time>
      </trkpt>
      <trkpt lat="42.38447" lon="2.0922">
        <ele>2195</ele>
        <time>2017-10-15T07:39:33.000Z</time>
      </trkpt>
      <trkpt lat="42.38447" lon="2.09219">
        <ele>2196</ele>
        <time>2017-10-15T07:39:34.000Z</time>
      </trkpt>
      <trkpt lat="42.38447" lon="2.09218">
        <ele>2196</ele>
        <time>2017-10-15T07:39:35.000Z</time>
      </trkpt>
      <trkpt lat="42.38447" lon="2.09217">
        <ele>2196</ele>
        <time>2017-10-15T07:39:36.000Z</time>
      </trkpt>
      <trkpt lat="42.38447" lon="2.09215">
        <ele>2196</ele>
        <time>2017-10-15T07:39:37.000Z</time>
      </trkpt>
      <trkpt lat="42.38447" lon="2.09214">
        <ele>2196</ele>
        <time>2017-10-15T07:39:38.000Z</time>
      </trkpt>
      <trkpt lat="42.38447" lon="2.09212">
        <ele>2196</ele>
        <time>2017-10-15T07:39:39.000Z</time>
      </trkpt>
      <trkpt lat="42.38446" lon="2.09211">
        <ele>2196</ele>
        <time>2017-10-15T07:39:40.000Z</time>
      </trkpt>
      <trkpt lat="42.38446" lon="2.0921">
        <ele>2196</ele>
        <time>2017-10-15T07:39:41.000Z</time>
      </trkpt>
      <trkpt lat="42.38446" lon="2.09208">
        <ele>2197</ele>
        <time>2017-10-15T07:39:42.000Z</time>
      </trkpt>
      <trkpt lat="42.38446" lon="2.09207">
        <ele>2197</ele>
        <time>2017-10-15T07:39:43.000Z</time>
      </trkpt>
      <trkpt lat="42.38446" lon="2.09206">
        <ele>2197</ele>
        <time>2017-10-15T07:39:44.000Z</time>
      </trkpt>
      <trkpt lat="42.38446" lon="2.09204">
        <ele>2197</ele>
        <time>2017-10-15T07:39:45.000Z</time>
      </trkpt>
      <trkpt lat="42.38446" lon="2.09203">
        <ele>2197</ele>
        <time>2017-10-15T07:39:46.000Z</time>
      </trkpt>
      <trkpt lat="42.38446" lon="2.09202">
        <ele>2197</ele>
        <time>2017-10-15T07:39:47.000Z</time>
      </trkpt>
      <trkpt lat="42.38446" lon="2.09201">
        <ele>2197</ele>
        <time>2017-10-15T07:39:48.000Z</time>
      </trkpt>
      <trkpt lat="42.38446" lon="2.09199">
        <ele>2197</ele>
        <time>2017-10-15T07:39:49.000Z</time>
      </trkpt>
      <trkpt lat="42.38446" lon="2.09198">
        <ele>2197</ele>
        <time>2017-10-15T07:39:50.000Z</time>
      </trkpt>
      <trkpt lat="42.38446" lon="2.09197">
        <ele>2197</ele>
        <time>2017-10-15T07:39:51.000Z</time>
      </trkpt>
      <trkpt lat="42.38446" lon="2.09196">
        <ele>2197</ele>
        <time>2017-10-15T07:39:52.000Z</time>
      </trkpt>
      <trkpt lat="42.38446" lon="2.09195">
        <ele>2197</ele>
        <time>2017-10-15T07:39:53.000Z</time>
      </trkpt>
      <trkpt lat="42.38446" lon="2.09193">
        <ele>2197</ele>
        <time>2017-10-15T07:39:54.000Z</time>
      </trkpt>
      <trkpt lat="42.38446" lon="2.09192">
        <ele>2198</ele>
        <time>2017-10-15T07:39:55.000Z</time>
      </trkpt>
      <trkpt lat="42.38446" lon="2.09191">
        <ele>2198</ele>
        <time>2017-10-15T07:39:56.000Z</time>
      </trkpt>
      <trkpt lat="42.38446" lon="2.09189">
        <ele>2198</ele>
        <time>2017-10-15T07:39:57.000Z</time>
      </trkpt>
      <trkpt lat="42.38446" lon="2.09188">
        <ele>2198</ele>
        <time>2017-10-15T07:39:58.000Z</time>
      </trkpt>
      <trkpt lat="42.38445" lon="2.09186">
        <ele>2198</ele>
        <time>2017-10-15T07:39:59.000Z</time>
      </trkpt>
      <trkpt lat="42.38445" lon="2.09185">
        <ele>2198</ele>
        <time>2017-10-15T07:40:00.000Z</time>
      </trkpt>
      <trkpt lat="42.38445" lon="2.09184">
        <ele>2198</ele>
        <time>2017-10-15T07:40:01.000Z</time>
      </trkpt>
      <trkpt lat="42.38445" lon="2.09182">
        <ele>2198</ele>
        <time>2017-10-15T07:40:02.000Z</time>
      </trkpt>
      <trkpt lat="42.38445" lon="2.09181">
        <ele>2198</ele>
        <time>2017-10-15T07:40:03.000Z</time>
      </trkpt>
      <trkpt lat="42.38445" lon="2.0918">
        <ele>2198</ele>
        <time>2017-10-15T07:40:04.000Z</time>
      </trkpt>
      <trkpt lat="42.38445" lon="2.09179">
        <ele>2198</ele>
        <time>2017-10-15T07:40:05.000Z</time>
      </trkpt>
      <trkpt lat="42.38445" lon="2.09178">
        <ele>2198</ele>
        <time>2017-10-15T07:40:06.000Z</time>
      </trkpt>
      <trkpt lat="42.38445" lon="2.09176">
        <ele>2198</ele>
        <time>2017-10-15T07:40:07.000Z</time>
      </trkpt>
      <trkpt lat="42.38445" lon="2.09175">
        <ele>2198</ele>
        <time>2017-10-15T07:40:08.000Z</time>
      </trkpt>
      <trkpt lat="42.38445" lon="2.09174">
        <ele>2198</ele>
        <time>2017-10-15T07:40:09.000Z</time>
      </trkpt>
      <trkpt lat="42.38444" lon="2.09172">
        <ele>2198</ele>
        <time>2017-10-15T07:40:10.000Z</time>
      </trkpt>
      <trkpt lat="42.38444" lon="2.09171">
        <ele>2198</ele>
        <time>2017-10-15T07:40:11.000Z</time>
      </trkpt>
      <trkpt lat="42.38444" lon="2.0917">
        <ele>2198</ele>
        <time>2017-10-15T07:40:12.000Z</time>
      </trkpt>
      <trkpt lat="42.38444" lon="2.09169">
        <ele>2198</ele>
        <time>2017-10-15T07:40:13.000Z</time>
      </trkpt>
      <trkpt lat="42.38444" lon="2.09167">
        <ele>2198</ele>
        <time>2017-10-15T07:40:14.000Z</time>
      </trkpt>
      <trkpt lat="42.38444" lon="2.09166">
        <ele>2198</ele>
        <time>2017-10-15T07:40:15.000Z</time>
      </trkpt>
      <trkpt lat="42.38444" lon="2.09165">
        <ele>2198</ele>
        <time>2017-10-15T07:40:16.000Z</time>
      </trkpt>
      <trkpt lat="42.38444" lon="2.09164">
        <ele>2198</ele>
        <time>2017-10-15T07:40:17.000Z</time>
      </trkpt>
      <trkpt lat="42.38444" lon="2.09163">
        <ele>2198</ele>
        <time>2017-10-15T07:40:18.000Z</time>
      </trkpt>
      <trkpt lat="42.38444" lon="2.09162">
        <ele>2198</ele>
        <time>2017-10-15T07:40:19.000Z</time>
      </trkpt>
      <trkpt lat="42.38444" lon="2.09161">
        <ele>2198</ele>
        <time>2017-10-15T07:40:20.000Z</time>
      </trkpt>
      <trkpt lat="42.38444" lon="2.0916">
        <ele>2198</ele>
        <time>2017-10-15T07:40:21.000Z</time>
      </trkpt>
      <trkpt lat="42.38443" lon="2.09159">
        <ele>2198</ele>
        <time>2017-10-15T07:40:22.000Z</time>
      </trkpt>
      <trkpt lat="42.38443" lon="2.09158">
        <ele>2199</ele>
        <time>2017-10-15T07:40:23.000Z</time>
      </trkpt>
      <trkpt lat="42.38442" lon="2.09157">
        <ele>2199</ele>
        <time>2017-10-15T07:40:24.000Z</time>
      </trkpt>
      <trkpt lat="42.38442" lon="2.09157">
        <ele>2199</ele>
        <time>2017-10-15T07:40:25.000Z</time>
      </trkpt>
      <trkpt lat="42.38442" lon="2.09156">
        <ele>2199</ele>
        <time>2017-10-15T07:40:26.000Z</time>
      </trkpt>
      <trkpt lat="42.38439" lon="2.09095">
        <ele>2206</ele>
        <time>2017-10-15T07:43:30.000Z</time>
      </trkpt>
      <trkpt lat="42.38439" lon="2.09094">
        <ele>2206</ele>
        <time>2017-10-15T07:43:31.000Z</time>
      </trkpt>
      <trkpt lat="42.38439" lon="2.09093">
        <ele>2206</ele>
        <time>2017-10-15T07:43:32.000Z</time>
      </trkpt>
      <trkpt lat="42.38439" lon="2.09092">
        <ele>2206</ele>
        <time>2017-10-15T07:43:33.000Z</time>
      </trkpt>
      <trkpt lat="42.3844" lon="2.09091">
        <ele>2206</ele>
        <time>2017-10-15T07:43:34.000Z</time>
      </trkpt>
      <trkpt lat="42.3844" lon="2.09091">
        <ele>2206</ele>
        <time>2017-10-15T07:43:35.000Z</time>
      </trkpt>
      <trkpt lat="42.3844" lon="2.09091">
        <ele>2206</ele>
        <time>2017-10-15T07:43:36.000Z</time>
      </trkpt>
      <trkpt lat="42.3844" lon="2.0909">
        <ele>2206</ele>
        <time>2017-10-15T07:43:37.000Z</time>
      </trkpt>
      <trkpt lat="42.3844" lon="2.09089">
        <ele>2206</ele>
        <time>2017-10-15T07:43:38.000Z</time>
      </trkpt>
      <trkpt lat="42.3844" lon="2.09089">
        <ele>2207</ele>
        <time>2017-10-15T07:43:39.000Z</time>
      </trkpt>
      <trkpt lat="42.3844" lon="2.09088">
        <ele>2207</ele>
        <time>2017-10-15T07:43:40.000Z</time>
      </trkpt>
      <trkpt lat="42.3844" lon="2.09088">
        <ele>2207</ele>
        <time>2017-10-15T07:43:41.000Z</time>
      </trkpt>
      <trkpt lat="42.38439" lon="2.09087">
        <ele>2207</ele>
        <time>2017-10-15T07:43:42.000Z</time>
      </trkpt>
      <trkpt lat="42.38439" lon="2.09087">
        <ele>2207</ele>
        <time>2017-10-15T07:43:43.000Z</time>
      </trkpt>
      <trkpt lat="42.38429" lon="2.09031">
        <ele>2219</ele>
        <time>2017-10-15T07:46:04.000Z</time>
      </trkpt>
      <trkpt lat="42.38428" lon="2.0903">
        <ele>2219</ele>
        <time>2017-10-15T07:46:05.000Z</time>
      </trkpt>
      <trkpt lat="42.38429" lon="2.0903">
        <ele>2219</ele>
        <time>2017-10-15T07:46:06.000Z</time>
      </trkpt>
      <trkpt lat="42.38428" lon="2.09029">
        <ele>2219</ele>
        <time>2017-10-15T07:46:07.000Z</time>
      </trkpt>
      <trkpt lat="42.38428" lon="2.09028">
        <ele>2219</ele>
        <time>2017-10-15T07:46:08.000Z</time>
      </trkpt>
      <trkpt lat="42.38428" lon="2.09028">
        <ele>2219</ele>
        <time>2017-10-15T07:46:09.000Z</time>
      </trkpt>
      <trkpt lat="42.38428" lon="2.09027">
        <ele>2220</ele>
        <time>2017-10-15T07:46:10.000Z</time>
      </trkpt>
      <trkpt lat="42.38428" lon="2.09027">
        <ele>2220</ele>
        <time>2017-10-15T07:46:11.000Z</time>
      </trkpt>
      <trkpt lat="42.38428" lon="2.09026">
        <ele>2220</ele>
        <time>2017-10-15T07:46:12.000Z</time>
      </trkpt>
      <trkpt lat="42.38396" lon="2.09005">
        <ele>2234</ele>
        <time>2017-10-15T07:47:24.000Z</time>
      </trkpt>
      <trkpt lat="42.38395" lon="2.09005">
        <ele>2234</ele>
        <time>2017-10-15T07:47:25.000Z</time>
      </trkpt>
      <trkpt lat="42.38395" lon="2.09005">
        <ele>2234</ele>
        <time>2017-10-15T07:47:26.000Z</time>
      </trkpt>
      <trkpt lat="42.38395" lon="2.09004">
        <ele>2235</ele>
        <time>2017-10-15T07:47:27.000Z</time>
      </trkpt>
      <trkpt lat="42.38394" lon="2.09004">
        <ele>2235</ele>
        <time>2017-10-15T07:47:28.000Z</time>
      </trkpt>
      <trkpt lat="42.38393" lon="2.09004">
        <ele>2235</ele>
        <time>2017-10-15T07:47:29.000Z</time>
      </trkpt>
      <trkpt lat="42.38393" lon="2.09004">
        <ele>2235</ele>
        <time>2017-10-15T07:47:30.000Z</time>
      </trkpt>
      <trkpt lat="42.38392" lon="2.09004">
        <ele>2235</ele>
        <time>2017-10-15T07:47:31.000Z</time>
      </trkpt>
      <trkpt lat="42.38392" lon="2.09003">
        <ele>2236</ele>
        <time>2017-10-15T07:47:32.000Z</time>
      </trkpt>
      <trkpt lat="42.38391" lon="2.09003">
        <ele>2236</ele>
        <time>2017-10-15T07:47:33.000Z</time>
      </trkpt>
      <trkpt lat="42.38391" lon="2.09003">
        <ele>2236</ele>
        <time>2017-10-15T07:47:34.000Z</time>
      </trkpt>
      <trkpt lat="42.3839" lon="2.09003">
        <ele>2236</ele>
        <time>2017-10-15T07:47:35.000Z</time>
      </trkpt>
      <trkpt lat="42.3839" lon="2.09003">
        <ele>2236</ele>
        <time>2017-10-15T07:47:36.000Z</time>
      </trkpt>
      <trkpt lat="42.3839" lon="2.09003">
        <ele>2236</ele>
        <time>2017-10-15T07:47:37.000Z</time>
      </trkpt>
      <trkpt lat="42.38389" lon="2.09002">
        <ele>2236</ele>
        <time>2017-10-15T07:47:38.000Z</time>
      </trkpt>
      <trkpt lat="42.38389" lon="2.09002">
        <ele>2237</ele>
        <time>2017-10-15T07:47:39.000Z</time>
      </trkpt>
      <trkpt lat="42.38388" lon="2.09001">
        <ele>2237</ele>
        <time>2017-10-15T07:47:40.000Z</time>
      </trkpt>
      <trkpt lat="42.38388" lon="2.09001">
        <ele>2237</ele>
        <time>2017-10-15T07:47:41.000Z</time>
      </trkpt>
      <trkpt lat="42.38387" lon="2.09">
        <ele>2237</ele>
        <time>2017-10-15T07:47:42.000Z</time>
      </trkpt>
      <trkpt lat="42.38387" lon="2.09">
        <ele>2237</ele>
        <time>2017-10-15T07:47:43.000Z</time>
      </trkpt>
      <trkpt lat="42.38386" lon="2.08999">
        <ele>2238</ele>
        <time>2017-10-15T07:47:44.000Z</time>
      </trkpt>
      <trkpt lat="42.38386" lon="2.08998">
        <ele>2238</ele>
        <time>2017-10-15T07:47:45.000Z</time>
      </trkpt>
      <trkpt lat="42.38386" lon="2.08997">
        <ele>2238</ele>
        <time>2017-10-15T07:47:46.000Z</time>
      </trkpt>
      <trkpt lat="42.38385" lon="2.08996">
        <ele>2238</ele>
        <time>2017-10-15T07:47:47.000Z</time>
      </trkpt>
      <trkpt lat="42.38384" lon="2.08995">
        <ele>2239</ele>
        <time>2017-10-15T07:47:48.000Z</time>
      </trkpt>
      <trkpt lat="42.38384" lon="2.08994">
        <ele>2239</ele>
        <time>2017-10-15T07:47:49.000Z</time>
      </trkpt>
      <trkpt lat="42.38383" lon="2.08993">
        <ele>2239</ele>
        <time>2017-10-15T07:47:50.000Z</time>
      </trkpt>
      <trkpt lat="42.38383" lon="2.08992">
        <ele>2239</ele>
        <time>2017-10-15T07:47:51.000Z</time>
      </trkpt>
      <trkpt lat="42.38382" lon="2.08991">
        <ele>2239</ele>
        <time>2017-10-15T07:47:52.000Z</time>
      </trkpt>
      <trkpt lat="42.38382" lon="2.0899">
        <ele>2240</ele>
        <time>2017-10-15T07:47:53.000Z</time>
      </trkpt>
      <trkpt lat="42.38381" lon="2.0899">
        <ele>2240</ele>
        <time>2017-10-15T07:47:54.000Z</time>
      </trkpt>
      <trkpt lat="42.38381" lon="2.0899">
        <ele>2240</ele>
        <time>2017-10-15T07:47:55.000Z</time>
      </trkpt>
      <trkpt lat="42.3838" lon="2.0899">
        <ele>2240</ele>
        <time>2017-10-15T07:47:56.000Z</time>
      </trkpt>
      <trkpt lat="42.3838" lon="2.0899">
        <ele>2240</ele>
        <time>2017-10-15T07:47:57.000Z</time>
      </trkpt>
      <trkpt lat="42.38371" lon="2.08985">
        <ele>2243</ele>
        <time>2017-10-15T07:48:16.000Z</time>
      </trkpt>
      <trkpt lat="42.38371" lon="2.08985">
        <ele>2243</ele>
        <time>2017-10-15T07:48:17.000Z</time>
      </trkpt>
      <trkpt lat="42.38371" lon="2.08984">
        <ele>2243</ele>
        <time>2017-10-15T07:48:18.000Z</time>
      </trkpt>
      <trkpt lat="42.3837" lon="2.08983">
        <ele>2243</ele>
        <time>2017-10-15T07:48:19.000Z</time>
      </trkpt>
      <trkpt lat="42.3837" lon="2.08983">
        <ele>2243</ele>
        <time>2017-10-15T07:48:20.000Z</time>
      </trkpt>
      <trkpt lat="42.3837" lon="2.08982">
        <ele>2243</ele>
        <time>2017-10-15T07:48:21.000Z</time>
      </trkpt>
      <trkpt lat="42.3837" lon="2.08982">
        <ele>2243</ele>
        <time>2017-10-15T07:48:22.000Z</time>
      </trkpt>
      <trkpt lat="42.3837" lon="2.08982">
        <ele>2243</ele>
        <time>2017-10-15T07:48:23.000Z</time>
      </trkpt>
      <trkpt lat="42.38372" lon="2.08984">
        <ele>2243</ele>
        <time>2017-10-15T07:50:55.000Z</time>
      </trkpt>
      <trkpt lat="42.38372" lon="2.08983">
        <ele>2243</ele>
        <time>2017-10-15T07:50:56.000Z</time>
      </trkpt>
      <trkpt lat="42.38371" lon="2.08982">
        <ele>2243</ele>
        <time>2017-10-15T07:50:57.000Z</time>
      </trkpt>
      <trkpt lat="42.38371" lon="2.08982">
        <ele>2243</ele>
        <time>2017-10-15T07:50:58.000Z</time>
      </trkpt>
      <trkpt lat="42.3837" lon="2.0898">
        <ele>2243</ele>
        <time>2017-10-15T07:50:59.000Z</time>
      </trkpt>
      <trkpt lat="42.3837" lon="2.08978">
        <ele>2243</ele>
        <time>2017-10-15T07:51:00.000Z</time>
      </trkpt>
      <trkpt lat="42.3837" lon="2.08977">
        <ele>2243</ele>
        <time>2017-10-15T07:51:01.000Z</time>
      </trkpt>
      <trkpt lat="42.38369" lon="2.08976">
        <ele>2243</ele>
        <time>2017-10-15T07:51:02.000Z</time>
      </trkpt>
      <trkpt lat="42.38368" lon="2.08974">
        <ele>2244</ele>
        <time>2017-10-15T07:51:03.000Z</time>
      </trkpt>
      <trkpt lat="42.38368" lon="2.08973">
        <ele>2244</ele>
        <time>2017-10-15T07:51:04.000Z</time>
      </trkpt>
      <trkpt lat="42.38367" lon="2.08972">
        <ele>2244</ele>
        <time>2017-10-15T07:51:05.000Z</time>
      </trkpt>
      <trkpt lat="42.38366" lon="2.08971">
        <ele>2244</ele>
        <time>2017-10-15T07:51:06.000Z</time>
      </trkpt>
      <trkpt lat="42.38366" lon="2.08969">
        <ele>2244</ele>
        <time>2017-10-15T07:51:07.000Z</time>
      </trkpt>
      <trkpt lat="42.38365" lon="2.08968">
        <ele>2245</ele>
        <time>2017-10-15T07:51:08.000Z</time>
      </trkpt>
      <trkpt lat="42.38365" lon="2.08966">
        <ele>2245</ele>
        <time>2017-10-15T07:51:09.000Z</time>
      </trkpt>
      <trkpt lat="42.38364" lon="2.08965">
        <ele>2245</ele>
        <time>2017-10-15T07:51:10.000Z</time>
      </trkpt>
      <trkpt lat="42.38364" lon="2.08964">
        <ele>2245</ele>
        <time>2017-10-15T07:51:11.000Z</time>
      </trkpt>
      <trkpt lat="42.38363" lon="2.08963">
        <ele>2245</ele>
        <time>2017-10-15T07:51:12.000Z</time>
      </trkpt>
      <trkpt lat="42.38362" lon="2.08961">
        <ele>2246</ele>
        <time>2017-10-15T07:51:13.000Z</time>
      </trkpt>
      <trkpt lat="42.38361" lon="2.0896">
        <ele>2246</ele>
        <time>2017-10-15T07:51:14.000Z</time>
      </trkpt>
      <trkpt lat="42.38361" lon="2.08959">
        <ele>2246</ele>
        <time>2017-10-15T07:51:15.000Z</time>
      </trkpt>
      <trkpt lat="42.3836" lon="2.08957">
        <ele>2246</ele>
        <time>2017-10-15T07:51:16.000Z</time>
      </trkpt>
      <trkpt lat="42.38359" lon="2.08956">
        <ele>2247</ele>
        <time>2017-10-15T07:51:17.000Z</time>
      </trkpt>
      <trkpt lat="42.38358" lon="2.08954">
        <ele>2247</ele>
        <time>2017-10-15T07:51:18.000Z</time>
      </trkpt>
      <trkpt lat="42.38357" lon="2.08953">
        <ele>2247</ele>
        <time>2017-10-15T07:51:19.000Z</time>
      </trkpt>
      <trkpt lat="42.38357" lon="2.08951">
        <ele>2247</ele>
        <time>2017-10-15T07:51:20.000Z</time>
      </trkpt>
      <trkpt lat="42.38356" lon="2.0895">
        <ele>2247</ele>
        <time>2017-10-15T07:51:21.000Z</time>
      </trkpt>
      <trkpt lat="42.38355" lon="2.08949">
        <ele>2248</ele>
        <time>2017-10-15T07:51:22.000Z</time>
      </trkpt>
      <trkpt lat="42.38355" lon="2.08948">
        <ele>2248</ele>
        <time>2017-10-15T07:51:23.000Z</time>
      </trkpt>
      <trkpt lat="42.38354" lon="2.08947">
        <ele>2248</ele>
        <time>2017-10-15T07:51:24.000Z</time>
      </trkpt>
      <trkpt lat="42.38354" lon="2.08946">
        <ele>2248</ele>
        <time>2017-10-15T07:51:25.000Z</time>
      </trkpt>
      <trkpt lat="42.38353" lon="2.08945">
        <ele>2248</ele>
        <time>2017-10-15T07:51:26.000Z</time>
      </trkpt>
      <trkpt lat="42.38353" lon="2.08944">
        <ele>2248</ele>
        <time>2017-10-15T07:51:27.000Z</time>
      </trkpt>
      <trkpt lat="42.38352" lon="2.08943">
        <ele>2249</ele>
        <time>2017-10-15T07:51:28.000Z</time>
      </trkpt>
      <trkpt lat="42.38352" lon="2.08942">
        <ele>2249</ele>
        <time>2017-10-15T07:51:29.000Z</time>
      </trkpt>
      <trkpt lat="42.38351" lon="2.08941">
        <ele>2249</ele>
        <time>2017-10-15T07:51:30.000Z</time>
      </trkpt>
      <trkpt lat="42.38351" lon="2.0894">
        <ele>2249</ele>
        <time>2017-10-15T07:51:31.000Z</time>
      </trkpt>
      <trkpt lat="42.38351" lon="2.08939">
        <ele>2249</ele>
        <time>2017-10-15T07:51:32.000Z</time>
      </trkpt>
      <trkpt lat="42.3835" lon="2.08938">
        <ele>2249</ele>
        <time>2017-10-15T07:51:33.000Z</time>
      </trkpt>
      <trkpt lat="42.3835" lon="2.08937">
        <ele>2249</ele>
        <time>2017-10-15T07:51:34.000Z</time>
      </trkpt>
      <trkpt lat="42.38349" lon="2.08936">
        <ele>2250</ele>
        <time>2017-10-15T07:51:35.000Z</time>
      </trkpt>
      <trkpt lat="42.38349" lon="2.08936">
        <ele>2250</ele>
        <time>2017-10-15T07:51:36.000Z</time>
      </trkpt>
      <trkpt lat="42.38349" lon="2.08935">
        <ele>2250</ele>
        <time>2017-10-15T07:51:37.000Z</time>
      </trkpt>
      <trkpt lat="42.38348" lon="2.08933">
        <ele>2250</ele>
        <time>2017-10-15T07:51:38.000Z</time>
      </trkpt>
      <trkpt lat="42.38348" lon="2.08933">
        <ele>2250</ele>
        <time>2017-10-15T07:51:39.000Z</time>
      </trkpt>
      <trkpt lat="42.38348" lon="2.08932">
        <ele>2250</ele>
        <time>2017-10-15T07:51:40.000Z</time>
      </trkpt>
      <trkpt lat="42.38348" lon="2.08931">
        <ele>2250</ele>
        <time>2017-10-15T07:51:41.000Z</time>
      </trkpt>
      <trkpt lat="42.38348" lon="2.0893">
        <ele>2250</ele>
        <time>2017-10-15T07:51:42.000Z</time>
      </trkpt>
      <trkpt lat="42.38348" lon="2.08928">
        <ele>2250</ele>
        <time>2017-10-15T07:51:43.000Z</time>
      </trkpt>
      <trkpt lat="42.38348" lon="2.08928">
        <ele>2250</ele>
        <time>2017-10-15T07:51:44.000Z</time>
      </trkpt>
      <trkpt lat="42.38348" lon="2.08927">
        <ele>2250</ele>
        <time>2017-10-15T07:51:45.000Z</time>
      </trkpt>
      <trkpt lat="42.38347" lon="2.08926">
        <ele>2250</ele>
        <time>2017-10-15T07:51:46.000Z</time>
      </trkpt>
      <trkpt lat="42.38347" lon="2.08925">
        <ele>2250</ele>
        <time>2017-10-15T07:51:47.000Z</time>
      </trkpt>
      <trkpt lat="42.38346" lon="2.08924">
        <ele>2251</ele>
        <time>2017-10-15T07:51:48.000Z</time>
      </trkpt>
      <trkpt lat="42.38346" lon="2.08923">
        <ele>2251</ele>
        <time>2017-10-15T07:51:49.000Z</time>
      </trkpt>
      <trkpt lat="42.38346" lon="2.08923">
        <ele>2251</ele>
        <time>2017-10-15T07:51:50.000Z</time>
      </trkpt>
      <trkpt lat="42.38345" lon="2.08922">
        <ele>2251</ele>
        <time>2017-10-15T07:51:51.000Z</time>
      </trkpt>
      <trkpt lat="42.38345" lon="2.08921">
        <ele>2251</ele>
        <time>2017-10-15T07:51:52.000Z</time>
      </trkpt>
      <trkpt lat="42.38345" lon="2.0892">
        <ele>2251</ele>
        <time>2017-10-15T07:51:53.000Z</time>
      </trkpt>
      <trkpt lat="42.38345" lon="2.08919">
        <ele>2251</ele>
        <time>2017-10-15T07:51:54.000Z</time>
      </trkpt>
      <trkpt lat="42.38345" lon="2.08919">
        <ele>2251</ele>
        <time>2017-10-15T07:51:55.000Z</time>
      </trkpt>
      <trkpt lat="42.38345" lon="2.08918">
        <ele>2251</ele>
        <time>2017-10-15T07:51:56.000Z</time>
      </trkpt>
      <trkpt lat="42.38344" lon="2.08917">
        <ele>2252</ele>
        <time>2017-10-15T07:51:57.000Z</time>
      </trkpt>
      <trkpt lat="42.38344" lon="2.08916">
        <ele>2252</ele>
        <time>2017-10-15T07:51:58.000Z</time>
      </trkpt>
      <trkpt lat="42.38344" lon="2.08915">
        <ele>2252</ele>
        <time>2017-10-15T07:51:59.000Z</time>
      </trkpt>
      <trkpt lat="42.38343" lon="2.08914">
        <ele>2252</ele>
        <time>2017-10-15T07:52:00.000Z</time>
      </trkpt>
      <trkpt lat="42.38343" lon="2.08913">
        <ele>2252</ele>
        <time>2017-10-15T07:52:01.000Z</time>
      </trkpt>
      <trkpt lat="42.38342" lon="2.08912">
        <ele>2252</ele>
        <time>2017-10-15T07:52:02.000Z</time>
      </trkpt>
      <trkpt lat="42.38341" lon="2.08911">
        <ele>2253</ele>
        <time>2017-10-15T07:52:03.000Z</time>
      </trkpt>
      <trkpt lat="42.38341" lon="2.0891">
        <ele>2253</ele>
        <time>2017-10-15T07:52:04.000Z</time>
      </trkpt>
      <trkpt lat="42.38341" lon="2.08909">
        <ele>2253</ele>
        <time>2017-10-15T07:52:05.000Z</time>
      </trkpt>
      <trkpt lat="42.3834" lon="2.08908">
        <ele>2253</ele>
        <time>2017-10-15T07:52:06.000Z</time>
      </trkpt>
      <trkpt lat="42.3834" lon="2.08908">
        <ele>2253</ele>
        <time>2017-10-15T07:52:07.000Z</time>
      </trkpt>
      <trkpt lat="42.38339" lon="2.08907">
        <ele>2253</ele>
        <time>2017-10-15T07:52:08.000Z</time>
      </trkpt>
      <trkpt lat="42.38339" lon="2.08906">
        <ele>2254</ele>
        <time>2017-10-15T07:52:09.000Z</time>
      </trkpt>
      <trkpt lat="42.38338" lon="2.08905">
        <ele>2254</ele>
        <time>2017-10-15T07:52:10.000Z</time>
      </trkpt>
      <trkpt lat="42.38338" lon="2.08904">
        <ele>2254</ele>
        <time>2017-10-15T07:52:11.000Z</time>
      </trkpt>
      <trkpt lat="42.38337" lon="2.08904">
        <ele>2254</ele>
        <time>2017-10-15T07:52:12.000Z</time>
      </trkpt>
      <trkpt lat="42.38337" lon="2.08903">
        <ele>2254</ele>
        <time>2017-10-15T07:52:13.000Z</time>
      </trkpt>
      <trkpt lat="42.38336" lon="2.08902">
        <ele>2254</ele>
        <time>2017-10-15T07:52:14.000Z</time>
      </trkpt>
      <trkpt lat="42.38336" lon="2.08901">
        <ele>2254</ele>
        <time>2017-10-15T07:52:15.000Z</time>
      </trkpt>
      <trkpt lat="42.38336" lon="2.089">
        <ele>2254</ele>
        <time>2017-10-15T07:52:16.000Z</time>
      </trkpt>
      <trkpt lat="42.38335" lon="2.08899">
        <ele>2254</ele>
        <time>2017-10-15T07:52:17.000Z</time>
      </trkpt>
      <trkpt lat="42.38335" lon="2.08899">
        <ele>2255</ele>
        <time>2017-10-15T07:52:18.000Z</time>
      </trkpt>
      <trkpt lat="42.38334" lon="2.08898">
        <ele>2255</ele>
        <time>2017-10-15T07:52:19.000Z</time>
      </trkpt>
      <trkpt lat="42.38334" lon="2.08897">
        <ele>2255</ele>
        <time>2017-10-15T07:52:20.000Z</time>
      </trkpt>
      <trkpt lat="42.38333" lon="2.08896">
        <ele>2255</ele>
        <time>2017-10-15T07:52:21.000Z</time>
      </trkpt>
      <trkpt lat="42.38333" lon="2.08895">
        <ele>2255</ele>
        <time>2017-10-15T07:52:22.000Z</time>
      </trkpt>
      <trkpt lat="42.38332" lon="2.08894">
        <ele>2255</ele>
        <time>2017-10-15T07:52:23.000Z</time>
      </trkpt>
      <trkpt lat="42.38332" lon="2.08894">
        <ele>2255</ele>
        <time>2017-10-15T07:52:24.000Z</time>
      </trkpt>
      <trkpt lat="42.38332" lon="2.08893">
        <ele>2256</ele>
        <time>2017-10-15T07:52:25.000Z</time>
      </trkpt>
      <trkpt lat="42.38331" lon="2.08892">
        <ele>2256</ele>
        <time>2017-10-15T07:52:26.000Z</time>
      </trkpt>
      <trkpt lat="42.38331" lon="2.08891">
        <ele>2256</ele>
        <time>2017-10-15T07:52:27.000Z</time>
      </trkpt>
      <trkpt lat="42.38331" lon="2.08889">
        <ele>2256</ele>
        <time>2017-10-15T07:52:28.000Z</time>
      </trkpt>
      <trkpt lat="42.3833" lon="2.08888">
        <ele>2256</ele>
        <time>2017-10-15T07:52:30.000Z</time>
      </trkpt>
      <trkpt lat="42.3833" lon="2.08887">
        <ele>2256</ele>
        <time>2017-10-15T07:52:31.000Z</time>
      </trkpt>
      <trkpt lat="42.3833" lon="2.08886">
        <ele>2256</ele>
        <time>2017-10-15T07:52:32.000Z</time>
      </trkpt>
      <trkpt lat="42.38329" lon="2.08885">
        <ele>2257</ele>
        <time>2017-10-15T07:52:33.000Z</time>
      </trkpt>
      <trkpt lat="42.38328" lon="2.08884">
        <ele>2257</ele>
        <time>2017-10-15T07:52:34.000Z</time>
      </trkpt>
      <trkpt lat="42.38328" lon="2.08883">
        <ele>2257</ele>
        <time>2017-10-15T07:52:35.000Z</time>
      </trkpt>
      <trkpt lat="42.38327" lon="2.08883">
        <ele>2257</ele>
        <time>2017-10-15T07:52:36.000Z</time>
      </trkpt>
      <trkpt lat="42.38327" lon="2.08882">
        <ele>2257</ele>
        <time>2017-10-15T07:52:37.000Z</time>
      </trkpt>
      <trkpt lat="42.38326" lon="2.08881">
        <ele>2258</ele>
        <time>2017-10-15T07:52:38.000Z</time>
      </trkpt>
      <trkpt lat="42.38326" lon="2.08881">
        <ele>2258</ele>
        <time>2017-10-15T07:52:39.000Z</time>
      </trkpt>
      <trkpt lat="42.38325" lon="2.0888">
        <ele>2258</ele>
        <time>2017-10-15T07:52:40.000Z</time>
      </trkpt>
      <trkpt lat="42.38325" lon="2.0888">
        <ele>2258</ele>
        <time>2017-10-15T07:52:41.000Z</time>
      </trkpt>
      <trkpt lat="42.38324" lon="2.08879">
        <ele>2258</ele>
        <time>2017-10-15T07:52:42.000Z</time>
      </trkpt>
      <trkpt lat="42.38324" lon="2.08878">
        <ele>2258</ele>
        <time>2017-10-15T07:52:43.000Z</time>
      </trkpt>
      <trkpt lat="42.38323" lon="2.08877">
        <ele>2258</ele>
        <time>2017-10-15T07:52:44.000Z</time>
      </trkpt>
      <trkpt lat="42.38323" lon="2.08877">
        <ele>2259</ele>
        <time>2017-10-15T07:52:45.000Z</time>
      </trkpt>
      <trkpt lat="42.38322" lon="2.08876">
        <ele>2259</ele>
        <time>2017-10-15T07:52:46.000Z</time>
      </trkpt>
      <trkpt lat="42.38321" lon="2.08876">
        <ele>2259</ele>
        <time>2017-10-15T07:52:47.000Z</time>
      </trkpt>
      <trkpt lat="42.38321" lon="2.08875">
        <ele>2259</ele>
        <time>2017-10-15T07:52:48.000Z</time>
      </trkpt>
      <trkpt lat="42.3832" lon="2.08875">
        <ele>2259</ele>
        <time>2017-10-15T07:52:49.000Z</time>
      </trkpt>
      <trkpt lat="42.3832" lon="2.08874">
        <ele>2260</ele>
        <time>2017-10-15T07:52:50.000Z</time>
      </trkpt>
      <trkpt lat="42.38319" lon="2.08874">
        <ele>2260</ele>
        <time>2017-10-15T07:52:51.000Z</time>
      </trkpt>
      <trkpt lat="42.38318" lon="2.08874">
        <ele>2260</ele>
        <time>2017-10-15T07:52:52.000Z</time>
      </trkpt>
      <trkpt lat="42.38318" lon="2.08874">
        <ele>2260</ele>
        <time>2017-10-15T07:52:53.000Z</time>
      </trkpt>
      <trkpt lat="42.38317" lon="2.08873">
        <ele>2260</ele>
        <time>2017-10-15T07:52:54.000Z</time>
      </trkpt>
      <trkpt lat="42.38317" lon="2.08873">
        <ele>2260</ele>
        <time>2017-10-15T07:52:55.000Z</time>
      </trkpt>
      <trkpt lat="42.38316" lon="2.08873">
        <ele>2261</ele>
        <time>2017-10-15T07:52:56.000Z</time>
      </trkpt>
      <trkpt lat="42.38316" lon="2.08873">
        <ele>2261</ele>
        <time>2017-10-15T07:52:57.000Z</time>
      </trkpt>
      <trkpt lat="42.38315" lon="2.08873">
        <ele>2261</ele>
        <time>2017-10-15T07:52:58.000Z</time>
      </trkpt>
      <trkpt lat="42.38315" lon="2.08873">
        <ele>2261</ele>
        <time>2017-10-15T07:52:59.000Z</time>
      </trkpt>
      <trkpt lat="42.38314" lon="2.08872">
        <ele>2261</ele>
        <time>2017-10-15T07:53:00.000Z</time>
      </trkpt>
      <trkpt lat="42.38314" lon="2.08872">
        <ele>2261</ele>
        <time>2017-10-15T07:53:01.000Z</time>
      </trkpt>
      <trkpt lat="42.38313" lon="2.08872">
        <ele>2261</ele>
        <time>2017-10-15T07:53:02.000Z</time>
      </trkpt>
      <trkpt lat="42.38312" lon="2.08872">
        <ele>2262</ele>
        <time>2017-10-15T07:53:03.000Z</time>
      </trkpt>
      <trkpt lat="42.38312" lon="2.08872">
        <ele>2262</ele>
        <time>2017-10-15T07:53:04.000Z</time>
      </trkpt>
      <trkpt lat="42.38312" lon="2.08871">
        <ele>2262</ele>
        <time>2017-10-15T07:53:05.000Z</time>
      </trkpt>
      <trkpt lat="42.38311" lon="2.08871">
        <ele>2262</ele>
        <time>2017-10-15T07:53:06.000Z</time>
      </trkpt>
      <trkpt lat="42.38311" lon="2.08871">
        <ele>2262</ele>
        <time>2017-10-15T07:53:07.000Z</time>
      </trkpt>
      <trkpt lat="42.38309" lon="2.0887">
        <ele>2263</ele>
        <time>2017-10-15T07:53:08.000Z</time>
      </trkpt>
      <trkpt lat="42.38308" lon="2.0887">
        <ele>2263</ele>
        <time>2017-10-15T07:53:10.000Z</time>
      </trkpt>
      <trkpt lat="42.38307" lon="2.08869">
        <ele>2263</ele>
        <time>2017-10-15T07:53:11.000Z</time>
      </trkpt>
      <trkpt lat="42.38307" lon="2.08869">
        <ele>2263</ele>
        <time>2017-10-15T07:53:12.000Z</time>
      </trkpt>
      <trkpt lat="42.38307" lon="2.08869">
        <ele>2263</ele>
        <time>2017-10-15T07:53:13.000Z</time>
      </trkpt>
      <trkpt lat="42.38306" lon="2.08869">
        <ele>2264</ele>
        <time>2017-10-15T07:53:14.000Z</time>
      </trkpt>
      <trkpt lat="42.38305" lon="2.08869">
        <ele>2264</ele>
        <time>2017-10-15T07:53:15.000Z</time>
      </trkpt>
      <trkpt lat="42.38304" lon="2.08869">
        <ele>2264</ele>
        <time>2017-10-15T07:53:16.000Z</time>
      </trkpt>
      <trkpt lat="42.38304" lon="2.08869">
        <ele>2264</ele>
        <time>2017-10-15T07:53:17.000Z</time>
      </trkpt>
      <trkpt lat="42.38303" lon="2.08869">
        <ele>2264</ele>
        <time>2017-10-15T07:53:18.000Z</time>
      </trkpt>
      <trkpt lat="42.38303" lon="2.08869">
        <ele>2264</ele>
        <time>2017-10-15T07:53:19.000Z</time>
      </trkpt>
      <trkpt lat="42.38302" lon="2.08869">
        <ele>2265</ele>
        <time>2017-10-15T07:53:20.000Z</time>
      </trkpt>
      <trkpt lat="42.38302" lon="2.08869">
        <ele>2265</ele>
        <time>2017-10-15T07:53:21.000Z</time>
      </trkpt>
      <trkpt lat="42.38301" lon="2.08869">
        <ele>2265</ele>
        <time>2017-10-15T07:53:22.000Z</time>
      </trkpt>
      <trkpt lat="42.383" lon="2.08869">
        <ele>2265</ele>
        <time>2017-10-15T07:53:23.000Z</time>
      </trkpt>
      <trkpt lat="42.38299" lon="2.08869">
        <ele>2265</ele>
        <time>2017-10-15T07:53:24.000Z</time>
      </trkpt>
      <trkpt lat="42.38299" lon="2.08869">
        <ele>2265</ele>
        <time>2017-10-15T07:53:25.000Z</time>
      </trkpt>
      <trkpt lat="42.38298" lon="2.0887">
        <ele>2266</ele>
        <time>2017-10-15T07:53:26.000Z</time>
      </trkpt>
      <trkpt lat="42.38298" lon="2.0887">
        <ele>2266</ele>
        <time>2017-10-15T07:53:27.000Z</time>
      </trkpt>
      <trkpt lat="42.38297" lon="2.0887">
        <ele>2266</ele>
        <time>2017-10-15T07:53:28.000Z</time>
      </trkpt>
      <trkpt lat="42.38297" lon="2.0887">
        <ele>2266</ele>
        <time>2017-10-15T07:53:29.000Z</time>
      </trkpt>
      <trkpt lat="42.38296" lon="2.0887">
        <ele>2266</ele>
        <time>2017-10-15T07:53:30.000Z</time>
      </trkpt>
      <trkpt lat="42.38296" lon="2.0887">
        <ele>2266</ele>
        <time>2017-10-15T07:53:31.000Z</time>
      </trkpt>
      <trkpt lat="42.38295" lon="2.08871">
        <ele>2267</ele>
        <time>2017-10-15T07:53:32.000Z</time>
      </trkpt>
      <trkpt lat="42.38294" lon="2.08871">
        <ele>2267</ele>
        <time>2017-10-15T07:53:33.000Z</time>
      </trkpt>
      <trkpt lat="42.38293" lon="2.08871">
        <ele>2267</ele>
        <time>2017-10-15T07:53:34.000Z</time>
      </trkpt>
      <trkpt lat="42.38293" lon="2.08871">
        <ele>2267</ele>
        <time>2017-10-15T07:53:35.000Z</time>
      </trkpt>
      <trkpt lat="42.38292" lon="2.08871">
        <ele>2267</ele>
        <time>2017-10-15T07:53:36.000Z</time>
      </trkpt>
      <trkpt lat="42.38291" lon="2.08871">
        <ele>2267</ele>
        <time>2017-10-15T07:53:37.000Z</time>
      </trkpt>
      <trkpt lat="42.38291" lon="2.08871">
        <ele>2267</ele>
        <time>2017-10-15T07:53:38.000Z</time>
      </trkpt>
      <trkpt lat="42.38289" lon="2.08871">
        <ele>2268</ele>
        <time>2017-10-15T07:53:39.000Z</time>
      </trkpt>
      <trkpt lat="42.38288" lon="2.08872">
        <ele>2268</ele>
        <time>2017-10-15T07:53:41.000Z</time>
      </trkpt>
      <trkpt lat="42.38288" lon="2.08872">
        <ele>2268</ele>
        <time>2017-10-15T07:53:42.000Z</time>
      </trkpt>
      <trkpt lat="42.38287" lon="2.08872">
        <ele>2268</ele>
        <time>2017-10-15T07:53:43.000Z</time>
      </trkpt>
      <trkpt lat="42.38287" lon="2.08872">
        <ele>2268</ele>
        <time>2017-10-15T07:53:44.000Z</time>
      </trkpt>
      <trkpt lat="42.38286" lon="2.08873">
        <ele>2268</ele>
        <time>2017-10-15T07:53:45.000Z</time>
      </trkpt>
      <trkpt lat="42.38285" lon="2.08874">
        <ele>2268</ele>
        <time>2017-10-15T07:53:46.000Z</time>
      </trkpt>
      <trkpt lat="42.38285" lon="2.08875">
        <ele>2268</ele>
        <time>2017-10-15T07:53:47.000Z</time>
      </trkpt>
      <trkpt lat="42.38284" lon="2.08875">
        <ele>2268</ele>
        <time>2017-10-15T07:53:48.000Z</time>
      </trkpt>
      <trkpt lat="42.38283" lon="2.08876">
        <ele>2268</ele>
        <time>2017-10-15T07:53:49.000Z</time>
      </trkpt>
      <trkpt lat="42.38283" lon="2.08876">
        <ele>2268</ele>
        <time>2017-10-15T07:53:50.000Z</time>
      </trkpt>
      <trkpt lat="42.38282" lon="2.08877">
        <ele>2269</ele>
        <time>2017-10-15T07:53:51.000Z</time>
      </trkpt>
      <trkpt lat="42.38281" lon="2.08877">
        <ele>2269</ele>
        <time>2017-10-15T07:53:52.000Z</time>
      </trkpt>
      <trkpt lat="42.3828" lon="2.08877">
        <ele>2269</ele>
        <time>2017-10-15T07:53:53.000Z</time>
      </trkpt>
      <trkpt lat="42.3828" lon="2.08877">
        <ele>2269</ele>
        <time>2017-10-15T07:53:54.000Z</time>
      </trkpt>
      <trkpt lat="42.3828" lon="2.08878">
        <ele>2269</ele>
        <time>2017-10-15T07:53:55.000Z</time>
      </trkpt>
      <trkpt lat="42.38279" lon="2.08878">
        <ele>2269</ele>
        <time>2017-10-15T07:53:56.000Z</time>
      </trkpt>
      <trkpt lat="42.38278" lon="2.08879">
        <ele>2269</ele>
        <time>2017-10-15T07:53:57.000Z</time>
      </trkpt>
      <trkpt lat="42.38278" lon="2.08879">
        <ele>2269</ele>
        <time>2017-10-15T07:53:58.000Z</time>
      </trkpt>
      <trkpt lat="42.38277" lon="2.0888">
        <ele>2269</ele>
        <time>2017-10-15T07:53:59.000Z</time>
      </trkpt>
      <trkpt lat="42.38276" lon="2.08881">
        <ele>2269</ele>
        <time>2017-10-15T07:54:00.000Z</time>
      </trkpt>
      <trkpt lat="42.38276" lon="2.08881">
        <ele>2269</ele>
        <time>2017-10-15T07:54:01.000Z</time>
      </trkpt>
      <trkpt lat="42.38275" lon="2.08881">
        <ele>2269</ele>
        <time>2017-10-15T07:54:02.000Z</time>
      </trkpt>
      <trkpt lat="42.38274" lon="2.08882">
        <ele>2269</ele>
        <time>2017-10-15T07:54:03.000Z</time>
      </trkpt>
      <trkpt lat="42.38274" lon="2.08882">
        <ele>2269</ele>
        <time>2017-10-15T07:54:04.000Z</time>
      </trkpt>
      <trkpt lat="42.38273" lon="2.08882">
        <ele>2270</ele>
        <time>2017-10-15T07:54:05.000Z</time>
      </trkpt>
      <trkpt lat="42.38273" lon="2.08882">
        <ele>2270</ele>
        <time>2017-10-15T07:54:06.000Z</time>
      </trkpt>
      <trkpt lat="42.38272" lon="2.08883">
        <ele>2270</ele>
        <time>2017-10-15T07:54:07.000Z</time>
      </trkpt>
      <trkpt lat="42.38271" lon="2.08883">
        <ele>2270</ele>
        <time>2017-10-15T07:54:08.000Z</time>
      </trkpt>
      <trkpt lat="42.38271" lon="2.08883">
        <ele>2270</ele>
        <time>2017-10-15T07:54:09.000Z</time>
      </trkpt>
      <trkpt lat="42.3827" lon="2.08883">
        <ele>2270</ele>
        <time>2017-10-15T07:54:10.000Z</time>
      </trkpt>
      <trkpt lat="42.38269" lon="2.08883">
        <ele>2270</ele>
        <time>2017-10-15T07:54:11.000Z</time>
      </trkpt>
      <trkpt lat="42.38269" lon="2.08883">
        <ele>2270</ele>
        <time>2017-10-15T07:54:12.000Z</time>
      </trkpt>
      <trkpt lat="42.38268" lon="2.08883">
        <ele>2270</ele>
        <time>2017-10-15T07:54:13.000Z</time>
      </trkpt>
      <trkpt lat="42.38267" lon="2.08883">
        <ele>2271</ele>
        <time>2017-10-15T07:54:14.000Z</time>
      </trkpt>
      <trkpt lat="42.38267" lon="2.08883">
        <ele>2271</ele>
        <time>2017-10-15T07:54:15.000Z</time>
      </trkpt>
      <trkpt lat="42.38266" lon="2.08884">
        <ele>2271</ele>
        <time>2017-10-15T07:54:16.000Z</time>
      </trkpt>
      <trkpt lat="42.38266" lon="2.08884">
        <ele>2271</ele>
        <time>2017-10-15T07:54:17.000Z</time>
      </trkpt>
      <trkpt lat="42.38265" lon="2.08884">
        <ele>2271</ele>
        <time>2017-10-15T07:54:18.000Z</time>
      </trkpt>
      <trkpt lat="42.38264" lon="2.08885">
        <ele>2271</ele>
        <time>2017-10-15T07:54:19.000Z</time>
      </trkpt>
      <trkpt lat="42.38264" lon="2.08885">
        <ele>2271</ele>
        <time>2017-10-15T07:54:20.000Z</time>
      </trkpt>
      <trkpt lat="42.38263" lon="2.08885">
        <ele>2271</ele>
        <time>2017-10-15T07:54:21.000Z</time>
      </trkpt>
      <trkpt lat="42.38263" lon="2.08886">
        <ele>2271</ele>
        <time>2017-10-15T07:54:22.000Z</time>
      </trkpt>
      <trkpt lat="42.38261" lon="2.08887">
        <ele>2271</ele>
        <time>2017-10-15T07:54:23.000Z</time>
      </trkpt>
      <trkpt lat="42.38261" lon="2.08887">
        <ele>2271</ele>
        <time>2017-10-15T07:54:25.000Z</time>
      </trkpt>
      <trkpt lat="42.3826" lon="2.08888">
        <ele>2271</ele>
        <time>2017-10-15T07:54:26.000Z</time>
      </trkpt>
      <trkpt lat="42.38259" lon="2.08888">
        <ele>2271</ele>
        <time>2017-10-15T07:54:27.000Z</time>
      </trkpt>
      <trkpt lat="42.38258" lon="2.08889">
        <ele>2272</ele>
        <time>2017-10-15T07:54:28.000Z</time>
      </trkpt>
      <trkpt lat="42.38258" lon="2.08889">
        <ele>2272</ele>
        <time>2017-10-15T07:54:29.000Z</time>
      </trkpt>
      <trkpt lat="42.38257" lon="2.08889">
        <ele>2272</ele>
        <time>2017-10-15T07:54:30.000Z</time>
      </trkpt>
      <trkpt lat="42.38256" lon="2.08889">
        <ele>2272</ele>
        <time>2017-10-15T07:54:31.000Z</time>
      </trkpt>
      <trkpt lat="42.38256" lon="2.0889">
        <ele>2272</ele>
        <time>2017-10-15T07:54:32.000Z</time>
      </trkpt>
      <trkpt lat="42.38255" lon="2.0889">
        <ele>2272</ele>
        <time>2017-10-15T07:54:33.000Z</time>
      </trkpt>
      <trkpt lat="42.38254" lon="2.08891">
        <ele>2272</ele>
        <time>2017-10-15T07:54:34.000Z</time>
      </trkpt>
      <trkpt lat="42.38254" lon="2.08891">
        <ele>2272</ele>
        <time>2017-10-15T07:54:35.000Z</time>
      </trkpt>
      <trkpt lat="42.38253" lon="2.08891">
        <ele>2272</ele>
        <time>2017-10-15T07:54:36.000Z</time>
      </trkpt>
      <trkpt lat="42.38252" lon="2.08891">
        <ele>2272</ele>
        <time>2017-10-15T07:54:37.000Z</time>
      </trkpt>
      <trkpt lat="42.38252" lon="2.08892">
        <ele>2272</ele>
        <time>2017-10-15T07:54:38.000Z</time>
      </trkpt>
      <trkpt lat="42.38251" lon="2.08892">
        <ele>2273</ele>
        <time>2017-10-15T07:54:39.000Z</time>
      </trkpt>
      <trkpt lat="42.3825" lon="2.08892">
        <ele>2273</ele>
        <time>2017-10-15T07:54:40.000Z</time>
      </trkpt>
      <trkpt lat="42.3825" lon="2.08892">
        <ele>2273</ele>
        <time>2017-10-15T07:54:41.000Z</time>
      </trkpt>
      <trkpt lat="42.38249" lon="2.08892">
        <ele>2273</ele>
        <time>2017-10-15T07:54:42.000Z</time>
      </trkpt>
      <trkpt lat="42.38249" lon="2.08892">
        <ele>2273</ele>
        <time>2017-10-15T07:54:43.000Z</time>
      </trkpt>
      <trkpt lat="42.38249" lon="2.08892">
        <ele>2273</ele>
        <time>2017-10-15T07:54:44.000Z</time>
      </trkpt>
      <trkpt lat="42.38248" lon="2.08893">
        <ele>2273</ele>
        <time>2017-10-15T07:54:45.000Z</time>
      </trkpt>
      <trkpt lat="42.38248" lon="2.08893">
        <ele>2273</ele>
        <time>2017-10-15T07:54:46.000Z</time>
      </trkpt>
      <trkpt lat="42.38247" lon="2.08893">
        <ele>2273</ele>
        <time>2017-10-15T07:54:47.000Z</time>
      </trkpt>
      <trkpt lat="42.38247" lon="2.08893">
        <ele>2273</ele>
        <time>2017-10-15T07:54:48.000Z</time>
      </trkpt>
      <trkpt lat="42.38246" lon="2.08894">
        <ele>2274</ele>
        <time>2017-10-15T07:54:49.000Z</time>
      </trkpt>
      <trkpt lat="42.38245" lon="2.08894">
        <ele>2274</ele>
        <time>2017-10-15T07:54:51.000Z</time>
      </trkpt>
      <trkpt lat="42.38245" lon="2.08894">
        <ele>2274</ele>
        <time>2017-10-15T07:54:52.000Z</time>
      </trkpt>
      <trkpt lat="42.38244" lon="2.08895">
        <ele>2274</ele>
        <time>2017-10-15T07:54:53.000Z</time>
      </trkpt>
      <trkpt lat="42.38243" lon="2.08895">
        <ele>2274</ele>
        <time>2017-10-15T07:54:54.000Z</time>
      </trkpt>
      <trkpt lat="42.38243" lon="2.08896">
        <ele>2274</ele>
        <time>2017-10-15T07:54:55.000Z</time>
      </trkpt>
      <trkpt lat="42.38242" lon="2.08896">
        <ele>2274</ele>
        <time>2017-10-15T07:54:56.000Z</time>
      </trkpt>
      <trkpt lat="42.38242" lon="2.08896">
        <ele>2274</ele>
        <time>2017-10-15T07:54:57.000Z</time>
      </trkpt>
      <trkpt lat="42.38241" lon="2.08897">
        <ele>2274</ele>
        <time>2017-10-15T07:54:58.000Z</time>
      </trkpt>
      <trkpt lat="42.38241" lon="2.08897">
        <ele>2275</ele>
        <time>2017-10-15T07:54:59.000Z</time>
      </trkpt>
      <trkpt lat="42.3824" lon="2.08898">
        <ele>2275</ele>
        <time>2017-10-15T07:55:00.000Z</time>
      </trkpt>
      <trkpt lat="42.38239" lon="2.08898">
        <ele>2275</ele>
        <time>2017-10-15T07:55:01.000Z</time>
      </trkpt>
      <trkpt lat="42.38239" lon="2.08898">
        <ele>2275</ele>
        <time>2017-10-15T07:55:02.000Z</time>
      </trkpt>
      <trkpt lat="42.38238" lon="2.08898">
        <ele>2275</ele>
        <time>2017-10-15T07:55:03.000Z</time>
      </trkpt>
      <trkpt lat="42.38238" lon="2.08899">
        <ele>2275</ele>
        <time>2017-10-15T07:55:04.000Z</time>
      </trkpt>
      <trkpt lat="42.38237" lon="2.08899">
        <ele>2275</ele>
        <time>2017-10-15T07:55:05.000Z</time>
      </trkpt>
      <trkpt lat="42.38237" lon="2.089">
        <ele>2275</ele>
        <time>2017-10-15T07:55:06.000Z</time>
      </trkpt>
      <trkpt lat="42.38236" lon="2.089">
        <ele>2275</ele>
        <time>2017-10-15T07:55:07.000Z</time>
      </trkpt>
      <trkpt lat="42.38235" lon="2.08901">
        <ele>2275</ele>
        <time>2017-10-15T07:55:08.000Z</time>
      </trkpt>
      <trkpt lat="42.38235" lon="2.08901">
        <ele>2275</ele>
        <time>2017-10-15T07:55:09.000Z</time>
      </trkpt>
      <trkpt lat="42.38234" lon="2.08902">
        <ele>2276</ele>
        <time>2017-10-15T07:55:10.000Z</time>
      </trkpt>
      <trkpt lat="42.38233" lon="2.08903">
        <ele>2276</ele>
        <time>2017-10-15T07:55:12.000Z</time>
      </trkpt>
      <trkpt lat="42.38233" lon="2.08903">
        <ele>2276</ele>
        <time>2017-10-15T07:55:13.000Z</time>
      </trkpt>
      <trkpt lat="42.38232" lon="2.08904">
        <ele>2276</ele>
        <time>2017-10-15T07:55:14.000Z</time>
      </trkpt>
      <trkpt lat="42.38231" lon="2.08904">
        <ele>2276</ele>
        <time>2017-10-15T07:55:16.000Z</time>
      </trkpt>
      <trkpt lat="42.38231" lon="2.08905">
        <ele>2276</ele>
        <time>2017-10-15T07:55:17.000Z</time>
      </trkpt>
      <trkpt lat="42.3823" lon="2.08905">
        <ele>2276</ele>
        <time>2017-10-15T07:55:18.000Z</time>
      </trkpt>
      <trkpt lat="42.3823" lon="2.08905">
        <ele>2276</ele>
        <time>2017-10-15T07:55:19.000Z</time>
      </trkpt>
      <trkpt lat="42.38229" lon="2.08906">
        <ele>2276</ele>
        <time>2017-10-15T07:55:20.000Z</time>
      </trkpt>
      <trkpt lat="42.38229" lon="2.08906">
        <ele>2276</ele>
        <time>2017-10-15T07:55:21.000Z</time>
      </trkpt>
      <trkpt lat="42.38229" lon="2.08906">
        <ele>2276</ele>
        <time>2017-10-15T07:55:22.000Z</time>
      </trkpt>
      <trkpt lat="42.38228" lon="2.08907">
        <ele>2276</ele>
        <time>2017-10-15T07:55:23.000Z</time>
      </trkpt>
      <trkpt lat="42.38228" lon="2.08907">
        <ele>2276</ele>
        <time>2017-10-15T07:55:24.000Z</time>
      </trkpt>
      <trkpt lat="42.38227" lon="2.08907">
        <ele>2276</ele>
        <time>2017-10-15T07:55:25.000Z</time>
      </trkpt>
      <trkpt lat="42.38227" lon="2.08908">
        <ele>2276</ele>
        <time>2017-10-15T07:55:26.000Z</time>
      </trkpt>
      <trkpt lat="42.38227" lon="2.08908">
        <ele>2276</ele>
        <time>2017-10-15T07:55:27.000Z</time>
      </trkpt>
      <trkpt lat="42.38226" lon="2.08908">
        <ele>2276</ele>
        <time>2017-10-15T07:55:28.000Z</time>
      </trkpt>
      <trkpt lat="42.38226" lon="2.08909">
        <ele>2277</ele>
        <time>2017-10-15T07:55:29.000Z</time>
      </trkpt>
      <trkpt lat="42.38226" lon="2.08909">
        <ele>2277</ele>
        <time>2017-10-15T07:55:30.000Z</time>
      </trkpt>
      <trkpt lat="42.38225" lon="2.08909">
        <ele>2277</ele>
        <time>2017-10-15T07:55:31.000Z</time>
      </trkpt>
      <trkpt lat="42.38225" lon="2.08909">
        <ele>2277</ele>
        <time>2017-10-15T07:55:32.000Z</time>
      </trkpt>
      <trkpt lat="42.38224" lon="2.0891">
        <ele>2277</ele>
        <time>2017-10-15T07:55:33.000Z</time>
      </trkpt>
      <trkpt lat="42.38224" lon="2.0891">
        <ele>2277</ele>
        <time>2017-10-15T07:55:34.000Z</time>
      </trkpt>
      <trkpt lat="42.38223" lon="2.0891">
        <ele>2277</ele>
        <time>2017-10-15T07:55:35.000Z</time>
      </trkpt>
      <trkpt lat="42.38223" lon="2.0891">
        <ele>2277</ele>
        <time>2017-10-15T07:55:36.000Z</time>
      </trkpt>
      <trkpt lat="42.3819" lon="2.08884">
        <ele>2289</ele>
        <time>2017-10-15T07:57:08.000Z</time>
      </trkpt>
      <trkpt lat="42.3819" lon="2.08883">
        <ele>2289</ele>
        <time>2017-10-15T07:57:10.000Z</time>
      </trkpt>
      <trkpt lat="42.3819" lon="2.08882">
        <ele>2289</ele>
        <time>2017-10-15T07:57:11.000Z</time>
      </trkpt>
      <trkpt lat="42.38189" lon="2.08881">
        <ele>2289</ele>
        <time>2017-10-15T07:57:12.000Z</time>
      </trkpt>
      <trkpt lat="42.38189" lon="2.0888">
        <ele>2289</ele>
        <time>2017-10-15T07:57:13.000Z</time>
      </trkpt>
      <trkpt lat="42.38189" lon="2.08878">
        <ele>2290</ele>
        <time>2017-10-15T07:57:15.000Z</time>
      </trkpt>
      <trkpt lat="42.38189" lon="2.08877">
        <ele>2290</ele>
        <time>2017-10-15T07:57:17.000Z</time>
      </trkpt>
      <trkpt lat="42.38189" lon="2.08877">
        <ele>2290</ele>
        <time>2017-10-15T07:57:18.000Z</time>
      </trkpt>
      <trkpt lat="42.38189" lon="2.08876">
        <ele>2290</ele>
        <time>2017-10-15T07:57:19.000Z</time>
      </trkpt>
      <trkpt lat="42.38188" lon="2.08875">
        <ele>2290</ele>
        <time>2017-10-15T07:57:20.000Z</time>
      </trkpt>
      <trkpt lat="42.38188" lon="2.08875">
        <ele>2290</ele>
        <time>2017-10-15T07:57:21.000Z</time>
      </trkpt>
      <trkpt lat="42.38188" lon="2.08874">
        <ele>2291</ele>
        <time>2017-10-15T07:57:22.000Z</time>
      </trkpt>
      <trkpt lat="42.38188" lon="2.08873">
        <ele>2291</ele>
        <time>2017-10-15T07:57:24.000Z</time>
      </trkpt>
      <trkpt lat="42.38188" lon="2.08873">
        <ele>2291</ele>
        <time>2017-10-15T07:57:25.000Z</time>
      </trkpt>
      <trkpt lat="42.38187" lon="2.08873">
        <ele>2291</ele>
        <time>2017-10-15T07:57:26.000Z</time>
      </trkpt>
      <trkpt lat="42.38187" lon="2.08872">
        <ele>2291</ele>
        <time>2017-10-15T07:57:28.000Z</time>
      </trkpt>
      <trkpt lat="42.38187" lon="2.08872">
        <ele>2291</ele>
        <time>2017-10-15T07:57:29.000Z</time>
      </trkpt>
      <trkpt lat="42.38186" lon="2.08871">
        <ele>2292</ele>
        <time>2017-10-15T07:57:30.000Z</time>
      </trkpt>
      <trkpt lat="42.38185" lon="2.08871">
        <ele>2292</ele>
        <time>2017-10-15T07:57:32.000Z</time>
      </trkpt>
      <trkpt lat="42.38185" lon="2.0887">
        <ele>2292</ele>
        <time>2017-10-15T07:57:33.000Z</time>
      </trkpt>
      <trkpt lat="42.38185" lon="2.0887">
        <ele>2292</ele>
        <time>2017-10-15T07:57:34.000Z</time>
      </trkpt>
      <trkpt lat="42.38185" lon="2.08869">
        <ele>2292</ele>
        <time>2017-10-15T07:57:35.000Z</time>
      </trkpt>
      <trkpt lat="42.38184" lon="2.08868">
        <ele>2292</ele>
        <time>2017-10-15T07:57:36.000Z</time>
      </trkpt>
      <trkpt lat="42.38184" lon="2.08868">
        <ele>2293</ele>
        <time>2017-10-15T07:57:38.000Z</time>
      </trkpt>
      <trkpt lat="42.38183" lon="2.08867">
        <ele>2293</ele>
        <time>2017-10-15T07:57:39.000Z</time>
      </trkpt>
      <trkpt lat="42.38183" lon="2.08866">
        <ele>2293</ele>
        <time>2017-10-15T07:57:41.000Z</time>
      </trkpt>
      <trkpt lat="42.38183" lon="2.08865">
        <ele>2293</ele>
        <time>2017-10-15T07:57:42.000Z</time>
      </trkpt>
      <trkpt lat="42.38183" lon="2.08864">
        <ele>2293</ele>
        <time>2017-10-15T07:57:43.000Z</time>
      </trkpt>
      <trkpt lat="42.38183" lon="2.08863">
        <ele>2293</ele>
        <time>2017-10-15T07:57:45.000Z</time>
      </trkpt>
      <trkpt lat="42.38183" lon="2.08863">
        <ele>2293</ele>
        <time>2017-10-15T07:57:46.000Z</time>
      </trkpt>
      <trkpt lat="42.38183" lon="2.08862">
        <ele>2294</ele>
        <time>2017-10-15T07:57:47.000Z</time>
      </trkpt>
      <trkpt lat="42.38183" lon="2.08861">
        <ele>2294</ele>
        <time>2017-10-15T07:57:48.000Z</time>
      </trkpt>
      <trkpt lat="42.38183" lon="2.0886">
        <ele>2294</ele>
        <time>2017-10-15T07:57:49.000Z</time>
      </trkpt>
      <trkpt lat="42.38183" lon="2.08859">
        <ele>2294</ele>
        <time>2017-10-15T07:57:50.000Z</time>
      </trkpt>
      <trkpt lat="42.38175" lon="2.08833">
        <ele>2300</ele>
        <time>2017-10-15T07:59:12.000Z</time>
      </trkpt>
      <trkpt lat="42.38174" lon="2.08832">
        <ele>2300</ele>
        <time>2017-10-15T07:59:13.000Z</time>
      </trkpt>
      <trkpt lat="42.38174" lon="2.08831">
        <ele>2300</ele>
        <time>2017-10-15T07:59:14.000Z</time>
      </trkpt>
      <trkpt lat="42.38173" lon="2.0883">
        <ele>2300</ele>
        <time>2017-10-15T07:59:15.000Z</time>
      </trkpt>
      <trkpt lat="42.38173" lon="2.08829">
        <ele>2301</ele>
        <time>2017-10-15T07:59:16.000Z</time>
      </trkpt>
      <trkpt lat="42.38172" lon="2.08828">
        <ele>2301</ele>
        <time>2017-10-15T07:59:17.000Z</time>
      </trkpt>
      <trkpt lat="42.38172" lon="2.08827">
        <ele>2301</ele>
        <time>2017-10-15T07:59:18.000Z</time>
      </trkpt>
      <trkpt lat="42.38172" lon="2.08826">
        <ele>2301</ele>
        <time>2017-10-15T07:59:19.000Z</time>
      </trkpt>
      <trkpt lat="42.38172" lon="2.08825">
        <ele>2301</ele>
        <time>2017-10-15T07:59:20.000Z</time>
      </trkpt>
      <trkpt lat="42.38172" lon="2.08823">
        <ele>2302</ele>
        <time>2017-10-15T07:59:21.000Z</time>
      </trkpt>
      <trkpt lat="42.38171" lon="2.08822">
        <ele>2302</ele>
        <time>2017-10-15T07:59:22.000Z</time>
      </trkpt>
      <trkpt lat="42.38171" lon="2.08821">
        <ele>2302</ele>
        <time>2017-10-15T07:59:23.000Z</time>
      </trkpt>
      <trkpt lat="42.38171" lon="2.08819">
        <ele>2302</ele>
        <time>2017-10-15T07:59:24.000Z</time>
      </trkpt>
      <trkpt lat="42.38171" lon="2.08818">
        <ele>2302</ele>
        <time>2017-10-15T07:59:25.000Z</time>
      </trkpt>
      <trkpt lat="42.38171" lon="2.08817">
        <ele>2302</ele>
        <time>2017-10-15T07:59:26.000Z</time>
      </trkpt>
      <trkpt lat="42.3817" lon="2.08816">
        <ele>2303</ele>
        <time>2017-10-15T07:59:27.000Z</time>
      </trkpt>
      <trkpt lat="42.3817" lon="2.08815">
        <ele>2303</ele>
        <time>2017-10-15T07:59:28.000Z</time>
      </trkpt>
      <trkpt lat="42.3817" lon="2.08814">
        <ele>2303</ele>
        <time>2017-10-15T07:59:29.000Z</time>
      </trkpt>
      <trkpt lat="42.3817" lon="2.08812">
        <ele>2303</ele>
        <time>2017-10-15T07:59:30.000Z</time>
      </trkpt>
      <trkpt lat="42.3817" lon="2.08811">
        <ele>2303</ele>
        <time>2017-10-15T07:59:31.000Z</time>
      </trkpt>
      <trkpt lat="42.3817" lon="2.0881">
        <ele>2304</ele>
        <time>2017-10-15T07:59:32.000Z</time>
      </trkpt>
      <trkpt lat="42.38169" lon="2.08809">
        <ele>2304</ele>
        <time>2017-10-15T07:59:33.000Z</time>
      </trkpt>
      <trkpt lat="42.38169" lon="2.08808">
        <ele>2304</ele>
        <time>2017-10-15T07:59:34.000Z</time>
      </trkpt>
      <trkpt lat="42.38168" lon="2.08807">
        <ele>2304</ele>
        <time>2017-10-15T07:59:35.000Z</time>
      </trkpt>
      <trkpt lat="42.38168" lon="2.08805">
        <ele>2304</ele>
        <time>2017-10-15T07:59:36.000Z</time>
      </trkpt>
      <trkpt lat="42.38167" lon="2.08804">
        <ele>2305</ele>
        <time>2017-10-15T07:59:37.000Z</time>
      </trkpt>
      <trkpt lat="42.38167" lon="2.08803">
        <ele>2305</ele>
        <time>2017-10-15T07:59:38.000Z</time>
      </trkpt>
      <trkpt lat="42.38167" lon="2.08802">
        <ele>2305</ele>
        <time>2017-10-15T07:59:39.000Z</time>
      </trkpt>
      <trkpt lat="42.38166" lon="2.08801">
        <ele>2305</ele>
        <time>2017-10-15T07:59:40.000Z</time>
      </trkpt>
      <trkpt lat="42.38166" lon="2.088">
        <ele>2306</ele>
        <time>2017-10-15T07:59:41.000Z</time>
      </trkpt>
      <trkpt lat="42.38165" lon="2.088">
        <ele>2306</ele>
        <time>2017-10-15T07:59:42.000Z</time>
      </trkpt>
      <trkpt lat="42.38164" lon="2.08799">
        <ele>2306</ele>
        <time>2017-10-15T07:59:43.000Z</time>
      </trkpt>
      <trkpt lat="42.38163" lon="2.08799">
        <ele>2306</ele>
        <time>2017-10-15T07:59:44.000Z</time>
      </trkpt>
      <trkpt lat="42.38163" lon="2.08798">
        <ele>2306</ele>
        <time>2017-10-15T07:59:45.000Z</time>
      </trkpt>
      <trkpt lat="42.38163" lon="2.08797">
        <ele>2306</ele>
        <time>2017-10-15T07:59:46.000Z</time>
      </trkpt>
      <trkpt lat="42.38162" lon="2.08796">
        <ele>2307</ele>
        <time>2017-10-15T07:59:47.000Z</time>
      </trkpt>
      <trkpt lat="42.38162" lon="2.08795">
        <ele>2307</ele>
        <time>2017-10-15T07:59:48.000Z</time>
      </trkpt>
      <trkpt lat="42.38161" lon="2.08795">
        <ele>2307</ele>
        <time>2017-10-15T07:59:49.000Z</time>
      </trkpt>
      <trkpt lat="42.3816" lon="2.08794">
        <ele>2307</ele>
        <time>2017-10-15T07:59:50.000Z</time>
      </trkpt>
      <trkpt lat="42.3816" lon="2.08794">
        <ele>2307</ele>
        <time>2017-10-15T07:59:51.000Z</time>
      </trkpt>
      <trkpt lat="42.38159" lon="2.08793">
        <ele>2307</ele>
        <time>2017-10-15T07:59:52.000Z</time>
      </trkpt>
      <trkpt lat="42.38158" lon="2.08793">
        <ele>2307</ele>
        <time>2017-10-15T07:59:53.000Z</time>
      </trkpt>
      <trkpt lat="42.38157" lon="2.08792">
        <ele>2308</ele>
        <time>2017-10-15T07:59:54.000Z</time>
      </trkpt>
      <trkpt lat="42.38157" lon="2.08792">
        <ele>2308</ele>
        <time>2017-10-15T07:59:56.000Z</time>
      </trkpt>
      <trkpt lat="42.38156" lon="2.08791">
        <ele>2308</ele>
        <time>2017-10-15T07:59:57.000Z</time>
      </trkpt>
      <trkpt lat="42.38156" lon="2.0879">
        <ele>2308</ele>
        <time>2017-10-15T07:59:58.000Z</time>
      </trkpt>
      <trkpt lat="42.38155" lon="2.0879">
        <ele>2308</ele>
        <time>2017-10-15T07:59:59.000Z</time>
      </trkpt>
      <trkpt lat="42.38155" lon="2.08789">
        <ele>2308</ele>
        <time>2017-10-15T08:00:00.000Z</time>
      </trkpt>
      <trkpt lat="42.38155" lon="2.08788">
        <ele>2308</ele>
        <time>2017-10-15T08:00:01.000Z</time>
      </trkpt>
      <trkpt lat="42.38155" lon="2.08787">
        <ele>2308</ele>
        <time>2017-10-15T08:00:02.000Z</time>
      </trkpt>
      <trkpt lat="42.38154" lon="2.08787">
        <ele>2308</ele>
        <time>2017-10-15T08:00:03.000Z</time>
      </trkpt>
      <trkpt lat="42.38154" lon="2.08786">
        <ele>2309</ele>
        <time>2017-10-15T08:00:04.000Z</time>
      </trkpt>
      <trkpt lat="42.38153" lon="2.08785">
        <ele>2309</ele>
        <time>2017-10-15T08:00:05.000Z</time>
      </trkpt>
      <trkpt lat="42.38153" lon="2.08785">
        <ele>2309</ele>
        <time>2017-10-15T08:00:06.000Z</time>
      </trkpt>
      <trkpt lat="42.38153" lon="2.08784">
        <ele>2309</ele>
        <time>2017-10-15T08:00:07.000Z</time>
      </trkpt>
      <trkpt lat="42.38152" lon="2.08784">
        <ele>2309</ele>
        <time>2017-10-15T08:00:08.000Z</time>
      </trkpt>
      <trkpt lat="42.38152" lon="2.08783">
        <ele>2309</ele>
        <time>2017-10-15T08:00:09.000Z</time>
      </trkpt>
      <trkpt lat="42.38151" lon="2.08782">
        <ele>2309</ele>
        <time>2017-10-15T08:00:10.000Z</time>
      </trkpt>
      <trkpt lat="42.38151" lon="2.08781">
        <ele>2309</ele>
        <time>2017-10-15T08:00:12.000Z</time>
      </trkpt>
      <trkpt lat="42.3815" lon="2.0878">
        <ele>2310</ele>
        <time>2017-10-15T08:00:14.000Z</time>
      </trkpt>
      <trkpt lat="42.3815" lon="2.0878">
        <ele>2310</ele>
        <time>2017-10-15T08:00:15.000Z</time>
      </trkpt>
      <trkpt lat="42.3815" lon="2.08779">
        <ele>2310</ele>
        <time>2017-10-15T08:00:16.000Z</time>
      </trkpt>
      <trkpt lat="42.38149" lon="2.08778">
        <ele>2310</ele>
        <time>2017-10-15T08:00:17.000Z</time>
      </trkpt>
      <trkpt lat="42.38149" lon="2.08778">
        <ele>2310</ele>
        <time>2017-10-15T08:00:18.000Z</time>
      </trkpt>
      <trkpt lat="42.38148" lon="2.08778">
        <ele>2310</ele>
        <time>2017-10-15T08:00:19.000Z</time>
      </trkpt>
      <trkpt lat="42.38148" lon="2.08777">
        <ele>2310</ele>
        <time>2017-10-15T08:00:20.000Z</time>
      </trkpt>
      <trkpt lat="42.38148" lon="2.08777">
        <ele>2310</ele>
        <time>2017-10-15T08:00:21.000Z</time>
      </trkpt>
      <trkpt lat="42.38148" lon="2.08776">
        <ele>2310</ele>
        <time>2017-10-15T08:00:22.000Z</time>
      </trkpt>
      <trkpt lat="42.38148" lon="2.08776">
        <ele>2310</ele>
        <time>2017-10-15T08:00:23.000Z</time>
      </trkpt>
      <trkpt lat="42.38146" lon="2.08756">
        <ele>2313</ele>
        <time>2017-10-15T08:00:56.000Z</time>
      </trkpt>
      <trkpt lat="42.38146" lon="2.08756">
        <ele>2313</ele>
        <time>2017-10-15T08:00:57.000Z</time>
      </trkpt>
      <trkpt lat="42.38146" lon="2.08755">
        <ele>2313</ele>
        <time>2017-10-15T08:00:58.000Z</time>
      </trkpt>
      <trkpt lat="42.38133" lon="2.0873">
        <ele>2317</ele>
        <time>2017-10-15T08:04:42.000Z</time>
      </trkpt>
      <trkpt lat="42.38133" lon="2.08731">
        <ele>2317</ele>
        <time>2017-10-15T08:04:43.000Z</time>
      </trkpt>
      <trkpt lat="42.38133" lon="2.08731">
        <ele>2317</ele>
        <time>2017-10-15T08:04:44.000Z</time>
      </trkpt>
      <trkpt lat="42.38133" lon="2.08732">
        <ele>2317</ele>
        <time>2017-10-15T08:04:45.000Z</time>
      </trkpt>
      <trkpt lat="42.38135" lon="2.0873">
        <ele>2317</ele>
        <time>2017-10-15T08:06:03.000Z</time>
      </trkpt>
      <trkpt lat="42.38134" lon="2.08729">
        <ele>2318</ele>
        <time>2017-10-15T08:06:04.000Z</time>
      </trkpt>
      <trkpt lat="42.38133" lon="2.08729">
        <ele>2318</ele>
        <time>2017-10-15T08:06:06.000Z</time>
      </trkpt>
      <trkpt lat="42.38132" lon="2.08728">
        <ele>2318</ele>
        <time>2017-10-15T08:06:07.000Z</time>
      </trkpt>
      <trkpt lat="42.38132" lon="2.08728">
        <ele>2318</ele>
        <time>2017-10-15T08:06:08.000Z</time>
      </trkpt>
      <trkpt lat="42.38132" lon="2.08727">
        <ele>2318</ele>
        <time>2017-10-15T08:06:09.000Z</time>
      </trkpt>
      <trkpt lat="42.38131" lon="2.08727">
        <ele>2318</ele>
        <time>2017-10-15T08:06:10.000Z</time>
      </trkpt>
      <trkpt lat="42.38131" lon="2.08727">
        <ele>2318</ele>
        <time>2017-10-15T08:06:12.000Z</time>
      </trkpt>
      <trkpt lat="42.38125" lon="2.08725">
        <ele>2319</ele>
        <time>2017-10-15T08:10:55.000Z</time>
      </trkpt>
      <trkpt lat="42.38124" lon="2.08725">
        <ele>2319</ele>
        <time>2017-10-15T08:10:56.000Z</time>
      </trkpt>
      <trkpt lat="42.38123" lon="2.08726">
        <ele>2319</ele>
        <time>2017-10-15T08:10:57.000Z</time>
      </trkpt>
      <trkpt lat="42.38122" lon="2.08726">
        <ele>2319</ele>
        <time>2017-10-15T08:10:58.000Z</time>
      </trkpt>
      <trkpt lat="42.38121" lon="2.08725">
        <ele>2320</ele>
        <time>2017-10-15T08:10:59.000Z</time>
      </trkpt>
      <trkpt lat="42.3812" lon="2.08725">
        <ele>2320</ele>
        <time>2017-10-15T08:11:00.000Z</time>
      </trkpt>
      <trkpt lat="42.38119" lon="2.08725">
        <ele>2320</ele>
        <time>2017-10-15T08:11:01.000Z</time>
      </trkpt>
      <trkpt lat="42.38118" lon="2.08724">
        <ele>2320</ele>
        <time>2017-10-15T08:11:02.000Z</time>
      </trkpt>
      <trkpt lat="42.38117" lon="2.08724">
        <ele>2320</ele>
        <time>2017-10-15T08:11:03.000Z</time>
      </trkpt>
      <trkpt lat="42.38115" lon="2.08723">
        <ele>2320</ele>
        <time>2017-10-15T08:11:05.000Z</time>
      </trkpt>
      <trkpt lat="42.38114" lon="2.08723">
        <ele>2321</ele>
        <time>2017-10-15T08:11:06.000Z</time>
      </trkpt>
      <trkpt lat="42.38113" lon="2.08723">
        <ele>2321</ele>
        <time>2017-10-15T08:11:07.000Z</time>
      </trkpt>
      <trkpt lat="42.38112" lon="2.08723">
        <ele>2321</ele>
        <time>2017-10-15T08:11:08.000Z</time>
      </trkpt>
      <trkpt lat="42.38111" lon="2.08723">
        <ele>2321</ele>
        <time>2017-10-15T08:11:09.000Z</time>
      </trkpt>
      <trkpt lat="42.38111" lon="2.08722">
        <ele>2321</ele>
        <time>2017-10-15T08:11:10.000Z</time>
      </trkpt>
      <trkpt lat="42.3811" lon="2.08722">
        <ele>2321</ele>
        <time>2017-10-15T08:11:11.000Z</time>
      </trkpt>
      <trkpt lat="42.38109" lon="2.08722">
        <ele>2321</ele>
        <time>2017-10-15T08:11:12.000Z</time>
      </trkpt>
      <trkpt lat="42.38108" lon="2.08722">
        <ele>2321</ele>
        <time>2017-10-15T08:11:13.000Z</time>
      </trkpt>
      <trkpt lat="42.38107" lon="2.08722">
        <ele>2322</ele>
        <time>2017-10-15T08:11:14.000Z</time>
      </trkpt>
      <trkpt lat="42.38106" lon="2.08722">
        <ele>2322</ele>
        <time>2017-10-15T08:11:15.000Z</time>
      </trkpt>
      <trkpt lat="42.38106" lon="2.08721">
        <ele>2322</ele>
        <time>2017-10-15T08:11:16.000Z</time>
      </trkpt>
      <trkpt lat="42.38105" lon="2.0872">
        <ele>2322</ele>
        <time>2017-10-15T08:11:17.000Z</time>
      </trkpt>
      <trkpt lat="42.38105" lon="2.0872">
        <ele>2322</ele>
        <time>2017-10-15T08:11:18.000Z</time>
      </trkpt>
      <trkpt lat="42.38104" lon="2.0872">
        <ele>2322</ele>
        <time>2017-10-15T08:11:19.000Z</time>
      </trkpt>
      <trkpt lat="42.38103" lon="2.0872">
        <ele>2322</ele>
        <time>2017-10-15T08:11:20.000Z</time>
      </trkpt>
      <trkpt lat="42.38101" lon="2.08719">
        <ele>2323</ele>
        <time>2017-10-15T08:11:22.000Z</time>
      </trkpt>
      <trkpt lat="42.38101" lon="2.08719">
        <ele>2323</ele>
        <time>2017-10-15T08:11:23.000Z</time>
      </trkpt>
      <trkpt lat="42.381" lon="2.08719">
        <ele>2323</ele>
        <time>2017-10-15T08:11:24.000Z</time>
      </trkpt>
      <trkpt lat="42.38099" lon="2.08718">
        <ele>2323</ele>
        <time>2017-10-15T08:11:25.000Z</time>
      </trkpt>
      <trkpt lat="42.38098" lon="2.08718">
        <ele>2323</ele>
        <time>2017-10-15T08:11:26.000Z</time>
      </trkpt>
      <trkpt lat="42.38097" lon="2.08718">
        <ele>2323</ele>
        <time>2017-10-15T08:11:27.000Z</time>
      </trkpt>
      <trkpt lat="42.38097" lon="2.08717">
        <ele>2323</ele>
        <time>2017-10-15T08:11:28.000Z</time>
      </trkpt>
      <trkpt lat="42.38096" lon="2.08717">
        <ele>2324</ele>
        <time>2017-10-15T08:11:29.000Z</time>
      </trkpt>
      <trkpt lat="42.38095" lon="2.08716">
        <ele>2324</ele>
        <time>2017-10-15T08:11:30.000Z</time>
      </trkpt>
      <trkpt lat="42.38094" lon="2.08715">
        <ele>2324</ele>
        <time>2017-10-15T08:11:32.000Z</time>
      </trkpt>
      <trkpt lat="42.38093" lon="2.08715">
        <ele>2324</ele>
        <time>2017-10-15T08:11:33.000Z</time>
      </trkpt>
      <trkpt lat="42.38092" lon="2.08714">
        <ele>2324</ele>
        <time>2017-10-15T08:11:34.000Z</time>
      </trkpt>
      <trkpt lat="42.38091" lon="2.08713">
        <ele>2325</ele>
        <time>2017-10-15T08:11:35.000Z</time>
      </trkpt>
      <trkpt lat="42.3809" lon="2.08713">
        <ele>2325</ele>
        <time>2017-10-15T08:11:36.000Z</time>
      </trkpt>
      <trkpt lat="42.38089" lon="2.08712">
        <ele>2325</ele>
        <time>2017-10-15T08:11:37.000Z</time>
      </trkpt>
      <trkpt lat="42.38089" lon="2.08712">
        <ele>2325</ele>
        <time>2017-10-15T08:11:38.000Z</time>
      </trkpt>
      <trkpt lat="42.38088" lon="2.08711">
        <ele>2325</ele>
        <time>2017-10-15T08:11:39.000Z</time>
      </trkpt>
      <trkpt lat="42.38087" lon="2.08711">
        <ele>2325</ele>
        <time>2017-10-15T08:11:40.000Z</time>
      </trkpt>
      <trkpt lat="42.38086" lon="2.08711">
        <ele>2326</ele>
        <time>2017-10-15T08:11:41.000Z</time>
      </trkpt>
      <trkpt lat="42.38085" lon="2.08711">
        <ele>2326</ele>
        <time>2017-10-15T08:11:43.000Z</time>
      </trkpt>
      <trkpt lat="42.38084" lon="2.08711">
        <ele>2326</ele>
        <time>2017-10-15T08:11:44.000Z</time>
      </trkpt>
      <trkpt lat="42.38083" lon="2.08711">
        <ele>2326</ele>
        <time>2017-10-15T08:11:45.000Z</time>
      </trkpt>
      <trkpt lat="42.38082" lon="2.08711">
        <ele>2326</ele>
        <time>2017-10-15T08:11:46.000Z</time>
      </trkpt>
      <trkpt lat="42.38081" lon="2.08711">
        <ele>2326</ele>
        <time>2017-10-15T08:11:47.000Z</time>
      </trkpt>
      <trkpt lat="42.3808" lon="2.08711">
        <ele>2326</ele>
        <time>2017-10-15T08:11:48.000Z</time>
      </trkpt>
      <trkpt lat="42.38079" lon="2.08711">
        <ele>2327</ele>
        <time>2017-10-15T08:11:49.000Z</time>
      </trkpt>
      <trkpt lat="42.38078" lon="2.08711">
        <ele>2327</ele>
        <time>2017-10-15T08:11:51.000Z</time>
      </trkpt>
      <trkpt lat="42.38077" lon="2.08711">
        <ele>2328</ele>
        <time>2017-10-15T08:11:53.000Z</time>
      </trkpt>
      <trkpt lat="42.38076" lon="2.0871">
        <ele>2328</ele>
        <time>2017-10-15T08:11:54.000Z</time>
      </trkpt>
      <trkpt lat="42.38075" lon="2.0871">
        <ele>2329</ele>
        <time>2017-10-15T08:11:55.000Z</time>
      </trkpt>
      <trkpt lat="42.38074" lon="2.08709">
        <ele>2329</ele>
        <time>2017-10-15T08:11:56.000Z</time>
      </trkpt>
      <trkpt lat="42.38073" lon="2.08708">
        <ele>2329</ele>
        <time>2017-10-15T08:11:57.000Z</time>
      </trkpt>
      <trkpt lat="42.38072" lon="2.08707">
        <ele>2330</ele>
        <time>2017-10-15T08:11:59.000Z</time>
      </trkpt>
      <trkpt lat="42.38071" lon="2.08706">
        <ele>2330</ele>
        <time>2017-10-15T08:12:01.000Z</time>
      </trkpt>
      <trkpt lat="42.3807" lon="2.08704">
        <ele>2331</ele>
        <time>2017-10-15T08:12:02.000Z</time>
      </trkpt>
      <trkpt lat="42.38069" lon="2.08703">
        <ele>2331</ele>
        <time>2017-10-15T08:12:04.000Z</time>
      </trkpt>
      <trkpt lat="42.38069" lon="2.087">
        <ele>2332</ele>
        <time>2017-10-15T08:12:05.000Z</time>
      </trkpt>
      <trkpt lat="42.38069" lon="2.08699">
        <ele>2332</ele>
        <time>2017-10-15T08:12:06.000Z</time>
      </trkpt>
      <trkpt lat="42.38069" lon="2.08698">
        <ele>2332</ele>
        <time>2017-10-15T08:12:08.000Z</time>
      </trkpt>
      <trkpt lat="42.3807" lon="2.08696">
        <ele>2332</ele>
        <time>2017-10-15T08:12:09.000Z</time>
      </trkpt>
      <trkpt lat="42.3807" lon="2.08695">
        <ele>2332</ele>
        <time>2017-10-15T08:12:10.000Z</time>
      </trkpt>
      <trkpt lat="42.3807" lon="2.08694">
        <ele>2333</ele>
        <time>2017-10-15T08:12:11.000Z</time>
      </trkpt>
      <trkpt lat="42.3807" lon="2.08693">
        <ele>2333</ele>
        <time>2017-10-15T08:12:12.000Z</time>
      </trkpt>
      <trkpt lat="42.3807" lon="2.08692">
        <ele>2333</ele>
        <time>2017-10-15T08:12:13.000Z</time>
      </trkpt>
      <trkpt lat="42.3807" lon="2.08691">
        <ele>2333</ele>
        <time>2017-10-15T08:12:15.000Z</time>
      </trkpt>
      <trkpt lat="42.3807" lon="2.08689">
        <ele>2333</ele>
        <time>2017-10-15T08:12:16.000Z</time>
      </trkpt>
      <trkpt lat="42.3807" lon="2.08687">
        <ele>2334</ele>
        <time>2017-10-15T08:12:17.000Z</time>
      </trkpt>
      <trkpt lat="42.38071" lon="2.08687">
        <ele>2334</ele>
        <time>2017-10-15T08:12:18.000Z</time>
      </trkpt>
      <trkpt lat="42.38071" lon="2.08684">
        <ele>2334</ele>
        <time>2017-10-15T08:12:20.000Z</time>
      </trkpt>
      <trkpt lat="42.38072" lon="2.08683">
        <ele>2334</ele>
        <time>2017-10-15T08:12:22.000Z</time>
      </trkpt>
      <trkpt lat="42.38072" lon="2.08682">
        <ele>2334</ele>
        <time>2017-10-15T08:12:24.000Z</time>
      </trkpt>
      <trkpt lat="42.38072" lon="2.08681">
        <ele>2334</ele>
        <time>2017-10-15T08:12:25.000Z</time>
      </trkpt>
      <trkpt lat="42.38072" lon="2.08679">
        <ele>2334</ele>
        <time>2017-10-15T08:12:26.000Z</time>
      </trkpt>
      <trkpt lat="42.38072" lon="2.08677">
        <ele>2334</ele>
        <time>2017-10-15T08:12:27.000Z</time>
      </trkpt>
      <trkpt lat="42.38072" lon="2.08675">
        <ele>2335</ele>
        <time>2017-10-15T08:12:29.000Z</time>
      </trkpt>
      <trkpt lat="42.38073" lon="2.08673">
        <ele>2335</ele>
        <time>2017-10-15T08:12:31.000Z</time>
      </trkpt>
      <trkpt lat="42.38073" lon="2.08672">
        <ele>2335</ele>
        <time>2017-10-15T08:12:32.000Z</time>
      </trkpt>
      <trkpt lat="42.38074" lon="2.08671">
        <ele>2335</ele>
        <time>2017-10-15T08:12:33.000Z</time>
      </trkpt>
      <trkpt lat="42.38074" lon="2.0867">
        <ele>2335</ele>
        <time>2017-10-15T08:12:34.000Z</time>
      </trkpt>
      <trkpt lat="42.38075" lon="2.08669">
        <ele>2335</ele>
        <time>2017-10-15T08:12:36.000Z</time>
      </trkpt>
      <trkpt lat="42.38075" lon="2.08668">
        <ele>2335</ele>
        <time>2017-10-15T08:12:37.000Z</time>
      </trkpt>
      <trkpt lat="42.38076" lon="2.08667">
        <ele>2335</ele>
        <time>2017-10-15T08:12:38.000Z</time>
      </trkpt>
      <trkpt lat="42.38076" lon="2.08667">
        <ele>2335</ele>
        <time>2017-10-15T08:12:39.000Z</time>
      </trkpt>
      <trkpt lat="42.38076" lon="2.08667">
        <ele>2335</ele>
        <time>2017-10-15T08:12:40.000Z</time>
      </trkpt>
      <trkpt lat="42.38077" lon="2.08666">
        <ele>2335</ele>
        <time>2017-10-15T08:12:41.000Z</time>
      </trkpt>
      <trkpt lat="42.38077" lon="2.08666">
        <ele>2335</ele>
        <time>2017-10-15T08:12:42.000Z</time>
      </trkpt>
      <trkpt lat="42.38078" lon="2.08665">
        <ele>2334</ele>
        <time>2017-10-15T08:12:43.000Z</time>
      </trkpt>
      <trkpt lat="42.38078" lon="2.08665">
        <ele>2334</ele>
        <time>2017-10-15T08:12:44.000Z</time>
      </trkpt>
      <trkpt lat="42.38079" lon="2.08664">
        <ele>2334</ele>
        <time>2017-10-15T08:12:46.000Z</time>
      </trkpt>
      <trkpt lat="42.3808" lon="2.08664">
        <ele>2334</ele>
        <time>2017-10-15T08:12:47.000Z</time>
      </trkpt>
      <trkpt lat="42.38081" lon="2.08663">
        <ele>2334</ele>
        <time>2017-10-15T08:12:48.000Z</time>
      </trkpt>
      <trkpt lat="42.38081" lon="2.08663">
        <ele>2334</ele>
        <time>2017-10-15T08:12:49.000Z</time>
      </trkpt>
      <trkpt lat="42.38082" lon="2.08662">
        <ele>2334</ele>
        <time>2017-10-15T08:12:50.000Z</time>
      </trkpt>
      <trkpt lat="42.38083" lon="2.08661">
        <ele>2334</ele>
        <time>2017-10-15T08:12:51.000Z</time>
      </trkpt>
      <trkpt lat="42.38083" lon="2.0866">
        <ele>2334</ele>
        <time>2017-10-15T08:12:52.000Z</time>
      </trkpt>
      <trkpt lat="42.38084" lon="2.0866">
        <ele>2334</ele>
        <time>2017-10-15T08:12:53.000Z</time>
      </trkpt>
      <trkpt lat="42.38084" lon="2.08659">
        <ele>2334</ele>
        <time>2017-10-15T08:12:54.000Z</time>
      </trkpt>
      <trkpt lat="42.38085" lon="2.08658">
        <ele>2334</ele>
        <time>2017-10-15T08:12:55.000Z</time>
      </trkpt>
      <trkpt lat="42.38086" lon="2.08658">
        <ele>2334</ele>
        <time>2017-10-15T08:12:56.000Z</time>
      </trkpt>
      <trkpt lat="42.38086" lon="2.08657">
        <ele>2334</ele>
        <time>2017-10-15T08:12:57.000Z</time>
      </trkpt>
      <trkpt lat="42.38087" lon="2.08656">
        <ele>2334</ele>
        <time>2017-10-15T08:12:58.000Z</time>
      </trkpt>
      <trkpt lat="42.38087" lon="2.08655">
        <ele>2334</ele>
        <time>2017-10-15T08:13:00.000Z</time>
      </trkpt>
      <trkpt lat="42.38089" lon="2.08654">
        <ele>2334</ele>
        <time>2017-10-15T08:13:01.000Z</time>
      </trkpt>
      <trkpt lat="42.38089" lon="2.08653">
        <ele>2334</ele>
        <time>2017-10-15T08:13:03.000Z</time>
      </trkpt>
      <trkpt lat="42.38091" lon="2.08652">
        <ele>2334</ele>
        <time>2017-10-15T08:13:04.000Z</time>
      </trkpt>
      <trkpt lat="42.38091" lon="2.08651">
        <ele>2334</ele>
        <time>2017-10-15T08:13:06.000Z</time>
      </trkpt>
      <trkpt lat="42.38093" lon="2.0865">
        <ele>2334</ele>
        <time>2017-10-15T08:13:07.000Z</time>
      </trkpt>
      <trkpt lat="42.38094" lon="2.08649">
        <ele>2334</ele>
        <time>2017-10-15T08:13:09.000Z</time>
      </trkpt>
      <trkpt lat="42.38095" lon="2.08649">
        <ele>2334</ele>
        <time>2017-10-15T08:13:10.000Z</time>
      </trkpt>
      <trkpt lat="42.38096" lon="2.08648">
        <ele>2334</ele>
        <time>2017-10-15T08:13:11.000Z</time>
      </trkpt>
      <trkpt lat="42.38097" lon="2.08648">
        <ele>2334</ele>
        <time>2017-10-15T08:13:12.000Z</time>
      </trkpt>
      <trkpt lat="42.38097" lon="2.08648">
        <ele>2334</ele>
        <time>2017-10-15T08:13:13.000Z</time>
      </trkpt>
      <trkpt lat="42.38098" lon="2.08647">
        <ele>2334</ele>
        <time>2017-10-15T08:13:15.000Z</time>
      </trkpt>
      <trkpt lat="42.38099" lon="2.08646">
        <ele>2334</ele>
        <time>2017-10-15T08:13:16.000Z</time>
      </trkpt>
      <trkpt lat="42.38099" lon="2.08645">
        <ele>2334</ele>
        <time>2017-10-15T08:13:18.000Z</time>
      </trkpt>
      <trkpt lat="42.381" lon="2.08644">
        <ele>2334</ele>
        <time>2017-10-15T08:13:19.000Z</time>
      </trkpt>
      <trkpt lat="42.381" lon="2.08643">
        <ele>2335</ele>
        <time>2017-10-15T08:13:21.000Z</time>
      </trkpt>
      <trkpt lat="42.38102" lon="2.08642">
        <ele>2335</ele>
        <time>2017-10-15T08:13:22.000Z</time>
      </trkpt>
      <trkpt lat="42.38102" lon="2.08641">
        <ele>2335</ele>
        <time>2017-10-15T08:13:24.000Z</time>
      </trkpt>
      <trkpt lat="42.38103" lon="2.0864">
        <ele>2335</ele>
        <time>2017-10-15T08:13:25.000Z</time>
      </trkpt>
      <trkpt lat="42.38103" lon="2.0864">
        <ele>2335</ele>
        <time>2017-10-15T08:13:26.000Z</time>
      </trkpt>
      <trkpt lat="42.38104" lon="2.0864">
        <ele>2335</ele>
        <time>2017-10-15T08:13:27.000Z</time>
      </trkpt>
      <trkpt lat="42.38104" lon="2.08639">
        <ele>2335</ele>
        <time>2017-10-15T08:13:29.000Z</time>
      </trkpt>
      <trkpt lat="42.38104" lon="2.0864">
        <ele>2335</ele>
        <time>2017-10-15T08:13:30.000Z</time>
      </trkpt>
      <trkpt lat="42.38105" lon="2.08639">
        <ele>2335</ele>
        <time>2017-10-15T08:13:31.000Z</time>
      </trkpt>
      <trkpt lat="42.38105" lon="2.08638">
        <ele>2335</ele>
        <time>2017-10-15T08:13:33.000Z</time>
      </trkpt>
      <trkpt lat="42.38106" lon="2.08638">
        <ele>2335</ele>
        <time>2017-10-15T08:13:34.000Z</time>
      </trkpt>
      <trkpt lat="42.38106" lon="2.08638">
        <ele>2335</ele>
        <time>2017-10-15T08:13:36.000Z</time>
      </trkpt>
      <trkpt lat="42.38107" lon="2.08637">
        <ele>2335</ele>
        <time>2017-10-15T08:13:37.000Z</time>
      </trkpt>
      <trkpt lat="42.38107" lon="2.08637">
        <ele>2335</ele>
        <time>2017-10-15T08:13:38.000Z</time>
      </trkpt>
      <trkpt lat="42.38095" lon="2.08541">
        <ele>2361</ele>
        <time>2017-10-15T08:18:17.000Z</time>
      </trkpt>
      <trkpt lat="42.38094" lon="2.0854">
        <ele>2361</ele>
        <time>2017-10-15T08:18:18.000Z</time>
      </trkpt>
      <trkpt lat="42.38094" lon="2.0854">
        <ele>2361</ele>
        <time>2017-10-15T08:18:19.000Z</time>
      </trkpt>
      <trkpt lat="42.38094" lon="2.08539">
        <ele>2362</ele>
        <time>2017-10-15T08:18:20.000Z</time>
      </trkpt>
      <trkpt lat="42.38094" lon="2.08539">
        <ele>2362</ele>
        <time>2017-10-15T08:18:21.000Z</time>
      </trkpt>
      <trkpt lat="42.38095" lon="2.08538">
        <ele>2362</ele>
        <time>2017-10-15T08:18:22.000Z</time>
      </trkpt>
      <trkpt lat="42.38095" lon="2.08537">
        <ele>2362</ele>
        <time>2017-10-15T08:18:23.000Z</time>
      </trkpt>
      <trkpt lat="42.38096" lon="2.08538">
        <ele>2362</ele>
        <time>2017-10-15T08:18:24.000Z</time>
      </trkpt>
      <trkpt lat="42.38096" lon="2.08543">
        <ele>2360</ele>
        <time>2017-10-15T08:20:16.000Z</time>
      </trkpt>
      <trkpt lat="42.38095" lon="2.08543">
        <ele>2360</ele>
        <time>2017-10-15T08:20:18.000Z</time>
      </trkpt>
      <trkpt lat="42.38095" lon="2.08543">
        <ele>2360</ele>
        <time>2017-10-15T08:20:19.000Z</time>
      </trkpt>
      <trkpt lat="42.38096" lon="2.08537">
        <ele>2362</ele>
        <time>2017-10-15T08:20:33.000Z</time>
      </trkpt>
      <trkpt lat="42.38096" lon="2.08537">
        <ele>2362</ele>
        <time>2017-10-15T08:20:34.000Z</time>
      </trkpt>
      <trkpt lat="42.38096" lon="2.08536">
        <ele>2363</ele>
        <time>2017-10-15T08:20:35.000Z</time>
      </trkpt>
      <trkpt lat="42.38095" lon="2.08534">
        <ele>2363</ele>
        <time>2017-10-15T08:20:36.000Z</time>
      </trkpt>
      <trkpt lat="42.38095" lon="2.08533">
        <ele>2364</ele>
        <time>2017-10-15T08:20:38.000Z</time>
      </trkpt>
      <trkpt lat="42.38094" lon="2.08533">
        <ele>2364</ele>
        <time>2017-10-15T08:20:39.000Z</time>
      </trkpt>
      <trkpt lat="42.38094" lon="2.08532">
        <ele>2364</ele>
        <time>2017-10-15T08:20:40.000Z</time>
      </trkpt>
      <trkpt lat="42.38092" lon="2.08531">
        <ele>2365</ele>
        <time>2017-10-15T08:20:41.000Z</time>
      </trkpt>
      <trkpt lat="42.38091" lon="2.08529">
        <ele>2366</ele>
        <time>2017-10-15T08:20:43.000Z</time>
      </trkpt>
      <trkpt lat="42.3809" lon="2.08528">
        <ele>2366</ele>
        <time>2017-10-15T08:20:44.000Z</time>
      </trkpt>
      <trkpt lat="42.3809" lon="2.08527">
        <ele>2367</ele>
        <time>2017-10-15T08:20:45.000Z</time>
      </trkpt>
      <trkpt lat="42.38089" lon="2.08527">
        <ele>2367</ele>
        <time>2017-10-15T08:20:46.000Z</time>
      </trkpt>
      <trkpt lat="42.38088" lon="2.08526">
        <ele>2367</ele>
        <time>2017-10-15T08:20:47.000Z</time>
      </trkpt>
      <trkpt lat="42.38088" lon="2.08526">
        <ele>2368</ele>
        <time>2017-10-15T08:20:48.000Z</time>
      </trkpt>
      <trkpt lat="42.38087" lon="2.08525">
        <ele>2368</ele>
        <time>2017-10-15T08:20:49.000Z</time>
      </trkpt>
      <trkpt lat="42.38086" lon="2.08525">
        <ele>2368</ele>
        <time>2017-10-15T08:20:50.000Z</time>
      </trkpt>
      <trkpt lat="42.38086" lon="2.08524">
        <ele>2369</ele>
        <time>2017-10-15T08:20:51.000Z</time>
      </trkpt>
      <trkpt lat="42.38086" lon="2.08524">
        <ele>2369</ele>
        <time>2017-10-15T08:20:52.000Z</time>
      </trkpt>
      <trkpt lat="42.38085" lon="2.08523">
        <ele>2369</ele>
        <time>2017-10-15T08:20:53.000Z</time>
      </trkpt>
      <trkpt lat="42.38085" lon="2.08523">
        <ele>2369</ele>
        <time>2017-10-15T08:20:54.000Z</time>
      </trkpt>
      <trkpt lat="42.38084" lon="2.08523">
        <ele>2370</ele>
        <time>2017-10-15T08:20:55.000Z</time>
      </trkpt>
      <trkpt lat="42.38084" lon="2.08523">
        <ele>2370</ele>
        <time>2017-10-15T08:20:56.000Z</time>
      </trkpt>
      <trkpt lat="42.38084" lon="2.08522">
        <ele>2370</ele>
        <time>2017-10-15T08:20:57.000Z</time>
      </trkpt>
      <trkpt lat="42.37632" lon="2.08634">
        <ele>2570</ele>
        <time>2017-10-15T08:51:58.000Z</time>
      </trkpt>
      <trkpt lat="42.37631" lon="2.08634">
        <ele>2570</ele>
        <time>2017-10-15T08:51:59.000Z</time>
      </trkpt>
      <trkpt lat="42.37631" lon="2.08635">
        <ele>2571</ele>
        <time>2017-10-15T08:52:00.000Z</time>
      </trkpt>
      <trkpt lat="42.37629" lon="2.08636">
        <ele>2571</ele>
        <time>2017-10-15T08:52:01.000Z</time>
      </trkpt>
      <trkpt lat="42.37628" lon="2.08637">
        <ele>2571</ele>
        <time>2017-10-15T08:52:03.000Z</time>
      </trkpt>
      <trkpt lat="42.37627" lon="2.08639">
        <ele>2572</ele>
        <time>2017-10-15T08:52:04.000Z</time>
      </trkpt>
      <trkpt lat="42.37626" lon="2.0864">
        <ele>2572</ele>
        <time>2017-10-15T08:52:06.000Z</time>
      </trkpt>
      <trkpt lat="42.37625" lon="2.08641">
        <ele>2572</ele>
        <time>2017-10-15T08:52:07.000Z</time>
      </trkpt>
      <trkpt lat="42.37625" lon="2.08642">
        <ele>2573</ele>
        <time>2017-10-15T08:52:08.000Z</time>
      </trkpt>
      <trkpt lat="42.37624" lon="2.08642">
        <ele>2573</ele>
        <time>2017-10-15T08:52:09.000Z</time>
      </trkpt>
      <trkpt lat="42.37624" lon="2.08643">
        <ele>2573</ele>
        <time>2017-10-15T08:52:11.000Z</time>
      </trkpt>
      <trkpt lat="42.37623" lon="2.08644">
        <ele>2573</ele>
        <time>2017-10-15T08:52:12.000Z</time>
      </trkpt>
      <trkpt lat="42.37623" lon="2.08646">
        <ele>2573</ele>
        <time>2017-10-15T08:52:13.000Z</time>
      </trkpt>
      <trkpt lat="42.37622" lon="2.08647">
        <ele>2573</ele>
        <time>2017-10-15T08:52:15.000Z</time>
      </trkpt>
      <trkpt lat="42.37622" lon="2.08648">
        <ele>2574</ele>
        <time>2017-10-15T08:52:16.000Z</time>
      </trkpt>
      <trkpt lat="42.37622" lon="2.08649">
        <ele>2574</ele>
        <time>2017-10-15T08:52:17.000Z</time>
      </trkpt>
      <trkpt lat="42.37621" lon="2.0865">
        <ele>2574</ele>
        <time>2017-10-15T08:52:18.000Z</time>
      </trkpt>
      <trkpt lat="42.37621" lon="2.08651">
        <ele>2574</ele>
        <time>2017-10-15T08:52:19.000Z</time>
      </trkpt>
      <trkpt lat="42.3762" lon="2.08653">
        <ele>2574</ele>
        <time>2017-10-15T08:52:20.000Z</time>
      </trkpt>
      <trkpt lat="42.3762" lon="2.08654">
        <ele>2574</ele>
        <time>2017-10-15T08:52:21.000Z</time>
      </trkpt>
      <trkpt lat="42.3762" lon="2.08655">
        <ele>2574</ele>
        <time>2017-10-15T08:52:22.000Z</time>
      </trkpt>
      <trkpt lat="42.37619" lon="2.08655">
        <ele>2574</ele>
        <time>2017-10-15T08:52:23.000Z</time>
      </trkpt>
      <trkpt lat="42.37619" lon="2.08656">
        <ele>2575</ele>
        <time>2017-10-15T08:52:24.000Z</time>
      </trkpt>
      <trkpt lat="42.37618" lon="2.08658">
        <ele>2575</ele>
        <time>2017-10-15T08:52:25.000Z</time>
      </trkpt>
      <trkpt lat="42.37618" lon="2.08659">
        <ele>2575</ele>
        <time>2017-10-15T08:52:26.000Z</time>
      </trkpt>
      <trkpt lat="42.37618" lon="2.0866">
        <ele>2575</ele>
        <time>2017-10-15T08:52:27.000Z</time>
      </trkpt>
      <trkpt lat="42.37618" lon="2.08661">
        <ele>2575</ele>
        <time>2017-10-15T08:52:28.000Z</time>
      </trkpt>
      <trkpt lat="42.37617" lon="2.08661">
        <ele>2575</ele>
        <time>2017-10-15T08:52:29.000Z</time>
      </trkpt>
      <trkpt lat="42.37617" lon="2.08662">
        <ele>2575</ele>
        <time>2017-10-15T08:52:30.000Z</time>
      </trkpt>
      <trkpt lat="42.37617" lon="2.08663">
        <ele>2575</ele>
        <time>2017-10-15T08:52:31.000Z</time>
      </trkpt>
      <trkpt lat="42.37616" lon="2.08663">
        <ele>2575</ele>
        <time>2017-10-15T08:52:32.000Z</time>
      </trkpt>
      <trkpt lat="42.37616" lon="2.08664">
        <ele>2575</ele>
        <time>2017-10-15T08:52:33.000Z</time>
      </trkpt>
      <trkpt lat="42.37615" lon="2.08665">
        <ele>2575</ele>
        <time>2017-10-15T08:52:34.000Z</time>
      </trkpt>
      <trkpt lat="42.37614" lon="2.08666">
        <ele>2575</ele>
        <time>2017-10-15T08:52:35.000Z</time>
      </trkpt>
      <trkpt lat="42.37614" lon="2.08666">
        <ele>2575</ele>
        <time>2017-10-15T08:52:37.000Z</time>
      </trkpt>
      <trkpt lat="42.37613" lon="2.08667">
        <ele>2575</ele>
        <time>2017-10-15T08:52:38.000Z</time>
      </trkpt>
      <trkpt lat="42.37613" lon="2.08668">
        <ele>2575</ele>
        <time>2017-10-15T08:52:39.000Z</time>
      </trkpt>
      <trkpt lat="42.37612" lon="2.08668">
        <ele>2575</ele>
        <time>2017-10-15T08:52:40.000Z</time>
      </trkpt>
      <trkpt lat="42.37612" lon="2.08669">
        <ele>2575</ele>
        <time>2017-10-15T08:52:41.000Z</time>
      </trkpt>
      <trkpt lat="42.37611" lon="2.08669">
        <ele>2576</ele>
        <time>2017-10-15T08:52:42.000Z</time>
      </trkpt>
      <trkpt lat="42.3761" lon="2.08669">
        <ele>2576</ele>
        <time>2017-10-15T08:52:43.000Z</time>
      </trkpt>
      <trkpt lat="42.3761" lon="2.08669">
        <ele>2576</ele>
        <time>2017-10-15T08:52:44.000Z</time>
      </trkpt>
      <trkpt lat="42.3761" lon="2.0867">
        <ele>2576</ele>
        <time>2017-10-15T08:52:45.000Z</time>
      </trkpt>
      <trkpt lat="42.37609" lon="2.08672">
        <ele>2576</ele>
        <time>2017-10-15T08:52:46.000Z</time>
      </trkpt>
      <trkpt lat="42.37608" lon="2.08673">
        <ele>2576</ele>
        <time>2017-10-15T08:52:47.000Z</time>
      </trkpt>
      <trkpt lat="42.37608" lon="2.08674">
        <ele>2576</ele>
        <time>2017-10-15T08:52:49.000Z</time>
      </trkpt>
      <trkpt lat="42.37608" lon="2.08675">
        <ele>2576</ele>
        <time>2017-10-15T08:52:50.000Z</time>
      </trkpt>
      <trkpt lat="42.37607" lon="2.08675">
        <ele>2576</ele>
        <time>2017-10-15T08:52:51.000Z</time>
      </trkpt>
      <trkpt lat="42.37607" lon="2.08676">
        <ele>2576</ele>
        <time>2017-10-15T08:52:52.000Z</time>
      </trkpt>
      <trkpt lat="42.37606" lon="2.08677">
        <ele>2576</ele>
        <time>2017-10-15T08:52:53.000Z</time>
      </trkpt>
      <trkpt lat="42.37606" lon="2.08678">
        <ele>2576</ele>
        <time>2017-10-15T08:52:54.000Z</time>
      </trkpt>
      <trkpt lat="42.37605" lon="2.08679">
        <ele>2576</ele>
        <time>2017-10-15T08:52:55.000Z</time>
      </trkpt>
      <trkpt lat="42.37604" lon="2.0868">
        <ele>2576</ele>
        <time>2017-10-15T08:52:56.000Z</time>
      </trkpt>
      <trkpt lat="42.37604" lon="2.08681">
        <ele>2576</ele>
        <time>2017-10-15T08:52:58.000Z</time>
      </trkpt>
      <trkpt lat="42.37603" lon="2.08682">
        <ele>2576</ele>
        <time>2017-10-15T08:52:59.000Z</time>
      </trkpt>
      <trkpt lat="42.37603" lon="2.08683">
        <ele>2576</ele>
        <time>2017-10-15T08:53:00.000Z</time>
      </trkpt>
      <trkpt lat="42.37602" lon="2.08683">
        <ele>2576</ele>
        <time>2017-10-15T08:53:01.000Z</time>
      </trkpt>
      <trkpt lat="42.37602" lon="2.08684">
        <ele>2577</ele>
        <time>2017-10-15T08:53:02.000Z</time>
      </trkpt>
      <trkpt lat="42.37601" lon="2.08685">
        <ele>2577</ele>
        <time>2017-10-15T08:53:03.000Z</time>
      </trkpt>
      <trkpt lat="42.37601" lon="2.08686">
        <ele>2577</ele>
        <time>2017-10-15T08:53:04.000Z</time>
      </trkpt>
      <trkpt lat="42.37601" lon="2.08687">
        <ele>2577</ele>
        <time>2017-10-15T08:53:05.000Z</time>
      </trkpt>
      <trkpt lat="42.376" lon="2.08687">
        <ele>2577</ele>
        <time>2017-10-15T08:53:06.000Z</time>
      </trkpt>
      <trkpt lat="42.37599" lon="2.08688">
        <ele>2577</ele>
        <time>2017-10-15T08:53:07.000Z</time>
      </trkpt>
      <trkpt lat="42.37599" lon="2.08689">
        <ele>2578</ele>
        <time>2017-10-15T08:53:08.000Z</time>
      </trkpt>
      <trkpt lat="42.37598" lon="2.08689">
        <ele>2578</ele>
        <time>2017-10-15T08:53:09.000Z</time>
      </trkpt>
      <trkpt lat="42.37597" lon="2.0869">
        <ele>2578</ele>
        <time>2017-10-15T08:53:10.000Z</time>
      </trkpt>
      <trkpt lat="42.37596" lon="2.0869">
        <ele>2579</ele>
        <time>2017-10-15T08:53:11.000Z</time>
      </trkpt>
      <trkpt lat="42.37596" lon="2.08691">
        <ele>2579</ele>
        <time>2017-10-15T08:53:12.000Z</time>
      </trkpt>
      <trkpt lat="42.37596" lon="2.08692">
        <ele>2579</ele>
        <time>2017-10-15T08:53:13.000Z</time>
      </trkpt>
      <trkpt lat="42.37595" lon="2.08693">
        <ele>2579</ele>
        <time>2017-10-15T08:53:14.000Z</time>
      </trkpt>
      <trkpt lat="42.37594" lon="2.08693">
        <ele>2579</ele>
        <time>2017-10-15T08:53:15.000Z</time>
      </trkpt>
      <trkpt lat="42.37594" lon="2.08694">
        <ele>2580</ele>
        <time>2017-10-15T08:53:16.000Z</time>
      </trkpt>
      <trkpt lat="42.37594" lon="2.08695">
        <ele>2580</ele>
        <time>2017-10-15T08:53:17.000Z</time>
      </trkpt>
      <trkpt lat="42.37593" lon="2.08695">
        <ele>2580</ele>
        <time>2017-10-15T08:53:18.000Z</time>
      </trkpt>
      <trkpt lat="42.37593" lon="2.08696">
        <ele>2580</ele>
        <time>2017-10-15T08:53:19.000Z</time>
      </trkpt>
      <trkpt lat="42.37593" lon="2.08697">
        <ele>2580</ele>
        <time>2017-10-15T08:53:20.000Z</time>
      </trkpt>
      <trkpt lat="42.37592" lon="2.08698">
        <ele>2580</ele>
        <time>2017-10-15T08:53:21.000Z</time>
      </trkpt>
      <trkpt lat="42.37592" lon="2.087">
        <ele>2580</ele>
        <time>2017-10-15T08:53:22.000Z</time>
      </trkpt>
      <trkpt lat="42.37591" lon="2.087">
        <ele>2580</ele>
        <time>2017-10-15T08:53:23.000Z</time>
      </trkpt>
      <trkpt lat="42.37591" lon="2.08702">
        <ele>2581</ele>
        <time>2017-10-15T08:53:24.000Z</time>
      </trkpt>
      <trkpt lat="42.37591" lon="2.08703">
        <ele>2581</ele>
        <time>2017-10-15T08:53:25.000Z</time>
      </trkpt>
      <trkpt lat="42.37592" lon="2.08703">
        <ele>2580</ele>
        <time>2017-10-15T08:53:26.000Z</time>
      </trkpt>
      <trkpt lat="42.37591" lon="2.08704">
        <ele>2580</ele>
        <time>2017-10-15T08:53:27.000Z</time>
      </trkpt>
      <trkpt lat="42.37591" lon="2.08705">
        <ele>2580</ele>
        <time>2017-10-15T08:53:28.000Z</time>
      </trkpt>
      <trkpt lat="42.37591" lon="2.08706">
        <ele>2580</ele>
        <time>2017-10-15T08:53:29.000Z</time>
      </trkpt>
      <trkpt lat="42.3759" lon="2.08707">
        <ele>2580</ele>
        <time>2017-10-15T08:53:30.000Z</time>
      </trkpt>
      <trkpt lat="42.37589" lon="2.08708">
        <ele>2581</ele>
        <time>2017-10-15T08:53:31.000Z</time>
      </trkpt>
      <trkpt lat="42.37588" lon="2.0871">
        <ele>2581</ele>
        <time>2017-10-15T08:53:32.000Z</time>
      </trkpt>
      <trkpt lat="42.37588" lon="2.08711">
        <ele>2581</ele>
        <time>2017-10-15T08:53:33.000Z</time>
      </trkpt>
      <trkpt lat="42.37587" lon="2.08711">
        <ele>2582</ele>
        <time>2017-10-15T08:53:34.000Z</time>
      </trkpt>
      <trkpt lat="42.37587" lon="2.08712">
        <ele>2582</ele>
        <time>2017-10-15T08:53:35.000Z</time>
      </trkpt>
      <trkpt lat="42.37586" lon="2.08713">
        <ele>2582</ele>
        <time>2017-10-15T08:53:36.000Z</time>
      </trkpt>
      <trkpt lat="42.37586" lon="2.08715">
        <ele>2582</ele>
        <time>2017-10-15T08:53:38.000Z</time>
      </trkpt>
      <trkpt lat="42.37585" lon="2.08716">
        <ele>2582</ele>
        <time>2017-10-15T08:53:40.000Z</time>
      </trkpt>
      <trkpt lat="42.37585" lon="2.08716">
        <ele>2582</ele>
        <time>2017-10-15T08:53:41.000Z</time>
      </trkpt>
      <trkpt lat="42.37585" lon="2.08717">
        <ele>2582</ele>
        <time>2017-10-15T08:53:42.000Z</time>
      </trkpt>
      <trkpt lat="42.37584" lon="2.08718">
        <ele>2582</ele>
        <time>2017-10-15T08:53:44.000Z</time>
      </trkpt>
      <trkpt lat="42.37584" lon="2.08719">
        <ele>2582</ele>
        <time>2017-10-15T08:53:45.000Z</time>
      </trkpt>
      <trkpt lat="42.37584" lon="2.0872">
        <ele>2583</ele>
        <time>2017-10-15T08:53:46.000Z</time>
      </trkpt>
      <trkpt lat="42.37583" lon="2.0872">
        <ele>2583</ele>
        <time>2017-10-15T08:53:47.000Z</time>
      </trkpt>
      <trkpt lat="42.37582" lon="2.08721">
        <ele>2583</ele>
        <time>2017-10-15T08:53:48.000Z</time>
      </trkpt>
      <trkpt lat="42.37582" lon="2.08722">
        <ele>2583</ele>
        <time>2017-10-15T08:53:49.000Z</time>
      </trkpt>
      <trkpt lat="42.37581" lon="2.08722">
        <ele>2584</ele>
        <time>2017-10-15T08:53:50.000Z</time>
      </trkpt>
      <trkpt lat="42.37581" lon="2.08723">
        <ele>2584</ele>
        <time>2017-10-15T08:53:51.000Z</time>
      </trkpt>
      <trkpt lat="42.3758" lon="2.08724">
        <ele>2584</ele>
        <time>2017-10-15T08:53:52.000Z</time>
      </trkpt>
      <trkpt lat="42.3758" lon="2.08724">
        <ele>2584</ele>
        <time>2017-10-15T08:53:53.000Z</time>
      </trkpt>
      <trkpt lat="42.37579" lon="2.08725">
        <ele>2584</ele>
        <time>2017-10-15T08:53:54.000Z</time>
      </trkpt>
      <trkpt lat="42.37579" lon="2.08726">
        <ele>2584</ele>
        <time>2017-10-15T08:53:55.000Z</time>
      </trkpt>
      <trkpt lat="42.37579" lon="2.08727">
        <ele>2584</ele>
        <time>2017-10-15T08:53:56.000Z</time>
      </trkpt>
      <trkpt lat="42.37579" lon="2.08728">
        <ele>2584</ele>
        <time>2017-10-15T08:53:57.000Z</time>
      </trkpt>
      <trkpt lat="42.37578" lon="2.08729">
        <ele>2584</ele>
        <time>2017-10-15T08:53:58.000Z</time>
      </trkpt>
      <trkpt lat="42.37578" lon="2.08729">
        <ele>2584</ele>
        <time>2017-10-15T08:53:59.000Z</time>
      </trkpt>
      <trkpt lat="42.37578" lon="2.0873">
        <ele>2584</ele>
        <time>2017-10-15T08:54:00.000Z</time>
      </trkpt>
      <trkpt lat="42.37577" lon="2.08731">
        <ele>2584</ele>
        <time>2017-10-15T08:54:01.000Z</time>
      </trkpt>
      <trkpt lat="42.37577" lon="2.08732">
        <ele>2584</ele>
        <time>2017-10-15T08:54:02.000Z</time>
      </trkpt>
      <trkpt lat="42.37577" lon="2.08733">
        <ele>2584</ele>
        <time>2017-10-15T08:54:03.000Z</time>
      </trkpt>
      <trkpt lat="42.37576" lon="2.08734">
        <ele>2584</ele>
        <time>2017-10-15T08:54:04.000Z</time>
      </trkpt>
      <trkpt lat="42.37576" lon="2.08735">
        <ele>2584</ele>
        <time>2017-10-15T08:54:05.000Z</time>
      </trkpt>
      <trkpt lat="42.37576" lon="2.08736">
        <ele>2584</ele>
        <time>2017-10-15T08:54:06.000Z</time>
      </trkpt>
      <trkpt lat="42.37576" lon="2.08737">
        <ele>2584</ele>
        <time>2017-10-15T08:54:07.000Z</time>
      </trkpt>
      <trkpt lat="42.37576" lon="2.08737">
        <ele>2585</ele>
        <time>2017-10-15T08:54:08.000Z</time>
      </trkpt>
      <trkpt lat="42.37575" lon="2.08738">
        <ele>2585</ele>
        <time>2017-10-15T08:54:09.000Z</time>
      </trkpt>
      <trkpt lat="42.37575" lon="2.08739">
        <ele>2585</ele>
        <time>2017-10-15T08:54:10.000Z</time>
      </trkpt>
      <trkpt lat="42.37575" lon="2.0874">
        <ele>2585</ele>
        <time>2017-10-15T08:54:11.000Z</time>
      </trkpt>
      <trkpt lat="42.37575" lon="2.08741">
        <ele>2585</ele>
        <time>2017-10-15T08:54:12.000Z</time>
      </trkpt>
      <trkpt lat="42.37574" lon="2.08742">
        <ele>2585</ele>
        <time>2017-10-15T08:54:13.000Z</time>
      </trkpt>
      <trkpt lat="42.37574" lon="2.08743">
        <ele>2585</ele>
        <time>2017-10-15T08:54:14.000Z</time>
      </trkpt>
      <trkpt lat="42.37573" lon="2.08744">
        <ele>2585</ele>
        <time>2017-10-15T08:54:15.000Z</time>
      </trkpt>
      <trkpt lat="42.37573" lon="2.08745">
        <ele>2585</ele>
        <time>2017-10-15T08:54:16.000Z</time>
      </trkpt>
      <trkpt lat="42.37572" lon="2.08746">
        <ele>2585</ele>
        <time>2017-10-15T08:54:17.000Z</time>
      </trkpt>
      <trkpt lat="42.37572" lon="2.08747">
        <ele>2586</ele>
        <time>2017-10-15T08:54:18.000Z</time>
      </trkpt>
      <trkpt lat="42.37572" lon="2.08748">
        <ele>2585</ele>
        <time>2017-10-15T08:54:19.000Z</time>
      </trkpt>
      <trkpt lat="42.37573" lon="2.08749">
        <ele>2585</ele>
        <time>2017-10-15T08:54:20.000Z</time>
      </trkpt>
      <trkpt lat="42.37573" lon="2.08749">
        <ele>2585</ele>
        <time>2017-10-15T08:54:21.000Z</time>
      </trkpt>
      <trkpt lat="42.37572" lon="2.08751">
        <ele>2585</ele>
        <time>2017-10-15T08:54:22.000Z</time>
      </trkpt>
      <trkpt lat="42.37572" lon="2.08752">
        <ele>2586</ele>
        <time>2017-10-15T08:54:24.000Z</time>
      </trkpt>
      <trkpt lat="42.37571" lon="2.08752">
        <ele>2586</ele>
        <time>2017-10-15T08:54:25.000Z</time>
      </trkpt>
      <trkpt lat="42.37571" lon="2.08752">
        <ele>2586</ele>
        <time>2017-10-15T08:54:26.000Z</time>
      </trkpt>
      <trkpt lat="42.3757" lon="2.08753">
        <ele>2586</ele>
        <time>2017-10-15T08:54:27.000Z</time>
      </trkpt>
      <trkpt lat="42.3757" lon="2.08753">
        <ele>2586</ele>
        <time>2017-10-15T08:54:28.000Z</time>
      </trkpt>
      <trkpt lat="42.3757" lon="2.08754">
        <ele>2586</ele>
        <time>2017-10-15T08:54:29.000Z</time>
      </trkpt>
      <trkpt lat="42.37553" lon="2.08791">
        <ele>2592</ele>
        <time>2017-10-15T08:55:25.000Z</time>
      </trkpt>
      <trkpt lat="42.37553" lon="2.08792">
        <ele>2592</ele>
        <time>2017-10-15T08:55:26.000Z</time>
      </trkpt>
      <trkpt lat="42.37552" lon="2.08793">
        <ele>2593</ele>
        <time>2017-10-15T08:55:27.000Z</time>
      </trkpt>
      <trkpt lat="42.37552" lon="2.08793">
        <ele>2593</ele>
        <time>2017-10-15T08:55:28.000Z</time>
      </trkpt>
      <trkpt lat="42.37552" lon="2.08794">
        <ele>2593</ele>
        <time>2017-10-15T08:55:29.000Z</time>
      </trkpt>
      <trkpt lat="42.37551" lon="2.08795">
        <ele>2593</ele>
        <time>2017-10-15T08:55:30.000Z</time>
      </trkpt>
      <trkpt lat="42.3755" lon="2.08796">
        <ele>2593</ele>
        <time>2017-10-15T08:55:31.000Z</time>
      </trkpt>
      <trkpt lat="42.3755" lon="2.08797">
        <ele>2594</ele>
        <time>2017-10-15T08:55:32.000Z</time>
      </trkpt>
      <trkpt lat="42.37549" lon="2.08797">
        <ele>2594</ele>
        <time>2017-10-15T08:55:33.000Z</time>
      </trkpt>
      <trkpt lat="42.37549" lon="2.08798">
        <ele>2594</ele>
        <time>2017-10-15T08:55:34.000Z</time>
      </trkpt>
      <trkpt lat="42.37549" lon="2.08799">
        <ele>2594</ele>
        <time>2017-10-15T08:55:35.000Z</time>
      </trkpt>
      <trkpt lat="42.37549" lon="2.088">
        <ele>2594</ele>
        <time>2017-10-15T08:55:36.000Z</time>
      </trkpt>
      <trkpt lat="42.37548" lon="2.08801">
        <ele>2594</ele>
        <time>2017-10-15T08:55:37.000Z</time>
      </trkpt>
      <trkpt lat="42.37549" lon="2.08802">
        <ele>2594</ele>
        <time>2017-10-15T08:55:38.000Z</time>
      </trkpt>
      <trkpt lat="42.37549" lon="2.08802">
        <ele>2594</ele>
        <time>2017-10-15T08:55:39.000Z</time>
      </trkpt>
      <trkpt lat="42.37549" lon="2.08803">
        <ele>2594</ele>
        <time>2017-10-15T08:55:40.000Z</time>
      </trkpt>
      <trkpt lat="42.37549" lon="2.08804">
        <ele>2594</ele>
        <time>2017-10-15T08:55:41.000Z</time>
      </trkpt>
      <trkpt lat="42.3755" lon="2.08804">
        <ele>2594</ele>
        <time>2017-10-15T08:55:42.000Z</time>
      </trkpt>
      <trkpt lat="42.3755" lon="2.08805">
        <ele>2594</ele>
        <time>2017-10-15T08:55:43.000Z</time>
      </trkpt>
      <trkpt lat="42.3755" lon="2.08806">
        <ele>2593</ele>
        <time>2017-10-15T08:55:44.000Z</time>
      </trkpt>
      <trkpt lat="42.3755" lon="2.08806">
        <ele>2594</ele>
        <time>2017-10-15T08:55:45.000Z</time>
      </trkpt>
      <trkpt lat="42.3755" lon="2.08806">
        <ele>2594</ele>
        <time>2017-10-15T08:55:46.000Z</time>
      </trkpt>
      <trkpt lat="42.37551" lon="2.08811">
        <ele>2593</ele>
        <time>2017-10-15T08:59:17.000Z</time>
      </trkpt>
      <trkpt lat="42.3755" lon="2.08813">
        <ele>2594</ele>
        <time>2017-10-15T08:59:18.000Z</time>
      </trkpt>
      <trkpt lat="42.3755" lon="2.08814">
        <ele>2594</ele>
        <time>2017-10-15T08:59:20.000Z</time>
      </trkpt>
      <trkpt lat="42.37549" lon="2.08815">
        <ele>2594</ele>
        <time>2017-10-15T08:59:21.000Z</time>
      </trkpt>
      <trkpt lat="42.37549" lon="2.08816">
        <ele>2594</ele>
        <time>2017-10-15T08:59:22.000Z</time>
      </trkpt>
      <trkpt lat="42.37548" lon="2.08817">
        <ele>2594</ele>
        <time>2017-10-15T08:59:23.000Z</time>
      </trkpt>
      <trkpt lat="42.37547" lon="2.08817">
        <ele>2595</ele>
        <time>2017-10-15T08:59:24.000Z</time>
      </trkpt>
      <trkpt lat="42.37547" lon="2.08818">
        <ele>2595</ele>
        <time>2017-10-15T08:59:25.000Z</time>
      </trkpt>
      <trkpt lat="42.37546" lon="2.08818">
        <ele>2595</ele>
        <time>2017-10-15T08:59:26.000Z</time>
      </trkpt>
      <trkpt lat="42.37545" lon="2.08819">
        <ele>2596</ele>
        <time>2017-10-15T08:59:27.000Z</time>
      </trkpt>
      <trkpt lat="42.37545" lon="2.0882">
        <ele>2596</ele>
        <time>2017-10-15T08:59:28.000Z</time>
      </trkpt>
      <trkpt lat="42.37545" lon="2.0882">
        <ele>2596</ele>
        <time>2017-10-15T08:59:29.000Z</time>
      </trkpt>
      <trkpt lat="42.37544" lon="2.08821">
        <ele>2596</ele>
        <time>2017-10-15T08:59:30.000Z</time>
      </trkpt>
      <trkpt lat="42.37543" lon="2.08823">
        <ele>2596</ele>
        <time>2017-10-15T08:59:31.000Z</time>
      </trkpt>
      <trkpt lat="42.37543" lon="2.08824">
        <ele>2597</ele>
        <time>2017-10-15T08:59:33.000Z</time>
      </trkpt>
      <trkpt lat="42.37543" lon="2.08825">
        <ele>2597</ele>
        <time>2017-10-15T08:59:34.000Z</time>
      </trkpt>
      <trkpt lat="42.37542" lon="2.08826">
        <ele>2597</ele>
        <time>2017-10-15T08:59:35.000Z</time>
      </trkpt>
      <trkpt lat="42.37542" lon="2.08827">
        <ele>2597</ele>
        <time>2017-10-15T08:59:36.000Z</time>
      </trkpt>
      <trkpt lat="42.37541" lon="2.08828">
        <ele>2597</ele>
        <time>2017-10-15T08:59:37.000Z</time>
      </trkpt>
      <trkpt lat="42.3754" lon="2.08829">
        <ele>2598</ele>
        <time>2017-10-15T08:59:38.000Z</time>
      </trkpt>
      <trkpt lat="42.3754" lon="2.08829">
        <ele>2598</ele>
        <time>2017-10-15T08:59:39.000Z</time>
      </trkpt>
      <trkpt lat="42.3754" lon="2.0883">
        <ele>2598</ele>
        <time>2017-10-15T08:59:40.000Z</time>
      </trkpt>
      <trkpt lat="42.37539" lon="2.08831">
        <ele>2598</ele>
        <time>2017-10-15T08:59:41.000Z</time>
      </trkpt>
      <trkpt lat="42.37539" lon="2.08833">
        <ele>2598</ele>
        <time>2017-10-15T08:59:42.000Z</time>
      </trkpt>
      <trkpt lat="42.37538" lon="2.08834">
        <ele>2598</ele>
        <time>2017-10-15T08:59:43.000Z</time>
      </trkpt>
      <trkpt lat="42.37538" lon="2.08835">
        <ele>2598</ele>
        <time>2017-10-15T08:59:45.000Z</time>
      </trkpt>
      <trkpt lat="42.37538" lon="2.08837">
        <ele>2598</ele>
        <time>2017-10-15T08:59:46.000Z</time>
      </trkpt>
      <trkpt lat="42.37537" lon="2.08838">
        <ele>2598</ele>
        <time>2017-10-15T08:59:47.000Z</time>
      </trkpt>
      <trkpt lat="42.37537" lon="2.08838">
        <ele>2599</ele>
        <time>2017-10-15T08:59:48.000Z</time>
      </trkpt>
      <trkpt lat="42.37538" lon="2.08839">
        <ele>2598</ele>
        <time>2017-10-15T08:59:49.000Z</time>
      </trkpt>
      <trkpt lat="42.37538" lon="2.08841">
        <ele>2598</ele>
        <time>2017-10-15T08:59:50.000Z</time>
      </trkpt>
      <trkpt lat="42.37538" lon="2.08842">
        <ele>2598</ele>
        <time>2017-10-15T08:59:51.000Z</time>
      </trkpt>
      <trkpt lat="42.37538" lon="2.08843">
        <ele>2598</ele>
        <time>2017-10-15T08:59:52.000Z</time>
      </trkpt>
      <trkpt lat="42.37537" lon="2.08844">
        <ele>2598</ele>
        <time>2017-10-15T08:59:53.000Z</time>
      </trkpt>
      <trkpt lat="42.37537" lon="2.08844">
        <ele>2598</ele>
        <time>2017-10-15T08:59:54.000Z</time>
      </trkpt>
      <trkpt lat="42.37537" lon="2.08845">
        <ele>2598</ele>
        <time>2017-10-15T08:59:55.000Z</time>
      </trkpt>
      <trkpt lat="42.37536" lon="2.08846">
        <ele>2598</ele>
        <time>2017-10-15T08:59:56.000Z</time>
      </trkpt>
      <trkpt lat="42.37536" lon="2.08847">
        <ele>2599</ele>
        <time>2017-10-15T08:59:57.000Z</time>
      </trkpt>
      <trkpt lat="42.37536" lon="2.08847">
        <ele>2599</ele>
        <time>2017-10-15T08:59:58.000Z</time>
      </trkpt>
      <trkpt lat="42.37536" lon="2.08848">
        <ele>2598</ele>
        <time>2017-10-15T08:59:59.000Z</time>
      </trkpt>
      <trkpt lat="42.37535" lon="2.08849">
        <ele>2599</ele>
        <time>2017-10-15T09:00:00.000Z</time>
      </trkpt>
      <trkpt lat="42.37535" lon="2.0885">
        <ele>2599</ele>
        <time>2017-10-15T09:00:01.000Z</time>
      </trkpt>
      <trkpt lat="42.37535" lon="2.08851">
        <ele>2599</ele>
        <time>2017-10-15T09:00:02.000Z</time>
      </trkpt>
      <trkpt lat="42.37535" lon="2.08851">
        <ele>2599</ele>
        <time>2017-10-15T09:00:03.000Z</time>
      </trkpt>
      <trkpt lat="42.37536" lon="2.08851">
        <ele>2598</ele>
        <time>2017-10-15T09:00:04.000Z</time>
      </trkpt>
      <trkpt lat="42.37536" lon="2.08852">
        <ele>2598</ele>
        <time>2017-10-15T09:00:06.000Z</time>
      </trkpt>
      <trkpt lat="42.37536" lon="2.08853">
        <ele>2598</ele>
        <time>2017-10-15T09:00:07.000Z</time>
      </trkpt>
      <trkpt lat="42.37536" lon="2.08854">
        <ele>2598</ele>
        <time>2017-10-15T09:00:08.000Z</time>
      </trkpt>
      <trkpt lat="42.37536" lon="2.08854">
        <ele>2598</ele>
        <time>2017-10-15T09:00:09.000Z</time>
      </trkpt>
      <trkpt lat="42.37536" lon="2.08855">
        <ele>2598</ele>
        <time>2017-10-15T09:00:10.000Z</time>
      </trkpt>
      <trkpt lat="42.37536" lon="2.08857">
        <ele>2598</ele>
        <time>2017-10-15T09:00:11.000Z</time>
      </trkpt>
      <trkpt lat="42.37536" lon="2.08858">
        <ele>2598</ele>
        <time>2017-10-15T09:00:13.000Z</time>
      </trkpt>
      <trkpt lat="42.37536" lon="2.08859">
        <ele>2598</ele>
        <time>2017-10-15T09:00:14.000Z</time>
      </trkpt>
      <trkpt lat="42.37535" lon="2.0886">
        <ele>2598</ele>
        <time>2017-10-15T09:00:15.000Z</time>
      </trkpt>
      <trkpt lat="42.37535" lon="2.08861">
        <ele>2598</ele>
        <time>2017-10-15T09:00:16.000Z</time>
      </trkpt>
      <trkpt lat="42.37535" lon="2.08861">
        <ele>2598</ele>
        <time>2017-10-15T09:00:17.000Z</time>
      </trkpt>
      <trkpt lat="42.37535" lon="2.08862">
        <ele>2598</ele>
        <time>2017-10-15T09:00:18.000Z</time>
      </trkpt>
      <trkpt lat="42.37535" lon="2.08863">
        <ele>2598</ele>
        <time>2017-10-15T09:00:19.000Z</time>
      </trkpt>
      <trkpt lat="42.37535" lon="2.08864">
        <ele>2598</ele>
        <time>2017-10-15T09:00:20.000Z</time>
      </trkpt>
      <trkpt lat="42.37535" lon="2.08865">
        <ele>2598</ele>
        <time>2017-10-15T09:00:21.000Z</time>
      </trkpt>
      <trkpt lat="42.37535" lon="2.08866">
        <ele>2598</ele>
        <time>2017-10-15T09:00:22.000Z</time>
      </trkpt>
      <trkpt lat="42.37535" lon="2.08866">
        <ele>2598</ele>
        <time>2017-10-15T09:00:23.000Z</time>
      </trkpt>
      <trkpt lat="42.37535" lon="2.08867">
        <ele>2598</ele>
        <time>2017-10-15T09:00:24.000Z</time>
      </trkpt>
      <trkpt lat="42.37535" lon="2.08868">
        <ele>2598</ele>
        <time>2017-10-15T09:00:25.000Z</time>
      </trkpt>
      <trkpt lat="42.37535" lon="2.08869">
        <ele>2598</ele>
        <time>2017-10-15T09:00:27.000Z</time>
      </trkpt>
      <trkpt lat="42.37535" lon="2.0887">
        <ele>2598</ele>
        <time>2017-10-15T09:00:28.000Z</time>
      </trkpt>
      <trkpt lat="42.37535" lon="2.0887">
        <ele>2598</ele>
        <time>2017-10-15T09:00:29.000Z</time>
      </trkpt>
      <trkpt lat="42.37535" lon="2.08871">
        <ele>2598</ele>
        <time>2017-10-15T09:00:30.000Z</time>
      </trkpt>
      <trkpt lat="42.37535" lon="2.08872">
        <ele>2598</ele>
        <time>2017-10-15T09:00:31.000Z</time>
      </trkpt>
      <trkpt lat="42.37535" lon="2.08873">
        <ele>2598</ele>
        <time>2017-10-15T09:00:32.000Z</time>
      </trkpt>
      <trkpt lat="42.37535" lon="2.08874">
        <ele>2598</ele>
        <time>2017-10-15T09:00:33.000Z</time>
      </trkpt>
      <trkpt lat="42.37535" lon="2.08875">
        <ele>2598</ele>
        <time>2017-10-15T09:00:34.000Z</time>
      </trkpt>
      <trkpt lat="42.37535" lon="2.08876">
        <ele>2598</ele>
        <time>2017-10-15T09:00:35.000Z</time>
      </trkpt>
      <trkpt lat="42.37535" lon="2.08877">
        <ele>2598</ele>
        <time>2017-10-15T09:00:37.000Z</time>
      </trkpt>
      <trkpt lat="42.37535" lon="2.08877">
        <ele>2598</ele>
        <time>2017-10-15T09:00:38.000Z</time>
      </trkpt>
      <trkpt lat="42.37535" lon="2.08878">
        <ele>2598</ele>
        <time>2017-10-15T09:00:39.000Z</time>
      </trkpt>
      <trkpt lat="42.37535" lon="2.08878">
        <ele>2598</ele>
        <time>2017-10-15T09:00:40.000Z</time>
      </trkpt>
      <trkpt lat="42.37535" lon="2.08879">
        <ele>2598</ele>
        <time>2017-10-15T09:00:41.000Z</time>
      </trkpt>
      <trkpt lat="42.37535" lon="2.0888">
        <ele>2598</ele>
        <time>2017-10-15T09:00:43.000Z</time>
      </trkpt>
      <trkpt lat="42.37535" lon="2.08881">
        <ele>2598</ele>
        <time>2017-10-15T09:00:44.000Z</time>
      </trkpt>
      <trkpt lat="42.37536" lon="2.08882">
        <ele>2598</ele>
        <time>2017-10-15T09:00:45.000Z</time>
      </trkpt>
      <trkpt lat="42.37536" lon="2.08883">
        <ele>2598</ele>
        <time>2017-10-15T09:00:46.000Z</time>
      </trkpt>
      <trkpt lat="42.37535" lon="2.08883">
        <ele>2598</ele>
        <time>2017-10-15T09:00:47.000Z</time>
      </trkpt>
      <trkpt lat="42.37535" lon="2.08884">
        <ele>2598</ele>
        <time>2017-10-15T09:00:48.000Z</time>
      </trkpt>
      <trkpt lat="42.37535" lon="2.08885">
        <ele>2598</ele>
        <time>2017-10-15T09:00:49.000Z</time>
      </trkpt>
      <trkpt lat="42.37535" lon="2.08885">
        <ele>2598</ele>
        <time>2017-10-15T09:00:50.000Z</time>
      </trkpt>
      <trkpt lat="42.37535" lon="2.08886">
        <ele>2598</ele>
        <time>2017-10-15T09:00:51.000Z</time>
      </trkpt>
      <trkpt lat="42.37535" lon="2.08886">
        <ele>2598</ele>
        <time>2017-10-15T09:00:52.000Z</time>
      </trkpt>
      <trkpt lat="42.37536" lon="2.08887">
        <ele>2597</ele>
        <time>2017-10-15T09:00:53.000Z</time>
      </trkpt>
      <trkpt lat="42.37536" lon="2.08887">
        <ele>2597</ele>
        <time>2017-10-15T09:00:54.000Z</time>
      </trkpt>
      <trkpt lat="42.37536" lon="2.08887">
        <ele>2597</ele>
        <time>2017-10-15T09:00:55.000Z</time>
      </trkpt>
      <trkpt lat="42.37536" lon="2.08888">
        <ele>2597</ele>
        <time>2017-10-15T09:00:56.000Z</time>
      </trkpt>
      <trkpt lat="42.37537" lon="2.08889">
        <ele>2597</ele>
        <time>2017-10-15T09:00:57.000Z</time>
      </trkpt>
      <trkpt lat="42.37537" lon="2.0889">
        <ele>2597</ele>
        <time>2017-10-15T09:00:58.000Z</time>
      </trkpt>
      <trkpt lat="42.37536" lon="2.08891">
        <ele>2597</ele>
        <time>2017-10-15T09:00:59.000Z</time>
      </trkpt>
      <trkpt lat="42.37537" lon="2.08892">
        <ele>2597</ele>
        <time>2017-10-15T09:01:00.000Z</time>
      </trkpt>
      <trkpt lat="42.37537" lon="2.08893">
        <ele>2597</ele>
        <time>2017-10-15T09:01:01.000Z</time>
      </trkpt>
      <trkpt lat="42.37536" lon="2.08893">
        <ele>2597</ele>
        <time>2017-10-15T09:01:02.000Z</time>
      </trkpt>
      <trkpt lat="42.37536" lon="2.08894">
        <ele>2597</ele>
        <time>2017-10-15T09:01:03.000Z</time>
      </trkpt>
      <trkpt lat="42.37536" lon="2.08895">
        <ele>2597</ele>
        <time>2017-10-15T09:01:04.000Z</time>
      </trkpt>
      <trkpt lat="42.37536" lon="2.08896">
        <ele>2598</ele>
        <time>2017-10-15T09:01:05.000Z</time>
      </trkpt>
      <trkpt lat="42.37535" lon="2.08897">
        <ele>2598</ele>
        <time>2017-10-15T09:01:06.000Z</time>
      </trkpt>
      <trkpt lat="42.37535" lon="2.08898">
        <ele>2598</ele>
        <time>2017-10-15T09:01:07.000Z</time>
      </trkpt>
      <trkpt lat="42.37535" lon="2.08899">
        <ele>2598</ele>
        <time>2017-10-15T09:01:08.000Z</time>
      </trkpt>
      <trkpt lat="42.37535" lon="2.089">
        <ele>2598</ele>
        <time>2017-10-15T09:01:09.000Z</time>
      </trkpt>
      <trkpt lat="42.37535" lon="2.08901">
        <ele>2598</ele>
        <time>2017-10-15T09:01:10.000Z</time>
      </trkpt>
      <trkpt lat="42.37534" lon="2.08903">
        <ele>2598</ele>
        <time>2017-10-15T09:01:11.000Z</time>
      </trkpt>
      <trkpt lat="42.37534" lon="2.08904">
        <ele>2598</ele>
        <time>2017-10-15T09:01:13.000Z</time>
      </trkpt>
      <trkpt lat="42.37533" lon="2.08905">
        <ele>2598</ele>
        <time>2017-10-15T09:01:14.000Z</time>
      </trkpt>
      <trkpt lat="42.37533" lon="2.08905">
        <ele>2598</ele>
        <time>2017-10-15T09:01:15.000Z</time>
      </trkpt>
      <trkpt lat="42.37533" lon="2.08907">
        <ele>2598</ele>
        <time>2017-10-15T09:01:16.000Z</time>
      </trkpt>
      <trkpt lat="42.37533" lon="2.08908">
        <ele>2599</ele>
        <time>2017-10-15T09:01:17.000Z</time>
      </trkpt>
      <trkpt lat="42.37533" lon="2.08909">
        <ele>2599</ele>
        <time>2017-10-15T09:01:18.000Z</time>
      </trkpt>
      <trkpt lat="42.37532" lon="2.08909">
        <ele>2599</ele>
        <time>2017-10-15T09:01:19.000Z</time>
      </trkpt>
      <trkpt lat="42.37532" lon="2.0891">
        <ele>2599</ele>
        <time>2017-10-15T09:01:20.000Z</time>
      </trkpt>
      <trkpt lat="42.37531" lon="2.08911">
        <ele>2599</ele>
        <time>2017-10-15T09:01:21.000Z</time>
      </trkpt>
      <trkpt lat="42.37531" lon="2.08912">
        <ele>2599</ele>
        <time>2017-10-15T09:01:22.000Z</time>
      </trkpt>
      <trkpt lat="42.37531" lon="2.08913">
        <ele>2599</ele>
        <time>2017-10-15T09:01:23.000Z</time>
      </trkpt>
      <trkpt lat="42.3753" lon="2.08914">
        <ele>2599</ele>
        <time>2017-10-15T09:01:24.000Z</time>
      </trkpt>
      <trkpt lat="42.3753" lon="2.08915">
        <ele>2599</ele>
        <time>2017-10-15T09:01:25.000Z</time>
      </trkpt>
      <trkpt lat="42.3753" lon="2.08915">
        <ele>2599</ele>
        <time>2017-10-15T09:01:26.000Z</time>
      </trkpt>
      <trkpt lat="42.3753" lon="2.08916">
        <ele>2599</ele>
        <time>2017-10-15T09:01:27.000Z</time>
      </trkpt>
      <trkpt lat="42.37529" lon="2.08917">
        <ele>2600</ele>
        <time>2017-10-15T09:01:28.000Z</time>
      </trkpt>
      <trkpt lat="42.37529" lon="2.08918">
        <ele>2600</ele>
        <time>2017-10-15T09:01:29.000Z</time>
      </trkpt>
      <trkpt lat="42.37529" lon="2.08919">
        <ele>2600</ele>
        <time>2017-10-15T09:01:30.000Z</time>
      </trkpt>
      <trkpt lat="42.37528" lon="2.0892">
        <ele>2600</ele>
        <time>2017-10-15T09:01:31.000Z</time>
      </trkpt>
      <trkpt lat="42.37528" lon="2.08921">
        <ele>2600</ele>
        <time>2017-10-15T09:01:33.000Z</time>
      </trkpt>
      <trkpt lat="42.37528" lon="2.08923">
        <ele>2600</ele>
        <time>2017-10-15T09:01:34.000Z</time>
      </trkpt>
      <trkpt lat="42.37528" lon="2.08924">
        <ele>2600</ele>
        <time>2017-10-15T09:01:36.000Z</time>
      </trkpt>
      <trkpt lat="42.37527" lon="2.08925">
        <ele>2600</ele>
        <time>2017-10-15T09:01:37.000Z</time>
      </trkpt>
      <trkpt lat="42.37527" lon="2.08926">
        <ele>2600</ele>
        <time>2017-10-15T09:01:38.000Z</time>
      </trkpt>
      <trkpt lat="42.37527" lon="2.08926">
        <ele>2600</ele>
        <time>2017-10-15T09:01:39.000Z</time>
      </trkpt>
      <trkpt lat="42.37526" lon="2.08927">
        <ele>2600</ele>
        <time>2017-10-15T09:01:40.000Z</time>
      </trkpt>
      <trkpt lat="42.37526" lon="2.08928">
        <ele>2600</ele>
        <time>2017-10-15T09:01:41.000Z</time>
      </trkpt>
      <trkpt lat="42.37525" lon="2.08929">
        <ele>2601</ele>
        <time>2017-10-15T09:01:42.000Z</time>
      </trkpt>
      <trkpt lat="42.37525" lon="2.08929">
        <ele>2601</ele>
        <time>2017-10-15T09:01:43.000Z</time>
      </trkpt>
      <trkpt lat="42.37524" lon="2.0893">
        <ele>2601</ele>
        <time>2017-10-15T09:01:44.000Z</time>
      </trkpt>
      <trkpt lat="42.37525" lon="2.0893">
        <ele>2601</ele>
        <time>2017-10-15T09:01:45.000Z</time>
      </trkpt>
      <trkpt lat="42.37524" lon="2.08931">
        <ele>2601</ele>
        <time>2017-10-15T09:01:46.000Z</time>
      </trkpt>
      <trkpt lat="42.37524" lon="2.08931">
        <ele>2601</ele>
        <time>2017-10-15T09:01:47.000Z</time>
      </trkpt>
      <trkpt lat="42.37524" lon="2.08932">
        <ele>2601</ele>
        <time>2017-10-15T09:01:48.000Z</time>
      </trkpt>
      <trkpt lat="42.37524" lon="2.08933">
        <ele>2601</ele>
        <time>2017-10-15T09:01:49.000Z</time>
      </trkpt>
      <trkpt lat="42.37524" lon="2.08933">
        <ele>2601</ele>
        <time>2017-10-15T09:01:50.000Z</time>
      </trkpt>
      <trkpt lat="42.37524" lon="2.08934">
        <ele>2601</ele>
        <time>2017-10-15T09:01:51.000Z</time>
      </trkpt>
      <trkpt lat="42.37524" lon="2.08935">
        <ele>2601</ele>
        <time>2017-10-15T09:01:52.000Z</time>
      </trkpt>
      <trkpt lat="42.37524" lon="2.08936">
        <ele>2601</ele>
        <time>2017-10-15T09:01:53.000Z</time>
      </trkpt>
      <trkpt lat="42.37524" lon="2.08937">
        <ele>2601</ele>
        <time>2017-10-15T09:01:54.000Z</time>
      </trkpt>
      <trkpt lat="42.37524" lon="2.08938">
        <ele>2601</ele>
        <time>2017-10-15T09:01:55.000Z</time>
      </trkpt>
      <trkpt lat="42.37524" lon="2.08939">
        <ele>2601</ele>
        <time>2017-10-15T09:01:56.000Z</time>
      </trkpt>
      <trkpt lat="42.37523" lon="2.08941">
        <ele>2601</ele>
        <time>2017-10-15T09:01:58.000Z</time>
      </trkpt>
      <trkpt lat="42.37523" lon="2.08942">
        <ele>2601</ele>
        <time>2017-10-15T09:02:00.000Z</time>
      </trkpt>
      <trkpt lat="42.37523" lon="2.08942">
        <ele>2601</ele>
        <time>2017-10-15T09:02:01.000Z</time>
      </trkpt>
      <trkpt lat="42.37523" lon="2.08943">
        <ele>2601</ele>
        <time>2017-10-15T09:02:02.000Z</time>
      </trkpt>
      <trkpt lat="42.37524" lon="2.08944">
        <ele>2600</ele>
        <time>2017-10-15T09:02:03.000Z</time>
      </trkpt>
      <trkpt lat="42.37524" lon="2.08945">
        <ele>2600</ele>
        <time>2017-10-15T09:02:04.000Z</time>
      </trkpt>
      <trkpt lat="42.37524" lon="2.08946">
        <ele>2600</ele>
        <time>2017-10-15T09:02:05.000Z</time>
      </trkpt>
      <trkpt lat="42.37524" lon="2.08947">
        <ele>2600</ele>
        <time>2017-10-15T09:02:06.000Z</time>
      </trkpt>
      <trkpt lat="42.37524" lon="2.08948">
        <ele>2600</ele>
        <time>2017-10-15T09:02:07.000Z</time>
      </trkpt>
      <trkpt lat="42.37524" lon="2.08949">
        <ele>2600</ele>
        <time>2017-10-15T09:02:09.000Z</time>
      </trkpt>
      <trkpt lat="42.37524" lon="2.0895">
        <ele>2600</ele>
        <time>2017-10-15T09:02:10.000Z</time>
      </trkpt>
      <trkpt lat="42.37523" lon="2.08951">
        <ele>2600</ele>
        <time>2017-10-15T09:02:11.000Z</time>
      </trkpt>
      <trkpt lat="42.37523" lon="2.08952">
        <ele>2600</ele>
        <time>2017-10-15T09:02:12.000Z</time>
      </trkpt>
      <trkpt lat="42.37523" lon="2.08954">
        <ele>2600</ele>
        <time>2017-10-15T09:02:13.000Z</time>
      </trkpt>
      <trkpt lat="42.37523" lon="2.08955">
        <ele>2600</ele>
        <time>2017-10-15T09:02:15.000Z</time>
      </trkpt>
      <trkpt lat="42.37523" lon="2.08956">
        <ele>2600</ele>
        <time>2017-10-15T09:02:16.000Z</time>
      </trkpt>
      <trkpt lat="42.37523" lon="2.08957">
        <ele>2600</ele>
        <time>2017-10-15T09:02:18.000Z</time>
      </trkpt>
      <trkpt lat="42.37522" lon="2.08959">
        <ele>2600</ele>
        <time>2017-10-15T09:02:19.000Z</time>
      </trkpt>
      <trkpt lat="42.37522" lon="2.0896">
        <ele>2600</ele>
        <time>2017-10-15T09:02:21.000Z</time>
      </trkpt>
      <trkpt lat="42.37522" lon="2.0896">
        <ele>2600</ele>
        <time>2017-10-15T09:02:22.000Z</time>
      </trkpt>
      <trkpt lat="42.37521" lon="2.08961">
        <ele>2601</ele>
        <time>2017-10-15T09:02:23.000Z</time>
      </trkpt>
      <trkpt lat="42.37521" lon="2.08962">
        <ele>2601</ele>
        <time>2017-10-15T09:02:24.000Z</time>
      </trkpt>
      <trkpt lat="42.37521" lon="2.08963">
        <ele>2601</ele>
        <time>2017-10-15T09:02:25.000Z</time>
      </trkpt>
      <trkpt lat="42.37521" lon="2.08964">
        <ele>2601</ele>
        <time>2017-10-15T09:02:26.000Z</time>
      </trkpt>
      <trkpt lat="42.3752" lon="2.08965">
        <ele>2601</ele>
        <time>2017-10-15T09:02:27.000Z</time>
      </trkpt>
      <trkpt lat="42.37521" lon="2.08965">
        <ele>2601</ele>
        <time>2017-10-15T09:02:28.000Z</time>
      </trkpt>
      <trkpt lat="42.37521" lon="2.08966">
        <ele>2601</ele>
        <time>2017-10-15T09:02:29.000Z</time>
      </trkpt>
      <trkpt lat="42.3752" lon="2.08967">
        <ele>2601</ele>
        <time>2017-10-15T09:02:30.000Z</time>
      </trkpt>
      <trkpt lat="42.3752" lon="2.08968">
        <ele>2601</ele>
        <time>2017-10-15T09:02:31.000Z</time>
      </trkpt>
      <trkpt lat="42.3752" lon="2.08969">
        <ele>2601</ele>
        <time>2017-10-15T09:02:32.000Z</time>
      </trkpt>
      <trkpt lat="42.37519" lon="2.0897">
        <ele>2601</ele>
        <time>2017-10-15T09:02:33.000Z</time>
      </trkpt>
      <trkpt lat="42.37519" lon="2.08971">
        <ele>2601</ele>
        <time>2017-10-15T09:02:34.000Z</time>
      </trkpt>
      <trkpt lat="42.37519" lon="2.08972">
        <ele>2601</ele>
        <time>2017-10-15T09:02:35.000Z</time>
      </trkpt>
      <trkpt lat="42.37519" lon="2.08973">
        <ele>2601</ele>
        <time>2017-10-15T09:02:36.000Z</time>
      </trkpt>
      <trkpt lat="42.37518" lon="2.08974">
        <ele>2601</ele>
        <time>2017-10-15T09:02:37.000Z</time>
      </trkpt>
      <trkpt lat="42.37518" lon="2.08975">
        <ele>2601</ele>
        <time>2017-10-15T09:02:38.000Z</time>
      </trkpt>
      <trkpt lat="42.37518" lon="2.08976">
        <ele>2602</ele>
        <time>2017-10-15T09:02:39.000Z</time>
      </trkpt>
      <trkpt lat="42.37518" lon="2.08977">
        <ele>2602</ele>
        <time>2017-10-15T09:02:40.000Z</time>
      </trkpt>
      <trkpt lat="42.37517" lon="2.08978">
        <ele>2602</ele>
        <time>2017-10-15T09:02:41.000Z</time>
      </trkpt>
      <trkpt lat="42.37517" lon="2.08979">
        <ele>2602</ele>
        <time>2017-10-15T09:02:42.000Z</time>
      </trkpt>
      <trkpt lat="42.37517" lon="2.0898">
        <ele>2602</ele>
        <time>2017-10-15T09:02:43.000Z</time>
      </trkpt>
      <trkpt lat="42.37516" lon="2.08981">
        <ele>2602</ele>
        <time>2017-10-15T09:02:44.000Z</time>
      </trkpt>
      <trkpt lat="42.37516" lon="2.08982">
        <ele>2602</ele>
        <time>2017-10-15T09:02:45.000Z</time>
      </trkpt>
      <trkpt lat="42.37516" lon="2.08984">
        <ele>2602</ele>
        <time>2017-10-15T09:02:46.000Z</time>
      </trkpt>
      <trkpt lat="42.37515" lon="2.08985">
        <ele>2602</ele>
        <time>2017-10-15T09:02:47.000Z</time>
      </trkpt>
      <trkpt lat="42.37515" lon="2.08986">
        <ele>2602</ele>
        <time>2017-10-15T09:02:48.000Z</time>
      </trkpt>
      <trkpt lat="42.37515" lon="2.08987">
        <ele>2602</ele>
        <time>2017-10-15T09:02:49.000Z</time>
      </trkpt>
      <trkpt lat="42.37514" lon="2.08989">
        <ele>2603</ele>
        <time>2017-10-15T09:02:50.000Z</time>
      </trkpt>
      <trkpt lat="42.37514" lon="2.0899">
        <ele>2603</ele>
        <time>2017-10-15T09:02:51.000Z</time>
      </trkpt>
      <trkpt lat="42.37514" lon="2.08991">
        <ele>2603</ele>
        <time>2017-10-15T09:02:52.000Z</time>
      </trkpt>
      <trkpt lat="42.37513" lon="2.08992">
        <ele>2603</ele>
        <time>2017-10-15T09:02:53.000Z</time>
      </trkpt>
      <trkpt lat="42.37513" lon="2.08993">
        <ele>2603</ele>
        <time>2017-10-15T09:02:54.000Z</time>
      </trkpt>
      <trkpt lat="42.37513" lon="2.08994">
        <ele>2603</ele>
        <time>2017-10-15T09:02:55.000Z</time>
      </trkpt>
      <trkpt lat="42.37513" lon="2.08996">
        <ele>2603</ele>
        <time>2017-10-15T09:02:56.000Z</time>
      </trkpt>
      <trkpt lat="42.37512" lon="2.08996">
        <ele>2604</ele>
        <time>2017-10-15T09:02:57.000Z</time>
      </trkpt>
      <trkpt lat="42.37512" lon="2.08998">
        <ele>2604</ele>
        <time>2017-10-15T09:02:58.000Z</time>
      </trkpt>
      <trkpt lat="42.37512" lon="2.08999">
        <ele>2604</ele>
        <time>2017-10-15T09:02:59.000Z</time>
      </trkpt>
      <trkpt lat="42.37511" lon="2.09">
        <ele>2604</ele>
        <time>2017-10-15T09:03:00.000Z</time>
      </trkpt>
      <trkpt lat="42.37511" lon="2.09001">
        <ele>2604</ele>
        <time>2017-10-15T09:03:01.000Z</time>
      </trkpt>
      <trkpt lat="42.3751" lon="2.09002">
        <ele>2605</ele>
        <time>2017-10-15T09:03:02.000Z</time>
      </trkpt>
      <trkpt lat="42.3751" lon="2.09003">
        <ele>2605</ele>
        <time>2017-10-15T09:03:03.000Z</time>
      </trkpt>
      <trkpt lat="42.3751" lon="2.09005">
        <ele>2605</ele>
        <time>2017-10-15T09:03:04.000Z</time>
      </trkpt>
      <trkpt lat="42.3751" lon="2.09006">
        <ele>2605</ele>
        <time>2017-10-15T09:03:05.000Z</time>
      </trkpt>
      <trkpt lat="42.3751" lon="2.09007">
        <ele>2605</ele>
        <time>2017-10-15T09:03:06.000Z</time>
      </trkpt>
      <trkpt lat="42.37509" lon="2.09008">
        <ele>2605</ele>
        <time>2017-10-15T09:03:07.000Z</time>
      </trkpt>
      <trkpt lat="42.37509" lon="2.09009">
        <ele>2605</ele>
        <time>2017-10-15T09:03:08.000Z</time>
      </trkpt>
      <trkpt lat="42.37509" lon="2.09011">
        <ele>2605</ele>
        <time>2017-10-15T09:03:09.000Z</time>
      </trkpt>
      <trkpt lat="42.37509" lon="2.09012">
        <ele>2605</ele>
        <time>2017-10-15T09:03:10.000Z</time>
      </trkpt>
      <trkpt lat="42.37509" lon="2.09013">
        <ele>2605</ele>
        <time>2017-10-15T09:03:11.000Z</time>
      </trkpt>
      <trkpt lat="42.37509" lon="2.09014">
        <ele>2605</ele>
        <time>2017-10-15T09:03:12.000Z</time>
      </trkpt>
      <trkpt lat="42.37508" lon="2.09015">
        <ele>2605</ele>
        <time>2017-10-15T09:03:13.000Z</time>
      </trkpt>
      <trkpt lat="42.37508" lon="2.09017">
        <ele>2605</ele>
        <time>2017-10-15T09:03:14.000Z</time>
      </trkpt>
      <trkpt lat="42.37508" lon="2.09018">
        <ele>2605</ele>
        <time>2017-10-15T09:03:15.000Z</time>
      </trkpt>
      <trkpt lat="42.37508" lon="2.09019">
        <ele>2605</ele>
        <time>2017-10-15T09:03:16.000Z</time>
      </trkpt>
      <trkpt lat="42.37507" lon="2.09021">
        <ele>2605</ele>
        <time>2017-10-15T09:03:17.000Z</time>
      </trkpt>
      <trkpt lat="42.37507" lon="2.09022">
        <ele>2606</ele>
        <time>2017-10-15T09:03:18.000Z</time>
      </trkpt>
      <trkpt lat="42.37506" lon="2.09023">
        <ele>2606</ele>
        <time>2017-10-15T09:03:19.000Z</time>
      </trkpt>
      <trkpt lat="42.37506" lon="2.09024">
        <ele>2606</ele>
        <time>2017-10-15T09:03:20.000Z</time>
      </trkpt>
      <trkpt lat="42.37506" lon="2.09025">
        <ele>2606</ele>
        <time>2017-10-15T09:03:21.000Z</time>
      </trkpt>
      <trkpt lat="42.37506" lon="2.09027">
        <ele>2606</ele>
        <time>2017-10-15T09:03:22.000Z</time>
      </trkpt>
      <trkpt lat="42.37506" lon="2.09028">
        <ele>2606</ele>
        <time>2017-10-15T09:03:23.000Z</time>
      </trkpt>
      <trkpt lat="42.37506" lon="2.0903">
        <ele>2606</ele>
        <time>2017-10-15T09:03:24.000Z</time>
      </trkpt>
      <trkpt lat="42.37505" lon="2.09031">
        <ele>2605</ele>
        <time>2017-10-15T09:03:25.000Z</time>
      </trkpt>
      <trkpt lat="42.37505" lon="2.09032">
        <ele>2606</ele>
        <time>2017-10-15T09:03:26.000Z</time>
      </trkpt>
      <trkpt lat="42.37505" lon="2.09034">
        <ele>2606</ele>
        <time>2017-10-15T09:03:27.000Z</time>
      </trkpt>
      <trkpt lat="42.37504" lon="2.09035">
        <ele>2606</ele>
        <time>2017-10-15T09:03:28.000Z</time>
      </trkpt>
      <trkpt lat="42.37504" lon="2.09036">
        <ele>2606</ele>
        <time>2017-10-15T09:03:29.000Z</time>
      </trkpt>
      <trkpt lat="42.37504" lon="2.09038">
        <ele>2606</ele>
        <time>2017-10-15T09:03:30.000Z</time>
      </trkpt>
      <trkpt lat="42.37504" lon="2.09039">
        <ele>2606</ele>
        <time>2017-10-15T09:03:31.000Z</time>
      </trkpt>
      <trkpt lat="42.37504" lon="2.09041">
        <ele>2606</ele>
        <time>2017-10-15T09:03:32.000Z</time>
      </trkpt>
      <trkpt lat="42.37504" lon="2.09042">
        <ele>2606</ele>
        <time>2017-10-15T09:03:33.000Z</time>
      </trkpt>
      <trkpt lat="42.37503" lon="2.09044">
        <ele>2606</ele>
        <time>2017-10-15T09:03:34.000Z</time>
      </trkpt>
      <trkpt lat="42.37503" lon="2.09045">
        <ele>2606</ele>
        <time>2017-10-15T09:03:35.000Z</time>
      </trkpt>
      <trkpt lat="42.37502" lon="2.09046">
        <ele>2606</ele>
        <time>2017-10-15T09:03:36.000Z</time>
      </trkpt>
      <trkpt lat="42.37502" lon="2.09047">
        <ele>2606</ele>
        <time>2017-10-15T09:03:37.000Z</time>
      </trkpt>
      <trkpt lat="42.37502" lon="2.09048">
        <ele>2606</ele>
        <time>2017-10-15T09:03:38.000Z</time>
      </trkpt>
      <trkpt lat="42.37501" lon="2.09049">
        <ele>2606</ele>
        <time>2017-10-15T09:03:39.000Z</time>
      </trkpt>
      <trkpt lat="42.37501" lon="2.09051">
        <ele>2606</ele>
        <time>2017-10-15T09:03:40.000Z</time>
      </trkpt>
      <trkpt lat="42.375" lon="2.09052">
        <ele>2606</ele>
        <time>2017-10-15T09:03:41.000Z</time>
      </trkpt>
      <trkpt lat="42.375" lon="2.09053">
        <ele>2606</ele>
        <time>2017-10-15T09:03:42.000Z</time>
      </trkpt>
      <trkpt lat="42.375" lon="2.09054">
        <ele>2606</ele>
        <time>2017-10-15T09:03:43.000Z</time>
      </trkpt>
      <trkpt lat="42.37499" lon="2.09055">
        <ele>2607</ele>
        <time>2017-10-15T09:03:44.000Z</time>
      </trkpt>
      <trkpt lat="42.375" lon="2.09056">
        <ele>2606</ele>
        <time>2017-10-15T09:03:45.000Z</time>
      </trkpt>
      <trkpt lat="42.37499" lon="2.09058">
        <ele>2606</ele>
        <time>2017-10-15T09:03:46.000Z</time>
      </trkpt>
      <trkpt lat="42.37499" lon="2.09059">
        <ele>2606</ele>
        <time>2017-10-15T09:03:47.000Z</time>
      </trkpt>
      <trkpt lat="42.37499" lon="2.09061">
        <ele>2606</ele>
        <time>2017-10-15T09:03:48.000Z</time>
      </trkpt>
      <trkpt lat="42.37499" lon="2.09062">
        <ele>2606</ele>
        <time>2017-10-15T09:03:49.000Z</time>
      </trkpt>
      <trkpt lat="42.37499" lon="2.09064">
        <ele>2606</ele>
        <time>2017-10-15T09:03:50.000Z</time>
      </trkpt>
      <trkpt lat="42.37499" lon="2.09065">
        <ele>2606</ele>
        <time>2017-10-15T09:03:51.000Z</time>
      </trkpt>
      <trkpt lat="42.37499" lon="2.09066">
        <ele>2606</ele>
        <time>2017-10-15T09:03:52.000Z</time>
      </trkpt>
      <trkpt lat="42.37499" lon="2.09068">
        <ele>2606</ele>
        <time>2017-10-15T09:03:53.000Z</time>
      </trkpt>
      <trkpt lat="42.37499" lon="2.09069">
        <ele>2606</ele>
        <time>2017-10-15T09:03:54.000Z</time>
      </trkpt>
      <trkpt lat="42.37499" lon="2.0907">
        <ele>2606</ele>
        <time>2017-10-15T09:03:55.000Z</time>
      </trkpt>
      <trkpt lat="42.37499" lon="2.09071">
        <ele>2606</ele>
        <time>2017-10-15T09:03:56.000Z</time>
      </trkpt>
      <trkpt lat="42.37499" lon="2.09073">
        <ele>2606</ele>
        <time>2017-10-15T09:03:57.000Z</time>
      </trkpt>
      <trkpt lat="42.37499" lon="2.09074">
        <ele>2606</ele>
        <time>2017-10-15T09:03:58.000Z</time>
      </trkpt>
      <trkpt lat="42.37499" lon="2.09075">
        <ele>2606</ele>
        <time>2017-10-15T09:03:59.000Z</time>
      </trkpt>
      <trkpt lat="42.37499" lon="2.09077">
        <ele>2605</ele>
        <time>2017-10-15T09:04:00.000Z</time>
      </trkpt>
      <trkpt lat="42.375" lon="2.09078">
        <ele>2606</ele>
        <time>2017-10-15T09:04:01.000Z</time>
      </trkpt>
      <trkpt lat="42.375" lon="2.0908">
        <ele>2606</ele>
        <time>2017-10-15T09:04:02.000Z</time>
      </trkpt>
      <trkpt lat="42.375" lon="2.09081">
        <ele>2606</ele>
        <time>2017-10-15T09:04:03.000Z</time>
      </trkpt>
      <trkpt lat="42.375" lon="2.09082">
        <ele>2606</ele>
        <time>2017-10-15T09:04:04.000Z</time>
      </trkpt>
      <trkpt lat="42.375" lon="2.09084">
        <ele>2605</ele>
        <time>2017-10-15T09:04:05.000Z</time>
      </trkpt>
      <trkpt lat="42.375" lon="2.09085">
        <ele>2605</ele>
        <time>2017-10-15T09:04:06.000Z</time>
      </trkpt>
      <trkpt lat="42.375" lon="2.09087">
        <ele>2605</ele>
        <time>2017-10-15T09:04:07.000Z</time>
      </trkpt>
      <trkpt lat="42.375" lon="2.09088">
        <ele>2605</ele>
        <time>2017-10-15T09:04:08.000Z</time>
      </trkpt>
      <trkpt lat="42.375" lon="2.09089">
        <ele>2605</ele>
        <time>2017-10-15T09:04:09.000Z</time>
      </trkpt>
      <trkpt lat="42.375" lon="2.0909">
        <ele>2605</ele>
        <time>2017-10-15T09:04:10.000Z</time>
      </trkpt>
      <trkpt lat="42.37501" lon="2.09092">
        <ele>2605</ele>
        <time>2017-10-15T09:04:11.000Z</time>
      </trkpt>
      <trkpt lat="42.37501" lon="2.09093">
        <ele>2605</ele>
        <time>2017-10-15T09:04:12.000Z</time>
      </trkpt>
      <trkpt lat="42.37501" lon="2.09094">
        <ele>2605</ele>
        <time>2017-10-15T09:04:13.000Z</time>
      </trkpt>
      <trkpt lat="42.375" lon="2.09096">
        <ele>2605</ele>
        <time>2017-10-15T09:04:14.000Z</time>
      </trkpt>
      <trkpt lat="42.375" lon="2.09097">
        <ele>2605</ele>
        <time>2017-10-15T09:04:15.000Z</time>
      </trkpt>
      <trkpt lat="42.375" lon="2.09099">
        <ele>2605</ele>
        <time>2017-10-15T09:04:16.000Z</time>
      </trkpt>
      <trkpt lat="42.375" lon="2.091">
        <ele>2605</ele>
        <time>2017-10-15T09:04:17.000Z</time>
      </trkpt>
      <trkpt lat="42.375" lon="2.09101">
        <ele>2605</ele>
        <time>2017-10-15T09:04:18.000Z</time>
      </trkpt>
      <trkpt lat="42.375" lon="2.09103">
        <ele>2605</ele>
        <time>2017-10-15T09:04:19.000Z</time>
      </trkpt>
      <trkpt lat="42.375" lon="2.09104">
        <ele>2605</ele>
        <time>2017-10-15T09:04:20.000Z</time>
      </trkpt>
      <trkpt lat="42.37499" lon="2.09105">
        <ele>2605</ele>
        <time>2017-10-15T09:04:21.000Z</time>
      </trkpt>
      <trkpt lat="42.375" lon="2.09107">
        <ele>2605</ele>
        <time>2017-10-15T09:04:22.000Z</time>
      </trkpt>
      <trkpt lat="42.375" lon="2.09108">
        <ele>2605</ele>
        <time>2017-10-15T09:04:23.000Z</time>
      </trkpt>
      <trkpt lat="42.375" lon="2.09109">
        <ele>2605</ele>
        <time>2017-10-15T09:04:24.000Z</time>
      </trkpt>
      <trkpt lat="42.375" lon="2.09111">
        <ele>2605</ele>
        <time>2017-10-15T09:04:25.000Z</time>
      </trkpt>
      <trkpt lat="42.375" lon="2.09112">
        <ele>2605</ele>
        <time>2017-10-15T09:04:26.000Z</time>
      </trkpt>
      <trkpt lat="42.375" lon="2.09113">
        <ele>2605</ele>
        <time>2017-10-15T09:04:27.000Z</time>
      </trkpt>
      <trkpt lat="42.375" lon="2.09114">
        <ele>2605</ele>
        <time>2017-10-15T09:04:28.000Z</time>
      </trkpt>
      <trkpt lat="42.37501" lon="2.09114">
        <ele>2605</ele>
        <time>2017-10-15T09:04:29.000Z</time>
      </trkpt>
      <trkpt lat="42.37501" lon="2.09115">
        <ele>2605</ele>
        <time>2017-10-15T09:04:30.000Z</time>
      </trkpt>
      <trkpt lat="42.37501" lon="2.09116">
        <ele>2605</ele>
        <time>2017-10-15T09:04:31.000Z</time>
      </trkpt>
      <trkpt lat="42.37502" lon="2.09117">
        <ele>2605</ele>
        <time>2017-10-15T09:04:32.000Z</time>
      </trkpt>
      <trkpt lat="42.37502" lon="2.09119">
        <ele>2605</ele>
        <time>2017-10-15T09:04:33.000Z</time>
      </trkpt>
      <trkpt lat="42.37502" lon="2.0912">
        <ele>2605</ele>
        <time>2017-10-15T09:04:34.000Z</time>
      </trkpt>
      <trkpt lat="42.37502" lon="2.09121">
        <ele>2605</ele>
        <time>2017-10-15T09:04:35.000Z</time>
      </trkpt>
      <trkpt lat="42.37502" lon="2.09122">
        <ele>2605</ele>
        <time>2017-10-15T09:04:36.000Z</time>
      </trkpt>
      <trkpt lat="42.37503" lon="2.09123">
        <ele>2605</ele>
        <time>2017-10-15T09:04:37.000Z</time>
      </trkpt>
      <trkpt lat="42.37503" lon="2.09125">
        <ele>2604</ele>
        <time>2017-10-15T09:04:38.000Z</time>
      </trkpt>
      <trkpt lat="42.37503" lon="2.09126">
        <ele>2604</ele>
        <time>2017-10-15T09:04:39.000Z</time>
      </trkpt>
      <trkpt lat="42.37503" lon="2.09128">
        <ele>2604</ele>
        <time>2017-10-15T09:04:40.000Z</time>
      </trkpt>
      <trkpt lat="42.37503" lon="2.09129">
        <ele>2604</ele>
        <time>2017-10-15T09:04:41.000Z</time>
      </trkpt>
      <trkpt lat="42.37503" lon="2.0913">
        <ele>2604</ele>
        <time>2017-10-15T09:04:42.000Z</time>
      </trkpt>
      <trkpt lat="42.37503" lon="2.09131">
        <ele>2604</ele>
        <time>2017-10-15T09:04:43.000Z</time>
      </trkpt>
      <trkpt lat="42.37503" lon="2.09132">
        <ele>2604</ele>
        <time>2017-10-15T09:04:44.000Z</time>
      </trkpt>
      <trkpt lat="42.37503" lon="2.09133">
        <ele>2604</ele>
        <time>2017-10-15T09:04:45.000Z</time>
      </trkpt>
      <trkpt lat="42.37503" lon="2.09135">
        <ele>2604</ele>
        <time>2017-10-15T09:04:46.000Z</time>
      </trkpt>
      <trkpt lat="42.37503" lon="2.09136">
        <ele>2604</ele>
        <time>2017-10-15T09:04:47.000Z</time>
      </trkpt>
      <trkpt lat="42.37503" lon="2.09137">
        <ele>2604</ele>
        <time>2017-10-15T09:04:48.000Z</time>
      </trkpt>
      <trkpt lat="42.37503" lon="2.09138">
        <ele>2604</ele>
        <time>2017-10-15T09:04:49.000Z</time>
      </trkpt>
      <trkpt lat="42.37503" lon="2.0914">
        <ele>2604</ele>
        <time>2017-10-15T09:04:50.000Z</time>
      </trkpt>
      <trkpt lat="42.37504" lon="2.09141">
        <ele>2604</ele>
        <time>2017-10-15T09:04:51.000Z</time>
      </trkpt>
      <trkpt lat="42.37504" lon="2.09142">
        <ele>2604</ele>
        <time>2017-10-15T09:04:52.000Z</time>
      </trkpt>
      <trkpt lat="42.37504" lon="2.09143">
        <ele>2604</ele>
        <time>2017-10-15T09:04:53.000Z</time>
      </trkpt>
      <trkpt lat="42.37504" lon="2.09145">
        <ele>2604</ele>
        <time>2017-10-15T09:04:54.000Z</time>
      </trkpt>
      <trkpt lat="42.37504" lon="2.09146">
        <ele>2604</ele>
        <time>2017-10-15T09:04:55.000Z</time>
      </trkpt>
      <trkpt lat="42.37504" lon="2.09147">
        <ele>2604</ele>
        <time>2017-10-15T09:04:56.000Z</time>
      </trkpt>
      <trkpt lat="42.37504" lon="2.09149">
        <ele>2604</ele>
        <time>2017-10-15T09:04:57.000Z</time>
      </trkpt>
      <trkpt lat="42.37504" lon="2.0915">
        <ele>2604</ele>
        <time>2017-10-15T09:04:58.000Z</time>
      </trkpt>
      <trkpt lat="42.37504" lon="2.09151">
        <ele>2604</ele>
        <time>2017-10-15T09:04:59.000Z</time>
      </trkpt>
      <trkpt lat="42.37504" lon="2.09152">
        <ele>2604</ele>
        <time>2017-10-15T09:05:00.000Z</time>
      </trkpt>
      <trkpt lat="42.37504" lon="2.09153">
        <ele>2604</ele>
        <time>2017-10-15T09:05:01.000Z</time>
      </trkpt>
      <trkpt lat="42.37504" lon="2.09155">
        <ele>2604</ele>
        <time>2017-10-15T09:05:02.000Z</time>
      </trkpt>
      <trkpt lat="42.37504" lon="2.09156">
        <ele>2604</ele>
        <time>2017-10-15T09:05:03.000Z</time>
      </trkpt>
      <trkpt lat="42.37504" lon="2.09157">
        <ele>2604</ele>
        <time>2017-10-15T09:05:04.000Z</time>
      </trkpt>
      <trkpt lat="42.37504" lon="2.09158">
        <ele>2604</ele>
        <time>2017-10-15T09:05:05.000Z</time>
      </trkpt>
      <trkpt lat="42.37504" lon="2.0916">
        <ele>2604</ele>
        <time>2017-10-15T09:05:06.000Z</time>
      </trkpt>
      <trkpt lat="42.37504" lon="2.09161">
        <ele>2604</ele>
        <time>2017-10-15T09:05:07.000Z</time>
      </trkpt>
      <trkpt lat="42.37504" lon="2.09162">
        <ele>2604</ele>
        <time>2017-10-15T09:05:08.000Z</time>
      </trkpt>
      <trkpt lat="42.37505" lon="2.09164">
        <ele>2604</ele>
        <time>2017-10-15T09:05:09.000Z</time>
      </trkpt>
      <trkpt lat="42.37505" lon="2.09165">
        <ele>2604</ele>
        <time>2017-10-15T09:05:10.000Z</time>
      </trkpt>
      <trkpt lat="42.37505" lon="2.09166">
        <ele>2604</ele>
        <time>2017-10-15T09:05:11.000Z</time>
      </trkpt>
      <trkpt lat="42.37505" lon="2.09168">
        <ele>2604</ele>
        <time>2017-10-15T09:05:12.000Z</time>
      </trkpt>
      <trkpt lat="42.37506" lon="2.09169">
        <ele>2604</ele>
        <time>2017-10-15T09:05:13.000Z</time>
      </trkpt>
      <trkpt lat="42.37506" lon="2.0917">
        <ele>2604</ele>
        <time>2017-10-15T09:05:14.000Z</time>
      </trkpt>
      <trkpt lat="42.37506" lon="2.09171">
        <ele>2604</ele>
        <time>2017-10-15T09:05:15.000Z</time>
      </trkpt>
      <trkpt lat="42.37506" lon="2.09172">
        <ele>2604</ele>
        <time>2017-10-15T09:05:16.000Z</time>
      </trkpt>
      <trkpt lat="42.37506" lon="2.09174">
        <ele>2604</ele>
        <time>2017-10-15T09:05:17.000Z</time>
      </trkpt>
      <trkpt lat="42.37506" lon="2.09175">
        <ele>2604</ele>
        <time>2017-10-15T09:05:18.000Z</time>
      </trkpt>
      <trkpt lat="42.37506" lon="2.09176">
        <ele>2604</ele>
        <time>2017-10-15T09:05:19.000Z</time>
      </trkpt>
      <trkpt lat="42.37507" lon="2.09177">
        <ele>2604</ele>
        <time>2017-10-15T09:05:20.000Z</time>
      </trkpt>
      <trkpt lat="42.37507" lon="2.09179">
        <ele>2604</ele>
        <time>2017-10-15T09:05:21.000Z</time>
      </trkpt>
      <trkpt lat="42.37507" lon="2.0918">
        <ele>2604</ele>
        <time>2017-10-15T09:05:22.000Z</time>
      </trkpt>
      <trkpt lat="42.37508" lon="2.09181">
        <ele>2604</ele>
        <time>2017-10-15T09:05:23.000Z</time>
      </trkpt>
      <trkpt lat="42.37508" lon="2.09182">
        <ele>2604</ele>
        <time>2017-10-15T09:05:24.000Z</time>
      </trkpt>
      <trkpt lat="42.37509" lon="2.09184">
        <ele>2604</ele>
        <time>2017-10-15T09:05:25.000Z</time>
      </trkpt>
      <trkpt lat="42.37509" lon="2.09185">
        <ele>2604</ele>
        <time>2017-10-15T09:05:26.000Z</time>
      </trkpt>
      <trkpt lat="42.3751" lon="2.09186">
        <ele>2604</ele>
        <time>2017-10-15T09:05:27.000Z</time>
      </trkpt>
      <trkpt lat="42.3751" lon="2.09187">
        <ele>2604</ele>
        <time>2017-10-15T09:05:28.000Z</time>
      </trkpt>
      <trkpt lat="42.37511" lon="2.09189">
        <ele>2604</ele>
        <time>2017-10-15T09:05:29.000Z</time>
      </trkpt>
      <trkpt lat="42.37512" lon="2.0919">
        <ele>2604</ele>
        <time>2017-10-15T09:05:30.000Z</time>
      </trkpt>
      <trkpt lat="42.37512" lon="2.09191">
        <ele>2604</ele>
        <time>2017-10-15T09:05:31.000Z</time>
      </trkpt>
      <trkpt lat="42.37512" lon="2.09193">
        <ele>2604</ele>
        <time>2017-10-15T09:05:32.000Z</time>
      </trkpt>
      <trkpt lat="42.37512" lon="2.09194">
        <ele>2604</ele>
        <time>2017-10-15T09:05:33.000Z</time>
      </trkpt>
      <trkpt lat="42.37513" lon="2.09195">
        <ele>2604</ele>
        <time>2017-10-15T09:05:34.000Z</time>
      </trkpt>
      <trkpt lat="42.37513" lon="2.09196">
        <ele>2604</ele>
        <time>2017-10-15T09:05:35.000Z</time>
      </trkpt>
      <trkpt lat="42.37513" lon="2.09198">
        <ele>2604</ele>
        <time>2017-10-15T09:05:36.000Z</time>
      </trkpt>
      <trkpt lat="42.37513" lon="2.09199">
        <ele>2604</ele>
        <time>2017-10-15T09:05:37.000Z</time>
      </trkpt>
      <trkpt lat="42.37514" lon="2.092">
        <ele>2604</ele>
        <time>2017-10-15T09:05:38.000Z</time>
      </trkpt>
      <trkpt lat="42.37514" lon="2.09201">
        <ele>2604</ele>
        <time>2017-10-15T09:05:39.000Z</time>
      </trkpt>
      <trkpt lat="42.37515" lon="2.09202">
        <ele>2604</ele>
        <time>2017-10-15T09:05:40.000Z</time>
      </trkpt>
      <trkpt lat="42.37515" lon="2.09203">
        <ele>2604</ele>
        <time>2017-10-15T09:05:41.000Z</time>
      </trkpt>
      <trkpt lat="42.37516" lon="2.09205">
        <ele>2604</ele>
        <time>2017-10-15T09:05:42.000Z</time>
      </trkpt>
      <trkpt lat="42.37516" lon="2.09206">
        <ele>2604</ele>
        <time>2017-10-15T09:05:43.000Z</time>
      </trkpt>
      <trkpt lat="42.37516" lon="2.09208">
        <ele>2604</ele>
        <time>2017-10-15T09:05:44.000Z</time>
      </trkpt>
      <trkpt lat="42.37516" lon="2.09209">
        <ele>2604</ele>
        <time>2017-10-15T09:05:45.000Z</time>
      </trkpt>
      <trkpt lat="42.37517" lon="2.09211">
        <ele>2604</ele>
        <time>2017-10-15T09:05:46.000Z</time>
      </trkpt>
      <trkpt lat="42.37517" lon="2.09212">
        <ele>2604</ele>
        <time>2017-10-15T09:05:47.000Z</time>
      </trkpt>
      <trkpt lat="42.37517" lon="2.09213">
        <ele>2604</ele>
        <time>2017-10-15T09:05:48.000Z</time>
      </trkpt>
      <trkpt lat="42.37517" lon="2.09214">
        <ele>2604</ele>
        <time>2017-10-15T09:05:49.000Z</time>
      </trkpt>
      <trkpt lat="42.37518" lon="2.09215">
        <ele>2604</ele>
        <time>2017-10-15T09:05:50.000Z</time>
      </trkpt>
      <trkpt lat="42.37518" lon="2.09216">
        <ele>2604</ele>
        <time>2017-10-15T09:05:51.000Z</time>
      </trkpt>
      <trkpt lat="42.37519" lon="2.09218">
        <ele>2604</ele>
        <time>2017-10-15T09:05:52.000Z</time>
      </trkpt>
      <trkpt lat="42.37519" lon="2.09219">
        <ele>2604</ele>
        <time>2017-10-15T09:05:53.000Z</time>
      </trkpt>
      <trkpt lat="42.37519" lon="2.0922">
        <ele>2604</ele>
        <time>2017-10-15T09:05:54.000Z</time>
      </trkpt>
      <trkpt lat="42.3752" lon="2.09221">
        <ele>2603</ele>
        <time>2017-10-15T09:05:55.000Z</time>
      </trkpt>
      <trkpt lat="42.37521" lon="2.09222">
        <ele>2603</ele>
        <time>2017-10-15T09:05:56.000Z</time>
      </trkpt>
      <trkpt lat="42.37521" lon="2.09223">
        <ele>2603</ele>
        <time>2017-10-15T09:05:57.000Z</time>
      </trkpt>
      <trkpt lat="42.37522" lon="2.09224">
        <ele>2603</ele>
        <time>2017-10-15T09:05:58.000Z</time>
      </trkpt>
      <trkpt lat="42.37523" lon="2.09225">
        <ele>2603</ele>
        <time>2017-10-15T09:05:59.000Z</time>
      </trkpt>
      <trkpt lat="42.37523" lon="2.09226">
        <ele>2603</ele>
        <time>2017-10-15T09:06:00.000Z</time>
      </trkpt>
      <trkpt lat="42.37524" lon="2.09227">
        <ele>2603</ele>
        <time>2017-10-15T09:06:01.000Z</time>
      </trkpt>
      <trkpt lat="42.37525" lon="2.09228">
        <ele>2603</ele>
        <time>2017-10-15T09:06:02.000Z</time>
      </trkpt>
      <trkpt lat="42.37526" lon="2.09229">
        <ele>2603</ele>
        <time>2017-10-15T09:06:03.000Z</time>
      </trkpt>
      <trkpt lat="42.37527" lon="2.0923">
        <ele>2603</ele>
        <time>2017-10-15T09:06:04.000Z</time>
      </trkpt>
      <trkpt lat="42.37527" lon="2.09231">
        <ele>2603</ele>
        <time>2017-10-15T09:06:05.000Z</time>
      </trkpt>
      <trkpt lat="42.37528" lon="2.09232">
        <ele>2603</ele>
        <time>2017-10-15T09:06:06.000Z</time>
      </trkpt>
      <trkpt lat="42.37528" lon="2.09233">
        <ele>2603</ele>
        <time>2017-10-15T09:06:07.000Z</time>
      </trkpt>
      <trkpt lat="42.37529" lon="2.09235">
        <ele>2603</ele>
        <time>2017-10-15T09:06:08.000Z</time>
      </trkpt>
      <trkpt lat="42.37529" lon="2.09236">
        <ele>2603</ele>
        <time>2017-10-15T09:06:09.000Z</time>
      </trkpt>
      <trkpt lat="42.37529" lon="2.09239">
        <ele>2603</ele>
        <time>2017-10-15T09:06:10.000Z</time>
      </trkpt>
      <trkpt lat="42.37529" lon="2.09241">
        <ele>2603</ele>
        <time>2017-10-15T09:06:11.000Z</time>
      </trkpt>
      <trkpt lat="42.3753" lon="2.09242">
        <ele>2603</ele>
        <time>2017-10-15T09:06:12.000Z</time>
      </trkpt>
      <trkpt lat="42.3753" lon="2.09243">
        <ele>2603</ele>
        <time>2017-10-15T09:06:13.000Z</time>
      </trkpt>
      <trkpt lat="42.3753" lon="2.09244">
        <ele>2603</ele>
        <time>2017-10-15T09:06:14.000Z</time>
      </trkpt>
      <trkpt lat="42.37531" lon="2.09247">
        <ele>2603</ele>
        <time>2017-10-15T09:06:16.000Z</time>
      </trkpt>
      <trkpt lat="42.37531" lon="2.09248">
        <ele>2603</ele>
        <time>2017-10-15T09:06:17.000Z</time>
      </trkpt>
      <trkpt lat="42.37531" lon="2.09249">
        <ele>2603</ele>
        <time>2017-10-15T09:06:18.000Z</time>
      </trkpt>
      <trkpt lat="42.37532" lon="2.09251">
        <ele>2603</ele>
        <time>2017-10-15T09:06:20.000Z</time>
      </trkpt>
      <trkpt lat="42.37532" lon="2.09253">
        <ele>2604</ele>
        <time>2017-10-15T09:06:21.000Z</time>
      </trkpt>
      <trkpt lat="42.37532" lon="2.09254">
        <ele>2604</ele>
        <time>2017-10-15T09:06:22.000Z</time>
      </trkpt>
      <trkpt lat="42.37532" lon="2.09255">
        <ele>2604</ele>
        <time>2017-10-15T09:06:23.000Z</time>
      </trkpt>
      <trkpt lat="42.37533" lon="2.09256">
        <ele>2604</ele>
        <time>2017-10-15T09:06:24.000Z</time>
      </trkpt>
      <trkpt lat="42.37533" lon="2.09258">
        <ele>2604</ele>
        <time>2017-10-15T09:06:25.000Z</time>
      </trkpt>
      <trkpt lat="42.37533" lon="2.0926">
        <ele>2604</ele>
        <time>2017-10-15T09:06:27.000Z</time>
      </trkpt>
      <trkpt lat="42.37533" lon="2.09261">
        <ele>2604</ele>
        <time>2017-10-15T09:06:28.000Z</time>
      </trkpt>
      <trkpt lat="42.37533" lon="2.09263">
        <ele>2605</ele>
        <time>2017-10-15T09:06:29.000Z</time>
      </trkpt>
      <trkpt lat="42.37534" lon="2.09264">
        <ele>2605</ele>
        <time>2017-10-15T09:06:30.000Z</time>
      </trkpt>
      <trkpt lat="42.37534" lon="2.09265">
        <ele>2605</ele>
        <time>2017-10-15T09:06:32.000Z</time>
      </trkpt>
      <trkpt lat="42.37534" lon="2.09266">
        <ele>2605</ele>
        <time>2017-10-15T09:06:33.000Z</time>
      </trkpt>
      <trkpt lat="42.37535" lon="2.09268">
        <ele>2605</ele>
        <time>2017-10-15T09:06:34.000Z</time>
      </trkpt>
      <trkpt lat="42.37535" lon="2.09269">
        <ele>2605</ele>
        <time>2017-10-15T09:06:35.000Z</time>
      </trkpt>
      <trkpt lat="42.37535" lon="2.0927">
        <ele>2605</ele>
        <time>2017-10-15T09:06:36.000Z</time>
      </trkpt>
      <trkpt lat="42.37535" lon="2.09271">
        <ele>2605</ele>
        <time>2017-10-15T09:06:37.000Z</time>
      </trkpt>
      <trkpt lat="42.37535" lon="2.09272">
        <ele>2606</ele>
        <time>2017-10-15T09:06:38.000Z</time>
      </trkpt>
      <trkpt lat="42.37535" lon="2.09274">
        <ele>2606</ele>
        <time>2017-10-15T09:06:39.000Z</time>
      </trkpt>
      <trkpt lat="42.37536" lon="2.09275">
        <ele>2606</ele>
        <time>2017-10-15T09:06:40.000Z</time>
      </trkpt>
      <trkpt lat="42.37536" lon="2.09276">
        <ele>2606</ele>
        <time>2017-10-15T09:06:41.000Z</time>
      </trkpt>
      <trkpt lat="42.37536" lon="2.09277">
        <ele>2606</ele>
        <time>2017-10-15T09:06:42.000Z</time>
      </trkpt>
      <trkpt lat="42.37537" lon="2.09279">
        <ele>2606</ele>
        <time>2017-10-15T09:06:43.000Z</time>
      </trkpt>
      <trkpt lat="42.37537" lon="2.0928">
        <ele>2606</ele>
        <time>2017-10-15T09:06:44.000Z</time>
      </trkpt>
      <trkpt lat="42.37537" lon="2.09281">
        <ele>2607</ele>
        <time>2017-10-15T09:06:45.000Z</time>
      </trkpt>
      <trkpt lat="42.37537" lon="2.09283">
        <ele>2607</ele>
        <time>2017-10-15T09:06:46.000Z</time>
      </trkpt>
      <trkpt lat="42.37537" lon="2.09284">
        <ele>2607</ele>
        <time>2017-10-15T09:06:47.000Z</time>
      </trkpt>
      <trkpt lat="42.37537" lon="2.09285">
        <ele>2607</ele>
        <time>2017-10-15T09:06:48.000Z</time>
      </trkpt>
      <trkpt lat="42.37538" lon="2.09285">
        <ele>2607</ele>
        <time>2017-10-15T09:06:49.000Z</time>
      </trkpt>
      <trkpt lat="42.37539" lon="2.09286">
        <ele>2607</ele>
        <time>2017-10-15T09:06:51.000Z</time>
      </trkpt>
      <trkpt lat="42.37539" lon="2.09287">
        <ele>2607</ele>
        <time>2017-10-15T09:06:52.000Z</time>
      </trkpt>
      <trkpt lat="42.37539" lon="2.09289">
        <ele>2607</ele>
        <time>2017-10-15T09:06:53.000Z</time>
      </trkpt>
      <trkpt lat="42.37539" lon="2.09291">
        <ele>2607</ele>
        <time>2017-10-15T09:06:55.000Z</time>
      </trkpt>
      <trkpt lat="42.37539" lon="2.09293">
        <ele>2607</ele>
        <time>2017-10-15T09:06:56.000Z</time>
      </trkpt>
      <trkpt lat="42.3754" lon="2.09295">
        <ele>2607</ele>
        <time>2017-10-15T09:06:58.000Z</time>
      </trkpt>
      <trkpt lat="42.37541" lon="2.09297">
        <ele>2607</ele>
        <time>2017-10-15T09:07:00.000Z</time>
      </trkpt>
      <trkpt lat="42.37542" lon="2.09298">
        <ele>2607</ele>
        <time>2017-10-15T09:07:02.000Z</time>
      </trkpt>
      <trkpt lat="42.37543" lon="2.09299">
        <ele>2607</ele>
        <time>2017-10-15T09:07:03.000Z</time>
      </trkpt>
      <trkpt lat="42.37544" lon="2.093">
        <ele>2606</ele>
        <time>2017-10-15T09:07:04.000Z</time>
      </trkpt>
      <trkpt lat="42.37545" lon="2.09301">
        <ele>2606</ele>
        <time>2017-10-15T09:07:06.000Z</time>
      </trkpt>
      <trkpt lat="42.37546" lon="2.09303">
        <ele>2606</ele>
        <time>2017-10-15T09:07:07.000Z</time>
      </trkpt>
      <trkpt lat="42.37547" lon="2.09303">
        <ele>2606</ele>
        <time>2017-10-15T09:07:09.000Z</time>
      </trkpt>
      <trkpt lat="42.37547" lon="2.09304">
        <ele>2606</ele>
        <time>2017-10-15T09:07:10.000Z</time>
      </trkpt>
      <trkpt lat="42.37549" lon="2.09305">
        <ele>2606</ele>
        <time>2017-10-15T09:07:11.000Z</time>
      </trkpt>
      <trkpt lat="42.37549" lon="2.09306">
        <ele>2606</ele>
        <time>2017-10-15T09:07:13.000Z</time>
      </trkpt>
      <trkpt lat="42.37549" lon="2.09306">
        <ele>2606</ele>
        <time>2017-10-15T09:07:14.000Z</time>
      </trkpt>
      <trkpt lat="42.3755" lon="2.09307">
        <ele>2606</ele>
        <time>2017-10-15T09:07:15.000Z</time>
      </trkpt>
      <trkpt lat="42.37551" lon="2.09309">
        <ele>2606</ele>
        <time>2017-10-15T09:07:16.000Z</time>
      </trkpt>
      <trkpt lat="42.37552" lon="2.0931">
        <ele>2606</ele>
        <time>2017-10-15T09:07:18.000Z</time>
      </trkpt>
      <trkpt lat="42.37552" lon="2.09312">
        <ele>2606</ele>
        <time>2017-10-15T09:07:19.000Z</time>
      </trkpt>
      <trkpt lat="42.37551" lon="2.09313">
        <ele>2606</ele>
        <time>2017-10-15T09:07:21.000Z</time>
      </trkpt>
      <trkpt lat="42.37551" lon="2.09313">
        <ele>2606</ele>
        <time>2017-10-15T09:07:22.000Z</time>
      </trkpt>
      <trkpt lat="42.37551" lon="2.09315">
        <ele>2606</ele>
        <time>2017-10-15T09:07:23.000Z</time>
      </trkpt>
      <trkpt lat="42.37551" lon="2.09316">
        <ele>2606</ele>
        <time>2017-10-15T09:07:24.000Z</time>
      </trkpt>
      <trkpt lat="42.37551" lon="2.09316">
        <ele>2606</ele>
        <time>2017-10-15T09:07:26.000Z</time>
      </trkpt>
      <trkpt lat="42.37551" lon="2.09317">
        <ele>2606</ele>
        <time>2017-10-15T09:07:27.000Z</time>
      </trkpt>
      <trkpt lat="42.3755" lon="2.09319">
        <ele>2606</ele>
        <time>2017-10-15T09:07:28.000Z</time>
      </trkpt>
      <trkpt lat="42.3755" lon="2.09321">
        <ele>2606</ele>
        <time>2017-10-15T09:07:30.000Z</time>
      </trkpt>
      <trkpt lat="42.3755" lon="2.09322">
        <ele>2606</ele>
        <time>2017-10-15T09:07:31.000Z</time>
      </trkpt>
      <trkpt lat="42.3755" lon="2.09322">
        <ele>2606</ele>
        <time>2017-10-15T09:07:32.000Z</time>
      </trkpt>
      <trkpt lat="42.3755" lon="2.09323">
        <ele>2606</ele>
        <time>2017-10-15T09:07:33.000Z</time>
      </trkpt>
      <trkpt lat="42.3755" lon="2.09324">
        <ele>2606</ele>
        <time>2017-10-15T09:07:34.000Z</time>
      </trkpt>
      <trkpt lat="42.37551" lon="2.09325">
        <ele>2606</ele>
        <time>2017-10-15T09:07:35.000Z</time>
      </trkpt>
      <trkpt lat="42.3755" lon="2.09327">
        <ele>2607</ele>
        <time>2017-10-15T09:07:37.000Z</time>
      </trkpt>
      <trkpt lat="42.3755" lon="2.09328">
        <ele>2607</ele>
        <time>2017-10-15T09:07:38.000Z</time>
      </trkpt>
      <trkpt lat="42.3755" lon="2.09329">
        <ele>2607</ele>
        <time>2017-10-15T09:07:40.000Z</time>
      </trkpt>
      <trkpt lat="42.37551" lon="2.09331">
        <ele>2607</ele>
        <time>2017-10-15T09:07:42.000Z</time>
      </trkpt>
      <trkpt lat="42.37551" lon="2.09332">
        <ele>2607</ele>
        <time>2017-10-15T09:07:44.000Z</time>
      </trkpt>
      <trkpt lat="42.37551" lon="2.09334">
        <ele>2608</ele>
        <time>2017-10-15T09:07:45.000Z</time>
      </trkpt>
      <trkpt lat="42.37551" lon="2.09335">
        <ele>2608</ele>
        <time>2017-10-15T09:07:46.000Z</time>
      </trkpt>
      <trkpt lat="42.37552" lon="2.09336">
        <ele>2608</ele>
        <time>2017-10-15T09:07:48.000Z</time>
      </trkpt>
      <trkpt lat="42.37553" lon="2.09337">
        <ele>2608</ele>
        <time>2017-10-15T09:07:50.000Z</time>
      </trkpt>
      <trkpt lat="42.37553" lon="2.09338">
        <ele>2608</ele>
        <time>2017-10-15T09:07:51.000Z</time>
      </trkpt>
      <trkpt lat="42.37553" lon="2.09338">
        <ele>2608</ele>
        <time>2017-10-15T09:07:52.000Z</time>
      </trkpt>
      <trkpt lat="42.37553" lon="2.09339">
        <ele>2608</ele>
        <time>2017-10-15T09:07:53.000Z</time>
      </trkpt>
      <trkpt lat="42.37553" lon="2.0934">
        <ele>2609</ele>
        <time>2017-10-15T09:07:54.000Z</time>
      </trkpt>
      <trkpt lat="42.37553" lon="2.09341">
        <ele>2609</ele>
        <time>2017-10-15T09:07:55.000Z</time>
      </trkpt>
      <trkpt lat="42.37554" lon="2.09342">
        <ele>2609</ele>
        <time>2017-10-15T09:07:56.000Z</time>
      </trkpt>
      <trkpt lat="42.37554" lon="2.09344">
        <ele>2609</ele>
        <time>2017-10-15T09:07:58.000Z</time>
      </trkpt>
      <trkpt lat="42.37554" lon="2.09344">
        <ele>2609</ele>
        <time>2017-10-15T09:07:59.000Z</time>
      </trkpt>
      <trkpt lat="42.37554" lon="2.09345">
        <ele>2609</ele>
        <time>2017-10-15T09:08:00.000Z</time>
      </trkpt>
      <trkpt lat="42.37554" lon="2.09346">
        <ele>2609</ele>
        <time>2017-10-15T09:08:01.000Z</time>
      </trkpt>
      <trkpt lat="42.37554" lon="2.09346">
        <ele>2609</ele>
        <time>2017-10-15T09:08:02.000Z</time>
      </trkpt>
      <trkpt lat="42.37554" lon="2.09347">
        <ele>2610</ele>
        <time>2017-10-15T09:08:03.000Z</time>
      </trkpt>
      <trkpt lat="42.37554" lon="2.09349">
        <ele>2610</ele>
        <time>2017-10-15T09:08:05.000Z</time>
      </trkpt>
      <trkpt lat="42.37554" lon="2.0935">
        <ele>2610</ele>
        <time>2017-10-15T09:08:06.000Z</time>
      </trkpt>
      <trkpt lat="42.37554" lon="2.09351">
        <ele>2610</ele>
        <time>2017-10-15T09:08:07.000Z</time>
      </trkpt>
      <trkpt lat="42.37553" lon="2.09351">
        <ele>2610</ele>
        <time>2017-10-15T09:08:08.000Z</time>
      </trkpt>
      <trkpt lat="42.37553" lon="2.09352">
        <ele>2610</ele>
        <time>2017-10-15T09:08:10.000Z</time>
      </trkpt>
      <trkpt lat="42.37553" lon="2.09353">
        <ele>2610</ele>
        <time>2017-10-15T09:08:11.000Z</time>
      </trkpt>
      <trkpt lat="42.37553" lon="2.09353">
        <ele>2611</ele>
        <time>2017-10-15T09:08:12.000Z</time>
      </trkpt>
      <trkpt lat="42.37552" lon="2.09354">
        <ele>2611</ele>
        <time>2017-10-15T09:08:13.000Z</time>
      </trkpt>
      <trkpt lat="42.37552" lon="2.09355">
        <ele>2611</ele>
        <time>2017-10-15T09:08:14.000Z</time>
      </trkpt>
      <trkpt lat="42.37551" lon="2.09356">
        <ele>2611</ele>
        <time>2017-10-15T09:08:15.000Z</time>
      </trkpt>
      <trkpt lat="42.3755" lon="2.09357">
        <ele>2611</ele>
        <time>2017-10-15T09:08:16.000Z</time>
      </trkpt>
      <trkpt lat="42.3755" lon="2.09358">
        <ele>2611</ele>
        <time>2017-10-15T09:08:18.000Z</time>
      </trkpt>
      <trkpt lat="42.3755" lon="2.09359">
        <ele>2612</ele>
        <time>2017-10-15T09:08:19.000Z</time>
      </trkpt>
      <trkpt lat="42.3755" lon="2.0936">
        <ele>2612</ele>
        <time>2017-10-15T09:08:20.000Z</time>
      </trkpt>
      <trkpt lat="42.3755" lon="2.09361">
        <ele>2612</ele>
        <time>2017-10-15T09:08:22.000Z</time>
      </trkpt>
      <trkpt lat="42.3755" lon="2.09362">
        <ele>2612</ele>
        <time>2017-10-15T09:08:23.000Z</time>
      </trkpt>
      <trkpt lat="42.37549" lon="2.09363">
        <ele>2612</ele>
        <time>2017-10-15T09:08:24.000Z</time>
      </trkpt>
      <trkpt lat="42.37549" lon="2.09363">
        <ele>2612</ele>
        <time>2017-10-15T09:08:25.000Z</time>
      </trkpt>
      <trkpt lat="42.37549" lon="2.09364">
        <ele>2612</ele>
        <time>2017-10-15T09:08:26.000Z</time>
      </trkpt>
      <trkpt lat="42.37549" lon="2.09365">
        <ele>2613</ele>
        <time>2017-10-15T09:08:27.000Z</time>
      </trkpt>
      <trkpt lat="42.37549" lon="2.09366">
        <ele>2613</ele>
        <time>2017-10-15T09:08:28.000Z</time>
      </trkpt>
      <trkpt lat="42.37549" lon="2.09367">
        <ele>2613</ele>
        <time>2017-10-15T09:08:29.000Z</time>
      </trkpt>
      <trkpt lat="42.37549" lon="2.09368">
        <ele>2613</ele>
        <time>2017-10-15T09:08:30.000Z</time>
      </trkpt>
      <trkpt lat="42.3755" lon="2.09369">
        <ele>2613</ele>
        <time>2017-10-15T09:08:31.000Z</time>
      </trkpt>
      <trkpt lat="42.37549" lon="2.0937">
        <ele>2613</ele>
        <time>2017-10-15T09:08:32.000Z</time>
      </trkpt>
      <trkpt lat="42.37549" lon="2.0937">
        <ele>2613</ele>
        <time>2017-10-15T09:08:33.000Z</time>
      </trkpt>
      <trkpt lat="42.37549" lon="2.09371">
        <ele>2614</ele>
        <time>2017-10-15T09:08:34.000Z</time>
      </trkpt>
      <trkpt lat="42.37549" lon="2.09372">
        <ele>2614</ele>
        <time>2017-10-15T09:08:35.000Z</time>
      </trkpt>
      <trkpt lat="42.37549" lon="2.09373">
        <ele>2614</ele>
        <time>2017-10-15T09:08:36.000Z</time>
      </trkpt>
      <trkpt lat="42.37549" lon="2.09373">
        <ele>2614</ele>
        <time>2017-10-15T09:08:37.000Z</time>
      </trkpt>
      <trkpt lat="42.37549" lon="2.09374">
        <ele>2614</ele>
        <time>2017-10-15T09:08:38.000Z</time>
      </trkpt>
      <trkpt lat="42.37549" lon="2.09375">
        <ele>2614</ele>
        <time>2017-10-15T09:08:39.000Z</time>
      </trkpt>
      <trkpt lat="42.37549" lon="2.09376">
        <ele>2614</ele>
        <time>2017-10-15T09:08:40.000Z</time>
      </trkpt>
      <trkpt lat="42.37549" lon="2.09377">
        <ele>2614</ele>
        <time>2017-10-15T09:08:41.000Z</time>
      </trkpt>
      <trkpt lat="42.37549" lon="2.09377">
        <ele>2614</ele>
        <time>2017-10-15T09:08:42.000Z</time>
      </trkpt>
      <trkpt lat="42.37549" lon="2.09378">
        <ele>2614</ele>
        <time>2017-10-15T09:08:43.000Z</time>
      </trkpt>
      <trkpt lat="42.37549" lon="2.09379">
        <ele>2614</ele>
        <time>2017-10-15T09:08:44.000Z</time>
      </trkpt>
      <trkpt lat="42.37549" lon="2.0938">
        <ele>2614</ele>
        <time>2017-10-15T09:08:45.000Z</time>
      </trkpt>
      <trkpt lat="42.37549" lon="2.09381">
        <ele>2614</ele>
        <time>2017-10-15T09:08:46.000Z</time>
      </trkpt>
      <trkpt lat="42.37549" lon="2.09382">
        <ele>2614</ele>
        <time>2017-10-15T09:08:47.000Z</time>
      </trkpt>
      <trkpt lat="42.37548" lon="2.09383">
        <ele>2614</ele>
        <time>2017-10-15T09:08:48.000Z</time>
      </trkpt>
      <trkpt lat="42.37548" lon="2.09384">
        <ele>2614</ele>
        <time>2017-10-15T09:08:49.000Z</time>
      </trkpt>
      <trkpt lat="42.37549" lon="2.09385">
        <ele>2614</ele>
        <time>2017-10-15T09:08:50.000Z</time>
      </trkpt>
      <trkpt lat="42.37548" lon="2.09386">
        <ele>2614</ele>
        <time>2017-10-15T09:08:51.000Z</time>
      </trkpt>
      <trkpt lat="42.37548" lon="2.09387">
        <ele>2614</ele>
        <time>2017-10-15T09:08:52.000Z</time>
      </trkpt>
      <trkpt lat="42.37548" lon="2.09389">
        <ele>2614</ele>
        <time>2017-10-15T09:08:53.000Z</time>
      </trkpt>
      <trkpt lat="42.37548" lon="2.0939">
        <ele>2614</ele>
        <time>2017-10-15T09:08:54.000Z</time>
      </trkpt>
      <trkpt lat="42.37547" lon="2.0939">
        <ele>2614</ele>
        <time>2017-10-15T09:08:55.000Z</time>
      </trkpt>
      <trkpt lat="42.37547" lon="2.09391">
        <ele>2614</ele>
        <time>2017-10-15T09:08:56.000Z</time>
      </trkpt>
      <trkpt lat="42.37547" lon="2.09392">
        <ele>2614</ele>
        <time>2017-10-15T09:08:57.000Z</time>
      </trkpt>
      <trkpt lat="42.37546" lon="2.09393">
        <ele>2614</ele>
        <time>2017-10-15T09:08:58.000Z</time>
      </trkpt>
      <trkpt lat="42.37546" lon="2.09394">
        <ele>2614</ele>
        <time>2017-10-15T09:08:59.000Z</time>
      </trkpt>
      <trkpt lat="42.37546" lon="2.09395">
        <ele>2613</ele>
        <time>2017-10-15T09:09:00.000Z</time>
      </trkpt>
      <trkpt lat="42.37546" lon="2.09396">
        <ele>2613</ele>
        <time>2017-10-15T09:09:01.000Z</time>
      </trkpt>
      <trkpt lat="42.37545" lon="2.09397">
        <ele>2613</ele>
        <time>2017-10-15T09:09:02.000Z</time>
      </trkpt>
      <trkpt lat="42.37545" lon="2.09397">
        <ele>2613</ele>
        <time>2017-10-15T09:09:03.000Z</time>
      </trkpt>
      <trkpt lat="42.37544" lon="2.09398">
        <ele>2613</ele>
        <time>2017-10-15T09:09:04.000Z</time>
      </trkpt>
      <trkpt lat="42.37544" lon="2.09399">
        <ele>2613</ele>
        <time>2017-10-15T09:09:05.000Z</time>
      </trkpt>
      <trkpt lat="42.37544" lon="2.094">
        <ele>2613</ele>
        <time>2017-10-15T09:09:06.000Z</time>
      </trkpt>
      <trkpt lat="42.37544" lon="2.09401">
        <ele>2613</ele>
        <time>2017-10-15T09:09:07.000Z</time>
      </trkpt>
      <trkpt lat="42.37544" lon="2.09402">
        <ele>2613</ele>
        <time>2017-10-15T09:09:08.000Z</time>
      </trkpt>
      <trkpt lat="42.37544" lon="2.09403">
        <ele>2613</ele>
        <time>2017-10-15T09:09:09.000Z</time>
      </trkpt>
      <trkpt lat="42.37544" lon="2.09404">
        <ele>2613</ele>
        <time>2017-10-15T09:09:10.000Z</time>
      </trkpt>
      <trkpt lat="42.37544" lon="2.09405">
        <ele>2613</ele>
        <time>2017-10-15T09:09:11.000Z</time>
      </trkpt>
      <trkpt lat="42.37544" lon="2.09407">
        <ele>2613</ele>
        <time>2017-10-15T09:09:12.000Z</time>
      </trkpt>
      <trkpt lat="42.37544" lon="2.09407">
        <ele>2613</ele>
        <time>2017-10-15T09:09:13.000Z</time>
      </trkpt>
      <trkpt lat="42.37544" lon="2.09408">
        <ele>2613</ele>
        <time>2017-10-15T09:09:14.000Z</time>
      </trkpt>
      <trkpt lat="42.37545" lon="2.09409">
        <ele>2613</ele>
        <time>2017-10-15T09:09:15.000Z</time>
      </trkpt>
      <trkpt lat="42.37545" lon="2.0941">
        <ele>2613</ele>
        <time>2017-10-15T09:09:16.000Z</time>
      </trkpt>
      <trkpt lat="42.37545" lon="2.09411">
        <ele>2613</ele>
        <time>2017-10-15T09:09:17.000Z</time>
      </trkpt>
      <trkpt lat="42.37545" lon="2.09411">
        <ele>2613</ele>
        <time>2017-10-15T09:09:18.000Z</time>
      </trkpt>
      <trkpt lat="42.37545" lon="2.09413">
        <ele>2613</ele>
        <time>2017-10-15T09:09:19.000Z</time>
      </trkpt>
      <trkpt lat="42.37546" lon="2.09413">
        <ele>2613</ele>
        <time>2017-10-15T09:09:20.000Z</time>
      </trkpt>
      <trkpt lat="42.37546" lon="2.09414">
        <ele>2613</ele>
        <time>2017-10-15T09:09:21.000Z</time>
      </trkpt>
      <trkpt lat="42.37546" lon="2.09415">
        <ele>2613</ele>
        <time>2017-10-15T09:09:22.000Z</time>
      </trkpt>
      <trkpt lat="42.37547" lon="2.09416">
        <ele>2613</ele>
        <time>2017-10-15T09:09:23.000Z</time>
      </trkpt>
      <trkpt lat="42.37548" lon="2.09417">
        <ele>2614</ele>
        <time>2017-10-15T09:09:24.000Z</time>
      </trkpt>
      <trkpt lat="42.37548" lon="2.09418">
        <ele>2614</ele>
        <time>2017-10-15T09:09:25.000Z</time>
      </trkpt>
      <trkpt lat="42.37549" lon="2.09419">
        <ele>2614</ele>
        <time>2017-10-15T09:09:26.000Z</time>
      </trkpt>
      <trkpt lat="42.37549" lon="2.0942">
        <ele>2614</ele>
        <time>2017-10-15T09:09:27.000Z</time>
      </trkpt>
      <trkpt lat="42.37549" lon="2.0942">
        <ele>2614</ele>
        <time>2017-10-15T09:09:28.000Z</time>
      </trkpt>
      <trkpt lat="42.37549" lon="2.09421">
        <ele>2614</ele>
        <time>2017-10-15T09:09:29.000Z</time>
      </trkpt>
      <trkpt lat="42.37549" lon="2.09422">
        <ele>2614</ele>
        <time>2017-10-15T09:09:30.000Z</time>
      </trkpt>
      <trkpt lat="42.37549" lon="2.09423">
        <ele>2615</ele>
        <time>2017-10-15T09:09:31.000Z</time>
      </trkpt>
      <trkpt lat="42.37549" lon="2.09425">
        <ele>2615</ele>
        <time>2017-10-15T09:09:32.000Z</time>
      </trkpt>
      <trkpt lat="42.37549" lon="2.09425">
        <ele>2615</ele>
        <time>2017-10-15T09:09:33.000Z</time>
      </trkpt>
      <trkpt lat="42.37548" lon="2.09427">
        <ele>2615</ele>
        <time>2017-10-15T09:09:34.000Z</time>
      </trkpt>
      <trkpt lat="42.37549" lon="2.09428">
        <ele>2615</ele>
        <time>2017-10-15T09:09:35.000Z</time>
      </trkpt>
      <trkpt lat="42.37549" lon="2.09429">
        <ele>2615</ele>
        <time>2017-10-15T09:09:36.000Z</time>
      </trkpt>
      <trkpt lat="42.37549" lon="2.0943">
        <ele>2615</ele>
        <time>2017-10-15T09:09:37.000Z</time>
      </trkpt>
      <trkpt lat="42.37549" lon="2.09431">
        <ele>2615</ele>
        <time>2017-10-15T09:09:38.000Z</time>
      </trkpt>
      <trkpt lat="42.37549" lon="2.09432">
        <ele>2615</ele>
        <time>2017-10-15T09:09:39.000Z</time>
      </trkpt>
      <trkpt lat="42.37549" lon="2.09433">
        <ele>2615</ele>
        <time>2017-10-15T09:09:40.000Z</time>
      </trkpt>
      <trkpt lat="42.37549" lon="2.09434">
        <ele>2615</ele>
        <time>2017-10-15T09:09:41.000Z</time>
      </trkpt>
      <trkpt lat="42.37549" lon="2.09435">
        <ele>2616</ele>
        <time>2017-10-15T09:09:42.000Z</time>
      </trkpt>
      <trkpt lat="42.3755" lon="2.09437">
        <ele>2616</ele>
        <time>2017-10-15T09:09:43.000Z</time>
      </trkpt>
      <trkpt lat="42.3755" lon="2.09437">
        <ele>2616</ele>
        <time>2017-10-15T09:09:44.000Z</time>
      </trkpt>
      <trkpt lat="42.3755" lon="2.09439">
        <ele>2616</ele>
        <time>2017-10-15T09:09:45.000Z</time>
      </trkpt>
      <trkpt lat="42.3755" lon="2.0944">
        <ele>2616</ele>
        <time>2017-10-15T09:09:46.000Z</time>
      </trkpt>
      <trkpt lat="42.3755" lon="2.09441">
        <ele>2616</ele>
        <time>2017-10-15T09:09:47.000Z</time>
      </trkpt>
      <trkpt lat="42.3755" lon="2.09442">
        <ele>2616</ele>
        <time>2017-10-15T09:09:48.000Z</time>
      </trkpt>
      <trkpt lat="42.3755" lon="2.09444">
        <ele>2616</ele>
        <time>2017-10-15T09:09:49.000Z</time>
      </trkpt>
      <trkpt lat="42.3755" lon="2.09445">
        <ele>2616</ele>
        <time>2017-10-15T09:09:50.000Z</time>
      </trkpt>
      <trkpt lat="42.3755" lon="2.09446">
        <ele>2617</ele>
        <time>2017-10-15T09:09:51.000Z</time>
      </trkpt>
      <trkpt lat="42.3755" lon="2.09447">
        <ele>2617</ele>
        <time>2017-10-15T09:09:52.000Z</time>
      </trkpt>
      <trkpt lat="42.3755" lon="2.09448">
        <ele>2617</ele>
        <time>2017-10-15T09:09:53.000Z</time>
      </trkpt>
      <trkpt lat="42.37551" lon="2.09449">
        <ele>2617</ele>
        <time>2017-10-15T09:09:54.000Z</time>
      </trkpt>
      <trkpt lat="42.37551" lon="2.0945">
        <ele>2617</ele>
        <time>2017-10-15T09:09:55.000Z</time>
      </trkpt>
      <trkpt lat="42.37551" lon="2.09451">
        <ele>2617</ele>
        <time>2017-10-15T09:09:56.000Z</time>
      </trkpt>
      <trkpt lat="42.37552" lon="2.09451">
        <ele>2617</ele>
        <time>2017-10-15T09:09:57.000Z</time>
      </trkpt>
      <trkpt lat="42.37551" lon="2.09451">
        <ele>2617</ele>
        <time>2017-10-15T09:09:58.000Z</time>
      </trkpt>
      <trkpt lat="42.37552" lon="2.09451">
        <ele>2617</ele>
        <time>2017-10-15T09:09:59.000Z</time>
      </trkpt>
      <trkpt lat="42.37552" lon="2.09452">
        <ele>2617</ele>
        <time>2017-10-15T09:10:00.000Z</time>
      </trkpt>
      <trkpt lat="42.37552" lon="2.09453">
        <ele>2617</ele>
        <time>2017-10-15T09:10:01.000Z</time>
      </trkpt>
      <trkpt lat="42.37552" lon="2.09455">
        <ele>2618</ele>
        <time>2017-10-15T09:10:02.000Z</time>
      </trkpt>
      <trkpt lat="42.37552" lon="2.09456">
        <ele>2618</ele>
        <time>2017-10-15T09:10:04.000Z</time>
      </trkpt>
      <trkpt lat="42.37553" lon="2.09458">
        <ele>2618</ele>
        <time>2017-10-15T09:10:05.000Z</time>
      </trkpt>
      <trkpt lat="42.37553" lon="2.09459">
        <ele>2618</ele>
        <time>2017-10-15T09:10:06.000Z</time>
      </trkpt>
      <trkpt lat="42.37553" lon="2.0946">
        <ele>2618</ele>
        <time>2017-10-15T09:10:07.000Z</time>
      </trkpt>
      <trkpt lat="42.37553" lon="2.09461">
        <ele>2618</ele>
        <time>2017-10-15T09:10:08.000Z</time>
      </trkpt>
      <trkpt lat="42.37553" lon="2.09463">
        <ele>2618</ele>
        <time>2017-10-15T09:10:09.000Z</time>
      </trkpt>
      <trkpt lat="42.37553" lon="2.09464">
        <ele>2618</ele>
        <time>2017-10-15T09:10:10.000Z</time>
      </trkpt>
      <trkpt lat="42.37554" lon="2.09465">
        <ele>2619</ele>
        <time>2017-10-15T09:10:11.000Z</time>
      </trkpt>
      <trkpt lat="42.37554" lon="2.09466">
        <ele>2619</ele>
        <time>2017-10-15T09:10:12.000Z</time>
      </trkpt>
      <trkpt lat="42.37554" lon="2.09467">
        <ele>2619</ele>
        <time>2017-10-15T09:10:13.000Z</time>
      </trkpt>
      <trkpt lat="42.37554" lon="2.09468">
        <ele>2619</ele>
        <time>2017-10-15T09:10:14.000Z</time>
      </trkpt>
      <trkpt lat="42.37553" lon="2.09469">
        <ele>2619</ele>
        <time>2017-10-15T09:10:15.000Z</time>
      </trkpt>
      <trkpt lat="42.37553" lon="2.0947">
        <ele>2618</ele>
        <time>2017-10-15T09:10:16.000Z</time>
      </trkpt>
      <trkpt lat="42.37552" lon="2.0947">
        <ele>2618</ele>
        <time>2017-10-15T09:10:17.000Z</time>
      </trkpt>
      <trkpt lat="42.37552" lon="2.0947">
        <ele>2618</ele>
        <time>2017-10-15T09:10:18.000Z</time>
      </trkpt>
      <trkpt lat="42.37553" lon="2.09472">
        <ele>2618</ele>
        <time>2017-10-15T09:10:49.000Z</time>
      </trkpt>
      <trkpt lat="42.37554" lon="2.09473">
        <ele>2619</ele>
        <time>2017-10-15T09:10:50.000Z</time>
      </trkpt>
      <trkpt lat="42.37555" lon="2.09474">
        <ele>2619</ele>
        <time>2017-10-15T09:10:51.000Z</time>
      </trkpt>
      <trkpt lat="42.37556" lon="2.09475">
        <ele>2619</ele>
        <time>2017-10-15T09:10:52.000Z</time>
      </trkpt>
      <trkpt lat="42.37556" lon="2.09476">
        <ele>2619</ele>
        <time>2017-10-15T09:10:53.000Z</time>
      </trkpt>
      <trkpt lat="42.37557" lon="2.09477">
        <ele>2619</ele>
        <time>2017-10-15T09:10:54.000Z</time>
      </trkpt>
      <trkpt lat="42.37557" lon="2.09478">
        <ele>2619</ele>
        <time>2017-10-15T09:10:55.000Z</time>
      </trkpt>
      <trkpt lat="42.37558" lon="2.09479">
        <ele>2619</ele>
        <time>2017-10-15T09:10:56.000Z</time>
      </trkpt>
      <trkpt lat="42.37558" lon="2.09479">
        <ele>2620</ele>
        <time>2017-10-15T09:10:57.000Z</time>
      </trkpt>
      <trkpt lat="42.37559" lon="2.0948">
        <ele>2620</ele>
        <time>2017-10-15T09:10:58.000Z</time>
      </trkpt>
      <trkpt lat="42.3756" lon="2.09481">
        <ele>2620</ele>
        <time>2017-10-15T09:10:59.000Z</time>
      </trkpt>
      <trkpt lat="42.3756" lon="2.09482">
        <ele>2620</ele>
        <time>2017-10-15T09:11:00.000Z</time>
      </trkpt>
      <trkpt lat="42.37561" lon="2.09483">
        <ele>2620</ele>
        <time>2017-10-15T09:11:01.000Z</time>
      </trkpt>
      <trkpt lat="42.37562" lon="2.09483">
        <ele>2620</ele>
        <time>2017-10-15T09:11:02.000Z</time>
      </trkpt>
      <trkpt lat="42.37562" lon="2.09484">
        <ele>2620</ele>
        <time>2017-10-15T09:11:03.000Z</time>
      </trkpt>
      <trkpt lat="42.37563" lon="2.09485">
        <ele>2621</ele>
        <time>2017-10-15T09:11:04.000Z</time>
      </trkpt>
      <trkpt lat="42.37563" lon="2.09486">
        <ele>2621</ele>
        <time>2017-10-15T09:11:05.000Z</time>
      </trkpt>
      <trkpt lat="42.37564" lon="2.09486">
        <ele>2621</ele>
        <time>2017-10-15T09:11:06.000Z</time>
      </trkpt>
      <trkpt lat="42.37564" lon="2.09486">
        <ele>2621</ele>
        <time>2017-10-15T09:11:07.000Z</time>
      </trkpt>
      <trkpt lat="42.37565" lon="2.09487">
        <ele>2621</ele>
        <time>2017-10-15T09:11:08.000Z</time>
      </trkpt>
      <trkpt lat="42.37566" lon="2.09488">
        <ele>2621</ele>
        <time>2017-10-15T09:11:09.000Z</time>
      </trkpt>
      <trkpt lat="42.37566" lon="2.09488">
        <ele>2621</ele>
        <time>2017-10-15T09:11:10.000Z</time>
      </trkpt>
      <trkpt lat="42.37567" lon="2.09489">
        <ele>2621</ele>
        <time>2017-10-15T09:11:11.000Z</time>
      </trkpt>
      <trkpt lat="42.37568" lon="2.09489">
        <ele>2622</ele>
        <time>2017-10-15T09:11:12.000Z</time>
      </trkpt>
      <trkpt lat="42.37568" lon="2.0949">
        <ele>2622</ele>
        <time>2017-10-15T09:11:13.000Z</time>
      </trkpt>
      <trkpt lat="42.37569" lon="2.09491">
        <ele>2622</ele>
        <time>2017-10-15T09:11:14.000Z</time>
      </trkpt>
      <trkpt lat="42.3757" lon="2.09491">
        <ele>2622</ele>
        <time>2017-10-15T09:11:15.000Z</time>
      </trkpt>
      <trkpt lat="42.37571" lon="2.09491">
        <ele>2622</ele>
        <time>2017-10-15T09:11:16.000Z</time>
      </trkpt>
      <trkpt lat="42.37571" lon="2.09492">
        <ele>2623</ele>
        <time>2017-10-15T09:11:17.000Z</time>
      </trkpt>
      <trkpt lat="42.37572" lon="2.09493">
        <ele>2623</ele>
        <time>2017-10-15T09:11:18.000Z</time>
      </trkpt>
      <trkpt lat="42.37573" lon="2.09493">
        <ele>2623</ele>
        <time>2017-10-15T09:11:19.000Z</time>
      </trkpt>
      <trkpt lat="42.37573" lon="2.09494">
        <ele>2623</ele>
        <time>2017-10-15T09:11:20.000Z</time>
      </trkpt>
      <trkpt lat="42.37574" lon="2.09494">
        <ele>2623</ele>
        <time>2017-10-15T09:11:21.000Z</time>
      </trkpt>
      <trkpt lat="42.37575" lon="2.09495">
        <ele>2623</ele>
        <time>2017-10-15T09:11:22.000Z</time>
      </trkpt>
      <trkpt lat="42.37575" lon="2.09496">
        <ele>2624</ele>
        <time>2017-10-15T09:11:23.000Z</time>
      </trkpt>
      <trkpt lat="42.37576" lon="2.09496">
        <ele>2624</ele>
        <time>2017-10-15T09:11:24.000Z</time>
      </trkpt>
      <trkpt lat="42.37577" lon="2.09497">
        <ele>2624</ele>
        <time>2017-10-15T09:11:25.000Z</time>
      </trkpt>
      <trkpt lat="42.37577" lon="2.09498">
        <ele>2624</ele>
        <time>2017-10-15T09:11:26.000Z</time>
      </trkpt>
      <trkpt lat="42.37578" lon="2.09499">
        <ele>2625</ele>
        <time>2017-10-15T09:11:27.000Z</time>
      </trkpt>
      <trkpt lat="42.37578" lon="2.09499">
        <ele>2625</ele>
        <time>2017-10-15T09:11:28.000Z</time>
      </trkpt>
      <trkpt lat="42.37579" lon="2.095">
        <ele>2625</ele>
        <time>2017-10-15T09:11:29.000Z</time>
      </trkpt>
      <trkpt lat="42.37579" lon="2.09501">
        <ele>2625</ele>
        <time>2017-10-15T09:11:30.000Z</time>
      </trkpt>
      <trkpt lat="42.3758" lon="2.09501">
        <ele>2625</ele>
        <time>2017-10-15T09:11:31.000Z</time>
      </trkpt>
      <trkpt lat="42.37581" lon="2.09502">
        <ele>2626</ele>
        <time>2017-10-15T09:11:32.000Z</time>
      </trkpt>
      <trkpt lat="42.37582" lon="2.09503">
        <ele>2626</ele>
        <time>2017-10-15T09:11:33.000Z</time>
      </trkpt>
      <trkpt lat="42.37582" lon="2.09504">
        <ele>2626</ele>
        <time>2017-10-15T09:11:34.000Z</time>
      </trkpt>
      <trkpt lat="42.37583" lon="2.09504">
        <ele>2626</ele>
        <time>2017-10-15T09:11:35.000Z</time>
      </trkpt>
      <trkpt lat="42.37584" lon="2.09505">
        <ele>2626</ele>
        <time>2017-10-15T09:11:36.000Z</time>
      </trkpt>
      <trkpt lat="42.37584" lon="2.09506">
        <ele>2626</ele>
        <time>2017-10-15T09:11:37.000Z</time>
      </trkpt>
      <trkpt lat="42.37585" lon="2.09507">
        <ele>2626</ele>
        <time>2017-10-15T09:11:38.000Z</time>
      </trkpt>
      <trkpt lat="42.37585" lon="2.09508">
        <ele>2626</ele>
        <time>2017-10-15T09:11:39.000Z</time>
      </trkpt>
      <trkpt lat="42.37586" lon="2.09509">
        <ele>2626</ele>
        <time>2017-10-15T09:11:40.000Z</time>
      </trkpt>
      <trkpt lat="42.37587" lon="2.09509">
        <ele>2625</ele>
        <time>2017-10-15T09:11:41.000Z</time>
      </trkpt>
      <trkpt lat="42.37587" lon="2.0951">
        <ele>2625</ele>
        <time>2017-10-15T09:11:42.000Z</time>
      </trkpt>
      <trkpt lat="42.37588" lon="2.09511">
        <ele>2625</ele>
        <time>2017-10-15T09:11:43.000Z</time>
      </trkpt>
      <trkpt lat="42.37589" lon="2.09512">
        <ele>2625</ele>
        <time>2017-10-15T09:11:44.000Z</time>
      </trkpt>
      <trkpt lat="42.37589" lon="2.09513">
        <ele>2625</ele>
        <time>2017-10-15T09:11:45.000Z</time>
      </trkpt>
      <trkpt lat="42.37589" lon="2.09514">
        <ele>2625</ele>
        <time>2017-10-15T09:11:46.000Z</time>
      </trkpt>
      <trkpt lat="42.3759" lon="2.09514">
        <ele>2625</ele>
        <time>2017-10-15T09:11:47.000Z</time>
      </trkpt>
      <trkpt lat="42.37591" lon="2.09515">
        <ele>2625</ele>
        <time>2017-10-15T09:11:48.000Z</time>
      </trkpt>
      <trkpt lat="42.37591" lon="2.09516">
        <ele>2625</ele>
        <time>2017-10-15T09:11:49.000Z</time>
      </trkpt>
      <trkpt lat="42.37591" lon="2.09517">
        <ele>2625</ele>
        <time>2017-10-15T09:11:50.000Z</time>
      </trkpt>
      <trkpt lat="42.37592" lon="2.09518">
        <ele>2625</ele>
        <time>2017-10-15T09:11:51.000Z</time>
      </trkpt>
      <trkpt lat="42.37592" lon="2.09519">
        <ele>2625</ele>
        <time>2017-10-15T09:11:52.000Z</time>
      </trkpt>
      <trkpt lat="42.37593" lon="2.09519">
        <ele>2625</ele>
        <time>2017-10-15T09:11:53.000Z</time>
      </trkpt>
      <trkpt lat="42.37593" lon="2.0952">
        <ele>2625</ele>
        <time>2017-10-15T09:11:54.000Z</time>
      </trkpt>
      <trkpt lat="42.37594" lon="2.09521">
        <ele>2625</ele>
        <time>2017-10-15T09:11:55.000Z</time>
      </trkpt>
      <trkpt lat="42.37594" lon="2.09522">
        <ele>2625</ele>
        <time>2017-10-15T09:11:56.000Z</time>
      </trkpt>
      <trkpt lat="42.37594" lon="2.09523">
        <ele>2625</ele>
        <time>2017-10-15T09:11:57.000Z</time>
      </trkpt>
      <trkpt lat="42.37595" lon="2.09524">
        <ele>2625</ele>
        <time>2017-10-15T09:11:58.000Z</time>
      </trkpt>
      <trkpt lat="42.37595" lon="2.09525">
        <ele>2626</ele>
        <time>2017-10-15T09:11:59.000Z</time>
      </trkpt>
      <trkpt lat="42.37595" lon="2.09526">
        <ele>2626</ele>
        <time>2017-10-15T09:12:00.000Z</time>
      </trkpt>
      <trkpt lat="42.37595" lon="2.09527">
        <ele>2626</ele>
        <time>2017-10-15T09:12:01.000Z</time>
      </trkpt>
      <trkpt lat="42.37595" lon="2.09528">
        <ele>2626</ele>
        <time>2017-10-15T09:12:02.000Z</time>
      </trkpt>
      <trkpt lat="42.37595" lon="2.09529">
        <ele>2626</ele>
        <time>2017-10-15T09:12:03.000Z</time>
      </trkpt>
      <trkpt lat="42.37595" lon="2.0953">
        <ele>2626</ele>
        <time>2017-10-15T09:12:04.000Z</time>
      </trkpt>
      <trkpt lat="42.37595" lon="2.09531">
        <ele>2626</ele>
        <time>2017-10-15T09:12:05.000Z</time>
      </trkpt>
      <trkpt lat="42.37595" lon="2.09532">
        <ele>2626</ele>
        <time>2017-10-15T09:12:06.000Z</time>
      </trkpt>
      <trkpt lat="42.37595" lon="2.09533">
        <ele>2626</ele>
        <time>2017-10-15T09:12:07.000Z</time>
      </trkpt>
      <trkpt lat="42.37596" lon="2.09534">
        <ele>2626</ele>
        <time>2017-10-15T09:12:08.000Z</time>
      </trkpt>
      <trkpt lat="42.37596" lon="2.09535">
        <ele>2626</ele>
        <time>2017-10-15T09:12:09.000Z</time>
      </trkpt>
      <trkpt lat="42.37596" lon="2.09536">
        <ele>2626</ele>
        <time>2017-10-15T09:12:10.000Z</time>
      </trkpt>
      <trkpt lat="42.37597" lon="2.09537">
        <ele>2626</ele>
        <time>2017-10-15T09:12:11.000Z</time>
      </trkpt>
      <trkpt lat="42.37597" lon="2.09538">
        <ele>2626</ele>
        <time>2017-10-15T09:12:12.000Z</time>
      </trkpt>
      <trkpt lat="42.37597" lon="2.09539">
        <ele>2626</ele>
        <time>2017-10-15T09:12:13.000Z</time>
      </trkpt>
      <trkpt lat="42.37597" lon="2.0954">
        <ele>2627</ele>
        <time>2017-10-15T09:12:14.000Z</time>
      </trkpt>
      <trkpt lat="42.37596" lon="2.09542">
        <ele>2627</ele>
        <time>2017-10-15T09:12:15.000Z</time>
      </trkpt>
      <trkpt lat="42.37596" lon="2.09542">
        <ele>2627</ele>
        <time>2017-10-15T09:12:16.000Z</time>
      </trkpt>
      <trkpt lat="42.37596" lon="2.09543">
        <ele>2627</ele>
        <time>2017-10-15T09:12:17.000Z</time>
      </trkpt>
      <trkpt lat="42.37596" lon="2.09545">
        <ele>2627</ele>
        <time>2017-10-15T09:12:18.000Z</time>
      </trkpt>
      <trkpt lat="42.37596" lon="2.09546">
        <ele>2627</ele>
        <time>2017-10-15T09:12:19.000Z</time>
      </trkpt>
      <trkpt lat="42.37596" lon="2.09547">
        <ele>2627</ele>
        <time>2017-10-15T09:12:20.000Z</time>
      </trkpt>
      <trkpt lat="42.37597" lon="2.09548">
        <ele>2627</ele>
        <time>2017-10-15T09:12:21.000Z</time>
      </trkpt>
      <trkpt lat="42.37597" lon="2.09549">
        <ele>2627</ele>
        <time>2017-10-15T09:12:22.000Z</time>
      </trkpt>
      <trkpt lat="42.37597" lon="2.0955">
        <ele>2627</ele>
        <time>2017-10-15T09:12:23.000Z</time>
      </trkpt>
      <trkpt lat="42.37597" lon="2.09551">
        <ele>2627</ele>
        <time>2017-10-15T09:12:24.000Z</time>
      </trkpt>
      <trkpt lat="42.37597" lon="2.09552">
        <ele>2628</ele>
        <time>2017-10-15T09:12:25.000Z</time>
      </trkpt>
      <trkpt lat="42.37597" lon="2.09553">
        <ele>2628</ele>
        <time>2017-10-15T09:12:26.000Z</time>
      </trkpt>
      <trkpt lat="42.37597" lon="2.09554">
        <ele>2628</ele>
        <time>2017-10-15T09:12:27.000Z</time>
      </trkpt>
      <trkpt lat="42.37597" lon="2.09555">
        <ele>2628</ele>
        <time>2017-10-15T09:12:28.000Z</time>
      </trkpt>
      <trkpt lat="42.37596" lon="2.09556">
        <ele>2628</ele>
        <time>2017-10-15T09:12:29.000Z</time>
      </trkpt>
      <trkpt lat="42.37596" lon="2.09557">
        <ele>2628</ele>
        <time>2017-10-15T09:12:30.000Z</time>
      </trkpt>
      <trkpt lat="42.37596" lon="2.09559">
        <ele>2628</ele>
        <time>2017-10-15T09:12:31.000Z</time>
      </trkpt>
      <trkpt lat="42.37596" lon="2.0956">
        <ele>2628</ele>
        <time>2017-10-15T09:12:32.000Z</time>
      </trkpt>
      <trkpt lat="42.37596" lon="2.09561">
        <ele>2628</ele>
        <time>2017-10-15T09:12:33.000Z</time>
      </trkpt>
      <trkpt lat="42.37596" lon="2.09562">
        <ele>2629</ele>
        <time>2017-10-15T09:12:34.000Z</time>
      </trkpt>
      <trkpt lat="42.37595" lon="2.09563">
        <ele>2629</ele>
        <time>2017-10-15T09:12:35.000Z</time>
      </trkpt>
      <trkpt lat="42.37595" lon="2.09564">
        <ele>2629</ele>
        <time>2017-10-15T09:12:36.000Z</time>
      </trkpt>
      <trkpt lat="42.37595" lon="2.09565">
        <ele>2629</ele>
        <time>2017-10-15T09:12:37.000Z</time>
      </trkpt>
      <trkpt lat="42.37594" lon="2.09566">
        <ele>2629</ele>
        <time>2017-10-15T09:12:38.000Z</time>
      </trkpt>
      <trkpt lat="42.37594" lon="2.09567">
        <ele>2629</ele>
        <time>2017-10-15T09:12:39.000Z</time>
      </trkpt>
      <trkpt lat="42.37594" lon="2.09569">
        <ele>2629</ele>
        <time>2017-10-15T09:12:40.000Z</time>
      </trkpt>
      <trkpt lat="42.37593" lon="2.0957">
        <ele>2630</ele>
        <time>2017-10-15T09:12:41.000Z</time>
      </trkpt>
      <trkpt lat="42.37593" lon="2.09571">
        <ele>2630</ele>
        <time>2017-10-15T09:12:42.000Z</time>
      </trkpt>
      <trkpt lat="42.37593" lon="2.09572">
        <ele>2630</ele>
        <time>2017-10-15T09:12:43.000Z</time>
      </trkpt>
      <trkpt lat="42.37592" lon="2.09573">
        <ele>2630</ele>
        <time>2017-10-15T09:12:44.000Z</time>
      </trkpt>
      <trkpt lat="42.37592" lon="2.09574">
        <ele>2630</ele>
        <time>2017-10-15T09:12:45.000Z</time>
      </trkpt>
      <trkpt lat="42.37592" lon="2.09575">
        <ele>2630</ele>
        <time>2017-10-15T09:12:46.000Z</time>
      </trkpt>
      <trkpt lat="42.37591" lon="2.09576">
        <ele>2630</ele>
        <time>2017-10-15T09:12:47.000Z</time>
      </trkpt>
      <trkpt lat="42.37591" lon="2.09577">
        <ele>2631</ele>
        <time>2017-10-15T09:12:48.000Z</time>
      </trkpt>
      <trkpt lat="42.3759" lon="2.09579">
        <ele>2631</ele>
        <time>2017-10-15T09:12:49.000Z</time>
      </trkpt>
      <trkpt lat="42.3759" lon="2.0958">
        <ele>2631</ele>
        <time>2017-10-15T09:12:50.000Z</time>
      </trkpt>
      <trkpt lat="42.3759" lon="2.09581">
        <ele>2631</ele>
        <time>2017-10-15T09:12:51.000Z</time>
      </trkpt>
      <trkpt lat="42.37589" lon="2.09582">
        <ele>2632</ele>
        <time>2017-10-15T09:12:52.000Z</time>
      </trkpt>
      <trkpt lat="42.37589" lon="2.09583">
        <ele>2632</ele>
        <time>2017-10-15T09:12:53.000Z</time>
      </trkpt>
      <trkpt lat="42.37588" lon="2.09584">
        <ele>2632</ele>
        <time>2017-10-15T09:12:54.000Z</time>
      </trkpt>
      <trkpt lat="42.37588" lon="2.09585">
        <ele>2632</ele>
        <time>2017-10-15T09:12:55.000Z</time>
      </trkpt>
      <trkpt lat="42.37588" lon="2.09586">
        <ele>2632</ele>
        <time>2017-10-15T09:12:56.000Z</time>
      </trkpt>
      <trkpt lat="42.37588" lon="2.09587">
        <ele>2632</ele>
        <time>2017-10-15T09:12:57.000Z</time>
      </trkpt>
      <trkpt lat="42.37588" lon="2.09588">
        <ele>2632</ele>
        <time>2017-10-15T09:12:58.000Z</time>
      </trkpt>
      <trkpt lat="42.37587" lon="2.09589">
        <ele>2632</ele>
        <time>2017-10-15T09:12:59.000Z</time>
      </trkpt>
      <trkpt lat="42.37587" lon="2.0959">
        <ele>2632</ele>
        <time>2017-10-15T09:13:00.000Z</time>
      </trkpt>
      <trkpt lat="42.37587" lon="2.09591">
        <ele>2632</ele>
        <time>2017-10-15T09:13:01.000Z</time>
      </trkpt>
      <trkpt lat="42.37587" lon="2.09592">
        <ele>2632</ele>
        <time>2017-10-15T09:13:02.000Z</time>
      </trkpt>
      <trkpt lat="42.37587" lon="2.09592">
        <ele>2632</ele>
        <time>2017-10-15T09:13:03.000Z</time>
      </trkpt>
      <trkpt lat="42.37587" lon="2.09592">
        <ele>2632</ele>
        <time>2017-10-15T09:13:04.000Z</time>
      </trkpt>
      <trkpt lat="42.37586" lon="2.09592">
        <ele>2632</ele>
        <time>2017-10-15T09:13:05.000Z</time>
      </trkpt>
      <trkpt lat="42.37585" lon="2.09595">
        <ele>2633</ele>
        <time>2017-10-15T09:13:17.000Z</time>
      </trkpt>
      <trkpt lat="42.37585" lon="2.09596">
        <ele>2633</ele>
        <time>2017-10-15T09:13:18.000Z</time>
      </trkpt>
      <trkpt lat="42.37585" lon="2.09598">
        <ele>2633</ele>
        <time>2017-10-15T09:13:19.000Z</time>
      </trkpt>
      <trkpt lat="42.37585" lon="2.09599">
        <ele>2633</ele>
        <time>2017-10-15T09:13:20.000Z</time>
      </trkpt>
      <trkpt lat="42.37585" lon="2.09601">
        <ele>2633</ele>
        <time>2017-10-15T09:13:21.000Z</time>
      </trkpt>
      <trkpt lat="42.37584" lon="2.09602">
        <ele>2633</ele>
        <time>2017-10-15T09:13:22.000Z</time>
      </trkpt>
      <trkpt lat="42.37584" lon="2.09603">
        <ele>2633</ele>
        <time>2017-10-15T09:13:23.000Z</time>
      </trkpt>
      <trkpt lat="42.37584" lon="2.09605">
        <ele>2633</ele>
        <time>2017-10-15T09:13:24.000Z</time>
      </trkpt>
      <trkpt lat="42.37583" lon="2.09606">
        <ele>2633</ele>
        <time>2017-10-15T09:13:25.000Z</time>
      </trkpt>
      <trkpt lat="42.37584" lon="2.09607">
        <ele>2633</ele>
        <time>2017-10-15T09:13:26.000Z</time>
      </trkpt>
      <trkpt lat="42.37584" lon="2.09609">
        <ele>2633</ele>
        <time>2017-10-15T09:13:27.000Z</time>
      </trkpt>
      <trkpt lat="42.37584" lon="2.09611">
        <ele>2633</ele>
        <time>2017-10-15T09:13:28.000Z</time>
      </trkpt>
      <trkpt lat="42.37584" lon="2.09612">
        <ele>2633</ele>
        <time>2017-10-15T09:13:29.000Z</time>
      </trkpt>
      <trkpt lat="42.37584" lon="2.09613">
        <ele>2633</ele>
        <time>2017-10-15T09:13:30.000Z</time>
      </trkpt>
      <trkpt lat="42.37584" lon="2.09615">
        <ele>2633</ele>
        <time>2017-10-15T09:13:31.000Z</time>
      </trkpt>
      <trkpt lat="42.37585" lon="2.09616">
        <ele>2633</ele>
        <time>2017-10-15T09:13:32.000Z</time>
      </trkpt>
      <trkpt lat="42.37585" lon="2.09618">
        <ele>2633</ele>
        <time>2017-10-15T09:13:33.000Z</time>
      </trkpt>
      <trkpt lat="42.37585" lon="2.09619">
        <ele>2633</ele>
        <time>2017-10-15T09:13:34.000Z</time>
      </trkpt>
      <trkpt lat="42.37585" lon="2.09621">
        <ele>2633</ele>
        <time>2017-10-15T09:13:35.000Z</time>
      </trkpt>
      <trkpt lat="42.37585" lon="2.09622">
        <ele>2634</ele>
        <time>2017-10-15T09:13:36.000Z</time>
      </trkpt>
      <trkpt lat="42.37586" lon="2.09624">
        <ele>2634</ele>
        <time>2017-10-15T09:13:37.000Z</time>
      </trkpt>
      <trkpt lat="42.37586" lon="2.09625">
        <ele>2634</ele>
        <time>2017-10-15T09:13:38.000Z</time>
      </trkpt>
      <trkpt lat="42.37587" lon="2.09626">
        <ele>2634</ele>
        <time>2017-10-15T09:13:39.000Z</time>
      </trkpt>
      <trkpt lat="42.37587" lon="2.09627">
        <ele>2634</ele>
        <time>2017-10-15T09:13:40.000Z</time>
      </trkpt>
      <trkpt lat="42.37587" lon="2.09628">
        <ele>2634</ele>
        <time>2017-10-15T09:13:41.000Z</time>
      </trkpt>
      <trkpt lat="42.37588" lon="2.09629">
        <ele>2634</ele>
        <time>2017-10-15T09:13:42.000Z</time>
      </trkpt>
      <trkpt lat="42.37588" lon="2.0963">
        <ele>2634</ele>
        <time>2017-10-15T09:13:43.000Z</time>
      </trkpt>
      <trkpt lat="42.37589" lon="2.09631">
        <ele>2634</ele>
        <time>2017-10-15T09:13:44.000Z</time>
      </trkpt>
      <trkpt lat="42.37589" lon="2.09632">
        <ele>2634</ele>
        <time>2017-10-15T09:13:45.000Z</time>
      </trkpt>
      <trkpt lat="42.3759" lon="2.09632">
        <ele>2634</ele>
        <time>2017-10-15T09:13:46.000Z</time>
      </trkpt>
      <trkpt lat="42.37591" lon="2.09633">
        <ele>2634</ele>
        <time>2017-10-15T09:13:47.000Z</time>
      </trkpt>
      <trkpt lat="42.37591" lon="2.09633">
        <ele>2634</ele>
        <time>2017-10-15T09:13:48.000Z</time>
      </trkpt>
      <trkpt lat="42.37592" lon="2.09634">
        <ele>2634</ele>
        <time>2017-10-15T09:13:49.000Z</time>
      </trkpt>
      <trkpt lat="42.37593" lon="2.09634">
        <ele>2634</ele>
        <time>2017-10-15T09:13:50.000Z</time>
      </trkpt>
      <trkpt lat="42.37593" lon="2.09635">
        <ele>2634</ele>
        <time>2017-10-15T09:13:51.000Z</time>
      </trkpt>
      <trkpt lat="42.37594" lon="2.09636">
        <ele>2634</ele>
        <time>2017-10-15T09:13:52.000Z</time>
      </trkpt>
      <trkpt lat="42.37595" lon="2.09636">
        <ele>2634</ele>
        <time>2017-10-15T09:13:53.000Z</time>
      </trkpt>
      <trkpt lat="42.37595" lon="2.09637">
        <ele>2634</ele>
        <time>2017-10-15T09:13:54.000Z</time>
      </trkpt>
      <trkpt lat="42.37596" lon="2.09637">
        <ele>2634</ele>
        <time>2017-10-15T09:13:55.000Z</time>
      </trkpt>
      <trkpt lat="42.37597" lon="2.09637">
        <ele>2634</ele>
        <time>2017-10-15T09:13:56.000Z</time>
      </trkpt>
      <trkpt lat="42.37598" lon="2.09638">
        <ele>2634</ele>
        <time>2017-10-15T09:13:57.000Z</time>
      </trkpt>
      <trkpt lat="42.37598" lon="2.09639">
        <ele>2634</ele>
        <time>2017-10-15T09:13:58.000Z</time>
      </trkpt>
      <trkpt lat="42.37599" lon="2.09639">
        <ele>2634</ele>
        <time>2017-10-15T09:13:59.000Z</time>
      </trkpt>
      <trkpt lat="42.376" lon="2.09639">
        <ele>2634</ele>
        <time>2017-10-15T09:14:00.000Z</time>
      </trkpt>
      <trkpt lat="42.37601" lon="2.0964">
        <ele>2634</ele>
        <time>2017-10-15T09:14:01.000Z</time>
      </trkpt>
      <trkpt lat="42.37602" lon="2.0964">
        <ele>2634</ele>
        <time>2017-10-15T09:14:02.000Z</time>
      </trkpt>
      <trkpt lat="42.37602" lon="2.09641">
        <ele>2634</ele>
        <time>2017-10-15T09:14:03.000Z</time>
      </trkpt>
      <trkpt lat="42.37603" lon="2.09641">
        <ele>2634</ele>
        <time>2017-10-15T09:14:04.000Z</time>
      </trkpt>
      <trkpt lat="42.37604" lon="2.09642">
        <ele>2634</ele>
        <time>2017-10-15T09:14:05.000Z</time>
      </trkpt>
      <trkpt lat="42.37605" lon="2.09642">
        <ele>2634</ele>
        <time>2017-10-15T09:14:06.000Z</time>
      </trkpt>
      <trkpt lat="42.37605" lon="2.09642">
        <ele>2634</ele>
        <time>2017-10-15T09:14:07.000Z</time>
      </trkpt>
      <trkpt lat="42.37606" lon="2.09643">
        <ele>2634</ele>
        <time>2017-10-15T09:14:08.000Z</time>
      </trkpt>
      <trkpt lat="42.37607" lon="2.09643">
        <ele>2634</ele>
        <time>2017-10-15T09:14:09.000Z</time>
      </trkpt>
      <trkpt lat="42.37607" lon="2.09643">
        <ele>2634</ele>
        <time>2017-10-15T09:14:10.000Z</time>
      </trkpt>
      <trkpt lat="42.37608" lon="2.09643">
        <ele>2634</ele>
        <time>2017-10-15T09:14:11.000Z</time>
      </trkpt>
      <trkpt lat="42.37609" lon="2.09644">
        <ele>2634</ele>
        <time>2017-10-15T09:14:12.000Z</time>
      </trkpt>
      <trkpt lat="42.37609" lon="2.09645">
        <ele>2634</ele>
        <time>2017-10-15T09:14:13.000Z</time>
      </trkpt>
      <trkpt lat="42.3761" lon="2.09645">
        <ele>2634</ele>
        <time>2017-10-15T09:14:14.000Z</time>
      </trkpt>
      <trkpt lat="42.37611" lon="2.09646">
        <ele>2634</ele>
        <time>2017-10-15T09:14:15.000Z</time>
      </trkpt>
      <trkpt lat="42.37611" lon="2.09646">
        <ele>2634</ele>
        <time>2017-10-15T09:14:16.000Z</time>
      </trkpt>
      <trkpt lat="42.37612" lon="2.09647">
        <ele>2634</ele>
        <time>2017-10-15T09:14:17.000Z</time>
      </trkpt>
      <trkpt lat="42.37613" lon="2.09647">
        <ele>2634</ele>
        <time>2017-10-15T09:14:18.000Z</time>
      </trkpt>
      <trkpt lat="42.37614" lon="2.09648">
        <ele>2634</ele>
        <time>2017-10-15T09:14:19.000Z</time>
      </trkpt>
      <trkpt lat="42.37615" lon="2.09648">
        <ele>2634</ele>
        <time>2017-10-15T09:14:20.000Z</time>
      </trkpt>
      <trkpt lat="42.37616" lon="2.09649">
        <ele>2634</ele>
        <time>2017-10-15T09:14:21.000Z</time>
      </trkpt>
      <trkpt lat="42.37616" lon="2.0965">
        <ele>2634</ele>
        <time>2017-10-15T09:14:22.000Z</time>
      </trkpt>
      <trkpt lat="42.37617" lon="2.0965">
        <ele>2634</ele>
        <time>2017-10-15T09:14:23.000Z</time>
      </trkpt>
      <trkpt lat="42.37618" lon="2.09651">
        <ele>2634</ele>
        <time>2017-10-15T09:14:24.000Z</time>
      </trkpt>
      <trkpt lat="42.37619" lon="2.09651">
        <ele>2634</ele>
        <time>2017-10-15T09:14:25.000Z</time>
      </trkpt>
      <trkpt lat="42.37619" lon="2.09652">
        <ele>2634</ele>
        <time>2017-10-15T09:14:26.000Z</time>
      </trkpt>
      <trkpt lat="42.3762" lon="2.09652">
        <ele>2634</ele>
        <time>2017-10-15T09:14:27.000Z</time>
      </trkpt>
      <trkpt lat="42.3762" lon="2.09653">
        <ele>2634</ele>
        <time>2017-10-15T09:14:28.000Z</time>
      </trkpt>
      <trkpt lat="42.37621" lon="2.09653">
        <ele>2634</ele>
        <time>2017-10-15T09:14:29.000Z</time>
      </trkpt>
      <trkpt lat="42.37622" lon="2.09654">
        <ele>2634</ele>
        <time>2017-10-15T09:14:30.000Z</time>
      </trkpt>
      <trkpt lat="42.37622" lon="2.09654">
        <ele>2634</ele>
        <time>2017-10-15T09:14:31.000Z</time>
      </trkpt>
      <trkpt lat="42.37623" lon="2.09654">
        <ele>2634</ele>
        <time>2017-10-15T09:14:32.000Z</time>
      </trkpt>
      <trkpt lat="42.37624" lon="2.09655">
        <ele>2634</ele>
        <time>2017-10-15T09:14:33.000Z</time>
      </trkpt>
      <trkpt lat="42.37625" lon="2.09655">
        <ele>2634</ele>
        <time>2017-10-15T09:14:34.000Z</time>
      </trkpt>
      <trkpt lat="42.37626" lon="2.09656">
        <ele>2634</ele>
        <time>2017-10-15T09:14:35.000Z</time>
      </trkpt>
      <trkpt lat="42.37627" lon="2.09656">
        <ele>2634</ele>
        <time>2017-10-15T09:14:36.000Z</time>
      </trkpt>
      <trkpt lat="42.37628" lon="2.09657">
        <ele>2634</ele>
        <time>2017-10-15T09:14:37.000Z</time>
      </trkpt>
      <trkpt lat="42.37628" lon="2.09657">
        <ele>2634</ele>
        <time>2017-10-15T09:14:38.000Z</time>
      </trkpt>
      <trkpt lat="42.37629" lon="2.09658">
        <ele>2634</ele>
        <time>2017-10-15T09:14:39.000Z</time>
      </trkpt>
      <trkpt lat="42.3763" lon="2.09659">
        <ele>2634</ele>
        <time>2017-10-15T09:14:40.000Z</time>
      </trkpt>
      <trkpt lat="42.37631" lon="2.09659">
        <ele>2634</ele>
        <time>2017-10-15T09:14:41.000Z</time>
      </trkpt>
      <trkpt lat="42.37632" lon="2.0966">
        <ele>2634</ele>
        <time>2017-10-15T09:14:42.000Z</time>
      </trkpt>
      <trkpt lat="42.37632" lon="2.09661">
        <ele>2634</ele>
        <time>2017-10-15T09:14:43.000Z</time>
      </trkpt>
      <trkpt lat="42.37633" lon="2.09661">
        <ele>2634</ele>
        <time>2017-10-15T09:14:44.000Z</time>
      </trkpt>
      <trkpt lat="42.37633" lon="2.09662">
        <ele>2634</ele>
        <time>2017-10-15T09:14:45.000Z</time>
      </trkpt>
      <trkpt lat="42.37634" lon="2.09663">
        <ele>2634</ele>
        <time>2017-10-15T09:14:46.000Z</time>
      </trkpt>
      <trkpt lat="42.37635" lon="2.09664">
        <ele>2634</ele>
        <time>2017-10-15T09:14:47.000Z</time>
      </trkpt>
      <trkpt lat="42.37635" lon="2.09665">
        <ele>2634</ele>
        <time>2017-10-15T09:14:48.000Z</time>
      </trkpt>
      <trkpt lat="42.37636" lon="2.09665">
        <ele>2634</ele>
        <time>2017-10-15T09:14:49.000Z</time>
      </trkpt>
      <trkpt lat="42.37636" lon="2.09666">
        <ele>2634</ele>
        <time>2017-10-15T09:14:50.000Z</time>
      </trkpt>
      <trkpt lat="42.37637" lon="2.09667">
        <ele>2634</ele>
        <time>2017-10-15T09:14:51.000Z</time>
      </trkpt>
      <trkpt lat="42.37638" lon="2.09669">
        <ele>2635</ele>
        <time>2017-10-15T09:14:52.000Z</time>
      </trkpt>
      <trkpt lat="42.37638" lon="2.0967">
        <ele>2635</ele>
        <time>2017-10-15T09:14:54.000Z</time>
      </trkpt>
      <trkpt lat="42.37638" lon="2.09671">
        <ele>2635</ele>
        <time>2017-10-15T09:14:55.000Z</time>
      </trkpt>
      <trkpt lat="42.37639" lon="2.09672">
        <ele>2635</ele>
        <time>2017-10-15T09:14:56.000Z</time>
      </trkpt>
      <trkpt lat="42.3764" lon="2.09672">
        <ele>2635</ele>
        <time>2017-10-15T09:14:57.000Z</time>
      </trkpt>
      <trkpt lat="42.3764" lon="2.09673">
        <ele>2635</ele>
        <time>2017-10-15T09:14:58.000Z</time>
      </trkpt>
      <trkpt lat="42.3764" lon="2.09674">
        <ele>2635</ele>
        <time>2017-10-15T09:14:59.000Z</time>
      </trkpt>
      <trkpt lat="42.37641" lon="2.09675">
        <ele>2635</ele>
        <time>2017-10-15T09:15:00.000Z</time>
      </trkpt>
      <trkpt lat="42.37642" lon="2.09676">
        <ele>2635</ele>
        <time>2017-10-15T09:15:01.000Z</time>
      </trkpt>
      <trkpt lat="42.37642" lon="2.09677">
        <ele>2635</ele>
        <time>2017-10-15T09:15:02.000Z</time>
      </trkpt>
      <trkpt lat="42.37643" lon="2.09678">
        <ele>2635</ele>
        <time>2017-10-15T09:15:03.000Z</time>
      </trkpt>
      <trkpt lat="42.37643" lon="2.0968">
        <ele>2635</ele>
        <time>2017-10-15T09:15:04.000Z</time>
      </trkpt>
      <trkpt lat="42.37644" lon="2.0968">
        <ele>2635</ele>
        <time>2017-10-15T09:15:06.000Z</time>
      </trkpt>
      <trkpt lat="42.37644" lon="2.09681">
        <ele>2636</ele>
        <time>2017-10-15T09:15:07.000Z</time>
      </trkpt>
      <trkpt lat="42.37645" lon="2.09682">
        <ele>2636</ele>
        <time>2017-10-15T09:15:08.000Z</time>
      </trkpt>
      <trkpt lat="42.37646" lon="2.09683">
        <ele>2636</ele>
        <time>2017-10-15T09:15:09.000Z</time>
      </trkpt>
      <trkpt lat="42.37646" lon="2.09684">
        <ele>2636</ele>
        <time>2017-10-15T09:15:10.000Z</time>
      </trkpt>
      <trkpt lat="42.37646" lon="2.09686">
        <ele>2636</ele>
        <time>2017-10-15T09:15:11.000Z</time>
      </trkpt>
      <trkpt lat="42.37647" lon="2.09687">
        <ele>2636</ele>
        <time>2017-10-15T09:15:12.000Z</time>
      </trkpt>
      <trkpt lat="42.37647" lon="2.09688">
        <ele>2636</ele>
        <time>2017-10-15T09:15:13.000Z</time>
      </trkpt>
      <trkpt lat="42.37648" lon="2.09689">
        <ele>2636</ele>
        <time>2017-10-15T09:15:14.000Z</time>
      </trkpt>
      <trkpt lat="42.37648" lon="2.09691">
        <ele>2636</ele>
        <time>2017-10-15T09:15:15.000Z</time>
      </trkpt>
      <trkpt lat="42.37648" lon="2.09693">
        <ele>2637</ele>
        <time>2017-10-15T09:15:16.000Z</time>
      </trkpt>
      <trkpt lat="42.37649" lon="2.09694">
        <ele>2637</ele>
        <time>2017-10-15T09:15:18.000Z</time>
      </trkpt>
      <trkpt lat="42.37649" lon="2.09696">
        <ele>2637</ele>
        <time>2017-10-15T09:15:19.000Z</time>
      </trkpt>
      <trkpt lat="42.37649" lon="2.09698">
        <ele>2637</ele>
        <time>2017-10-15T09:15:21.000Z</time>
      </trkpt>
      <trkpt lat="42.37649" lon="2.09699">
        <ele>2637</ele>
        <time>2017-10-15T09:15:22.000Z</time>
      </trkpt>
      <trkpt lat="42.37649" lon="2.09702">
        <ele>2637</ele>
        <time>2017-10-15T09:15:24.000Z</time>
      </trkpt>
      <trkpt lat="42.37649" lon="2.09704">
        <ele>2638</ele>
        <time>2017-10-15T09:15:26.000Z</time>
      </trkpt>
      <trkpt lat="42.37649" lon="2.09706">
        <ele>2638</ele>
        <time>2017-10-15T09:15:27.000Z</time>
      </trkpt>
      <trkpt lat="42.3765" lon="2.09708">
        <ele>2638</ele>
        <time>2017-10-15T09:15:29.000Z</time>
      </trkpt>
      <trkpt lat="42.3765" lon="2.09709">
        <ele>2638</ele>
        <time>2017-10-15T09:15:30.000Z</time>
      </trkpt>
      <trkpt lat="42.37651" lon="2.09712">
        <ele>2638</ele>
        <time>2017-10-15T09:15:32.000Z</time>
      </trkpt>
      <trkpt lat="42.37651" lon="2.09714">
        <ele>2639</ele>
        <time>2017-10-15T09:15:34.000Z</time>
      </trkpt>
      <trkpt lat="42.37651" lon="2.09715">
        <ele>2639</ele>
        <time>2017-10-15T09:15:35.000Z</time>
      </trkpt>
      <trkpt lat="42.37652" lon="2.09716">
        <ele>2639</ele>
        <time>2017-10-15T09:15:36.000Z</time>
      </trkpt>
      <trkpt lat="42.37652" lon="2.09718">
        <ele>2639</ele>
        <time>2017-10-15T09:15:37.000Z</time>
      </trkpt>
      <trkpt lat="42.37652" lon="2.09718">
        <ele>2639</ele>
        <time>2017-10-15T09:15:38.000Z</time>
      </trkpt>
      <trkpt lat="42.37653" lon="2.09721">
        <ele>2639</ele>
        <time>2017-10-15T09:15:40.000Z</time>
      </trkpt>
      <trkpt lat="42.37653" lon="2.09722">
        <ele>2639</ele>
        <time>2017-10-15T09:15:41.000Z</time>
      </trkpt>
      <trkpt lat="42.37653" lon="2.09723">
        <ele>2639</ele>
        <time>2017-10-15T09:15:42.000Z</time>
      </trkpt>
      <trkpt lat="42.37653" lon="2.09725">
        <ele>2640</ele>
        <time>2017-10-15T09:15:43.000Z</time>
      </trkpt>
      <trkpt lat="42.37653" lon="2.09726">
        <ele>2640</ele>
        <time>2017-10-15T09:15:44.000Z</time>
      </trkpt>
      <trkpt lat="42.37653" lon="2.09727">
        <ele>2640</ele>
        <time>2017-10-15T09:15:45.000Z</time>
      </trkpt>
      <trkpt lat="42.37653" lon="2.09728">
        <ele>2640</ele>
        <time>2017-10-15T09:15:46.000Z</time>
      </trkpt>
      <trkpt lat="42.37653" lon="2.0973">
        <ele>2640</ele>
        <time>2017-10-15T09:15:47.000Z</time>
      </trkpt>
      <trkpt lat="42.37653" lon="2.09731">
        <ele>2640</ele>
        <time>2017-10-15T09:15:48.000Z</time>
      </trkpt>
      <trkpt lat="42.37653" lon="2.09732">
        <ele>2640</ele>
        <time>2017-10-15T09:15:49.000Z</time>
      </trkpt>
      <trkpt lat="42.37653" lon="2.09733">
        <ele>2640</ele>
        <time>2017-10-15T09:15:50.000Z</time>
      </trkpt>
      <trkpt lat="42.37653" lon="2.09735">
        <ele>2640</ele>
        <time>2017-10-15T09:15:51.000Z</time>
      </trkpt>
      <trkpt lat="42.37653" lon="2.09736">
        <ele>2640</ele>
        <time>2017-10-15T09:15:52.000Z</time>
      </trkpt>
      <trkpt lat="42.37653" lon="2.09737">
        <ele>2640</ele>
        <time>2017-10-15T09:15:53.000Z</time>
      </trkpt>
      <trkpt lat="42.37653" lon="2.09738">
        <ele>2639</ele>
        <time>2017-10-15T09:15:54.000Z</time>
      </trkpt>
      <trkpt lat="42.37653" lon="2.0974">
        <ele>2639</ele>
        <time>2017-10-15T09:15:55.000Z</time>
      </trkpt>
      <trkpt lat="42.37653" lon="2.09741">
        <ele>2639</ele>
        <time>2017-10-15T09:15:56.000Z</time>
      </trkpt>
      <trkpt lat="42.37653" lon="2.09742">
        <ele>2639</ele>
        <time>2017-10-15T09:15:57.000Z</time>
      </trkpt>
      <trkpt lat="42.37653" lon="2.09744">
        <ele>2639</ele>
        <time>2017-10-15T09:15:58.000Z</time>
      </trkpt>
      <trkpt lat="42.37653" lon="2.09745">
        <ele>2639</ele>
        <time>2017-10-15T09:15:59.000Z</time>
      </trkpt>
      <trkpt lat="42.37653" lon="2.09746">
        <ele>2639</ele>
        <time>2017-10-15T09:16:00.000Z</time>
      </trkpt>
      <trkpt lat="42.37654" lon="2.09748">
        <ele>2639</ele>
        <time>2017-10-15T09:16:01.000Z</time>
      </trkpt>
      <trkpt lat="42.37653" lon="2.09749">
        <ele>2639</ele>
        <time>2017-10-15T09:16:02.000Z</time>
      </trkpt>
      <trkpt lat="42.37654" lon="2.09749">
        <ele>2639</ele>
        <time>2017-10-15T09:16:03.000Z</time>
      </trkpt>
      <trkpt lat="42.37654" lon="2.0975">
        <ele>2639</ele>
        <time>2017-10-15T09:16:04.000Z</time>
      </trkpt>
      <trkpt lat="42.37655" lon="2.09751">
        <ele>2639</ele>
        <time>2017-10-15T09:16:05.000Z</time>
      </trkpt>
      <trkpt lat="42.37655" lon="2.09753">
        <ele>2639</ele>
        <time>2017-10-15T09:16:06.000Z</time>
      </trkpt>
      <trkpt lat="42.37655" lon="2.09754">
        <ele>2639</ele>
        <time>2017-10-15T09:16:07.000Z</time>
      </trkpt>
      <trkpt lat="42.37654" lon="2.09755">
        <ele>2639</ele>
        <time>2017-10-15T09:16:08.000Z</time>
      </trkpt>
      <trkpt lat="42.37655" lon="2.09757">
        <ele>2639</ele>
        <time>2017-10-15T09:16:09.000Z</time>
      </trkpt>
      <trkpt lat="42.37655" lon="2.09758">
        <ele>2639</ele>
        <time>2017-10-15T09:16:10.000Z</time>
      </trkpt>
      <trkpt lat="42.37655" lon="2.09759">
        <ele>2639</ele>
        <time>2017-10-15T09:16:11.000Z</time>
      </trkpt>
      <trkpt lat="42.37655" lon="2.0976">
        <ele>2639</ele>
        <time>2017-10-15T09:16:12.000Z</time>
      </trkpt>
      <trkpt lat="42.37656" lon="2.09762">
        <ele>2639</ele>
        <time>2017-10-15T09:16:13.000Z</time>
      </trkpt>
      <trkpt lat="42.37656" lon="2.09763">
        <ele>2639</ele>
        <time>2017-10-15T09:16:14.000Z</time>
      </trkpt>
      <trkpt lat="42.37656" lon="2.09765">
        <ele>2639</ele>
        <time>2017-10-15T09:16:16.000Z</time>
      </trkpt>
      <trkpt lat="42.37656" lon="2.09766">
        <ele>2639</ele>
        <time>2017-10-15T09:16:17.000Z</time>
      </trkpt>
      <trkpt lat="42.37657" lon="2.09769">
        <ele>2639</ele>
        <time>2017-10-15T09:16:19.000Z</time>
      </trkpt>
      <trkpt lat="42.37657" lon="2.0977">
        <ele>2639</ele>
        <time>2017-10-15T09:16:20.000Z</time>
      </trkpt>
      <trkpt lat="42.37657" lon="2.09772">
        <ele>2639</ele>
        <time>2017-10-15T09:16:22.000Z</time>
      </trkpt>
      <trkpt lat="42.37657" lon="2.09774">
        <ele>2639</ele>
        <time>2017-10-15T09:16:24.000Z</time>
      </trkpt>
      <trkpt lat="42.37657" lon="2.09775">
        <ele>2639</ele>
        <time>2017-10-15T09:16:25.000Z</time>
      </trkpt>
      <trkpt lat="42.37657" lon="2.09776">
        <ele>2639</ele>
        <time>2017-10-15T09:16:26.000Z</time>
      </trkpt>
      <trkpt lat="42.37657" lon="2.09778">
        <ele>2639</ele>
        <time>2017-10-15T09:16:27.000Z</time>
      </trkpt>
      <trkpt lat="42.37657" lon="2.09779">
        <ele>2639</ele>
        <time>2017-10-15T09:16:28.000Z</time>
      </trkpt>
      <trkpt lat="42.37658" lon="2.0978">
        <ele>2639</ele>
        <time>2017-10-15T09:16:29.000Z</time>
      </trkpt>
      <trkpt lat="42.37658" lon="2.09781">
        <ele>2639</ele>
        <time>2017-10-15T09:16:30.000Z</time>
      </trkpt>
      <trkpt lat="42.37659" lon="2.09783">
        <ele>2639</ele>
        <time>2017-10-15T09:16:31.000Z</time>
      </trkpt>
      <trkpt lat="42.37659" lon="2.09784">
        <ele>2639</ele>
        <time>2017-10-15T09:16:32.000Z</time>
      </trkpt>
      <trkpt lat="42.37659" lon="2.09785">
        <ele>2639</ele>
        <time>2017-10-15T09:16:33.000Z</time>
      </trkpt>
      <trkpt lat="42.37659" lon="2.09787">
        <ele>2639</ele>
        <time>2017-10-15T09:16:34.000Z</time>
      </trkpt>
      <trkpt lat="42.37659" lon="2.09788">
        <ele>2639</ele>
        <time>2017-10-15T09:16:35.000Z</time>
      </trkpt>
      <trkpt lat="42.3766" lon="2.0979">
        <ele>2639</ele>
        <time>2017-10-15T09:16:36.000Z</time>
      </trkpt>
      <trkpt lat="42.3766" lon="2.09792">
        <ele>2639</ele>
        <time>2017-10-15T09:16:37.000Z</time>
      </trkpt>
      <trkpt lat="42.37661" lon="2.09794">
        <ele>2639</ele>
        <time>2017-10-15T09:16:38.000Z</time>
      </trkpt>
      <trkpt lat="42.37661" lon="2.09796">
        <ele>2639</ele>
        <time>2017-10-15T09:16:40.000Z</time>
      </trkpt>
      <trkpt lat="42.37661" lon="2.09797">
        <ele>2639</ele>
        <time>2017-10-15T09:16:41.000Z</time>
      </trkpt>
      <trkpt lat="42.37661" lon="2.09798">
        <ele>2639</ele>
        <time>2017-10-15T09:16:42.000Z</time>
      </trkpt>
      <trkpt lat="42.37662" lon="2.09799">
        <ele>2639</ele>
        <time>2017-10-15T09:16:43.000Z</time>
      </trkpt>
      <trkpt lat="42.37662" lon="2.098">
        <ele>2639</ele>
        <time>2017-10-15T09:16:45.000Z</time>
      </trkpt>
      <trkpt lat="42.37663" lon="2.09801">
        <ele>2639</ele>
        <time>2017-10-15T09:16:46.000Z</time>
      </trkpt>
      <trkpt lat="42.37663" lon="2.09803">
        <ele>2639</ele>
        <time>2017-10-15T09:16:47.000Z</time>
      </trkpt>
      <trkpt lat="42.37664" lon="2.09804">
        <ele>2639</ele>
        <time>2017-10-15T09:16:48.000Z</time>
      </trkpt>
      <trkpt lat="42.37664" lon="2.09805">
        <ele>2639</ele>
        <time>2017-10-15T09:16:49.000Z</time>
      </trkpt>
      <trkpt lat="42.37665" lon="2.09806">
        <ele>2639</ele>
        <time>2017-10-15T09:16:50.000Z</time>
      </trkpt>
      <trkpt lat="42.37665" lon="2.09807">
        <ele>2639</ele>
        <time>2017-10-15T09:16:51.000Z</time>
      </trkpt>
      <trkpt lat="42.37666" lon="2.09808">
        <ele>2639</ele>
        <time>2017-10-15T09:16:52.000Z</time>
      </trkpt>
      <trkpt lat="42.37666" lon="2.09809">
        <ele>2639</ele>
        <time>2017-10-15T09:16:53.000Z</time>
      </trkpt>
      <trkpt lat="42.37666" lon="2.09811">
        <ele>2639</ele>
        <time>2017-10-15T09:16:55.000Z</time>
      </trkpt>
      <trkpt lat="42.37666" lon="2.09811">
        <ele>2639</ele>
        <time>2017-10-15T09:16:57.000Z</time>
      </trkpt>
      <trkpt lat="42.37667" lon="2.09811">
        <ele>2639</ele>
        <time>2017-10-15T09:16:58.000Z</time>
      </trkpt>
      <trkpt lat="42.37667" lon="2.09812">
        <ele>2639</ele>
        <time>2017-10-15T09:16:59.000Z</time>
      </trkpt>
      <trkpt lat="42.37669" lon="2.09813">
        <ele>2638</ele>
        <time>2017-10-15T09:17:01.000Z</time>
      </trkpt>
      <trkpt lat="42.37669" lon="2.09814">
        <ele>2638</ele>
        <time>2017-10-15T09:17:02.000Z</time>
      </trkpt>
      <trkpt lat="42.3767" lon="2.09815">
        <ele>2638</ele>
        <time>2017-10-15T09:17:04.000Z</time>
      </trkpt>
      <trkpt lat="42.3767" lon="2.09816">
        <ele>2638</ele>
        <time>2017-10-15T09:17:05.000Z</time>
      </trkpt>
      <trkpt lat="42.37671" lon="2.09817">
        <ele>2637</ele>
        <time>2017-10-15T09:17:06.000Z</time>
      </trkpt>
      <trkpt lat="42.37671" lon="2.09818">
        <ele>2637</ele>
        <time>2017-10-15T09:17:07.000Z</time>
      </trkpt>
      <trkpt lat="42.37671" lon="2.09819">
        <ele>2637</ele>
        <time>2017-10-15T09:17:08.000Z</time>
      </trkpt>
      <trkpt lat="42.37672" lon="2.09821">
        <ele>2637</ele>
        <time>2017-10-15T09:17:09.000Z</time>
      </trkpt>
      <trkpt lat="42.37672" lon="2.09822">
        <ele>2637</ele>
        <time>2017-10-15T09:17:10.000Z</time>
      </trkpt>
      <trkpt lat="42.37672" lon="2.09823">
        <ele>2637</ele>
        <time>2017-10-15T09:17:11.000Z</time>
      </trkpt>
      <trkpt lat="42.37673" lon="2.09825">
        <ele>2637</ele>
        <time>2017-10-15T09:17:12.000Z</time>
      </trkpt>
      <trkpt lat="42.37673" lon="2.09826">
        <ele>2637</ele>
        <time>2017-10-15T09:17:13.000Z</time>
      </trkpt>
      <trkpt lat="42.37673" lon="2.09827">
        <ele>2636</ele>
        <time>2017-10-15T09:17:14.000Z</time>
      </trkpt>
      <trkpt lat="42.37674" lon="2.09828">
        <ele>2637</ele>
        <time>2017-10-15T09:17:15.000Z</time>
      </trkpt>
      <trkpt lat="42.37675" lon="2.0983">
        <ele>2637</ele>
        <time>2017-10-15T09:17:16.000Z</time>
      </trkpt>
      <trkpt lat="42.37675" lon="2.09831">
        <ele>2637</ele>
        <time>2017-10-15T09:17:17.000Z</time>
      </trkpt>
      <trkpt lat="42.37676" lon="2.09832">
        <ele>2637</ele>
        <time>2017-10-15T09:17:18.000Z</time>
      </trkpt>
      <trkpt lat="42.37678" lon="2.09834">
        <ele>2637</ele>
        <time>2017-10-15T09:17:19.000Z</time>
      </trkpt>
      <trkpt lat="42.37678" lon="2.09835">
        <ele>2637</ele>
        <time>2017-10-15T09:17:20.000Z</time>
      </trkpt>
      <trkpt lat="42.3768" lon="2.09837">
        <ele>2637</ele>
        <time>2017-10-15T09:17:22.000Z</time>
      </trkpt>
      <trkpt lat="42.3768" lon="2.09839">
        <ele>2637</ele>
        <time>2017-10-15T09:17:23.000Z</time>
      </trkpt>
      <trkpt lat="42.37681" lon="2.09841">
        <ele>2637</ele>
        <time>2017-10-15T09:17:25.000Z</time>
      </trkpt>
      <trkpt lat="42.37682" lon="2.09842">
        <ele>2637</ele>
        <time>2017-10-15T09:17:27.000Z</time>
      </trkpt>
      <trkpt lat="42.37683" lon="2.09844">
        <ele>2637</ele>
        <time>2017-10-15T09:17:28.000Z</time>
      </trkpt>
      <trkpt lat="42.37683" lon="2.09845">
        <ele>2637</ele>
        <time>2017-10-15T09:17:29.000Z</time>
      </trkpt>
      <trkpt lat="42.37683" lon="2.09847">
        <ele>2637</ele>
        <time>2017-10-15T09:17:30.000Z</time>
      </trkpt>
      <trkpt lat="42.37684" lon="2.09848">
        <ele>2637</ele>
        <time>2017-10-15T09:17:31.000Z</time>
      </trkpt>
      <trkpt lat="42.37685" lon="2.09849">
        <ele>2637</ele>
        <time>2017-10-15T09:17:32.000Z</time>
      </trkpt>
      <trkpt lat="42.37685" lon="2.0985">
        <ele>2637</ele>
        <time>2017-10-15T09:17:33.000Z</time>
      </trkpt>
      <trkpt lat="42.37686" lon="2.09852">
        <ele>2637</ele>
        <time>2017-10-15T09:17:34.000Z</time>
      </trkpt>
      <trkpt lat="42.37686" lon="2.09853">
        <ele>2636</ele>
        <time>2017-10-15T09:17:35.000Z</time>
      </trkpt>
      <trkpt lat="42.37686" lon="2.09854">
        <ele>2636</ele>
        <time>2017-10-15T09:17:36.000Z</time>
      </trkpt>
      <trkpt lat="42.37686" lon="2.09855">
        <ele>2636</ele>
        <time>2017-10-15T09:17:37.000Z</time>
      </trkpt>
      <trkpt lat="42.37687" lon="2.09857">
        <ele>2636</ele>
        <time>2017-10-15T09:17:38.000Z</time>
      </trkpt>
      <trkpt lat="42.37687" lon="2.09858">
        <ele>2636</ele>
        <time>2017-10-15T09:17:39.000Z</time>
      </trkpt>
      <trkpt lat="42.37688" lon="2.0986">
        <ele>2636</ele>
        <time>2017-10-15T09:17:40.000Z</time>
      </trkpt>
      <trkpt lat="42.37689" lon="2.09861">
        <ele>2636</ele>
        <time>2017-10-15T09:17:42.000Z</time>
      </trkpt>
      <trkpt lat="42.3769" lon="2.09863">
        <ele>2636</ele>
        <time>2017-10-15T09:17:43.000Z</time>
      </trkpt>
      <trkpt lat="42.37691" lon="2.09864">
        <ele>2636</ele>
        <time>2017-10-15T09:17:44.000Z</time>
      </trkpt>
      <trkpt lat="42.37692" lon="2.09866">
        <ele>2636</ele>
        <time>2017-10-15T09:17:45.000Z</time>
      </trkpt>
      <trkpt lat="42.37692" lon="2.09867">
        <ele>2635</ele>
        <time>2017-10-15T09:17:46.000Z</time>
      </trkpt>
      <trkpt lat="42.37693" lon="2.09868">
        <ele>2635</ele>
        <time>2017-10-15T09:17:47.000Z</time>
      </trkpt>
      <trkpt lat="42.37693" lon="2.0987">
        <ele>2635</ele>
        <time>2017-10-15T09:17:48.000Z</time>
      </trkpt>
      <trkpt lat="42.37694" lon="2.09872">
        <ele>2635</ele>
        <time>2017-10-15T09:17:49.000Z</time>
      </trkpt>
      <trkpt lat="42.37693" lon="2.09874">
        <ele>2635</ele>
        <time>2017-10-15T09:17:50.000Z</time>
      </trkpt>
      <trkpt lat="42.37694" lon="2.09876">
        <ele>2635</ele>
        <time>2017-10-15T09:17:51.000Z</time>
      </trkpt>
      <trkpt lat="42.37695" lon="2.09878">
        <ele>2635</ele>
        <time>2017-10-15T09:17:52.000Z</time>
      </trkpt>
      <trkpt lat="42.37695" lon="2.09879">
        <ele>2635</ele>
        <time>2017-10-15T09:17:53.000Z</time>
      </trkpt>
      <trkpt lat="42.37695" lon="2.0988">
        <ele>2635</ele>
        <time>2017-10-15T09:17:54.000Z</time>
      </trkpt>
      <trkpt lat="42.37696" lon="2.09882">
        <ele>2634</ele>
        <time>2017-10-15T09:17:55.000Z</time>
      </trkpt>
      <trkpt lat="42.37696" lon="2.09883">
        <ele>2634</ele>
        <time>2017-10-15T09:17:56.000Z</time>
      </trkpt>
      <trkpt lat="42.37696" lon="2.09885">
        <ele>2634</ele>
        <time>2017-10-15T09:17:57.000Z</time>
      </trkpt>
      <trkpt lat="42.37697" lon="2.09886">
        <ele>2634</ele>
        <time>2017-10-15T09:17:58.000Z</time>
      </trkpt>
      <trkpt lat="42.37697" lon="2.09888">
        <ele>2634</ele>
        <time>2017-10-15T09:17:59.000Z</time>
      </trkpt>
      <trkpt lat="42.37698" lon="2.09889">
        <ele>2634</ele>
        <time>2017-10-15T09:18:00.000Z</time>
      </trkpt>
      <trkpt lat="42.37698" lon="2.0989">
        <ele>2634</ele>
        <time>2017-10-15T09:18:01.000Z</time>
      </trkpt>
      <trkpt lat="42.37698" lon="2.09891">
        <ele>2634</ele>
        <time>2017-10-15T09:18:02.000Z</time>
      </trkpt>
      <trkpt lat="42.37699" lon="2.09893">
        <ele>2634</ele>
        <time>2017-10-15T09:18:03.000Z</time>
      </trkpt>
      <trkpt lat="42.377" lon="2.09894">
        <ele>2634</ele>
        <time>2017-10-15T09:18:04.000Z</time>
      </trkpt>
      <trkpt lat="42.37701" lon="2.09895">
        <ele>2634</ele>
        <time>2017-10-15T09:18:05.000Z</time>
      </trkpt>
      <trkpt lat="42.37701" lon="2.09896">
        <ele>2633</ele>
        <time>2017-10-15T09:18:06.000Z</time>
      </trkpt>
      <trkpt lat="42.37702" lon="2.09897">
        <ele>2633</ele>
        <time>2017-10-15T09:18:07.000Z</time>
      </trkpt>
      <trkpt lat="42.37703" lon="2.09898">
        <ele>2633</ele>
        <time>2017-10-15T09:18:08.000Z</time>
      </trkpt>
      <trkpt lat="42.37703" lon="2.09899">
        <ele>2633</ele>
        <time>2017-10-15T09:18:09.000Z</time>
      </trkpt>
      <trkpt lat="42.37704" lon="2.099">
        <ele>2633</ele>
        <time>2017-10-15T09:18:10.000Z</time>
      </trkpt>
      <trkpt lat="42.37705" lon="2.09901">
        <ele>2633</ele>
        <time>2017-10-15T09:18:11.000Z</time>
      </trkpt>
      <trkpt lat="42.37705" lon="2.09902">
        <ele>2633</ele>
        <time>2017-10-15T09:18:12.000Z</time>
      </trkpt>
      <trkpt lat="42.37706" lon="2.09904">
        <ele>2633</ele>
        <time>2017-10-15T09:18:13.000Z</time>
      </trkpt>
      <trkpt lat="42.37707" lon="2.09905">
        <ele>2633</ele>
        <time>2017-10-15T09:18:14.000Z</time>
      </trkpt>
      <trkpt lat="42.37707" lon="2.09906">
        <ele>2633</ele>
        <time>2017-10-15T09:18:15.000Z</time>
      </trkpt>
      <trkpt lat="42.37707" lon="2.09907">
        <ele>2633</ele>
        <time>2017-10-15T09:18:16.000Z</time>
      </trkpt>
      <trkpt lat="42.37708" lon="2.09908">
        <ele>2632</ele>
        <time>2017-10-15T09:18:17.000Z</time>
      </trkpt>
      <trkpt lat="42.37709" lon="2.09909">
        <ele>2632</ele>
        <time>2017-10-15T09:18:18.000Z</time>
      </trkpt>
      <trkpt lat="42.3771" lon="2.0991">
        <ele>2632</ele>
        <time>2017-10-15T09:18:19.000Z</time>
      </trkpt>
      <trkpt lat="42.3771" lon="2.09911">
        <ele>2632</ele>
        <time>2017-10-15T09:18:20.000Z</time>
      </trkpt>
      <trkpt lat="42.3771" lon="2.09912">
        <ele>2632</ele>
        <time>2017-10-15T09:18:21.000Z</time>
      </trkpt>
      <trkpt lat="42.37711" lon="2.09913">
        <ele>2633</ele>
        <time>2017-10-15T09:18:22.000Z</time>
      </trkpt>
      <trkpt lat="42.37712" lon="2.09914">
        <ele>2633</ele>
        <time>2017-10-15T09:18:23.000Z</time>
      </trkpt>
      <trkpt lat="42.37713" lon="2.09915">
        <ele>2633</ele>
        <time>2017-10-15T09:18:24.000Z</time>
      </trkpt>
      <trkpt lat="42.37714" lon="2.09917">
        <ele>2633</ele>
        <time>2017-10-15T09:18:25.000Z</time>
      </trkpt>
      <trkpt lat="42.37714" lon="2.09918">
        <ele>2633</ele>
        <time>2017-10-15T09:18:26.000Z</time>
      </trkpt>
      <trkpt lat="42.37715" lon="2.0992">
        <ele>2633</ele>
        <time>2017-10-15T09:18:27.000Z</time>
      </trkpt>
      <trkpt lat="42.37716" lon="2.09921">
        <ele>2633</ele>
        <time>2017-10-15T09:18:28.000Z</time>
      </trkpt>
      <trkpt lat="42.37716" lon="2.09922">
        <ele>2633</ele>
        <time>2017-10-15T09:18:29.000Z</time>
      </trkpt>
      <trkpt lat="42.37717" lon="2.09923">
        <ele>2633</ele>
        <time>2017-10-15T09:18:30.000Z</time>
      </trkpt>
      <trkpt lat="42.37717" lon="2.09924">
        <ele>2633</ele>
        <time>2017-10-15T09:18:31.000Z</time>
      </trkpt>
      <trkpt lat="42.37718" lon="2.09925">
        <ele>2633</ele>
        <time>2017-10-15T09:18:32.000Z</time>
      </trkpt>
      <trkpt lat="42.37719" lon="2.09926">
        <ele>2633</ele>
        <time>2017-10-15T09:18:33.000Z</time>
      </trkpt>
      <trkpt lat="42.3772" lon="2.09927">
        <ele>2634</ele>
        <time>2017-10-15T09:18:34.000Z</time>
      </trkpt>
      <trkpt lat="42.3772" lon="2.09928">
        <ele>2634</ele>
        <time>2017-10-15T09:18:35.000Z</time>
      </trkpt>
      <trkpt lat="42.37721" lon="2.09929">
        <ele>2634</ele>
        <time>2017-10-15T09:18:36.000Z</time>
      </trkpt>
      <trkpt lat="42.37721" lon="2.09931">
        <ele>2634</ele>
        <time>2017-10-15T09:18:37.000Z</time>
      </trkpt>
      <trkpt lat="42.37722" lon="2.09932">
        <ele>2634</ele>
        <time>2017-10-15T09:18:38.000Z</time>
      </trkpt>
      <trkpt lat="42.37723" lon="2.09933">
        <ele>2634</ele>
        <time>2017-10-15T09:18:39.000Z</time>
      </trkpt>
      <trkpt lat="42.37724" lon="2.09934">
        <ele>2634</ele>
        <time>2017-10-15T09:18:40.000Z</time>
      </trkpt>
      <trkpt lat="42.37725" lon="2.09935">
        <ele>2634</ele>
        <time>2017-10-15T09:18:41.000Z</time>
      </trkpt>
      <trkpt lat="42.37725" lon="2.09936">
        <ele>2634</ele>
        <time>2017-10-15T09:18:42.000Z</time>
      </trkpt>
      <trkpt lat="42.37726" lon="2.09937">
        <ele>2634</ele>
        <time>2017-10-15T09:18:43.000Z</time>
      </trkpt>
      <trkpt lat="42.37726" lon="2.09938">
        <ele>2634</ele>
        <time>2017-10-15T09:18:44.000Z</time>
      </trkpt>
      <trkpt lat="42.37726" lon="2.09939">
        <ele>2634</ele>
        <time>2017-10-15T09:18:45.000Z</time>
      </trkpt>
      <trkpt lat="42.37726" lon="2.0994">
        <ele>2635</ele>
        <time>2017-10-15T09:18:46.000Z</time>
      </trkpt>
      <trkpt lat="42.37727" lon="2.09941">
        <ele>2635</ele>
        <time>2017-10-15T09:18:47.000Z</time>
      </trkpt>
      <trkpt lat="42.37727" lon="2.09942">
        <ele>2635</ele>
        <time>2017-10-15T09:18:48.000Z</time>
      </trkpt>
      <trkpt lat="42.37727" lon="2.09943">
        <ele>2635</ele>
        <time>2017-10-15T09:18:49.000Z</time>
      </trkpt>
      <trkpt lat="42.37728" lon="2.09944">
        <ele>2635</ele>
        <time>2017-10-15T09:18:50.000Z</time>
      </trkpt>
      <trkpt lat="42.37728" lon="2.09946">
        <ele>2635</ele>
        <time>2017-10-15T09:18:51.000Z</time>
      </trkpt>
      <trkpt lat="42.37728" lon="2.09946">
        <ele>2635</ele>
        <time>2017-10-15T09:18:52.000Z</time>
      </trkpt>
      <trkpt lat="42.37728" lon="2.09948">
        <ele>2635</ele>
        <time>2017-10-15T09:18:53.000Z</time>
      </trkpt>
      <trkpt lat="42.37729" lon="2.09949">
        <ele>2635</ele>
        <time>2017-10-15T09:18:54.000Z</time>
      </trkpt>
      <trkpt lat="42.3773" lon="2.0995">
        <ele>2635</ele>
        <time>2017-10-15T09:18:55.000Z</time>
      </trkpt>
      <trkpt lat="42.3773" lon="2.09951">
        <ele>2635</ele>
        <time>2017-10-15T09:18:56.000Z</time>
      </trkpt>
      <trkpt lat="42.37731" lon="2.09952">
        <ele>2636</ele>
        <time>2017-10-15T09:18:57.000Z</time>
      </trkpt>
      <trkpt lat="42.37732" lon="2.09952">
        <ele>2636</ele>
        <time>2017-10-15T09:18:58.000Z</time>
      </trkpt>
      <trkpt lat="42.37733" lon="2.09953">
        <ele>2636</ele>
        <time>2017-10-15T09:18:59.000Z</time>
      </trkpt>
      <trkpt lat="42.37734" lon="2.09954">
        <ele>2636</ele>
        <time>2017-10-15T09:19:00.000Z</time>
      </trkpt>
      <trkpt lat="42.37734" lon="2.09955">
        <ele>2636</ele>
        <time>2017-10-15T09:19:01.000Z</time>
      </trkpt>
      <trkpt lat="42.37735" lon="2.09955">
        <ele>2636</ele>
        <time>2017-10-15T09:19:02.000Z</time>
      </trkpt>
      <trkpt lat="42.37737" lon="2.09956">
        <ele>2636</ele>
        <time>2017-10-15T09:19:03.000Z</time>
      </trkpt>
      <trkpt lat="42.37738" lon="2.09956">
        <ele>2636</ele>
        <time>2017-10-15T09:19:04.000Z</time>
      </trkpt>
      <trkpt lat="42.37739" lon="2.09957">
        <ele>2636</ele>
        <time>2017-10-15T09:19:05.000Z</time>
      </trkpt>
      <trkpt lat="42.3774" lon="2.09958">
        <ele>2636</ele>
        <time>2017-10-15T09:19:06.000Z</time>
      </trkpt>
      <trkpt lat="42.37741" lon="2.09959">
        <ele>2636</ele>
        <time>2017-10-15T09:19:07.000Z</time>
      </trkpt>
      <trkpt lat="42.37742" lon="2.0996">
        <ele>2636</ele>
        <time>2017-10-15T09:19:08.000Z</time>
      </trkpt>
      <trkpt lat="42.37742" lon="2.09961">
        <ele>2636</ele>
        <time>2017-10-15T09:19:09.000Z</time>
      </trkpt>
      <trkpt lat="42.37743" lon="2.09962">
        <ele>2636</ele>
        <time>2017-10-15T09:19:10.000Z</time>
      </trkpt>
      <trkpt lat="42.37744" lon="2.09962">
        <ele>2636</ele>
        <time>2017-10-15T09:19:11.000Z</time>
      </trkpt>
      <trkpt lat="42.37744" lon="2.09963">
        <ele>2636</ele>
        <time>2017-10-15T09:19:12.000Z</time>
      </trkpt>
      <trkpt lat="42.37745" lon="2.09964">
        <ele>2636</ele>
        <time>2017-10-15T09:19:13.000Z</time>
      </trkpt>
      <trkpt lat="42.37745" lon="2.09965">
        <ele>2636</ele>
        <time>2017-10-15T09:19:14.000Z</time>
      </trkpt>
      <trkpt lat="42.37746" lon="2.09966">
        <ele>2636</ele>
        <time>2017-10-15T09:19:15.000Z</time>
      </trkpt>
      <trkpt lat="42.37746" lon="2.09967">
        <ele>2636</ele>
        <time>2017-10-15T09:19:16.000Z</time>
      </trkpt>
      <trkpt lat="42.37747" lon="2.09968">
        <ele>2636</ele>
        <time>2017-10-15T09:19:17.000Z</time>
      </trkpt>
      <trkpt lat="42.37748" lon="2.09969">
        <ele>2636</ele>
        <time>2017-10-15T09:19:18.000Z</time>
      </trkpt>
      <trkpt lat="42.37748" lon="2.0997">
        <ele>2636</ele>
        <time>2017-10-15T09:19:19.000Z</time>
      </trkpt>
      <trkpt lat="42.37749" lon="2.09971">
        <ele>2636</ele>
        <time>2017-10-15T09:19:20.000Z</time>
      </trkpt>
      <trkpt lat="42.3775" lon="2.09972">
        <ele>2636</ele>
        <time>2017-10-15T09:19:21.000Z</time>
      </trkpt>
      <trkpt lat="42.3775" lon="2.09973">
        <ele>2636</ele>
        <time>2017-10-15T09:19:22.000Z</time>
      </trkpt>
      <trkpt lat="42.37751" lon="2.09974">
        <ele>2636</ele>
        <time>2017-10-15T09:19:23.000Z</time>
      </trkpt>
      <trkpt lat="42.37751" lon="2.09975">
        <ele>2636</ele>
        <time>2017-10-15T09:19:24.000Z</time>
      </trkpt>
      <trkpt lat="42.37752" lon="2.09977">
        <ele>2636</ele>
        <time>2017-10-15T09:19:25.000Z</time>
      </trkpt>
      <trkpt lat="42.37752" lon="2.09978">
        <ele>2636</ele>
        <time>2017-10-15T09:19:26.000Z</time>
      </trkpt>
      <trkpt lat="42.37752" lon="2.09979">
        <ele>2636</ele>
        <time>2017-10-15T09:19:27.000Z</time>
      </trkpt>
      <trkpt lat="42.37753" lon="2.0998">
        <ele>2636</ele>
        <time>2017-10-15T09:19:28.000Z</time>
      </trkpt>
      <trkpt lat="42.37754" lon="2.09981">
        <ele>2636</ele>
        <time>2017-10-15T09:19:29.000Z</time>
      </trkpt>
      <trkpt lat="42.37754" lon="2.09982">
        <ele>2636</ele>
        <time>2017-10-15T09:19:30.000Z</time>
      </trkpt>
      <trkpt lat="42.37754" lon="2.09983">
        <ele>2636</ele>
        <time>2017-10-15T09:19:31.000Z</time>
      </trkpt>
      <trkpt lat="42.37755" lon="2.09984">
        <ele>2636</ele>
        <time>2017-10-15T09:19:32.000Z</time>
      </trkpt>
      <trkpt lat="42.37755" lon="2.09985">
        <ele>2636</ele>
        <time>2017-10-15T09:19:33.000Z</time>
      </trkpt>
      <trkpt lat="42.37756" lon="2.09986">
        <ele>2636</ele>
        <time>2017-10-15T09:19:34.000Z</time>
      </trkpt>
      <trkpt lat="42.37756" lon="2.09987">
        <ele>2636</ele>
        <time>2017-10-15T09:19:35.000Z</time>
      </trkpt>
      <trkpt lat="42.37757" lon="2.09988">
        <ele>2636</ele>
        <time>2017-10-15T09:19:36.000Z</time>
      </trkpt>
      <trkpt lat="42.37757" lon="2.09989">
        <ele>2636</ele>
        <time>2017-10-15T09:19:37.000Z</time>
      </trkpt>
      <trkpt lat="42.37758" lon="2.0999">
        <ele>2636</ele>
        <time>2017-10-15T09:19:38.000Z</time>
      </trkpt>
      <trkpt lat="42.37758" lon="2.09991">
        <ele>2636</ele>
        <time>2017-10-15T09:19:39.000Z</time>
      </trkpt>
      <trkpt lat="42.37759" lon="2.09992">
        <ele>2636</ele>
        <time>2017-10-15T09:19:40.000Z</time>
      </trkpt>
      <trkpt lat="42.37759" lon="2.09993">
        <ele>2636</ele>
        <time>2017-10-15T09:19:41.000Z</time>
      </trkpt>
      <trkpt lat="42.37759" lon="2.09995">
        <ele>2636</ele>
        <time>2017-10-15T09:19:42.000Z</time>
      </trkpt>
      <trkpt lat="42.3776" lon="2.09996">
        <ele>2636</ele>
        <time>2017-10-15T09:19:43.000Z</time>
      </trkpt>
      <trkpt lat="42.3776" lon="2.09997">
        <ele>2636</ele>
        <time>2017-10-15T09:19:44.000Z</time>
      </trkpt>
      <trkpt lat="42.37761" lon="2.09997">
        <ele>2636</ele>
        <time>2017-10-15T09:19:45.000Z</time>
      </trkpt>
      <trkpt lat="42.37762" lon="2.09998">
        <ele>2636</ele>
        <time>2017-10-15T09:19:46.000Z</time>
      </trkpt>
      <trkpt lat="42.37762" lon="2.09999">
        <ele>2636</ele>
        <time>2017-10-15T09:19:47.000Z</time>
      </trkpt>
      <trkpt lat="42.37763" lon="2.1">
        <ele>2635</ele>
        <time>2017-10-15T09:19:48.000Z</time>
      </trkpt>
      <trkpt lat="42.37764" lon="2.10001">
        <ele>2635</ele>
        <time>2017-10-15T09:19:49.000Z</time>
      </trkpt>
      <trkpt lat="42.37764" lon="2.10002">
        <ele>2635</ele>
        <time>2017-10-15T09:19:50.000Z</time>
      </trkpt>
      <trkpt lat="42.37764" lon="2.10002">
        <ele>2635</ele>
        <time>2017-10-15T09:19:51.000Z</time>
      </trkpt>
      <trkpt lat="42.37765" lon="2.10003">
        <ele>2635</ele>
        <time>2017-10-15T09:19:52.000Z</time>
      </trkpt>
      <trkpt lat="42.37765" lon="2.10004">
        <ele>2635</ele>
        <time>2017-10-15T09:19:53.000Z</time>
      </trkpt>
      <trkpt lat="42.37766" lon="2.10005">
        <ele>2635</ele>
        <time>2017-10-15T09:19:54.000Z</time>
      </trkpt>
      <trkpt lat="42.37766" lon="2.10006">
        <ele>2635</ele>
        <time>2017-10-15T09:19:55.000Z</time>
      </trkpt>
      <trkpt lat="42.37767" lon="2.10007">
        <ele>2635</ele>
        <time>2017-10-15T09:19:56.000Z</time>
      </trkpt>
      <trkpt lat="42.37768" lon="2.10008">
        <ele>2635</ele>
        <time>2017-10-15T09:19:57.000Z</time>
      </trkpt>
      <trkpt lat="42.37768" lon="2.10009">
        <ele>2635</ele>
        <time>2017-10-15T09:19:58.000Z</time>
      </trkpt>
      <trkpt lat="42.37768" lon="2.1001">
        <ele>2635</ele>
        <time>2017-10-15T09:19:59.000Z</time>
      </trkpt>
      <trkpt lat="42.37769" lon="2.10011">
        <ele>2635</ele>
        <time>2017-10-15T09:20:00.000Z</time>
      </trkpt>
      <trkpt lat="42.37769" lon="2.10012">
        <ele>2635</ele>
        <time>2017-10-15T09:20:01.000Z</time>
      </trkpt>
      <trkpt lat="42.37769" lon="2.10013">
        <ele>2635</ele>
        <time>2017-10-15T09:20:02.000Z</time>
      </trkpt>
      <trkpt lat="42.3777" lon="2.10014">
        <ele>2635</ele>
        <time>2017-10-15T09:20:03.000Z</time>
      </trkpt>
      <trkpt lat="42.3777" lon="2.10015">
        <ele>2635</ele>
        <time>2017-10-15T09:20:04.000Z</time>
      </trkpt>
      <trkpt lat="42.37771" lon="2.10016">
        <ele>2635</ele>
        <time>2017-10-15T09:20:05.000Z</time>
      </trkpt>
      <trkpt lat="42.37771" lon="2.10017">
        <ele>2634</ele>
        <time>2017-10-15T09:20:06.000Z</time>
      </trkpt>
      <trkpt lat="42.37771" lon="2.10018">
        <ele>2634</ele>
        <time>2017-10-15T09:20:07.000Z</time>
      </trkpt>
      <trkpt lat="42.37771" lon="2.10018">
        <ele>2634</ele>
        <time>2017-10-15T09:20:08.000Z</time>
      </trkpt>
      <trkpt lat="42.37772" lon="2.10019">
        <ele>2634</ele>
        <time>2017-10-15T09:20:09.000Z</time>
      </trkpt>
      <trkpt lat="42.37772" lon="2.10019">
        <ele>2634</ele>
        <time>2017-10-15T09:20:10.000Z</time>
      </trkpt>
      <trkpt lat="42.37772" lon="2.10019">
        <ele>2634</ele>
        <time>2017-10-15T09:20:11.000Z</time>
      </trkpt>
      <trkpt lat="42.37773" lon="2.1002">
        <ele>2634</ele>
        <time>2017-10-15T09:20:12.000Z</time>
      </trkpt>
      <trkpt lat="42.37774" lon="2.10021">
        <ele>2634</ele>
        <time>2017-10-15T09:20:13.000Z</time>
      </trkpt>
      <trkpt lat="42.37775" lon="2.10021">
        <ele>2634</ele>
        <time>2017-10-15T09:20:14.000Z</time>
      </trkpt>
      <trkpt lat="42.37775" lon="2.10022">
        <ele>2633</ele>
        <time>2017-10-15T09:20:15.000Z</time>
      </trkpt>
      <trkpt lat="42.37776" lon="2.10023">
        <ele>2633</ele>
        <time>2017-10-15T09:20:16.000Z</time>
      </trkpt>
      <trkpt lat="42.37776" lon="2.10023">
        <ele>2633</ele>
        <time>2017-10-15T09:20:17.000Z</time>
      </trkpt>
      <trkpt lat="42.37776" lon="2.10024">
        <ele>2633</ele>
        <time>2017-10-15T09:20:18.000Z</time>
      </trkpt>
      <trkpt lat="42.37776" lon="2.10025">
        <ele>2633</ele>
        <time>2017-10-15T09:20:19.000Z</time>
      </trkpt>
      <trkpt lat="42.37777" lon="2.10026">
        <ele>2633</ele>
        <time>2017-10-15T09:20:20.000Z</time>
      </trkpt>
      <trkpt lat="42.37777" lon="2.10026">
        <ele>2632</ele>
        <time>2017-10-15T09:20:21.000Z</time>
      </trkpt>
      <trkpt lat="42.37778" lon="2.10027">
        <ele>2632</ele>
        <time>2017-10-15T09:20:22.000Z</time>
      </trkpt>
      <trkpt lat="42.37778" lon="2.10028">
        <ele>2632</ele>
        <time>2017-10-15T09:20:23.000Z</time>
      </trkpt>
      <trkpt lat="42.37778" lon="2.10028">
        <ele>2632</ele>
        <time>2017-10-15T09:20:24.000Z</time>
      </trkpt>
      <trkpt lat="42.37778" lon="2.10029">
        <ele>2632</ele>
        <time>2017-10-15T09:20:25.000Z</time>
      </trkpt>
      <trkpt lat="42.37779" lon="2.1003">
        <ele>2632</ele>
        <time>2017-10-15T09:20:26.000Z</time>
      </trkpt>
      <trkpt lat="42.37779" lon="2.1003">
        <ele>2632</ele>
        <time>2017-10-15T09:20:27.000Z</time>
      </trkpt>
      <trkpt lat="42.37779" lon="2.10031">
        <ele>2632</ele>
        <time>2017-10-15T09:20:28.000Z</time>
      </trkpt>
      <trkpt lat="42.3778" lon="2.10031">
        <ele>2632</ele>
        <time>2017-10-15T09:20:29.000Z</time>
      </trkpt>
      <trkpt lat="42.3778" lon="2.1003">
        <ele>2632</ele>
        <time>2017-10-15T09:20:30.000Z</time>
      </trkpt>
      <trkpt lat="42.3778" lon="2.1003">
        <ele>2632</ele>
        <time>2017-10-15T09:20:31.000Z</time>
      </trkpt>
      <trkpt lat="42.37784" lon="2.10034">
        <ele>2631</ele>
        <time>2017-10-15T09:45:07.000Z</time>
      </trkpt>
      <trkpt lat="42.37785" lon="2.10035">
        <ele>2631</ele>
        <time>2017-10-15T09:45:08.000Z</time>
      </trkpt>
      <trkpt lat="42.37785" lon="2.10036">
        <ele>2631</ele>
        <time>2017-10-15T09:45:09.000Z</time>
      </trkpt>
      <trkpt lat="42.37785" lon="2.10036">
        <ele>2630</ele>
        <time>2017-10-15T09:45:10.000Z</time>
      </trkpt>
      <trkpt lat="42.37785" lon="2.10037">
        <ele>2630</ele>
        <time>2017-10-15T09:45:11.000Z</time>
      </trkpt>
      <trkpt lat="42.37786" lon="2.10037">
        <ele>2630</ele>
        <time>2017-10-15T09:45:12.000Z</time>
      </trkpt>
      <trkpt lat="42.37786" lon="2.10038">
        <ele>2630</ele>
        <time>2017-10-15T09:45:13.000Z</time>
      </trkpt>
      <trkpt lat="42.37786" lon="2.10039">
        <ele>2630</ele>
        <time>2017-10-15T09:45:14.000Z</time>
      </trkpt>
      <trkpt lat="42.37787" lon="2.10039">
        <ele>2630</ele>
        <time>2017-10-15T09:45:15.000Z</time>
      </trkpt>
      <trkpt lat="42.37787" lon="2.1004">
        <ele>2630</ele>
        <time>2017-10-15T09:45:16.000Z</time>
      </trkpt>
      <trkpt lat="42.37787" lon="2.1004">
        <ele>2630</ele>
        <time>2017-10-15T09:45:17.000Z</time>
      </trkpt>
      <trkpt lat="42.37788" lon="2.10041">
        <ele>2630</ele>
        <time>2017-10-15T09:45:18.000Z</time>
      </trkpt>
      <trkpt lat="42.37789" lon="2.10042">
        <ele>2629</ele>
        <time>2017-10-15T09:45:19.000Z</time>
      </trkpt>
      <trkpt lat="42.37789" lon="2.10043">
        <ele>2629</ele>
        <time>2017-10-15T09:45:20.000Z</time>
      </trkpt>
      <trkpt lat="42.3779" lon="2.10043">
        <ele>2629</ele>
        <time>2017-10-15T09:45:21.000Z</time>
      </trkpt>
      <trkpt lat="42.37791" lon="2.10043">
        <ele>2629</ele>
        <time>2017-10-15T09:45:22.000Z</time>
      </trkpt>
      <trkpt lat="42.37791" lon="2.10043">
        <ele>2629</ele>
        <time>2017-10-15T09:45:23.000Z</time>
      </trkpt>
      <trkpt lat="42.37792" lon="2.10043">
        <ele>2629</ele>
        <time>2017-10-15T09:45:24.000Z</time>
      </trkpt>
      <trkpt lat="42.37793" lon="2.10043">
        <ele>2629</ele>
        <time>2017-10-15T09:45:25.000Z</time>
      </trkpt>
      <trkpt lat="42.37794" lon="2.10045">
        <ele>2629</ele>
        <time>2017-10-15T09:45:26.000Z</time>
      </trkpt>
      <trkpt lat="42.37795" lon="2.10046">
        <ele>2629</ele>
        <time>2017-10-15T09:45:27.000Z</time>
      </trkpt>
      <trkpt lat="42.37795" lon="2.10047">
        <ele>2628</ele>
        <time>2017-10-15T09:45:28.000Z</time>
      </trkpt>
      <trkpt lat="42.37796" lon="2.10048">
        <ele>2628</ele>
        <time>2017-10-15T09:45:29.000Z</time>
      </trkpt>
      <trkpt lat="42.37796" lon="2.1005">
        <ele>2628</ele>
        <time>2017-10-15T09:45:30.000Z</time>
      </trkpt>
      <trkpt lat="42.37797" lon="2.10051">
        <ele>2628</ele>
        <time>2017-10-15T09:45:31.000Z</time>
      </trkpt>
      <trkpt lat="42.37797" lon="2.10052">
        <ele>2627</ele>
        <time>2017-10-15T09:45:32.000Z</time>
      </trkpt>
      <trkpt lat="42.37798" lon="2.10054">
        <ele>2627</ele>
        <time>2017-10-15T09:45:33.000Z</time>
      </trkpt>
      <trkpt lat="42.37799" lon="2.10055">
        <ele>2627</ele>
        <time>2017-10-15T09:45:34.000Z</time>
      </trkpt>
      <trkpt lat="42.37799" lon="2.10056">
        <ele>2626</ele>
        <time>2017-10-15T09:45:35.000Z</time>
      </trkpt>
      <trkpt lat="42.378" lon="2.10057">
        <ele>2626</ele>
        <time>2017-10-15T09:45:36.000Z</time>
      </trkpt>
      <trkpt lat="42.378" lon="2.10058">
        <ele>2626</ele>
        <time>2017-10-15T09:45:37.000Z</time>
      </trkpt>
      <trkpt lat="42.37801" lon="2.1006">
        <ele>2626</ele>
        <time>2017-10-15T09:45:38.000Z</time>
      </trkpt>
      <trkpt lat="42.37801" lon="2.10061">
        <ele>2625</ele>
        <time>2017-10-15T09:45:39.000Z</time>
      </trkpt>
      <trkpt lat="42.37802" lon="2.10062">
        <ele>2625</ele>
        <time>2017-10-15T09:45:40.000Z</time>
      </trkpt>
      <trkpt lat="42.37802" lon="2.10063">
        <ele>2625</ele>
        <time>2017-10-15T09:45:41.000Z</time>
      </trkpt>
      <trkpt lat="42.37803" lon="2.10065">
        <ele>2624</ele>
        <time>2017-10-15T09:45:42.000Z</time>
      </trkpt>
      <trkpt lat="42.37803" lon="2.10066">
        <ele>2624</ele>
        <time>2017-10-15T09:45:43.000Z</time>
      </trkpt>
      <trkpt lat="42.37803" lon="2.10067">
        <ele>2624</ele>
        <time>2017-10-15T09:45:44.000Z</time>
      </trkpt>
      <trkpt lat="42.37804" lon="2.10068">
        <ele>2624</ele>
        <time>2017-10-15T09:45:45.000Z</time>
      </trkpt>
      <trkpt lat="42.37805" lon="2.10069">
        <ele>2624</ele>
        <time>2017-10-15T09:45:46.000Z</time>
      </trkpt>
      <trkpt lat="42.37805" lon="2.1007">
        <ele>2623</ele>
        <time>2017-10-15T09:45:47.000Z</time>
      </trkpt>
      <trkpt lat="42.37806" lon="2.10071">
        <ele>2623</ele>
        <time>2017-10-15T09:45:48.000Z</time>
      </trkpt>
      <trkpt lat="42.37807" lon="2.10072">
        <ele>2623</ele>
        <time>2017-10-15T09:45:49.000Z</time>
      </trkpt>
      <trkpt lat="42.37807" lon="2.10072">
        <ele>2623</ele>
        <time>2017-10-15T09:45:50.000Z</time>
      </trkpt>
      <trkpt lat="42.37807" lon="2.10073">
        <ele>2623</ele>
        <time>2017-10-15T09:45:51.000Z</time>
      </trkpt>
      <trkpt lat="42.37808" lon="2.10073">
        <ele>2623</ele>
        <time>2017-10-15T09:45:52.000Z</time>
      </trkpt>
      <trkpt lat="42.37808" lon="2.10074">
        <ele>2622</ele>
        <time>2017-10-15T09:45:53.000Z</time>
      </trkpt>
      <trkpt lat="42.37809" lon="2.10075">
        <ele>2622</ele>
        <time>2017-10-15T09:45:54.000Z</time>
      </trkpt>
      <trkpt lat="42.37809" lon="2.10076">
        <ele>2622</ele>
        <time>2017-10-15T09:45:55.000Z</time>
      </trkpt>
      <trkpt lat="42.3781" lon="2.10077">
        <ele>2622</ele>
        <time>2017-10-15T09:45:56.000Z</time>
      </trkpt>
      <trkpt lat="42.3781" lon="2.10078">
        <ele>2622</ele>
        <time>2017-10-15T09:45:57.000Z</time>
      </trkpt>
      <trkpt lat="42.37811" lon="2.10079">
        <ele>2622</ele>
        <time>2017-10-15T09:45:58.000Z</time>
      </trkpt>
      <trkpt lat="42.37811" lon="2.10081">
        <ele>2622</ele>
        <time>2017-10-15T09:45:59.000Z</time>
      </trkpt>
      <trkpt lat="42.37812" lon="2.10082">
        <ele>2622</ele>
        <time>2017-10-15T09:46:00.000Z</time>
      </trkpt>
      <trkpt lat="42.37812" lon="2.10083">
        <ele>2622</ele>
        <time>2017-10-15T09:46:01.000Z</time>
      </trkpt>
      <trkpt lat="42.37812" lon="2.10085">
        <ele>2622</ele>
        <time>2017-10-15T09:46:02.000Z</time>
      </trkpt>
      <trkpt lat="42.37813" lon="2.10086">
        <ele>2622</ele>
        <time>2017-10-15T09:46:03.000Z</time>
      </trkpt>
      <trkpt lat="42.37813" lon="2.10087">
        <ele>2622</ele>
        <time>2017-10-15T09:46:04.000Z</time>
      </trkpt>
      <trkpt lat="42.37814" lon="2.10088">
        <ele>2622</ele>
        <time>2017-10-15T09:46:05.000Z</time>
      </trkpt>
      <trkpt lat="42.37814" lon="2.10089">
        <ele>2622</ele>
        <time>2017-10-15T09:46:06.000Z</time>
      </trkpt>
      <trkpt lat="42.37815" lon="2.1009">
        <ele>2622</ele>
        <time>2017-10-15T09:46:07.000Z</time>
      </trkpt>
      <trkpt lat="42.37815" lon="2.10091">
        <ele>2622</ele>
        <time>2017-10-15T09:46:08.000Z</time>
      </trkpt>
      <trkpt lat="42.37816" lon="2.10092">
        <ele>2622</ele>
        <time>2017-10-15T09:46:09.000Z</time>
      </trkpt>
      <trkpt lat="42.37816" lon="2.10093">
        <ele>2622</ele>
        <time>2017-10-15T09:46:10.000Z</time>
      </trkpt>
      <trkpt lat="42.37817" lon="2.10095">
        <ele>2622</ele>
        <time>2017-10-15T09:46:11.000Z</time>
      </trkpt>
      <trkpt lat="42.37817" lon="2.10096">
        <ele>2622</ele>
        <time>2017-10-15T09:46:12.000Z</time>
      </trkpt>
      <trkpt lat="42.37818" lon="2.10097">
        <ele>2622</ele>
        <time>2017-10-15T09:46:13.000Z</time>
      </trkpt>
      <trkpt lat="42.37818" lon="2.10098">
        <ele>2622</ele>
        <time>2017-10-15T09:46:14.000Z</time>
      </trkpt>
      <trkpt lat="42.37818" lon="2.101">
        <ele>2622</ele>
        <time>2017-10-15T09:46:15.000Z</time>
      </trkpt>
      <trkpt lat="42.37819" lon="2.10101">
        <ele>2622</ele>
        <time>2017-10-15T09:46:16.000Z</time>
      </trkpt>
      <trkpt lat="42.37819" lon="2.10102">
        <ele>2622</ele>
        <time>2017-10-15T09:46:17.000Z</time>
      </trkpt>
      <trkpt lat="42.37819" lon="2.10103">
        <ele>2622</ele>
        <time>2017-10-15T09:46:18.000Z</time>
      </trkpt>
      <trkpt lat="42.3782" lon="2.10104">
        <ele>2622</ele>
        <time>2017-10-15T09:46:19.000Z</time>
      </trkpt>
      <trkpt lat="42.3782" lon="2.10105">
        <ele>2622</ele>
        <time>2017-10-15T09:46:20.000Z</time>
      </trkpt>
      <trkpt lat="42.37821" lon="2.10105">
        <ele>2622</ele>
        <time>2017-10-15T09:46:21.000Z</time>
      </trkpt>
      <trkpt lat="42.37822" lon="2.10106">
        <ele>2622</ele>
        <time>2017-10-15T09:46:22.000Z</time>
      </trkpt>
      <trkpt lat="42.37822" lon="2.10106">
        <ele>2622</ele>
        <time>2017-10-15T09:46:23.000Z</time>
      </trkpt>
      <trkpt lat="42.37823" lon="2.10108">
        <ele>2622</ele>
        <time>2017-10-15T09:46:24.000Z</time>
      </trkpt>
      <trkpt lat="42.37823" lon="2.10109">
        <ele>2622</ele>
        <time>2017-10-15T09:46:25.000Z</time>
      </trkpt>
      <trkpt lat="42.37824" lon="2.1011">
        <ele>2622</ele>
        <time>2017-10-15T09:46:26.000Z</time>
      </trkpt>
      <trkpt lat="42.37824" lon="2.10111">
        <ele>2622</ele>
        <time>2017-10-15T09:46:27.000Z</time>
      </trkpt>
      <trkpt lat="42.37825" lon="2.10112">
        <ele>2622</ele>
        <time>2017-10-15T09:46:28.000Z</time>
      </trkpt>
      <trkpt lat="42.37825" lon="2.10113">
        <ele>2622</ele>
        <time>2017-10-15T09:46:29.000Z</time>
      </trkpt>
      <trkpt lat="42.37826" lon="2.10115">
        <ele>2622</ele>
        <time>2017-10-15T09:46:30.000Z</time>
      </trkpt>
      <trkpt lat="42.37826" lon="2.10116">
        <ele>2622</ele>
        <time>2017-10-15T09:46:31.000Z</time>
      </trkpt>
      <trkpt lat="42.37826" lon="2.10117">
        <ele>2622</ele>
        <time>2017-10-15T09:46:32.000Z</time>
      </trkpt>
      <trkpt lat="42.37827" lon="2.10118">
        <ele>2622</ele>
        <time>2017-10-15T09:46:33.000Z</time>
      </trkpt>
      <trkpt lat="42.37827" lon="2.10119">
        <ele>2622</ele>
        <time>2017-10-15T09:46:34.000Z</time>
      </trkpt>
      <trkpt lat="42.37828" lon="2.1012">
        <ele>2622</ele>
        <time>2017-10-15T09:46:35.000Z</time>
      </trkpt>
      <trkpt lat="42.37828" lon="2.10121">
        <ele>2622</ele>
        <time>2017-10-15T09:46:36.000Z</time>
      </trkpt>
      <trkpt lat="42.37829" lon="2.10122">
        <ele>2622</ele>
        <time>2017-10-15T09:46:37.000Z</time>
      </trkpt>
      <trkpt lat="42.37829" lon="2.10123">
        <ele>2622</ele>
        <time>2017-10-15T09:46:38.000Z</time>
      </trkpt>
      <trkpt lat="42.37829" lon="2.10124">
        <ele>2622</ele>
        <time>2017-10-15T09:46:39.000Z</time>
      </trkpt>
      <trkpt lat="42.37829" lon="2.10125">
        <ele>2622</ele>
        <time>2017-10-15T09:46:40.000Z</time>
      </trkpt>
      <trkpt lat="42.3783" lon="2.10126">
        <ele>2622</ele>
        <time>2017-10-15T09:46:41.000Z</time>
      </trkpt>
      <trkpt lat="42.3783" lon="2.10126">
        <ele>2622</ele>
        <time>2017-10-15T09:46:42.000Z</time>
      </trkpt>
      <trkpt lat="42.37831" lon="2.10127">
        <ele>2622</ele>
        <time>2017-10-15T09:46:43.000Z</time>
      </trkpt>
      <trkpt lat="42.37831" lon="2.10127">
        <ele>2622</ele>
        <time>2017-10-15T09:46:44.000Z</time>
      </trkpt>
      <trkpt lat="42.37831" lon="2.10128">
        <ele>2622</ele>
        <time>2017-10-15T09:46:45.000Z</time>
      </trkpt>
      <trkpt lat="42.37832" lon="2.10128">
        <ele>2622</ele>
        <time>2017-10-15T09:46:46.000Z</time>
      </trkpt>
      <trkpt lat="42.37832" lon="2.10129">
        <ele>2622</ele>
        <time>2017-10-15T09:46:47.000Z</time>
      </trkpt>
      <trkpt lat="42.37833" lon="2.1013">
        <ele>2622</ele>
        <time>2017-10-15T09:46:48.000Z</time>
      </trkpt>
      <trkpt lat="42.37833" lon="2.1013">
        <ele>2622</ele>
        <time>2017-10-15T09:46:49.000Z</time>
      </trkpt>
      <trkpt lat="42.37834" lon="2.10131">
        <ele>2622</ele>
        <time>2017-10-15T09:46:50.000Z</time>
      </trkpt>
      <trkpt lat="42.37834" lon="2.10132">
        <ele>2622</ele>
        <time>2017-10-15T09:46:51.000Z</time>
      </trkpt>
      <trkpt lat="42.37834" lon="2.10133">
        <ele>2622</ele>
        <time>2017-10-15T09:46:52.000Z</time>
      </trkpt>
      <trkpt lat="42.37835" lon="2.10134">
        <ele>2622</ele>
        <time>2017-10-15T09:46:53.000Z</time>
      </trkpt>
      <trkpt lat="42.37835" lon="2.10135">
        <ele>2622</ele>
        <time>2017-10-15T09:46:54.000Z</time>
      </trkpt>
      <trkpt lat="42.37834" lon="2.10136">
        <ele>2622</ele>
        <time>2017-10-15T09:46:55.000Z</time>
      </trkpt>
      <trkpt lat="42.37834" lon="2.10136">
        <ele>2622</ele>
        <time>2017-10-15T09:46:56.000Z</time>
      </trkpt>
      <trkpt lat="42.37835" lon="2.10137">
        <ele>2622</ele>
        <time>2017-10-15T09:46:57.000Z</time>
      </trkpt>
      <trkpt lat="42.37835" lon="2.10138">
        <ele>2621</ele>
        <time>2017-10-15T09:46:58.000Z</time>
      </trkpt>
      <trkpt lat="42.37835" lon="2.10139">
        <ele>2621</ele>
        <time>2017-10-15T09:46:59.000Z</time>
      </trkpt>
      <trkpt lat="42.37835" lon="2.1014">
        <ele>2621</ele>
        <time>2017-10-15T09:47:00.000Z</time>
      </trkpt>
      <trkpt lat="42.37836" lon="2.1014">
        <ele>2621</ele>
        <time>2017-10-15T09:47:01.000Z</time>
      </trkpt>
      <trkpt lat="42.37837" lon="2.10141">
        <ele>2621</ele>
        <time>2017-10-15T09:47:02.000Z</time>
      </trkpt>
      <trkpt lat="42.37837" lon="2.10142">
        <ele>2621</ele>
        <time>2017-10-15T09:47:03.000Z</time>
      </trkpt>
      <trkpt lat="42.37838" lon="2.10143">
        <ele>2621</ele>
        <time>2017-10-15T09:47:04.000Z</time>
      </trkpt>
      <trkpt lat="42.37838" lon="2.10144">
        <ele>2621</ele>
        <time>2017-10-15T09:47:05.000Z</time>
      </trkpt>
      <trkpt lat="42.37838" lon="2.10145">
        <ele>2621</ele>
        <time>2017-10-15T09:47:06.000Z</time>
      </trkpt>
      <trkpt lat="42.37838" lon="2.10146">
        <ele>2621</ele>
        <time>2017-10-15T09:47:07.000Z</time>
      </trkpt>
      <trkpt lat="42.37838" lon="2.10147">
        <ele>2621</ele>
        <time>2017-10-15T09:47:08.000Z</time>
      </trkpt>
      <trkpt lat="42.37838" lon="2.10148">
        <ele>2621</ele>
        <time>2017-10-15T09:47:09.000Z</time>
      </trkpt>
      <trkpt lat="42.37838" lon="2.10149">
        <ele>2621</ele>
        <time>2017-10-15T09:47:10.000Z</time>
      </trkpt>
      <trkpt lat="42.37838" lon="2.1015">
        <ele>2621</ele>
        <time>2017-10-15T09:47:11.000Z</time>
      </trkpt>
      <trkpt lat="42.37838" lon="2.10151">
        <ele>2621</ele>
        <time>2017-10-15T09:47:12.000Z</time>
      </trkpt>
      <trkpt lat="42.37838" lon="2.10151">
        <ele>2621</ele>
        <time>2017-10-15T09:47:13.000Z</time>
      </trkpt>
      <trkpt lat="42.37838" lon="2.10152">
        <ele>2621</ele>
        <time>2017-10-15T09:47:14.000Z</time>
      </trkpt>
      <trkpt lat="42.3784" lon="2.10157">
        <ele>2620</ele>
        <time>2017-10-15T09:47:21.000Z</time>
      </trkpt>
      <trkpt lat="42.3784" lon="2.10157">
        <ele>2620</ele>
        <time>2017-10-15T09:47:22.000Z</time>
      </trkpt>
      <trkpt lat="42.3784" lon="2.10157">
        <ele>2620</ele>
        <time>2017-10-15T09:47:23.000Z</time>
      </trkpt>
      <trkpt lat="42.37841" lon="2.10161">
        <ele>2620</ele>
        <time>2017-10-15T09:47:34.000Z</time>
      </trkpt>
      <trkpt lat="42.37841" lon="2.10162">
        <ele>2620</ele>
        <time>2017-10-15T09:47:35.000Z</time>
      </trkpt>
      <trkpt lat="42.3784" lon="2.10162">
        <ele>2620</ele>
        <time>2017-10-15T09:47:36.000Z</time>
      </trkpt>
      <trkpt lat="42.3784" lon="2.10163">
        <ele>2621</ele>
        <time>2017-10-15T09:47:37.000Z</time>
      </trkpt>
      <trkpt lat="42.37839" lon="2.10164">
        <ele>2621</ele>
        <time>2017-10-15T09:47:38.000Z</time>
      </trkpt>
      <trkpt lat="42.37839" lon="2.10164">
        <ele>2621</ele>
        <time>2017-10-15T09:47:39.000Z</time>
      </trkpt>
      <trkpt lat="42.37838" lon="2.10165">
        <ele>2621</ele>
        <time>2017-10-15T09:47:40.000Z</time>
      </trkpt>
      <trkpt lat="42.37838" lon="2.10166">
        <ele>2621</ele>
        <time>2017-10-15T09:47:41.000Z</time>
      </trkpt>
      <trkpt lat="42.37839" lon="2.10167">
        <ele>2621</ele>
        <time>2017-10-15T09:47:42.000Z</time>
      </trkpt>
      <trkpt lat="42.37839" lon="2.10168">
        <ele>2622</ele>
        <time>2017-10-15T09:47:43.000Z</time>
      </trkpt>
      <trkpt lat="42.3784" lon="2.10168">
        <ele>2622</ele>
        <time>2017-10-15T09:47:44.000Z</time>
      </trkpt>
      <trkpt lat="42.3784" lon="2.10169">
        <ele>2622</ele>
        <time>2017-10-15T09:47:45.000Z</time>
      </trkpt>
      <trkpt lat="42.3784" lon="2.10169">
        <ele>2622</ele>
        <time>2017-10-15T09:47:46.000Z</time>
      </trkpt>
      <trkpt lat="42.37841" lon="2.1017">
        <ele>2622</ele>
        <time>2017-10-15T09:47:47.000Z</time>
      </trkpt>
      <trkpt lat="42.37841" lon="2.1017">
        <ele>2621</ele>
        <time>2017-10-15T09:47:48.000Z</time>
      </trkpt>
      <trkpt lat="42.37842" lon="2.10171">
        <ele>2621</ele>
        <time>2017-10-15T09:47:49.000Z</time>
      </trkpt>
      <trkpt lat="42.37841" lon="2.10172">
        <ele>2621</ele>
        <time>2017-10-15T09:47:50.000Z</time>
      </trkpt>
      <trkpt lat="42.37841" lon="2.10173">
        <ele>2621</ele>
        <time>2017-10-15T09:47:51.000Z</time>
      </trkpt>
      <trkpt lat="42.3784" lon="2.10174">
        <ele>2621</ele>
        <time>2017-10-15T09:47:52.000Z</time>
      </trkpt>
      <trkpt lat="42.3784" lon="2.10175">
        <ele>2620</ele>
        <time>2017-10-15T09:47:53.000Z</time>
      </trkpt>
      <trkpt lat="42.3784" lon="2.10175">
        <ele>2620</ele>
        <time>2017-10-15T09:47:54.000Z</time>
      </trkpt>
      <trkpt lat="42.3784" lon="2.10176">
        <ele>2620</ele>
        <time>2017-10-15T09:47:55.000Z</time>
      </trkpt>
      <trkpt lat="42.3784" lon="2.10177">
        <ele>2620</ele>
        <time>2017-10-15T09:47:56.000Z</time>
      </trkpt>
      <trkpt lat="42.3784" lon="2.10178">
        <ele>2620</ele>
        <time>2017-10-15T09:47:57.000Z</time>
      </trkpt>
      <trkpt lat="42.3784" lon="2.10178">
        <ele>2620</ele>
        <time>2017-10-15T09:47:58.000Z</time>
      </trkpt>
      <trkpt lat="42.3784" lon="2.10179">
        <ele>2620</ele>
        <time>2017-10-15T09:47:59.000Z</time>
      </trkpt>
      <trkpt lat="42.3784" lon="2.10179">
        <ele>2620</ele>
        <time>2017-10-15T09:48:00.000Z</time>
      </trkpt>
      <trkpt lat="42.37841" lon="2.1018">
        <ele>2620</ele>
        <time>2017-10-15T09:48:01.000Z</time>
      </trkpt>
      <trkpt lat="42.37841" lon="2.10181">
        <ele>2619</ele>
        <time>2017-10-15T09:48:02.000Z</time>
      </trkpt>
      <trkpt lat="42.37841" lon="2.10182">
        <ele>2619</ele>
        <time>2017-10-15T09:48:03.000Z</time>
      </trkpt>
      <trkpt lat="42.37841" lon="2.10182">
        <ele>2619</ele>
        <time>2017-10-15T09:48:04.000Z</time>
      </trkpt>
      <trkpt lat="42.37841" lon="2.10182">
        <ele>2619</ele>
        <time>2017-10-15T09:48:05.000Z</time>
      </trkpt>
      <trkpt lat="42.37843" lon="2.10186">
        <ele>2619</ele>
        <time>2017-10-15T09:48:10.000Z</time>
      </trkpt>
      <trkpt lat="42.37843" lon="2.10188">
        <ele>2618</ele>
        <time>2017-10-15T09:48:11.000Z</time>
      </trkpt>
      <trkpt lat="42.37844" lon="2.10189">
        <ele>2618</ele>
        <time>2017-10-15T09:48:12.000Z</time>
      </trkpt>
      <trkpt lat="42.37844" lon="2.10191">
        <ele>2618</ele>
        <time>2017-10-15T09:48:13.000Z</time>
      </trkpt>
      <trkpt lat="42.37845" lon="2.10192">
        <ele>2618</ele>
        <time>2017-10-15T09:48:14.000Z</time>
      </trkpt>
      <trkpt lat="42.37845" lon="2.10194">
        <ele>2618</ele>
        <time>2017-10-15T09:48:15.000Z</time>
      </trkpt>
      <trkpt lat="42.37845" lon="2.10195">
        <ele>2617</ele>
        <time>2017-10-15T09:48:16.000Z</time>
      </trkpt>
      <trkpt lat="42.37846" lon="2.10197">
        <ele>2617</ele>
        <time>2017-10-15T09:48:17.000Z</time>
      </trkpt>
      <trkpt lat="42.37846" lon="2.10198">
        <ele>2617</ele>
        <time>2017-10-15T09:48:18.000Z</time>
      </trkpt>
      <trkpt lat="42.37846" lon="2.102">
        <ele>2616</ele>
        <time>2017-10-15T09:48:19.000Z</time>
      </trkpt>
      <trkpt lat="42.37847" lon="2.10202">
        <ele>2616</ele>
        <time>2017-10-15T09:48:20.000Z</time>
      </trkpt>
      <trkpt lat="42.37847" lon="2.10203">
        <ele>2616</ele>
        <time>2017-10-15T09:48:21.000Z</time>
      </trkpt>
      <trkpt lat="42.37848" lon="2.10205">
        <ele>2616</ele>
        <time>2017-10-15T09:48:22.000Z</time>
      </trkpt>
      <trkpt lat="42.37848" lon="2.10206">
        <ele>2616</ele>
        <time>2017-10-15T09:48:23.000Z</time>
      </trkpt>
      <trkpt lat="42.37849" lon="2.10208">
        <ele>2615</ele>
        <time>2017-10-15T09:48:24.000Z</time>
      </trkpt>
      <trkpt lat="42.3785" lon="2.10209">
        <ele>2615</ele>
        <time>2017-10-15T09:48:25.000Z</time>
      </trkpt>
      <trkpt lat="42.3785" lon="2.10211">
        <ele>2615</ele>
        <time>2017-10-15T09:48:26.000Z</time>
      </trkpt>
      <trkpt lat="42.37851" lon="2.10213">
        <ele>2615</ele>
        <time>2017-10-15T09:48:27.000Z</time>
      </trkpt>
      <trkpt lat="42.37851" lon="2.10214">
        <ele>2615</ele>
        <time>2017-10-15T09:48:28.000Z</time>
      </trkpt>
      <trkpt lat="42.37852" lon="2.10215">
        <ele>2614</ele>
        <time>2017-10-15T09:48:29.000Z</time>
      </trkpt>
      <trkpt lat="42.37853" lon="2.10217">
        <ele>2614</ele>
        <time>2017-10-15T09:48:30.000Z</time>
      </trkpt>
      <trkpt lat="42.37854" lon="2.10218">
        <ele>2614</ele>
        <time>2017-10-15T09:48:31.000Z</time>
      </trkpt>
      <trkpt lat="42.37854" lon="2.10219">
        <ele>2614</ele>
        <time>2017-10-15T09:48:32.000Z</time>
      </trkpt>
      <trkpt lat="42.37855" lon="2.1022">
        <ele>2614</ele>
        <time>2017-10-15T09:48:33.000Z</time>
      </trkpt>
      <trkpt lat="42.37856" lon="2.10221">
        <ele>2614</ele>
        <time>2017-10-15T09:48:34.000Z</time>
      </trkpt>
      <trkpt lat="42.37857" lon="2.10222">
        <ele>2614</ele>
        <time>2017-10-15T09:48:35.000Z</time>
      </trkpt>
      <trkpt lat="42.37858" lon="2.10224">
        <ele>2614</ele>
        <time>2017-10-15T09:48:36.000Z</time>
      </trkpt>
      <trkpt lat="42.37859" lon="2.10225">
        <ele>2614</ele>
        <time>2017-10-15T09:48:37.000Z</time>
      </trkpt>
      <trkpt lat="42.3786" lon="2.10226">
        <ele>2613</ele>
        <time>2017-10-15T09:48:38.000Z</time>
      </trkpt>
      <trkpt lat="42.37861" lon="2.10227">
        <ele>2613</ele>
        <time>2017-10-15T09:48:39.000Z</time>
      </trkpt>
      <trkpt lat="42.37862" lon="2.10228">
        <ele>2613</ele>
        <time>2017-10-15T09:48:40.000Z</time>
      </trkpt>
      <trkpt lat="42.37863" lon="2.10229">
        <ele>2613</ele>
        <time>2017-10-15T09:48:41.000Z</time>
      </trkpt>
      <trkpt lat="42.37864" lon="2.10231">
        <ele>2613</ele>
        <time>2017-10-15T09:48:42.000Z</time>
      </trkpt>
      <trkpt lat="42.37864" lon="2.10232">
        <ele>2613</ele>
        <time>2017-10-15T09:48:43.000Z</time>
      </trkpt>
      <trkpt lat="42.37865" lon="2.10233">
        <ele>2613</ele>
        <time>2017-10-15T09:48:44.000Z</time>
      </trkpt>
      <trkpt lat="42.37866" lon="2.10235">
        <ele>2613</ele>
        <time>2017-10-15T09:48:45.000Z</time>
      </trkpt>
      <trkpt lat="42.37867" lon="2.10236">
        <ele>2613</ele>
        <time>2017-10-15T09:48:46.000Z</time>
      </trkpt>
      <trkpt lat="42.37867" lon="2.10237">
        <ele>2612</ele>
        <time>2017-10-15T09:48:47.000Z</time>
      </trkpt>
      <trkpt lat="42.37868" lon="2.10237">
        <ele>2612</ele>
        <time>2017-10-15T09:48:48.000Z</time>
      </trkpt>
      <trkpt lat="42.37869" lon="2.10239">
        <ele>2612</ele>
        <time>2017-10-15T09:48:49.000Z</time>
      </trkpt>
      <trkpt lat="42.3787" lon="2.1024">
        <ele>2612</ele>
        <time>2017-10-15T09:48:50.000Z</time>
      </trkpt>
      <trkpt lat="42.37871" lon="2.10241">
        <ele>2612</ele>
        <time>2017-10-15T09:48:51.000Z</time>
      </trkpt>
      <trkpt lat="42.37872" lon="2.10242">
        <ele>2612</ele>
        <time>2017-10-15T09:48:52.000Z</time>
      </trkpt>
      <trkpt lat="42.37873" lon="2.10243">
        <ele>2612</ele>
        <time>2017-10-15T09:48:53.000Z</time>
      </trkpt>
      <trkpt lat="42.37873" lon="2.10244">
        <ele>2612</ele>
        <time>2017-10-15T09:48:54.000Z</time>
      </trkpt>
      <trkpt lat="42.37874" lon="2.10245">
        <ele>2612</ele>
        <time>2017-10-15T09:48:55.000Z</time>
      </trkpt>
      <trkpt lat="42.37875" lon="2.10246">
        <ele>2612</ele>
        <time>2017-10-15T09:48:56.000Z</time>
      </trkpt>
      <trkpt lat="42.37876" lon="2.10247">
        <ele>2613</ele>
        <time>2017-10-15T09:48:57.000Z</time>
      </trkpt>
      <trkpt lat="42.37877" lon="2.10248">
        <ele>2613</ele>
        <time>2017-10-15T09:48:58.000Z</time>
      </trkpt>
      <trkpt lat="42.37878" lon="2.10249">
        <ele>2613</ele>
        <time>2017-10-15T09:48:59.000Z</time>
      </trkpt>
      <trkpt lat="42.37879" lon="2.10249">
        <ele>2613</ele>
        <time>2017-10-15T09:49:00.000Z</time>
      </trkpt>
      <trkpt lat="42.3788" lon="2.1025">
        <ele>2613</ele>
        <time>2017-10-15T09:49:01.000Z</time>
      </trkpt>
      <trkpt lat="42.3788" lon="2.10251">
        <ele>2614</ele>
        <time>2017-10-15T09:49:02.000Z</time>
      </trkpt>
      <trkpt lat="42.37881" lon="2.10252">
        <ele>2614</ele>
        <time>2017-10-15T09:49:03.000Z</time>
      </trkpt>
      <trkpt lat="42.37882" lon="2.10252">
        <ele>2614</ele>
        <time>2017-10-15T09:49:04.000Z</time>
      </trkpt>
      <trkpt lat="42.37883" lon="2.10253">
        <ele>2614</ele>
        <time>2017-10-15T09:49:05.000Z</time>
      </trkpt>
      <trkpt lat="42.37884" lon="2.10254">
        <ele>2614</ele>
        <time>2017-10-15T09:49:06.000Z</time>
      </trkpt>
      <trkpt lat="42.37885" lon="2.10255">
        <ele>2614</ele>
        <time>2017-10-15T09:49:07.000Z</time>
      </trkpt>
      <trkpt lat="42.37886" lon="2.10256">
        <ele>2615</ele>
        <time>2017-10-15T09:49:08.000Z</time>
      </trkpt>
      <trkpt lat="42.37887" lon="2.10257">
        <ele>2615</ele>
        <time>2017-10-15T09:49:09.000Z</time>
      </trkpt>
      <trkpt lat="42.37888" lon="2.10257">
        <ele>2615</ele>
        <time>2017-10-15T09:49:10.000Z</time>
      </trkpt>
      <trkpt lat="42.37889" lon="2.10258">
        <ele>2615</ele>
        <time>2017-10-15T09:49:11.000Z</time>
      </trkpt>
      <trkpt lat="42.37889" lon="2.10259">
        <ele>2615</ele>
        <time>2017-10-15T09:49:12.000Z</time>
      </trkpt>
      <trkpt lat="42.3789" lon="2.1026">
        <ele>2615</ele>
        <time>2017-10-15T09:49:13.000Z</time>
      </trkpt>
      <trkpt lat="42.37891" lon="2.10261">
        <ele>2616</ele>
        <time>2017-10-15T09:49:14.000Z</time>
      </trkpt>
      <trkpt lat="42.37892" lon="2.10261">
        <ele>2616</ele>
        <time>2017-10-15T09:49:15.000Z</time>
      </trkpt>
      <trkpt lat="42.37893" lon="2.10262">
        <ele>2616</ele>
        <time>2017-10-15T09:49:16.000Z</time>
      </trkpt>
      <trkpt lat="42.37894" lon="2.10263">
        <ele>2616</ele>
        <time>2017-10-15T09:49:17.000Z</time>
      </trkpt>
      <trkpt lat="42.37895" lon="2.10264">
        <ele>2616</ele>
        <time>2017-10-15T09:49:18.000Z</time>
      </trkpt>
      <trkpt lat="42.37896" lon="2.10265">
        <ele>2617</ele>
        <time>2017-10-15T09:49:19.000Z</time>
      </trkpt>
      <trkpt lat="42.37897" lon="2.10266">
        <ele>2617</ele>
        <time>2017-10-15T09:49:20.000Z</time>
      </trkpt>
      <trkpt lat="42.37898" lon="2.10267">
        <ele>2617</ele>
        <time>2017-10-15T09:49:21.000Z</time>
      </trkpt>
      <trkpt lat="42.37898" lon="2.10268">
        <ele>2617</ele>
        <time>2017-10-15T09:49:22.000Z</time>
      </trkpt>
      <trkpt lat="42.37899" lon="2.10269">
        <ele>2617</ele>
        <time>2017-10-15T09:49:23.000Z</time>
      </trkpt>
      <trkpt lat="42.379" lon="2.1027">
        <ele>2618</ele>
        <time>2017-10-15T09:49:24.000Z</time>
      </trkpt>
      <trkpt lat="42.37901" lon="2.10271">
        <ele>2618</ele>
        <time>2017-10-15T09:49:25.000Z</time>
      </trkpt>
      <trkpt lat="42.37902" lon="2.10272">
        <ele>2618</ele>
        <time>2017-10-15T09:49:26.000Z</time>
      </trkpt>
      <trkpt lat="42.37903" lon="2.10273">
        <ele>2618</ele>
        <time>2017-10-15T09:49:27.000Z</time>
      </trkpt>
      <trkpt lat="42.37904" lon="2.10274">
        <ele>2618</ele>
        <time>2017-10-15T09:49:28.000Z</time>
      </trkpt>
      <trkpt lat="42.37905" lon="2.10276">
        <ele>2618</ele>
        <time>2017-10-15T09:49:29.000Z</time>
      </trkpt>
      <trkpt lat="42.37906" lon="2.10277">
        <ele>2619</ele>
        <time>2017-10-15T09:49:30.000Z</time>
      </trkpt>
      <trkpt lat="42.37907" lon="2.10278">
        <ele>2619</ele>
        <time>2017-10-15T09:49:31.000Z</time>
      </trkpt>
      <trkpt lat="42.37907" lon="2.10279">
        <ele>2619</ele>
        <time>2017-10-15T09:49:32.000Z</time>
      </trkpt>
      <trkpt lat="42.37908" lon="2.1028">
        <ele>2619</ele>
        <time>2017-10-15T09:49:33.000Z</time>
      </trkpt>
      <trkpt lat="42.37909" lon="2.10281">
        <ele>2619</ele>
        <time>2017-10-15T09:49:34.000Z</time>
      </trkpt>
      <trkpt lat="42.3791" lon="2.10282">
        <ele>2620</ele>
        <time>2017-10-15T09:49:35.000Z</time>
      </trkpt>
      <trkpt lat="42.3791" lon="2.10283">
        <ele>2620</ele>
        <time>2017-10-15T09:49:36.000Z</time>
      </trkpt>
      <trkpt lat="42.37911" lon="2.10284">
        <ele>2620</ele>
        <time>2017-10-15T09:49:37.000Z</time>
      </trkpt>
      <trkpt lat="42.37912" lon="2.10285">
        <ele>2620</ele>
        <time>2017-10-15T09:49:38.000Z</time>
      </trkpt>
      <trkpt lat="42.37913" lon="2.10286">
        <ele>2620</ele>
        <time>2017-10-15T09:49:39.000Z</time>
      </trkpt>
      <trkpt lat="42.37913" lon="2.10287">
        <ele>2620</ele>
        <time>2017-10-15T09:49:40.000Z</time>
      </trkpt>
      <trkpt lat="42.37914" lon="2.10288">
        <ele>2621</ele>
        <time>2017-10-15T09:49:41.000Z</time>
      </trkpt>
      <trkpt lat="42.37915" lon="2.10289">
        <ele>2621</ele>
        <time>2017-10-15T09:49:42.000Z</time>
      </trkpt>
      <trkpt lat="42.37916" lon="2.1029">
        <ele>2621</ele>
        <time>2017-10-15T09:49:43.000Z</time>
      </trkpt>
      <trkpt lat="42.37916" lon="2.10291">
        <ele>2621</ele>
        <time>2017-10-15T09:49:44.000Z</time>
      </trkpt>
      <trkpt lat="42.37917" lon="2.10293">
        <ele>2621</ele>
        <time>2017-10-15T09:49:45.000Z</time>
      </trkpt>
      <trkpt lat="42.37918" lon="2.10294">
        <ele>2621</ele>
        <time>2017-10-15T09:49:46.000Z</time>
      </trkpt>
      <trkpt lat="42.37918" lon="2.10295">
        <ele>2621</ele>
        <time>2017-10-15T09:49:47.000Z</time>
      </trkpt>
      <trkpt lat="42.37919" lon="2.10297">
        <ele>2621</ele>
        <time>2017-10-15T09:49:48.000Z</time>
      </trkpt>
      <trkpt lat="42.37919" lon="2.10298">
        <ele>2621</ele>
        <time>2017-10-15T09:49:49.000Z</time>
      </trkpt>
      <trkpt lat="42.37919" lon="2.103">
        <ele>2621</ele>
        <time>2017-10-15T09:49:50.000Z</time>
      </trkpt>
      <trkpt lat="42.3792" lon="2.10301">
        <ele>2621</ele>
        <time>2017-10-15T09:49:51.000Z</time>
      </trkpt>
      <trkpt lat="42.3792" lon="2.10303">
        <ele>2621</ele>
        <time>2017-10-15T09:49:52.000Z</time>
      </trkpt>
      <trkpt lat="42.37921" lon="2.10304">
        <ele>2621</ele>
        <time>2017-10-15T09:49:53.000Z</time>
      </trkpt>
      <trkpt lat="42.37921" lon="2.10305">
        <ele>2621</ele>
        <time>2017-10-15T09:49:54.000Z</time>
      </trkpt>
      <trkpt lat="42.37922" lon="2.10307">
        <ele>2621</ele>
        <time>2017-10-15T09:49:55.000Z</time>
      </trkpt>
      <trkpt lat="42.37922" lon="2.10309">
        <ele>2621</ele>
        <time>2017-10-15T09:49:56.000Z</time>
      </trkpt>
      <trkpt lat="42.37923" lon="2.10311">
        <ele>2621</ele>
        <time>2017-10-15T09:49:57.000Z</time>
      </trkpt>
      <trkpt lat="42.37923" lon="2.10313">
        <ele>2621</ele>
        <time>2017-10-15T09:49:58.000Z</time>
      </trkpt>
      <trkpt lat="42.37923" lon="2.10314">
        <ele>2621</ele>
        <time>2017-10-15T09:49:59.000Z</time>
      </trkpt>
      <trkpt lat="42.37923" lon="2.10316">
        <ele>2621</ele>
        <time>2017-10-15T09:50:00.000Z</time>
      </trkpt>
      <trkpt lat="42.37923" lon="2.10318">
        <ele>2621</ele>
        <time>2017-10-15T09:50:01.000Z</time>
      </trkpt>
      <trkpt lat="42.37923" lon="2.1032">
        <ele>2622</ele>
        <time>2017-10-15T09:50:02.000Z</time>
      </trkpt>
      <trkpt lat="42.37923" lon="2.10321">
        <ele>2622</ele>
        <time>2017-10-15T09:50:03.000Z</time>
      </trkpt>
      <trkpt lat="42.37923" lon="2.10322">
        <ele>2622</ele>
        <time>2017-10-15T09:50:04.000Z</time>
      </trkpt>
      <trkpt lat="42.37923" lon="2.10323">
        <ele>2622</ele>
        <time>2017-10-15T09:50:05.000Z</time>
      </trkpt>
      <trkpt lat="42.37923" lon="2.10324">
        <ele>2622</ele>
        <time>2017-10-15T09:50:06.000Z</time>
      </trkpt>
      <trkpt lat="42.37923" lon="2.10325">
        <ele>2622</ele>
        <time>2017-10-15T09:50:07.000Z</time>
      </trkpt>
      <trkpt lat="42.37923" lon="2.10326">
        <ele>2622</ele>
        <time>2017-10-15T09:50:08.000Z</time>
      </trkpt>
      <trkpt lat="42.37922" lon="2.10327">
        <ele>2622</ele>
        <time>2017-10-15T09:50:09.000Z</time>
      </trkpt>
      <trkpt lat="42.37922" lon="2.10328">
        <ele>2622</ele>
        <time>2017-10-15T09:50:10.000Z</time>
      </trkpt>
      <trkpt lat="42.37922" lon="2.10329">
        <ele>2623</ele>
        <time>2017-10-15T09:50:11.000Z</time>
      </trkpt>
      <trkpt lat="42.37922" lon="2.1033">
        <ele>2623</ele>
        <time>2017-10-15T09:50:12.000Z</time>
      </trkpt>
      <trkpt lat="42.37922" lon="2.10331">
        <ele>2623</ele>
        <time>2017-10-15T09:50:13.000Z</time>
      </trkpt>
      <trkpt lat="42.37923" lon="2.10333">
        <ele>2623</ele>
        <time>2017-10-15T09:50:14.000Z</time>
      </trkpt>
      <trkpt lat="42.37923" lon="2.10333">
        <ele>2623</ele>
        <time>2017-10-15T09:50:15.000Z</time>
      </trkpt>
      <trkpt lat="42.37923" lon="2.10335">
        <ele>2624</ele>
        <time>2017-10-15T09:50:16.000Z</time>
      </trkpt>
      <trkpt lat="42.37923" lon="2.10336">
        <ele>2624</ele>
        <time>2017-10-15T09:50:17.000Z</time>
      </trkpt>
      <trkpt lat="42.37923" lon="2.10337">
        <ele>2624</ele>
        <time>2017-10-15T09:50:18.000Z</time>
      </trkpt>
      <trkpt lat="42.37923" lon="2.10338">
        <ele>2623</ele>
        <time>2017-10-15T09:50:19.000Z</time>
      </trkpt>
      <trkpt lat="42.37923" lon="2.10339">
        <ele>2623</ele>
        <time>2017-10-15T09:50:20.000Z</time>
      </trkpt>
      <trkpt lat="42.37923" lon="2.1034">
        <ele>2623</ele>
        <time>2017-10-15T09:50:21.000Z</time>
      </trkpt>
      <trkpt lat="42.37924" lon="2.10341">
        <ele>2623</ele>
        <time>2017-10-15T09:50:22.000Z</time>
      </trkpt>
      <trkpt lat="42.37924" lon="2.10342">
        <ele>2623</ele>
        <time>2017-10-15T09:50:23.000Z</time>
      </trkpt>
      <trkpt lat="42.37924" lon="2.10343">
        <ele>2623</ele>
        <time>2017-10-15T09:50:24.000Z</time>
      </trkpt>
      <trkpt lat="42.37924" lon="2.10344">
        <ele>2623</ele>
        <time>2017-10-15T09:50:25.000Z</time>
      </trkpt>
      <trkpt lat="42.37925" lon="2.10346">
        <ele>2623</ele>
        <time>2017-10-15T09:50:26.000Z</time>
      </trkpt>
      <trkpt lat="42.37925" lon="2.10347">
        <ele>2623</ele>
        <time>2017-10-15T09:50:27.000Z</time>
      </trkpt>
      <trkpt lat="42.37925" lon="2.10348">
        <ele>2623</ele>
        <time>2017-10-15T09:50:28.000Z</time>
      </trkpt>
      <trkpt lat="42.37926" lon="2.10349">
        <ele>2623</ele>
        <time>2017-10-15T09:50:29.000Z</time>
      </trkpt>
      <trkpt lat="42.37926" lon="2.1035">
        <ele>2623</ele>
        <time>2017-10-15T09:50:30.000Z</time>
      </trkpt>
      <trkpt lat="42.37927" lon="2.10351">
        <ele>2623</ele>
        <time>2017-10-15T09:50:31.000Z</time>
      </trkpt>
      <trkpt lat="42.37928" lon="2.10352">
        <ele>2623</ele>
        <time>2017-10-15T09:50:32.000Z</time>
      </trkpt>
      <trkpt lat="42.37928" lon="2.10353">
        <ele>2623</ele>
        <time>2017-10-15T09:50:33.000Z</time>
      </trkpt>
      <trkpt lat="42.37929" lon="2.10354">
        <ele>2623</ele>
        <time>2017-10-15T09:50:34.000Z</time>
      </trkpt>
      <trkpt lat="42.37929" lon="2.10356">
        <ele>2623</ele>
        <time>2017-10-15T09:50:35.000Z</time>
      </trkpt>
      <trkpt lat="42.3793" lon="2.10357">
        <ele>2623</ele>
        <time>2017-10-15T09:50:36.000Z</time>
      </trkpt>
      <trkpt lat="42.3793" lon="2.10358">
        <ele>2623</ele>
        <time>2017-10-15T09:50:37.000Z</time>
      </trkpt>
      <trkpt lat="42.37931" lon="2.1036">
        <ele>2623</ele>
        <time>2017-10-15T09:50:38.000Z</time>
      </trkpt>
      <trkpt lat="42.37931" lon="2.10361">
        <ele>2623</ele>
        <time>2017-10-15T09:50:39.000Z</time>
      </trkpt>
      <trkpt lat="42.37932" lon="2.10363">
        <ele>2623</ele>
        <time>2017-10-15T09:50:40.000Z</time>
      </trkpt>
      <trkpt lat="42.37932" lon="2.10364">
        <ele>2623</ele>
        <time>2017-10-15T09:50:41.000Z</time>
      </trkpt>
      <trkpt lat="42.37933" lon="2.10365">
        <ele>2623</ele>
        <time>2017-10-15T09:50:42.000Z</time>
      </trkpt>
      <trkpt lat="42.37933" lon="2.10366">
        <ele>2623</ele>
        <time>2017-10-15T09:50:43.000Z</time>
      </trkpt>
      <trkpt lat="42.37934" lon="2.10367">
        <ele>2623</ele>
        <time>2017-10-15T09:50:44.000Z</time>
      </trkpt>
      <trkpt lat="42.37934" lon="2.10368">
        <ele>2623</ele>
        <time>2017-10-15T09:50:45.000Z</time>
      </trkpt>
      <trkpt lat="42.37935" lon="2.10368">
        <ele>2624</ele>
        <time>2017-10-15T09:50:46.000Z</time>
      </trkpt>
      <trkpt lat="42.37936" lon="2.10369">
        <ele>2624</ele>
        <time>2017-10-15T09:50:47.000Z</time>
      </trkpt>
      <trkpt lat="42.37937" lon="2.10369">
        <ele>2624</ele>
        <time>2017-10-15T09:50:48.000Z</time>
      </trkpt>
      <trkpt lat="42.37938" lon="2.1037">
        <ele>2624</ele>
        <time>2017-10-15T09:50:49.000Z</time>
      </trkpt>
      <trkpt lat="42.37939" lon="2.10371">
        <ele>2624</ele>
        <time>2017-10-15T09:50:50.000Z</time>
      </trkpt>
      <trkpt lat="42.3794" lon="2.10372">
        <ele>2624</ele>
        <time>2017-10-15T09:50:51.000Z</time>
      </trkpt>
      <trkpt lat="42.37941" lon="2.10373">
        <ele>2624</ele>
        <time>2017-10-15T09:50:52.000Z</time>
      </trkpt>
      <trkpt lat="42.37941" lon="2.10375">
        <ele>2624</ele>
        <time>2017-10-15T09:50:53.000Z</time>
      </trkpt>
      <trkpt lat="42.37941" lon="2.10376">
        <ele>2624</ele>
        <time>2017-10-15T09:50:54.000Z</time>
      </trkpt>
      <trkpt lat="42.37942" lon="2.10377">
        <ele>2624</ele>
        <time>2017-10-15T09:50:55.000Z</time>
      </trkpt>
      <trkpt lat="42.37942" lon="2.10378">
        <ele>2624</ele>
        <time>2017-10-15T09:50:56.000Z</time>
      </trkpt>
      <trkpt lat="42.37942" lon="2.10379">
        <ele>2624</ele>
        <time>2017-10-15T09:50:57.000Z</time>
      </trkpt>
      <trkpt lat="42.37943" lon="2.1038">
        <ele>2624</ele>
        <time>2017-10-15T09:50:58.000Z</time>
      </trkpt>
      <trkpt lat="42.37943" lon="2.10381">
        <ele>2624</ele>
        <time>2017-10-15T09:50:59.000Z</time>
      </trkpt>
      <trkpt lat="42.37943" lon="2.10382">
        <ele>2624</ele>
        <time>2017-10-15T09:51:00.000Z</time>
      </trkpt>
      <trkpt lat="42.37944" lon="2.10383">
        <ele>2624</ele>
        <time>2017-10-15T09:51:01.000Z</time>
      </trkpt>
      <trkpt lat="42.37944" lon="2.10384">
        <ele>2624</ele>
        <time>2017-10-15T09:51:02.000Z</time>
      </trkpt>
      <trkpt lat="42.37945" lon="2.10385">
        <ele>2624</ele>
        <time>2017-10-15T09:51:03.000Z</time>
      </trkpt>
      <trkpt lat="42.37946" lon="2.10385">
        <ele>2624</ele>
        <time>2017-10-15T09:51:04.000Z</time>
      </trkpt>
      <trkpt lat="42.37946" lon="2.10386">
        <ele>2624</ele>
        <time>2017-10-15T09:51:05.000Z</time>
      </trkpt>
      <trkpt lat="42.37947" lon="2.10387">
        <ele>2624</ele>
        <time>2017-10-15T09:51:06.000Z</time>
      </trkpt>
      <trkpt lat="42.37947" lon="2.10388">
        <ele>2624</ele>
        <time>2017-10-15T09:51:07.000Z</time>
      </trkpt>
      <trkpt lat="42.37948" lon="2.10389">
        <ele>2624</ele>
        <time>2017-10-15T09:51:08.000Z</time>
      </trkpt>
      <trkpt lat="42.37948" lon="2.1039">
        <ele>2624</ele>
        <time>2017-10-15T09:51:09.000Z</time>
      </trkpt>
      <trkpt lat="42.37948" lon="2.10391">
        <ele>2624</ele>
        <time>2017-10-15T09:51:10.000Z</time>
      </trkpt>
      <trkpt lat="42.37948" lon="2.10392">
        <ele>2624</ele>
        <time>2017-10-15T09:51:11.000Z</time>
      </trkpt>
      <trkpt lat="42.37949" lon="2.10393">
        <ele>2624</ele>
        <time>2017-10-15T09:51:12.000Z</time>
      </trkpt>
      <trkpt lat="42.37949" lon="2.10394">
        <ele>2624</ele>
        <time>2017-10-15T09:51:13.000Z</time>
      </trkpt>
      <trkpt lat="42.37949" lon="2.10395">
        <ele>2624</ele>
        <time>2017-10-15T09:51:14.000Z</time>
      </trkpt>
      <trkpt lat="42.37949" lon="2.10396">
        <ele>2624</ele>
        <time>2017-10-15T09:51:15.000Z</time>
      </trkpt>
      <trkpt lat="42.37949" lon="2.10396">
        <ele>2624</ele>
        <time>2017-10-15T09:51:16.000Z</time>
      </trkpt>
      <trkpt lat="42.3795" lon="2.10397">
        <ele>2624</ele>
        <time>2017-10-15T09:51:17.000Z</time>
      </trkpt>
      <trkpt lat="42.3795" lon="2.10398">
        <ele>2624</ele>
        <time>2017-10-15T09:51:18.000Z</time>
      </trkpt>
      <trkpt lat="42.3795" lon="2.10399">
        <ele>2624</ele>
        <time>2017-10-15T09:51:19.000Z</time>
      </trkpt>
      <trkpt lat="42.3795" lon="2.104">
        <ele>2624</ele>
        <time>2017-10-15T09:51:20.000Z</time>
      </trkpt>
      <trkpt lat="42.3795" lon="2.10401">
        <ele>2624</ele>
        <time>2017-10-15T09:51:21.000Z</time>
      </trkpt>
      <trkpt lat="42.37951" lon="2.10402">
        <ele>2624</ele>
        <time>2017-10-15T09:51:22.000Z</time>
      </trkpt>
      <trkpt lat="42.37951" lon="2.10402">
        <ele>2624</ele>
        <time>2017-10-15T09:51:23.000Z</time>
      </trkpt>
      <trkpt lat="42.37951" lon="2.10403">
        <ele>2624</ele>
        <time>2017-10-15T09:51:24.000Z</time>
      </trkpt>
      <trkpt lat="42.37952" lon="2.10403">
        <ele>2624</ele>
        <time>2017-10-15T09:51:25.000Z</time>
      </trkpt>
      <trkpt lat="42.37952" lon="2.10404">
        <ele>2624</ele>
        <time>2017-10-15T09:51:26.000Z</time>
      </trkpt>
      <trkpt lat="42.37953" lon="2.10405">
        <ele>2624</ele>
        <time>2017-10-15T09:51:27.000Z</time>
      </trkpt>
      <trkpt lat="42.37954" lon="2.10406">
        <ele>2624</ele>
        <time>2017-10-15T09:51:28.000Z</time>
      </trkpt>
      <trkpt lat="42.37954" lon="2.10406">
        <ele>2624</ele>
        <time>2017-10-15T09:51:29.000Z</time>
      </trkpt>
      <trkpt lat="42.37955" lon="2.10407">
        <ele>2624</ele>
        <time>2017-10-15T09:51:30.000Z</time>
      </trkpt>
      <trkpt lat="42.37956" lon="2.10407">
        <ele>2624</ele>
        <time>2017-10-15T09:51:31.000Z</time>
      </trkpt>
      <trkpt lat="42.37956" lon="2.10408">
        <ele>2624</ele>
        <time>2017-10-15T09:51:32.000Z</time>
      </trkpt>
      <trkpt lat="42.37957" lon="2.10408">
        <ele>2624</ele>
        <time>2017-10-15T09:51:33.000Z</time>
      </trkpt>
      <trkpt lat="42.37957" lon="2.10409">
        <ele>2624</ele>
        <time>2017-10-15T09:51:34.000Z</time>
      </trkpt>
      <trkpt lat="42.37958" lon="2.10409">
        <ele>2624</ele>
        <time>2017-10-15T09:51:35.000Z</time>
      </trkpt>
      <trkpt lat="42.37958" lon="2.1041">
        <ele>2624</ele>
        <time>2017-10-15T09:51:36.000Z</time>
      </trkpt>
      <trkpt lat="42.37958" lon="2.1041">
        <ele>2624</ele>
        <time>2017-10-15T09:51:37.000Z</time>
      </trkpt>
      <trkpt lat="42.37959" lon="2.10411">
        <ele>2624</ele>
        <time>2017-10-15T09:51:38.000Z</time>
      </trkpt>
      <trkpt lat="42.37959" lon="2.10412">
        <ele>2625</ele>
        <time>2017-10-15T09:51:39.000Z</time>
      </trkpt>
      <trkpt lat="42.37959" lon="2.10412">
        <ele>2625</ele>
        <time>2017-10-15T09:51:40.000Z</time>
      </trkpt>
      <trkpt lat="42.37959" lon="2.10413">
        <ele>2625</ele>
        <time>2017-10-15T09:51:41.000Z</time>
      </trkpt>
      <trkpt lat="42.37959" lon="2.10414">
        <ele>2625</ele>
        <time>2017-10-15T09:51:42.000Z</time>
      </trkpt>
      <trkpt lat="42.3796" lon="2.10414">
        <ele>2625</ele>
        <time>2017-10-15T09:51:43.000Z</time>
      </trkpt>
      <trkpt lat="42.3796" lon="2.10415">
        <ele>2625</ele>
        <time>2017-10-15T09:51:44.000Z</time>
      </trkpt>
      <trkpt lat="42.3796" lon="2.10416">
        <ele>2625</ele>
        <time>2017-10-15T09:51:45.000Z</time>
      </trkpt>
      <trkpt lat="42.3796" lon="2.10416">
        <ele>2625</ele>
        <time>2017-10-15T09:51:46.000Z</time>
      </trkpt>
      <trkpt lat="42.3796" lon="2.10417">
        <ele>2625</ele>
        <time>2017-10-15T09:51:47.000Z</time>
      </trkpt>
      <trkpt lat="42.3796" lon="2.10418">
        <ele>2626</ele>
        <time>2017-10-15T09:51:48.000Z</time>
      </trkpt>
      <trkpt lat="42.3796" lon="2.10419">
        <ele>2626</ele>
        <time>2017-10-15T09:51:49.000Z</time>
      </trkpt>
      <trkpt lat="42.3796" lon="2.1042">
        <ele>2626</ele>
        <time>2017-10-15T09:51:50.000Z</time>
      </trkpt>
      <trkpt lat="42.37961" lon="2.10421">
        <ele>2626</ele>
        <time>2017-10-15T09:51:51.000Z</time>
      </trkpt>
      <trkpt lat="42.37961" lon="2.10422">
        <ele>2626</ele>
        <time>2017-10-15T09:51:52.000Z</time>
      </trkpt>
      <trkpt lat="42.37961" lon="2.10423">
        <ele>2626</ele>
        <time>2017-10-15T09:51:53.000Z</time>
      </trkpt>
      <trkpt lat="42.37961" lon="2.10423">
        <ele>2626</ele>
        <time>2017-10-15T09:51:54.000Z</time>
      </trkpt>
      <trkpt lat="42.37961" lon="2.10424">
        <ele>2627</ele>
        <time>2017-10-15T09:51:55.000Z</time>
      </trkpt>
      <trkpt lat="42.37961" lon="2.10424">
        <ele>2627</ele>
        <time>2017-10-15T09:51:56.000Z</time>
      </trkpt>
      <trkpt lat="42.37962" lon="2.10425">
        <ele>2627</ele>
        <time>2017-10-15T09:51:57.000Z</time>
      </trkpt>
      <trkpt lat="42.37962" lon="2.10426">
        <ele>2627</ele>
        <time>2017-10-15T09:51:58.000Z</time>
      </trkpt>
      <trkpt lat="42.37962" lon="2.10427">
        <ele>2627</ele>
        <time>2017-10-15T09:51:59.000Z</time>
      </trkpt>
      <trkpt lat="42.37962" lon="2.10428">
        <ele>2627</ele>
        <time>2017-10-15T09:52:00.000Z</time>
      </trkpt>
      <trkpt lat="42.37962" lon="2.10429">
        <ele>2627</ele>
        <time>2017-10-15T09:52:01.000Z</time>
      </trkpt>
      <trkpt lat="42.37962" lon="2.10429">
        <ele>2627</ele>
        <time>2017-10-15T09:52:02.000Z</time>
      </trkpt>
      <trkpt lat="42.37962" lon="2.1043">
        <ele>2627</ele>
        <time>2017-10-15T09:52:03.000Z</time>
      </trkpt>
      <trkpt lat="42.37962" lon="2.1043">
        <ele>2627</ele>
        <time>2017-10-15T09:52:04.000Z</time>
      </trkpt>
      <trkpt lat="42.37962" lon="2.10431">
        <ele>2628</ele>
        <time>2017-10-15T09:52:05.000Z</time>
      </trkpt>
      <trkpt lat="42.37962" lon="2.10431">
        <ele>2628</ele>
        <time>2017-10-15T09:52:06.000Z</time>
      </trkpt>
      <trkpt lat="42.37963" lon="2.10432">
        <ele>2628</ele>
        <time>2017-10-15T09:52:07.000Z</time>
      </trkpt>
      <trkpt lat="42.37963" lon="2.10432">
        <ele>2628</ele>
        <time>2017-10-15T09:52:08.000Z</time>
      </trkpt>
      <trkpt lat="42.37963" lon="2.10433">
        <ele>2628</ele>
        <time>2017-10-15T09:52:09.000Z</time>
      </trkpt>
      <trkpt lat="42.37986" lon="2.10441">
        <ele>2632</ele>
        <time>2017-10-15T09:53:01.000Z</time>
      </trkpt>
      <trkpt lat="42.37987" lon="2.10442">
        <ele>2633</ele>
        <time>2017-10-15T09:53:02.000Z</time>
      </trkpt>
      <trkpt lat="42.37987" lon="2.10443">
        <ele>2633</ele>
        <time>2017-10-15T09:53:03.000Z</time>
      </trkpt>
      <trkpt lat="42.37988" lon="2.10444">
        <ele>2633</ele>
        <time>2017-10-15T09:53:04.000Z</time>
      </trkpt>
      <trkpt lat="42.37989" lon="2.10445">
        <ele>2633</ele>
        <time>2017-10-15T09:53:05.000Z</time>
      </trkpt>
      <trkpt lat="42.37989" lon="2.10446">
        <ele>2633</ele>
        <time>2017-10-15T09:53:06.000Z</time>
      </trkpt>
      <trkpt lat="42.3799" lon="2.10447">
        <ele>2634</ele>
        <time>2017-10-15T09:53:07.000Z</time>
      </trkpt>
      <trkpt lat="42.3799" lon="2.10449">
        <ele>2634</ele>
        <time>2017-10-15T09:53:08.000Z</time>
      </trkpt>
      <trkpt lat="42.37991" lon="2.1045">
        <ele>2634</ele>
        <time>2017-10-15T09:53:09.000Z</time>
      </trkpt>
      <trkpt lat="42.37991" lon="2.10451">
        <ele>2634</ele>
        <time>2017-10-15T09:53:10.000Z</time>
      </trkpt>
      <trkpt lat="42.37992" lon="2.10452">
        <ele>2635</ele>
        <time>2017-10-15T09:53:11.000Z</time>
      </trkpt>
      <trkpt lat="42.37993" lon="2.10453">
        <ele>2635</ele>
        <time>2017-10-15T09:53:12.000Z</time>
      </trkpt>
      <trkpt lat="42.37994" lon="2.10454">
        <ele>2635</ele>
        <time>2017-10-15T09:53:13.000Z</time>
      </trkpt>
      <trkpt lat="42.37995" lon="2.10455">
        <ele>2635</ele>
        <time>2017-10-15T09:53:14.000Z</time>
      </trkpt>
      <trkpt lat="42.37995" lon="2.10456">
        <ele>2636</ele>
        <time>2017-10-15T09:53:15.000Z</time>
      </trkpt>
      <trkpt lat="42.37996" lon="2.10457">
        <ele>2636</ele>
        <time>2017-10-15T09:53:16.000Z</time>
      </trkpt>
      <trkpt lat="42.37996" lon="2.10459">
        <ele>2636</ele>
        <time>2017-10-15T09:53:17.000Z</time>
      </trkpt>
      <trkpt lat="42.37997" lon="2.1046">
        <ele>2636</ele>
        <time>2017-10-15T09:53:18.000Z</time>
      </trkpt>
      <trkpt lat="42.37997" lon="2.10462">
        <ele>2637</ele>
        <time>2017-10-15T09:53:19.000Z</time>
      </trkpt>
      <trkpt lat="42.37997" lon="2.10463">
        <ele>2637</ele>
        <time>2017-10-15T09:53:20.000Z</time>
      </trkpt>
      <trkpt lat="42.37997" lon="2.10464">
        <ele>2637</ele>
        <time>2017-10-15T09:53:21.000Z</time>
      </trkpt>
      <trkpt lat="42.37997" lon="2.10464">
        <ele>2637</ele>
        <time>2017-10-15T09:53:22.000Z</time>
      </trkpt>
      <trkpt lat="42.37998" lon="2.10465">
        <ele>2637</ele>
        <time>2017-10-15T09:53:23.000Z</time>
      </trkpt>
      <trkpt lat="42.37998" lon="2.10467">
        <ele>2637</ele>
        <time>2017-10-15T09:53:24.000Z</time>
      </trkpt>
      <trkpt lat="42.37997" lon="2.10468">
        <ele>2637</ele>
        <time>2017-10-15T09:53:25.000Z</time>
      </trkpt>
      <trkpt lat="42.37997" lon="2.10469">
        <ele>2638</ele>
        <time>2017-10-15T09:53:26.000Z</time>
      </trkpt>
      <trkpt lat="42.37997" lon="2.1047">
        <ele>2638</ele>
        <time>2017-10-15T09:53:27.000Z</time>
      </trkpt>
      <trkpt lat="42.37996" lon="2.10471">
        <ele>2638</ele>
        <time>2017-10-15T09:53:28.000Z</time>
      </trkpt>
      <trkpt lat="42.37996" lon="2.10472">
        <ele>2638</ele>
        <time>2017-10-15T09:53:29.000Z</time>
      </trkpt>
      <trkpt lat="42.37997" lon="2.10474">
        <ele>2638</ele>
        <time>2017-10-15T09:53:30.000Z</time>
      </trkpt>
      <trkpt lat="42.37997" lon="2.10475">
        <ele>2638</ele>
        <time>2017-10-15T09:53:31.000Z</time>
      </trkpt>
      <trkpt lat="42.37997" lon="2.10476">
        <ele>2639</ele>
        <time>2017-10-15T09:53:32.000Z</time>
      </trkpt>
      <trkpt lat="42.37997" lon="2.10478">
        <ele>2639</ele>
        <time>2017-10-15T09:53:33.000Z</time>
      </trkpt>
      <trkpt lat="42.37997" lon="2.10479">
        <ele>2639</ele>
        <time>2017-10-15T09:53:34.000Z</time>
      </trkpt>
      <trkpt lat="42.37998" lon="2.1048">
        <ele>2639</ele>
        <time>2017-10-15T09:53:35.000Z</time>
      </trkpt>
      <trkpt lat="42.37998" lon="2.10481">
        <ele>2639</ele>
        <time>2017-10-15T09:53:36.000Z</time>
      </trkpt>
      <trkpt lat="42.37998" lon="2.10482">
        <ele>2640</ele>
        <time>2017-10-15T09:53:37.000Z</time>
      </trkpt>
      <trkpt lat="42.37999" lon="2.10484">
        <ele>2640</ele>
        <time>2017-10-15T09:53:38.000Z</time>
      </trkpt>
      <trkpt lat="42.37999" lon="2.10485">
        <ele>2640</ele>
        <time>2017-10-15T09:53:39.000Z</time>
      </trkpt>
      <trkpt lat="42.37999" lon="2.10486">
        <ele>2640</ele>
        <time>2017-10-15T09:53:40.000Z</time>
      </trkpt>
      <trkpt lat="42.38" lon="2.10487">
        <ele>2640</ele>
        <time>2017-10-15T09:53:41.000Z</time>
      </trkpt>
      <trkpt lat="42.38" lon="2.10488">
        <ele>2640</ele>
        <time>2017-10-15T09:53:42.000Z</time>
      </trkpt>
      <trkpt lat="42.38001" lon="2.10489">
        <ele>2640</ele>
        <time>2017-10-15T09:53:43.000Z</time>
      </trkpt>
      <trkpt lat="42.38001" lon="2.10489">
        <ele>2640</ele>
        <time>2017-10-15T09:53:44.000Z</time>
      </trkpt>
      <trkpt lat="42.38002" lon="2.1049">
        <ele>2640</ele>
        <time>2017-10-15T09:53:45.000Z</time>
      </trkpt>
      <trkpt lat="42.38003" lon="2.10491">
        <ele>2640</ele>
        <time>2017-10-15T09:53:46.000Z</time>
      </trkpt>
      <trkpt lat="42.38003" lon="2.10492">
        <ele>2640</ele>
        <time>2017-10-15T09:53:47.000Z</time>
      </trkpt>
      <trkpt lat="42.38004" lon="2.10493">
        <ele>2640</ele>
        <time>2017-10-15T09:53:48.000Z</time>
      </trkpt>
      <trkpt lat="42.38004" lon="2.10494">
        <ele>2640</ele>
        <time>2017-10-15T09:53:49.000Z</time>
      </trkpt>
      <trkpt lat="42.38005" lon="2.10494">
        <ele>2640</ele>
        <time>2017-10-15T09:53:50.000Z</time>
      </trkpt>
      <trkpt lat="42.38006" lon="2.10495">
        <ele>2640</ele>
        <time>2017-10-15T09:53:51.000Z</time>
      </trkpt>
      <trkpt lat="42.38007" lon="2.10496">
        <ele>2640</ele>
        <time>2017-10-15T09:53:52.000Z</time>
      </trkpt>
      <trkpt lat="42.38008" lon="2.10497">
        <ele>2640</ele>
        <time>2017-10-15T09:53:53.000Z</time>
      </trkpt>
      <trkpt lat="42.38008" lon="2.10498">
        <ele>2640</ele>
        <time>2017-10-15T09:53:54.000Z</time>
      </trkpt>
      <trkpt lat="42.38009" lon="2.10499">
        <ele>2640</ele>
        <time>2017-10-15T09:53:55.000Z</time>
      </trkpt>
      <trkpt lat="42.38009" lon="2.105">
        <ele>2640</ele>
        <time>2017-10-15T09:53:56.000Z</time>
      </trkpt>
      <trkpt lat="42.3801" lon="2.10501">
        <ele>2640</ele>
        <time>2017-10-15T09:53:57.000Z</time>
      </trkpt>
      <trkpt lat="42.3801" lon="2.10502">
        <ele>2640</ele>
        <time>2017-10-15T09:53:58.000Z</time>
      </trkpt>
      <trkpt lat="42.38011" lon="2.10503">
        <ele>2640</ele>
        <time>2017-10-15T09:53:59.000Z</time>
      </trkpt>
      <trkpt lat="42.38011" lon="2.10505">
        <ele>2640</ele>
        <time>2017-10-15T09:54:00.000Z</time>
      </trkpt>
      <trkpt lat="42.38012" lon="2.10505">
        <ele>2640</ele>
        <time>2017-10-15T09:54:01.000Z</time>
      </trkpt>
      <trkpt lat="42.38013" lon="2.10506">
        <ele>2640</ele>
        <time>2017-10-15T09:54:02.000Z</time>
      </trkpt>
      <trkpt lat="42.38014" lon="2.10507">
        <ele>2640</ele>
        <time>2017-10-15T09:54:03.000Z</time>
      </trkpt>
      <trkpt lat="42.38014" lon="2.10509">
        <ele>2640</ele>
        <time>2017-10-15T09:54:04.000Z</time>
      </trkpt>
      <trkpt lat="42.38015" lon="2.1051">
        <ele>2640</ele>
        <time>2017-10-15T09:54:05.000Z</time>
      </trkpt>
      <trkpt lat="42.38015" lon="2.10511">
        <ele>2640</ele>
        <time>2017-10-15T09:54:06.000Z</time>
      </trkpt>
      <trkpt lat="42.38016" lon="2.10512">
        <ele>2640</ele>
        <time>2017-10-15T09:54:07.000Z</time>
      </trkpt>
      <trkpt lat="42.38016" lon="2.10513">
        <ele>2640</ele>
        <time>2017-10-15T09:54:08.000Z</time>
      </trkpt>
      <trkpt lat="42.38017" lon="2.10514">
        <ele>2640</ele>
        <time>2017-10-15T09:54:09.000Z</time>
      </trkpt>
      <trkpt lat="42.38017" lon="2.10515">
        <ele>2640</ele>
        <time>2017-10-15T09:54:10.000Z</time>
      </trkpt>
      <trkpt lat="42.38017" lon="2.10516">
        <ele>2640</ele>
        <time>2017-10-15T09:54:11.000Z</time>
      </trkpt>
      <trkpt lat="42.38018" lon="2.10517">
        <ele>2640</ele>
        <time>2017-10-15T09:54:12.000Z</time>
      </trkpt>
      <trkpt lat="42.38018" lon="2.10518">
        <ele>2640</ele>
        <time>2017-10-15T09:54:13.000Z</time>
      </trkpt>
      <trkpt lat="42.38019" lon="2.10519">
        <ele>2640</ele>
        <time>2017-10-15T09:54:14.000Z</time>
      </trkpt>
      <trkpt lat="42.3802" lon="2.1052">
        <ele>2640</ele>
        <time>2017-10-15T09:54:15.000Z</time>
      </trkpt>
      <trkpt lat="42.3802" lon="2.10521">
        <ele>2640</ele>
        <time>2017-10-15T09:54:16.000Z</time>
      </trkpt>
      <trkpt lat="42.38021" lon="2.10521">
        <ele>2640</ele>
        <time>2017-10-15T09:54:17.000Z</time>
      </trkpt>
      <trkpt lat="42.38021" lon="2.10521">
        <ele>2640</ele>
        <time>2017-10-15T09:54:18.000Z</time>
      </trkpt>
      <trkpt lat="42.38022" lon="2.10522">
        <ele>2640</ele>
        <time>2017-10-15T09:54:19.000Z</time>
      </trkpt>
      <trkpt lat="42.38022" lon="2.10522">
        <ele>2640</ele>
        <time>2017-10-15T09:54:20.000Z</time>
      </trkpt>
      <trkpt lat="42.38023" lon="2.10523">
        <ele>2640</ele>
        <time>2017-10-15T09:54:21.000Z</time>
      </trkpt>
      <trkpt lat="42.38024" lon="2.10524">
        <ele>2640</ele>
        <time>2017-10-15T09:54:22.000Z</time>
      </trkpt>
      <trkpt lat="42.38024" lon="2.10524">
        <ele>2640</ele>
        <time>2017-10-15T09:54:23.000Z</time>
      </trkpt>
      <trkpt lat="42.38025" lon="2.10525">
        <ele>2640</ele>
        <time>2017-10-15T09:54:24.000Z</time>
      </trkpt>
      <trkpt lat="42.38026" lon="2.10526">
        <ele>2640</ele>
        <time>2017-10-15T09:54:25.000Z</time>
      </trkpt>
      <trkpt lat="42.38026" lon="2.10526">
        <ele>2639</ele>
        <time>2017-10-15T09:54:26.000Z</time>
      </trkpt>
      <trkpt lat="42.38027" lon="2.10527">
        <ele>2639</ele>
        <time>2017-10-15T09:54:28.000Z</time>
      </trkpt>
      <trkpt lat="42.38028" lon="2.10528">
        <ele>2639</ele>
        <time>2017-10-15T09:54:29.000Z</time>
      </trkpt>
      <trkpt lat="42.38029" lon="2.10529">
        <ele>2639</ele>
        <time>2017-10-15T09:54:30.000Z</time>
      </trkpt>
      <trkpt lat="42.38029" lon="2.1053">
        <ele>2639</ele>
        <time>2017-10-15T09:54:31.000Z</time>
      </trkpt>
      <trkpt lat="42.3803" lon="2.10531">
        <ele>2639</ele>
        <time>2017-10-15T09:54:32.000Z</time>
      </trkpt>
      <trkpt lat="42.38031" lon="2.10532">
        <ele>2639</ele>
        <time>2017-10-15T09:54:33.000Z</time>
      </trkpt>
      <trkpt lat="42.38031" lon="2.10532">
        <ele>2639</ele>
        <time>2017-10-15T09:54:34.000Z</time>
      </trkpt>
      <trkpt lat="42.38032" lon="2.10533">
        <ele>2639</ele>
        <time>2017-10-15T09:54:35.000Z</time>
      </trkpt>
      <trkpt lat="42.38033" lon="2.10534">
        <ele>2639</ele>
        <time>2017-10-15T09:54:36.000Z</time>
      </trkpt>
      <trkpt lat="42.38033" lon="2.10535">
        <ele>2639</ele>
        <time>2017-10-15T09:54:37.000Z</time>
      </trkpt>
      <trkpt lat="42.38034" lon="2.10536">
        <ele>2639</ele>
        <time>2017-10-15T09:54:38.000Z</time>
      </trkpt>
      <trkpt lat="42.38035" lon="2.10537">
        <ele>2639</ele>
        <time>2017-10-15T09:54:39.000Z</time>
      </trkpt>
      <trkpt lat="42.38036" lon="2.10538">
        <ele>2639</ele>
        <time>2017-10-15T09:54:40.000Z</time>
      </trkpt>
      <trkpt lat="42.38036" lon="2.10539">
        <ele>2639</ele>
        <time>2017-10-15T09:54:41.000Z</time>
      </trkpt>
      <trkpt lat="42.38037" lon="2.1054">
        <ele>2639</ele>
        <time>2017-10-15T09:54:42.000Z</time>
      </trkpt>
      <trkpt lat="42.38038" lon="2.1054">
        <ele>2639</ele>
        <time>2017-10-15T09:54:43.000Z</time>
      </trkpt>
      <trkpt lat="42.38039" lon="2.10541">
        <ele>2639</ele>
        <time>2017-10-15T09:54:44.000Z</time>
      </trkpt>
      <trkpt lat="42.3804" lon="2.10542">
        <ele>2639</ele>
        <time>2017-10-15T09:54:45.000Z</time>
      </trkpt>
      <trkpt lat="42.3804" lon="2.10543">
        <ele>2639</ele>
        <time>2017-10-15T09:54:46.000Z</time>
      </trkpt>
      <trkpt lat="42.3804" lon="2.10544">
        <ele>2639</ele>
        <time>2017-10-15T09:54:47.000Z</time>
      </trkpt>
      <trkpt lat="42.38041" lon="2.10545">
        <ele>2639</ele>
        <time>2017-10-15T09:54:48.000Z</time>
      </trkpt>
      <trkpt lat="42.38041" lon="2.10546">
        <ele>2639</ele>
        <time>2017-10-15T09:54:49.000Z</time>
      </trkpt>
      <trkpt lat="42.38042" lon="2.10547">
        <ele>2639</ele>
        <time>2017-10-15T09:54:50.000Z</time>
      </trkpt>
      <trkpt lat="42.38043" lon="2.10548">
        <ele>2639</ele>
        <time>2017-10-15T09:54:51.000Z</time>
      </trkpt>
      <trkpt lat="42.38043" lon="2.10549">
        <ele>2638</ele>
        <time>2017-10-15T09:54:52.000Z</time>
      </trkpt>
      <trkpt lat="42.38044" lon="2.10549">
        <ele>2638</ele>
        <time>2017-10-15T09:54:53.000Z</time>
      </trkpt>
      <trkpt lat="42.38045" lon="2.1055">
        <ele>2638</ele>
        <time>2017-10-15T09:54:54.000Z</time>
      </trkpt>
      <trkpt lat="42.38045" lon="2.10551">
        <ele>2638</ele>
        <time>2017-10-15T09:54:55.000Z</time>
      </trkpt>
      <trkpt lat="42.38046" lon="2.10551">
        <ele>2638</ele>
        <time>2017-10-15T09:54:56.000Z</time>
      </trkpt>
      <trkpt lat="42.38046" lon="2.10551">
        <ele>2638</ele>
        <time>2017-10-15T09:54:57.000Z</time>
      </trkpt>
      <trkpt lat="42.38047" lon="2.10551">
        <ele>2638</ele>
        <time>2017-10-15T09:54:58.000Z</time>
      </trkpt>
      <trkpt lat="42.38048" lon="2.10552">
        <ele>2638</ele>
        <time>2017-10-15T09:54:59.000Z</time>
      </trkpt>
      <trkpt lat="42.38049" lon="2.10553">
        <ele>2638</ele>
        <time>2017-10-15T09:55:00.000Z</time>
      </trkpt>
      <trkpt lat="42.3805" lon="2.10553">
        <ele>2638</ele>
        <time>2017-10-15T09:55:01.000Z</time>
      </trkpt>
      <trkpt lat="42.3805" lon="2.10554">
        <ele>2638</ele>
        <time>2017-10-15T09:55:02.000Z</time>
      </trkpt>
      <trkpt lat="42.38051" lon="2.10554">
        <ele>2638</ele>
        <time>2017-10-15T09:55:03.000Z</time>
      </trkpt>
      <trkpt lat="42.38052" lon="2.10554">
        <ele>2638</ele>
        <time>2017-10-15T09:55:04.000Z</time>
      </trkpt>
      <trkpt lat="42.38052" lon="2.10555">
        <ele>2638</ele>
        <time>2017-10-15T09:55:05.000Z</time>
      </trkpt>
      <trkpt lat="42.38053" lon="2.10555">
        <ele>2638</ele>
        <time>2017-10-15T09:55:06.000Z</time>
      </trkpt>
      <trkpt lat="42.38053" lon="2.10555">
        <ele>2638</ele>
        <time>2017-10-15T09:55:07.000Z</time>
      </trkpt>
      <trkpt lat="42.38054" lon="2.10555">
        <ele>2638</ele>
        <time>2017-10-15T09:55:08.000Z</time>
      </trkpt>
      <trkpt lat="42.38054" lon="2.10556">
        <ele>2638</ele>
        <time>2017-10-15T09:55:09.000Z</time>
      </trkpt>
      <trkpt lat="42.38055" lon="2.10556">
        <ele>2638</ele>
        <time>2017-10-15T09:55:10.000Z</time>
      </trkpt>
      <trkpt lat="42.38055" lon="2.10556">
        <ele>2638</ele>
        <time>2017-10-15T09:55:11.000Z</time>
      </trkpt>
      <trkpt lat="42.38056" lon="2.10557">
        <ele>2638</ele>
        <time>2017-10-15T09:55:12.000Z</time>
      </trkpt>
      <trkpt lat="42.38057" lon="2.10557">
        <ele>2638</ele>
        <time>2017-10-15T09:55:13.000Z</time>
      </trkpt>
      <trkpt lat="42.38057" lon="2.10557">
        <ele>2638</ele>
        <time>2017-10-15T09:55:14.000Z</time>
      </trkpt>
      <trkpt lat="42.38058" lon="2.10558">
        <ele>2638</ele>
        <time>2017-10-15T09:55:15.000Z</time>
      </trkpt>
      <trkpt lat="42.38058" lon="2.10558">
        <ele>2638</ele>
        <time>2017-10-15T09:55:16.000Z</time>
      </trkpt>
      <trkpt lat="42.38059" lon="2.1056">
        <ele>2638</ele>
        <time>2017-10-15T09:55:17.000Z</time>
      </trkpt>
      <trkpt lat="42.38059" lon="2.1056">
        <ele>2638</ele>
        <time>2017-10-15T09:55:18.000Z</time>
      </trkpt>
      <trkpt lat="42.38059" lon="2.10561">
        <ele>2638</ele>
        <time>2017-10-15T09:55:19.000Z</time>
      </trkpt>
      <trkpt lat="42.38059" lon="2.10562">
        <ele>2638</ele>
        <time>2017-10-15T09:55:20.000Z</time>
      </trkpt>
      <trkpt lat="42.3806" lon="2.10563">
        <ele>2638</ele>
        <time>2017-10-15T09:55:21.000Z</time>
      </trkpt>
      <trkpt lat="42.3806" lon="2.10563">
        <ele>2638</ele>
        <time>2017-10-15T09:55:22.000Z</time>
      </trkpt>
      <trkpt lat="42.38068" lon="2.10568">
        <ele>2637</ele>
        <time>2017-10-15T09:55:39.000Z</time>
      </trkpt>
      <trkpt lat="42.38069" lon="2.10569">
        <ele>2637</ele>
        <time>2017-10-15T09:55:40.000Z</time>
      </trkpt>
      <trkpt lat="42.3807" lon="2.1057">
        <ele>2637</ele>
        <time>2017-10-15T09:55:41.000Z</time>
      </trkpt>
      <trkpt lat="42.3807" lon="2.1057">
        <ele>2637</ele>
        <time>2017-10-15T09:55:42.000Z</time>
      </trkpt>
      <trkpt lat="42.3807" lon="2.10571">
        <ele>2637</ele>
        <time>2017-10-15T09:55:43.000Z</time>
      </trkpt>
      <trkpt lat="42.3807" lon="2.10572">
        <ele>2637</ele>
        <time>2017-10-15T09:55:44.000Z</time>
      </trkpt>
      <trkpt lat="42.38071" lon="2.10572">
        <ele>2637</ele>
        <time>2017-10-15T09:55:45.000Z</time>
      </trkpt>
      <trkpt lat="42.38071" lon="2.10573">
        <ele>2637</ele>
        <time>2017-10-15T09:55:46.000Z</time>
      </trkpt>
      <trkpt lat="42.38072" lon="2.10573">
        <ele>2637</ele>
        <time>2017-10-15T09:55:47.000Z</time>
      </trkpt>
      <trkpt lat="42.38072" lon="2.10574">
        <ele>2637</ele>
        <time>2017-10-15T09:55:48.000Z</time>
      </trkpt>
      <trkpt lat="42.38072" lon="2.10574">
        <ele>2637</ele>
        <time>2017-10-15T09:55:49.000Z</time>
      </trkpt>
      <trkpt lat="42.38073" lon="2.10574">
        <ele>2637</ele>
        <time>2017-10-15T09:55:50.000Z</time>
      </trkpt>
      <trkpt lat="42.38073" lon="2.10575">
        <ele>2637</ele>
        <time>2017-10-15T09:55:51.000Z</time>
      </trkpt>
      <trkpt lat="42.38074" lon="2.10575">
        <ele>2637</ele>
        <time>2017-10-15T09:55:52.000Z</time>
      </trkpt>
      <trkpt lat="42.38075" lon="2.10576">
        <ele>2637</ele>
        <time>2017-10-15T09:55:53.000Z</time>
      </trkpt>
      <trkpt lat="42.38076" lon="2.10577">
        <ele>2637</ele>
        <time>2017-10-15T09:55:54.000Z</time>
      </trkpt>
      <trkpt lat="42.38076" lon="2.10577">
        <ele>2637</ele>
        <time>2017-10-15T09:55:55.000Z</time>
      </trkpt>
      <trkpt lat="42.38077" lon="2.10578">
        <ele>2637</ele>
        <time>2017-10-15T09:55:56.000Z</time>
      </trkpt>
      <trkpt lat="42.38078" lon="2.10579">
        <ele>2637</ele>
        <time>2017-10-15T09:55:57.000Z</time>
      </trkpt>
      <trkpt lat="42.38079" lon="2.1058">
        <ele>2637</ele>
        <time>2017-10-15T09:55:58.000Z</time>
      </trkpt>
      <trkpt lat="42.38079" lon="2.10581">
        <ele>2636</ele>
        <time>2017-10-15T09:55:59.000Z</time>
      </trkpt>
      <trkpt lat="42.3808" lon="2.10582">
        <ele>2636</ele>
        <time>2017-10-15T09:56:00.000Z</time>
      </trkpt>
      <trkpt lat="42.38081" lon="2.10583">
        <ele>2636</ele>
        <time>2017-10-15T09:56:01.000Z</time>
      </trkpt>
      <trkpt lat="42.38082" lon="2.10584">
        <ele>2636</ele>
        <time>2017-10-15T09:56:02.000Z</time>
      </trkpt>
      <trkpt lat="42.38082" lon="2.10584">
        <ele>2636</ele>
        <time>2017-10-15T09:56:03.000Z</time>
      </trkpt>
      <trkpt lat="42.38083" lon="2.10585">
        <ele>2636</ele>
        <time>2017-10-15T09:56:04.000Z</time>
      </trkpt>
      <trkpt lat="42.38084" lon="2.10586">
        <ele>2636</ele>
        <time>2017-10-15T09:56:05.000Z</time>
      </trkpt>
      <trkpt lat="42.38085" lon="2.10587">
        <ele>2635</ele>
        <time>2017-10-15T09:56:06.000Z</time>
      </trkpt>
      <trkpt lat="42.38086" lon="2.10588">
        <ele>2635</ele>
        <time>2017-10-15T09:56:07.000Z</time>
      </trkpt>
      <trkpt lat="42.38088" lon="2.10589">
        <ele>2635</ele>
        <time>2017-10-15T09:56:08.000Z</time>
      </trkpt>
      <trkpt lat="42.38089" lon="2.1059">
        <ele>2635</ele>
        <time>2017-10-15T09:56:09.000Z</time>
      </trkpt>
      <trkpt lat="42.3809" lon="2.10591">
        <ele>2635</ele>
        <time>2017-10-15T09:56:10.000Z</time>
      </trkpt>
      <trkpt lat="42.38091" lon="2.10592">
        <ele>2635</ele>
        <time>2017-10-15T09:56:11.000Z</time>
      </trkpt>
      <trkpt lat="42.38092" lon="2.10593">
        <ele>2635</ele>
        <time>2017-10-15T09:56:12.000Z</time>
      </trkpt>
      <trkpt lat="42.38093" lon="2.10594">
        <ele>2635</ele>
        <time>2017-10-15T09:56:13.000Z</time>
      </trkpt>
      <trkpt lat="42.38094" lon="2.10594">
        <ele>2635</ele>
        <time>2017-10-15T09:56:14.000Z</time>
      </trkpt>
      <trkpt lat="42.38096" lon="2.10595">
        <ele>2635</ele>
        <time>2017-10-15T09:56:15.000Z</time>
      </trkpt>
      <trkpt lat="42.38097" lon="2.10595">
        <ele>2635</ele>
        <time>2017-10-15T09:56:16.000Z</time>
      </trkpt>
      <trkpt lat="42.38098" lon="2.10596">
        <ele>2635</ele>
        <time>2017-10-15T09:56:17.000Z</time>
      </trkpt>
      <trkpt lat="42.38099" lon="2.10596">
        <ele>2635</ele>
        <time>2017-10-15T09:56:18.000Z</time>
      </trkpt>
      <trkpt lat="42.381" lon="2.10597">
        <ele>2634</ele>
        <time>2017-10-15T09:56:19.000Z</time>
      </trkpt>
      <trkpt lat="42.38101" lon="2.10598">
        <ele>2634</ele>
        <time>2017-10-15T09:56:20.000Z</time>
      </trkpt>
      <trkpt lat="42.38102" lon="2.10598">
        <ele>2634</ele>
        <time>2017-10-15T09:56:21.000Z</time>
      </trkpt>
      <trkpt lat="42.38103" lon="2.10599">
        <ele>2634</ele>
        <time>2017-10-15T09:56:22.000Z</time>
      </trkpt>
      <trkpt lat="42.38104" lon="2.10599">
        <ele>2634</ele>
        <time>2017-10-15T09:56:23.000Z</time>
      </trkpt>
      <trkpt lat="42.38104" lon="2.106">
        <ele>2634</ele>
        <time>2017-10-15T09:56:24.000Z</time>
      </trkpt>
      <trkpt lat="42.38105" lon="2.10601">
        <ele>2634</ele>
        <time>2017-10-15T09:56:25.000Z</time>
      </trkpt>
      <trkpt lat="42.38106" lon="2.10601">
        <ele>2634</ele>
        <time>2017-10-15T09:56:26.000Z</time>
      </trkpt>
      <trkpt lat="42.38107" lon="2.10602">
        <ele>2634</ele>
        <time>2017-10-15T09:56:27.000Z</time>
      </trkpt>
      <trkpt lat="42.38107" lon="2.10603">
        <ele>2634</ele>
        <time>2017-10-15T09:56:28.000Z</time>
      </trkpt>
      <trkpt lat="42.38108" lon="2.10603">
        <ele>2634</ele>
        <time>2017-10-15T09:56:29.000Z</time>
      </trkpt>
      <trkpt lat="42.38109" lon="2.10604">
        <ele>2634</ele>
        <time>2017-10-15T09:56:30.000Z</time>
      </trkpt>
      <trkpt lat="42.38109" lon="2.10605">
        <ele>2634</ele>
        <time>2017-10-15T09:56:31.000Z</time>
      </trkpt>
      <trkpt lat="42.3811" lon="2.10606">
        <ele>2634</ele>
        <time>2017-10-15T09:56:32.000Z</time>
      </trkpt>
      <trkpt lat="42.3811" lon="2.10606">
        <ele>2633</ele>
        <time>2017-10-15T09:56:33.000Z</time>
      </trkpt>
      <trkpt lat="42.38111" lon="2.10607">
        <ele>2633</ele>
        <time>2017-10-15T09:56:34.000Z</time>
      </trkpt>
      <trkpt lat="42.38112" lon="2.10607">
        <ele>2633</ele>
        <time>2017-10-15T09:56:35.000Z</time>
      </trkpt>
      <trkpt lat="42.38113" lon="2.10607">
        <ele>2633</ele>
        <time>2017-10-15T09:56:36.000Z</time>
      </trkpt>
      <trkpt lat="42.38114" lon="2.10607">
        <ele>2633</ele>
        <time>2017-10-15T09:56:37.000Z</time>
      </trkpt>
      <trkpt lat="42.38115" lon="2.10608">
        <ele>2633</ele>
        <time>2017-10-15T09:56:38.000Z</time>
      </trkpt>
      <trkpt lat="42.38116" lon="2.10608">
        <ele>2633</ele>
        <time>2017-10-15T09:56:39.000Z</time>
      </trkpt>
      <trkpt lat="42.38117" lon="2.10608">
        <ele>2632</ele>
        <time>2017-10-15T09:56:40.000Z</time>
      </trkpt>
      <trkpt lat="42.38118" lon="2.10609">
        <ele>2632</ele>
        <time>2017-10-15T09:56:41.000Z</time>
      </trkpt>
      <trkpt lat="42.38119" lon="2.10609">
        <ele>2632</ele>
        <time>2017-10-15T09:56:42.000Z</time>
      </trkpt>
      <trkpt lat="42.3812" lon="2.1061">
        <ele>2632</ele>
        <time>2017-10-15T09:56:43.000Z</time>
      </trkpt>
      <trkpt lat="42.38121" lon="2.10611">
        <ele>2632</ele>
        <time>2017-10-15T09:56:44.000Z</time>
      </trkpt>
      <trkpt lat="42.38122" lon="2.10611">
        <ele>2632</ele>
        <time>2017-10-15T09:56:45.000Z</time>
      </trkpt>
      <trkpt lat="42.38123" lon="2.10612">
        <ele>2631</ele>
        <time>2017-10-15T09:56:46.000Z</time>
      </trkpt>
      <trkpt lat="42.38125" lon="2.10612">
        <ele>2631</ele>
        <time>2017-10-15T09:56:47.000Z</time>
      </trkpt>
      <trkpt lat="42.38125" lon="2.10613">
        <ele>2631</ele>
        <time>2017-10-15T09:56:48.000Z</time>
      </trkpt>
      <trkpt lat="42.38126" lon="2.10614">
        <ele>2631</ele>
        <time>2017-10-15T09:56:49.000Z</time>
      </trkpt>
      <trkpt lat="42.38127" lon="2.10614">
        <ele>2631</ele>
        <time>2017-10-15T09:56:50.000Z</time>
      </trkpt>
      <trkpt lat="42.38128" lon="2.10615">
        <ele>2631</ele>
        <time>2017-10-15T09:56:51.000Z</time>
      </trkpt>
      <trkpt lat="42.38128" lon="2.10616">
        <ele>2631</ele>
        <time>2017-10-15T09:56:52.000Z</time>
      </trkpt>
      <trkpt lat="42.38129" lon="2.10617">
        <ele>2631</ele>
        <time>2017-10-15T09:56:53.000Z</time>
      </trkpt>
      <trkpt lat="42.3813" lon="2.10618">
        <ele>2631</ele>
        <time>2017-10-15T09:56:54.000Z</time>
      </trkpt>
      <trkpt lat="42.38131" lon="2.10619">
        <ele>2630</ele>
        <time>2017-10-15T09:56:55.000Z</time>
      </trkpt>
      <trkpt lat="42.38132" lon="2.1062">
        <ele>2630</ele>
        <time>2017-10-15T09:56:56.000Z</time>
      </trkpt>
      <trkpt lat="42.38133" lon="2.10621">
        <ele>2630</ele>
        <time>2017-10-15T09:56:57.000Z</time>
      </trkpt>
      <trkpt lat="42.38134" lon="2.10622">
        <ele>2630</ele>
        <time>2017-10-15T09:56:58.000Z</time>
      </trkpt>
      <trkpt lat="42.38135" lon="2.10623">
        <ele>2630</ele>
        <time>2017-10-15T09:56:59.000Z</time>
      </trkpt>
      <trkpt lat="42.38136" lon="2.10624">
        <ele>2630</ele>
        <time>2017-10-15T09:57:00.000Z</time>
      </trkpt>
      <trkpt lat="42.38137" lon="2.10624">
        <ele>2630</ele>
        <time>2017-10-15T09:57:01.000Z</time>
      </trkpt>
      <trkpt lat="42.38138" lon="2.10625">
        <ele>2630</ele>
        <time>2017-10-15T09:57:02.000Z</time>
      </trkpt>
      <trkpt lat="42.38138" lon="2.10626">
        <ele>2630</ele>
        <time>2017-10-15T09:57:03.000Z</time>
      </trkpt>
      <trkpt lat="42.38139" lon="2.10627">
        <ele>2630</ele>
        <time>2017-10-15T09:57:04.000Z</time>
      </trkpt>
      <trkpt lat="42.3814" lon="2.10628">
        <ele>2629</ele>
        <time>2017-10-15T09:57:05.000Z</time>
      </trkpt>
      <trkpt lat="42.38141" lon="2.10629">
        <ele>2629</ele>
        <time>2017-10-15T09:57:06.000Z</time>
      </trkpt>
      <trkpt lat="42.38141" lon="2.1063">
        <ele>2629</ele>
        <time>2017-10-15T09:57:07.000Z</time>
      </trkpt>
      <trkpt lat="42.38142" lon="2.10631">
        <ele>2629</ele>
        <time>2017-10-15T09:57:08.000Z</time>
      </trkpt>
      <trkpt lat="42.38143" lon="2.10632">
        <ele>2629</ele>
        <time>2017-10-15T09:57:09.000Z</time>
      </trkpt>
      <trkpt lat="42.38144" lon="2.10633">
        <ele>2629</ele>
        <time>2017-10-15T09:57:10.000Z</time>
      </trkpt>
      <trkpt lat="42.38145" lon="2.10634">
        <ele>2629</ele>
        <time>2017-10-15T09:57:11.000Z</time>
      </trkpt>
      <trkpt lat="42.38146" lon="2.10634">
        <ele>2629</ele>
        <time>2017-10-15T09:57:12.000Z</time>
      </trkpt>
      <trkpt lat="42.38146" lon="2.10635">
        <ele>2629</ele>
        <time>2017-10-15T09:57:13.000Z</time>
      </trkpt>
      <trkpt lat="42.38147" lon="2.10636">
        <ele>2629</ele>
        <time>2017-10-15T09:57:14.000Z</time>
      </trkpt>
      <trkpt lat="42.38148" lon="2.10636">
        <ele>2629</ele>
        <time>2017-10-15T09:57:15.000Z</time>
      </trkpt>
      <trkpt lat="42.38149" lon="2.10637">
        <ele>2628</ele>
        <time>2017-10-15T09:57:16.000Z</time>
      </trkpt>
      <trkpt lat="42.38149" lon="2.10638">
        <ele>2628</ele>
        <time>2017-10-15T09:57:17.000Z</time>
      </trkpt>
      <trkpt lat="42.3815" lon="2.10639">
        <ele>2628</ele>
        <time>2017-10-15T09:57:18.000Z</time>
      </trkpt>
      <trkpt lat="42.38151" lon="2.1064">
        <ele>2628</ele>
        <time>2017-10-15T09:57:19.000Z</time>
      </trkpt>
      <trkpt lat="42.38151" lon="2.10641">
        <ele>2628</ele>
        <time>2017-10-15T09:57:20.000Z</time>
      </trkpt>
      <trkpt lat="42.38152" lon="2.10641">
        <ele>2628</ele>
        <time>2017-10-15T09:57:21.000Z</time>
      </trkpt>
      <trkpt lat="42.38153" lon="2.10642">
        <ele>2628</ele>
        <time>2017-10-15T09:57:22.000Z</time>
      </trkpt>
      <trkpt lat="42.38154" lon="2.10643">
        <ele>2628</ele>
        <time>2017-10-15T09:57:23.000Z</time>
      </trkpt>
      <trkpt lat="42.38154" lon="2.10644">
        <ele>2628</ele>
        <time>2017-10-15T09:57:24.000Z</time>
      </trkpt>
      <trkpt lat="42.38155" lon="2.10645">
        <ele>2628</ele>
        <time>2017-10-15T09:57:25.000Z</time>
      </trkpt>
      <trkpt lat="42.38155" lon="2.10646">
        <ele>2628</ele>
        <time>2017-10-15T09:57:26.000Z</time>
      </trkpt>
      <trkpt lat="42.38156" lon="2.10647">
        <ele>2628</ele>
        <time>2017-10-15T09:57:27.000Z</time>
      </trkpt>
      <trkpt lat="42.38157" lon="2.10648">
        <ele>2628</ele>
        <time>2017-10-15T09:57:28.000Z</time>
      </trkpt>
      <trkpt lat="42.38157" lon="2.10649">
        <ele>2628</ele>
        <time>2017-10-15T09:57:29.000Z</time>
      </trkpt>
      <trkpt lat="42.38158" lon="2.1065">
        <ele>2628</ele>
        <time>2017-10-15T09:57:30.000Z</time>
      </trkpt>
      <trkpt lat="42.38159" lon="2.10651">
        <ele>2628</ele>
        <time>2017-10-15T09:57:31.000Z</time>
      </trkpt>
      <trkpt lat="42.38159" lon="2.10652">
        <ele>2627</ele>
        <time>2017-10-15T09:57:32.000Z</time>
      </trkpt>
      <trkpt lat="42.3816" lon="2.10653">
        <ele>2627</ele>
        <time>2017-10-15T09:57:33.000Z</time>
      </trkpt>
      <trkpt lat="42.3816" lon="2.10655">
        <ele>2627</ele>
        <time>2017-10-15T09:57:34.000Z</time>
      </trkpt>
      <trkpt lat="42.38161" lon="2.10656">
        <ele>2627</ele>
        <time>2017-10-15T09:57:35.000Z</time>
      </trkpt>
      <trkpt lat="42.38161" lon="2.10657">
        <ele>2627</ele>
        <time>2017-10-15T09:57:36.000Z</time>
      </trkpt>
      <trkpt lat="42.38162" lon="2.10659">
        <ele>2627</ele>
        <time>2017-10-15T09:57:37.000Z</time>
      </trkpt>
      <trkpt lat="42.38162" lon="2.1066">
        <ele>2627</ele>
        <time>2017-10-15T09:57:38.000Z</time>
      </trkpt>
      <trkpt lat="42.38163" lon="2.10661">
        <ele>2627</ele>
        <time>2017-10-15T09:57:39.000Z</time>
      </trkpt>
      <trkpt lat="42.38163" lon="2.10662">
        <ele>2627</ele>
        <time>2017-10-15T09:57:40.000Z</time>
      </trkpt>
      <trkpt lat="42.38164" lon="2.10664">
        <ele>2627</ele>
        <time>2017-10-15T09:57:41.000Z</time>
      </trkpt>
      <trkpt lat="42.38164" lon="2.10665">
        <ele>2628</ele>
        <time>2017-10-15T09:57:42.000Z</time>
      </trkpt>
      <trkpt lat="42.38165" lon="2.10666">
        <ele>2628</ele>
        <time>2017-10-15T09:57:43.000Z</time>
      </trkpt>
      <trkpt lat="42.38166" lon="2.10667">
        <ele>2628</ele>
        <time>2017-10-15T09:57:44.000Z</time>
      </trkpt>
      <trkpt lat="42.38167" lon="2.10668">
        <ele>2628</ele>
        <time>2017-10-15T09:57:45.000Z</time>
      </trkpt>
      <trkpt lat="42.38167" lon="2.10669">
        <ele>2628</ele>
        <time>2017-10-15T09:57:46.000Z</time>
      </trkpt>
      <trkpt lat="42.38168" lon="2.10671">
        <ele>2628</ele>
        <time>2017-10-15T09:57:47.000Z</time>
      </trkpt>
      <trkpt lat="42.38169" lon="2.10672">
        <ele>2629</ele>
        <time>2017-10-15T09:57:48.000Z</time>
      </trkpt>
      <trkpt lat="42.3817" lon="2.10673">
        <ele>2629</ele>
        <time>2017-10-15T09:57:49.000Z</time>
      </trkpt>
      <trkpt lat="42.3817" lon="2.10675">
        <ele>2629</ele>
        <time>2017-10-15T09:57:50.000Z</time>
      </trkpt>
      <trkpt lat="42.38171" lon="2.10676">
        <ele>2629</ele>
        <time>2017-10-15T09:57:51.000Z</time>
      </trkpt>
      <trkpt lat="42.38171" lon="2.10677">
        <ele>2630</ele>
        <time>2017-10-15T09:57:52.000Z</time>
      </trkpt>
      <trkpt lat="42.38172" lon="2.10679">
        <ele>2630</ele>
        <time>2017-10-15T09:57:53.000Z</time>
      </trkpt>
      <trkpt lat="42.38173" lon="2.1068">
        <ele>2630</ele>
        <time>2017-10-15T09:57:54.000Z</time>
      </trkpt>
      <trkpt lat="42.38173" lon="2.10682">
        <ele>2630</ele>
        <time>2017-10-15T09:57:55.000Z</time>
      </trkpt>
      <trkpt lat="42.38174" lon="2.10683">
        <ele>2630</ele>
        <time>2017-10-15T09:57:56.000Z</time>
      </trkpt>
      <trkpt lat="42.38174" lon="2.10684">
        <ele>2630</ele>
        <time>2017-10-15T09:57:57.000Z</time>
      </trkpt>
      <trkpt lat="42.38174" lon="2.10684">
        <ele>2631</ele>
        <time>2017-10-15T09:57:58.000Z</time>
      </trkpt>
      <trkpt lat="42.38175" lon="2.10685">
        <ele>2631</ele>
        <time>2017-10-15T09:57:59.000Z</time>
      </trkpt>
      <trkpt lat="42.38175" lon="2.10686">
        <ele>2631</ele>
        <time>2017-10-15T09:58:00.000Z</time>
      </trkpt>
      <trkpt lat="42.38176" lon="2.10687">
        <ele>2631</ele>
        <time>2017-10-15T09:58:01.000Z</time>
      </trkpt>
      <trkpt lat="42.38176" lon="2.10688">
        <ele>2631</ele>
        <time>2017-10-15T09:58:02.000Z</time>
      </trkpt>
      <trkpt lat="42.38177" lon="2.10689">
        <ele>2631</ele>
        <time>2017-10-15T09:58:03.000Z</time>
      </trkpt>
      <trkpt lat="42.38177" lon="2.1069">
        <ele>2631</ele>
        <time>2017-10-15T09:58:04.000Z</time>
      </trkpt>
      <trkpt lat="42.38178" lon="2.10691">
        <ele>2632</ele>
        <time>2017-10-15T09:58:05.000Z</time>
      </trkpt>
      <trkpt lat="42.38178" lon="2.10693">
        <ele>2632</ele>
        <time>2017-10-15T09:58:06.000Z</time>
      </trkpt>
      <trkpt lat="42.38179" lon="2.10694">
        <ele>2632</ele>
        <time>2017-10-15T09:58:07.000Z</time>
      </trkpt>
      <trkpt lat="42.3818" lon="2.10695">
        <ele>2632</ele>
        <time>2017-10-15T09:58:08.000Z</time>
      </trkpt>
      <trkpt lat="42.3818" lon="2.10696">
        <ele>2632</ele>
        <time>2017-10-15T09:58:09.000Z</time>
      </trkpt>
      <trkpt lat="42.38181" lon="2.10697">
        <ele>2632</ele>
        <time>2017-10-15T09:58:10.000Z</time>
      </trkpt>
      <trkpt lat="42.38182" lon="2.10699">
        <ele>2633</ele>
        <time>2017-10-15T09:58:11.000Z</time>
      </trkpt>
      <trkpt lat="42.38182" lon="2.10699">
        <ele>2633</ele>
        <time>2017-10-15T09:58:12.000Z</time>
      </trkpt>
      <trkpt lat="42.38183" lon="2.107">
        <ele>2633</ele>
        <time>2017-10-15T09:58:13.000Z</time>
      </trkpt>
      <trkpt lat="42.38183" lon="2.10701">
        <ele>2633</ele>
        <time>2017-10-15T09:58:14.000Z</time>
      </trkpt>
      <trkpt lat="42.38184" lon="2.10703">
        <ele>2633</ele>
        <time>2017-10-15T09:58:15.000Z</time>
      </trkpt>
      <trkpt lat="42.38185" lon="2.10704">
        <ele>2633</ele>
        <time>2017-10-15T09:58:16.000Z</time>
      </trkpt>
      <trkpt lat="42.38185" lon="2.10705">
        <ele>2634</ele>
        <time>2017-10-15T09:58:17.000Z</time>
      </trkpt>
      <trkpt lat="42.38186" lon="2.10706">
        <ele>2634</ele>
        <time>2017-10-15T09:58:18.000Z</time>
      </trkpt>
      <trkpt lat="42.38186" lon="2.10707">
        <ele>2634</ele>
        <time>2017-10-15T09:58:19.000Z</time>
      </trkpt>
      <trkpt lat="42.38187" lon="2.10708">
        <ele>2634</ele>
        <time>2017-10-15T09:58:20.000Z</time>
      </trkpt>
      <trkpt lat="42.38187" lon="2.10709">
        <ele>2634</ele>
        <time>2017-10-15T09:58:21.000Z</time>
      </trkpt>
      <trkpt lat="42.38188" lon="2.10711">
        <ele>2635</ele>
        <time>2017-10-15T09:58:22.000Z</time>
      </trkpt>
      <trkpt lat="42.38189" lon="2.10712">
        <ele>2635</ele>
        <time>2017-10-15T09:58:23.000Z</time>
      </trkpt>
      <trkpt lat="42.38189" lon="2.10713">
        <ele>2635</ele>
        <time>2017-10-15T09:58:24.000Z</time>
      </trkpt>
      <trkpt lat="42.3819" lon="2.10715">
        <ele>2635</ele>
        <time>2017-10-15T09:58:26.000Z</time>
      </trkpt>
      <trkpt lat="42.3819" lon="2.10715">
        <ele>2635</ele>
        <time>2017-10-15T09:58:27.000Z</time>
      </trkpt>
      <trkpt lat="42.3819" lon="2.10716">
        <ele>2635</ele>
        <time>2017-10-15T09:58:28.000Z</time>
      </trkpt>
      <trkpt lat="42.38191" lon="2.10717">
        <ele>2635</ele>
        <time>2017-10-15T09:58:29.000Z</time>
      </trkpt>
      <trkpt lat="42.38192" lon="2.10718">
        <ele>2636</ele>
        <time>2017-10-15T09:58:31.000Z</time>
      </trkpt>
      <trkpt lat="42.38192" lon="2.10719">
        <ele>2636</ele>
        <time>2017-10-15T09:58:32.000Z</time>
      </trkpt>
      <trkpt lat="42.38193" lon="2.1072">
        <ele>2636</ele>
        <time>2017-10-15T09:58:34.000Z</time>
      </trkpt>
      <trkpt lat="42.38193" lon="2.10721">
        <ele>2636</ele>
        <time>2017-10-15T09:58:35.000Z</time>
      </trkpt>
      <trkpt lat="42.38194" lon="2.10722">
        <ele>2636</ele>
        <time>2017-10-15T09:58:36.000Z</time>
      </trkpt>
      <trkpt lat="42.38194" lon="2.10722">
        <ele>2636</ele>
        <time>2017-10-15T09:58:37.000Z</time>
      </trkpt>
      <trkpt lat="42.38195" lon="2.10723">
        <ele>2636</ele>
        <time>2017-10-15T09:58:38.000Z</time>
      </trkpt>
      <trkpt lat="42.38195" lon="2.10724">
        <ele>2637</ele>
        <time>2017-10-15T09:58:39.000Z</time>
      </trkpt>
      <trkpt lat="42.38196" lon="2.10725">
        <ele>2637</ele>
        <time>2017-10-15T09:58:40.000Z</time>
      </trkpt>
      <trkpt lat="42.38196" lon="2.10727">
        <ele>2637</ele>
        <time>2017-10-15T09:58:41.000Z</time>
      </trkpt>
      <trkpt lat="42.38196" lon="2.10727">
        <ele>2637</ele>
        <time>2017-10-15T09:58:42.000Z</time>
      </trkpt>
      <trkpt lat="42.38196" lon="2.10728">
        <ele>2637</ele>
        <time>2017-10-15T09:58:43.000Z</time>
      </trkpt>
      <trkpt lat="42.38196" lon="2.10729">
        <ele>2637</ele>
        <time>2017-10-15T09:58:44.000Z</time>
      </trkpt>
      <trkpt lat="42.38196" lon="2.1073">
        <ele>2637</ele>
        <time>2017-10-15T09:58:45.000Z</time>
      </trkpt>
      <trkpt lat="42.38196" lon="2.10731">
        <ele>2637</ele>
        <time>2017-10-15T09:58:46.000Z</time>
      </trkpt>
      <trkpt lat="42.38196" lon="2.10732">
        <ele>2638</ele>
        <time>2017-10-15T09:58:47.000Z</time>
      </trkpt>
      <trkpt lat="42.38197" lon="2.10733">
        <ele>2638</ele>
        <time>2017-10-15T09:58:48.000Z</time>
      </trkpt>
      <trkpt lat="42.38197" lon="2.10733">
        <ele>2638</ele>
        <time>2017-10-15T09:58:49.000Z</time>
      </trkpt>
      <trkpt lat="42.38197" lon="2.10734">
        <ele>2638</ele>
        <time>2017-10-15T09:58:50.000Z</time>
      </trkpt>
      <trkpt lat="42.38197" lon="2.10734">
        <ele>2638</ele>
        <time>2017-10-15T09:58:51.000Z</time>
      </trkpt>
      <trkpt lat="42.38198" lon="2.10735">
        <ele>2638</ele>
        <time>2017-10-15T09:58:52.000Z</time>
      </trkpt>
      <trkpt lat="42.38198" lon="2.10735">
        <ele>2638</ele>
        <time>2017-10-15T09:58:53.000Z</time>
      </trkpt>
      <trkpt lat="42.38198" lon="2.10736">
        <ele>2638</ele>
        <time>2017-10-15T09:58:54.000Z</time>
      </trkpt>
      <trkpt lat="42.38198" lon="2.10736">
        <ele>2638</ele>
        <time>2017-10-15T09:58:55.000Z</time>
      </trkpt>
      <trkpt lat="42.38199" lon="2.10736">
        <ele>2638</ele>
        <time>2017-10-15T09:58:56.000Z</time>
      </trkpt>
      <trkpt lat="42.38199" lon="2.10737">
        <ele>2638</ele>
        <time>2017-10-15T09:58:57.000Z</time>
      </trkpt>
      <trkpt lat="42.382" lon="2.10738">
        <ele>2639</ele>
        <time>2017-10-15T09:58:58.000Z</time>
      </trkpt>
      <trkpt lat="42.382" lon="2.10738">
        <ele>2639</ele>
        <time>2017-10-15T09:59:00.000Z</time>
      </trkpt>
      <trkpt lat="42.382" lon="2.10739">
        <ele>2639</ele>
        <time>2017-10-15T09:59:01.000Z</time>
      </trkpt>
      <trkpt lat="42.382" lon="2.10739">
        <ele>2639</ele>
        <time>2017-10-15T09:59:02.000Z</time>
      </trkpt>
      <trkpt lat="42.382" lon="2.10741">
        <ele>2639</ele>
        <time>2017-10-15T09:59:03.000Z</time>
      </trkpt>
      <trkpt lat="42.382" lon="2.10742">
        <ele>2639</ele>
        <time>2017-10-15T09:59:05.000Z</time>
      </trkpt>
      <trkpt lat="42.382" lon="2.10743">
        <ele>2639</ele>
        <time>2017-10-15T09:59:07.000Z</time>
      </trkpt>
      <trkpt lat="42.382" lon="2.10743">
        <ele>2639</ele>
        <time>2017-10-15T09:59:08.000Z</time>
      </trkpt>
      <trkpt lat="42.382" lon="2.10744">
        <ele>2639</ele>
        <time>2017-10-15T09:59:09.000Z</time>
      </trkpt>
      <trkpt lat="42.382" lon="2.10745">
        <ele>2640</ele>
        <time>2017-10-15T09:59:10.000Z</time>
      </trkpt>
      <trkpt lat="42.38199" lon="2.10745">
        <ele>2640</ele>
        <time>2017-10-15T09:59:11.000Z</time>
      </trkpt>
      <trkpt lat="42.38199" lon="2.10746">
        <ele>2640</ele>
        <time>2017-10-15T09:59:12.000Z</time>
      </trkpt>
      <trkpt lat="42.38199" lon="2.10747">
        <ele>2640</ele>
        <time>2017-10-15T09:59:13.000Z</time>
      </trkpt>
      <trkpt lat="42.38199" lon="2.10747">
        <ele>2641</ele>
        <time>2017-10-15T09:59:14.000Z</time>
      </trkpt>
      <trkpt lat="42.38199" lon="2.10748">
        <ele>2641</ele>
        <time>2017-10-15T09:59:15.000Z</time>
      </trkpt>
      <trkpt lat="42.38198" lon="2.10749">
        <ele>2641</ele>
        <time>2017-10-15T09:59:16.000Z</time>
      </trkpt>
      <trkpt lat="42.38198" lon="2.1075">
        <ele>2641</ele>
        <time>2017-10-15T09:59:18.000Z</time>
      </trkpt>
      <trkpt lat="42.38197" lon="2.1075">
        <ele>2641</ele>
        <time>2017-10-15T09:59:19.000Z</time>
      </trkpt>
      <trkpt lat="42.38197" lon="2.10751">
        <ele>2642</ele>
        <time>2017-10-15T09:59:20.000Z</time>
      </trkpt>
      <trkpt lat="42.38197" lon="2.10751">
        <ele>2642</ele>
        <time>2017-10-15T09:59:21.000Z</time>
      </trkpt>
      <trkpt lat="42.38197" lon="2.10752">
        <ele>2642</ele>
        <time>2017-10-15T09:59:22.000Z</time>
      </trkpt>
      <trkpt lat="42.38197" lon="2.10753">
        <ele>2642</ele>
        <time>2017-10-15T09:59:23.000Z</time>
      </trkpt>
      <trkpt lat="42.38197" lon="2.10753">
        <ele>2642</ele>
        <time>2017-10-15T09:59:24.000Z</time>
      </trkpt>
      <trkpt lat="42.38197" lon="2.10754">
        <ele>2643</ele>
        <time>2017-10-15T09:59:26.000Z</time>
      </trkpt>
      <trkpt lat="42.38197" lon="2.10755">
        <ele>2643</ele>
        <time>2017-10-15T09:59:27.000Z</time>
      </trkpt>
      <trkpt lat="42.38197" lon="2.10755">
        <ele>2643</ele>
        <time>2017-10-15T09:59:28.000Z</time>
      </trkpt>
      <trkpt lat="42.38196" lon="2.10756">
        <ele>2643</ele>
        <time>2017-10-15T09:59:30.000Z</time>
      </trkpt>
      <trkpt lat="42.38196" lon="2.10756">
        <ele>2644</ele>
        <time>2017-10-15T09:59:31.000Z</time>
      </trkpt>
      <trkpt lat="42.38196" lon="2.10757">
        <ele>2644</ele>
        <time>2017-10-15T09:59:32.000Z</time>
      </trkpt>
      <trkpt lat="42.38196" lon="2.10757">
        <ele>2644</ele>
        <time>2017-10-15T09:59:33.000Z</time>
      </trkpt>
      <trkpt lat="42.38196" lon="2.10758">
        <ele>2644</ele>
        <time>2017-10-15T09:59:34.000Z</time>
      </trkpt>
      <trkpt lat="42.38195" lon="2.10759">
        <ele>2644</ele>
        <time>2017-10-15T09:59:35.000Z</time>
      </trkpt>
      <trkpt lat="42.38195" lon="2.1076">
        <ele>2645</ele>
        <time>2017-10-15T09:59:36.000Z</time>
      </trkpt>
      <trkpt lat="42.38195" lon="2.10761">
        <ele>2645</ele>
        <time>2017-10-15T09:59:37.000Z</time>
      </trkpt>
      <trkpt lat="42.38195" lon="2.10761">
        <ele>2645</ele>
        <time>2017-10-15T09:59:39.000Z</time>
      </trkpt>
      <trkpt lat="42.38195" lon="2.10761">
        <ele>2645</ele>
        <time>2017-10-15T09:59:40.000Z</time>
      </trkpt>
      <trkpt lat="42.38208" lon="2.1101">
        <ele>2727</ele>
        <time>2017-10-15T10:10:21.000Z</time>
      </trkpt>
      <trkpt lat="42.38208" lon="2.11011">
        <ele>2727</ele>
        <time>2017-10-15T10:10:22.000Z</time>
      </trkpt>
      <trkpt lat="42.38208" lon="2.11012">
        <ele>2727</ele>
        <time>2017-10-15T10:10:23.000Z</time>
      </trkpt>
      <trkpt lat="42.38209" lon="2.11012">
        <ele>2727</ele>
        <time>2017-10-15T10:10:24.000Z</time>
      </trkpt>
      <trkpt lat="42.38209" lon="2.11013">
        <ele>2727</ele>
        <time>2017-10-15T10:10:25.000Z</time>
      </trkpt>
      <trkpt lat="42.3821" lon="2.11014">
        <ele>2727</ele>
        <time>2017-10-15T10:10:26.000Z</time>
      </trkpt>
      <trkpt lat="42.3821" lon="2.11014">
        <ele>2727</ele>
        <time>2017-10-15T10:10:27.000Z</time>
      </trkpt>
      <trkpt lat="42.3821" lon="2.11015">
        <ele>2727</ele>
        <time>2017-10-15T10:10:28.000Z</time>
      </trkpt>
      <trkpt lat="42.3821" lon="2.11015">
        <ele>2727</ele>
        <time>2017-10-15T10:10:29.000Z</time>
      </trkpt>
      <trkpt lat="42.38211" lon="2.11016">
        <ele>2728</ele>
        <time>2017-10-15T10:10:30.000Z</time>
      </trkpt>
      <trkpt lat="42.38211" lon="2.11017">
        <ele>2728</ele>
        <time>2017-10-15T10:10:31.000Z</time>
      </trkpt>
      <trkpt lat="42.38212" lon="2.11017">
        <ele>2728</ele>
        <time>2017-10-15T10:10:32.000Z</time>
      </trkpt>
      <trkpt lat="42.38213" lon="2.11018">
        <ele>2728</ele>
        <time>2017-10-15T10:10:33.000Z</time>
      </trkpt>
      <trkpt lat="42.38213" lon="2.11018">
        <ele>2728</ele>
        <time>2017-10-15T10:10:34.000Z</time>
      </trkpt>
      <trkpt lat="42.38214" lon="2.11019">
        <ele>2728</ele>
        <time>2017-10-15T10:10:35.000Z</time>
      </trkpt>
      <trkpt lat="42.38214" lon="2.11019">
        <ele>2728</ele>
        <time>2017-10-15T10:10:36.000Z</time>
      </trkpt>
      <trkpt lat="42.38214" lon="2.1102">
        <ele>2728</ele>
        <time>2017-10-15T10:10:37.000Z</time>
      </trkpt>
      <trkpt lat="42.38215" lon="2.1102">
        <ele>2728</ele>
        <time>2017-10-15T10:10:38.000Z</time>
      </trkpt>
      <trkpt lat="42.38215" lon="2.11021">
        <ele>2728</ele>
        <time>2017-10-15T10:10:39.000Z</time>
      </trkpt>
      <trkpt lat="42.38215" lon="2.11021">
        <ele>2728</ele>
        <time>2017-10-15T10:10:40.000Z</time>
      </trkpt>
      <trkpt lat="42.38216" lon="2.11022">
        <ele>2728</ele>
        <time>2017-10-15T10:10:41.000Z</time>
      </trkpt>
      <trkpt lat="42.38216" lon="2.11022">
        <ele>2728</ele>
        <time>2017-10-15T10:10:42.000Z</time>
      </trkpt>
      <trkpt lat="42.38216" lon="2.11023">
        <ele>2729</ele>
        <time>2017-10-15T10:10:43.000Z</time>
      </trkpt>
      <trkpt lat="42.38216" lon="2.11023">
        <ele>2729</ele>
        <time>2017-10-15T10:10:44.000Z</time>
      </trkpt>
      <trkpt lat="42.38216" lon="2.11024">
        <ele>2729</ele>
        <time>2017-10-15T10:10:45.000Z</time>
      </trkpt>
      <trkpt lat="42.38217" lon="2.11025">
        <ele>2729</ele>
        <time>2017-10-15T10:10:46.000Z</time>
      </trkpt>
      <trkpt lat="42.38217" lon="2.11025">
        <ele>2729</ele>
        <time>2017-10-15T10:10:47.000Z</time>
      </trkpt>
      <trkpt lat="42.38217" lon="2.11026">
        <ele>2729</ele>
        <time>2017-10-15T10:10:48.000Z</time>
      </trkpt>
      <trkpt lat="42.38217" lon="2.11027">
        <ele>2729</ele>
        <time>2017-10-15T10:10:49.000Z</time>
      </trkpt>
      <trkpt lat="42.38217" lon="2.11027">
        <ele>2730</ele>
        <time>2017-10-15T10:10:50.000Z</time>
      </trkpt>
      <trkpt lat="42.38217" lon="2.11028">
        <ele>2730</ele>
        <time>2017-10-15T10:10:51.000Z</time>
      </trkpt>
      <trkpt lat="42.38217" lon="2.11029">
        <ele>2730</ele>
        <time>2017-10-15T10:10:52.000Z</time>
      </trkpt>
      <trkpt lat="42.38217" lon="2.1103">
        <ele>2730</ele>
        <time>2017-10-15T10:10:53.000Z</time>
      </trkpt>
      <trkpt lat="42.38217" lon="2.11031">
        <ele>2730</ele>
        <time>2017-10-15T10:10:54.000Z</time>
      </trkpt>
      <trkpt lat="42.38217" lon="2.11031">
        <ele>2731</ele>
        <time>2017-10-15T10:10:55.000Z</time>
      </trkpt>
      <trkpt lat="42.38218" lon="2.11032">
        <ele>2731</ele>
        <time>2017-10-15T10:10:56.000Z</time>
      </trkpt>
      <trkpt lat="42.38218" lon="2.11033">
        <ele>2731</ele>
        <time>2017-10-15T10:10:57.000Z</time>
      </trkpt>
      <trkpt lat="42.38218" lon="2.11033">
        <ele>2731</ele>
        <time>2017-10-15T10:10:58.000Z</time>
      </trkpt>
      <trkpt lat="42.38218" lon="2.11034">
        <ele>2731</ele>
        <time>2017-10-15T10:10:59.000Z</time>
      </trkpt>
      <trkpt lat="42.38218" lon="2.11034">
        <ele>2731</ele>
        <time>2017-10-15T10:11:00.000Z</time>
      </trkpt>
      <trkpt lat="42.38219" lon="2.11035">
        <ele>2731</ele>
        <time>2017-10-15T10:11:01.000Z</time>
      </trkpt>
      <trkpt lat="42.38219" lon="2.11036">
        <ele>2732</ele>
        <time>2017-10-15T10:11:02.000Z</time>
      </trkpt>
      <trkpt lat="42.38219" lon="2.11037">
        <ele>2732</ele>
        <time>2017-10-15T10:11:03.000Z</time>
      </trkpt>
      <trkpt lat="42.38219" lon="2.11038">
        <ele>2732</ele>
        <time>2017-10-15T10:11:04.000Z</time>
      </trkpt>
      <trkpt lat="42.38219" lon="2.11039">
        <ele>2732</ele>
        <time>2017-10-15T10:11:05.000Z</time>
      </trkpt>
      <trkpt lat="42.38219" lon="2.11039">
        <ele>2732</ele>
        <time>2017-10-15T10:11:06.000Z</time>
      </trkpt>
      <trkpt lat="42.38219" lon="2.1104">
        <ele>2733</ele>
        <time>2017-10-15T10:11:07.000Z</time>
      </trkpt>
      <trkpt lat="42.38219" lon="2.11041">
        <ele>2733</ele>
        <time>2017-10-15T10:11:08.000Z</time>
      </trkpt>
      <trkpt lat="42.38219" lon="2.11042">
        <ele>2733</ele>
        <time>2017-10-15T10:11:09.000Z</time>
      </trkpt>
      <trkpt lat="42.38219" lon="2.11043">
        <ele>2733</ele>
        <time>2017-10-15T10:11:10.000Z</time>
      </trkpt>
      <trkpt lat="42.38218" lon="2.11043">
        <ele>2733</ele>
        <time>2017-10-15T10:11:11.000Z</time>
      </trkpt>
      <trkpt lat="42.38218" lon="2.11044">
        <ele>2734</ele>
        <time>2017-10-15T10:11:12.000Z</time>
      </trkpt>
      <trkpt lat="42.38218" lon="2.11044">
        <ele>2734</ele>
        <time>2017-10-15T10:11:13.000Z</time>
      </trkpt>
      <trkpt lat="42.38218" lon="2.11045">
        <ele>2734</ele>
        <time>2017-10-15T10:11:14.000Z</time>
      </trkpt>
      <trkpt lat="42.38218" lon="2.11045">
        <ele>2734</ele>
        <time>2017-10-15T10:11:15.000Z</time>
      </trkpt>
      <trkpt lat="42.38218" lon="2.11046">
        <ele>2734</ele>
        <time>2017-10-15T10:11:16.000Z</time>
      </trkpt>
      <trkpt lat="42.38218" lon="2.11047">
        <ele>2734</ele>
        <time>2017-10-15T10:11:17.000Z</time>
      </trkpt>
      <trkpt lat="42.38219" lon="2.11048">
        <ele>2735</ele>
        <time>2017-10-15T10:11:18.000Z</time>
      </trkpt>
      <trkpt lat="42.38218" lon="2.11049">
        <ele>2735</ele>
        <time>2017-10-15T10:11:19.000Z</time>
      </trkpt>
      <trkpt lat="42.38218" lon="2.1105">
        <ele>2735</ele>
        <time>2017-10-15T10:11:20.000Z</time>
      </trkpt>
      <trkpt lat="42.38218" lon="2.1105">
        <ele>2736</ele>
        <time>2017-10-15T10:11:21.000Z</time>
      </trkpt>
      <trkpt lat="42.38218" lon="2.11051">
        <ele>2736</ele>
        <time>2017-10-15T10:11:22.000Z</time>
      </trkpt>
      <trkpt lat="42.38218" lon="2.11052">
        <ele>2736</ele>
        <time>2017-10-15T10:11:23.000Z</time>
      </trkpt>
      <trkpt lat="42.38218" lon="2.11053">
        <ele>2737</ele>
        <time>2017-10-15T10:11:24.000Z</time>
      </trkpt>
      <trkpt lat="42.38218" lon="2.11054">
        <ele>2737</ele>
        <time>2017-10-15T10:11:25.000Z</time>
      </trkpt>
      <trkpt lat="42.38218" lon="2.11054">
        <ele>2737</ele>
        <time>2017-10-15T10:11:26.000Z</time>
      </trkpt>
      <trkpt lat="42.38218" lon="2.11055">
        <ele>2738</ele>
        <time>2017-10-15T10:11:27.000Z</time>
      </trkpt>
      <trkpt lat="42.38218" lon="2.11056">
        <ele>2738</ele>
        <time>2017-10-15T10:11:28.000Z</time>
      </trkpt>
      <trkpt lat="42.38218" lon="2.11057">
        <ele>2738</ele>
        <time>2017-10-15T10:11:29.000Z</time>
      </trkpt>
      <trkpt lat="42.38218" lon="2.11057">
        <ele>2739</ele>
        <time>2017-10-15T10:11:30.000Z</time>
      </trkpt>
      <trkpt lat="42.38218" lon="2.11058">
        <ele>2739</ele>
        <time>2017-10-15T10:11:31.000Z</time>
      </trkpt>
      <trkpt lat="42.38218" lon="2.11058">
        <ele>2739</ele>
        <time>2017-10-15T10:11:32.000Z</time>
      </trkpt>
      <trkpt lat="42.38218" lon="2.11059">
        <ele>2739</ele>
        <time>2017-10-15T10:11:33.000Z</time>
      </trkpt>
      <trkpt lat="42.38218" lon="2.1106">
        <ele>2739</ele>
        <time>2017-10-15T10:11:34.000Z</time>
      </trkpt>
      <trkpt lat="42.38218" lon="2.1106">
        <ele>2740</ele>
        <time>2017-10-15T10:11:35.000Z</time>
      </trkpt>
      <trkpt lat="42.38219" lon="2.11061">
        <ele>2740</ele>
        <time>2017-10-15T10:11:36.000Z</time>
      </trkpt>
      <trkpt lat="42.38219" lon="2.11062">
        <ele>2740</ele>
        <time>2017-10-15T10:11:37.000Z</time>
      </trkpt>
      <trkpt lat="42.38219" lon="2.11063">
        <ele>2740</ele>
        <time>2017-10-15T10:11:38.000Z</time>
      </trkpt>
      <trkpt lat="42.38219" lon="2.11063">
        <ele>2741</ele>
        <time>2017-10-15T10:11:40.000Z</time>
      </trkpt>
      <trkpt lat="42.38219" lon="2.11064">
        <ele>2741</ele>
        <time>2017-10-15T10:11:41.000Z</time>
      </trkpt>
      <trkpt lat="42.38219" lon="2.11065">
        <ele>2741</ele>
        <time>2017-10-15T10:11:42.000Z</time>
      </trkpt>
      <trkpt lat="42.38248" lon="2.11564">
        <ele>2876</ele>
        <time>2017-10-15T10:34:55.000Z</time>
      </trkpt>
      <trkpt lat="42.38249" lon="2.11565">
        <ele>2876</ele>
        <time>2017-10-15T10:34:56.000Z</time>
      </trkpt>
      <trkpt lat="42.38249" lon="2.11566">
        <ele>2876</ele>
        <time>2017-10-15T10:34:57.000Z</time>
      </trkpt>
      <trkpt lat="42.38249" lon="2.11567">
        <ele>2876</ele>
        <time>2017-10-15T10:34:58.000Z</time>
      </trkpt>
      <trkpt lat="42.38249" lon="2.11568">
        <ele>2876</ele>
        <time>2017-10-15T10:34:59.000Z</time>
      </trkpt>
      <trkpt lat="42.38249" lon="2.11568">
        <ele>2877</ele>
        <time>2017-10-15T10:35:00.000Z</time>
      </trkpt>
      <trkpt lat="42.3825" lon="2.11569">
        <ele>2877</ele>
        <time>2017-10-15T10:35:01.000Z</time>
      </trkpt>
      <trkpt lat="42.3825" lon="2.1157">
        <ele>2877</ele>
        <time>2017-10-15T10:35:02.000Z</time>
      </trkpt>
      <trkpt lat="42.3825" lon="2.11572">
        <ele>2877</ele>
        <time>2017-10-15T10:35:03.000Z</time>
      </trkpt>
      <trkpt lat="42.3825" lon="2.11572">
        <ele>2877</ele>
        <time>2017-10-15T10:35:04.000Z</time>
      </trkpt>
      <trkpt lat="42.3825" lon="2.11573">
        <ele>2878</ele>
        <time>2017-10-15T10:35:05.000Z</time>
      </trkpt>
      <trkpt lat="42.3825" lon="2.11574">
        <ele>2878</ele>
        <time>2017-10-15T10:35:06.000Z</time>
      </trkpt>
      <trkpt lat="42.38251" lon="2.11574">
        <ele>2878</ele>
        <time>2017-10-15T10:35:07.000Z</time>
      </trkpt>
      <trkpt lat="42.38251" lon="2.11575">
        <ele>2878</ele>
        <time>2017-10-15T10:35:08.000Z</time>
      </trkpt>
      <trkpt lat="42.38252" lon="2.11575">
        <ele>2878</ele>
        <time>2017-10-15T10:35:09.000Z</time>
      </trkpt>
      <trkpt lat="42.38252" lon="2.11576">
        <ele>2878</ele>
        <time>2017-10-15T10:35:10.000Z</time>
      </trkpt>
      <trkpt lat="42.38253" lon="2.11577">
        <ele>2879</ele>
        <time>2017-10-15T10:35:11.000Z</time>
      </trkpt>
      <trkpt lat="42.38253" lon="2.11578">
        <ele>2879</ele>
        <time>2017-10-15T10:35:12.000Z</time>
      </trkpt>
      <trkpt lat="42.38254" lon="2.11578">
        <ele>2879</ele>
        <time>2017-10-15T10:35:13.000Z</time>
      </trkpt>
      <trkpt lat="42.38254" lon="2.11579">
        <ele>2879</ele>
        <time>2017-10-15T10:35:14.000Z</time>
      </trkpt>
      <trkpt lat="42.38255" lon="2.11579">
        <ele>2879</ele>
        <time>2017-10-15T10:35:15.000Z</time>
      </trkpt>
      <trkpt lat="42.38256" lon="2.1158">
        <ele>2879</ele>
        <time>2017-10-15T10:35:16.000Z</time>
      </trkpt>
      <trkpt lat="42.38256" lon="2.1158">
        <ele>2880</ele>
        <time>2017-10-15T10:35:17.000Z</time>
      </trkpt>
      <trkpt lat="42.38257" lon="2.11581">
        <ele>2880</ele>
        <time>2017-10-15T10:35:18.000Z</time>
      </trkpt>
      <trkpt lat="42.38257" lon="2.11581">
        <ele>2880</ele>
        <time>2017-10-15T10:35:19.000Z</time>
      </trkpt>
      <trkpt lat="42.38258" lon="2.11582">
        <ele>2880</ele>
        <time>2017-10-15T10:35:20.000Z</time>
      </trkpt>
      <trkpt lat="42.38259" lon="2.11583">
        <ele>2880</ele>
        <time>2017-10-15T10:35:21.000Z</time>
      </trkpt>
      <trkpt lat="42.38259" lon="2.11583">
        <ele>2880</ele>
        <time>2017-10-15T10:35:22.000Z</time>
      </trkpt>
      <trkpt lat="42.38259" lon="2.11584">
        <ele>2881</ele>
        <time>2017-10-15T10:35:23.000Z</time>
      </trkpt>
      <trkpt lat="42.3826" lon="2.11585">
        <ele>2881</ele>
        <time>2017-10-15T10:35:24.000Z</time>
      </trkpt>
      <trkpt lat="42.3826" lon="2.11586">
        <ele>2881</ele>
        <time>2017-10-15T10:35:25.000Z</time>
      </trkpt>
      <trkpt lat="42.3826" lon="2.11586">
        <ele>2881</ele>
        <time>2017-10-15T10:35:26.000Z</time>
      </trkpt>
      <trkpt lat="42.38261" lon="2.11587">
        <ele>2881</ele>
        <time>2017-10-15T10:35:27.000Z</time>
      </trkpt>
      <trkpt lat="42.38261" lon="2.11588">
        <ele>2881</ele>
        <time>2017-10-15T10:35:28.000Z</time>
      </trkpt>
      <trkpt lat="42.38261" lon="2.11588">
        <ele>2881</ele>
        <time>2017-10-15T10:35:29.000Z</time>
      </trkpt>
      <trkpt lat="42.38262" lon="2.11589">
        <ele>2882</ele>
        <time>2017-10-15T10:35:30.000Z</time>
      </trkpt>
      <trkpt lat="42.38262" lon="2.1159">
        <ele>2882</ele>
        <time>2017-10-15T10:35:31.000Z</time>
      </trkpt>
      <trkpt lat="42.38262" lon="2.11591">
        <ele>2882</ele>
        <time>2017-10-15T10:35:32.000Z</time>
      </trkpt>
      <trkpt lat="42.38262" lon="2.11592">
        <ele>2882</ele>
        <time>2017-10-15T10:35:33.000Z</time>
      </trkpt>
      <trkpt lat="42.38262" lon="2.11593">
        <ele>2882</ele>
        <time>2017-10-15T10:35:34.000Z</time>
      </trkpt>
      <trkpt lat="42.38262" lon="2.11594">
        <ele>2882</ele>
        <time>2017-10-15T10:35:35.000Z</time>
      </trkpt>
      <trkpt lat="42.38262" lon="2.11595">
        <ele>2882</ele>
        <time>2017-10-15T10:35:36.000Z</time>
      </trkpt>
      <trkpt lat="42.38262" lon="2.11596">
        <ele>2882</ele>
        <time>2017-10-15T10:35:37.000Z</time>
      </trkpt>
      <trkpt lat="42.38263" lon="2.11597">
        <ele>2882</ele>
        <time>2017-10-15T10:35:38.000Z</time>
      </trkpt>
      <trkpt lat="42.38263" lon="2.11598">
        <ele>2882</ele>
        <time>2017-10-15T10:35:39.000Z</time>
      </trkpt>
      <trkpt lat="42.38263" lon="2.11598">
        <ele>2882</ele>
        <time>2017-10-15T10:35:40.000Z</time>
      </trkpt>
      <trkpt lat="42.38264" lon="2.11599">
        <ele>2882</ele>
        <time>2017-10-15T10:35:41.000Z</time>
      </trkpt>
      <trkpt lat="42.38264" lon="2.11599">
        <ele>2883</ele>
        <time>2017-10-15T10:35:42.000Z</time>
      </trkpt>
      <trkpt lat="42.38265" lon="2.116">
        <ele>2883</ele>
        <time>2017-10-15T10:35:43.000Z</time>
      </trkpt>
      <trkpt lat="42.38265" lon="2.11601">
        <ele>2883</ele>
        <time>2017-10-15T10:35:44.000Z</time>
      </trkpt>
      <trkpt lat="42.38265" lon="2.11602">
        <ele>2883</ele>
        <time>2017-10-15T10:35:45.000Z</time>
      </trkpt>
      <trkpt lat="42.38265" lon="2.11603">
        <ele>2883</ele>
        <time>2017-10-15T10:35:46.000Z</time>
      </trkpt>
      <trkpt lat="42.38266" lon="2.11604">
        <ele>2883</ele>
        <time>2017-10-15T10:35:47.000Z</time>
      </trkpt>
      <trkpt lat="42.38266" lon="2.11604">
        <ele>2883</ele>
        <time>2017-10-15T10:35:48.000Z</time>
      </trkpt>
      <trkpt lat="42.38267" lon="2.11605">
        <ele>2883</ele>
        <time>2017-10-15T10:35:49.000Z</time>
      </trkpt>
      <trkpt lat="42.38267" lon="2.11606">
        <ele>2883</ele>
        <time>2017-10-15T10:35:50.000Z</time>
      </trkpt>
      <trkpt lat="42.38267" lon="2.11607">
        <ele>2883</ele>
        <time>2017-10-15T10:35:51.000Z</time>
      </trkpt>
      <trkpt lat="42.38267" lon="2.11608">
        <ele>2883</ele>
        <time>2017-10-15T10:35:52.000Z</time>
      </trkpt>
      <trkpt lat="42.38267" lon="2.11609">
        <ele>2883</ele>
        <time>2017-10-15T10:35:53.000Z</time>
      </trkpt>
      <trkpt lat="42.38267" lon="2.1161">
        <ele>2883</ele>
        <time>2017-10-15T10:35:54.000Z</time>
      </trkpt>
      <trkpt lat="42.38268" lon="2.1161">
        <ele>2884</ele>
        <time>2017-10-15T10:35:55.000Z</time>
      </trkpt>
      <trkpt lat="42.38268" lon="2.11611">
        <ele>2884</ele>
        <time>2017-10-15T10:35:56.000Z</time>
      </trkpt>
      <trkpt lat="42.38268" lon="2.11612">
        <ele>2884</ele>
        <time>2017-10-15T10:35:57.000Z</time>
      </trkpt>
      <trkpt lat="42.38269" lon="2.11612">
        <ele>2884</ele>
        <time>2017-10-15T10:35:58.000Z</time>
      </trkpt>
      <trkpt lat="42.38269" lon="2.11612">
        <ele>2884</ele>
        <time>2017-10-15T10:35:59.000Z</time>
      </trkpt>
      <trkpt lat="42.3827" lon="2.11613">
        <ele>2884</ele>
        <time>2017-10-15T10:36:00.000Z</time>
      </trkpt>
      <trkpt lat="42.3827" lon="2.11613">
        <ele>2884</ele>
        <time>2017-10-15T10:36:01.000Z</time>
      </trkpt>
      <trkpt lat="42.38271" lon="2.11614">
        <ele>2884</ele>
        <time>2017-10-15T10:36:02.000Z</time>
      </trkpt>
      <trkpt lat="42.38271" lon="2.11614">
        <ele>2885</ele>
        <time>2017-10-15T10:36:03.000Z</time>
      </trkpt>
      <trkpt lat="42.38272" lon="2.11614">
        <ele>2885</ele>
        <time>2017-10-15T10:36:04.000Z</time>
      </trkpt>
      <trkpt lat="42.38272" lon="2.11614">
        <ele>2885</ele>
        <time>2017-10-15T10:36:05.000Z</time>
      </trkpt>
      <trkpt lat="42.38273" lon="2.11614">
        <ele>2885</ele>
        <time>2017-10-15T10:36:06.000Z</time>
      </trkpt>
      <trkpt lat="42.38274" lon="2.11613">
        <ele>2885</ele>
        <time>2017-10-15T10:36:07.000Z</time>
      </trkpt>
      <trkpt lat="42.38274" lon="2.11614">
        <ele>2885</ele>
        <time>2017-10-15T10:36:08.000Z</time>
      </trkpt>
      <trkpt lat="42.38275" lon="2.11614">
        <ele>2886</ele>
        <time>2017-10-15T10:36:09.000Z</time>
      </trkpt>
      <trkpt lat="42.38276" lon="2.11614">
        <ele>2886</ele>
        <time>2017-10-15T10:36:10.000Z</time>
      </trkpt>
      <trkpt lat="42.38276" lon="2.11614">
        <ele>2886</ele>
        <time>2017-10-15T10:36:11.000Z</time>
      </trkpt>
      <trkpt lat="42.38277" lon="2.11615">
        <ele>2886</ele>
        <time>2017-10-15T10:36:12.000Z</time>
      </trkpt>
      <trkpt lat="42.38277" lon="2.11615">
        <ele>2886</ele>
        <time>2017-10-15T10:36:13.000Z</time>
      </trkpt>
      <trkpt lat="42.38278" lon="2.11616">
        <ele>2886</ele>
        <time>2017-10-15T10:36:14.000Z</time>
      </trkpt>
      <trkpt lat="42.38278" lon="2.11617">
        <ele>2886</ele>
        <time>2017-10-15T10:36:15.000Z</time>
      </trkpt>
      <trkpt lat="42.38278" lon="2.11618">
        <ele>2887</ele>
        <time>2017-10-15T10:36:16.000Z</time>
      </trkpt>
      <trkpt lat="42.38279" lon="2.11618">
        <ele>2887</ele>
        <time>2017-10-15T10:36:17.000Z</time>
      </trkpt>
      <trkpt lat="42.38279" lon="2.11619">
        <ele>2887</ele>
        <time>2017-10-15T10:36:18.000Z</time>
      </trkpt>
      <trkpt lat="42.3828" lon="2.11619">
        <ele>2887</ele>
        <time>2017-10-15T10:36:19.000Z</time>
      </trkpt>
      <trkpt lat="42.3828" lon="2.1162">
        <ele>2887</ele>
        <time>2017-10-15T10:36:20.000Z</time>
      </trkpt>
      <trkpt lat="42.38281" lon="2.1162">
        <ele>2887</ele>
        <time>2017-10-15T10:36:21.000Z</time>
      </trkpt>
      <trkpt lat="42.38282" lon="2.1162">
        <ele>2887</ele>
        <time>2017-10-15T10:36:22.000Z</time>
      </trkpt>
      <trkpt lat="42.38282" lon="2.1162">
        <ele>2888</ele>
        <time>2017-10-15T10:36:23.000Z</time>
      </trkpt>
      <trkpt lat="42.38283" lon="2.1162">
        <ele>2888</ele>
        <time>2017-10-15T10:36:24.000Z</time>
      </trkpt>
      <trkpt lat="42.38284" lon="2.11621">
        <ele>2888</ele>
        <time>2017-10-15T10:36:25.000Z</time>
      </trkpt>
      <trkpt lat="42.38284" lon="2.11621">
        <ele>2888</ele>
        <time>2017-10-15T10:36:26.000Z</time>
      </trkpt>
      <trkpt lat="42.38284" lon="2.11622">
        <ele>2888</ele>
        <time>2017-10-15T10:36:27.000Z</time>
      </trkpt>
      <trkpt lat="42.38285" lon="2.11622">
        <ele>2888</ele>
        <time>2017-10-15T10:36:28.000Z</time>
      </trkpt>
      <trkpt lat="42.38286" lon="2.11623">
        <ele>2888</ele>
        <time>2017-10-15T10:36:29.000Z</time>
      </trkpt>
      <trkpt lat="42.38286" lon="2.11623">
        <ele>2889</ele>
        <time>2017-10-15T10:36:30.000Z</time>
      </trkpt>
      <trkpt lat="42.38287" lon="2.11623">
        <ele>2889</ele>
        <time>2017-10-15T10:36:31.000Z</time>
      </trkpt>
      <trkpt lat="42.38287" lon="2.11623">
        <ele>2889</ele>
        <time>2017-10-15T10:36:32.000Z</time>
      </trkpt>
      <trkpt lat="42.38288" lon="2.11623">
        <ele>2889</ele>
        <time>2017-10-15T10:36:33.000Z</time>
      </trkpt>
      <trkpt lat="42.38288" lon="2.11623">
        <ele>2889</ele>
        <time>2017-10-15T10:36:34.000Z</time>
      </trkpt>
      <trkpt lat="42.3829" lon="2.11623">
        <ele>2890</ele>
        <time>2017-10-15T10:36:35.000Z</time>
      </trkpt>
      <trkpt lat="42.3829" lon="2.11623">
        <ele>2890</ele>
        <time>2017-10-15T10:36:37.000Z</time>
      </trkpt>
      <trkpt lat="42.38291" lon="2.11624">
        <ele>2890</ele>
        <time>2017-10-15T10:36:38.000Z</time>
      </trkpt>
      <trkpt lat="42.38292" lon="2.11623">
        <ele>2890</ele>
        <time>2017-10-15T10:36:39.000Z</time>
      </trkpt>
      <trkpt lat="42.38292" lon="2.11624">
        <ele>2890</ele>
        <time>2017-10-15T10:36:40.000Z</time>
      </trkpt>
      <trkpt lat="42.38293" lon="2.11624">
        <ele>2890</ele>
        <time>2017-10-15T10:36:41.000Z</time>
      </trkpt>
      <trkpt lat="42.38293" lon="2.11625">
        <ele>2890</ele>
        <time>2017-10-15T10:36:42.000Z</time>
      </trkpt>
      <trkpt lat="42.38294" lon="2.11625">
        <ele>2891</ele>
        <time>2017-10-15T10:36:43.000Z</time>
      </trkpt>
      <trkpt lat="42.38294" lon="2.11625">
        <ele>2891</ele>
        <time>2017-10-15T10:36:44.000Z</time>
      </trkpt>
      <trkpt lat="42.38295" lon="2.11624">
        <ele>2891</ele>
        <time>2017-10-15T10:36:45.000Z</time>
      </trkpt>
      <trkpt lat="42.38295" lon="2.11624">
        <ele>2891</ele>
        <time>2017-10-15T10:36:46.000Z</time>
      </trkpt>
      <trkpt lat="42.38296" lon="2.11625">
        <ele>2891</ele>
        <time>2017-10-15T10:36:47.000Z</time>
      </trkpt>
      <trkpt lat="42.38296" lon="2.11625">
        <ele>2891</ele>
        <time>2017-10-15T10:36:48.000Z</time>
      </trkpt>
      <trkpt lat="42.38297" lon="2.11625">
        <ele>2891</ele>
        <time>2017-10-15T10:36:49.000Z</time>
      </trkpt>
      <trkpt lat="42.38298" lon="2.11625">
        <ele>2892</ele>
        <time>2017-10-15T10:36:50.000Z</time>
      </trkpt>
      <trkpt lat="42.38298" lon="2.11626">
        <ele>2892</ele>
        <time>2017-10-15T10:36:51.000Z</time>
      </trkpt>
      <trkpt lat="42.38298" lon="2.11626">
        <ele>2892</ele>
        <time>2017-10-15T10:36:52.000Z</time>
      </trkpt>
      <trkpt lat="42.38299" lon="2.11627">
        <ele>2892</ele>
        <time>2017-10-15T10:36:53.000Z</time>
      </trkpt>
      <trkpt lat="42.38299" lon="2.11627">
        <ele>2892</ele>
        <time>2017-10-15T10:36:54.000Z</time>
      </trkpt>
      <trkpt lat="42.383" lon="2.11627">
        <ele>2892</ele>
        <time>2017-10-15T10:36:55.000Z</time>
      </trkpt>
      <trkpt lat="42.383" lon="2.11627">
        <ele>2892</ele>
        <time>2017-10-15T10:36:56.000Z</time>
      </trkpt>
      <trkpt lat="42.38301" lon="2.11628">
        <ele>2892</ele>
        <time>2017-10-15T10:36:57.000Z</time>
      </trkpt>
      <trkpt lat="42.38301" lon="2.11628">
        <ele>2892</ele>
        <time>2017-10-15T10:36:58.000Z</time>
      </trkpt>
      <trkpt lat="42.38302" lon="2.11629">
        <ele>2893</ele>
        <time>2017-10-15T10:36:59.000Z</time>
      </trkpt>
      <trkpt lat="42.38302" lon="2.11629">
        <ele>2893</ele>
        <time>2017-10-15T10:37:00.000Z</time>
      </trkpt>
      <trkpt lat="42.38302" lon="2.1163">
        <ele>2893</ele>
        <time>2017-10-15T10:37:01.000Z</time>
      </trkpt>
      <trkpt lat="42.38302" lon="2.11631">
        <ele>2893</ele>
        <time>2017-10-15T10:37:02.000Z</time>
      </trkpt>
      <trkpt lat="42.38303" lon="2.11632">
        <ele>2893</ele>
        <time>2017-10-15T10:37:03.000Z</time>
      </trkpt>
      <trkpt lat="42.38303" lon="2.11633">
        <ele>2893</ele>
        <time>2017-10-15T10:37:04.000Z</time>
      </trkpt>
      <trkpt lat="42.38302" lon="2.11633">
        <ele>2893</ele>
        <time>2017-10-15T10:37:05.000Z</time>
      </trkpt>
      <trkpt lat="42.38302" lon="2.11634">
        <ele>2893</ele>
        <time>2017-10-15T10:37:06.000Z</time>
      </trkpt>
      <trkpt lat="42.38303" lon="2.11635">
        <ele>2893</ele>
        <time>2017-10-15T10:37:07.000Z</time>
      </trkpt>
      <trkpt lat="42.38303" lon="2.11636">
        <ele>2893</ele>
        <time>2017-10-15T10:37:08.000Z</time>
      </trkpt>
      <trkpt lat="42.38303" lon="2.11636">
        <ele>2893</ele>
        <time>2017-10-15T10:37:09.000Z</time>
      </trkpt>
      <trkpt lat="42.38303" lon="2.11637">
        <ele>2893</ele>
        <time>2017-10-15T10:37:10.000Z</time>
      </trkpt>
      <trkpt lat="42.38303" lon="2.11637">
        <ele>2893</ele>
        <time>2017-10-15T10:37:11.000Z</time>
      </trkpt>
      <trkpt lat="42.38304" lon="2.11638">
        <ele>2894</ele>
        <time>2017-10-15T10:37:12.000Z</time>
      </trkpt>
      <trkpt lat="42.38304" lon="2.11638">
        <ele>2894</ele>
        <time>2017-10-15T10:37:13.000Z</time>
      </trkpt>
      <trkpt lat="42.38305" lon="2.11638">
        <ele>2894</ele>
        <time>2017-10-15T10:37:14.000Z</time>
      </trkpt>
      <trkpt lat="42.38306" lon="2.11638">
        <ele>2894</ele>
        <time>2017-10-15T10:37:15.000Z</time>
      </trkpt>
      <trkpt lat="42.38306" lon="2.11638">
        <ele>2894</ele>
        <time>2017-10-15T10:37:16.000Z</time>
      </trkpt>
      <trkpt lat="42.38306" lon="2.11639">
        <ele>2894</ele>
        <time>2017-10-15T10:37:17.000Z</time>
      </trkpt>
      <trkpt lat="42.38307" lon="2.11639">
        <ele>2894</ele>
        <time>2017-10-15T10:37:18.000Z</time>
      </trkpt>
      <trkpt lat="42.38307" lon="2.1164">
        <ele>2894</ele>
        <time>2017-10-15T10:37:19.000Z</time>
      </trkpt>
      <trkpt lat="42.38307" lon="2.1164">
        <ele>2894</ele>
        <time>2017-10-15T10:37:20.000Z</time>
      </trkpt>
      <trkpt lat="42.38307" lon="2.11641">
        <ele>2894</ele>
        <time>2017-10-15T10:37:21.000Z</time>
      </trkpt>
      <trkpt lat="42.38307" lon="2.11642">
        <ele>2894</ele>
        <time>2017-10-15T10:37:22.000Z</time>
      </trkpt>
      <trkpt lat="42.38308" lon="2.11642">
        <ele>2895</ele>
        <time>2017-10-15T10:37:23.000Z</time>
      </trkpt>
      <trkpt lat="42.38308" lon="2.11643">
        <ele>2895</ele>
        <time>2017-10-15T10:37:24.000Z</time>
      </trkpt>
      <trkpt lat="42.38308" lon="2.11643">
        <ele>2895</ele>
        <time>2017-10-15T10:37:25.000Z</time>
      </trkpt>
      <trkpt lat="42.38308" lon="2.11644">
        <ele>2895</ele>
        <time>2017-10-15T10:37:26.000Z</time>
      </trkpt>
      <trkpt lat="42.38308" lon="2.11645">
        <ele>2895</ele>
        <time>2017-10-15T10:37:27.000Z</time>
      </trkpt>
      <trkpt lat="42.38309" lon="2.11645">
        <ele>2895</ele>
        <time>2017-10-15T10:37:28.000Z</time>
      </trkpt>
      <trkpt lat="42.38309" lon="2.11646">
        <ele>2895</ele>
        <time>2017-10-15T10:37:29.000Z</time>
      </trkpt>
      <trkpt lat="42.38309" lon="2.11646">
        <ele>2895</ele>
        <time>2017-10-15T10:37:30.000Z</time>
      </trkpt>
      <trkpt lat="42.3831" lon="2.11646">
        <ele>2895</ele>
        <time>2017-10-15T10:37:31.000Z</time>
      </trkpt>
      <trkpt lat="42.3831" lon="2.11647">
        <ele>2895</ele>
        <time>2017-10-15T10:37:32.000Z</time>
      </trkpt>
      <trkpt lat="42.38311" lon="2.11647">
        <ele>2895</ele>
        <time>2017-10-15T10:37:33.000Z</time>
      </trkpt>
      <trkpt lat="42.38312" lon="2.11647">
        <ele>2896</ele>
        <time>2017-10-15T10:37:34.000Z</time>
      </trkpt>
      <trkpt lat="42.38312" lon="2.11648">
        <ele>2896</ele>
        <time>2017-10-15T10:37:35.000Z</time>
      </trkpt>
      <trkpt lat="42.38313" lon="2.11648">
        <ele>2896</ele>
        <time>2017-10-15T10:37:36.000Z</time>
      </trkpt>
      <trkpt lat="42.38314" lon="2.11648">
        <ele>2896</ele>
        <time>2017-10-15T10:37:37.000Z</time>
      </trkpt>
      <trkpt lat="42.38314" lon="2.11648">
        <ele>2896</ele>
        <time>2017-10-15T10:37:38.000Z</time>
      </trkpt>
      <trkpt lat="42.38316" lon="2.11649">
        <ele>2897</ele>
        <time>2017-10-15T10:37:39.000Z</time>
      </trkpt>
      <trkpt lat="42.38317" lon="2.11649">
        <ele>2897</ele>
        <time>2017-10-15T10:37:40.000Z</time>
      </trkpt>
      <trkpt lat="42.38317" lon="2.11649">
        <ele>2897</ele>
        <time>2017-10-15T10:37:41.000Z</time>
      </trkpt>
      <trkpt lat="42.38318" lon="2.1165">
        <ele>2897</ele>
        <time>2017-10-15T10:37:42.000Z</time>
      </trkpt>
      <trkpt lat="42.38318" lon="2.1165">
        <ele>2897</ele>
        <time>2017-10-15T10:37:43.000Z</time>
      </trkpt>
      <trkpt lat="42.38319" lon="2.11651">
        <ele>2898</ele>
        <time>2017-10-15T10:37:44.000Z</time>
      </trkpt>
      <trkpt lat="42.38319" lon="2.11651">
        <ele>2898</ele>
        <time>2017-10-15T10:37:45.000Z</time>
      </trkpt>
      <trkpt lat="42.3832" lon="2.11652">
        <ele>2898</ele>
        <time>2017-10-15T10:37:46.000Z</time>
      </trkpt>
      <trkpt lat="42.38321" lon="2.11652">
        <ele>2898</ele>
        <time>2017-10-15T10:37:47.000Z</time>
      </trkpt>
      <trkpt lat="42.38321" lon="2.11652">
        <ele>2898</ele>
        <time>2017-10-15T10:37:48.000Z</time>
      </trkpt>
      <trkpt lat="42.38322" lon="2.11653">
        <ele>2898</ele>
        <time>2017-10-15T10:37:49.000Z</time>
      </trkpt>
      <trkpt lat="42.38322" lon="2.11654">
        <ele>2898</ele>
        <time>2017-10-15T10:37:50.000Z</time>
      </trkpt>
      <trkpt lat="42.38322" lon="2.11655">
        <ele>2898</ele>
        <time>2017-10-15T10:37:51.000Z</time>
      </trkpt>
      <trkpt lat="42.38322" lon="2.11656">
        <ele>2898</ele>
        <time>2017-10-15T10:37:52.000Z</time>
      </trkpt>
      <trkpt lat="42.38322" lon="2.11657">
        <ele>2898</ele>
        <time>2017-10-15T10:37:53.000Z</time>
      </trkpt>
      <trkpt lat="42.38322" lon="2.11658">
        <ele>2898</ele>
        <time>2017-10-15T10:37:54.000Z</time>
      </trkpt>
      <trkpt lat="42.38322" lon="2.11659">
        <ele>2898</ele>
        <time>2017-10-15T10:37:55.000Z</time>
      </trkpt>
      <trkpt lat="42.38322" lon="2.1166">
        <ele>2898</ele>
        <time>2017-10-15T10:37:56.000Z</time>
      </trkpt>
      <trkpt lat="42.38322" lon="2.11661">
        <ele>2898</ele>
        <time>2017-10-15T10:37:57.000Z</time>
      </trkpt>
      <trkpt lat="42.38322" lon="2.11662">
        <ele>2898</ele>
        <time>2017-10-15T10:37:58.000Z</time>
      </trkpt>
      <trkpt lat="42.38321" lon="2.11663">
        <ele>2898</ele>
        <time>2017-10-15T10:37:59.000Z</time>
      </trkpt>
      <trkpt lat="42.38321" lon="2.11663">
        <ele>2898</ele>
        <time>2017-10-15T10:38:00.000Z</time>
      </trkpt>
      <trkpt lat="42.38321" lon="2.11664">
        <ele>2898</ele>
        <time>2017-10-15T10:38:01.000Z</time>
      </trkpt>
      <trkpt lat="42.38321" lon="2.11665">
        <ele>2898</ele>
        <time>2017-10-15T10:38:02.000Z</time>
      </trkpt>
      <trkpt lat="42.38321" lon="2.11666">
        <ele>2898</ele>
        <time>2017-10-15T10:38:03.000Z</time>
      </trkpt>
      <trkpt lat="42.3832" lon="2.11667">
        <ele>2898</ele>
        <time>2017-10-15T10:38:04.000Z</time>
      </trkpt>
      <trkpt lat="42.3832" lon="2.11668">
        <ele>2898</ele>
        <time>2017-10-15T10:38:05.000Z</time>
      </trkpt>
      <trkpt lat="42.3832" lon="2.11668">
        <ele>2898</ele>
        <time>2017-10-15T10:38:06.000Z</time>
      </trkpt>
      <trkpt lat="42.3832" lon="2.11669">
        <ele>2898</ele>
        <time>2017-10-15T10:38:07.000Z</time>
      </trkpt>
      <trkpt lat="42.3832" lon="2.1167">
        <ele>2898</ele>
        <time>2017-10-15T10:38:08.000Z</time>
      </trkpt>
      <trkpt lat="42.3832" lon="2.11671">
        <ele>2898</ele>
        <time>2017-10-15T10:38:09.000Z</time>
      </trkpt>
      <trkpt lat="42.3832" lon="2.11672">
        <ele>2897</ele>
        <time>2017-10-15T10:38:10.000Z</time>
      </trkpt>
      <trkpt lat="42.3832" lon="2.11672">
        <ele>2898</ele>
        <time>2017-10-15T10:38:11.000Z</time>
      </trkpt>
      <trkpt lat="42.38321" lon="2.11673">
        <ele>2898</ele>
        <time>2017-10-15T10:38:12.000Z</time>
      </trkpt>
      <trkpt lat="42.38321" lon="2.11673">
        <ele>2897</ele>
        <time>2017-10-15T10:38:13.000Z</time>
      </trkpt>
      <trkpt lat="42.38321" lon="2.11674">
        <ele>2897</ele>
        <time>2017-10-15T10:38:14.000Z</time>
      </trkpt>
      <trkpt lat="42.38355" lon="2.11697">
        <ele>2897</ele>
        <time>2017-10-15T10:44:04.000Z</time>
      </trkpt>
      <trkpt lat="42.38356" lon="2.11697">
        <ele>2897</ele>
        <time>2017-10-15T10:44:05.000Z</time>
      </trkpt>
      <trkpt lat="42.38357" lon="2.11696">
        <ele>2897</ele>
        <time>2017-10-15T10:44:06.000Z</time>
      </trkpt>
      <trkpt lat="42.38358" lon="2.11696">
        <ele>2896</ele>
        <time>2017-10-15T10:44:07.000Z</time>
      </trkpt>
      <trkpt lat="42.38359" lon="2.11696">
        <ele>2896</ele>
        <time>2017-10-15T10:44:08.000Z</time>
      </trkpt>
      <trkpt lat="42.38359" lon="2.11696">
        <ele>2896</ele>
        <time>2017-10-15T10:44:09.000Z</time>
      </trkpt>
      <trkpt lat="42.3836" lon="2.11696">
        <ele>2896</ele>
        <time>2017-10-15T10:44:10.000Z</time>
      </trkpt>
      <trkpt lat="42.38361" lon="2.11696">
        <ele>2896</ele>
        <time>2017-10-15T10:44:11.000Z</time>
      </trkpt>
      <trkpt lat="42.38361" lon="2.11695">
        <ele>2896</ele>
        <time>2017-10-15T10:44:12.000Z</time>
      </trkpt>
      <trkpt lat="42.38362" lon="2.11695">
        <ele>2896</ele>
        <time>2017-10-15T10:44:13.000Z</time>
      </trkpt>
      <trkpt lat="42.38362" lon="2.11696">
        <ele>2896</ele>
        <time>2017-10-15T10:44:14.000Z</time>
      </trkpt>
      <trkpt lat="42.38363" lon="2.11695">
        <ele>2896</ele>
        <time>2017-10-15T10:44:15.000Z</time>
      </trkpt>
      <trkpt lat="42.38364" lon="2.11695">
        <ele>2896</ele>
        <time>2017-10-15T10:44:16.000Z</time>
      </trkpt>
      <trkpt lat="42.38364" lon="2.11695">
        <ele>2896</ele>
        <time>2017-10-15T10:44:17.000Z</time>
      </trkpt>
      <trkpt lat="42.38365" lon="2.11695">
        <ele>2896</ele>
        <time>2017-10-15T10:44:18.000Z</time>
      </trkpt>
      <trkpt lat="42.38365" lon="2.11695">
        <ele>2896</ele>
        <time>2017-10-15T10:44:20.000Z</time>
      </trkpt>
      <trkpt lat="42.38366" lon="2.11695">
        <ele>2896</ele>
        <time>2017-10-15T10:44:21.000Z</time>
      </trkpt>
      <trkpt lat="42.38366" lon="2.11695">
        <ele>2896</ele>
        <time>2017-10-15T10:44:22.000Z</time>
      </trkpt>
      <trkpt lat="42.38367" lon="2.11695">
        <ele>2895</ele>
        <time>2017-10-15T10:44:23.000Z</time>
      </trkpt>
      <trkpt lat="42.38368" lon="2.11695">
        <ele>2895</ele>
        <time>2017-10-15T10:44:24.000Z</time>
      </trkpt>
      <trkpt lat="42.38368" lon="2.11695">
        <ele>2895</ele>
        <time>2017-10-15T10:44:25.000Z</time>
      </trkpt>
      <trkpt lat="42.38369" lon="2.11695">
        <ele>2895</ele>
        <time>2017-10-15T10:44:26.000Z</time>
      </trkpt>
      <trkpt lat="42.38369" lon="2.11695">
        <ele>2895</ele>
        <time>2017-10-15T10:44:27.000Z</time>
      </trkpt>
      <trkpt lat="42.3837" lon="2.11695">
        <ele>2895</ele>
        <time>2017-10-15T10:44:28.000Z</time>
      </trkpt>
      <trkpt lat="42.3837" lon="2.11696">
        <ele>2895</ele>
        <time>2017-10-15T10:44:29.000Z</time>
      </trkpt>
      <trkpt lat="42.38371" lon="2.11696">
        <ele>2895</ele>
        <time>2017-10-15T10:44:30.000Z</time>
      </trkpt>
      <trkpt lat="42.38371" lon="2.11696">
        <ele>2895</ele>
        <time>2017-10-15T10:44:31.000Z</time>
      </trkpt>
      <trkpt lat="42.38372" lon="2.11697">
        <ele>2895</ele>
        <time>2017-10-15T10:44:32.000Z</time>
      </trkpt>
      <trkpt lat="42.38373" lon="2.11697">
        <ele>2894</ele>
        <time>2017-10-15T10:44:33.000Z</time>
      </trkpt>
      <trkpt lat="42.38373" lon="2.11698">
        <ele>2894</ele>
        <time>2017-10-15T10:44:34.000Z</time>
      </trkpt>
      <trkpt lat="42.38374" lon="2.11698">
        <ele>2894</ele>
        <time>2017-10-15T10:44:35.000Z</time>
      </trkpt>
      <trkpt lat="42.38374" lon="2.11698">
        <ele>2894</ele>
        <time>2017-10-15T10:44:36.000Z</time>
      </trkpt>
      <trkpt lat="42.38375" lon="2.11699">
        <ele>2894</ele>
        <time>2017-10-15T10:44:37.000Z</time>
      </trkpt>
      <trkpt lat="42.38376" lon="2.11699">
        <ele>2894</ele>
        <time>2017-10-15T10:44:38.000Z</time>
      </trkpt>
      <trkpt lat="42.38377" lon="2.117">
        <ele>2894</ele>
        <time>2017-10-15T10:44:39.000Z</time>
      </trkpt>
      <trkpt lat="42.38377" lon="2.117">
        <ele>2894</ele>
        <time>2017-10-15T10:44:40.000Z</time>
      </trkpt>
      <trkpt lat="42.38378" lon="2.117">
        <ele>2894</ele>
        <time>2017-10-15T10:44:42.000Z</time>
      </trkpt>
      <trkpt lat="42.38379" lon="2.11701">
        <ele>2893</ele>
        <time>2017-10-15T10:44:43.000Z</time>
      </trkpt>
      <trkpt lat="42.38379" lon="2.11701">
        <ele>2893</ele>
        <time>2017-10-15T10:44:44.000Z</time>
      </trkpt>
      <trkpt lat="42.3838" lon="2.11701">
        <ele>2893</ele>
        <time>2017-10-15T10:44:45.000Z</time>
      </trkpt>
      <trkpt lat="42.3838" lon="2.11701">
        <ele>2893</ele>
        <time>2017-10-15T10:44:47.000Z</time>
      </trkpt>
      <trkpt lat="42.38381" lon="2.11701">
        <ele>2893</ele>
        <time>2017-10-15T10:44:48.000Z</time>
      </trkpt>
      <trkpt lat="42.38381" lon="2.11701">
        <ele>2893</ele>
        <time>2017-10-15T10:44:49.000Z</time>
      </trkpt>
      <trkpt lat="42.38382" lon="2.11701">
        <ele>2893</ele>
        <time>2017-10-15T10:44:50.000Z</time>
      </trkpt>
      <trkpt lat="42.38383" lon="2.117">
        <ele>2893</ele>
        <time>2017-10-15T10:44:51.000Z</time>
      </trkpt>
      <trkpt lat="42.38383" lon="2.11701">
        <ele>2893</ele>
        <time>2017-10-15T10:44:52.000Z</time>
      </trkpt>
      <trkpt lat="42.38384" lon="2.11701">
        <ele>2893</ele>
        <time>2017-10-15T10:44:53.000Z</time>
      </trkpt>
      <trkpt lat="42.38384" lon="2.11702">
        <ele>2893</ele>
        <time>2017-10-15T10:44:54.000Z</time>
      </trkpt>
      <trkpt lat="42.38384" lon="2.11703">
        <ele>2892</ele>
        <time>2017-10-15T10:44:55.000Z</time>
      </trkpt>
      <trkpt lat="42.38385" lon="2.11704">
        <ele>2892</ele>
        <time>2017-10-15T10:44:56.000Z</time>
      </trkpt>
      <trkpt lat="42.38385" lon="2.11704">
        <ele>2892</ele>
        <time>2017-10-15T10:44:57.000Z</time>
      </trkpt>
      <trkpt lat="42.38385" lon="2.11706">
        <ele>2892</ele>
        <time>2017-10-15T10:44:58.000Z</time>
      </trkpt>
      <trkpt lat="42.38386" lon="2.11706">
        <ele>2892</ele>
        <time>2017-10-15T10:45:00.000Z</time>
      </trkpt>
      <trkpt lat="42.38386" lon="2.11706">
        <ele>2892</ele>
        <time>2017-10-15T10:45:01.000Z</time>
      </trkpt>
      <trkpt lat="42.38396" lon="2.11705">
        <ele>2890</ele>
        <time>2017-10-15T10:52:47.000Z</time>
      </trkpt>
      <trkpt lat="42.38397" lon="2.11705">
        <ele>2890</ele>
        <time>2017-10-15T10:52:48.000Z</time>
      </trkpt>
      <trkpt lat="42.38397" lon="2.11705">
        <ele>2890</ele>
        <time>2017-10-15T10:52:49.000Z</time>
      </trkpt>
      <trkpt lat="42.38397" lon="2.11704">
        <ele>2890</ele>
        <time>2017-10-15T10:52:50.000Z</time>
      </trkpt>
      <trkpt lat="42.38392" lon="2.11707">
        <ele>2891</ele>
        <time>2017-10-15T10:53:15.000Z</time>
      </trkpt>
      <trkpt lat="42.38392" lon="2.11707">
        <ele>2891</ele>
        <time>2017-10-15T10:53:16.000Z</time>
      </trkpt>
      <trkpt lat="42.38392" lon="2.11707">
        <ele>2891</ele>
        <time>2017-10-15T10:53:17.000Z</time>
      </trkpt>
      <trkpt lat="42.38381" lon="2.11705">
        <ele>2893</ele>
        <time>2017-10-15T10:54:58.000Z</time>
      </trkpt>
      <trkpt lat="42.38382" lon="2.11705">
        <ele>2893</ele>
        <time>2017-10-15T10:54:59.000Z</time>
      </trkpt>
      <trkpt lat="42.38384" lon="2.11705">
        <ele>2893</ele>
        <time>2017-10-15T10:55:00.000Z</time>
      </trkpt>
      <trkpt lat="42.38385" lon="2.11705">
        <ele>2893</ele>
        <time>2017-10-15T10:55:01.000Z</time>
      </trkpt>
      <trkpt lat="42.38385" lon="2.11706">
        <ele>2892</ele>
        <time>2017-10-15T10:55:02.000Z</time>
      </trkpt>
      <trkpt lat="42.38386" lon="2.11705">
        <ele>2892</ele>
        <time>2017-10-15T10:55:03.000Z</time>
      </trkpt>
      <trkpt lat="42.38386" lon="2.11705">
        <ele>2892</ele>
        <time>2017-10-15T10:55:04.000Z</time>
      </trkpt>
      <trkpt lat="42.38387" lon="2.11704">
        <ele>2892</ele>
        <time>2017-10-15T10:55:05.000Z</time>
      </trkpt>
      <trkpt lat="42.38388" lon="2.11705">
        <ele>2892</ele>
        <time>2017-10-15T10:55:06.000Z</time>
      </trkpt>
      <trkpt lat="42.38389" lon="2.11704">
        <ele>2892</ele>
        <time>2017-10-15T10:55:07.000Z</time>
      </trkpt>
      <trkpt lat="42.3839" lon="2.11704">
        <ele>2892</ele>
        <time>2017-10-15T10:55:08.000Z</time>
      </trkpt>
      <trkpt lat="42.38392" lon="2.11703">
        <ele>2891</ele>
        <time>2017-10-15T10:55:10.000Z</time>
      </trkpt>
      <trkpt lat="42.38393" lon="2.11702">
        <ele>2891</ele>
        <time>2017-10-15T10:55:12.000Z</time>
      </trkpt>
      <trkpt lat="42.38393" lon="2.11701">
        <ele>2891</ele>
        <time>2017-10-15T10:55:13.000Z</time>
      </trkpt>
      <trkpt lat="42.38393" lon="2.11701">
        <ele>2891</ele>
        <time>2017-10-15T10:55:14.000Z</time>
      </trkpt>
      <trkpt lat="42.38393" lon="2.11702">
        <ele>2891</ele>
        <time>2017-10-15T10:55:15.000Z</time>
      </trkpt>
      <trkpt lat="42.38393" lon="2.11702">
        <ele>2891</ele>
        <time>2017-10-15T10:55:16.000Z</time>
      </trkpt>
      <trkpt lat="42.38392" lon="2.11702">
        <ele>2891</ele>
        <time>2017-10-15T11:16:40.000Z</time>
      </trkpt>
      <trkpt lat="42.38392" lon="2.11702">
        <ele>2891</ele>
        <time>2017-10-15T11:16:41.000Z</time>
      </trkpt>
      <trkpt lat="42.38392" lon="2.11709">
        <ele>2891</ele>
        <time>2017-10-15T11:23:23.000Z</time>
      </trkpt>
      <trkpt lat="42.38392" lon="2.11708">
        <ele>2891</ele>
        <time>2017-10-15T11:23:24.000Z</time>
      </trkpt>
      <trkpt lat="42.38391" lon="2.11707">
        <ele>2891</ele>
        <time>2017-10-15T11:23:25.000Z</time>
      </trkpt>
      <trkpt lat="42.38392" lon="2.11706">
        <ele>2891</ele>
        <time>2017-10-15T11:23:26.000Z</time>
      </trkpt>
      <trkpt lat="42.38392" lon="2.11705">
        <ele>2891</ele>
        <time>2017-10-15T11:23:27.000Z</time>
      </trkpt>
      <trkpt lat="42.38392" lon="2.11704">
        <ele>2891</ele>
        <time>2017-10-15T11:23:28.000Z</time>
      </trkpt>
      <trkpt lat="42.38392" lon="2.11704">
        <ele>2891</ele>
        <time>2017-10-15T11:23:29.000Z</time>
      </trkpt>
      <trkpt lat="42.38392" lon="2.11703">
        <ele>2891</ele>
        <time>2017-10-15T11:23:30.000Z</time>
      </trkpt>
      <trkpt lat="42.38391" lon="2.11702">
        <ele>2891</ele>
        <time>2017-10-15T11:23:31.000Z</time>
      </trkpt>
      <trkpt lat="42.38391" lon="2.11702">
        <ele>2891</ele>
        <time>2017-10-15T11:23:32.000Z</time>
      </trkpt>
      <trkpt lat="42.38391" lon="2.11701">
        <ele>2891</ele>
        <time>2017-10-15T11:23:33.000Z</time>
      </trkpt>
      <trkpt lat="42.38391" lon="2.11701">
        <ele>2891</ele>
        <time>2017-10-15T11:23:34.000Z</time>
      </trkpt>
      <trkpt lat="42.38392" lon="2.11701">
        <ele>2891</ele>
        <time>2017-10-15T11:23:35.000Z</time>
      </trkpt>
      <trkpt lat="42.38393" lon="2.11701">
        <ele>2891</ele>
        <time>2017-10-15T11:23:36.000Z</time>
      </trkpt>
      <trkpt lat="42.38393" lon="2.11702">
        <ele>2891</ele>
        <time>2017-10-15T11:23:37.000Z</time>
      </trkpt>
      <trkpt lat="42.38391" lon="2.11711">
        <ele>2891</ele>
        <time>2017-10-15T11:23:52.000Z</time>
      </trkpt>
      <trkpt lat="42.38392" lon="2.11712">
        <ele>2891</ele>
        <time>2017-10-15T11:23:53.000Z</time>
      </trkpt>
      <trkpt lat="42.38392" lon="2.11712">
        <ele>2891</ele>
        <time>2017-10-15T11:23:54.000Z</time>
      </trkpt>
      <trkpt lat="42.38393" lon="2.11713">
        <ele>2891</ele>
        <time>2017-10-15T11:23:55.000Z</time>
      </trkpt>
      <trkpt lat="42.38393" lon="2.11713">
        <ele>2891</ele>
        <time>2017-10-15T11:23:56.000Z</time>
      </trkpt>
      <trkpt lat="42.38394" lon="2.11713">
        <ele>2891</ele>
        <time>2017-10-15T11:23:57.000Z</time>
      </trkpt>
      <trkpt lat="42.38394" lon="2.11712">
        <ele>2891</ele>
        <time>2017-10-15T11:23:58.000Z</time>
      </trkpt>
      <trkpt lat="42.38394" lon="2.11712">
        <ele>2891</ele>
        <time>2017-10-15T11:23:59.000Z</time>
      </trkpt>
      <trkpt lat="42.38394" lon="2.11711">
        <ele>2891</ele>
        <time>2017-10-15T11:24:00.000Z</time>
      </trkpt>
      <trkpt lat="42.38395" lon="2.1171">
        <ele>2891</ele>
        <time>2017-10-15T11:24:01.000Z</time>
      </trkpt>
      <trkpt lat="42.38395" lon="2.1171">
        <ele>2891</ele>
        <time>2017-10-15T11:24:02.000Z</time>
      </trkpt>
      <trkpt lat="42.38395" lon="2.1171">
        <ele>2891</ele>
        <time>2017-10-15T11:24:03.000Z</time>
      </trkpt>
      <trkpt lat="42.3839" lon="2.11709">
        <ele>2892</ele>
        <time>2017-10-15T11:26:01.000Z</time>
      </trkpt>
      <trkpt lat="42.3839" lon="2.1171">
        <ele>2892</ele>
        <time>2017-10-15T11:26:02.000Z</time>
      </trkpt>
      <trkpt lat="42.38388" lon="2.11715">
        <ele>2892</ele>
        <time>2017-10-15T11:26:03.000Z</time>
      </trkpt>
      <trkpt lat="42.38388" lon="2.11714">
        <ele>2892</ele>
        <time>2017-10-15T11:26:04.000Z</time>
      </trkpt>
      <trkpt lat="42.38388" lon="2.11714">
        <ele>2892</ele>
        <time>2017-10-15T11:26:05.000Z</time>
      </trkpt>
      <trkpt lat="42.38388" lon="2.11714">
        <ele>2892</ele>
        <time>2017-10-15T11:26:06.000Z</time>
      </trkpt>
      <trkpt lat="42.38399" lon="2.11711">
        <ele>2890</ele>
        <time>2017-10-15T11:26:45.000Z</time>
      </trkpt>
      <trkpt lat="42.384" lon="2.11711">
        <ele>2890</ele>
        <time>2017-10-15T11:26:47.000Z</time>
      </trkpt>
      <trkpt lat="42.384" lon="2.11711">
        <ele>2890</ele>
        <time>2017-10-15T11:26:48.000Z</time>
      </trkpt>
      <trkpt lat="42.384" lon="2.11712">
        <ele>2890</ele>
        <time>2017-10-15T11:26:49.000Z</time>
      </trkpt>
      <trkpt lat="42.38398" lon="2.11707">
        <ele>2890</ele>
        <time>2017-10-15T11:26:55.000Z</time>
      </trkpt>
      <trkpt lat="42.38397" lon="2.11707">
        <ele>2890</ele>
        <time>2017-10-15T11:26:56.000Z</time>
      </trkpt>
      <trkpt lat="42.38397" lon="2.11708">
        <ele>2890</ele>
        <time>2017-10-15T11:26:57.000Z</time>
      </trkpt>
      <trkpt lat="42.38397" lon="2.11708">
        <ele>2890</ele>
        <time>2017-10-15T11:26:58.000Z</time>
      </trkpt>
      <trkpt lat="42.38396" lon="2.11711">
        <ele>2891</ele>
        <time>2017-10-15T11:27:38.000Z</time>
      </trkpt>
      <trkpt lat="42.38397" lon="2.1171">
        <ele>2890</ele>
        <time>2017-10-15T11:27:39.000Z</time>
      </trkpt>
      <trkpt lat="42.38398" lon="2.1171">
        <ele>2890</ele>
        <time>2017-10-15T11:27:40.000Z</time>
      </trkpt>
      <trkpt lat="42.38398" lon="2.11709">
        <ele>2890</ele>
        <time>2017-10-15T11:27:41.000Z</time>
      </trkpt>
      <trkpt lat="42.38399" lon="2.11709">
        <ele>2890</ele>
        <time>2017-10-15T11:27:42.000Z</time>
      </trkpt>
      <trkpt lat="42.38399" lon="2.11709">
        <ele>2890</ele>
        <time>2017-10-15T11:27:43.000Z</time>
      </trkpt>
      <trkpt lat="42.384" lon="2.11708">
        <ele>2890</ele>
        <time>2017-10-15T11:27:44.000Z</time>
      </trkpt>
      <trkpt lat="42.384" lon="2.11707">
        <ele>2890</ele>
        <time>2017-10-15T11:27:45.000Z</time>
      </trkpt>
      <trkpt lat="42.384" lon="2.11706">
        <ele>2890</ele>
        <time>2017-10-15T11:27:46.000Z</time>
      </trkpt>
      <trkpt lat="42.384" lon="2.11705">
        <ele>2890</ele>
        <time>2017-10-15T11:27:47.000Z</time>
      </trkpt>
      <trkpt lat="42.38399" lon="2.11705">
        <ele>2890</ele>
        <time>2017-10-15T11:27:48.000Z</time>
      </trkpt>
      <trkpt lat="42.38399" lon="2.11704">
        <ele>2890</ele>
        <time>2017-10-15T11:27:49.000Z</time>
      </trkpt>
      <trkpt lat="42.38399" lon="2.11704">
        <ele>2890</ele>
        <time>2017-10-15T11:27:50.000Z</time>
      </trkpt>
      <trkpt lat="42.38399" lon="2.11704">
        <ele>2890</ele>
        <time>2017-10-15T11:27:51.000Z</time>
      </trkpt>
      <trkpt lat="42.38398" lon="2.11702">
        <ele>2890</ele>
        <time>2017-10-15T11:27:52.000Z</time>
      </trkpt>
      <trkpt lat="42.38397" lon="2.11705">
        <ele>2890</ele>
        <time>2017-10-15T11:27:54.000Z</time>
      </trkpt>
      <trkpt lat="42.38398" lon="2.11704">
        <ele>2890</ele>
        <time>2017-10-15T11:27:55.000Z</time>
      </trkpt>
      <trkpt lat="42.38398" lon="2.11705">
        <ele>2890</ele>
        <time>2017-10-15T11:27:56.000Z</time>
      </trkpt>
      <trkpt lat="42.384" lon="2.11702">
        <ele>2890</ele>
        <time>2017-10-15T11:28:04.000Z</time>
      </trkpt>
      <trkpt lat="42.384" lon="2.11701">
        <ele>2890</ele>
        <time>2017-10-15T11:28:05.000Z</time>
      </trkpt>
      <trkpt lat="42.384" lon="2.11702">
        <ele>2890</ele>
        <time>2017-10-15T11:28:06.000Z</time>
      </trkpt>
      <trkpt lat="42.38399" lon="2.11703">
        <ele>2890</ele>
        <time>2017-10-15T11:28:07.000Z</time>
      </trkpt>
      <trkpt lat="42.38399" lon="2.11705">
        <ele>2890</ele>
        <time>2017-10-15T11:28:08.000Z</time>
      </trkpt>
      <trkpt lat="42.38399" lon="2.11706">
        <ele>2890</ele>
        <time>2017-10-15T11:28:09.000Z</time>
      </trkpt>
      <trkpt lat="42.38399" lon="2.11706">
        <ele>2890</ele>
        <time>2017-10-15T11:28:10.000Z</time>
      </trkpt>
      <trkpt lat="42.38399" lon="2.11707">
        <ele>2890</ele>
        <time>2017-10-15T11:28:11.000Z</time>
      </trkpt>
      <trkpt lat="42.38399" lon="2.11707">
        <ele>2890</ele>
        <time>2017-10-15T11:28:12.000Z</time>
      </trkpt>
      <trkpt lat="42.38392" lon="2.117">
        <ele>2891</ele>
        <time>2017-10-15T11:28:44.000Z</time>
      </trkpt>
      <trkpt lat="42.38391" lon="2.11702">
        <ele>2891</ele>
        <time>2017-10-15T11:28:45.000Z</time>
      </trkpt>
      <trkpt lat="42.38391" lon="2.11702">
        <ele>2891</ele>
        <time>2017-10-15T11:28:46.000Z</time>
      </trkpt>
      <trkpt lat="42.38392" lon="2.11703">
        <ele>2891</ele>
        <time>2017-10-15T11:28:47.000Z</time>
      </trkpt>
      <trkpt lat="42.38392" lon="2.11703">
        <ele>2891</ele>
        <time>2017-10-15T11:28:48.000Z</time>
      </trkpt>
      <trkpt lat="42.38384" lon="2.11708">
        <ele>2893</ele>
        <time>2017-10-15T11:29:02.000Z</time>
      </trkpt>
      <trkpt lat="42.38381" lon="2.11709">
        <ele>2893</ele>
        <time>2017-10-15T11:29:03.000Z</time>
      </trkpt>
      <trkpt lat="42.38382" lon="2.11711">
        <ele>2893</ele>
        <time>2017-10-15T11:29:04.000Z</time>
      </trkpt>
      <trkpt lat="42.38381" lon="2.11713">
        <ele>2893</ele>
        <time>2017-10-15T11:29:05.000Z</time>
      </trkpt>
      <trkpt lat="42.38379" lon="2.11713">
        <ele>2893</ele>
        <time>2017-10-15T11:29:06.000Z</time>
      </trkpt>
      <trkpt lat="42.38377" lon="2.11714">
        <ele>2893</ele>
        <time>2017-10-15T11:29:07.000Z</time>
      </trkpt>
      <trkpt lat="42.38375" lon="2.11715">
        <ele>2894</ele>
        <time>2017-10-15T11:29:08.000Z</time>
      </trkpt>
      <trkpt lat="42.38373" lon="2.11714">
        <ele>2894</ele>
        <time>2017-10-15T11:29:09.000Z</time>
      </trkpt>
      <trkpt lat="42.3838" lon="2.11715">
        <ele>2893</ele>
        <time>2017-10-15T11:29:11.000Z</time>
      </trkpt>
      <trkpt lat="42.3838" lon="2.11717">
        <ele>2893</ele>
        <time>2017-10-15T11:29:13.000Z</time>
      </trkpt>
      <trkpt lat="42.38384" lon="2.11715">
        <ele>2893</ele>
        <time>2017-10-15T11:29:14.000Z</time>
      </trkpt>
      <trkpt lat="42.38389" lon="2.11712">
        <ele>2892</ele>
        <time>2017-10-15T11:29:15.000Z</time>
      </trkpt>
      <trkpt lat="42.38392" lon="2.11709">
        <ele>2891</ele>
        <time>2017-10-15T11:29:16.000Z</time>
      </trkpt>
      <trkpt lat="42.38393" lon="2.11709">
        <ele>2891</ele>
        <time>2017-10-15T11:29:17.000Z</time>
      </trkpt>
      <trkpt lat="42.38393" lon="2.11708">
        <ele>2891</ele>
        <time>2017-10-15T11:29:18.000Z</time>
      </trkpt>
      <trkpt lat="42.38394" lon="2.11708">
        <ele>2891</ele>
        <time>2017-10-15T11:29:19.000Z</time>
      </trkpt>
      <trkpt lat="42.38397" lon="2.11697">
        <ele>2890</ele>
        <time>2017-10-15T11:30:13.000Z</time>
      </trkpt>
      <trkpt lat="42.38397" lon="2.11697">
        <ele>2890</ele>
        <time>2017-10-15T11:30:14.000Z</time>
      </trkpt>
      <trkpt lat="42.38396" lon="2.11696">
        <ele>2890</ele>
        <time>2017-10-15T11:30:15.000Z</time>
      </trkpt>
      <trkpt lat="42.38396" lon="2.11696">
        <ele>2890</ele>
        <time>2017-10-15T11:30:16.000Z</time>
      </trkpt>
      <trkpt lat="42.38396" lon="2.11695">
        <ele>2890</ele>
        <time>2017-10-15T11:30:17.000Z</time>
      </trkpt>
      <trkpt lat="42.38396" lon="2.11696">
        <ele>2890</ele>
        <time>2017-10-15T11:30:18.000Z</time>
      </trkpt>
      <trkpt lat="42.38397" lon="2.11696">
        <ele>2890</ele>
        <time>2017-10-15T11:30:19.000Z</time>
      </trkpt>
      <trkpt lat="42.38398" lon="2.11696">
        <ele>2890</ele>
        <time>2017-10-15T11:30:20.000Z</time>
      </trkpt>
      <trkpt lat="42.38399" lon="2.11694">
        <ele>2890</ele>
        <time>2017-10-15T11:30:21.000Z</time>
      </trkpt>
      <trkpt lat="42.384" lon="2.11694">
        <ele>2889</ele>
        <time>2017-10-15T11:30:22.000Z</time>
      </trkpt>
      <trkpt lat="42.38401" lon="2.11693">
        <ele>2889</ele>
        <time>2017-10-15T11:30:23.000Z</time>
      </trkpt>
      <trkpt lat="42.38403" lon="2.1169">
        <ele>2889</ele>
        <time>2017-10-15T11:30:24.000Z</time>
      </trkpt>
      <trkpt lat="42.38404" lon="2.11689">
        <ele>2889</ele>
        <time>2017-10-15T11:30:25.000Z</time>
      </trkpt>
      <trkpt lat="42.38405" lon="2.11689">
        <ele>2888</ele>
        <time>2017-10-15T11:30:26.000Z</time>
      </trkpt>
      <trkpt lat="42.38406" lon="2.11688">
        <ele>2888</ele>
        <time>2017-10-15T11:30:28.000Z</time>
      </trkpt>
      <trkpt lat="42.38406" lon="2.11688">
        <ele>2888</ele>
        <time>2017-10-15T11:30:29.000Z</time>
      </trkpt>
      <trkpt lat="42.38406" lon="2.11689">
        <ele>2888</ele>
        <time>2017-10-15T11:30:30.000Z</time>
      </trkpt>
      <trkpt lat="42.38406" lon="2.11689">
        <ele>2888</ele>
        <time>2017-10-15T11:30:31.000Z</time>
      </trkpt>
      <trkpt lat="42.38404" lon="2.1169">
        <ele>2889</ele>
        <time>2017-10-15T11:30:32.000Z</time>
      </trkpt>
      <trkpt lat="42.38403" lon="2.1169">
        <ele>2889</ele>
        <time>2017-10-15T11:30:33.000Z</time>
      </trkpt>
      <trkpt lat="42.38403" lon="2.1169">
        <ele>2889</ele>
        <time>2017-10-15T11:30:34.000Z</time>
      </trkpt>
      <trkpt lat="42.38403" lon="2.1169">
        <ele>2889</ele>
        <time>2017-10-15T11:30:35.000Z</time>
      </trkpt>
      <trkpt lat="42.38403" lon="2.11689">
        <ele>2889</ele>
        <time>2017-10-15T11:30:36.000Z</time>
      </trkpt>
      <trkpt lat="42.38403" lon="2.11689">
        <ele>2889</ele>
        <time>2017-10-15T11:30:37.000Z</time>
      </trkpt>
      <trkpt lat="42.38401" lon="2.11695">
        <ele>2889</ele>
        <time>2017-10-15T11:30:52.000Z</time>
      </trkpt>
      <trkpt lat="42.384" lon="2.11697">
        <ele>2889</ele>
        <time>2017-10-15T11:30:54.000Z</time>
      </trkpt>
      <trkpt lat="42.384" lon="2.11698">
        <ele>2890</ele>
        <time>2017-10-15T11:30:56.000Z</time>
      </trkpt>
      <trkpt lat="42.38395" lon="2.117">
        <ele>2890</ele>
        <time>2017-10-15T11:30:57.000Z</time>
      </trkpt>
      <trkpt lat="42.38393" lon="2.11703">
        <ele>2891</ele>
        <time>2017-10-15T11:30:58.000Z</time>
      </trkpt>
      <trkpt lat="42.38394" lon="2.11704">
        <ele>2891</ele>
        <time>2017-10-15T11:30:59.000Z</time>
      </trkpt>
      <trkpt lat="42.38393" lon="2.11705">
        <ele>2891</ele>
        <time>2017-10-15T11:31:00.000Z</time>
      </trkpt>
      <trkpt lat="42.38393" lon="2.11706">
        <ele>2891</ele>
        <time>2017-10-15T11:31:01.000Z</time>
      </trkpt>
      <trkpt lat="42.38393" lon="2.11707">
        <ele>2891</ele>
        <time>2017-10-15T11:31:02.000Z</time>
      </trkpt>
      <trkpt lat="42.38393" lon="2.11707">
        <ele>2891</ele>
        <time>2017-10-15T11:31:03.000Z</time>
      </trkpt>
      <trkpt lat="42.38391" lon="2.1171">
        <ele>2892</ele>
        <time>2017-10-15T11:43:14.000Z</time>
      </trkpt>
      <trkpt lat="42.3839" lon="2.11708">
        <ele>2892</ele>
        <time>2017-10-15T11:43:15.000Z</time>
      </trkpt>
      <trkpt lat="42.38389" lon="2.11707">
        <ele>2892</ele>
        <time>2017-10-15T11:43:16.000Z</time>
      </trkpt>
      <trkpt lat="42.38389" lon="2.11707">
        <ele>2892</ele>
        <time>2017-10-15T11:43:17.000Z</time>
      </trkpt>
      <trkpt lat="42.38388" lon="2.11706">
        <ele>2892</ele>
        <time>2017-10-15T11:43:18.000Z</time>
      </trkpt>
      <trkpt lat="42.38387" lon="2.11706">
        <ele>2892</ele>
        <time>2017-10-15T11:43:19.000Z</time>
      </trkpt>
      <trkpt lat="42.38386" lon="2.11706">
        <ele>2892</ele>
        <time>2017-10-15T11:43:20.000Z</time>
      </trkpt>
      <trkpt lat="42.38385" lon="2.11706">
        <ele>2892</ele>
        <time>2017-10-15T11:43:21.000Z</time>
      </trkpt>
      <trkpt lat="42.38385" lon="2.11706">
        <ele>2893</ele>
        <time>2017-10-15T11:43:22.000Z</time>
      </trkpt>
      <trkpt lat="42.38383" lon="2.11706">
        <ele>2893</ele>
        <time>2017-10-15T11:43:23.000Z</time>
      </trkpt>
      <trkpt lat="42.38383" lon="2.11706">
        <ele>2893</ele>
        <time>2017-10-15T11:43:24.000Z</time>
      </trkpt>
      <trkpt lat="42.38382" lon="2.11707">
        <ele>2893</ele>
        <time>2017-10-15T11:43:25.000Z</time>
      </trkpt>
      <trkpt lat="42.38381" lon="2.11708">
        <ele>2893</ele>
        <time>2017-10-15T11:43:26.000Z</time>
      </trkpt>
      <trkpt lat="42.3838" lon="2.11708">
        <ele>2893</ele>
        <time>2017-10-15T11:43:27.000Z</time>
      </trkpt>
      <trkpt lat="42.38379" lon="2.11708">
        <ele>2894</ele>
        <time>2017-10-15T11:43:28.000Z</time>
      </trkpt>
      <trkpt lat="42.38378" lon="2.11708">
        <ele>2894</ele>
        <time>2017-10-15T11:43:29.000Z</time>
      </trkpt>
      <trkpt lat="42.38377" lon="2.11708">
        <ele>2894</ele>
        <time>2017-10-15T11:43:30.000Z</time>
      </trkpt>
      <trkpt lat="42.38376" lon="2.11707">
        <ele>2894</ele>
        <time>2017-10-15T11:43:31.000Z</time>
      </trkpt>
      <trkpt lat="42.38375" lon="2.11706">
        <ele>2894</ele>
        <time>2017-10-15T11:43:32.000Z</time>
      </trkpt>
      <trkpt lat="42.38374" lon="2.11704">
        <ele>2894</ele>
        <time>2017-10-15T11:43:33.000Z</time>
      </trkpt>
      <trkpt lat="42.38374" lon="2.11703">
        <ele>2894</ele>
        <time>2017-10-15T11:43:34.000Z</time>
      </trkpt>
      <trkpt lat="42.38373" lon="2.11702">
        <ele>2894</ele>
        <time>2017-10-15T11:43:35.000Z</time>
      </trkpt>
      <trkpt lat="42.38373" lon="2.11701">
        <ele>2895</ele>
        <time>2017-10-15T11:43:36.000Z</time>
      </trkpt>
      <trkpt lat="42.38372" lon="2.11699">
        <ele>2895</ele>
        <time>2017-10-15T11:43:37.000Z</time>
      </trkpt>
      <trkpt lat="42.38372" lon="2.11698">
        <ele>2895</ele>
        <time>2017-10-15T11:43:38.000Z</time>
      </trkpt>
      <trkpt lat="42.38371" lon="2.11698">
        <ele>2895</ele>
        <time>2017-10-15T11:43:39.000Z</time>
      </trkpt>
      <trkpt lat="42.3837" lon="2.11697">
        <ele>2895</ele>
        <time>2017-10-15T11:43:40.000Z</time>
      </trkpt>
      <trkpt lat="42.3837" lon="2.11697">
        <ele>2895</ele>
        <time>2017-10-15T11:43:41.000Z</time>
      </trkpt>
      <trkpt lat="42.38369" lon="2.11696">
        <ele>2895</ele>
        <time>2017-10-15T11:43:42.000Z</time>
      </trkpt>
      <trkpt lat="42.38368" lon="2.11695">
        <ele>2895</ele>
        <time>2017-10-15T11:43:43.000Z</time>
      </trkpt>
      <trkpt lat="42.38368" lon="2.11694">
        <ele>2895</ele>
        <time>2017-10-15T11:43:44.000Z</time>
      </trkpt>
      <trkpt lat="42.38367" lon="2.11694">
        <ele>2895</ele>
        <time>2017-10-15T11:43:45.000Z</time>
      </trkpt>
      <trkpt lat="42.38366" lon="2.11693">
        <ele>2896</ele>
        <time>2017-10-15T11:43:46.000Z</time>
      </trkpt>
      <trkpt lat="42.38365" lon="2.11692">
        <ele>2896</ele>
        <time>2017-10-15T11:43:47.000Z</time>
      </trkpt>
      <trkpt lat="42.38364" lon="2.11692">
        <ele>2896</ele>
        <time>2017-10-15T11:43:48.000Z</time>
      </trkpt>
      <trkpt lat="42.38364" lon="2.11691">
        <ele>2896</ele>
        <time>2017-10-15T11:43:49.000Z</time>
      </trkpt>
      <trkpt lat="42.38363" lon="2.11691">
        <ele>2896</ele>
        <time>2017-10-15T11:43:50.000Z</time>
      </trkpt>
      <trkpt lat="42.38362" lon="2.11691">
        <ele>2896</ele>
        <time>2017-10-15T11:43:51.000Z</time>
      </trkpt>
      <trkpt lat="42.38361" lon="2.11691">
        <ele>2896</ele>
        <time>2017-10-15T11:43:52.000Z</time>
      </trkpt>
      <trkpt lat="42.3836" lon="2.11691">
        <ele>2896</ele>
        <time>2017-10-15T11:43:53.000Z</time>
      </trkpt>
      <trkpt lat="42.38359" lon="2.11691">
        <ele>2897</ele>
        <time>2017-10-15T11:43:54.000Z</time>
      </trkpt>
      <trkpt lat="42.38358" lon="2.11692">
        <ele>2897</ele>
        <time>2017-10-15T11:43:55.000Z</time>
      </trkpt>
      <trkpt lat="42.38357" lon="2.11691">
        <ele>2897</ele>
        <time>2017-10-15T11:43:56.000Z</time>
      </trkpt>
      <trkpt lat="42.38356" lon="2.1169">
        <ele>2897</ele>
        <time>2017-10-15T11:43:57.000Z</time>
      </trkpt>
      <trkpt lat="42.38355" lon="2.11688">
        <ele>2897</ele>
        <time>2017-10-15T11:43:58.000Z</time>
      </trkpt>
      <trkpt lat="42.38355" lon="2.11687">
        <ele>2897</ele>
        <time>2017-10-15T11:43:59.000Z</time>
      </trkpt>
      <trkpt lat="42.38354" lon="2.11686">
        <ele>2897</ele>
        <time>2017-10-15T11:44:00.000Z</time>
      </trkpt>
      <trkpt lat="42.38354" lon="2.11686">
        <ele>2897</ele>
        <time>2017-10-15T11:44:01.000Z</time>
      </trkpt>
      <trkpt lat="42.38353" lon="2.11687">
        <ele>2897</ele>
        <time>2017-10-15T11:44:02.000Z</time>
      </trkpt>
      <trkpt lat="42.38352" lon="2.11687">
        <ele>2897</ele>
        <time>2017-10-15T11:44:03.000Z</time>
      </trkpt>
      <trkpt lat="42.38352" lon="2.11688">
        <ele>2898</ele>
        <time>2017-10-15T11:44:04.000Z</time>
      </trkpt>
      <trkpt lat="42.38351" lon="2.11688">
        <ele>2898</ele>
        <time>2017-10-15T11:44:05.000Z</time>
      </trkpt>
      <trkpt lat="42.38351" lon="2.11688">
        <ele>2898</ele>
        <time>2017-10-15T11:44:06.000Z</time>
      </trkpt>
      <trkpt lat="42.3835" lon="2.11689">
        <ele>2898</ele>
        <time>2017-10-15T11:44:07.000Z</time>
      </trkpt>
      <trkpt lat="42.38349" lon="2.1169">
        <ele>2898</ele>
        <time>2017-10-15T11:44:08.000Z</time>
      </trkpt>
      <trkpt lat="42.38348" lon="2.1169">
        <ele>2898</ele>
        <time>2017-10-15T11:44:09.000Z</time>
      </trkpt>
      <trkpt lat="42.38347" lon="2.1169">
        <ele>2898</ele>
        <time>2017-10-15T11:44:10.000Z</time>
      </trkpt>
      <trkpt lat="42.38347" lon="2.1169">
        <ele>2898</ele>
        <time>2017-10-15T11:44:11.000Z</time>
      </trkpt>
      <trkpt lat="42.38346" lon="2.1169">
        <ele>2898</ele>
        <time>2017-10-15T11:44:12.000Z</time>
      </trkpt>
      <trkpt lat="42.38345" lon="2.11691">
        <ele>2898</ele>
        <time>2017-10-15T11:44:13.000Z</time>
      </trkpt>
      <trkpt lat="42.38345" lon="2.11691">
        <ele>2898</ele>
        <time>2017-10-15T11:44:14.000Z</time>
      </trkpt>
      <trkpt lat="42.38344" lon="2.11691">
        <ele>2898</ele>
        <time>2017-10-15T11:44:15.000Z</time>
      </trkpt>
      <trkpt lat="42.38344" lon="2.11691">
        <ele>2898</ele>
        <time>2017-10-15T11:44:16.000Z</time>
      </trkpt>
      <trkpt lat="42.38343" lon="2.11691">
        <ele>2898</ele>
        <time>2017-10-15T11:44:17.000Z</time>
      </trkpt>
      <trkpt lat="42.38343" lon="2.1169">
        <ele>2898</ele>
        <time>2017-10-15T11:44:18.000Z</time>
      </trkpt>
      <trkpt lat="42.38342" lon="2.11689">
        <ele>2898</ele>
        <time>2017-10-15T11:44:19.000Z</time>
      </trkpt>
      <trkpt lat="42.38342" lon="2.11689">
        <ele>2898</ele>
        <time>2017-10-15T11:44:20.000Z</time>
      </trkpt>
      <trkpt lat="42.38342" lon="2.11689">
        <ele>2899</ele>
        <time>2017-10-15T11:44:21.000Z</time>
      </trkpt>
      <trkpt lat="42.38341" lon="2.11689">
        <ele>2899</ele>
        <time>2017-10-15T11:44:22.000Z</time>
      </trkpt>
      <trkpt lat="42.38341" lon="2.11688">
        <ele>2899</ele>
        <time>2017-10-15T11:44:23.000Z</time>
      </trkpt>
      <trkpt lat="42.38341" lon="2.11687">
        <ele>2899</ele>
        <time>2017-10-15T11:44:24.000Z</time>
      </trkpt>
      <trkpt lat="42.3834" lon="2.11687">
        <ele>2899</ele>
        <time>2017-10-15T11:44:25.000Z</time>
      </trkpt>
      <trkpt lat="42.38347" lon="2.1167">
        <ele>2898</ele>
        <time>2017-10-15T11:47:20.000Z</time>
      </trkpt>
      <trkpt lat="42.38347" lon="2.11669">
        <ele>2898</ele>
        <time>2017-10-15T11:47:21.000Z</time>
      </trkpt>
      <trkpt lat="42.38348" lon="2.11668">
        <ele>2898</ele>
        <time>2017-10-15T11:47:22.000Z</time>
      </trkpt>
      <trkpt lat="42.38348" lon="2.11667">
        <ele>2898</ele>
        <time>2017-10-15T11:47:23.000Z</time>
      </trkpt>
      <trkpt lat="42.38349" lon="2.11666">
        <ele>2898</ele>
        <time>2017-10-15T11:47:24.000Z</time>
      </trkpt>
      <trkpt lat="42.38349" lon="2.11666">
        <ele>2898</ele>
        <time>2017-10-15T11:47:25.000Z</time>
      </trkpt>
      <trkpt lat="42.3835" lon="2.11665">
        <ele>2898</ele>
        <time>2017-10-15T11:47:26.000Z</time>
      </trkpt>
      <trkpt lat="42.3835" lon="2.11665">
        <ele>2898</ele>
        <time>2017-10-15T11:47:27.000Z</time>
      </trkpt>
      <trkpt lat="42.3835" lon="2.11664">
        <ele>2898</ele>
        <time>2017-10-15T11:47:28.000Z</time>
      </trkpt>
      <trkpt lat="42.38351" lon="2.11663">
        <ele>2898</ele>
        <time>2017-10-15T11:47:29.000Z</time>
      </trkpt>
      <trkpt lat="42.38351" lon="2.11662">
        <ele>2898</ele>
        <time>2017-10-15T11:47:30.000Z</time>
      </trkpt>
      <trkpt lat="42.38351" lon="2.11661">
        <ele>2897</ele>
        <time>2017-10-15T11:47:31.000Z</time>
      </trkpt>
      <trkpt lat="42.38352" lon="2.1166">
        <ele>2897</ele>
        <time>2017-10-15T11:47:32.000Z</time>
      </trkpt>
      <trkpt lat="42.38352" lon="2.11659">
        <ele>2897</ele>
        <time>2017-10-15T11:47:33.000Z</time>
      </trkpt>
      <trkpt lat="42.38353" lon="2.11659">
        <ele>2897</ele>
        <time>2017-10-15T11:47:34.000Z</time>
      </trkpt>
      <trkpt lat="42.38353" lon="2.11658">
        <ele>2897</ele>
        <time>2017-10-15T11:47:35.000Z</time>
      </trkpt>
      <trkpt lat="42.38354" lon="2.11657">
        <ele>2897</ele>
        <time>2017-10-15T11:47:36.000Z</time>
      </trkpt>
      <trkpt lat="42.38354" lon="2.11657">
        <ele>2896</ele>
        <time>2017-10-15T11:47:37.000Z</time>
      </trkpt>
      <trkpt lat="42.38355" lon="2.11656">
        <ele>2896</ele>
        <time>2017-10-15T11:47:38.000Z</time>
      </trkpt>
      <trkpt lat="42.38356" lon="2.11656">
        <ele>2896</ele>
        <time>2017-10-15T11:47:39.000Z</time>
      </trkpt>
      <trkpt lat="42.38357" lon="2.11655">
        <ele>2896</ele>
        <time>2017-10-15T11:47:40.000Z</time>
      </trkpt>
      <trkpt lat="42.38357" lon="2.11655">
        <ele>2896</ele>
        <time>2017-10-15T11:47:41.000Z</time>
      </trkpt>
      <trkpt lat="42.38358" lon="2.11655">
        <ele>2896</ele>
        <time>2017-10-15T11:47:42.000Z</time>
      </trkpt>
      <trkpt lat="42.38359" lon="2.11655">
        <ele>2895</ele>
        <time>2017-10-15T11:47:43.000Z</time>
      </trkpt>
      <trkpt lat="42.38359" lon="2.11655">
        <ele>2895</ele>
        <time>2017-10-15T11:47:44.000Z</time>
      </trkpt>
      <trkpt lat="42.3836" lon="2.11655">
        <ele>2895</ele>
        <time>2017-10-15T11:47:45.000Z</time>
      </trkpt>
      <trkpt lat="42.3836" lon="2.11654">
        <ele>2895</ele>
        <time>2017-10-15T11:47:46.000Z</time>
      </trkpt>
      <trkpt lat="42.38361" lon="2.11654">
        <ele>2895</ele>
        <time>2017-10-15T11:47:47.000Z</time>
      </trkpt>
      <trkpt lat="42.38362" lon="2.11653">
        <ele>2895</ele>
        <time>2017-10-15T11:47:48.000Z</time>
      </trkpt>
      <trkpt lat="42.38363" lon="2.11653">
        <ele>2894</ele>
        <time>2017-10-15T11:47:49.000Z</time>
      </trkpt>
      <trkpt lat="42.38363" lon="2.11653">
        <ele>2894</ele>
        <time>2017-10-15T11:47:50.000Z</time>
      </trkpt>
      <trkpt lat="42.38364" lon="2.11652">
        <ele>2894</ele>
        <time>2017-10-15T11:47:51.000Z</time>
      </trkpt>
      <trkpt lat="42.38365" lon="2.11652">
        <ele>2894</ele>
        <time>2017-10-15T11:47:52.000Z</time>
      </trkpt>
      <trkpt lat="42.38365" lon="2.11652">
        <ele>2894</ele>
        <time>2017-10-15T11:47:53.000Z</time>
      </trkpt>
      <trkpt lat="42.38366" lon="2.11652">
        <ele>2894</ele>
        <time>2017-10-15T11:47:54.000Z</time>
      </trkpt>
      <trkpt lat="42.38367" lon="2.11651">
        <ele>2894</ele>
        <time>2017-10-15T11:47:55.000Z</time>
      </trkpt>
      <trkpt lat="42.38368" lon="2.11651">
        <ele>2893</ele>
        <time>2017-10-15T11:47:56.000Z</time>
      </trkpt>
      <trkpt lat="42.38369" lon="2.11651">
        <ele>2893</ele>
        <time>2017-10-15T11:47:57.000Z</time>
      </trkpt>
      <trkpt lat="42.38369" lon="2.1165">
        <ele>2893</ele>
        <time>2017-10-15T11:47:58.000Z</time>
      </trkpt>
      <trkpt lat="42.3837" lon="2.11651">
        <ele>2893</ele>
        <time>2017-10-15T11:47:59.000Z</time>
      </trkpt>
      <trkpt lat="42.38371" lon="2.1165">
        <ele>2893</ele>
        <time>2017-10-15T11:48:00.000Z</time>
      </trkpt>
      <trkpt lat="42.38372" lon="2.1165">
        <ele>2893</ele>
        <time>2017-10-15T11:48:01.000Z</time>
      </trkpt>
      <trkpt lat="42.38372" lon="2.1165">
        <ele>2892</ele>
        <time>2017-10-15T11:48:02.000Z</time>
      </trkpt>
      <trkpt lat="42.38373" lon="2.11649">
        <ele>2892</ele>
        <time>2017-10-15T11:48:03.000Z</time>
      </trkpt>
      <trkpt lat="42.38374" lon="2.11649">
        <ele>2892</ele>
        <time>2017-10-15T11:48:04.000Z</time>
      </trkpt>
      <trkpt lat="42.38375" lon="2.11649">
        <ele>2892</ele>
        <time>2017-10-15T11:48:05.000Z</time>
      </trkpt>
      <trkpt lat="42.38375" lon="2.11648">
        <ele>2892</ele>
        <time>2017-10-15T11:48:06.000Z</time>
      </trkpt>
      <trkpt lat="42.38376" lon="2.11648">
        <ele>2891</ele>
        <time>2017-10-15T11:48:07.000Z</time>
      </trkpt>
      <trkpt lat="42.38377" lon="2.11648">
        <ele>2891</ele>
        <time>2017-10-15T11:48:08.000Z</time>
      </trkpt>
      <trkpt lat="42.38378" lon="2.11648">
        <ele>2891</ele>
        <time>2017-10-15T11:48:09.000Z</time>
      </trkpt>
      <trkpt lat="42.38379" lon="2.11648">
        <ele>2891</ele>
        <time>2017-10-15T11:48:10.000Z</time>
      </trkpt>
      <trkpt lat="42.38379" lon="2.11649">
        <ele>2891</ele>
        <time>2017-10-15T11:48:11.000Z</time>
      </trkpt>
      <trkpt lat="42.3838" lon="2.11649">
        <ele>2891</ele>
        <time>2017-10-15T11:48:12.000Z</time>
      </trkpt>
      <trkpt lat="42.3838" lon="2.11649">
        <ele>2891</ele>
        <time>2017-10-15T11:48:13.000Z</time>
      </trkpt>
      <trkpt lat="42.3838" lon="2.11649">
        <ele>2891</ele>
        <time>2017-10-15T11:48:14.000Z</time>
      </trkpt>
      <trkpt lat="42.38383" lon="2.11632">
        <ele>2888</ele>
        <time>2017-10-15T11:48:47.000Z</time>
      </trkpt>
      <trkpt lat="42.38383" lon="2.1163">
        <ele>2888</ele>
        <time>2017-10-15T11:48:48.000Z</time>
      </trkpt>
      <trkpt lat="42.38383" lon="2.11629">
        <ele>2888</ele>
        <time>2017-10-15T11:48:49.000Z</time>
      </trkpt>
      <trkpt lat="42.38383" lon="2.11629">
        <ele>2888</ele>
        <time>2017-10-15T11:48:50.000Z</time>
      </trkpt>
      <trkpt lat="42.38383" lon="2.11628">
        <ele>2888</ele>
        <time>2017-10-15T11:48:51.000Z</time>
      </trkpt>
      <trkpt lat="42.38383" lon="2.11627">
        <ele>2888</ele>
        <time>2017-10-15T11:48:52.000Z</time>
      </trkpt>
      <trkpt lat="42.38383" lon="2.11626">
        <ele>2888</ele>
        <time>2017-10-15T11:48:53.000Z</time>
      </trkpt>
      <trkpt lat="42.38383" lon="2.11625">
        <ele>2888</ele>
        <time>2017-10-15T11:48:54.000Z</time>
      </trkpt>
      <trkpt lat="42.38383" lon="2.11625">
        <ele>2888</ele>
        <time>2017-10-15T11:48:55.000Z</time>
      </trkpt>
      <trkpt lat="42.38383" lon="2.11624">
        <ele>2887</ele>
        <time>2017-10-15T11:48:56.000Z</time>
      </trkpt>
      <trkpt lat="42.38383" lon="2.11623">
        <ele>2887</ele>
        <time>2017-10-15T11:48:57.000Z</time>
      </trkpt>
      <trkpt lat="42.38383" lon="2.11622">
        <ele>2887</ele>
        <time>2017-10-15T11:48:58.000Z</time>
      </trkpt>
      <trkpt lat="42.38383" lon="2.11621">
        <ele>2887</ele>
        <time>2017-10-15T11:48:59.000Z</time>
      </trkpt>
      <trkpt lat="42.38383" lon="2.1162">
        <ele>2887</ele>
        <time>2017-10-15T11:49:00.000Z</time>
      </trkpt>
      <trkpt lat="42.38383" lon="2.11619">
        <ele>2887</ele>
        <time>2017-10-15T11:49:01.000Z</time>
      </trkpt>
      <trkpt lat="42.38383" lon="2.11618">
        <ele>2887</ele>
        <time>2017-10-15T11:49:02.000Z</time>
      </trkpt>
      <trkpt lat="42.38383" lon="2.11617">
        <ele>2887</ele>
        <time>2017-10-15T11:49:03.000Z</time>
      </trkpt>
      <trkpt lat="42.38382" lon="2.11616">
        <ele>2887</ele>
        <time>2017-10-15T11:49:04.000Z</time>
      </trkpt>
      <trkpt lat="42.38382" lon="2.11615">
        <ele>2887</ele>
        <time>2017-10-15T11:49:05.000Z</time>
      </trkpt>
      <trkpt lat="42.38383" lon="2.11614">
        <ele>2887</ele>
        <time>2017-10-15T11:49:06.000Z</time>
      </trkpt>
      <trkpt lat="42.38383" lon="2.11613">
        <ele>2886</ele>
        <time>2017-10-15T11:49:07.000Z</time>
      </trkpt>
      <trkpt lat="42.38384" lon="2.11612">
        <ele>2886</ele>
        <time>2017-10-15T11:49:08.000Z</time>
      </trkpt>
      <trkpt lat="42.38384" lon="2.11611">
        <ele>2886</ele>
        <time>2017-10-15T11:49:09.000Z</time>
      </trkpt>
      <trkpt lat="42.38385" lon="2.1161">
        <ele>2886</ele>
        <time>2017-10-15T11:49:10.000Z</time>
      </trkpt>
      <trkpt lat="42.38385" lon="2.11609">
        <ele>2886</ele>
        <time>2017-10-15T11:49:11.000Z</time>
      </trkpt>
      <trkpt lat="42.38386" lon="2.11608">
        <ele>2886</ele>
        <time>2017-10-15T11:49:12.000Z</time>
      </trkpt>
      <trkpt lat="42.38387" lon="2.11608">
        <ele>2885</ele>
        <time>2017-10-15T11:49:13.000Z</time>
      </trkpt>
      <trkpt lat="42.38387" lon="2.11608">
        <ele>2885</ele>
        <time>2017-10-15T11:49:14.000Z</time>
      </trkpt>
      <trkpt lat="42.38388" lon="2.11608">
        <ele>2885</ele>
        <time>2017-10-15T11:49:15.000Z</time>
      </trkpt>
      <trkpt lat="42.38389" lon="2.11607">
        <ele>2885</ele>
        <time>2017-10-15T11:49:16.000Z</time>
      </trkpt>
      <trkpt lat="42.38389" lon="2.11607">
        <ele>2885</ele>
        <time>2017-10-15T11:49:17.000Z</time>
      </trkpt>
      <trkpt lat="42.3839" lon="2.11607">
        <ele>2885</ele>
        <time>2017-10-15T11:49:18.000Z</time>
      </trkpt>
      <trkpt lat="42.3839" lon="2.11606">
        <ele>2885</ele>
        <time>2017-10-15T11:49:19.000Z</time>
      </trkpt>
      <trkpt lat="42.3839" lon="2.11605">
        <ele>2885</ele>
        <time>2017-10-15T11:49:20.000Z</time>
      </trkpt>
      <trkpt lat="42.38391" lon="2.11605">
        <ele>2884</ele>
        <time>2017-10-15T11:49:21.000Z</time>
      </trkpt>
      <trkpt lat="42.38391" lon="2.11604">
        <ele>2884</ele>
        <time>2017-10-15T11:49:22.000Z</time>
      </trkpt>
      <trkpt lat="42.38391" lon="2.11603">
        <ele>2884</ele>
        <time>2017-10-15T11:49:23.000Z</time>
      </trkpt>
      <trkpt lat="42.38391" lon="2.11603">
        <ele>2884</ele>
        <time>2017-10-15T11:49:24.000Z</time>
      </trkpt>
      <trkpt lat="42.38391" lon="2.11602">
        <ele>2884</ele>
        <time>2017-10-15T11:49:25.000Z</time>
      </trkpt>
      <trkpt lat="42.3839" lon="2.11602">
        <ele>2884</ele>
        <time>2017-10-15T11:49:26.000Z</time>
      </trkpt>
      <trkpt lat="42.3839" lon="2.11601">
        <ele>2884</ele>
        <time>2017-10-15T11:49:27.000Z</time>
      </trkpt>
      <trkpt lat="42.38391" lon="2.116">
        <ele>2884</ele>
        <time>2017-10-15T11:49:28.000Z</time>
      </trkpt>
      <trkpt lat="42.38391" lon="2.11599">
        <ele>2884</ele>
        <time>2017-10-15T11:49:29.000Z</time>
      </trkpt>
      <trkpt lat="42.38391" lon="2.11599">
        <ele>2884</ele>
        <time>2017-10-15T11:49:30.000Z</time>
      </trkpt>
      <trkpt lat="42.38392" lon="2.11598">
        <ele>2884</ele>
        <time>2017-10-15T11:49:31.000Z</time>
      </trkpt>
      <trkpt lat="42.38392" lon="2.11597">
        <ele>2883</ele>
        <time>2017-10-15T11:49:32.000Z</time>
      </trkpt>
      <trkpt lat="42.38393" lon="2.11596">
        <ele>2883</ele>
        <time>2017-10-15T11:49:33.000Z</time>
      </trkpt>
      <trkpt lat="42.38394" lon="2.11596">
        <ele>2883</ele>
        <time>2017-10-15T11:49:34.000Z</time>
      </trkpt>
      <trkpt lat="42.38395" lon="2.11595">
        <ele>2883</ele>
        <time>2017-10-15T11:49:35.000Z</time>
      </trkpt>
      <trkpt lat="42.38396" lon="2.11595">
        <ele>2883</ele>
        <time>2017-10-15T11:49:36.000Z</time>
      </trkpt>
      <trkpt lat="42.38396" lon="2.11595">
        <ele>2883</ele>
        <time>2017-10-15T11:49:37.000Z</time>
      </trkpt>
      <trkpt lat="42.38397" lon="2.11594">
        <ele>2882</ele>
        <time>2017-10-15T11:49:38.000Z</time>
      </trkpt>
      <trkpt lat="42.38398" lon="2.11593">
        <ele>2882</ele>
        <time>2017-10-15T11:49:39.000Z</time>
      </trkpt>
      <trkpt lat="42.38398" lon="2.11593">
        <ele>2882</ele>
        <time>2017-10-15T11:49:40.000Z</time>
      </trkpt>
      <trkpt lat="42.38399" lon="2.11592">
        <ele>2882</ele>
        <time>2017-10-15T11:49:41.000Z</time>
      </trkpt>
      <trkpt lat="42.38399" lon="2.11591">
        <ele>2882</ele>
        <time>2017-10-15T11:49:42.000Z</time>
      </trkpt>
      <trkpt lat="42.384" lon="2.11591">
        <ele>2882</ele>
        <time>2017-10-15T11:49:43.000Z</time>
      </trkpt>
      <trkpt lat="42.384" lon="2.11591">
        <ele>2882</ele>
        <time>2017-10-15T11:49:44.000Z</time>
      </trkpt>
      <trkpt lat="42.38401" lon="2.11591">
        <ele>2881</ele>
        <time>2017-10-15T11:49:45.000Z</time>
      </trkpt>
      <trkpt lat="42.38401" lon="2.1159">
        <ele>2881</ele>
        <time>2017-10-15T11:49:46.000Z</time>
      </trkpt>
      <trkpt lat="42.38402" lon="2.1159">
        <ele>2881</ele>
        <time>2017-10-15T11:49:47.000Z</time>
      </trkpt>
      <trkpt lat="42.38402" lon="2.11589">
        <ele>2881</ele>
        <time>2017-10-15T11:49:48.000Z</time>
      </trkpt>
      <trkpt lat="42.38402" lon="2.11588">
        <ele>2881</ele>
        <time>2017-10-15T11:49:49.000Z</time>
      </trkpt>
      <trkpt lat="42.38403" lon="2.11588">
        <ele>2881</ele>
        <time>2017-10-15T11:49:50.000Z</time>
      </trkpt>
      <trkpt lat="42.38403" lon="2.11588">
        <ele>2881</ele>
        <time>2017-10-15T11:49:51.000Z</time>
      </trkpt>
      <trkpt lat="42.38404" lon="2.11587">
        <ele>2881</ele>
        <time>2017-10-15T11:49:52.000Z</time>
      </trkpt>
      <trkpt lat="42.38404" lon="2.11587">
        <ele>2881</ele>
        <time>2017-10-15T11:49:53.000Z</time>
      </trkpt>
      <trkpt lat="42.38405" lon="2.11586">
        <ele>2880</ele>
        <time>2017-10-15T11:49:54.000Z</time>
      </trkpt>
      <trkpt lat="42.38405" lon="2.11585">
        <ele>2880</ele>
        <time>2017-10-15T11:49:55.000Z</time>
      </trkpt>
      <trkpt lat="42.38405" lon="2.11584">
        <ele>2880</ele>
        <time>2017-10-15T11:49:56.000Z</time>
      </trkpt>
      <trkpt lat="42.38406" lon="2.11583">
        <ele>2880</ele>
        <time>2017-10-15T11:49:57.000Z</time>
      </trkpt>
      <trkpt lat="42.38406" lon="2.11583">
        <ele>2880</ele>
        <time>2017-10-15T11:49:58.000Z</time>
      </trkpt>
      <trkpt lat="42.38407" lon="2.11582">
        <ele>2880</ele>
        <time>2017-10-15T11:49:59.000Z</time>
      </trkpt>
      <trkpt lat="42.38408" lon="2.11583">
        <ele>2880</ele>
        <time>2017-10-15T11:50:00.000Z</time>
      </trkpt>
      <trkpt lat="42.38408" lon="2.11582">
        <ele>2880</ele>
        <time>2017-10-15T11:50:01.000Z</time>
      </trkpt>
      <trkpt lat="42.38408" lon="2.11581">
        <ele>2879</ele>
        <time>2017-10-15T11:50:02.000Z</time>
      </trkpt>
      <trkpt lat="42.38409" lon="2.11581">
        <ele>2879</ele>
        <time>2017-10-15T11:50:03.000Z</time>
      </trkpt>
      <trkpt lat="42.3841" lon="2.11581">
        <ele>2879</ele>
        <time>2017-10-15T11:50:04.000Z</time>
      </trkpt>
      <trkpt lat="42.3841" lon="2.11581">
        <ele>2879</ele>
        <time>2017-10-15T11:50:05.000Z</time>
      </trkpt>
      <trkpt lat="42.3841" lon="2.11581">
        <ele>2879</ele>
        <time>2017-10-15T11:50:06.000Z</time>
      </trkpt>
      <trkpt lat="42.38411" lon="2.11581">
        <ele>2879</ele>
        <time>2017-10-15T11:50:07.000Z</time>
      </trkpt>
      <trkpt lat="42.38411" lon="2.11581">
        <ele>2879</ele>
        <time>2017-10-15T11:50:08.000Z</time>
      </trkpt>
      <trkpt lat="42.38452" lon="2.11575">
        <ele>2866</ele>
        <time>2017-10-15T11:52:39.000Z</time>
      </trkpt>
      <trkpt lat="42.38453" lon="2.11575">
        <ele>2866</ele>
        <time>2017-10-15T11:52:40.000Z</time>
      </trkpt>
      <trkpt lat="42.38453" lon="2.11574">
        <ele>2865</ele>
        <time>2017-10-15T11:52:41.000Z</time>
      </trkpt>
      <trkpt lat="42.38454" lon="2.11574">
        <ele>2865</ele>
        <time>2017-10-15T11:52:42.000Z</time>
      </trkpt>
      <trkpt lat="42.38455" lon="2.11574">
        <ele>2865</ele>
        <time>2017-10-15T11:52:43.000Z</time>
      </trkpt>
      <trkpt lat="42.38456" lon="2.11574">
        <ele>2864</ele>
        <time>2017-10-15T11:52:44.000Z</time>
      </trkpt>
      <trkpt lat="42.38456" lon="2.11574">
        <ele>2864</ele>
        <time>2017-10-15T11:52:45.000Z</time>
      </trkpt>
      <trkpt lat="42.38457" lon="2.11575">
        <ele>2864</ele>
        <time>2017-10-15T11:52:46.000Z</time>
      </trkpt>
      <trkpt lat="42.38457" lon="2.11575">
        <ele>2864</ele>
        <time>2017-10-15T11:52:47.000Z</time>
      </trkpt>
      <trkpt lat="42.38458" lon="2.11575">
        <ele>2864</ele>
        <time>2017-10-15T11:52:48.000Z</time>
      </trkpt>
      <trkpt lat="42.38459" lon="2.11575">
        <ele>2864</ele>
        <time>2017-10-15T11:52:49.000Z</time>
      </trkpt>
      <trkpt lat="42.38459" lon="2.11575">
        <ele>2864</ele>
        <time>2017-10-15T11:52:50.000Z</time>
      </trkpt>
      <trkpt lat="42.3846" lon="2.11575">
        <ele>2864</ele>
        <time>2017-10-15T11:52:51.000Z</time>
      </trkpt>
      <trkpt lat="42.3846" lon="2.11576">
        <ele>2864</ele>
        <time>2017-10-15T11:52:52.000Z</time>
      </trkpt>
      <trkpt lat="42.38461" lon="2.11576">
        <ele>2863</ele>
        <time>2017-10-15T11:52:53.000Z</time>
      </trkpt>
      <trkpt lat="42.38461" lon="2.11576">
        <ele>2863</ele>
        <time>2017-10-15T11:52:54.000Z</time>
      </trkpt>
      <trkpt lat="42.38462" lon="2.11576">
        <ele>2863</ele>
        <time>2017-10-15T11:52:55.000Z</time>
      </trkpt>
      <trkpt lat="42.38463" lon="2.11576">
        <ele>2863</ele>
        <time>2017-10-15T11:52:56.000Z</time>
      </trkpt>
      <trkpt lat="42.38463" lon="2.11576">
        <ele>2863</ele>
        <time>2017-10-15T11:52:57.000Z</time>
      </trkpt>
      <trkpt lat="42.38464" lon="2.11575">
        <ele>2862</ele>
        <time>2017-10-15T11:52:58.000Z</time>
      </trkpt>
      <trkpt lat="42.38465" lon="2.11574">
        <ele>2862</ele>
        <time>2017-10-15T11:52:59.000Z</time>
      </trkpt>
      <trkpt lat="42.38465" lon="2.11573">
        <ele>2861</ele>
        <time>2017-10-15T11:53:00.000Z</time>
      </trkpt>
      <trkpt lat="42.38466" lon="2.11573">
        <ele>2861</ele>
        <time>2017-10-15T11:53:01.000Z</time>
      </trkpt>
      <trkpt lat="42.38467" lon="2.11574">
        <ele>2861</ele>
        <time>2017-10-15T11:53:02.000Z</time>
      </trkpt>
      <trkpt lat="42.38468" lon="2.11574">
        <ele>2861</ele>
        <time>2017-10-15T11:53:03.000Z</time>
      </trkpt>
      <trkpt lat="42.38469" lon="2.11574">
        <ele>2860</ele>
        <time>2017-10-15T11:53:04.000Z</time>
      </trkpt>
      <trkpt lat="42.3847" lon="2.11575">
        <ele>2860</ele>
        <time>2017-10-15T11:53:05.000Z</time>
      </trkpt>
      <trkpt lat="42.3847" lon="2.11574">
        <ele>2860</ele>
        <time>2017-10-15T11:53:06.000Z</time>
      </trkpt>
      <trkpt lat="42.38471" lon="2.11574">
        <ele>2860</ele>
        <time>2017-10-15T11:53:07.000Z</time>
      </trkpt>
      <trkpt lat="42.38472" lon="2.11574">
        <ele>2859</ele>
        <time>2017-10-15T11:53:08.000Z</time>
      </trkpt>
      <trkpt lat="42.38473" lon="2.11573">
        <ele>2859</ele>
        <time>2017-10-15T11:53:09.000Z</time>
      </trkpt>
      <trkpt lat="42.38473" lon="2.11573">
        <ele>2859</ele>
        <time>2017-10-15T11:53:10.000Z</time>
      </trkpt>
      <trkpt lat="42.38474" lon="2.11572">
        <ele>2858</ele>
        <time>2017-10-15T11:53:11.000Z</time>
      </trkpt>
      <trkpt lat="42.38475" lon="2.11572">
        <ele>2858</ele>
        <time>2017-10-15T11:53:12.000Z</time>
      </trkpt>
      <trkpt lat="42.38475" lon="2.11572">
        <ele>2858</ele>
        <time>2017-10-15T11:53:13.000Z</time>
      </trkpt>
      <trkpt lat="42.38476" lon="2.11572">
        <ele>2857</ele>
        <time>2017-10-15T11:53:14.000Z</time>
      </trkpt>
      <trkpt lat="42.38476" lon="2.11572">
        <ele>2857</ele>
        <time>2017-10-15T11:53:15.000Z</time>
      </trkpt>
      <trkpt lat="42.38477" lon="2.11571">
        <ele>2857</ele>
        <time>2017-10-15T11:53:16.000Z</time>
      </trkpt>
      <trkpt lat="42.38477" lon="2.11571">
        <ele>2857</ele>
        <time>2017-10-15T11:53:17.000Z</time>
      </trkpt>
      <trkpt lat="42.38478" lon="2.1157">
        <ele>2856</ele>
        <time>2017-10-15T11:53:18.000Z</time>
      </trkpt>
      <trkpt lat="42.38479" lon="2.1157">
        <ele>2856</ele>
        <time>2017-10-15T11:53:19.000Z</time>
      </trkpt>
      <trkpt lat="42.38479" lon="2.1157">
        <ele>2856</ele>
        <time>2017-10-15T11:53:20.000Z</time>
      </trkpt>
      <trkpt lat="42.38481" lon="2.1157">
        <ele>2855</ele>
        <time>2017-10-15T11:53:21.000Z</time>
      </trkpt>
      <trkpt lat="42.38481" lon="2.1157">
        <ele>2855</ele>
        <time>2017-10-15T11:53:23.000Z</time>
      </trkpt>
      <trkpt lat="42.38482" lon="2.11569">
        <ele>2855</ele>
        <time>2017-10-15T11:53:24.000Z</time>
      </trkpt>
      <trkpt lat="42.38482" lon="2.11569">
        <ele>2855</ele>
        <time>2017-10-15T11:53:25.000Z</time>
      </trkpt>
      <trkpt lat="42.38483" lon="2.11569">
        <ele>2855</ele>
        <time>2017-10-15T11:53:26.000Z</time>
      </trkpt>
      <trkpt lat="42.38504" lon="2.1155">
        <ele>2844</ele>
        <time>2017-10-15T11:54:18.000Z</time>
      </trkpt>
      <trkpt lat="42.38504" lon="2.1155">
        <ele>2844</ele>
        <time>2017-10-15T11:54:19.000Z</time>
      </trkpt>
      <trkpt lat="42.38505" lon="2.11549">
        <ele>2844</ele>
        <time>2017-10-15T11:54:20.000Z</time>
      </trkpt>
      <trkpt lat="42.38505" lon="2.11549">
        <ele>2844</ele>
        <time>2017-10-15T11:54:21.000Z</time>
      </trkpt>
      <trkpt lat="42.38505" lon="2.11548">
        <ele>2843</ele>
        <time>2017-10-15T11:54:22.000Z</time>
      </trkpt>
      <trkpt lat="42.38505" lon="2.11547">
        <ele>2843</ele>
        <time>2017-10-15T11:54:23.000Z</time>
      </trkpt>
      <trkpt lat="42.38505" lon="2.11546">
        <ele>2843</ele>
        <time>2017-10-15T11:54:24.000Z</time>
      </trkpt>
      <trkpt lat="42.38505" lon="2.11546">
        <ele>2843</ele>
        <time>2017-10-15T11:54:25.000Z</time>
      </trkpt>
      <trkpt lat="42.38505" lon="2.11545">
        <ele>2843</ele>
        <time>2017-10-15T11:54:26.000Z</time>
      </trkpt>
      <trkpt lat="42.38514" lon="2.11532">
        <ele>2837</ele>
        <time>2017-10-15T11:55:05.000Z</time>
      </trkpt>
      <trkpt lat="42.38514" lon="2.11531">
        <ele>2837</ele>
        <time>2017-10-15T11:55:06.000Z</time>
      </trkpt>
      <trkpt lat="42.38514" lon="2.1153">
        <ele>2836</ele>
        <time>2017-10-15T11:55:07.000Z</time>
      </trkpt>
      <trkpt lat="42.38514" lon="2.11529">
        <ele>2836</ele>
        <time>2017-10-15T11:55:08.000Z</time>
      </trkpt>
      <trkpt lat="42.38513" lon="2.11528">
        <ele>2836</ele>
        <time>2017-10-15T11:55:09.000Z</time>
      </trkpt>
      <trkpt lat="42.38513" lon="2.11527">
        <ele>2836</ele>
        <time>2017-10-15T11:55:10.000Z</time>
      </trkpt>
      <trkpt lat="42.38513" lon="2.11526">
        <ele>2836</ele>
        <time>2017-10-15T11:55:11.000Z</time>
      </trkpt>
      <trkpt lat="42.38513" lon="2.11525">
        <ele>2835</ele>
        <time>2017-10-15T11:55:12.000Z</time>
      </trkpt>
      <trkpt lat="42.38514" lon="2.11524">
        <ele>2835</ele>
        <time>2017-10-15T11:55:13.000Z</time>
      </trkpt>
      <trkpt lat="42.38514" lon="2.11523">
        <ele>2835</ele>
        <time>2017-10-15T11:55:14.000Z</time>
      </trkpt>
      <trkpt lat="42.38515" lon="2.11523">
        <ele>2834</ele>
        <time>2017-10-15T11:55:15.000Z</time>
      </trkpt>
      <trkpt lat="42.38515" lon="2.11522">
        <ele>2834</ele>
        <time>2017-10-15T11:55:16.000Z</time>
      </trkpt>
      <trkpt lat="42.38515" lon="2.11521">
        <ele>2834</ele>
        <time>2017-10-15T11:55:17.000Z</time>
      </trkpt>
      <trkpt lat="42.38516" lon="2.11521">
        <ele>2833</ele>
        <time>2017-10-15T11:55:18.000Z</time>
      </trkpt>
      <trkpt lat="42.38517" lon="2.11521">
        <ele>2833</ele>
        <time>2017-10-15T11:55:19.000Z</time>
      </trkpt>
      <trkpt lat="42.38517" lon="2.11521">
        <ele>2833</ele>
        <time>2017-10-15T11:55:20.000Z</time>
      </trkpt>
      <trkpt lat="42.38518" lon="2.1152">
        <ele>2833</ele>
        <time>2017-10-15T11:55:21.000Z</time>
      </trkpt>
      <trkpt lat="42.38518" lon="2.1152">
        <ele>2833</ele>
        <time>2017-10-15T11:55:22.000Z</time>
      </trkpt>
      <trkpt lat="42.38519" lon="2.1152">
        <ele>2832</ele>
        <time>2017-10-15T11:55:23.000Z</time>
      </trkpt>
      <trkpt lat="42.38519" lon="2.1152">
        <ele>2832</ele>
        <time>2017-10-15T11:55:24.000Z</time>
      </trkpt>
      <trkpt lat="42.3852" lon="2.1152">
        <ele>2832</ele>
        <time>2017-10-15T11:55:25.000Z</time>
      </trkpt>
      <trkpt lat="42.3852" lon="2.11519">
        <ele>2832</ele>
        <time>2017-10-15T11:55:26.000Z</time>
      </trkpt>
      <trkpt lat="42.38521" lon="2.11519">
        <ele>2831</ele>
        <time>2017-10-15T11:55:27.000Z</time>
      </trkpt>
      <trkpt lat="42.38521" lon="2.11519">
        <ele>2831</ele>
        <time>2017-10-15T11:55:28.000Z</time>
      </trkpt>
      <trkpt lat="42.38522" lon="2.11519">
        <ele>2831</ele>
        <time>2017-10-15T11:55:29.000Z</time>
      </trkpt>
      <trkpt lat="42.38523" lon="2.11519">
        <ele>2831</ele>
        <time>2017-10-15T11:55:30.000Z</time>
      </trkpt>
      <trkpt lat="42.38524" lon="2.11519">
        <ele>2830</ele>
        <time>2017-10-15T11:55:31.000Z</time>
      </trkpt>
      <trkpt lat="42.38524" lon="2.11519">
        <ele>2830</ele>
        <time>2017-10-15T11:55:32.000Z</time>
      </trkpt>
      <trkpt lat="42.38525" lon="2.1152">
        <ele>2830</ele>
        <time>2017-10-15T11:55:33.000Z</time>
      </trkpt>
      <trkpt lat="42.38526" lon="2.1152">
        <ele>2830</ele>
        <time>2017-10-15T11:55:34.000Z</time>
      </trkpt>
      <trkpt lat="42.38527" lon="2.1152">
        <ele>2830</ele>
        <time>2017-10-15T11:55:35.000Z</time>
      </trkpt>
      <trkpt lat="42.38527" lon="2.1152">
        <ele>2830</ele>
        <time>2017-10-15T11:55:36.000Z</time>
      </trkpt>
      <trkpt lat="42.38528" lon="2.11521">
        <ele>2829</ele>
        <time>2017-10-15T11:55:37.000Z</time>
      </trkpt>
      <trkpt lat="42.38529" lon="2.11521">
        <ele>2829</ele>
        <time>2017-10-15T11:55:38.000Z</time>
      </trkpt>
      <trkpt lat="42.3853" lon="2.11522">
        <ele>2829</ele>
        <time>2017-10-15T11:55:39.000Z</time>
      </trkpt>
      <trkpt lat="42.3853" lon="2.11522">
        <ele>2829</ele>
        <time>2017-10-15T11:55:40.000Z</time>
      </trkpt>
      <trkpt lat="42.38531" lon="2.11523">
        <ele>2829</ele>
        <time>2017-10-15T11:55:41.000Z</time>
      </trkpt>
      <trkpt lat="42.38532" lon="2.11523">
        <ele>2829</ele>
        <time>2017-10-15T11:55:42.000Z</time>
      </trkpt>
      <trkpt lat="42.38532" lon="2.11523">
        <ele>2829</ele>
        <time>2017-10-15T11:55:43.000Z</time>
      </trkpt>
      <trkpt lat="42.38532" lon="2.11524">
        <ele>2829</ele>
        <time>2017-10-15T11:55:44.000Z</time>
      </trkpt>
      <trkpt lat="42.38533" lon="2.11524">
        <ele>2829</ele>
        <time>2017-10-15T11:55:45.000Z</time>
      </trkpt>
      <trkpt lat="42.38534" lon="2.11525">
        <ele>2828</ele>
        <time>2017-10-15T11:55:46.000Z</time>
      </trkpt>
      <trkpt lat="42.38534" lon="2.11525">
        <ele>2828</ele>
        <time>2017-10-15T11:55:47.000Z</time>
      </trkpt>
      <trkpt lat="42.38535" lon="2.11525">
        <ele>2828</ele>
        <time>2017-10-15T11:55:48.000Z</time>
      </trkpt>
      <trkpt lat="42.38535" lon="2.11525">
        <ele>2828</ele>
        <time>2017-10-15T11:55:49.000Z</time>
      </trkpt>
      <trkpt lat="42.38536" lon="2.11525">
        <ele>2828</ele>
        <time>2017-10-15T11:55:50.000Z</time>
      </trkpt>
      <trkpt lat="42.38537" lon="2.11526">
        <ele>2828</ele>
        <time>2017-10-15T11:55:51.000Z</time>
      </trkpt>
      <trkpt lat="42.38538" lon="2.11526">
        <ele>2828</ele>
        <time>2017-10-15T11:55:52.000Z</time>
      </trkpt>
      <trkpt lat="42.38538" lon="2.11526">
        <ele>2828</ele>
        <time>2017-10-15T11:55:53.000Z</time>
      </trkpt>
      <trkpt lat="42.38539" lon="2.11527">
        <ele>2827</ele>
        <time>2017-10-15T11:55:54.000Z</time>
      </trkpt>
      <trkpt lat="42.38539" lon="2.11527">
        <ele>2827</ele>
        <time>2017-10-15T11:55:55.000Z</time>
      </trkpt>
      <trkpt lat="42.38539" lon="2.11528">
        <ele>2827</ele>
        <time>2017-10-15T11:55:56.000Z</time>
      </trkpt>
      <trkpt lat="42.3854" lon="2.11528">
        <ele>2827</ele>
        <time>2017-10-15T11:55:57.000Z</time>
      </trkpt>
      <trkpt lat="42.3854" lon="2.11529">
        <ele>2827</ele>
        <time>2017-10-15T11:55:58.000Z</time>
      </trkpt>
      <trkpt lat="42.38541" lon="2.11529">
        <ele>2827</ele>
        <time>2017-10-15T11:55:59.000Z</time>
      </trkpt>
      <trkpt lat="42.38542" lon="2.11529">
        <ele>2827</ele>
        <time>2017-10-15T11:56:00.000Z</time>
      </trkpt>
      <trkpt lat="42.38542" lon="2.11529">
        <ele>2827</ele>
        <time>2017-10-15T11:56:01.000Z</time>
      </trkpt>
      <trkpt lat="42.38543" lon="2.1153">
        <ele>2827</ele>
        <time>2017-10-15T11:56:02.000Z</time>
      </trkpt>
      <trkpt lat="42.38544" lon="2.1153">
        <ele>2827</ele>
        <time>2017-10-15T11:56:03.000Z</time>
      </trkpt>
      <trkpt lat="42.38544" lon="2.11531">
        <ele>2826</ele>
        <time>2017-10-15T11:56:04.000Z</time>
      </trkpt>
      <trkpt lat="42.38545" lon="2.11531">
        <ele>2826</ele>
        <time>2017-10-15T11:56:05.000Z</time>
      </trkpt>
      <trkpt lat="42.38545" lon="2.11531">
        <ele>2826</ele>
        <time>2017-10-15T11:56:06.000Z</time>
      </trkpt>
      <trkpt lat="42.38546" lon="2.11531">
        <ele>2826</ele>
        <time>2017-10-15T11:56:07.000Z</time>
      </trkpt>
      <trkpt lat="42.38546" lon="2.11532">
        <ele>2826</ele>
        <time>2017-10-15T11:56:08.000Z</time>
      </trkpt>
      <trkpt lat="42.38547" lon="2.11532">
        <ele>2826</ele>
        <time>2017-10-15T11:56:09.000Z</time>
      </trkpt>
      <trkpt lat="42.38548" lon="2.11532">
        <ele>2826</ele>
        <time>2017-10-15T11:56:10.000Z</time>
      </trkpt>
      <trkpt lat="42.38548" lon="2.11533">
        <ele>2826</ele>
        <time>2017-10-15T11:56:11.000Z</time>
      </trkpt>
      <trkpt lat="42.38549" lon="2.11533">
        <ele>2826</ele>
        <time>2017-10-15T11:56:12.000Z</time>
      </trkpt>
      <trkpt lat="42.3855" lon="2.11533">
        <ele>2825</ele>
        <time>2017-10-15T11:56:13.000Z</time>
      </trkpt>
      <trkpt lat="42.3855" lon="2.11534">
        <ele>2825</ele>
        <time>2017-10-15T11:56:14.000Z</time>
      </trkpt>
      <trkpt lat="42.38551" lon="2.11535">
        <ele>2825</ele>
        <time>2017-10-15T11:56:15.000Z</time>
      </trkpt>
      <trkpt lat="42.38551" lon="2.11536">
        <ele>2825</ele>
        <time>2017-10-15T11:56:16.000Z</time>
      </trkpt>
      <trkpt lat="42.38551" lon="2.11536">
        <ele>2825</ele>
        <time>2017-10-15T11:56:17.000Z</time>
      </trkpt>
      <trkpt lat="42.38552" lon="2.11536">
        <ele>2825</ele>
        <time>2017-10-15T11:56:18.000Z</time>
      </trkpt>
      <trkpt lat="42.38553" lon="2.11537">
        <ele>2825</ele>
        <time>2017-10-15T11:56:19.000Z</time>
      </trkpt>
      <trkpt lat="42.38553" lon="2.11538">
        <ele>2825</ele>
        <time>2017-10-15T11:56:20.000Z</time>
      </trkpt>
      <trkpt lat="42.38554" lon="2.11538">
        <ele>2825</ele>
        <time>2017-10-15T11:56:21.000Z</time>
      </trkpt>
      <trkpt lat="42.38555" lon="2.11539">
        <ele>2825</ele>
        <time>2017-10-15T11:56:22.000Z</time>
      </trkpt>
      <trkpt lat="42.38555" lon="2.1154">
        <ele>2825</ele>
        <time>2017-10-15T11:56:23.000Z</time>
      </trkpt>
      <trkpt lat="42.38556" lon="2.11541">
        <ele>2825</ele>
        <time>2017-10-15T11:56:24.000Z</time>
      </trkpt>
      <trkpt lat="42.38556" lon="2.11542">
        <ele>2825</ele>
        <time>2017-10-15T11:56:25.000Z</time>
      </trkpt>
      <trkpt lat="42.38557" lon="2.11542">
        <ele>2825</ele>
        <time>2017-10-15T11:56:26.000Z</time>
      </trkpt>
      <trkpt lat="42.38557" lon="2.11543">
        <ele>2825</ele>
        <time>2017-10-15T11:56:27.000Z</time>
      </trkpt>
      <trkpt lat="42.38558" lon="2.11543">
        <ele>2824</ele>
        <time>2017-10-15T11:56:28.000Z</time>
      </trkpt>
      <trkpt lat="42.38558" lon="2.11543">
        <ele>2824</ele>
        <time>2017-10-15T11:56:29.000Z</time>
      </trkpt>
      <trkpt lat="42.38559" lon="2.11544">
        <ele>2824</ele>
        <time>2017-10-15T11:56:30.000Z</time>
      </trkpt>
      <trkpt lat="42.3856" lon="2.11544">
        <ele>2824</ele>
        <time>2017-10-15T11:56:31.000Z</time>
      </trkpt>
      <trkpt lat="42.3856" lon="2.11544">
        <ele>2824</ele>
        <time>2017-10-15T11:56:32.000Z</time>
      </trkpt>
      <trkpt lat="42.38561" lon="2.11544">
        <ele>2824</ele>
        <time>2017-10-15T11:56:33.000Z</time>
      </trkpt>
      <trkpt lat="42.38562" lon="2.11545">
        <ele>2824</ele>
        <time>2017-10-15T11:56:34.000Z</time>
      </trkpt>
      <trkpt lat="42.38563" lon="2.11545">
        <ele>2823</ele>
        <time>2017-10-15T11:56:35.000Z</time>
      </trkpt>
      <trkpt lat="42.38563" lon="2.11545">
        <ele>2823</ele>
        <time>2017-10-15T11:56:36.000Z</time>
      </trkpt>
      <trkpt lat="42.38564" lon="2.11545">
        <ele>2823</ele>
        <time>2017-10-15T11:56:37.000Z</time>
      </trkpt>
      <trkpt lat="42.38565" lon="2.11545">
        <ele>2823</ele>
        <time>2017-10-15T11:56:38.000Z</time>
      </trkpt>
      <trkpt lat="42.38566" lon="2.11544">
        <ele>2823</ele>
        <time>2017-10-15T11:56:39.000Z</time>
      </trkpt>
      <trkpt lat="42.38567" lon="2.11545">
        <ele>2822</ele>
        <time>2017-10-15T11:56:40.000Z</time>
      </trkpt>
      <trkpt lat="42.38568" lon="2.11545">
        <ele>2822</ele>
        <time>2017-10-15T11:56:41.000Z</time>
      </trkpt>
      <trkpt lat="42.38569" lon="2.11545">
        <ele>2822</ele>
        <time>2017-10-15T11:56:42.000Z</time>
      </trkpt>
      <trkpt lat="42.3857" lon="2.11544">
        <ele>2822</ele>
        <time>2017-10-15T11:56:43.000Z</time>
      </trkpt>
      <trkpt lat="42.38571" lon="2.11544">
        <ele>2821</ele>
        <time>2017-10-15T11:56:44.000Z</time>
      </trkpt>
      <trkpt lat="42.38572" lon="2.11543">
        <ele>2821</ele>
        <time>2017-10-15T11:56:45.000Z</time>
      </trkpt>
      <trkpt lat="42.38574" lon="2.11543">
        <ele>2821</ele>
        <time>2017-10-15T11:56:46.000Z</time>
      </trkpt>
      <trkpt lat="42.38575" lon="2.11542">
        <ele>2820</ele>
        <time>2017-10-15T11:56:47.000Z</time>
      </trkpt>
      <trkpt lat="42.38576" lon="2.11541">
        <ele>2820</ele>
        <time>2017-10-15T11:56:48.000Z</time>
      </trkpt>
      <trkpt lat="42.38577" lon="2.11541">
        <ele>2820</ele>
        <time>2017-10-15T11:56:49.000Z</time>
      </trkpt>
      <trkpt lat="42.38578" lon="2.1154">
        <ele>2819</ele>
        <time>2017-10-15T11:56:50.000Z</time>
      </trkpt>
      <trkpt lat="42.38579" lon="2.1154">
        <ele>2819</ele>
        <time>2017-10-15T11:56:51.000Z</time>
      </trkpt>
      <trkpt lat="42.3858" lon="2.1154">
        <ele>2819</ele>
        <time>2017-10-15T11:56:52.000Z</time>
      </trkpt>
      <trkpt lat="42.38581" lon="2.11539">
        <ele>2818</ele>
        <time>2017-10-15T11:56:53.000Z</time>
      </trkpt>
      <trkpt lat="42.38582" lon="2.11539">
        <ele>2818</ele>
        <time>2017-10-15T11:56:54.000Z</time>
      </trkpt>
      <trkpt lat="42.38583" lon="2.11538">
        <ele>2818</ele>
        <time>2017-10-15T11:56:55.000Z</time>
      </trkpt>
      <trkpt lat="42.38584" lon="2.11538">
        <ele>2817</ele>
        <time>2017-10-15T11:56:56.000Z</time>
      </trkpt>
      <trkpt lat="42.38585" lon="2.11538">
        <ele>2817</ele>
        <time>2017-10-15T11:56:57.000Z</time>
      </trkpt>
      <trkpt lat="42.38586" lon="2.11537">
        <ele>2817</ele>
        <time>2017-10-15T11:56:58.000Z</time>
      </trkpt>
      <trkpt lat="42.38586" lon="2.11536">
        <ele>2817</ele>
        <time>2017-10-15T11:56:59.000Z</time>
      </trkpt>
      <trkpt lat="42.38587" lon="2.11535">
        <ele>2816</ele>
        <time>2017-10-15T11:57:00.000Z</time>
      </trkpt>
      <trkpt lat="42.38588" lon="2.11534">
        <ele>2816</ele>
        <time>2017-10-15T11:57:01.000Z</time>
      </trkpt>
      <trkpt lat="42.38589" lon="2.11534">
        <ele>2816</ele>
        <time>2017-10-15T11:57:02.000Z</time>
      </trkpt>
      <trkpt lat="42.3859" lon="2.11535">
        <ele>2815</ele>
        <time>2017-10-15T11:57:03.000Z</time>
      </trkpt>
      <trkpt lat="42.38591" lon="2.11536">
        <ele>2815</ele>
        <time>2017-10-15T11:57:04.000Z</time>
      </trkpt>
      <trkpt lat="42.38591" lon="2.11536">
        <ele>2815</ele>
        <time>2017-10-15T11:57:05.000Z</time>
      </trkpt>
      <trkpt lat="42.38592" lon="2.11537">
        <ele>2815</ele>
        <time>2017-10-15T11:57:06.000Z</time>
      </trkpt>
      <trkpt lat="42.38593" lon="2.11537">
        <ele>2815</ele>
        <time>2017-10-15T11:57:07.000Z</time>
      </trkpt>
      <trkpt lat="42.38593" lon="2.11538">
        <ele>2815</ele>
        <time>2017-10-15T11:57:08.000Z</time>
      </trkpt>
      <trkpt lat="42.38594" lon="2.11538">
        <ele>2814</ele>
        <time>2017-10-15T11:57:09.000Z</time>
      </trkpt>
      <trkpt lat="42.38595" lon="2.11539">
        <ele>2814</ele>
        <time>2017-10-15T11:57:10.000Z</time>
      </trkpt>
      <trkpt lat="42.38596" lon="2.11539">
        <ele>2814</ele>
        <time>2017-10-15T11:57:11.000Z</time>
      </trkpt>
      <trkpt lat="42.38597" lon="2.11538">
        <ele>2814</ele>
        <time>2017-10-15T11:57:12.000Z</time>
      </trkpt>
      <trkpt lat="42.38597" lon="2.11538">
        <ele>2813</ele>
        <time>2017-10-15T11:57:13.000Z</time>
      </trkpt>
      <trkpt lat="42.38598" lon="2.11537">
        <ele>2813</ele>
        <time>2017-10-15T11:57:14.000Z</time>
      </trkpt>
      <trkpt lat="42.38599" lon="2.11536">
        <ele>2813</ele>
        <time>2017-10-15T11:57:15.000Z</time>
      </trkpt>
      <trkpt lat="42.386" lon="2.11535">
        <ele>2812</ele>
        <time>2017-10-15T11:57:16.000Z</time>
      </trkpt>
      <trkpt lat="42.38601" lon="2.11534">
        <ele>2812</ele>
        <time>2017-10-15T11:57:17.000Z</time>
      </trkpt>
      <trkpt lat="42.38602" lon="2.11533">
        <ele>2811</ele>
        <time>2017-10-15T11:57:18.000Z</time>
      </trkpt>
      <trkpt lat="42.38603" lon="2.11533">
        <ele>2811</ele>
        <time>2017-10-15T11:57:19.000Z</time>
      </trkpt>
      <trkpt lat="42.38604" lon="2.11532">
        <ele>2811</ele>
        <time>2017-10-15T11:57:20.000Z</time>
      </trkpt>
      <trkpt lat="42.38605" lon="2.11531">
        <ele>2810</ele>
        <time>2017-10-15T11:57:21.000Z</time>
      </trkpt>
      <trkpt lat="42.38606" lon="2.1153">
        <ele>2810</ele>
        <time>2017-10-15T11:57:22.000Z</time>
      </trkpt>
      <trkpt lat="42.38607" lon="2.1153">
        <ele>2809</ele>
        <time>2017-10-15T11:57:23.000Z</time>
      </trkpt>
      <trkpt lat="42.38608" lon="2.11529">
        <ele>2809</ele>
        <time>2017-10-15T11:57:24.000Z</time>
      </trkpt>
      <trkpt lat="42.38609" lon="2.11528">
        <ele>2809</ele>
        <time>2017-10-15T11:57:25.000Z</time>
      </trkpt>
      <trkpt lat="42.3861" lon="2.11527">
        <ele>2808</ele>
        <time>2017-10-15T11:57:26.000Z</time>
      </trkpt>
      <trkpt lat="42.3861" lon="2.11526">
        <ele>2808</ele>
        <time>2017-10-15T11:57:27.000Z</time>
      </trkpt>
      <trkpt lat="42.38611" lon="2.11525">
        <ele>2808</ele>
        <time>2017-10-15T11:57:28.000Z</time>
      </trkpt>
      <trkpt lat="42.38612" lon="2.11524">
        <ele>2807</ele>
        <time>2017-10-15T11:57:29.000Z</time>
      </trkpt>
      <trkpt lat="42.38613" lon="2.11524">
        <ele>2807</ele>
        <time>2017-10-15T11:57:30.000Z</time>
      </trkpt>
      <trkpt lat="42.38614" lon="2.11523">
        <ele>2807</ele>
        <time>2017-10-15T11:57:31.000Z</time>
      </trkpt>
      <trkpt lat="42.38615" lon="2.11522">
        <ele>2807</ele>
        <time>2017-10-15T11:57:32.000Z</time>
      </trkpt>
      <trkpt lat="42.38616" lon="2.11521">
        <ele>2807</ele>
        <time>2017-10-15T11:57:33.000Z</time>
      </trkpt>
      <trkpt lat="42.38616" lon="2.11521">
        <ele>2807</ele>
        <time>2017-10-15T11:57:34.000Z</time>
      </trkpt>
      <trkpt lat="42.38617" lon="2.1152">
        <ele>2807</ele>
        <time>2017-10-15T11:57:35.000Z</time>
      </trkpt>
      <trkpt lat="42.38618" lon="2.1152">
        <ele>2806</ele>
        <time>2017-10-15T11:57:36.000Z</time>
      </trkpt>
      <trkpt lat="42.38619" lon="2.11521">
        <ele>2806</ele>
        <time>2017-10-15T11:57:37.000Z</time>
      </trkpt>
      <trkpt lat="42.38619" lon="2.1152">
        <ele>2806</ele>
        <time>2017-10-15T11:57:38.000Z</time>
      </trkpt>
      <trkpt lat="42.3862" lon="2.1152">
        <ele>2806</ele>
        <time>2017-10-15T11:57:39.000Z</time>
      </trkpt>
      <trkpt lat="42.38621" lon="2.11519">
        <ele>2806</ele>
        <time>2017-10-15T11:57:40.000Z</time>
      </trkpt>
      <trkpt lat="42.38621" lon="2.11519">
        <ele>2806</ele>
        <time>2017-10-15T11:57:41.000Z</time>
      </trkpt>
      <trkpt lat="42.38622" lon="2.11519">
        <ele>2806</ele>
        <time>2017-10-15T11:57:42.000Z</time>
      </trkpt>
      <trkpt lat="42.38623" lon="2.1152">
        <ele>2806</ele>
        <time>2017-10-15T11:57:43.000Z</time>
      </trkpt>
      <trkpt lat="42.38623" lon="2.1152">
        <ele>2805</ele>
        <time>2017-10-15T11:57:44.000Z</time>
      </trkpt>
      <trkpt lat="42.38624" lon="2.1152">
        <ele>2805</ele>
        <time>2017-10-15T11:57:45.000Z</time>
      </trkpt>
      <trkpt lat="42.38624" lon="2.1152">
        <ele>2805</ele>
        <time>2017-10-15T11:57:46.000Z</time>
      </trkpt>
      <trkpt lat="42.38625" lon="2.11519">
        <ele>2805</ele>
        <time>2017-10-15T11:57:47.000Z</time>
      </trkpt>
      <trkpt lat="42.38625" lon="2.11519">
        <ele>2805</ele>
        <time>2017-10-15T11:57:48.000Z</time>
      </trkpt>
      <trkpt lat="42.38626" lon="2.11518">
        <ele>2805</ele>
        <time>2017-10-15T11:57:49.000Z</time>
      </trkpt>
      <trkpt lat="42.38626" lon="2.11518">
        <ele>2805</ele>
        <time>2017-10-15T11:57:50.000Z</time>
      </trkpt>
      <trkpt lat="42.38627" lon="2.11517">
        <ele>2805</ele>
        <time>2017-10-15T11:57:51.000Z</time>
      </trkpt>
      <trkpt lat="42.38627" lon="2.11516">
        <ele>2805</ele>
        <time>2017-10-15T11:57:52.000Z</time>
      </trkpt>
      <trkpt lat="42.38627" lon="2.11516">
        <ele>2805</ele>
        <time>2017-10-15T11:57:53.000Z</time>
      </trkpt>
      <trkpt lat="42.38628" lon="2.11515">
        <ele>2804</ele>
        <time>2017-10-15T11:57:54.000Z</time>
      </trkpt>
      <trkpt lat="42.38629" lon="2.11515">
        <ele>2804</ele>
        <time>2017-10-15T11:57:55.000Z</time>
      </trkpt>
      <trkpt lat="42.3863" lon="2.11515">
        <ele>2804</ele>
        <time>2017-10-15T11:57:56.000Z</time>
      </trkpt>
      <trkpt lat="42.38631" lon="2.11514">
        <ele>2804</ele>
        <time>2017-10-15T11:57:57.000Z</time>
      </trkpt>
      <trkpt lat="42.38632" lon="2.11514">
        <ele>2804</ele>
        <time>2017-10-15T11:57:58.000Z</time>
      </trkpt>
      <trkpt lat="42.38632" lon="2.11513">
        <ele>2804</ele>
        <time>2017-10-15T11:57:59.000Z</time>
      </trkpt>
      <trkpt lat="42.38633" lon="2.11513">
        <ele>2804</ele>
        <time>2017-10-15T11:58:00.000Z</time>
      </trkpt>
      <trkpt lat="42.38634" lon="2.11512">
        <ele>2803</ele>
        <time>2017-10-15T11:58:01.000Z</time>
      </trkpt>
      <trkpt lat="42.38635" lon="2.1151">
        <ele>2803</ele>
        <time>2017-10-15T11:58:02.000Z</time>
      </trkpt>
      <trkpt lat="42.38636" lon="2.1151">
        <ele>2803</ele>
        <time>2017-10-15T11:58:03.000Z</time>
      </trkpt>
      <trkpt lat="42.38637" lon="2.11509">
        <ele>2803</ele>
        <time>2017-10-15T11:58:04.000Z</time>
      </trkpt>
      <trkpt lat="42.38638" lon="2.11509">
        <ele>2803</ele>
        <time>2017-10-15T11:58:05.000Z</time>
      </trkpt>
      <trkpt lat="42.38639" lon="2.11508">
        <ele>2803</ele>
        <time>2017-10-15T11:58:06.000Z</time>
      </trkpt>
      <trkpt lat="42.3864" lon="2.11507">
        <ele>2802</ele>
        <time>2017-10-15T11:58:07.000Z</time>
      </trkpt>
      <trkpt lat="42.38641" lon="2.11507">
        <ele>2802</ele>
        <time>2017-10-15T11:58:08.000Z</time>
      </trkpt>
      <trkpt lat="42.38642" lon="2.11507">
        <ele>2802</ele>
        <time>2017-10-15T11:58:09.000Z</time>
      </trkpt>
      <trkpt lat="42.38642" lon="2.11507">
        <ele>2802</ele>
        <time>2017-10-15T11:58:10.000Z</time>
      </trkpt>
      <trkpt lat="42.38643" lon="2.11507">
        <ele>2802</ele>
        <time>2017-10-15T11:58:11.000Z</time>
      </trkpt>
      <trkpt lat="42.38644" lon="2.11507">
        <ele>2802</ele>
        <time>2017-10-15T11:58:12.000Z</time>
      </trkpt>
      <trkpt lat="42.38645" lon="2.11506">
        <ele>2802</ele>
        <time>2017-10-15T11:58:13.000Z</time>
      </trkpt>
      <trkpt lat="42.38646" lon="2.11507">
        <ele>2801</ele>
        <time>2017-10-15T11:58:14.000Z</time>
      </trkpt>
      <trkpt lat="42.38646" lon="2.11507">
        <ele>2801</ele>
        <time>2017-10-15T11:58:15.000Z</time>
      </trkpt>
      <trkpt lat="42.38647" lon="2.11508">
        <ele>2801</ele>
        <time>2017-10-15T11:58:16.000Z</time>
      </trkpt>
      <trkpt lat="42.38648" lon="2.11508">
        <ele>2801</ele>
        <time>2017-10-15T11:58:17.000Z</time>
      </trkpt>
      <trkpt lat="42.38648" lon="2.11509">
        <ele>2801</ele>
        <time>2017-10-15T11:58:18.000Z</time>
      </trkpt>
      <trkpt lat="42.38649" lon="2.11509">
        <ele>2801</ele>
        <time>2017-10-15T11:58:19.000Z</time>
      </trkpt>
      <trkpt lat="42.3865" lon="2.11509">
        <ele>2801</ele>
        <time>2017-10-15T11:58:20.000Z</time>
      </trkpt>
      <trkpt lat="42.3865" lon="2.11509">
        <ele>2800</ele>
        <time>2017-10-15T11:58:21.000Z</time>
      </trkpt>
      <trkpt lat="42.38651" lon="2.1151">
        <ele>2800</ele>
        <time>2017-10-15T11:58:22.000Z</time>
      </trkpt>
      <trkpt lat="42.38651" lon="2.1151">
        <ele>2800</ele>
        <time>2017-10-15T11:58:23.000Z</time>
      </trkpt>
      <trkpt lat="42.38652" lon="2.1151">
        <ele>2800</ele>
        <time>2017-10-15T11:58:24.000Z</time>
      </trkpt>
      <trkpt lat="42.38652" lon="2.11511">
        <ele>2800</ele>
        <time>2017-10-15T11:58:25.000Z</time>
      </trkpt>
      <trkpt lat="42.38653" lon="2.11511">
        <ele>2800</ele>
        <time>2017-10-15T11:58:26.000Z</time>
      </trkpt>
      <trkpt lat="42.38654" lon="2.11511">
        <ele>2800</ele>
        <time>2017-10-15T11:58:27.000Z</time>
      </trkpt>
      <trkpt lat="42.38655" lon="2.11512">
        <ele>2799</ele>
        <time>2017-10-15T11:58:28.000Z</time>
      </trkpt>
      <trkpt lat="42.38656" lon="2.11512">
        <ele>2799</ele>
        <time>2017-10-15T11:58:29.000Z</time>
      </trkpt>
      <trkpt lat="42.38657" lon="2.11512">
        <ele>2799</ele>
        <time>2017-10-15T11:58:30.000Z</time>
      </trkpt>
      <trkpt lat="42.38657" lon="2.11513">
        <ele>2799</ele>
        <time>2017-10-15T11:58:31.000Z</time>
      </trkpt>
      <trkpt lat="42.38658" lon="2.11513">
        <ele>2799</ele>
        <time>2017-10-15T11:58:32.000Z</time>
      </trkpt>
      <trkpt lat="42.38658" lon="2.11513">
        <ele>2799</ele>
        <time>2017-10-15T11:58:33.000Z</time>
      </trkpt>
      <trkpt lat="42.38659" lon="2.11513">
        <ele>2799</ele>
        <time>2017-10-15T11:58:34.000Z</time>
      </trkpt>
      <trkpt lat="42.3866" lon="2.11513">
        <ele>2798</ele>
        <time>2017-10-15T11:58:35.000Z</time>
      </trkpt>
      <trkpt lat="42.38661" lon="2.11512">
        <ele>2798</ele>
        <time>2017-10-15T11:58:36.000Z</time>
      </trkpt>
      <trkpt lat="42.38661" lon="2.11512">
        <ele>2798</ele>
        <time>2017-10-15T11:58:37.000Z</time>
      </trkpt>
      <trkpt lat="42.38662" lon="2.11511">
        <ele>2798</ele>
        <time>2017-10-15T11:58:38.000Z</time>
      </trkpt>
      <trkpt lat="42.38663" lon="2.11511">
        <ele>2798</ele>
        <time>2017-10-15T11:58:39.000Z</time>
      </trkpt>
      <trkpt lat="42.38663" lon="2.1151">
        <ele>2798</ele>
        <time>2017-10-15T11:58:40.000Z</time>
      </trkpt>
      <trkpt lat="42.38664" lon="2.1151">
        <ele>2798</ele>
        <time>2017-10-15T11:58:41.000Z</time>
      </trkpt>
      <trkpt lat="42.38664" lon="2.11509">
        <ele>2798</ele>
        <time>2017-10-15T11:58:42.000Z</time>
      </trkpt>
      <trkpt lat="42.38665" lon="2.11509">
        <ele>2798</ele>
        <time>2017-10-15T11:58:43.000Z</time>
      </trkpt>
      <trkpt lat="42.38666" lon="2.11509">
        <ele>2797</ele>
        <time>2017-10-15T11:58:44.000Z</time>
      </trkpt>
      <trkpt lat="42.38666" lon="2.11509">
        <ele>2797</ele>
        <time>2017-10-15T11:58:45.000Z</time>
      </trkpt>
      <trkpt lat="42.38667" lon="2.11509">
        <ele>2797</ele>
        <time>2017-10-15T11:58:46.000Z</time>
      </trkpt>
      <trkpt lat="42.38667" lon="2.11509">
        <ele>2796</ele>
        <time>2017-10-15T11:58:47.000Z</time>
      </trkpt>
      <trkpt lat="42.38668" lon="2.11509">
        <ele>2796</ele>
        <time>2017-10-15T11:58:48.000Z</time>
      </trkpt>
      <trkpt lat="42.38669" lon="2.1151">
        <ele>2796</ele>
        <time>2017-10-15T11:58:49.000Z</time>
      </trkpt>
      <trkpt lat="42.3867" lon="2.1151">
        <ele>2795</ele>
        <time>2017-10-15T11:58:50.000Z</time>
      </trkpt>
      <trkpt lat="42.3867" lon="2.11511">
        <ele>2795</ele>
        <time>2017-10-15T11:58:51.000Z</time>
      </trkpt>
      <trkpt lat="42.38671" lon="2.11511">
        <ele>2795</ele>
        <time>2017-10-15T11:58:52.000Z</time>
      </trkpt>
      <trkpt lat="42.38671" lon="2.1151">
        <ele>2795</ele>
        <time>2017-10-15T11:58:53.000Z</time>
      </trkpt>
      <trkpt lat="42.38672" lon="2.11509">
        <ele>2794</ele>
        <time>2017-10-15T11:58:54.000Z</time>
      </trkpt>
      <trkpt lat="42.38672" lon="2.11509">
        <ele>2794</ele>
        <time>2017-10-15T11:58:55.000Z</time>
      </trkpt>
      <trkpt lat="42.38673" lon="2.11508">
        <ele>2794</ele>
        <time>2017-10-15T11:58:56.000Z</time>
      </trkpt>
      <trkpt lat="42.38674" lon="2.11507">
        <ele>2794</ele>
        <time>2017-10-15T11:58:57.000Z</time>
      </trkpt>
      <trkpt lat="42.38674" lon="2.11507">
        <ele>2793</ele>
        <time>2017-10-15T11:58:58.000Z</time>
      </trkpt>
      <trkpt lat="42.38675" lon="2.11506">
        <ele>2793</ele>
        <time>2017-10-15T11:58:59.000Z</time>
      </trkpt>
      <trkpt lat="42.38676" lon="2.11506">
        <ele>2793</ele>
        <time>2017-10-15T11:59:00.000Z</time>
      </trkpt>
      <trkpt lat="42.38677" lon="2.11506">
        <ele>2792</ele>
        <time>2017-10-15T11:59:01.000Z</time>
      </trkpt>
      <trkpt lat="42.38677" lon="2.11507">
        <ele>2792</ele>
        <time>2017-10-15T11:59:02.000Z</time>
      </trkpt>
      <trkpt lat="42.38678" lon="2.11507">
        <ele>2792</ele>
        <time>2017-10-15T11:59:03.000Z</time>
      </trkpt>
      <trkpt lat="42.38678" lon="2.11506">
        <ele>2792</ele>
        <time>2017-10-15T11:59:04.000Z</time>
      </trkpt>
      <trkpt lat="42.38679" lon="2.11506">
        <ele>2792</ele>
        <time>2017-10-15T11:59:05.000Z</time>
      </trkpt>
      <trkpt lat="42.38679" lon="2.11506">
        <ele>2792</ele>
        <time>2017-10-15T11:59:06.000Z</time>
      </trkpt>
      <trkpt lat="42.3868" lon="2.11506">
        <ele>2791</ele>
        <time>2017-10-15T11:59:07.000Z</time>
      </trkpt>
      <trkpt lat="42.38681" lon="2.11506">
        <ele>2791</ele>
        <time>2017-10-15T11:59:08.000Z</time>
      </trkpt>
      <trkpt lat="42.38682" lon="2.11506">
        <ele>2791</ele>
        <time>2017-10-15T11:59:09.000Z</time>
      </trkpt>
      <trkpt lat="42.38683" lon="2.11506">
        <ele>2791</ele>
        <time>2017-10-15T11:59:10.000Z</time>
      </trkpt>
      <trkpt lat="42.38683" lon="2.11506">
        <ele>2791</ele>
        <time>2017-10-15T11:59:11.000Z</time>
      </trkpt>
      <trkpt lat="42.38684" lon="2.11505">
        <ele>2791</ele>
        <time>2017-10-15T11:59:12.000Z</time>
      </trkpt>
      <trkpt lat="42.38685" lon="2.11505">
        <ele>2791</ele>
        <time>2017-10-15T11:59:13.000Z</time>
      </trkpt>
      <trkpt lat="42.38686" lon="2.11505">
        <ele>2790</ele>
        <time>2017-10-15T11:59:14.000Z</time>
      </trkpt>
      <trkpt lat="42.38687" lon="2.11505">
        <ele>2790</ele>
        <time>2017-10-15T11:59:15.000Z</time>
      </trkpt>
      <trkpt lat="42.38687" lon="2.11505">
        <ele>2790</ele>
        <time>2017-10-15T11:59:16.000Z</time>
      </trkpt>
      <trkpt lat="42.38688" lon="2.11505">
        <ele>2790</ele>
        <time>2017-10-15T11:59:17.000Z</time>
      </trkpt>
      <trkpt lat="42.38689" lon="2.11505">
        <ele>2790</ele>
        <time>2017-10-15T11:59:18.000Z</time>
      </trkpt>
      <trkpt lat="42.38689" lon="2.11505">
        <ele>2790</ele>
        <time>2017-10-15T11:59:19.000Z</time>
      </trkpt>
      <trkpt lat="42.3869" lon="2.11505">
        <ele>2789</ele>
        <time>2017-10-15T11:59:20.000Z</time>
      </trkpt>
      <trkpt lat="42.3869" lon="2.11504">
        <ele>2789</ele>
        <time>2017-10-15T11:59:21.000Z</time>
      </trkpt>
      <trkpt lat="42.38691" lon="2.11504">
        <ele>2790</ele>
        <time>2017-10-15T11:59:22.000Z</time>
      </trkpt>
      <trkpt lat="42.38691" lon="2.11502">
        <ele>2790</ele>
        <time>2017-10-15T11:59:23.000Z</time>
      </trkpt>
      <trkpt lat="42.38692" lon="2.11501">
        <ele>2790</ele>
        <time>2017-10-15T11:59:24.000Z</time>
      </trkpt>
      <trkpt lat="42.38692" lon="2.11501">
        <ele>2790</ele>
        <time>2017-10-15T11:59:25.000Z</time>
      </trkpt>
      <trkpt lat="42.38693" lon="2.11501">
        <ele>2790</ele>
        <time>2017-10-15T11:59:26.000Z</time>
      </trkpt>
      <trkpt lat="42.38694" lon="2.115">
        <ele>2790</ele>
        <time>2017-10-15T11:59:27.000Z</time>
      </trkpt>
      <trkpt lat="42.38694" lon="2.115">
        <ele>2790</ele>
        <time>2017-10-15T11:59:28.000Z</time>
      </trkpt>
      <trkpt lat="42.38695" lon="2.115">
        <ele>2790</ele>
        <time>2017-10-15T11:59:29.000Z</time>
      </trkpt>
      <trkpt lat="42.38696" lon="2.115">
        <ele>2789</ele>
        <time>2017-10-15T11:59:30.000Z</time>
      </trkpt>
      <trkpt lat="42.38697" lon="2.11499">
        <ele>2789</ele>
        <time>2017-10-15T11:59:31.000Z</time>
      </trkpt>
      <trkpt lat="42.38697" lon="2.11499">
        <ele>2789</ele>
        <time>2017-10-15T11:59:32.000Z</time>
      </trkpt>
      <trkpt lat="42.38698" lon="2.11499">
        <ele>2789</ele>
        <time>2017-10-15T11:59:33.000Z</time>
      </trkpt>
      <trkpt lat="42.38699" lon="2.11499">
        <ele>2789</ele>
        <time>2017-10-15T11:59:34.000Z</time>
      </trkpt>
      <trkpt lat="42.38699" lon="2.11499">
        <ele>2789</ele>
        <time>2017-10-15T11:59:35.000Z</time>
      </trkpt>
      <trkpt lat="42.387" lon="2.11499">
        <ele>2789</ele>
        <time>2017-10-15T11:59:36.000Z</time>
      </trkpt>
      <trkpt lat="42.38701" lon="2.11499">
        <ele>2789</ele>
        <time>2017-10-15T11:59:37.000Z</time>
      </trkpt>
      <trkpt lat="42.38701" lon="2.11499">
        <ele>2788</ele>
        <time>2017-10-15T11:59:38.000Z</time>
      </trkpt>
      <trkpt lat="42.38702" lon="2.11498">
        <ele>2788</ele>
        <time>2017-10-15T11:59:39.000Z</time>
      </trkpt>
      <trkpt lat="42.38703" lon="2.11498">
        <ele>2788</ele>
        <time>2017-10-15T11:59:40.000Z</time>
      </trkpt>
      <trkpt lat="42.38703" lon="2.11498">
        <ele>2788</ele>
        <time>2017-10-15T11:59:41.000Z</time>
      </trkpt>
      <trkpt lat="42.38704" lon="2.11498">
        <ele>2788</ele>
        <time>2017-10-15T11:59:42.000Z</time>
      </trkpt>
      <trkpt lat="42.38705" lon="2.11498">
        <ele>2788</ele>
        <time>2017-10-15T11:59:43.000Z</time>
      </trkpt>
      <trkpt lat="42.38705" lon="2.11498">
        <ele>2788</ele>
        <time>2017-10-15T11:59:44.000Z</time>
      </trkpt>
      <trkpt lat="42.38706" lon="2.11498">
        <ele>2788</ele>
        <time>2017-10-15T11:59:45.000Z</time>
      </trkpt>
      <trkpt lat="42.38707" lon="2.11498">
        <ele>2787</ele>
        <time>2017-10-15T11:59:46.000Z</time>
      </trkpt>
      <trkpt lat="42.38707" lon="2.11498">
        <ele>2787</ele>
        <time>2017-10-15T11:59:47.000Z</time>
      </trkpt>
      <trkpt lat="42.38708" lon="2.11498">
        <ele>2787</ele>
        <time>2017-10-15T11:59:48.000Z</time>
      </trkpt>
      <trkpt lat="42.38708" lon="2.11497">
        <ele>2787</ele>
        <time>2017-10-15T11:59:49.000Z</time>
      </trkpt>
      <trkpt lat="42.38709" lon="2.11497">
        <ele>2787</ele>
        <time>2017-10-15T11:59:50.000Z</time>
      </trkpt>
      <trkpt lat="42.3871" lon="2.11497">
        <ele>2787</ele>
        <time>2017-10-15T11:59:51.000Z</time>
      </trkpt>
      <trkpt lat="42.38711" lon="2.11498">
        <ele>2787</ele>
        <time>2017-10-15T11:59:52.000Z</time>
      </trkpt>
      <trkpt lat="42.38711" lon="2.11498">
        <ele>2786</ele>
        <time>2017-10-15T11:59:53.000Z</time>
      </trkpt>
      <trkpt lat="42.38712" lon="2.11498">
        <ele>2786</ele>
        <time>2017-10-15T11:59:54.000Z</time>
      </trkpt>
      <trkpt lat="42.38713" lon="2.11498">
        <ele>2786</ele>
        <time>2017-10-15T11:59:55.000Z</time>
      </trkpt>
      <trkpt lat="42.38713" lon="2.11498">
        <ele>2786</ele>
        <time>2017-10-15T11:59:56.000Z</time>
      </trkpt>
      <trkpt lat="42.38714" lon="2.11498">
        <ele>2786</ele>
        <time>2017-10-15T11:59:57.000Z</time>
      </trkpt>
      <trkpt lat="42.38715" lon="2.11498">
        <ele>2785</ele>
        <time>2017-10-15T11:59:58.000Z</time>
      </trkpt>
      <trkpt lat="42.38716" lon="2.11498">
        <ele>2785</ele>
        <time>2017-10-15T11:59:59.000Z</time>
      </trkpt>
      <trkpt lat="42.38717" lon="2.11499">
        <ele>2785</ele>
        <time>2017-10-15T12:00:00.000Z</time>
      </trkpt>
      <trkpt lat="42.38717" lon="2.11499">
        <ele>2785</ele>
        <time>2017-10-15T12:00:01.000Z</time>
      </trkpt>
      <trkpt lat="42.38718" lon="2.11499">
        <ele>2785</ele>
        <time>2017-10-15T12:00:02.000Z</time>
      </trkpt>
      <trkpt lat="42.38719" lon="2.11499">
        <ele>2784</ele>
        <time>2017-10-15T12:00:03.000Z</time>
      </trkpt>
      <trkpt lat="42.3872" lon="2.11499">
        <ele>2784</ele>
        <time>2017-10-15T12:00:04.000Z</time>
      </trkpt>
      <trkpt lat="42.38721" lon="2.115">
        <ele>2784</ele>
        <time>2017-10-15T12:00:05.000Z</time>
      </trkpt>
      <trkpt lat="42.38722" lon="2.115">
        <ele>2783</ele>
        <time>2017-10-15T12:00:06.000Z</time>
      </trkpt>
      <trkpt lat="42.38723" lon="2.115">
        <ele>2783</ele>
        <time>2017-10-15T12:00:07.000Z</time>
      </trkpt>
      <trkpt lat="42.38723" lon="2.115">
        <ele>2783</ele>
        <time>2017-10-15T12:00:08.000Z</time>
      </trkpt>
      <trkpt lat="42.38724" lon="2.115">
        <ele>2783</ele>
        <time>2017-10-15T12:00:09.000Z</time>
      </trkpt>
      <trkpt lat="42.38725" lon="2.115">
        <ele>2783</ele>
        <time>2017-10-15T12:00:10.000Z</time>
      </trkpt>
      <trkpt lat="42.38726" lon="2.115">
        <ele>2783</ele>
        <time>2017-10-15T12:00:11.000Z</time>
      </trkpt>
      <trkpt lat="42.38726" lon="2.115">
        <ele>2782</ele>
        <time>2017-10-15T12:00:12.000Z</time>
      </trkpt>
      <trkpt lat="42.38727" lon="2.11499">
        <ele>2782</ele>
        <time>2017-10-15T12:00:13.000Z</time>
      </trkpt>
      <trkpt lat="42.38727" lon="2.11499">
        <ele>2782</ele>
        <time>2017-10-15T12:00:14.000Z</time>
      </trkpt>
      <trkpt lat="42.38728" lon="2.11498">
        <ele>2783</ele>
        <time>2017-10-15T12:00:15.000Z</time>
      </trkpt>
      <trkpt lat="42.38728" lon="2.11497">
        <ele>2783</ele>
        <time>2017-10-15T12:00:16.000Z</time>
      </trkpt>
      <trkpt lat="42.38728" lon="2.11497">
        <ele>2783</ele>
        <time>2017-10-15T12:00:17.000Z</time>
      </trkpt>
      <trkpt lat="42.38729" lon="2.11496">
        <ele>2783</ele>
        <time>2017-10-15T12:00:18.000Z</time>
      </trkpt>
      <trkpt lat="42.38729" lon="2.11495">
        <ele>2783</ele>
        <time>2017-10-15T12:00:19.000Z</time>
      </trkpt>
      <trkpt lat="42.3873" lon="2.11495">
        <ele>2783</ele>
        <time>2017-10-15T12:00:20.000Z</time>
      </trkpt>
      <trkpt lat="42.3873" lon="2.11494">
        <ele>2783</ele>
        <time>2017-10-15T12:00:21.000Z</time>
      </trkpt>
      <trkpt lat="42.38731" lon="2.11493">
        <ele>2783</ele>
        <time>2017-10-15T12:00:22.000Z</time>
      </trkpt>
      <trkpt lat="42.38732" lon="2.11493">
        <ele>2783</ele>
        <time>2017-10-15T12:00:23.000Z</time>
      </trkpt>
      <trkpt lat="42.38733" lon="2.11493">
        <ele>2782</ele>
        <time>2017-10-15T12:00:24.000Z</time>
      </trkpt>
      <trkpt lat="42.38733" lon="2.11493">
        <ele>2782</ele>
        <time>2017-10-15T12:00:25.000Z</time>
      </trkpt>
      <trkpt lat="42.38734" lon="2.11493">
        <ele>2782</ele>
        <time>2017-10-15T12:00:26.000Z</time>
      </trkpt>
      <trkpt lat="42.38734" lon="2.11493">
        <ele>2782</ele>
        <time>2017-10-15T12:00:27.000Z</time>
      </trkpt>
      <trkpt lat="42.38735" lon="2.11492">
        <ele>2782</ele>
        <time>2017-10-15T12:00:28.000Z</time>
      </trkpt>
      <trkpt lat="42.38735" lon="2.11492">
        <ele>2781</ele>
        <time>2017-10-15T12:00:29.000Z</time>
      </trkpt>
      <trkpt lat="42.38735" lon="2.11491">
        <ele>2781</ele>
        <time>2017-10-15T12:00:30.000Z</time>
      </trkpt>
      <trkpt lat="42.38735" lon="2.1149">
        <ele>2781</ele>
        <time>2017-10-15T12:00:31.000Z</time>
      </trkpt>
      <trkpt lat="42.38736" lon="2.1149">
        <ele>2781</ele>
        <time>2017-10-15T12:00:32.000Z</time>
      </trkpt>
      <trkpt lat="42.38737" lon="2.11489">
        <ele>2780</ele>
        <time>2017-10-15T12:00:33.000Z</time>
      </trkpt>
      <trkpt lat="42.38737" lon="2.11489">
        <ele>2780</ele>
        <time>2017-10-15T12:00:34.000Z</time>
      </trkpt>
      <trkpt lat="42.38738" lon="2.11489">
        <ele>2780</ele>
        <time>2017-10-15T12:00:35.000Z</time>
      </trkpt>
      <trkpt lat="42.38739" lon="2.11489">
        <ele>2780</ele>
        <time>2017-10-15T12:00:36.000Z</time>
      </trkpt>
      <trkpt lat="42.38739" lon="2.11488">
        <ele>2779</ele>
        <time>2017-10-15T12:00:37.000Z</time>
      </trkpt>
      <trkpt lat="42.3874" lon="2.11488">
        <ele>2779</ele>
        <time>2017-10-15T12:00:38.000Z</time>
      </trkpt>
      <trkpt lat="42.3874" lon="2.11488">
        <ele>2779</ele>
        <time>2017-10-15T12:00:39.000Z</time>
      </trkpt>
      <trkpt lat="42.38741" lon="2.11488">
        <ele>2779</ele>
        <time>2017-10-15T12:00:40.000Z</time>
      </trkpt>
      <trkpt lat="42.38742" lon="2.11487">
        <ele>2778</ele>
        <time>2017-10-15T12:00:41.000Z</time>
      </trkpt>
      <trkpt lat="42.38742" lon="2.11487">
        <ele>2778</ele>
        <time>2017-10-15T12:00:42.000Z</time>
      </trkpt>
      <trkpt lat="42.38743" lon="2.11487">
        <ele>2778</ele>
        <time>2017-10-15T12:00:43.000Z</time>
      </trkpt>
      <trkpt lat="42.38743" lon="2.11487">
        <ele>2778</ele>
        <time>2017-10-15T12:00:44.000Z</time>
      </trkpt>
      <trkpt lat="42.38744" lon="2.11487">
        <ele>2778</ele>
        <time>2017-10-15T12:00:45.000Z</time>
      </trkpt>
      <trkpt lat="42.38745" lon="2.11487">
        <ele>2778</ele>
        <time>2017-10-15T12:00:46.000Z</time>
      </trkpt>
      <trkpt lat="42.38745" lon="2.11487">
        <ele>2778</ele>
        <time>2017-10-15T12:00:47.000Z</time>
      </trkpt>
      <trkpt lat="42.38746" lon="2.11487">
        <ele>2778</ele>
        <time>2017-10-15T12:00:48.000Z</time>
      </trkpt>
      <trkpt lat="42.38746" lon="2.11487">
        <ele>2778</ele>
        <time>2017-10-15T12:00:49.000Z</time>
      </trkpt>
      <trkpt lat="42.38752" lon="2.11488">
        <ele>2777</ele>
        <time>2017-10-15T12:01:00.000Z</time>
      </trkpt>
      <trkpt lat="42.38752" lon="2.11489">
        <ele>2777</ele>
        <time>2017-10-15T12:01:01.000Z</time>
      </trkpt>
      <trkpt lat="42.38753" lon="2.1149">
        <ele>2777</ele>
        <time>2017-10-15T12:01:02.000Z</time>
      </trkpt>
      <trkpt lat="42.38754" lon="2.1149">
        <ele>2777</ele>
        <time>2017-10-15T12:01:03.000Z</time>
      </trkpt>
      <trkpt lat="42.38755" lon="2.1149">
        <ele>2777</ele>
        <time>2017-10-15T12:01:04.000Z</time>
      </trkpt>
      <trkpt lat="42.38755" lon="2.11491">
        <ele>2777</ele>
        <time>2017-10-15T12:01:05.000Z</time>
      </trkpt>
      <trkpt lat="42.38756" lon="2.11492">
        <ele>2777</ele>
        <time>2017-10-15T12:01:06.000Z</time>
      </trkpt>
      <trkpt lat="42.38756" lon="2.11493">
        <ele>2777</ele>
        <time>2017-10-15T12:01:07.000Z</time>
      </trkpt>
      <trkpt lat="42.38757" lon="2.11494">
        <ele>2777</ele>
        <time>2017-10-15T12:01:08.000Z</time>
      </trkpt>
      <trkpt lat="42.38758" lon="2.11495">
        <ele>2776</ele>
        <time>2017-10-15T12:01:09.000Z</time>
      </trkpt>
      <trkpt lat="42.38759" lon="2.11496">
        <ele>2775</ele>
        <time>2017-10-15T12:01:10.000Z</time>
      </trkpt>
      <trkpt lat="42.3876" lon="2.11497">
        <ele>2775</ele>
        <time>2017-10-15T12:01:11.000Z</time>
      </trkpt>
      <trkpt lat="42.38761" lon="2.11497">
        <ele>2775</ele>
        <time>2017-10-15T12:01:12.000Z</time>
      </trkpt>
      <trkpt lat="42.38762" lon="2.11497">
        <ele>2774</ele>
        <time>2017-10-15T12:01:13.000Z</time>
      </trkpt>
      <trkpt lat="42.38762" lon="2.11498">
        <ele>2774</ele>
        <time>2017-10-15T12:01:14.000Z</time>
      </trkpt>
      <trkpt lat="42.38763" lon="2.11497">
        <ele>2774</ele>
        <time>2017-10-15T12:01:15.000Z</time>
      </trkpt>
      <trkpt lat="42.38764" lon="2.11497">
        <ele>2773</ele>
        <time>2017-10-15T12:01:16.000Z</time>
      </trkpt>
      <trkpt lat="42.38765" lon="2.11498">
        <ele>2773</ele>
        <time>2017-10-15T12:01:17.000Z</time>
      </trkpt>
      <trkpt lat="42.38766" lon="2.11498">
        <ele>2773</ele>
        <time>2017-10-15T12:01:18.000Z</time>
      </trkpt>
      <trkpt lat="42.38766" lon="2.11498">
        <ele>2772</ele>
        <time>2017-10-15T12:01:19.000Z</time>
      </trkpt>
      <trkpt lat="42.38767" lon="2.11499">
        <ele>2772</ele>
        <time>2017-10-15T12:01:20.000Z</time>
      </trkpt>
      <trkpt lat="42.38768" lon="2.11499">
        <ele>2772</ele>
        <time>2017-10-15T12:01:21.000Z</time>
      </trkpt>
      <trkpt lat="42.38768" lon="2.11499">
        <ele>2772</ele>
        <time>2017-10-15T12:01:22.000Z</time>
      </trkpt>
      <trkpt lat="42.38769" lon="2.11499">
        <ele>2772</ele>
        <time>2017-10-15T12:01:23.000Z</time>
      </trkpt>
      <trkpt lat="42.3877" lon="2.11499">
        <ele>2771</ele>
        <time>2017-10-15T12:01:24.000Z</time>
      </trkpt>
      <trkpt lat="42.38771" lon="2.11499">
        <ele>2771</ele>
        <time>2017-10-15T12:01:25.000Z</time>
      </trkpt>
      <trkpt lat="42.38771" lon="2.11498">
        <ele>2771</ele>
        <time>2017-10-15T12:01:26.000Z</time>
      </trkpt>
      <trkpt lat="42.38772" lon="2.11498">
        <ele>2771</ele>
        <time>2017-10-15T12:01:27.000Z</time>
      </trkpt>
      <trkpt lat="42.38773" lon="2.11498">
        <ele>2771</ele>
        <time>2017-10-15T12:01:28.000Z</time>
      </trkpt>
      <trkpt lat="42.38774" lon="2.11497">
        <ele>2771</ele>
        <time>2017-10-15T12:01:29.000Z</time>
      </trkpt>
      <trkpt lat="42.38775" lon="2.11497">
        <ele>2771</ele>
        <time>2017-10-15T12:01:30.000Z</time>
      </trkpt>
      <trkpt lat="42.38775" lon="2.11497">
        <ele>2771</ele>
        <time>2017-10-15T12:01:31.000Z</time>
      </trkpt>
      <trkpt lat="42.38776" lon="2.11496">
        <ele>2771</ele>
        <time>2017-10-15T12:01:32.000Z</time>
      </trkpt>
      <trkpt lat="42.38777" lon="2.11495">
        <ele>2771</ele>
        <time>2017-10-15T12:01:33.000Z</time>
      </trkpt>
      <trkpt lat="42.38777" lon="2.11495">
        <ele>2771</ele>
        <time>2017-10-15T12:01:34.000Z</time>
      </trkpt>
      <trkpt lat="42.38778" lon="2.11494">
        <ele>2771</ele>
        <time>2017-10-15T12:01:35.000Z</time>
      </trkpt>
      <trkpt lat="42.38779" lon="2.11494">
        <ele>2771</ele>
        <time>2017-10-15T12:01:36.000Z</time>
      </trkpt>
      <trkpt lat="42.3878" lon="2.11494">
        <ele>2771</ele>
        <time>2017-10-15T12:01:37.000Z</time>
      </trkpt>
      <trkpt lat="42.38781" lon="2.11494">
        <ele>2771</ele>
        <time>2017-10-15T12:01:38.000Z</time>
      </trkpt>
      <trkpt lat="42.38782" lon="2.11494">
        <ele>2770</ele>
        <time>2017-10-15T12:01:39.000Z</time>
      </trkpt>
      <trkpt lat="42.38783" lon="2.11493">
        <ele>2770</ele>
        <time>2017-10-15T12:01:40.000Z</time>
      </trkpt>
      <trkpt lat="42.38785" lon="2.11494">
        <ele>2770</ele>
        <time>2017-10-15T12:01:41.000Z</time>
      </trkpt>
      <trkpt lat="42.38786" lon="2.11494">
        <ele>2769</ele>
        <time>2017-10-15T12:01:42.000Z</time>
      </trkpt>
      <trkpt lat="42.38787" lon="2.11494">
        <ele>2769</ele>
        <time>2017-10-15T12:01:43.000Z</time>
      </trkpt>
      <trkpt lat="42.38788" lon="2.11494">
        <ele>2769</ele>
        <time>2017-10-15T12:01:44.000Z</time>
      </trkpt>
      <trkpt lat="42.38789" lon="2.11494">
        <ele>2769</ele>
        <time>2017-10-15T12:01:45.000Z</time>
      </trkpt>
      <trkpt lat="42.3879" lon="2.11493">
        <ele>2768</ele>
        <time>2017-10-15T12:01:46.000Z</time>
      </trkpt>
      <trkpt lat="42.38791" lon="2.11493">
        <ele>2768</ele>
        <time>2017-10-15T12:01:47.000Z</time>
      </trkpt>
      <trkpt lat="42.38792" lon="2.11493">
        <ele>2768</ele>
        <time>2017-10-15T12:01:48.000Z</time>
      </trkpt>
      <trkpt lat="42.38793" lon="2.11492">
        <ele>2767</ele>
        <time>2017-10-15T12:01:49.000Z</time>
      </trkpt>
      <trkpt lat="42.38794" lon="2.11492">
        <ele>2767</ele>
        <time>2017-10-15T12:01:50.000Z</time>
      </trkpt>
      <trkpt lat="42.38795" lon="2.11492">
        <ele>2767</ele>
        <time>2017-10-15T12:01:51.000Z</time>
      </trkpt>
      <trkpt lat="42.38796" lon="2.11492">
        <ele>2766</ele>
        <time>2017-10-15T12:01:52.000Z</time>
      </trkpt>
      <trkpt lat="42.38797" lon="2.11492">
        <ele>2766</ele>
        <time>2017-10-15T12:01:53.000Z</time>
      </trkpt>
      <trkpt lat="42.38798" lon="2.11491">
        <ele>2766</ele>
        <time>2017-10-15T12:01:54.000Z</time>
      </trkpt>
      <trkpt lat="42.38799" lon="2.11491">
        <ele>2766</ele>
        <time>2017-10-15T12:01:55.000Z</time>
      </trkpt>
      <trkpt lat="42.388" lon="2.11491">
        <ele>2765</ele>
        <time>2017-10-15T12:01:56.000Z</time>
      </trkpt>
      <trkpt lat="42.38801" lon="2.11491">
        <ele>2765</ele>
        <time>2017-10-15T12:01:57.000Z</time>
      </trkpt>
      <trkpt lat="42.38802" lon="2.11491">
        <ele>2765</ele>
        <time>2017-10-15T12:01:58.000Z</time>
      </trkpt>
      <trkpt lat="42.38803" lon="2.11491">
        <ele>2765</ele>
        <time>2017-10-15T12:01:59.000Z</time>
      </trkpt>
      <trkpt lat="42.38804" lon="2.11491">
        <ele>2764</ele>
        <time>2017-10-15T12:02:00.000Z</time>
      </trkpt>
      <trkpt lat="42.38804" lon="2.11491">
        <ele>2764</ele>
        <time>2017-10-15T12:02:01.000Z</time>
      </trkpt>
      <trkpt lat="42.38805" lon="2.1149">
        <ele>2764</ele>
        <time>2017-10-15T12:02:02.000Z</time>
      </trkpt>
      <trkpt lat="42.38806" lon="2.1149">
        <ele>2764</ele>
        <time>2017-10-15T12:02:03.000Z</time>
      </trkpt>
      <trkpt lat="42.38806" lon="2.1149">
        <ele>2763</ele>
        <time>2017-10-15T12:02:04.000Z</time>
      </trkpt>
      <trkpt lat="42.38807" lon="2.11489">
        <ele>2763</ele>
        <time>2017-10-15T12:02:05.000Z</time>
      </trkpt>
      <trkpt lat="42.38808" lon="2.11489">
        <ele>2763</ele>
        <time>2017-10-15T12:02:06.000Z</time>
      </trkpt>
      <trkpt lat="42.38808" lon="2.11489">
        <ele>2763</ele>
        <time>2017-10-15T12:02:07.000Z</time>
      </trkpt>
      <trkpt lat="42.38808" lon="2.11489">
        <ele>2763</ele>
        <time>2017-10-15T12:02:08.000Z</time>
      </trkpt>
      <trkpt lat="42.38809" lon="2.11489">
        <ele>2763</ele>
        <time>2017-10-15T12:02:09.000Z</time>
      </trkpt>
      <trkpt lat="42.38809" lon="2.11488">
        <ele>2762</ele>
        <time>2017-10-15T12:02:10.000Z</time>
      </trkpt>
      <trkpt lat="42.3881" lon="2.11488">
        <ele>2762</ele>
        <time>2017-10-15T12:02:11.000Z</time>
      </trkpt>
      <trkpt lat="42.3881" lon="2.11488">
        <ele>2762</ele>
        <time>2017-10-15T12:02:12.000Z</time>
      </trkpt>
      <trkpt lat="42.38811" lon="2.11488">
        <ele>2762</ele>
        <time>2017-10-15T12:02:13.000Z</time>
      </trkpt>
      <trkpt lat="42.38811" lon="2.11487">
        <ele>2762</ele>
        <time>2017-10-15T12:02:14.000Z</time>
      </trkpt>
      <trkpt lat="42.38812" lon="2.11487">
        <ele>2761</ele>
        <time>2017-10-15T12:02:15.000Z</time>
      </trkpt>
      <trkpt lat="42.38813" lon="2.11487">
        <ele>2761</ele>
        <time>2017-10-15T12:02:16.000Z</time>
      </trkpt>
      <trkpt lat="42.38813" lon="2.11487">
        <ele>2761</ele>
        <time>2017-10-15T12:02:17.000Z</time>
      </trkpt>
      <trkpt lat="42.38814" lon="2.11487">
        <ele>2761</ele>
        <time>2017-10-15T12:02:18.000Z</time>
      </trkpt>
      <trkpt lat="42.38814" lon="2.11487">
        <ele>2761</ele>
        <time>2017-10-15T12:02:19.000Z</time>
      </trkpt>
      <trkpt lat="42.38815" lon="2.11487">
        <ele>2761</ele>
        <time>2017-10-15T12:02:20.000Z</time>
      </trkpt>
      <trkpt lat="42.38815" lon="2.11486">
        <ele>2761</ele>
        <time>2017-10-15T12:02:21.000Z</time>
      </trkpt>
      <trkpt lat="42.38816" lon="2.11486">
        <ele>2760</ele>
        <time>2017-10-15T12:02:22.000Z</time>
      </trkpt>
      <trkpt lat="42.38816" lon="2.11486">
        <ele>2760</ele>
        <time>2017-10-15T12:02:23.000Z</time>
      </trkpt>
      <trkpt lat="42.38817" lon="2.11486">
        <ele>2760</ele>
        <time>2017-10-15T12:02:24.000Z</time>
      </trkpt>
      <trkpt lat="42.38818" lon="2.11486">
        <ele>2760</ele>
        <time>2017-10-15T12:02:25.000Z</time>
      </trkpt>
      <trkpt lat="42.38819" lon="2.11485">
        <ele>2759</ele>
        <time>2017-10-15T12:02:26.000Z</time>
      </trkpt>
      <trkpt lat="42.3882" lon="2.11485">
        <ele>2759</ele>
        <time>2017-10-15T12:02:27.000Z</time>
      </trkpt>
      <trkpt lat="42.38821" lon="2.11485">
        <ele>2759</ele>
        <time>2017-10-15T12:02:28.000Z</time>
      </trkpt>
      <trkpt lat="42.38821" lon="2.11485">
        <ele>2759</ele>
        <time>2017-10-15T12:02:29.000Z</time>
      </trkpt>
      <trkpt lat="42.38822" lon="2.11485">
        <ele>2758</ele>
        <time>2017-10-15T12:02:30.000Z</time>
      </trkpt>
      <trkpt lat="42.38823" lon="2.11485">
        <ele>2758</ele>
        <time>2017-10-15T12:02:31.000Z</time>
      </trkpt>
      <trkpt lat="42.38824" lon="2.11485">
        <ele>2758</ele>
        <time>2017-10-15T12:02:32.000Z</time>
      </trkpt>
      <trkpt lat="42.38824" lon="2.11484">
        <ele>2758</ele>
        <time>2017-10-15T12:02:33.000Z</time>
      </trkpt>
      <trkpt lat="42.38825" lon="2.11484">
        <ele>2758</ele>
        <time>2017-10-15T12:02:34.000Z</time>
      </trkpt>
      <trkpt lat="42.38826" lon="2.11485">
        <ele>2758</ele>
        <time>2017-10-15T12:02:35.000Z</time>
      </trkpt>
      <trkpt lat="42.38827" lon="2.11485">
        <ele>2758</ele>
        <time>2017-10-15T12:02:36.000Z</time>
      </trkpt>
      <trkpt lat="42.38827" lon="2.11486">
        <ele>2758</ele>
        <time>2017-10-15T12:02:37.000Z</time>
      </trkpt>
      <trkpt lat="42.38828" lon="2.11486">
        <ele>2758</ele>
        <time>2017-10-15T12:02:38.000Z</time>
      </trkpt>
      <trkpt lat="42.38828" lon="2.11485">
        <ele>2758</ele>
        <time>2017-10-15T12:02:39.000Z</time>
      </trkpt>
      <trkpt lat="42.38829" lon="2.11484">
        <ele>2758</ele>
        <time>2017-10-15T12:02:40.000Z</time>
      </trkpt>
      <trkpt lat="42.38829" lon="2.11483">
        <ele>2758</ele>
        <time>2017-10-15T12:02:41.000Z</time>
      </trkpt>
      <trkpt lat="42.3883" lon="2.11482">
        <ele>2757</ele>
        <time>2017-10-15T12:02:42.000Z</time>
      </trkpt>
      <trkpt lat="42.3883" lon="2.11482">
        <ele>2757</ele>
        <time>2017-10-15T12:02:43.000Z</time>
      </trkpt>
      <trkpt lat="42.38831" lon="2.11482">
        <ele>2757</ele>
        <time>2017-10-15T12:02:44.000Z</time>
      </trkpt>
      <trkpt lat="42.38832" lon="2.11481">
        <ele>2757</ele>
        <time>2017-10-15T12:02:45.000Z</time>
      </trkpt>
      <trkpt lat="42.38832" lon="2.11481">
        <ele>2757</ele>
        <time>2017-10-15T12:02:46.000Z</time>
      </trkpt>
      <trkpt lat="42.38833" lon="2.1148">
        <ele>2757</ele>
        <time>2017-10-15T12:02:47.000Z</time>
      </trkpt>
      <trkpt lat="42.38834" lon="2.1148">
        <ele>2757</ele>
        <time>2017-10-15T12:02:48.000Z</time>
      </trkpt>
      <trkpt lat="42.38834" lon="2.11479">
        <ele>2757</ele>
        <time>2017-10-15T12:02:49.000Z</time>
      </trkpt>
      <trkpt lat="42.38835" lon="2.11479">
        <ele>2757</ele>
        <time>2017-10-15T12:02:50.000Z</time>
      </trkpt>
      <trkpt lat="42.38836" lon="2.11479">
        <ele>2757</ele>
        <time>2017-10-15T12:02:51.000Z</time>
      </trkpt>
      <trkpt lat="42.38837" lon="2.11479">
        <ele>2757</ele>
        <time>2017-10-15T12:02:52.000Z</time>
      </trkpt>
      <trkpt lat="42.38837" lon="2.1148">
        <ele>2757</ele>
        <time>2017-10-15T12:02:53.000Z</time>
      </trkpt>
      <trkpt lat="42.38838" lon="2.1148">
        <ele>2757</ele>
        <time>2017-10-15T12:02:54.000Z</time>
      </trkpt>
      <trkpt lat="42.38838" lon="2.11479">
        <ele>2757</ele>
        <time>2017-10-15T12:02:55.000Z</time>
      </trkpt>
      <trkpt lat="42.38839" lon="2.11479">
        <ele>2757</ele>
        <time>2017-10-15T12:02:56.000Z</time>
      </trkpt>
      <trkpt lat="42.3884" lon="2.11478">
        <ele>2757</ele>
        <time>2017-10-15T12:02:57.000Z</time>
      </trkpt>
      <trkpt lat="42.38841" lon="2.11478">
        <ele>2757</ele>
        <time>2017-10-15T12:02:58.000Z</time>
      </trkpt>
      <trkpt lat="42.38842" lon="2.11478">
        <ele>2756</ele>
        <time>2017-10-15T12:02:59.000Z</time>
      </trkpt>
      <trkpt lat="42.38844" lon="2.11477">
        <ele>2756</ele>
        <time>2017-10-15T12:03:00.000Z</time>
      </trkpt>
      <trkpt lat="42.38845" lon="2.11476">
        <ele>2756</ele>
        <time>2017-10-15T12:03:01.000Z</time>
      </trkpt>
      <trkpt lat="42.38846" lon="2.11476">
        <ele>2756</ele>
        <time>2017-10-15T12:03:02.000Z</time>
      </trkpt>
      <trkpt lat="42.38847" lon="2.11475">
        <ele>2756</ele>
        <time>2017-10-15T12:03:03.000Z</time>
      </trkpt>
      <trkpt lat="42.38848" lon="2.11475">
        <ele>2756</ele>
        <time>2017-10-15T12:03:04.000Z</time>
      </trkpt>
      <trkpt lat="42.3885" lon="2.11474">
        <ele>2756</ele>
        <time>2017-10-15T12:03:05.000Z</time>
      </trkpt>
      <trkpt lat="42.38851" lon="2.11473">
        <ele>2756</ele>
        <time>2017-10-15T12:03:06.000Z</time>
      </trkpt>
      <trkpt lat="42.38852" lon="2.11473">
        <ele>2756</ele>
        <time>2017-10-15T12:03:07.000Z</time>
      </trkpt>
      <trkpt lat="42.38853" lon="2.11473">
        <ele>2756</ele>
        <time>2017-10-15T12:03:08.000Z</time>
      </trkpt>
      <trkpt lat="42.38854" lon="2.11472">
        <ele>2756</ele>
        <time>2017-10-15T12:03:09.000Z</time>
      </trkpt>
      <trkpt lat="42.38855" lon="2.11471">
        <ele>2756</ele>
        <time>2017-10-15T12:03:10.000Z</time>
      </trkpt>
      <trkpt lat="42.38856" lon="2.1147">
        <ele>2755</ele>
        <time>2017-10-15T12:03:11.000Z</time>
      </trkpt>
      <trkpt lat="42.38857" lon="2.11469">
        <ele>2755</ele>
        <time>2017-10-15T12:03:12.000Z</time>
      </trkpt>
      <trkpt lat="42.38858" lon="2.11468">
        <ele>2755</ele>
        <time>2017-10-15T12:03:13.000Z</time>
      </trkpt>
      <trkpt lat="42.38859" lon="2.11468">
        <ele>2755</ele>
        <time>2017-10-15T12:03:14.000Z</time>
      </trkpt>
      <trkpt lat="42.3886" lon="2.11467">
        <ele>2755</ele>
        <time>2017-10-15T12:03:15.000Z</time>
      </trkpt>
      <trkpt lat="42.38862" lon="2.11466">
        <ele>2755</ele>
        <time>2017-10-15T12:03:16.000Z</time>
      </trkpt>
      <trkpt lat="42.38863" lon="2.11465">
        <ele>2755</ele>
        <time>2017-10-15T12:03:17.000Z</time>
      </trkpt>
      <trkpt lat="42.38864" lon="2.11465">
        <ele>2755</ele>
        <time>2017-10-15T12:03:18.000Z</time>
      </trkpt>
      <trkpt lat="42.38866" lon="2.11465">
        <ele>2755</ele>
        <time>2017-10-15T12:03:19.000Z</time>
      </trkpt>
      <trkpt lat="42.38867" lon="2.11464">
        <ele>2755</ele>
        <time>2017-10-15T12:03:20.000Z</time>
      </trkpt>
      <trkpt lat="42.38868" lon="2.11464">
        <ele>2755</ele>
        <time>2017-10-15T12:03:21.000Z</time>
      </trkpt>
      <trkpt lat="42.38869" lon="2.11464">
        <ele>2754</ele>
        <time>2017-10-15T12:03:22.000Z</time>
      </trkpt>
      <trkpt lat="42.3887" lon="2.11463">
        <ele>2754</ele>
        <time>2017-10-15T12:03:23.000Z</time>
      </trkpt>
      <trkpt lat="42.38871" lon="2.11462">
        <ele>2754</ele>
        <time>2017-10-15T12:03:24.000Z</time>
      </trkpt>
      <trkpt lat="42.38872" lon="2.11462">
        <ele>2754</ele>
        <time>2017-10-15T12:03:25.000Z</time>
      </trkpt>
      <trkpt lat="42.38873" lon="2.11462">
        <ele>2754</ele>
        <time>2017-10-15T12:03:26.000Z</time>
      </trkpt>
      <trkpt lat="42.38874" lon="2.11461">
        <ele>2754</ele>
        <time>2017-10-15T12:03:27.000Z</time>
      </trkpt>
      <trkpt lat="42.38875" lon="2.11461">
        <ele>2754</ele>
        <time>2017-10-15T12:03:28.000Z</time>
      </trkpt>
      <trkpt lat="42.38875" lon="2.1146">
        <ele>2754</ele>
        <time>2017-10-15T12:03:29.000Z</time>
      </trkpt>
      <trkpt lat="42.38876" lon="2.1146">
        <ele>2754</ele>
        <time>2017-10-15T12:03:30.000Z</time>
      </trkpt>
      <trkpt lat="42.38877" lon="2.11459">
        <ele>2754</ele>
        <time>2017-10-15T12:03:31.000Z</time>
      </trkpt>
      <trkpt lat="42.38877" lon="2.11458">
        <ele>2754</ele>
        <time>2017-10-15T12:03:32.000Z</time>
      </trkpt>
      <trkpt lat="42.38878" lon="2.11458">
        <ele>2754</ele>
        <time>2017-10-15T12:03:33.000Z</time>
      </trkpt>
      <trkpt lat="42.3888" lon="2.11457">
        <ele>2754</ele>
        <time>2017-10-15T12:03:34.000Z</time>
      </trkpt>
      <trkpt lat="42.38881" lon="2.11457">
        <ele>2754</ele>
        <time>2017-10-15T12:03:35.000Z</time>
      </trkpt>
      <trkpt lat="42.38882" lon="2.11456">
        <ele>2754</ele>
        <time>2017-10-15T12:03:36.000Z</time>
      </trkpt>
      <trkpt lat="42.38883" lon="2.11455">
        <ele>2754</ele>
        <time>2017-10-15T12:03:37.000Z</time>
      </trkpt>
      <trkpt lat="42.38884" lon="2.11455">
        <ele>2754</ele>
        <time>2017-10-15T12:03:38.000Z</time>
      </trkpt>
      <trkpt lat="42.38885" lon="2.11455">
        <ele>2754</ele>
        <time>2017-10-15T12:03:39.000Z</time>
      </trkpt>
      <trkpt lat="42.38886" lon="2.11455">
        <ele>2754</ele>
        <time>2017-10-15T12:03:40.000Z</time>
      </trkpt>
      <trkpt lat="42.38888" lon="2.11455">
        <ele>2754</ele>
        <time>2017-10-15T12:03:41.000Z</time>
      </trkpt>
      <trkpt lat="42.38889" lon="2.11455">
        <ele>2754</ele>
        <time>2017-10-15T12:03:42.000Z</time>
      </trkpt>
      <trkpt lat="42.3889" lon="2.11455">
        <ele>2754</ele>
        <time>2017-10-15T12:03:43.000Z</time>
      </trkpt>
      <trkpt lat="42.38891" lon="2.11455">
        <ele>2754</ele>
        <time>2017-10-15T12:03:44.000Z</time>
      </trkpt>
      <trkpt lat="42.38892" lon="2.11455">
        <ele>2754</ele>
        <time>2017-10-15T12:03:45.000Z</time>
      </trkpt>
      <trkpt lat="42.38893" lon="2.11455">
        <ele>2754</ele>
        <time>2017-10-15T12:03:46.000Z</time>
      </trkpt>
      <trkpt lat="42.38894" lon="2.11454">
        <ele>2754</ele>
        <time>2017-10-15T12:03:47.000Z</time>
      </trkpt>
      <trkpt lat="42.38895" lon="2.11454">
        <ele>2754</ele>
        <time>2017-10-15T12:03:48.000Z</time>
      </trkpt>
      <trkpt lat="42.38897" lon="2.11454">
        <ele>2754</ele>
        <time>2017-10-15T12:03:49.000Z</time>
      </trkpt>
      <trkpt lat="42.38898" lon="2.11454">
        <ele>2754</ele>
        <time>2017-10-15T12:03:50.000Z</time>
      </trkpt>
      <trkpt lat="42.38899" lon="2.11454">
        <ele>2754</ele>
        <time>2017-10-15T12:03:51.000Z</time>
      </trkpt>
      <trkpt lat="42.389" lon="2.11454">
        <ele>2754</ele>
        <time>2017-10-15T12:03:52.000Z</time>
      </trkpt>
      <trkpt lat="42.38902" lon="2.11454">
        <ele>2754</ele>
        <time>2017-10-15T12:03:53.000Z</time>
      </trkpt>
      <trkpt lat="42.38903" lon="2.11454">
        <ele>2754</ele>
        <time>2017-10-15T12:03:54.000Z</time>
      </trkpt>
      <trkpt lat="42.38904" lon="2.11454">
        <ele>2754</ele>
        <time>2017-10-15T12:03:55.000Z</time>
      </trkpt>
      <trkpt lat="42.38906" lon="2.11454">
        <ele>2754</ele>
        <time>2017-10-15T12:03:56.000Z</time>
      </trkpt>
      <trkpt lat="42.38907" lon="2.11454">
        <ele>2754</ele>
        <time>2017-10-15T12:03:57.000Z</time>
      </trkpt>
      <trkpt lat="42.38908" lon="2.11454">
        <ele>2754</ele>
        <time>2017-10-15T12:03:58.000Z</time>
      </trkpt>
      <trkpt lat="42.38909" lon="2.11454">
        <ele>2754</ele>
        <time>2017-10-15T12:03:59.000Z</time>
      </trkpt>
      <trkpt lat="42.3891" lon="2.11454">
        <ele>2754</ele>
        <time>2017-10-15T12:04:00.000Z</time>
      </trkpt>
      <trkpt lat="42.38912" lon="2.11454">
        <ele>2754</ele>
        <time>2017-10-15T12:04:01.000Z</time>
      </trkpt>
      <trkpt lat="42.38913" lon="2.11454">
        <ele>2754</ele>
        <time>2017-10-15T12:04:02.000Z</time>
      </trkpt>
      <trkpt lat="42.38914" lon="2.11454">
        <ele>2755</ele>
        <time>2017-10-15T12:04:03.000Z</time>
      </trkpt>
      <trkpt lat="42.38915" lon="2.11454">
        <ele>2755</ele>
        <time>2017-10-15T12:04:04.000Z</time>
      </trkpt>
      <trkpt lat="42.38916" lon="2.11454">
        <ele>2755</ele>
        <time>2017-10-15T12:04:05.000Z</time>
      </trkpt>
      <trkpt lat="42.38917" lon="2.11454">
        <ele>2755</ele>
        <time>2017-10-15T12:04:06.000Z</time>
      </trkpt>
      <trkpt lat="42.38918" lon="2.11454">
        <ele>2755</ele>
        <time>2017-10-15T12:04:07.000Z</time>
      </trkpt>
      <trkpt lat="42.38919" lon="2.11454">
        <ele>2756</ele>
        <time>2017-10-15T12:04:08.000Z</time>
      </trkpt>
      <trkpt lat="42.3892" lon="2.11455">
        <ele>2756</ele>
        <time>2017-10-15T12:04:09.000Z</time>
      </trkpt>
      <trkpt lat="42.38921" lon="2.11455">
        <ele>2756</ele>
        <time>2017-10-15T12:04:10.000Z</time>
      </trkpt>
      <trkpt lat="42.38922" lon="2.11455">
        <ele>2756</ele>
        <time>2017-10-15T12:04:11.000Z</time>
      </trkpt>
      <trkpt lat="42.38923" lon="2.11455">
        <ele>2757</ele>
        <time>2017-10-15T12:04:12.000Z</time>
      </trkpt>
      <trkpt lat="42.38924" lon="2.11455">
        <ele>2757</ele>
        <time>2017-10-15T12:04:13.000Z</time>
      </trkpt>
      <trkpt lat="42.38925" lon="2.11456">
        <ele>2757</ele>
        <time>2017-10-15T12:04:14.000Z</time>
      </trkpt>
      <trkpt lat="42.38926" lon="2.11456">
        <ele>2757</ele>
        <time>2017-10-15T12:04:15.000Z</time>
      </trkpt>
      <trkpt lat="42.38926" lon="2.11457">
        <ele>2758</ele>
        <time>2017-10-15T12:04:16.000Z</time>
      </trkpt>
      <trkpt lat="42.38927" lon="2.11457">
        <ele>2758</ele>
        <time>2017-10-15T12:04:17.000Z</time>
      </trkpt>
      <trkpt lat="42.38928" lon="2.11457">
        <ele>2758</ele>
        <time>2017-10-15T12:04:18.000Z</time>
      </trkpt>
      <trkpt lat="42.38929" lon="2.11456">
        <ele>2758</ele>
        <time>2017-10-15T12:04:19.000Z</time>
      </trkpt>
      <trkpt lat="42.3893" lon="2.11456">
        <ele>2758</ele>
        <time>2017-10-15T12:04:20.000Z</time>
      </trkpt>
      <trkpt lat="42.38931" lon="2.11456">
        <ele>2759</ele>
        <time>2017-10-15T12:04:21.000Z</time>
      </trkpt>
      <trkpt lat="42.38932" lon="2.11457">
        <ele>2759</ele>
        <time>2017-10-15T12:04:22.000Z</time>
      </trkpt>
      <trkpt lat="42.38933" lon="2.11457">
        <ele>2759</ele>
        <time>2017-10-15T12:04:23.000Z</time>
      </trkpt>
      <trkpt lat="42.38934" lon="2.11458">
        <ele>2760</ele>
        <time>2017-10-15T12:04:24.000Z</time>
      </trkpt>
      <trkpt lat="42.38935" lon="2.11458">
        <ele>2760</ele>
        <time>2017-10-15T12:04:25.000Z</time>
      </trkpt>
      <trkpt lat="42.38935" lon="2.11459">
        <ele>2760</ele>
        <time>2017-10-15T12:04:26.000Z</time>
      </trkpt>
      <trkpt lat="42.38936" lon="2.11459">
        <ele>2760</ele>
        <time>2017-10-15T12:04:27.000Z</time>
      </trkpt>
      <trkpt lat="42.38937" lon="2.11459">
        <ele>2760</ele>
        <time>2017-10-15T12:04:28.000Z</time>
      </trkpt>
      <trkpt lat="42.38938" lon="2.11458">
        <ele>2761</ele>
        <time>2017-10-15T12:04:29.000Z</time>
      </trkpt>
      <trkpt lat="42.38939" lon="2.11458">
        <ele>2761</ele>
        <time>2017-10-15T12:04:30.000Z</time>
      </trkpt>
      <trkpt lat="42.3894" lon="2.11457">
        <ele>2761</ele>
        <time>2017-10-15T12:04:31.000Z</time>
      </trkpt>
      <trkpt lat="42.38941" lon="2.11457">
        <ele>2761</ele>
        <time>2017-10-15T12:04:32.000Z</time>
      </trkpt>
      <trkpt lat="42.38942" lon="2.11458">
        <ele>2762</ele>
        <time>2017-10-15T12:04:33.000Z</time>
      </trkpt>
      <trkpt lat="42.38943" lon="2.11457">
        <ele>2762</ele>
        <time>2017-10-15T12:04:34.000Z</time>
      </trkpt>
      <trkpt lat="42.38944" lon="2.11457">
        <ele>2762</ele>
        <time>2017-10-15T12:04:35.000Z</time>
      </trkpt>
      <trkpt lat="42.38945" lon="2.11456">
        <ele>2762</ele>
        <time>2017-10-15T12:04:36.000Z</time>
      </trkpt>
      <trkpt lat="42.38946" lon="2.11456">
        <ele>2763</ele>
        <time>2017-10-15T12:04:37.000Z</time>
      </trkpt>
      <trkpt lat="42.38947" lon="2.11456">
        <ele>2763</ele>
        <time>2017-10-15T12:04:38.000Z</time>
      </trkpt>
      <trkpt lat="42.38948" lon="2.11456">
        <ele>2763</ele>
        <time>2017-10-15T12:04:39.000Z</time>
      </trkpt>
      <trkpt lat="42.38948" lon="2.11456">
        <ele>2763</ele>
        <time>2017-10-15T12:04:40.000Z</time>
      </trkpt>
      <trkpt lat="42.38949" lon="2.11456">
        <ele>2764</ele>
        <time>2017-10-15T12:04:41.000Z</time>
      </trkpt>
      <trkpt lat="42.3895" lon="2.11456">
        <ele>2764</ele>
        <time>2017-10-15T12:04:42.000Z</time>
      </trkpt>
      <trkpt lat="42.3895" lon="2.11456">
        <ele>2764</ele>
        <time>2017-10-15T12:04:43.000Z</time>
      </trkpt>
      <trkpt lat="42.38951" lon="2.11457">
        <ele>2764</ele>
        <time>2017-10-15T12:04:44.000Z</time>
      </trkpt>
      <trkpt lat="42.38952" lon="2.11457">
        <ele>2764</ele>
        <time>2017-10-15T12:04:45.000Z</time>
      </trkpt>
      <trkpt lat="42.38952" lon="2.11457">
        <ele>2764</ele>
        <time>2017-10-15T12:04:46.000Z</time>
      </trkpt>
      <trkpt lat="42.38953" lon="2.11456">
        <ele>2765</ele>
        <time>2017-10-15T12:04:47.000Z</time>
      </trkpt>
      <trkpt lat="42.38954" lon="2.11456">
        <ele>2765</ele>
        <time>2017-10-15T12:04:48.000Z</time>
      </trkpt>
      <trkpt lat="42.38955" lon="2.11456">
        <ele>2765</ele>
        <time>2017-10-15T12:04:49.000Z</time>
      </trkpt>
      <trkpt lat="42.38956" lon="2.11455">
        <ele>2765</ele>
        <time>2017-10-15T12:04:50.000Z</time>
      </trkpt>
      <trkpt lat="42.38956" lon="2.11455">
        <ele>2765</ele>
        <time>2017-10-15T12:04:51.000Z</time>
      </trkpt>
      <trkpt lat="42.38957" lon="2.11455">
        <ele>2766</ele>
        <time>2017-10-15T12:04:52.000Z</time>
      </trkpt>
      <trkpt lat="42.38958" lon="2.11454">
        <ele>2766</ele>
        <time>2017-10-15T12:04:53.000Z</time>
      </trkpt>
      <trkpt lat="42.38959" lon="2.11454">
        <ele>2766</ele>
        <time>2017-10-15T12:04:54.000Z</time>
      </trkpt>
      <trkpt lat="42.38959" lon="2.11454">
        <ele>2766</ele>
        <time>2017-10-15T12:04:55.000Z</time>
      </trkpt>
      <trkpt lat="42.3896" lon="2.11454">
        <ele>2766</ele>
        <time>2017-10-15T12:04:56.000Z</time>
      </trkpt>
      <trkpt lat="42.38961" lon="2.11454">
        <ele>2766</ele>
        <time>2017-10-15T12:04:57.000Z</time>
      </trkpt>
      <trkpt lat="42.38962" lon="2.11453">
        <ele>2767</ele>
        <time>2017-10-15T12:04:58.000Z</time>
      </trkpt>
      <trkpt lat="42.38962" lon="2.11453">
        <ele>2767</ele>
        <time>2017-10-15T12:04:59.000Z</time>
      </trkpt>
      <trkpt lat="42.38963" lon="2.11454">
        <ele>2767</ele>
        <time>2017-10-15T12:05:00.000Z</time>
      </trkpt>
      <trkpt lat="42.38963" lon="2.11454">
        <ele>2767</ele>
        <time>2017-10-15T12:05:01.000Z</time>
      </trkpt>
      <trkpt lat="42.38964" lon="2.11454">
        <ele>2767</ele>
        <time>2017-10-15T12:05:02.000Z</time>
      </trkpt>
      <trkpt lat="42.38965" lon="2.11454">
        <ele>2767</ele>
        <time>2017-10-15T12:05:03.000Z</time>
      </trkpt>
      <trkpt lat="42.38966" lon="2.11455">
        <ele>2767</ele>
        <time>2017-10-15T12:05:04.000Z</time>
      </trkpt>
      <trkpt lat="42.38966" lon="2.11455">
        <ele>2768</ele>
        <time>2017-10-15T12:05:05.000Z</time>
      </trkpt>
      <trkpt lat="42.38967" lon="2.11455">
        <ele>2768</ele>
        <time>2017-10-15T12:05:06.000Z</time>
      </trkpt>
      <trkpt lat="42.38967" lon="2.11456">
        <ele>2768</ele>
        <time>2017-10-15T12:05:07.000Z</time>
      </trkpt>
      <trkpt lat="42.38968" lon="2.11456">
        <ele>2768</ele>
        <time>2017-10-15T12:05:08.000Z</time>
      </trkpt>
      <trkpt lat="42.38968" lon="2.11456">
        <ele>2768</ele>
        <time>2017-10-15T12:05:09.000Z</time>
      </trkpt>
      <trkpt lat="42.38969" lon="2.11455">
        <ele>2768</ele>
        <time>2017-10-15T12:05:10.000Z</time>
      </trkpt>
      <trkpt lat="42.3897" lon="2.11456">
        <ele>2768</ele>
        <time>2017-10-15T12:05:11.000Z</time>
      </trkpt>
      <trkpt lat="42.3897" lon="2.11456">
        <ele>2768</ele>
        <time>2017-10-15T12:05:12.000Z</time>
      </trkpt>
      <trkpt lat="42.3897" lon="2.11456">
        <ele>2768</ele>
        <time>2017-10-15T12:05:13.000Z</time>
      </trkpt>
      <trkpt lat="42.38971" lon="2.11456">
        <ele>2768</ele>
        <time>2017-10-15T12:05:14.000Z</time>
      </trkpt>
      <trkpt lat="42.38971" lon="2.11456">
        <ele>2769</ele>
        <time>2017-10-15T12:05:15.000Z</time>
      </trkpt>
      <trkpt lat="42.38972" lon="2.11456">
        <ele>2769</ele>
        <time>2017-10-15T12:05:16.000Z</time>
      </trkpt>
      <trkpt lat="42.38972" lon="2.11456">
        <ele>2769</ele>
        <time>2017-10-15T12:05:17.000Z</time>
      </trkpt>
      <trkpt lat="42.38973" lon="2.11456">
        <ele>2769</ele>
        <time>2017-10-15T12:05:18.000Z</time>
      </trkpt>
      <trkpt lat="42.38974" lon="2.11455">
        <ele>2769</ele>
        <time>2017-10-15T12:05:19.000Z</time>
      </trkpt>
      <trkpt lat="42.38974" lon="2.11456">
        <ele>2769</ele>
        <time>2017-10-15T12:05:20.000Z</time>
      </trkpt>
      <trkpt lat="42.38975" lon="2.11456">
        <ele>2769</ele>
        <time>2017-10-15T12:05:21.000Z</time>
      </trkpt>
      <trkpt lat="42.38975" lon="2.11456">
        <ele>2769</ele>
        <time>2017-10-15T12:05:22.000Z</time>
      </trkpt>
      <trkpt lat="42.38975" lon="2.11457">
        <ele>2769</ele>
        <time>2017-10-15T12:05:23.000Z</time>
      </trkpt>
      <trkpt lat="42.38976" lon="2.11457">
        <ele>2769</ele>
        <time>2017-10-15T12:05:24.000Z</time>
      </trkpt>
      <trkpt lat="42.38976" lon="2.11457">
        <ele>2770</ele>
        <time>2017-10-15T12:05:25.000Z</time>
      </trkpt>
      <trkpt lat="42.38977" lon="2.11457">
        <ele>2770</ele>
        <time>2017-10-15T12:05:26.000Z</time>
      </trkpt>
      <trkpt lat="42.38977" lon="2.11458">
        <ele>2770</ele>
        <time>2017-10-15T12:05:27.000Z</time>
      </trkpt>
      <trkpt lat="42.38978" lon="2.11458">
        <ele>2770</ele>
        <time>2017-10-15T12:05:28.000Z</time>
      </trkpt>
      <trkpt lat="42.38978" lon="2.11458">
        <ele>2770</ele>
        <time>2017-10-15T12:05:29.000Z</time>
      </trkpt>
      <trkpt lat="42.38979" lon="2.11458">
        <ele>2770</ele>
        <time>2017-10-15T12:05:30.000Z</time>
      </trkpt>
      <trkpt lat="42.38979" lon="2.11457">
        <ele>2770</ele>
        <time>2017-10-15T12:05:31.000Z</time>
      </trkpt>
      <trkpt lat="42.3898" lon="2.11457">
        <ele>2770</ele>
        <time>2017-10-15T12:05:32.000Z</time>
      </trkpt>
      <trkpt lat="42.38981" lon="2.11457">
        <ele>2770</ele>
        <time>2017-10-15T12:05:33.000Z</time>
      </trkpt>
      <trkpt lat="42.38981" lon="2.11456">
        <ele>2770</ele>
        <time>2017-10-15T12:05:34.000Z</time>
      </trkpt>
      <trkpt lat="42.38982" lon="2.11456">
        <ele>2770</ele>
        <time>2017-10-15T12:05:35.000Z</time>
      </trkpt>
      <trkpt lat="42.38982" lon="2.11456">
        <ele>2771</ele>
        <time>2017-10-15T12:05:36.000Z</time>
      </trkpt>
      <trkpt lat="42.38983" lon="2.11456">
        <ele>2771</ele>
        <time>2017-10-15T12:05:37.000Z</time>
      </trkpt>
      <trkpt lat="42.38983" lon="2.11457">
        <ele>2771</ele>
        <time>2017-10-15T12:05:38.000Z</time>
      </trkpt>
      <trkpt lat="42.38984" lon="2.11457">
        <ele>2771</ele>
        <time>2017-10-15T12:05:39.000Z</time>
      </trkpt>
      <trkpt lat="42.38984" lon="2.11457">
        <ele>2771</ele>
        <time>2017-10-15T12:05:40.000Z</time>
      </trkpt>
      <trkpt lat="42.38985" lon="2.11457">
        <ele>2771</ele>
        <time>2017-10-15T12:05:41.000Z</time>
      </trkpt>
      <trkpt lat="42.38985" lon="2.11457">
        <ele>2771</ele>
        <time>2017-10-15T12:05:42.000Z</time>
      </trkpt>
      <trkpt lat="42.38986" lon="2.11457">
        <ele>2771</ele>
        <time>2017-10-15T12:05:43.000Z</time>
      </trkpt>
      <trkpt lat="42.38986" lon="2.11457">
        <ele>2771</ele>
        <time>2017-10-15T12:05:44.000Z</time>
      </trkpt>
      <trkpt lat="42.38987" lon="2.11458">
        <ele>2771</ele>
        <time>2017-10-15T12:05:45.000Z</time>
      </trkpt>
      <trkpt lat="42.38987" lon="2.11458">
        <ele>2772</ele>
        <time>2017-10-15T12:05:46.000Z</time>
      </trkpt>
      <trkpt lat="42.38988" lon="2.11458">
        <ele>2772</ele>
        <time>2017-10-15T12:05:47.000Z</time>
      </trkpt>
      <trkpt lat="42.38988" lon="2.11457">
        <ele>2772</ele>
        <time>2017-10-15T12:05:48.000Z</time>
      </trkpt>
      <trkpt lat="42.38989" lon="2.11457">
        <ele>2772</ele>
        <time>2017-10-15T12:05:49.000Z</time>
      </trkpt>
      <trkpt lat="42.38989" lon="2.11458">
        <ele>2772</ele>
        <time>2017-10-15T12:05:50.000Z</time>
      </trkpt>
      <trkpt lat="42.3899" lon="2.11458">
        <ele>2772</ele>
        <time>2017-10-15T12:05:51.000Z</time>
      </trkpt>
      <trkpt lat="42.3899" lon="2.11458">
        <ele>2772</ele>
        <time>2017-10-15T12:05:52.000Z</time>
      </trkpt>
      <trkpt lat="42.38991" lon="2.11458">
        <ele>2772</ele>
        <time>2017-10-15T12:05:53.000Z</time>
      </trkpt>
      <trkpt lat="42.38991" lon="2.11459">
        <ele>2772</ele>
        <time>2017-10-15T12:05:54.000Z</time>
      </trkpt>
      <trkpt lat="42.38992" lon="2.11459">
        <ele>2772</ele>
        <time>2017-10-15T12:05:55.000Z</time>
      </trkpt>
      <trkpt lat="42.38992" lon="2.1146">
        <ele>2773</ele>
        <time>2017-10-15T12:05:56.000Z</time>
      </trkpt>
      <trkpt lat="42.38993" lon="2.1146">
        <ele>2773</ele>
        <time>2017-10-15T12:05:57.000Z</time>
      </trkpt>
      <trkpt lat="42.38993" lon="2.11461">
        <ele>2773</ele>
        <time>2017-10-15T12:05:58.000Z</time>
      </trkpt>
      <trkpt lat="42.38993" lon="2.11461">
        <ele>2773</ele>
        <time>2017-10-15T12:05:59.000Z</time>
      </trkpt>
      <trkpt lat="42.39082" lon="2.11488">
        <ele>2796</ele>
        <time>2017-10-15T12:09:31.000Z</time>
      </trkpt>
      <trkpt lat="42.39082" lon="2.11489">
        <ele>2796</ele>
        <time>2017-10-15T12:09:32.000Z</time>
      </trkpt>
      <trkpt lat="42.39083" lon="2.11488">
        <ele>2796</ele>
        <time>2017-10-15T12:09:33.000Z</time>
      </trkpt>
      <trkpt lat="42.39083" lon="2.11488">
        <ele>2796</ele>
        <time>2017-10-15T12:09:34.000Z</time>
      </trkpt>
      <trkpt lat="42.39084" lon="2.11488">
        <ele>2796</ele>
        <time>2017-10-15T12:09:35.000Z</time>
      </trkpt>
      <trkpt lat="42.39084" lon="2.11488">
        <ele>2796</ele>
        <time>2017-10-15T12:09:36.000Z</time>
      </trkpt>
      <trkpt lat="42.39084" lon="2.11488">
        <ele>2796</ele>
        <time>2017-10-15T12:09:37.000Z</time>
      </trkpt>
      <trkpt lat="42.3909" lon="2.11488">
        <ele>2795</ele>
        <time>2017-10-15T12:09:47.000Z</time>
      </trkpt>
      <trkpt lat="42.39091" lon="2.11489">
        <ele>2795</ele>
        <time>2017-10-15T12:09:48.000Z</time>
      </trkpt>
      <trkpt lat="42.39091" lon="2.11489">
        <ele>2795</ele>
        <time>2017-10-15T12:09:49.000Z</time>
      </trkpt>
      <trkpt lat="42.39092" lon="2.11489">
        <ele>2795</ele>
        <time>2017-10-15T12:09:50.000Z</time>
      </trkpt>
      <trkpt lat="42.39092" lon="2.11489">
        <ele>2795</ele>
        <time>2017-10-15T12:09:51.000Z</time>
      </trkpt>
      <trkpt lat="42.39093" lon="2.1149">
        <ele>2795</ele>
        <time>2017-10-15T12:09:52.000Z</time>
      </trkpt>
      <trkpt lat="42.39093" lon="2.1149">
        <ele>2795</ele>
        <time>2017-10-15T12:09:53.000Z</time>
      </trkpt>
      <trkpt lat="42.39094" lon="2.1149">
        <ele>2795</ele>
        <time>2017-10-15T12:09:54.000Z</time>
      </trkpt>
      <trkpt lat="42.39094" lon="2.11491">
        <ele>2795</ele>
        <time>2017-10-15T12:09:55.000Z</time>
      </trkpt>
      <trkpt lat="42.39095" lon="2.11491">
        <ele>2795</ele>
        <time>2017-10-15T12:09:56.000Z</time>
      </trkpt>
      <trkpt lat="42.39095" lon="2.11491">
        <ele>2795</ele>
        <time>2017-10-15T12:09:57.000Z</time>
      </trkpt>
      <trkpt lat="42.39096" lon="2.11491">
        <ele>2794</ele>
        <time>2017-10-15T12:09:58.000Z</time>
      </trkpt>
      <trkpt lat="42.39096" lon="2.11491">
        <ele>2794</ele>
        <time>2017-10-15T12:09:59.000Z</time>
      </trkpt>
      <trkpt lat="42.39096" lon="2.11491">
        <ele>2794</ele>
        <time>2017-10-15T12:10:00.000Z</time>
      </trkpt>
      <trkpt lat="42.39096" lon="2.11491">
        <ele>2794</ele>
        <time>2017-10-15T12:10:01.000Z</time>
      </trkpt>
      <trkpt lat="42.39113" lon="2.11495">
        <ele>2791</ele>
        <time>2017-10-15T12:10:45.000Z</time>
      </trkpt>
      <trkpt lat="42.39114" lon="2.11495">
        <ele>2791</ele>
        <time>2017-10-15T12:10:46.000Z</time>
      </trkpt>
      <trkpt lat="42.39113" lon="2.11495">
        <ele>2791</ele>
        <time>2017-10-15T12:10:47.000Z</time>
      </trkpt>
      <trkpt lat="42.39117" lon="2.11492">
        <ele>2791</ele>
        <time>2017-10-15T12:10:57.000Z</time>
      </trkpt>
      <trkpt lat="42.39118" lon="2.11492">
        <ele>2791</ele>
        <time>2017-10-15T12:10:58.000Z</time>
      </trkpt>
      <trkpt lat="42.39119" lon="2.11492">
        <ele>2790</ele>
        <time>2017-10-15T12:10:59.000Z</time>
      </trkpt>
      <trkpt lat="42.3912" lon="2.11492">
        <ele>2790</ele>
        <time>2017-10-15T12:11:00.000Z</time>
      </trkpt>
      <trkpt lat="42.39121" lon="2.11492">
        <ele>2790</ele>
        <time>2017-10-15T12:11:01.000Z</time>
      </trkpt>
      <trkpt lat="42.39122" lon="2.11493">
        <ele>2790</ele>
        <time>2017-10-15T12:11:02.000Z</time>
      </trkpt>
      <trkpt lat="42.39123" lon="2.11493">
        <ele>2790</ele>
        <time>2017-10-15T12:11:03.000Z</time>
      </trkpt>
      <trkpt lat="42.39123" lon="2.11493">
        <ele>2790</ele>
        <time>2017-10-15T12:11:04.000Z</time>
      </trkpt>
      <trkpt lat="42.39124" lon="2.11493">
        <ele>2790</ele>
        <time>2017-10-15T12:11:05.000Z</time>
      </trkpt>
      <trkpt lat="42.39125" lon="2.11493">
        <ele>2790</ele>
        <time>2017-10-15T12:11:06.000Z</time>
      </trkpt>
      <trkpt lat="42.39126" lon="2.11493">
        <ele>2789</ele>
        <time>2017-10-15T12:11:07.000Z</time>
      </trkpt>
      <trkpt lat="42.39126" lon="2.11494">
        <ele>2789</ele>
        <time>2017-10-15T12:11:08.000Z</time>
      </trkpt>
      <trkpt lat="42.39127" lon="2.11494">
        <ele>2789</ele>
        <time>2017-10-15T12:11:09.000Z</time>
      </trkpt>
      <trkpt lat="42.39128" lon="2.11494">
        <ele>2789</ele>
        <time>2017-10-15T12:11:10.000Z</time>
      </trkpt>
      <trkpt lat="42.39129" lon="2.11494">
        <ele>2789</ele>
        <time>2017-10-15T12:11:11.000Z</time>
      </trkpt>
      <trkpt lat="42.39129" lon="2.11494">
        <ele>2789</ele>
        <time>2017-10-15T12:11:12.000Z</time>
      </trkpt>
      <trkpt lat="42.3913" lon="2.11495">
        <ele>2788</ele>
        <time>2017-10-15T12:11:13.000Z</time>
      </trkpt>
      <trkpt lat="42.39131" lon="2.11495">
        <ele>2788</ele>
        <time>2017-10-15T12:11:14.000Z</time>
      </trkpt>
      <trkpt lat="42.39131" lon="2.11495">
        <ele>2788</ele>
        <time>2017-10-15T12:11:15.000Z</time>
      </trkpt>
      <trkpt lat="42.39132" lon="2.11495">
        <ele>2788</ele>
        <time>2017-10-15T12:11:16.000Z</time>
      </trkpt>
      <trkpt lat="42.39133" lon="2.11495">
        <ele>2788</ele>
        <time>2017-10-15T12:11:17.000Z</time>
      </trkpt>
      <trkpt lat="42.39133" lon="2.11495">
        <ele>2788</ele>
        <time>2017-10-15T12:11:18.000Z</time>
      </trkpt>
      <trkpt lat="42.39134" lon="2.11495">
        <ele>2787</ele>
        <time>2017-10-15T12:11:19.000Z</time>
      </trkpt>
      <trkpt lat="42.39134" lon="2.11495">
        <ele>2787</ele>
        <time>2017-10-15T12:11:20.000Z</time>
      </trkpt>
      <trkpt lat="42.39135" lon="2.11495">
        <ele>2787</ele>
        <time>2017-10-15T12:11:21.000Z</time>
      </trkpt>
      <trkpt lat="42.39135" lon="2.11495">
        <ele>2787</ele>
        <time>2017-10-15T12:11:22.000Z</time>
      </trkpt>
      <trkpt lat="42.39166" lon="2.11489">
        <ele>2781</ele>
        <time>2017-10-15T12:12:38.000Z</time>
      </trkpt>
      <trkpt lat="42.39167" lon="2.1149">
        <ele>2781</ele>
        <time>2017-10-15T12:12:39.000Z</time>
      </trkpt>
      <trkpt lat="42.39167" lon="2.1149">
        <ele>2781</ele>
        <time>2017-10-15T12:12:40.000Z</time>
      </trkpt>
      <trkpt lat="42.39168" lon="2.11489">
        <ele>2781</ele>
        <time>2017-10-15T12:12:41.000Z</time>
      </trkpt>
      <trkpt lat="42.39169" lon="2.1149">
        <ele>2781</ele>
        <time>2017-10-15T12:12:42.000Z</time>
      </trkpt>
      <trkpt lat="42.39169" lon="2.1149">
        <ele>2781</ele>
        <time>2017-10-15T12:12:43.000Z</time>
      </trkpt>
      <trkpt lat="42.3917" lon="2.1149">
        <ele>2781</ele>
        <time>2017-10-15T12:12:44.000Z</time>
      </trkpt>
      <trkpt lat="42.39171" lon="2.1149">
        <ele>2781</ele>
        <time>2017-10-15T12:12:45.000Z</time>
      </trkpt>
      <trkpt lat="42.39171" lon="2.1149">
        <ele>2781</ele>
        <time>2017-10-15T12:12:46.000Z</time>
      </trkpt>
      <trkpt lat="42.39172" lon="2.1149">
        <ele>2781</ele>
        <time>2017-10-15T12:12:47.000Z</time>
      </trkpt>
      <trkpt lat="42.39173" lon="2.1149">
        <ele>2781</ele>
        <time>2017-10-15T12:12:48.000Z</time>
      </trkpt>
      <trkpt lat="42.39173" lon="2.1149">
        <ele>2780</ele>
        <time>2017-10-15T12:12:49.000Z</time>
      </trkpt>
      <trkpt lat="42.39174" lon="2.1149">
        <ele>2780</ele>
        <time>2017-10-15T12:12:50.000Z</time>
      </trkpt>
      <trkpt lat="42.39175" lon="2.1149">
        <ele>2780</ele>
        <time>2017-10-15T12:12:51.000Z</time>
      </trkpt>
      <trkpt lat="42.39175" lon="2.11489">
        <ele>2780</ele>
        <time>2017-10-15T12:12:52.000Z</time>
      </trkpt>
      <trkpt lat="42.39176" lon="2.11489">
        <ele>2780</ele>
        <time>2017-10-15T12:12:53.000Z</time>
      </trkpt>
      <trkpt lat="42.39176" lon="2.11489">
        <ele>2780</ele>
        <time>2017-10-15T12:12:54.000Z</time>
      </trkpt>
      <trkpt lat="42.39176" lon="2.11488">
        <ele>2780</ele>
        <time>2017-10-15T12:12:55.000Z</time>
      </trkpt>
      <trkpt lat="42.39185" lon="2.11483">
        <ele>2778</ele>
        <time>2017-10-15T12:13:17.000Z</time>
      </trkpt>
      <trkpt lat="42.39186" lon="2.11483">
        <ele>2778</ele>
        <time>2017-10-15T12:13:18.000Z</time>
      </trkpt>
      <trkpt lat="42.39186" lon="2.11484">
        <ele>2778</ele>
        <time>2017-10-15T12:13:19.000Z</time>
      </trkpt>
      <trkpt lat="42.39187" lon="2.11484">
        <ele>2778</ele>
        <time>2017-10-15T12:13:20.000Z</time>
      </trkpt>
      <trkpt lat="42.39187" lon="2.11484">
        <ele>2778</ele>
        <time>2017-10-15T12:13:21.000Z</time>
      </trkpt>
      <trkpt lat="42.39208" lon="2.11486">
        <ele>2776</ele>
        <time>2017-10-15T12:15:03.000Z</time>
      </trkpt>
      <trkpt lat="42.39209" lon="2.11487">
        <ele>2776</ele>
        <time>2017-10-15T12:15:04.000Z</time>
      </trkpt>
      <trkpt lat="42.3921" lon="2.11487">
        <ele>2776</ele>
        <time>2017-10-15T12:15:05.000Z</time>
      </trkpt>
      <trkpt lat="42.3921" lon="2.11487">
        <ele>2776</ele>
        <time>2017-10-15T12:15:06.000Z</time>
      </trkpt>
      <trkpt lat="42.39211" lon="2.11487">
        <ele>2776</ele>
        <time>2017-10-15T12:15:07.000Z</time>
      </trkpt>
      <trkpt lat="42.39212" lon="2.11487">
        <ele>2776</ele>
        <time>2017-10-15T12:15:08.000Z</time>
      </trkpt>
      <trkpt lat="42.39212" lon="2.11487">
        <ele>2776</ele>
        <time>2017-10-15T12:15:09.000Z</time>
      </trkpt>
      <trkpt lat="42.39212" lon="2.11487">
        <ele>2776</ele>
        <time>2017-10-15T12:15:10.000Z</time>
      </trkpt>
      <trkpt lat="42.39225" lon="2.11482">
        <ele>2774</ele>
        <time>2017-10-15T12:15:31.000Z</time>
      </trkpt>
      <trkpt lat="42.39225" lon="2.11482">
        <ele>2774</ele>
        <time>2017-10-15T12:15:32.000Z</time>
      </trkpt>
      <trkpt lat="42.39227" lon="2.11482">
        <ele>2774</ele>
        <time>2017-10-15T12:15:33.000Z</time>
      </trkpt>
      <trkpt lat="42.39227" lon="2.11482">
        <ele>2774</ele>
        <time>2017-10-15T12:15:34.000Z</time>
      </trkpt>
      <trkpt lat="42.39228" lon="2.11481">
        <ele>2774</ele>
        <time>2017-10-15T12:15:35.000Z</time>
      </trkpt>
      <trkpt lat="42.39229" lon="2.11481">
        <ele>2773</ele>
        <time>2017-10-15T12:15:36.000Z</time>
      </trkpt>
      <trkpt lat="42.3923" lon="2.11481">
        <ele>2773</ele>
        <time>2017-10-15T12:15:37.000Z</time>
      </trkpt>
      <trkpt lat="42.3923" lon="2.1148">
        <ele>2773</ele>
        <time>2017-10-15T12:15:38.000Z</time>
      </trkpt>
      <trkpt lat="42.39231" lon="2.1148">
        <ele>2773</ele>
        <time>2017-10-15T12:15:39.000Z</time>
      </trkpt>
      <trkpt lat="42.39232" lon="2.1148">
        <ele>2773</ele>
        <time>2017-10-15T12:15:40.000Z</time>
      </trkpt>
      <trkpt lat="42.39233" lon="2.1148">
        <ele>2773</ele>
        <time>2017-10-15T12:15:41.000Z</time>
      </trkpt>
      <trkpt lat="42.39234" lon="2.1148">
        <ele>2773</ele>
        <time>2017-10-15T12:15:42.000Z</time>
      </trkpt>
      <trkpt lat="42.39235" lon="2.1148">
        <ele>2773</ele>
        <time>2017-10-15T12:15:43.000Z</time>
      </trkpt>
      <trkpt lat="42.39235" lon="2.1148">
        <ele>2773</ele>
        <time>2017-10-15T12:15:44.000Z</time>
      </trkpt>
      <trkpt lat="42.39236" lon="2.1148">
        <ele>2773</ele>
        <time>2017-10-15T12:15:45.000Z</time>
      </trkpt>
      <trkpt lat="42.39237" lon="2.1148">
        <ele>2773</ele>
        <time>2017-10-15T12:15:46.000Z</time>
      </trkpt>
      <trkpt lat="42.39237" lon="2.1148">
        <ele>2772</ele>
        <time>2017-10-15T12:15:47.000Z</time>
      </trkpt>
      <trkpt lat="42.39238" lon="2.11479">
        <ele>2772</ele>
        <time>2017-10-15T12:15:48.000Z</time>
      </trkpt>
      <trkpt lat="42.39239" lon="2.11478">
        <ele>2772</ele>
        <time>2017-10-15T12:15:49.000Z</time>
      </trkpt>
      <trkpt lat="42.39239" lon="2.11478">
        <ele>2772</ele>
        <time>2017-10-15T12:15:50.000Z</time>
      </trkpt>
      <trkpt lat="42.3924" lon="2.11477">
        <ele>2772</ele>
        <time>2017-10-15T12:15:51.000Z</time>
      </trkpt>
      <trkpt lat="42.3924" lon="2.11477">
        <ele>2772</ele>
        <time>2017-10-15T12:15:52.000Z</time>
      </trkpt>
      <trkpt lat="42.3924" lon="2.11476">
        <ele>2772</ele>
        <time>2017-10-15T12:15:53.000Z</time>
      </trkpt>
      <trkpt lat="42.3924" lon="2.11476">
        <ele>2772</ele>
        <time>2017-10-15T12:15:54.000Z</time>
      </trkpt>
      <trkpt lat="42.39241" lon="2.11475">
        <ele>2772</ele>
        <time>2017-10-15T12:15:55.000Z</time>
      </trkpt>
      <trkpt lat="42.39241" lon="2.11474">
        <ele>2771</ele>
        <time>2017-10-15T12:15:56.000Z</time>
      </trkpt>
      <trkpt lat="42.39241" lon="2.11473">
        <ele>2771</ele>
        <time>2017-10-15T12:15:57.000Z</time>
      </trkpt>
      <trkpt lat="42.39242" lon="2.11473">
        <ele>2771</ele>
        <time>2017-10-15T12:15:58.000Z</time>
      </trkpt>
      <trkpt lat="42.39243" lon="2.11472">
        <ele>2771</ele>
        <time>2017-10-15T12:15:59.000Z</time>
      </trkpt>
      <trkpt lat="42.39244" lon="2.11472">
        <ele>2771</ele>
        <time>2017-10-15T12:16:00.000Z</time>
      </trkpt>
      <trkpt lat="42.39245" lon="2.11472">
        <ele>2771</ele>
        <time>2017-10-15T12:16:01.000Z</time>
      </trkpt>
      <trkpt lat="42.39246" lon="2.11472">
        <ele>2771</ele>
        <time>2017-10-15T12:16:02.000Z</time>
      </trkpt>
      <trkpt lat="42.39247" lon="2.11472">
        <ele>2771</ele>
        <time>2017-10-15T12:16:03.000Z</time>
      </trkpt>
      <trkpt lat="42.39248" lon="2.11473">
        <ele>2771</ele>
        <time>2017-10-15T12:16:04.000Z</time>
      </trkpt>
      <trkpt lat="42.39249" lon="2.11473">
        <ele>2771</ele>
        <time>2017-10-15T12:16:05.000Z</time>
      </trkpt>
      <trkpt lat="42.3925" lon="2.11473">
        <ele>2771</ele>
        <time>2017-10-15T12:16:06.000Z</time>
      </trkpt>
      <trkpt lat="42.39251" lon="2.11472">
        <ele>2771</ele>
        <time>2017-10-15T12:16:07.000Z</time>
      </trkpt>
      <trkpt lat="42.39252" lon="2.11472">
        <ele>2771</ele>
        <time>2017-10-15T12:16:08.000Z</time>
      </trkpt>
      <trkpt lat="42.39254" lon="2.11472">
        <ele>2771</ele>
        <time>2017-10-15T12:16:09.000Z</time>
      </trkpt>
      <trkpt lat="42.39255" lon="2.11472">
        <ele>2771</ele>
        <time>2017-10-15T12:16:10.000Z</time>
      </trkpt>
      <trkpt lat="42.39256" lon="2.11472">
        <ele>2771</ele>
        <time>2017-10-15T12:16:11.000Z</time>
      </trkpt>
      <trkpt lat="42.39257" lon="2.11471">
        <ele>2771</ele>
        <time>2017-10-15T12:16:12.000Z</time>
      </trkpt>
      <trkpt lat="42.39258" lon="2.1147">
        <ele>2771</ele>
        <time>2017-10-15T12:16:13.000Z</time>
      </trkpt>
      <trkpt lat="42.39259" lon="2.1147">
        <ele>2771</ele>
        <time>2017-10-15T12:16:14.000Z</time>
      </trkpt>
      <trkpt lat="42.3926" lon="2.1147">
        <ele>2771</ele>
        <time>2017-10-15T12:16:15.000Z</time>
      </trkpt>
      <trkpt lat="42.39261" lon="2.1147">
        <ele>2772</ele>
        <time>2017-10-15T12:16:16.000Z</time>
      </trkpt>
      <trkpt lat="42.39262" lon="2.1147">
        <ele>2772</ele>
        <time>2017-10-15T12:16:17.000Z</time>
      </trkpt>
      <trkpt lat="42.39263" lon="2.1147">
        <ele>2772</ele>
        <time>2017-10-15T12:16:18.000Z</time>
      </trkpt>
      <trkpt lat="42.39264" lon="2.1147">
        <ele>2772</ele>
        <time>2017-10-15T12:16:19.000Z</time>
      </trkpt>
      <trkpt lat="42.39265" lon="2.11471">
        <ele>2772</ele>
        <time>2017-10-15T12:16:20.000Z</time>
      </trkpt>
      <trkpt lat="42.39265" lon="2.11471">
        <ele>2772</ele>
        <time>2017-10-15T12:16:21.000Z</time>
      </trkpt>
      <trkpt lat="42.39266" lon="2.11472">
        <ele>2772</ele>
        <time>2017-10-15T12:16:22.000Z</time>
      </trkpt>
      <trkpt lat="42.39266" lon="2.11472">
        <ele>2772</ele>
        <time>2017-10-15T12:16:23.000Z</time>
      </trkpt>
      <trkpt lat="42.39267" lon="2.11472">
        <ele>2772</ele>
        <time>2017-10-15T12:16:24.000Z</time>
      </trkpt>
      <trkpt lat="42.39268" lon="2.11472">
        <ele>2772</ele>
        <time>2017-10-15T12:16:25.000Z</time>
      </trkpt>
      <trkpt lat="42.39269" lon="2.11472">
        <ele>2773</ele>
        <time>2017-10-15T12:16:26.000Z</time>
      </trkpt>
      <trkpt lat="42.39269" lon="2.11471">
        <ele>2773</ele>
        <time>2017-10-15T12:16:27.000Z</time>
      </trkpt>
      <trkpt lat="42.39269" lon="2.11471">
        <ele>2772</ele>
        <time>2017-10-15T12:16:28.000Z</time>
      </trkpt>
      <trkpt lat="42.3927" lon="2.1147">
        <ele>2772</ele>
        <time>2017-10-15T12:16:29.000Z</time>
      </trkpt>
      <trkpt lat="42.3927" lon="2.11469">
        <ele>2772</ele>
        <time>2017-10-15T12:16:30.000Z</time>
      </trkpt>
      <trkpt lat="42.3927" lon="2.11468">
        <ele>2772</ele>
        <time>2017-10-15T12:16:31.000Z</time>
      </trkpt>
      <trkpt lat="42.39271" lon="2.11467">
        <ele>2772</ele>
        <time>2017-10-15T12:16:32.000Z</time>
      </trkpt>
      <trkpt lat="42.39272" lon="2.11467">
        <ele>2772</ele>
        <time>2017-10-15T12:16:33.000Z</time>
      </trkpt>
      <trkpt lat="42.39272" lon="2.11466">
        <ele>2772</ele>
        <time>2017-10-15T12:16:34.000Z</time>
      </trkpt>
      <trkpt lat="42.39273" lon="2.11465">
        <ele>2772</ele>
        <time>2017-10-15T12:16:35.000Z</time>
      </trkpt>
      <trkpt lat="42.39274" lon="2.11465">
        <ele>2772</ele>
        <time>2017-10-15T12:16:36.000Z</time>
      </trkpt>
      <trkpt lat="42.39275" lon="2.11465">
        <ele>2772</ele>
        <time>2017-10-15T12:16:37.000Z</time>
      </trkpt>
      <trkpt lat="42.39276" lon="2.11466">
        <ele>2772</ele>
        <time>2017-10-15T12:16:38.000Z</time>
      </trkpt>
      <trkpt lat="42.39277" lon="2.11466">
        <ele>2772</ele>
        <time>2017-10-15T12:16:39.000Z</time>
      </trkpt>
      <trkpt lat="42.39278" lon="2.11465">
        <ele>2772</ele>
        <time>2017-10-15T12:16:40.000Z</time>
      </trkpt>
      <trkpt lat="42.39279" lon="2.11465">
        <ele>2772</ele>
        <time>2017-10-15T12:16:41.000Z</time>
      </trkpt>
      <trkpt lat="42.3928" lon="2.11465">
        <ele>2773</ele>
        <time>2017-10-15T12:16:42.000Z</time>
      </trkpt>
      <trkpt lat="42.3928" lon="2.11466">
        <ele>2773</ele>
        <time>2017-10-15T12:16:43.000Z</time>
      </trkpt>
      <trkpt lat="42.39281" lon="2.11466">
        <ele>2773</ele>
        <time>2017-10-15T12:16:44.000Z</time>
      </trkpt>
      <trkpt lat="42.39282" lon="2.11467">
        <ele>2773</ele>
        <time>2017-10-15T12:16:45.000Z</time>
      </trkpt>
      <trkpt lat="42.39282" lon="2.11467">
        <ele>2773</ele>
        <time>2017-10-15T12:16:46.000Z</time>
      </trkpt>
      <trkpt lat="42.39283" lon="2.11467">
        <ele>2773</ele>
        <time>2017-10-15T12:16:47.000Z</time>
      </trkpt>
      <trkpt lat="42.39284" lon="2.11467">
        <ele>2773</ele>
        <time>2017-10-15T12:16:48.000Z</time>
      </trkpt>
      <trkpt lat="42.39284" lon="2.11467">
        <ele>2773</ele>
        <time>2017-10-15T12:16:49.000Z</time>
      </trkpt>
      <trkpt lat="42.39285" lon="2.11468">
        <ele>2773</ele>
        <time>2017-10-15T12:16:50.000Z</time>
      </trkpt>
      <trkpt lat="42.39285" lon="2.11469">
        <ele>2774</ele>
        <time>2017-10-15T12:16:51.000Z</time>
      </trkpt>
      <trkpt lat="42.39286" lon="2.11469">
        <ele>2774</ele>
        <time>2017-10-15T12:16:52.000Z</time>
      </trkpt>
      <trkpt lat="42.39287" lon="2.11469">
        <ele>2774</ele>
        <time>2017-10-15T12:16:53.000Z</time>
      </trkpt>
      <trkpt lat="42.39287" lon="2.11469">
        <ele>2774</ele>
        <time>2017-10-15T12:16:54.000Z</time>
      </trkpt>
      <trkpt lat="42.39288" lon="2.11469">
        <ele>2774</ele>
        <time>2017-10-15T12:16:55.000Z</time>
      </trkpt>
      <trkpt lat="42.39289" lon="2.11469">
        <ele>2774</ele>
        <time>2017-10-15T12:16:56.000Z</time>
      </trkpt>
      <trkpt lat="42.39289" lon="2.11469">
        <ele>2774</ele>
        <time>2017-10-15T12:16:57.000Z</time>
      </trkpt>
      <trkpt lat="42.3929" lon="2.11469">
        <ele>2774</ele>
        <time>2017-10-15T12:16:58.000Z</time>
      </trkpt>
      <trkpt lat="42.39291" lon="2.1147">
        <ele>2774</ele>
        <time>2017-10-15T12:16:59.000Z</time>
      </trkpt>
      <trkpt lat="42.39292" lon="2.1147">
        <ele>2774</ele>
        <time>2017-10-15T12:17:00.000Z</time>
      </trkpt>
      <trkpt lat="42.39292" lon="2.1147">
        <ele>2775</ele>
        <time>2017-10-15T12:17:01.000Z</time>
      </trkpt>
      <trkpt lat="42.39293" lon="2.1147">
        <ele>2775</ele>
        <time>2017-10-15T12:17:02.000Z</time>
      </trkpt>
      <trkpt lat="42.39294" lon="2.1147">
        <ele>2775</ele>
        <time>2017-10-15T12:17:03.000Z</time>
      </trkpt>
      <trkpt lat="42.39294" lon="2.1147">
        <ele>2775</ele>
        <time>2017-10-15T12:17:04.000Z</time>
      </trkpt>
      <trkpt lat="42.39295" lon="2.1147">
        <ele>2775</ele>
        <time>2017-10-15T12:17:05.000Z</time>
      </trkpt>
      <trkpt lat="42.39296" lon="2.11469">
        <ele>2775</ele>
        <time>2017-10-15T12:17:06.000Z</time>
      </trkpt>
      <trkpt lat="42.39296" lon="2.1147">
        <ele>2775</ele>
        <time>2017-10-15T12:17:07.000Z</time>
      </trkpt>
      <trkpt lat="42.39297" lon="2.1147">
        <ele>2775</ele>
        <time>2017-10-15T12:17:08.000Z</time>
      </trkpt>
      <trkpt lat="42.39298" lon="2.1147">
        <ele>2775</ele>
        <time>2017-10-15T12:17:09.000Z</time>
      </trkpt>
      <trkpt lat="42.39299" lon="2.11471">
        <ele>2775</ele>
        <time>2017-10-15T12:17:10.000Z</time>
      </trkpt>
      <trkpt lat="42.39299" lon="2.11471">
        <ele>2775</ele>
        <time>2017-10-15T12:17:11.000Z</time>
      </trkpt>
      <trkpt lat="42.393" lon="2.11471">
        <ele>2775</ele>
        <time>2017-10-15T12:17:12.000Z</time>
      </trkpt>
      <trkpt lat="42.39301" lon="2.11471">
        <ele>2776</ele>
        <time>2017-10-15T12:17:13.000Z</time>
      </trkpt>
      <trkpt lat="42.39302" lon="2.11472">
        <ele>2776</ele>
        <time>2017-10-15T12:17:14.000Z</time>
      </trkpt>
      <trkpt lat="42.39302" lon="2.11472">
        <ele>2776</ele>
        <time>2017-10-15T12:17:15.000Z</time>
      </trkpt>
      <trkpt lat="42.39303" lon="2.11473">
        <ele>2776</ele>
        <time>2017-10-15T12:17:16.000Z</time>
      </trkpt>
      <trkpt lat="42.39304" lon="2.11473">
        <ele>2776</ele>
        <time>2017-10-15T12:17:17.000Z</time>
      </trkpt>
      <trkpt lat="42.39304" lon="2.11473">
        <ele>2776</ele>
        <time>2017-10-15T12:17:18.000Z</time>
      </trkpt>
      <trkpt lat="42.39305" lon="2.11473">
        <ele>2776</ele>
        <time>2017-10-15T12:17:19.000Z</time>
      </trkpt>
      <trkpt lat="42.39306" lon="2.11473">
        <ele>2776</ele>
        <time>2017-10-15T12:17:20.000Z</time>
      </trkpt>
      <trkpt lat="42.39306" lon="2.11473">
        <ele>2776</ele>
        <time>2017-10-15T12:17:21.000Z</time>
      </trkpt>
      <trkpt lat="42.39307" lon="2.11473">
        <ele>2776</ele>
        <time>2017-10-15T12:17:22.000Z</time>
      </trkpt>
      <trkpt lat="42.39308" lon="2.11473">
        <ele>2777</ele>
        <time>2017-10-15T12:17:23.000Z</time>
      </trkpt>
      <trkpt lat="42.39308" lon="2.11473">
        <ele>2777</ele>
        <time>2017-10-15T12:17:24.000Z</time>
      </trkpt>
      <trkpt lat="42.39309" lon="2.11474">
        <ele>2777</ele>
        <time>2017-10-15T12:17:25.000Z</time>
      </trkpt>
      <trkpt lat="42.39309" lon="2.11474">
        <ele>2777</ele>
        <time>2017-10-15T12:17:26.000Z</time>
      </trkpt>
      <trkpt lat="42.3931" lon="2.11474">
        <ele>2777</ele>
        <time>2017-10-15T12:17:27.000Z</time>
      </trkpt>
      <trkpt lat="42.3931" lon="2.11475">
        <ele>2777</ele>
        <time>2017-10-15T12:17:28.000Z</time>
      </trkpt>
      <trkpt lat="42.39311" lon="2.11475">
        <ele>2777</ele>
        <time>2017-10-15T12:17:29.000Z</time>
      </trkpt>
      <trkpt lat="42.39312" lon="2.11475">
        <ele>2777</ele>
        <time>2017-10-15T12:17:30.000Z</time>
      </trkpt>
      <trkpt lat="42.39313" lon="2.11475">
        <ele>2777</ele>
        <time>2017-10-15T12:17:31.000Z</time>
      </trkpt>
      <trkpt lat="42.39313" lon="2.11475">
        <ele>2777</ele>
        <time>2017-10-15T12:17:32.000Z</time>
      </trkpt>
      <trkpt lat="42.39314" lon="2.11475">
        <ele>2777</ele>
        <time>2017-10-15T12:17:33.000Z</time>
      </trkpt>
      <trkpt lat="42.39315" lon="2.11476">
        <ele>2777</ele>
        <time>2017-10-15T12:17:34.000Z</time>
      </trkpt>
      <trkpt lat="42.39316" lon="2.11476">
        <ele>2778</ele>
        <time>2017-10-15T12:17:35.000Z</time>
      </trkpt>
      <trkpt lat="42.39316" lon="2.11476">
        <ele>2778</ele>
        <time>2017-10-15T12:17:36.000Z</time>
      </trkpt>
      <trkpt lat="42.39317" lon="2.11476">
        <ele>2778</ele>
        <time>2017-10-15T12:17:37.000Z</time>
      </trkpt>
      <trkpt lat="42.39318" lon="2.11476">
        <ele>2778</ele>
        <time>2017-10-15T12:17:38.000Z</time>
      </trkpt>
      <trkpt lat="42.39318" lon="2.11476">
        <ele>2778</ele>
        <time>2017-10-15T12:17:39.000Z</time>
      </trkpt>
      <trkpt lat="42.39319" lon="2.11477">
        <ele>2778</ele>
        <time>2017-10-15T12:17:40.000Z</time>
      </trkpt>
      <trkpt lat="42.3932" lon="2.11477">
        <ele>2778</ele>
        <time>2017-10-15T12:17:41.000Z</time>
      </trkpt>
      <trkpt lat="42.39321" lon="2.11477">
        <ele>2778</ele>
        <time>2017-10-15T12:17:42.000Z</time>
      </trkpt>
      <trkpt lat="42.39321" lon="2.11478">
        <ele>2778</ele>
        <time>2017-10-15T12:17:43.000Z</time>
      </trkpt>
      <trkpt lat="42.39322" lon="2.11478">
        <ele>2778</ele>
        <time>2017-10-15T12:17:44.000Z</time>
      </trkpt>
      <trkpt lat="42.39323" lon="2.11478">
        <ele>2778</ele>
        <time>2017-10-15T12:17:45.000Z</time>
      </trkpt>
      <trkpt lat="42.39323" lon="2.11478">
        <ele>2778</ele>
        <time>2017-10-15T12:17:46.000Z</time>
      </trkpt>
      <trkpt lat="42.39324" lon="2.11478">
        <ele>2778</ele>
        <time>2017-10-15T12:17:47.000Z</time>
      </trkpt>
      <trkpt lat="42.39324" lon="2.11479">
        <ele>2778</ele>
        <time>2017-10-15T12:17:48.000Z</time>
      </trkpt>
      <trkpt lat="42.39325" lon="2.11478">
        <ele>2778</ele>
        <time>2017-10-15T12:17:49.000Z</time>
      </trkpt>
      <trkpt lat="42.39326" lon="2.11478">
        <ele>2778</ele>
        <time>2017-10-15T12:17:50.000Z</time>
      </trkpt>
      <trkpt lat="42.39327" lon="2.11479">
        <ele>2778</ele>
        <time>2017-10-15T12:17:51.000Z</time>
      </trkpt>
      <trkpt lat="42.39327" lon="2.11479">
        <ele>2779</ele>
        <time>2017-10-15T12:17:52.000Z</time>
      </trkpt>
      <trkpt lat="42.39328" lon="2.1148">
        <ele>2779</ele>
        <time>2017-10-15T12:17:53.000Z</time>
      </trkpt>
      <trkpt lat="42.39328" lon="2.1148">
        <ele>2779</ele>
        <time>2017-10-15T12:17:54.000Z</time>
      </trkpt>
      <trkpt lat="42.39329" lon="2.11481">
        <ele>2779</ele>
        <time>2017-10-15T12:17:55.000Z</time>
      </trkpt>
      <trkpt lat="42.39329" lon="2.11481">
        <ele>2779</ele>
        <time>2017-10-15T12:17:56.000Z</time>
      </trkpt>
      <trkpt lat="42.3933" lon="2.11481">
        <ele>2779</ele>
        <time>2017-10-15T12:17:57.000Z</time>
      </trkpt>
      <trkpt lat="42.39331" lon="2.11481">
        <ele>2779</ele>
        <time>2017-10-15T12:17:58.000Z</time>
      </trkpt>
      <trkpt lat="42.39331" lon="2.11481">
        <ele>2779</ele>
        <time>2017-10-15T12:17:59.000Z</time>
      </trkpt>
      <trkpt lat="42.39332" lon="2.11481">
        <ele>2779</ele>
        <time>2017-10-15T12:18:00.000Z</time>
      </trkpt>
      <trkpt lat="42.39333" lon="2.11482">
        <ele>2779</ele>
        <time>2017-10-15T12:18:01.000Z</time>
      </trkpt>
      <trkpt lat="42.39333" lon="2.11482">
        <ele>2780</ele>
        <time>2017-10-15T12:18:02.000Z</time>
      </trkpt>
      <trkpt lat="42.39334" lon="2.11482">
        <ele>2780</ele>
        <time>2017-10-15T12:18:03.000Z</time>
      </trkpt>
      <trkpt lat="42.39334" lon="2.11482">
        <ele>2780</ele>
        <time>2017-10-15T12:18:04.000Z</time>
      </trkpt>
      <trkpt lat="42.39335" lon="2.11482">
        <ele>2780</ele>
        <time>2017-10-15T12:18:05.000Z</time>
      </trkpt>
      <trkpt lat="42.39335" lon="2.11481">
        <ele>2780</ele>
        <time>2017-10-15T12:18:06.000Z</time>
      </trkpt>
      <trkpt lat="42.39336" lon="2.11482">
        <ele>2780</ele>
        <time>2017-10-15T12:18:07.000Z</time>
      </trkpt>
      <trkpt lat="42.39336" lon="2.11482">
        <ele>2780</ele>
        <time>2017-10-15T12:18:08.000Z</time>
      </trkpt>
      <trkpt lat="42.39337" lon="2.11482">
        <ele>2780</ele>
        <time>2017-10-15T12:18:09.000Z</time>
      </trkpt>
      <trkpt lat="42.39338" lon="2.11482">
        <ele>2780</ele>
        <time>2017-10-15T12:18:10.000Z</time>
      </trkpt>
      <trkpt lat="42.39338" lon="2.11482">
        <ele>2780</ele>
        <time>2017-10-15T12:18:11.000Z</time>
      </trkpt>
      <trkpt lat="42.39339" lon="2.11482">
        <ele>2780</ele>
        <time>2017-10-15T12:18:12.000Z</time>
      </trkpt>
      <trkpt lat="42.3934" lon="2.11483">
        <ele>2780</ele>
        <time>2017-10-15T12:18:13.000Z</time>
      </trkpt>
      <trkpt lat="42.3934" lon="2.11483">
        <ele>2781</ele>
        <time>2017-10-15T12:18:14.000Z</time>
      </trkpt>
      <trkpt lat="42.39341" lon="2.11484">
        <ele>2781</ele>
        <time>2017-10-15T12:18:15.000Z</time>
      </trkpt>
      <trkpt lat="42.39341" lon="2.11484">
        <ele>2781</ele>
        <time>2017-10-15T12:18:16.000Z</time>
      </trkpt>
      <trkpt lat="42.39342" lon="2.11484">
        <ele>2781</ele>
        <time>2017-10-15T12:18:17.000Z</time>
      </trkpt>
      <trkpt lat="42.39342" lon="2.11485">
        <ele>2781</ele>
        <time>2017-10-15T12:18:18.000Z</time>
      </trkpt>
      <trkpt lat="42.39343" lon="2.11485">
        <ele>2781</ele>
        <time>2017-10-15T12:18:19.000Z</time>
      </trkpt>
      <trkpt lat="42.39343" lon="2.11485">
        <ele>2781</ele>
        <time>2017-10-15T12:18:20.000Z</time>
      </trkpt>
      <trkpt lat="42.39344" lon="2.11485">
        <ele>2782</ele>
        <time>2017-10-15T12:18:21.000Z</time>
      </trkpt>
      <trkpt lat="42.39345" lon="2.11486">
        <ele>2782</ele>
        <time>2017-10-15T12:18:22.000Z</time>
      </trkpt>
      <trkpt lat="42.39346" lon="2.11487">
        <ele>2782</ele>
        <time>2017-10-15T12:18:23.000Z</time>
      </trkpt>
      <trkpt lat="42.39346" lon="2.11487">
        <ele>2782</ele>
        <time>2017-10-15T12:18:24.000Z</time>
      </trkpt>
      <trkpt lat="42.39347" lon="2.11487">
        <ele>2782</ele>
        <time>2017-10-15T12:18:25.000Z</time>
      </trkpt>
      <trkpt lat="42.39347" lon="2.11488">
        <ele>2783</ele>
        <time>2017-10-15T12:18:26.000Z</time>
      </trkpt>
      <trkpt lat="42.39348" lon="2.11488">
        <ele>2783</ele>
        <time>2017-10-15T12:18:27.000Z</time>
      </trkpt>
      <trkpt lat="42.39348" lon="2.11488">
        <ele>2783</ele>
        <time>2017-10-15T12:18:28.000Z</time>
      </trkpt>
      <trkpt lat="42.39349" lon="2.11489">
        <ele>2783</ele>
        <time>2017-10-15T12:18:29.000Z</time>
      </trkpt>
      <trkpt lat="42.39349" lon="2.11489">
        <ele>2783</ele>
        <time>2017-10-15T12:18:30.000Z</time>
      </trkpt>
      <trkpt lat="42.3935" lon="2.11489">
        <ele>2783</ele>
        <time>2017-10-15T12:18:31.000Z</time>
      </trkpt>
      <trkpt lat="42.39351" lon="2.11489">
        <ele>2783</ele>
        <time>2017-10-15T12:18:32.000Z</time>
      </trkpt>
      <trkpt lat="42.39352" lon="2.11489">
        <ele>2783</ele>
        <time>2017-10-15T12:18:33.000Z</time>
      </trkpt>
      <trkpt lat="42.39353" lon="2.11489">
        <ele>2784</ele>
        <time>2017-10-15T12:18:34.000Z</time>
      </trkpt>
      <trkpt lat="42.39354" lon="2.1149">
        <ele>2784</ele>
        <time>2017-10-15T12:18:35.000Z</time>
      </trkpt>
      <trkpt lat="42.39354" lon="2.1149">
        <ele>2784</ele>
        <time>2017-10-15T12:18:36.000Z</time>
      </trkpt>
      <trkpt lat="42.39355" lon="2.1149">
        <ele>2784</ele>
        <time>2017-10-15T12:18:37.000Z</time>
      </trkpt>
      <trkpt lat="42.39355" lon="2.1149">
        <ele>2784</ele>
        <time>2017-10-15T12:18:38.000Z</time>
      </trkpt>
      <trkpt lat="42.39356" lon="2.1149">
        <ele>2784</ele>
        <time>2017-10-15T12:18:39.000Z</time>
      </trkpt>
      <trkpt lat="42.39357" lon="2.1149">
        <ele>2784</ele>
        <time>2017-10-15T12:18:40.000Z</time>
      </trkpt>
      <trkpt lat="42.39357" lon="2.1149">
        <ele>2784</ele>
        <time>2017-10-15T12:18:41.000Z</time>
      </trkpt>
      <trkpt lat="42.39358" lon="2.1149">
        <ele>2784</ele>
        <time>2017-10-15T12:18:42.000Z</time>
      </trkpt>
      <trkpt lat="42.39359" lon="2.11491">
        <ele>2785</ele>
        <time>2017-10-15T12:18:43.000Z</time>
      </trkpt>
      <trkpt lat="42.39359" lon="2.11492">
        <ele>2785</ele>
        <time>2017-10-15T12:18:44.000Z</time>
      </trkpt>
      <trkpt lat="42.3936" lon="2.11493">
        <ele>2785</ele>
        <time>2017-10-15T12:18:45.000Z</time>
      </trkpt>
      <trkpt lat="42.3936" lon="2.11493">
        <ele>2785</ele>
        <time>2017-10-15T12:18:46.000Z</time>
      </trkpt>
      <trkpt lat="42.39361" lon="2.11494">
        <ele>2785</ele>
        <time>2017-10-15T12:18:47.000Z</time>
      </trkpt>
      <trkpt lat="42.39361" lon="2.11494">
        <ele>2785</ele>
        <time>2017-10-15T12:18:48.000Z</time>
      </trkpt>
      <trkpt lat="42.39362" lon="2.11494">
        <ele>2785</ele>
        <time>2017-10-15T12:18:49.000Z</time>
      </trkpt>
      <trkpt lat="42.39362" lon="2.11494">
        <ele>2785</ele>
        <time>2017-10-15T12:18:50.000Z</time>
      </trkpt>
      <trkpt lat="42.39363" lon="2.11494">
        <ele>2785</ele>
        <time>2017-10-15T12:18:51.000Z</time>
      </trkpt>
      <trkpt lat="42.39363" lon="2.11494">
        <ele>2786</ele>
        <time>2017-10-15T12:18:52.000Z</time>
      </trkpt>
      <trkpt lat="42.39364" lon="2.11495">
        <ele>2786</ele>
        <time>2017-10-15T12:18:53.000Z</time>
      </trkpt>
      <trkpt lat="42.39364" lon="2.11494">
        <ele>2786</ele>
        <time>2017-10-15T12:18:54.000Z</time>
      </trkpt>
      <trkpt lat="42.39365" lon="2.11494">
        <ele>2786</ele>
        <time>2017-10-15T12:18:55.000Z</time>
      </trkpt>
      <trkpt lat="42.39366" lon="2.11494">
        <ele>2786</ele>
        <time>2017-10-15T12:18:56.000Z</time>
      </trkpt>
      <trkpt lat="42.39366" lon="2.11494">
        <ele>2786</ele>
        <time>2017-10-15T12:18:57.000Z</time>
      </trkpt>
      <trkpt lat="42.39367" lon="2.11493">
        <ele>2786</ele>
        <time>2017-10-15T12:18:58.000Z</time>
      </trkpt>
      <trkpt lat="42.39367" lon="2.11493">
        <ele>2786</ele>
        <time>2017-10-15T12:18:59.000Z</time>
      </trkpt>
      <trkpt lat="42.39368" lon="2.11493">
        <ele>2786</ele>
        <time>2017-10-15T12:19:00.000Z</time>
      </trkpt>
      <trkpt lat="42.39369" lon="2.11493">
        <ele>2786</ele>
        <time>2017-10-15T12:19:01.000Z</time>
      </trkpt>
      <trkpt lat="42.39369" lon="2.11493">
        <ele>2786</ele>
        <time>2017-10-15T12:19:02.000Z</time>
      </trkpt>
      <trkpt lat="42.3937" lon="2.11493">
        <ele>2786</ele>
        <time>2017-10-15T12:19:03.000Z</time>
      </trkpt>
      <trkpt lat="42.3937" lon="2.11493">
        <ele>2786</ele>
        <time>2017-10-15T12:19:04.000Z</time>
      </trkpt>
      <trkpt lat="42.39371" lon="2.11493">
        <ele>2787</ele>
        <time>2017-10-15T12:19:05.000Z</time>
      </trkpt>
      <trkpt lat="42.39371" lon="2.11493">
        <ele>2787</ele>
        <time>2017-10-15T12:19:06.000Z</time>
      </trkpt>
      <trkpt lat="42.39372" lon="2.11492">
        <ele>2787</ele>
        <time>2017-10-15T12:19:07.000Z</time>
      </trkpt>
      <trkpt lat="42.39372" lon="2.11492">
        <ele>2786</ele>
        <time>2017-10-15T12:19:08.000Z</time>
      </trkpt>
      <trkpt lat="42.39372" lon="2.11492">
        <ele>2786</ele>
        <time>2017-10-15T12:19:09.000Z</time>
      </trkpt>
      <trkpt lat="42.39373" lon="2.11491">
        <ele>2786</ele>
        <time>2017-10-15T12:19:10.000Z</time>
      </trkpt>
      <trkpt lat="42.39373" lon="2.11491">
        <ele>2786</ele>
        <time>2017-10-15T12:19:11.000Z</time>
      </trkpt>
      <trkpt lat="42.39374" lon="2.11491">
        <ele>2786</ele>
        <time>2017-10-15T12:19:12.000Z</time>
      </trkpt>
      <trkpt lat="42.39375" lon="2.1149">
        <ele>2786</ele>
        <time>2017-10-15T12:19:13.000Z</time>
      </trkpt>
      <trkpt lat="42.39375" lon="2.1149">
        <ele>2786</ele>
        <time>2017-10-15T12:19:14.000Z</time>
      </trkpt>
      <trkpt lat="42.39375" lon="2.1149">
        <ele>2786</ele>
        <time>2017-10-15T12:19:15.000Z</time>
      </trkpt>
      <trkpt lat="42.39376" lon="2.11489">
        <ele>2786</ele>
        <time>2017-10-15T12:19:16.000Z</time>
      </trkpt>
      <trkpt lat="42.39377" lon="2.11489">
        <ele>2786</ele>
        <time>2017-10-15T12:19:17.000Z</time>
      </trkpt>
      <trkpt lat="42.39377" lon="2.11489">
        <ele>2786</ele>
        <time>2017-10-15T12:19:18.000Z</time>
      </trkpt>
      <trkpt lat="42.39378" lon="2.11489">
        <ele>2786</ele>
        <time>2017-10-15T12:19:19.000Z</time>
      </trkpt>
      <trkpt lat="42.39379" lon="2.11489">
        <ele>2787</ele>
        <time>2017-10-15T12:19:20.000Z</time>
      </trkpt>
      <trkpt lat="42.39379" lon="2.11488">
        <ele>2786</ele>
        <time>2017-10-15T12:19:21.000Z</time>
      </trkpt>
      <trkpt lat="42.3938" lon="2.11488">
        <ele>2786</ele>
        <time>2017-10-15T12:19:22.000Z</time>
      </trkpt>
      <trkpt lat="42.39381" lon="2.11488">
        <ele>2787</ele>
        <time>2017-10-15T12:19:23.000Z</time>
      </trkpt>
      <trkpt lat="42.39382" lon="2.11489">
        <ele>2787</ele>
        <time>2017-10-15T12:19:24.000Z</time>
      </trkpt>
      <trkpt lat="42.39382" lon="2.11489">
        <ele>2787</ele>
        <time>2017-10-15T12:19:25.000Z</time>
      </trkpt>
      <trkpt lat="42.39383" lon="2.1149">
        <ele>2787</ele>
        <time>2017-10-15T12:19:26.000Z</time>
      </trkpt>
      <trkpt lat="42.39383" lon="2.1149">
        <ele>2787</ele>
        <time>2017-10-15T12:19:27.000Z</time>
      </trkpt>
      <trkpt lat="42.39383" lon="2.1149">
        <ele>2787</ele>
        <time>2017-10-15T12:19:28.000Z</time>
      </trkpt>
      <trkpt lat="42.39384" lon="2.1149">
        <ele>2787</ele>
        <time>2017-10-15T12:19:29.000Z</time>
      </trkpt>
      <trkpt lat="42.39384" lon="2.1149">
        <ele>2787</ele>
        <time>2017-10-15T12:19:30.000Z</time>
      </trkpt>
      <trkpt lat="42.39385" lon="2.11489">
        <ele>2787</ele>
        <time>2017-10-15T12:19:31.000Z</time>
      </trkpt>
      <trkpt lat="42.39385" lon="2.11489">
        <ele>2787</ele>
        <time>2017-10-15T12:19:32.000Z</time>
      </trkpt>
      <trkpt lat="42.39386" lon="2.11489">
        <ele>2788</ele>
        <time>2017-10-15T12:19:33.000Z</time>
      </trkpt>
      <trkpt lat="42.39387" lon="2.11489">
        <ele>2788</ele>
        <time>2017-10-15T12:19:34.000Z</time>
      </trkpt>
      <trkpt lat="42.39387" lon="2.11489">
        <ele>2788</ele>
        <time>2017-10-15T12:19:35.000Z</time>
      </trkpt>
      <trkpt lat="42.39387" lon="2.1149">
        <ele>2788</ele>
        <time>2017-10-15T12:19:36.000Z</time>
      </trkpt>
      <trkpt lat="42.39386" lon="2.11495">
        <ele>2788</ele>
        <time>2017-10-15T12:25:04.000Z</time>
      </trkpt>
      <trkpt lat="42.39386" lon="2.11494">
        <ele>2788</ele>
        <time>2017-10-15T12:25:05.000Z</time>
      </trkpt>
      <trkpt lat="42.39387" lon="2.11494">
        <ele>2789</ele>
        <time>2017-10-15T12:25:06.000Z</time>
      </trkpt>
      <trkpt lat="42.39387" lon="2.11494">
        <ele>2789</ele>
        <time>2017-10-15T12:25:07.000Z</time>
      </trkpt>
      <trkpt lat="42.39387" lon="2.11493">
        <ele>2789</ele>
        <time>2017-10-15T12:25:08.000Z</time>
      </trkpt>
      <trkpt lat="42.39387" lon="2.11494">
        <ele>2789</ele>
        <time>2017-10-15T12:25:09.000Z</time>
      </trkpt>
      <trkpt lat="42.39387" lon="2.11495">
        <ele>2788</ele>
        <time>2017-10-15T12:25:10.000Z</time>
      </trkpt>
      <trkpt lat="42.39387" lon="2.11495">
        <ele>2788</ele>
        <time>2017-10-15T12:25:11.000Z</time>
      </trkpt>
      <trkpt lat="42.39387" lon="2.11496">
        <ele>2788</ele>
        <time>2017-10-15T12:25:12.000Z</time>
      </trkpt>
      <trkpt lat="42.39387" lon="2.11496">
        <ele>2788</ele>
        <time>2017-10-15T12:25:13.000Z</time>
      </trkpt>
      <trkpt lat="42.39387" lon="2.11497">
        <ele>2787</ele>
        <time>2017-10-15T12:25:14.000Z</time>
      </trkpt>
      <trkpt lat="42.39387" lon="2.11497">
        <ele>2787</ele>
        <time>2017-10-15T12:25:15.000Z</time>
      </trkpt>
      <trkpt lat="42.39387" lon="2.115">
        <ele>2786</ele>
        <time>2017-10-15T12:44:09.000Z</time>
      </trkpt>
      <trkpt lat="42.39387" lon="2.115">
        <ele>2787</ele>
        <time>2017-10-15T12:44:10.000Z</time>
      </trkpt>
      <trkpt lat="42.39386" lon="2.11499">
        <ele>2787</ele>
        <time>2017-10-15T12:44:11.000Z</time>
      </trkpt>
      <trkpt lat="42.39387" lon="2.11499">
        <ele>2787</ele>
        <time>2017-10-15T12:44:12.000Z</time>
      </trkpt>
      <trkpt lat="42.39387" lon="2.11499">
        <ele>2787</ele>
        <time>2017-10-15T12:44:13.000Z</time>
      </trkpt>
      <trkpt lat="42.39394" lon="2.1149">
        <ele>2789</ele>
        <time>2017-10-15T13:11:24.000Z</time>
      </trkpt>
      <trkpt lat="42.39395" lon="2.11489">
        <ele>2789</ele>
        <time>2017-10-15T13:11:25.000Z</time>
      </trkpt>
      <trkpt lat="42.39396" lon="2.11488">
        <ele>2788</ele>
        <time>2017-10-15T13:11:26.000Z</time>
      </trkpt>
      <trkpt lat="42.39396" lon="2.11488">
        <ele>2788</ele>
        <time>2017-10-15T13:11:27.000Z</time>
      </trkpt>
      <trkpt lat="42.39397" lon="2.11488">
        <ele>2788</ele>
        <time>2017-10-15T13:11:28.000Z</time>
      </trkpt>
      <trkpt lat="42.39397" lon="2.11487">
        <ele>2788</ele>
        <time>2017-10-15T13:11:29.000Z</time>
      </trkpt>
      <trkpt lat="42.39398" lon="2.11486">
        <ele>2788</ele>
        <time>2017-10-15T13:11:30.000Z</time>
      </trkpt>
      <trkpt lat="42.39398" lon="2.11485">
        <ele>2788</ele>
        <time>2017-10-15T13:11:31.000Z</time>
      </trkpt>
      <trkpt lat="42.39399" lon="2.11485">
        <ele>2788</ele>
        <time>2017-10-15T13:11:32.000Z</time>
      </trkpt>
      <trkpt lat="42.39399" lon="2.11485">
        <ele>2788</ele>
        <time>2017-10-15T13:11:33.000Z</time>
      </trkpt>
      <trkpt lat="42.394" lon="2.11484">
        <ele>2788</ele>
        <time>2017-10-15T13:11:34.000Z</time>
      </trkpt>
      <trkpt lat="42.394" lon="2.11484">
        <ele>2788</ele>
        <time>2017-10-15T13:11:35.000Z</time>
      </trkpt>
      <trkpt lat="42.39401" lon="2.11484">
        <ele>2788</ele>
        <time>2017-10-15T13:11:36.000Z</time>
      </trkpt>
      <trkpt lat="42.39402" lon="2.11484">
        <ele>2788</ele>
        <time>2017-10-15T13:11:37.000Z</time>
      </trkpt>
      <trkpt lat="42.39402" lon="2.11484">
        <ele>2788</ele>
        <time>2017-10-15T13:11:38.000Z</time>
      </trkpt>
      <trkpt lat="42.39403" lon="2.11483">
        <ele>2788</ele>
        <time>2017-10-15T13:11:39.000Z</time>
      </trkpt>
      <trkpt lat="42.39403" lon="2.11483">
        <ele>2788</ele>
        <time>2017-10-15T13:11:40.000Z</time>
      </trkpt>
      <trkpt lat="42.39404" lon="2.11483">
        <ele>2788</ele>
        <time>2017-10-15T13:11:41.000Z</time>
      </trkpt>
      <trkpt lat="42.39405" lon="2.11483">
        <ele>2788</ele>
        <time>2017-10-15T13:11:42.000Z</time>
      </trkpt>
      <trkpt lat="42.39405" lon="2.11483">
        <ele>2788</ele>
        <time>2017-10-15T13:11:43.000Z</time>
      </trkpt>
      <trkpt lat="42.39405" lon="2.11482">
        <ele>2788</ele>
        <time>2017-10-15T13:11:44.000Z</time>
      </trkpt>
      <trkpt lat="42.39406" lon="2.11481">
        <ele>2788</ele>
        <time>2017-10-15T13:11:45.000Z</time>
      </trkpt>
      <trkpt lat="42.39406" lon="2.11481">
        <ele>2788</ele>
        <time>2017-10-15T13:11:46.000Z</time>
      </trkpt>
      <trkpt lat="42.39406" lon="2.11481">
        <ele>2788</ele>
        <time>2017-10-15T13:11:47.000Z</time>
      </trkpt>
      <trkpt lat="42.39407" lon="2.11481">
        <ele>2788</ele>
        <time>2017-10-15T13:11:48.000Z</time>
      </trkpt>
      <trkpt lat="42.39414" lon="2.11472">
        <ele>2788</ele>
        <time>2017-10-15T13:14:02.000Z</time>
      </trkpt>
      <trkpt lat="42.39415" lon="2.11472">
        <ele>2788</ele>
        <time>2017-10-15T13:14:03.000Z</time>
      </trkpt>
      <trkpt lat="42.39415" lon="2.11471">
        <ele>2788</ele>
        <time>2017-10-15T13:14:04.000Z</time>
      </trkpt>
      <trkpt lat="42.39415" lon="2.11471">
        <ele>2788</ele>
        <time>2017-10-15T13:14:05.000Z</time>
      </trkpt>
      <trkpt lat="42.39416" lon="2.1147">
        <ele>2788</ele>
        <time>2017-10-15T13:14:06.000Z</time>
      </trkpt>
      <trkpt lat="42.39416" lon="2.11469">
        <ele>2788</ele>
        <time>2017-10-15T13:14:07.000Z</time>
      </trkpt>
      <trkpt lat="42.39416" lon="2.11468">
        <ele>2788</ele>
        <time>2017-10-15T13:14:08.000Z</time>
      </trkpt>
      <trkpt lat="42.39416" lon="2.11467">
        <ele>2787</ele>
        <time>2017-10-15T13:14:09.000Z</time>
      </trkpt>
      <trkpt lat="42.39417" lon="2.11466">
        <ele>2787</ele>
        <time>2017-10-15T13:14:10.000Z</time>
      </trkpt>
      <trkpt lat="42.39417" lon="2.11465">
        <ele>2787</ele>
        <time>2017-10-15T13:14:11.000Z</time>
      </trkpt>
      <trkpt lat="42.39417" lon="2.11464">
        <ele>2787</ele>
        <time>2017-10-15T13:14:12.000Z</time>
      </trkpt>
      <trkpt lat="42.39417" lon="2.11463">
        <ele>2787</ele>
        <time>2017-10-15T13:14:13.000Z</time>
      </trkpt>
      <trkpt lat="42.39418" lon="2.11463">
        <ele>2787</ele>
        <time>2017-10-15T13:14:14.000Z</time>
      </trkpt>
      <trkpt lat="42.39418" lon="2.11462">
        <ele>2786</ele>
        <time>2017-10-15T13:14:15.000Z</time>
      </trkpt>
      <trkpt lat="42.39419" lon="2.11461">
        <ele>2786</ele>
        <time>2017-10-15T13:14:16.000Z</time>
      </trkpt>
      <trkpt lat="42.39419" lon="2.11461">
        <ele>2786</ele>
        <time>2017-10-15T13:14:17.000Z</time>
      </trkpt>
      <trkpt lat="42.3942" lon="2.1146">
        <ele>2786</ele>
        <time>2017-10-15T13:14:18.000Z</time>
      </trkpt>
      <trkpt lat="42.3942" lon="2.11459">
        <ele>2786</ele>
        <time>2017-10-15T13:14:19.000Z</time>
      </trkpt>
      <trkpt lat="42.39421" lon="2.11459">
        <ele>2786</ele>
        <time>2017-10-15T13:14:20.000Z</time>
      </trkpt>
      <trkpt lat="42.39421" lon="2.11458">
        <ele>2786</ele>
        <time>2017-10-15T13:14:21.000Z</time>
      </trkpt>
      <trkpt lat="42.39422" lon="2.11458">
        <ele>2786</ele>
        <time>2017-10-15T13:14:22.000Z</time>
      </trkpt>
      <trkpt lat="42.39422" lon="2.11457">
        <ele>2785</ele>
        <time>2017-10-15T13:14:23.000Z</time>
      </trkpt>
      <trkpt lat="42.39422" lon="2.11457">
        <ele>2785</ele>
        <time>2017-10-15T13:14:24.000Z</time>
      </trkpt>
      <trkpt lat="42.39423" lon="2.11457">
        <ele>2785</ele>
        <time>2017-10-15T13:14:25.000Z</time>
      </trkpt>
      <trkpt lat="42.39423" lon="2.11456">
        <ele>2785</ele>
        <time>2017-10-15T13:14:26.000Z</time>
      </trkpt>
      <trkpt lat="42.39424" lon="2.11456">
        <ele>2785</ele>
        <time>2017-10-15T13:14:27.000Z</time>
      </trkpt>
      <trkpt lat="42.39424" lon="2.11456">
        <ele>2785</ele>
        <time>2017-10-15T13:14:28.000Z</time>
      </trkpt>
      <trkpt lat="42.39425" lon="2.11455">
        <ele>2785</ele>
        <time>2017-10-15T13:14:29.000Z</time>
      </trkpt>
      <trkpt lat="42.39425" lon="2.11455">
        <ele>2785</ele>
        <time>2017-10-15T13:14:30.000Z</time>
      </trkpt>
      <trkpt lat="42.39426" lon="2.11455">
        <ele>2785</ele>
        <time>2017-10-15T13:14:31.000Z</time>
      </trkpt>
      <trkpt lat="42.39426" lon="2.11454">
        <ele>2785</ele>
        <time>2017-10-15T13:14:32.000Z</time>
      </trkpt>
      <trkpt lat="42.39426" lon="2.11454">
        <ele>2785</ele>
        <time>2017-10-15T13:14:33.000Z</time>
      </trkpt>
      <trkpt lat="42.39427" lon="2.11454">
        <ele>2785</ele>
        <time>2017-10-15T13:14:34.000Z</time>
      </trkpt>
      <trkpt lat="42.39427" lon="2.11454">
        <ele>2784</ele>
        <time>2017-10-15T13:14:35.000Z</time>
      </trkpt>
      <trkpt lat="42.39428" lon="2.11453">
        <ele>2784</ele>
        <time>2017-10-15T13:14:36.000Z</time>
      </trkpt>
      <trkpt lat="42.39428" lon="2.11453">
        <ele>2784</ele>
        <time>2017-10-15T13:14:37.000Z</time>
      </trkpt>
      <trkpt lat="42.39428" lon="2.11452">
        <ele>2784</ele>
        <time>2017-10-15T13:14:38.000Z</time>
      </trkpt>
      <trkpt lat="42.39428" lon="2.11451">
        <ele>2784</ele>
        <time>2017-10-15T13:14:39.000Z</time>
      </trkpt>
      <trkpt lat="42.39429" lon="2.11451">
        <ele>2784</ele>
        <time>2017-10-15T13:14:40.000Z</time>
      </trkpt>
      <trkpt lat="42.39429" lon="2.1145">
        <ele>2784</ele>
        <time>2017-10-15T13:14:41.000Z</time>
      </trkpt>
      <trkpt lat="42.39429" lon="2.11449">
        <ele>2784</ele>
        <time>2017-10-15T13:14:42.000Z</time>
      </trkpt>
      <trkpt lat="42.39429" lon="2.11449">
        <ele>2783</ele>
        <time>2017-10-15T13:14:43.000Z</time>
      </trkpt>
      <trkpt lat="42.39428" lon="2.11448">
        <ele>2783</ele>
        <time>2017-10-15T13:14:44.000Z</time>
      </trkpt>
      <trkpt lat="42.39428" lon="2.11447">
        <ele>2783</ele>
        <time>2017-10-15T13:14:45.000Z</time>
      </trkpt>
      <trkpt lat="42.39428" lon="2.11446">
        <ele>2783</ele>
        <time>2017-10-15T13:14:46.000Z</time>
      </trkpt>
      <trkpt lat="42.39429" lon="2.11445">
        <ele>2783</ele>
        <time>2017-10-15T13:14:47.000Z</time>
      </trkpt>
      <trkpt lat="42.39429" lon="2.11444">
        <ele>2783</ele>
        <time>2017-10-15T13:14:48.000Z</time>
      </trkpt>
      <trkpt lat="42.39429" lon="2.11444">
        <ele>2783</ele>
        <time>2017-10-15T13:14:49.000Z</time>
      </trkpt>
      <trkpt lat="42.3943" lon="2.11443">
        <ele>2782</ele>
        <time>2017-10-15T13:14:50.000Z</time>
      </trkpt>
      <trkpt lat="42.39431" lon="2.11443">
        <ele>2782</ele>
        <time>2017-10-15T13:14:51.000Z</time>
      </trkpt>
      <trkpt lat="42.39431" lon="2.11443">
        <ele>2782</ele>
        <time>2017-10-15T13:14:52.000Z</time>
      </trkpt>
      <trkpt lat="42.39432" lon="2.11443">
        <ele>2782</ele>
        <time>2017-10-15T13:14:53.000Z</time>
      </trkpt>
      <trkpt lat="42.39432" lon="2.11442">
        <ele>2782</ele>
        <time>2017-10-15T13:14:54.000Z</time>
      </trkpt>
      <trkpt lat="42.39433" lon="2.11442">
        <ele>2782</ele>
        <time>2017-10-15T13:14:55.000Z</time>
      </trkpt>
      <trkpt lat="42.39434" lon="2.11442">
        <ele>2782</ele>
        <time>2017-10-15T13:14:56.000Z</time>
      </trkpt>
      <trkpt lat="42.39434" lon="2.11442">
        <ele>2782</ele>
        <time>2017-10-15T13:14:57.000Z</time>
      </trkpt>
      <trkpt lat="42.39435" lon="2.11442">
        <ele>2782</ele>
        <time>2017-10-15T13:14:58.000Z</time>
      </trkpt>
      <trkpt lat="42.39435" lon="2.11442">
        <ele>2782</ele>
        <time>2017-10-15T13:14:59.000Z</time>
      </trkpt>
      <trkpt lat="42.39436" lon="2.11441">
        <ele>2782</ele>
        <time>2017-10-15T13:15:00.000Z</time>
      </trkpt>
      <trkpt lat="42.39437" lon="2.11441">
        <ele>2782</ele>
        <time>2017-10-15T13:15:01.000Z</time>
      </trkpt>
      <trkpt lat="42.39437" lon="2.11441">
        <ele>2782</ele>
        <time>2017-10-15T13:15:02.000Z</time>
      </trkpt>
      <trkpt lat="42.39438" lon="2.11441">
        <ele>2782</ele>
        <time>2017-10-15T13:15:03.000Z</time>
      </trkpt>
      <trkpt lat="42.39439" lon="2.11441">
        <ele>2782</ele>
        <time>2017-10-15T13:15:04.000Z</time>
      </trkpt>
      <trkpt lat="42.39439" lon="2.11441">
        <ele>2781</ele>
        <time>2017-10-15T13:15:05.000Z</time>
      </trkpt>
      <trkpt lat="42.3944" lon="2.11441">
        <ele>2781</ele>
        <time>2017-10-15T13:15:06.000Z</time>
      </trkpt>
      <trkpt lat="42.3944" lon="2.1144">
        <ele>2781</ele>
        <time>2017-10-15T13:15:07.000Z</time>
      </trkpt>
      <trkpt lat="42.3944" lon="2.1144">
        <ele>2781</ele>
        <time>2017-10-15T13:15:08.000Z</time>
      </trkpt>
      <trkpt lat="42.3944" lon="2.11439">
        <ele>2781</ele>
        <time>2017-10-15T13:15:09.000Z</time>
      </trkpt>
      <trkpt lat="42.39441" lon="2.11438">
        <ele>2781</ele>
        <time>2017-10-15T13:15:10.000Z</time>
      </trkpt>
      <trkpt lat="42.39441" lon="2.11437">
        <ele>2781</ele>
        <time>2017-10-15T13:15:11.000Z</time>
      </trkpt>
      <trkpt lat="42.39441" lon="2.11436">
        <ele>2781</ele>
        <time>2017-10-15T13:15:12.000Z</time>
      </trkpt>
      <trkpt lat="42.39441" lon="2.11436">
        <ele>2780</ele>
        <time>2017-10-15T13:15:13.000Z</time>
      </trkpt>
      <trkpt lat="42.39441" lon="2.11435">
        <ele>2780</ele>
        <time>2017-10-15T13:15:14.000Z</time>
      </trkpt>
      <trkpt lat="42.39441" lon="2.11434">
        <ele>2780</ele>
        <time>2017-10-15T13:15:15.000Z</time>
      </trkpt>
      <trkpt lat="42.39442" lon="2.11434">
        <ele>2780</ele>
        <time>2017-10-15T13:15:16.000Z</time>
      </trkpt>
      <trkpt lat="42.39442" lon="2.11433">
        <ele>2780</ele>
        <time>2017-10-15T13:15:17.000Z</time>
      </trkpt>
      <trkpt lat="42.39441" lon="2.11432">
        <ele>2780</ele>
        <time>2017-10-15T13:15:18.000Z</time>
      </trkpt>
      <trkpt lat="42.39441" lon="2.11432">
        <ele>2780</ele>
        <time>2017-10-15T13:15:19.000Z</time>
      </trkpt>
      <trkpt lat="42.39441" lon="2.11431">
        <ele>2780</ele>
        <time>2017-10-15T13:15:20.000Z</time>
      </trkpt>
      <trkpt lat="42.3944" lon="2.11431">
        <ele>2780</ele>
        <time>2017-10-15T13:15:21.000Z</time>
      </trkpt>
      <trkpt lat="42.39439" lon="2.1143">
        <ele>2780</ele>
        <time>2017-10-15T13:15:22.000Z</time>
      </trkpt>
      <trkpt lat="42.39439" lon="2.1143">
        <ele>2780</ele>
        <time>2017-10-15T13:15:23.000Z</time>
      </trkpt>
      <trkpt lat="42.39438" lon="2.11429">
        <ele>2780</ele>
        <time>2017-10-15T13:15:24.000Z</time>
      </trkpt>
      <trkpt lat="42.39437" lon="2.11429">
        <ele>2780</ele>
        <time>2017-10-15T13:15:25.000Z</time>
      </trkpt>
      <trkpt lat="42.39437" lon="2.11429">
        <ele>2780</ele>
        <time>2017-10-15T13:15:26.000Z</time>
      </trkpt>
      <trkpt lat="42.39436" lon="2.11428">
        <ele>2780</ele>
        <time>2017-10-15T13:15:27.000Z</time>
      </trkpt>
      <trkpt lat="42.39436" lon="2.11428">
        <ele>2780</ele>
        <time>2017-10-15T13:15:28.000Z</time>
      </trkpt>
      <trkpt lat="42.39436" lon="2.11428">
        <ele>2780</ele>
        <time>2017-10-15T13:15:29.000Z</time>
      </trkpt>
      <trkpt lat="42.39435" lon="2.11427">
        <ele>2779</ele>
        <time>2017-10-15T13:15:30.000Z</time>
      </trkpt>
      <trkpt lat="42.39435" lon="2.11426">
        <ele>2779</ele>
        <time>2017-10-15T13:15:31.000Z</time>
      </trkpt>
      <trkpt lat="42.39435" lon="2.11426">
        <ele>2779</ele>
        <time>2017-10-15T13:15:32.000Z</time>
      </trkpt>
      <trkpt lat="42.39434" lon="2.11426">
        <ele>2779</ele>
        <time>2017-10-15T13:15:33.000Z</time>
      </trkpt>
      <trkpt lat="42.39434" lon="2.11425">
        <ele>2779</ele>
        <time>2017-10-15T13:15:34.000Z</time>
      </trkpt>
      <trkpt lat="42.39434" lon="2.11424">
        <ele>2779</ele>
        <time>2017-10-15T13:15:35.000Z</time>
      </trkpt>
      <trkpt lat="42.39433" lon="2.11424">
        <ele>2779</ele>
        <time>2017-10-15T13:15:36.000Z</time>
      </trkpt>
      <trkpt lat="42.39433" lon="2.11423">
        <ele>2779</ele>
        <time>2017-10-15T13:15:37.000Z</time>
      </trkpt>
      <trkpt lat="42.39433" lon="2.11423">
        <ele>2779</ele>
        <time>2017-10-15T13:15:38.000Z</time>
      </trkpt>
      <trkpt lat="42.39432" lon="2.11422">
        <ele>2779</ele>
        <time>2017-10-15T13:15:39.000Z</time>
      </trkpt>
      <trkpt lat="42.39432" lon="2.11421">
        <ele>2779</ele>
        <time>2017-10-15T13:15:40.000Z</time>
      </trkpt>
      <trkpt lat="42.39432" lon="2.1142">
        <ele>2779</ele>
        <time>2017-10-15T13:15:41.000Z</time>
      </trkpt>
      <trkpt lat="42.39432" lon="2.1142">
        <ele>2779</ele>
        <time>2017-10-15T13:15:42.000Z</time>
      </trkpt>
      <trkpt lat="42.39433" lon="2.1142">
        <ele>2779</ele>
        <time>2017-10-15T13:15:43.000Z</time>
      </trkpt>
      <trkpt lat="42.39433" lon="2.11419">
        <ele>2778</ele>
        <time>2017-10-15T13:15:44.000Z</time>
      </trkpt>
      <trkpt lat="42.39433" lon="2.11419">
        <ele>2778</ele>
        <time>2017-10-15T13:15:45.000Z</time>
      </trkpt>
      <trkpt lat="42.39431" lon="2.11398">
        <ele>2772</ele>
        <time>2017-10-15T13:16:22.000Z</time>
      </trkpt>
      <trkpt lat="42.39432" lon="2.11397">
        <ele>2772</ele>
        <time>2017-10-15T13:16:23.000Z</time>
      </trkpt>
      <trkpt lat="42.39433" lon="2.11397">
        <ele>2771</ele>
        <time>2017-10-15T13:16:24.000Z</time>
      </trkpt>
      <trkpt lat="42.39433" lon="2.11396">
        <ele>2771</ele>
        <time>2017-10-15T13:16:25.000Z</time>
      </trkpt>
      <trkpt lat="42.39433" lon="2.11395">
        <ele>2771</ele>
        <time>2017-10-15T13:16:26.000Z</time>
      </trkpt>
      <trkpt lat="42.39434" lon="2.11394">
        <ele>2770</ele>
        <time>2017-10-15T13:16:27.000Z</time>
      </trkpt>
      <trkpt lat="42.39434" lon="2.11393">
        <ele>2770</ele>
        <time>2017-10-15T13:16:28.000Z</time>
      </trkpt>
      <trkpt lat="42.39434" lon="2.11393">
        <ele>2770</ele>
        <time>2017-10-15T13:16:29.000Z</time>
      </trkpt>
      <trkpt lat="42.39435" lon="2.11392">
        <ele>2769</ele>
        <time>2017-10-15T13:16:30.000Z</time>
      </trkpt>
      <trkpt lat="42.39435" lon="2.11391">
        <ele>2769</ele>
        <time>2017-10-15T13:16:31.000Z</time>
      </trkpt>
      <trkpt lat="42.39436" lon="2.1139">
        <ele>2769</ele>
        <time>2017-10-15T13:16:32.000Z</time>
      </trkpt>
      <trkpt lat="42.39436" lon="2.11389">
        <ele>2768</ele>
        <time>2017-10-15T13:16:33.000Z</time>
      </trkpt>
      <trkpt lat="42.39436" lon="2.11388">
        <ele>2768</ele>
        <time>2017-10-15T13:16:34.000Z</time>
      </trkpt>
      <trkpt lat="42.39436" lon="2.11387">
        <ele>2767</ele>
        <time>2017-10-15T13:16:35.000Z</time>
      </trkpt>
      <trkpt lat="42.39437" lon="2.11387">
        <ele>2767</ele>
        <time>2017-10-15T13:16:36.000Z</time>
      </trkpt>
      <trkpt lat="42.39437" lon="2.11386">
        <ele>2767</ele>
        <time>2017-10-15T13:16:37.000Z</time>
      </trkpt>
      <trkpt lat="42.39438" lon="2.11385">
        <ele>2766</ele>
        <time>2017-10-15T13:16:38.000Z</time>
      </trkpt>
      <trkpt lat="42.39439" lon="2.11384">
        <ele>2766</ele>
        <time>2017-10-15T13:16:39.000Z</time>
      </trkpt>
      <trkpt lat="42.39439" lon="2.11384">
        <ele>2766</ele>
        <time>2017-10-15T13:16:40.000Z</time>
      </trkpt>
      <trkpt lat="42.3944" lon="2.11383">
        <ele>2766</ele>
        <time>2017-10-15T13:16:41.000Z</time>
      </trkpt>
      <trkpt lat="42.39441" lon="2.11383">
        <ele>2765</ele>
        <time>2017-10-15T13:16:42.000Z</time>
      </trkpt>
      <trkpt lat="42.39441" lon="2.11382">
        <ele>2765</ele>
        <time>2017-10-15T13:16:43.000Z</time>
      </trkpt>
      <trkpt lat="42.39441" lon="2.11381">
        <ele>2765</ele>
        <time>2017-10-15T13:16:44.000Z</time>
      </trkpt>
      <trkpt lat="42.39441" lon="2.1138">
        <ele>2764</ele>
        <time>2017-10-15T13:16:45.000Z</time>
      </trkpt>
      <trkpt lat="42.39441" lon="2.11379">
        <ele>2764</ele>
        <time>2017-10-15T13:16:46.000Z</time>
      </trkpt>
      <trkpt lat="42.39441" lon="2.11378">
        <ele>2763</ele>
        <time>2017-10-15T13:16:47.000Z</time>
      </trkpt>
      <trkpt lat="42.39441" lon="2.11377">
        <ele>2763</ele>
        <time>2017-10-15T13:16:48.000Z</time>
      </trkpt>
      <trkpt lat="42.39441" lon="2.11376">
        <ele>2763</ele>
        <time>2017-10-15T13:16:49.000Z</time>
      </trkpt>
      <trkpt lat="42.39441" lon="2.11375">
        <ele>2762</ele>
        <time>2017-10-15T13:16:50.000Z</time>
      </trkpt>
      <trkpt lat="42.3944" lon="2.11375">
        <ele>2762</ele>
        <time>2017-10-15T13:16:51.000Z</time>
      </trkpt>
      <trkpt lat="42.3944" lon="2.11374">
        <ele>2761</ele>
        <time>2017-10-15T13:16:52.000Z</time>
      </trkpt>
      <trkpt lat="42.3944" lon="2.11372">
        <ele>2761</ele>
        <time>2017-10-15T13:16:53.000Z</time>
      </trkpt>
      <trkpt lat="42.3944" lon="2.11371">
        <ele>2760</ele>
        <time>2017-10-15T13:16:54.000Z</time>
      </trkpt>
      <trkpt lat="42.39441" lon="2.1137">
        <ele>2760</ele>
        <time>2017-10-15T13:16:55.000Z</time>
      </trkpt>
      <trkpt lat="42.39441" lon="2.1137">
        <ele>2760</ele>
        <time>2017-10-15T13:16:56.000Z</time>
      </trkpt>
      <trkpt lat="42.39441" lon="2.11369">
        <ele>2759</ele>
        <time>2017-10-15T13:16:57.000Z</time>
      </trkpt>
      <trkpt lat="42.39442" lon="2.11368">
        <ele>2759</ele>
        <time>2017-10-15T13:16:58.000Z</time>
      </trkpt>
      <trkpt lat="42.39442" lon="2.11367">
        <ele>2758</ele>
        <time>2017-10-15T13:16:59.000Z</time>
      </trkpt>
      <trkpt lat="42.39442" lon="2.11366">
        <ele>2758</ele>
        <time>2017-10-15T13:17:00.000Z</time>
      </trkpt>
      <trkpt lat="42.39443" lon="2.11364">
        <ele>2757</ele>
        <time>2017-10-15T13:17:01.000Z</time>
      </trkpt>
      <trkpt lat="42.39444" lon="2.11364">
        <ele>2757</ele>
        <time>2017-10-15T13:17:02.000Z</time>
      </trkpt>
      <trkpt lat="42.39444" lon="2.11363">
        <ele>2757</ele>
        <time>2017-10-15T13:17:03.000Z</time>
      </trkpt>
      <trkpt lat="42.39445" lon="2.11362">
        <ele>2756</ele>
        <time>2017-10-15T13:17:04.000Z</time>
      </trkpt>
      <trkpt lat="42.39445" lon="2.11361">
        <ele>2756</ele>
        <time>2017-10-15T13:17:05.000Z</time>
      </trkpt>
      <trkpt lat="42.39445" lon="2.11361">
        <ele>2756</ele>
        <time>2017-10-15T13:17:06.000Z</time>
      </trkpt>
      <trkpt lat="42.39445" lon="2.1136">
        <ele>2755</ele>
        <time>2017-10-15T13:17:07.000Z</time>
      </trkpt>
      <trkpt lat="42.39445" lon="2.11359">
        <ele>2755</ele>
        <time>2017-10-15T13:17:08.000Z</time>
      </trkpt>
      <trkpt lat="42.39445" lon="2.11358">
        <ele>2754</ele>
        <time>2017-10-15T13:17:09.000Z</time>
      </trkpt>
      <trkpt lat="42.39446" lon="2.11357">
        <ele>2754</ele>
        <time>2017-10-15T13:17:10.000Z</time>
      </trkpt>
      <trkpt lat="42.39446" lon="2.11356">
        <ele>2754</ele>
        <time>2017-10-15T13:17:11.000Z</time>
      </trkpt>
      <trkpt lat="42.39446" lon="2.11355">
        <ele>2754</ele>
        <time>2017-10-15T13:17:12.000Z</time>
      </trkpt>
      <trkpt lat="42.39447" lon="2.11355">
        <ele>2754</ele>
        <time>2017-10-15T13:17:13.000Z</time>
      </trkpt>
      <trkpt lat="42.39447" lon="2.11354">
        <ele>2754</ele>
        <time>2017-10-15T13:17:14.000Z</time>
      </trkpt>
      <trkpt lat="42.39448" lon="2.11353">
        <ele>2754</ele>
        <time>2017-10-15T13:17:15.000Z</time>
      </trkpt>
      <trkpt lat="42.39448" lon="2.11353">
        <ele>2753</ele>
        <time>2017-10-15T13:17:16.000Z</time>
      </trkpt>
      <trkpt lat="42.39449" lon="2.11352">
        <ele>2753</ele>
        <time>2017-10-15T13:17:17.000Z</time>
      </trkpt>
      <trkpt lat="42.3945" lon="2.11351">
        <ele>2753</ele>
        <time>2017-10-15T13:17:18.000Z</time>
      </trkpt>
      <trkpt lat="42.3945" lon="2.11351">
        <ele>2753</ele>
        <time>2017-10-15T13:17:19.000Z</time>
      </trkpt>
      <trkpt lat="42.39451" lon="2.11351">
        <ele>2753</ele>
        <time>2017-10-15T13:17:20.000Z</time>
      </trkpt>
      <trkpt lat="42.39451" lon="2.1135">
        <ele>2753</ele>
        <time>2017-10-15T13:17:21.000Z</time>
      </trkpt>
      <trkpt lat="42.39452" lon="2.1135">
        <ele>2753</ele>
        <time>2017-10-15T13:17:22.000Z</time>
      </trkpt>
      <trkpt lat="42.39452" lon="2.11349">
        <ele>2753</ele>
        <time>2017-10-15T13:17:23.000Z</time>
      </trkpt>
      <trkpt lat="42.39452" lon="2.11348">
        <ele>2753</ele>
        <time>2017-10-15T13:17:24.000Z</time>
      </trkpt>
      <trkpt lat="42.39452" lon="2.11347">
        <ele>2752</ele>
        <time>2017-10-15T13:17:25.000Z</time>
      </trkpt>
      <trkpt lat="42.39452" lon="2.11346">
        <ele>2752</ele>
        <time>2017-10-15T13:17:26.000Z</time>
      </trkpt>
      <trkpt lat="42.39452" lon="2.11345">
        <ele>2752</ele>
        <time>2017-10-15T13:17:27.000Z</time>
      </trkpt>
      <trkpt lat="42.39453" lon="2.11344">
        <ele>2752</ele>
        <time>2017-10-15T13:17:28.000Z</time>
      </trkpt>
      <trkpt lat="42.39453" lon="2.11344">
        <ele>2752</ele>
        <time>2017-10-15T13:17:29.000Z</time>
      </trkpt>
      <trkpt lat="42.39454" lon="2.11343">
        <ele>2752</ele>
        <time>2017-10-15T13:17:30.000Z</time>
      </trkpt>
      <trkpt lat="42.39454" lon="2.11343">
        <ele>2752</ele>
        <time>2017-10-15T13:17:31.000Z</time>
      </trkpt>
      <trkpt lat="42.39455" lon="2.11343">
        <ele>2752</ele>
        <time>2017-10-15T13:17:32.000Z</time>
      </trkpt>
      <trkpt lat="42.39456" lon="2.11343">
        <ele>2752</ele>
        <time>2017-10-15T13:17:33.000Z</time>
      </trkpt>
      <trkpt lat="42.39456" lon="2.11342">
        <ele>2752</ele>
        <time>2017-10-15T13:17:34.000Z</time>
      </trkpt>
      <trkpt lat="42.39456" lon="2.11343">
        <ele>2752</ele>
        <time>2017-10-15T13:17:35.000Z</time>
      </trkpt>
      <trkpt lat="42.39481" lon="2.11279">
        <ele>2740</ele>
        <time>2017-10-15T13:20:15.000Z</time>
      </trkpt>
      <trkpt lat="42.39482" lon="2.11278">
        <ele>2739</ele>
        <time>2017-10-15T13:20:16.000Z</time>
      </trkpt>
      <trkpt lat="42.39482" lon="2.11277">
        <ele>2739</ele>
        <time>2017-10-15T13:20:17.000Z</time>
      </trkpt>
      <trkpt lat="42.39483" lon="2.11276">
        <ele>2739</ele>
        <time>2017-10-15T13:20:18.000Z</time>
      </trkpt>
      <trkpt lat="42.39483" lon="2.11275">
        <ele>2739</ele>
        <time>2017-10-15T13:20:19.000Z</time>
      </trkpt>
      <trkpt lat="42.39483" lon="2.11274">
        <ele>2739</ele>
        <time>2017-10-15T13:20:20.000Z</time>
      </trkpt>
      <trkpt lat="42.39484" lon="2.11272">
        <ele>2739</ele>
        <time>2017-10-15T13:20:21.000Z</time>
      </trkpt>
      <trkpt lat="42.39484" lon="2.11271">
        <ele>2739</ele>
        <time>2017-10-15T13:20:22.000Z</time>
      </trkpt>
      <trkpt lat="42.39485" lon="2.1127">
        <ele>2739</ele>
        <time>2017-10-15T13:20:23.000Z</time>
      </trkpt>
      <trkpt lat="42.39485" lon="2.11269">
        <ele>2739</ele>
        <time>2017-10-15T13:20:24.000Z</time>
      </trkpt>
      <trkpt lat="42.39486" lon="2.11269">
        <ele>2739</ele>
        <time>2017-10-15T13:20:25.000Z</time>
      </trkpt>
      <trkpt lat="42.39486" lon="2.11268">
        <ele>2739</ele>
        <time>2017-10-15T13:20:26.000Z</time>
      </trkpt>
      <trkpt lat="42.39486" lon="2.11268">
        <ele>2739</ele>
        <time>2017-10-15T13:20:27.000Z</time>
      </trkpt>
      <trkpt lat="42.39487" lon="2.11267">
        <ele>2739</ele>
        <time>2017-10-15T13:20:28.000Z</time>
      </trkpt>
      <trkpt lat="42.39488" lon="2.11267">
        <ele>2739</ele>
        <time>2017-10-15T13:20:29.000Z</time>
      </trkpt>
      <trkpt lat="42.39488" lon="2.11266">
        <ele>2739</ele>
        <time>2017-10-15T13:20:30.000Z</time>
      </trkpt>
      <trkpt lat="42.39489" lon="2.11265">
        <ele>2739</ele>
        <time>2017-10-15T13:20:31.000Z</time>
      </trkpt>
      <trkpt lat="42.3949" lon="2.11264">
        <ele>2739</ele>
        <time>2017-10-15T13:20:32.000Z</time>
      </trkpt>
      <trkpt lat="42.3949" lon="2.11264">
        <ele>2739</ele>
        <time>2017-10-15T13:20:33.000Z</time>
      </trkpt>
      <trkpt lat="42.39491" lon="2.11263">
        <ele>2739</ele>
        <time>2017-10-15T13:20:34.000Z</time>
      </trkpt>
      <trkpt lat="42.39491" lon="2.11263">
        <ele>2739</ele>
        <time>2017-10-15T13:20:35.000Z</time>
      </trkpt>
      <trkpt lat="42.39491" lon="2.11262">
        <ele>2739</ele>
        <time>2017-10-15T13:20:36.000Z</time>
      </trkpt>
      <trkpt lat="42.39491" lon="2.1126">
        <ele>2738</ele>
        <time>2017-10-15T13:20:37.000Z</time>
      </trkpt>
      <trkpt lat="42.39492" lon="2.11259">
        <ele>2738</ele>
        <time>2017-10-15T13:20:38.000Z</time>
      </trkpt>
      <trkpt lat="42.39492" lon="2.11258">
        <ele>2738</ele>
        <time>2017-10-15T13:20:39.000Z</time>
      </trkpt>
      <trkpt lat="42.39491" lon="2.11257">
        <ele>2738</ele>
        <time>2017-10-15T13:20:40.000Z</time>
      </trkpt>
      <trkpt lat="42.39491" lon="2.11256">
        <ele>2737</ele>
        <time>2017-10-15T13:20:41.000Z</time>
      </trkpt>
      <trkpt lat="42.3949" lon="2.11256">
        <ele>2737</ele>
        <time>2017-10-15T13:20:42.000Z</time>
      </trkpt>
      <trkpt lat="42.3949" lon="2.11255">
        <ele>2737</ele>
        <time>2017-10-15T13:20:43.000Z</time>
      </trkpt>
      <trkpt lat="42.39489" lon="2.11255">
        <ele>2737</ele>
        <time>2017-10-15T13:20:44.000Z</time>
      </trkpt>
      <trkpt lat="42.39489" lon="2.11254">
        <ele>2737</ele>
        <time>2017-10-15T13:20:45.000Z</time>
      </trkpt>
      <trkpt lat="42.39488" lon="2.11254">
        <ele>2736</ele>
        <time>2017-10-15T13:20:46.000Z</time>
      </trkpt>
      <trkpt lat="42.39488" lon="2.11253">
        <ele>2736</ele>
        <time>2017-10-15T13:20:47.000Z</time>
      </trkpt>
      <trkpt lat="42.39487" lon="2.11252">
        <ele>2736</ele>
        <time>2017-10-15T13:20:48.000Z</time>
      </trkpt>
      <trkpt lat="42.39487" lon="2.11251">
        <ele>2736</ele>
        <time>2017-10-15T13:20:49.000Z</time>
      </trkpt>
      <trkpt lat="42.39487" lon="2.1125">
        <ele>2735</ele>
        <time>2017-10-15T13:20:50.000Z</time>
      </trkpt>
      <trkpt lat="42.39487" lon="2.1125">
        <ele>2735</ele>
        <time>2017-10-15T13:20:51.000Z</time>
      </trkpt>
      <trkpt lat="42.39487" lon="2.11249">
        <ele>2735</ele>
        <time>2017-10-15T13:20:52.000Z</time>
      </trkpt>
      <trkpt lat="42.39487" lon="2.11248">
        <ele>2735</ele>
        <time>2017-10-15T13:20:53.000Z</time>
      </trkpt>
      <trkpt lat="42.39487" lon="2.11248">
        <ele>2735</ele>
        <time>2017-10-15T13:20:54.000Z</time>
      </trkpt>
      <trkpt lat="42.39487" lon="2.11247">
        <ele>2735</ele>
        <time>2017-10-15T13:20:55.000Z</time>
      </trkpt>
      <trkpt lat="42.39487" lon="2.11247">
        <ele>2735</ele>
        <time>2017-10-15T13:20:56.000Z</time>
      </trkpt>
      <trkpt lat="42.39486" lon="2.11247">
        <ele>2735</ele>
        <time>2017-10-15T13:20:57.000Z</time>
      </trkpt>
      <trkpt lat="42.39486" lon="2.11246">
        <ele>2734</ele>
        <time>2017-10-15T13:20:58.000Z</time>
      </trkpt>
      <trkpt lat="42.39486" lon="2.11246">
        <ele>2734</ele>
        <time>2017-10-15T13:20:59.000Z</time>
      </trkpt>
      <trkpt lat="42.39485" lon="2.11245">
        <ele>2734</ele>
        <time>2017-10-15T13:21:00.000Z</time>
      </trkpt>
      <trkpt lat="42.39485" lon="2.11244">
        <ele>2734</ele>
        <time>2017-10-15T13:21:01.000Z</time>
      </trkpt>
      <trkpt lat="42.39485" lon="2.11243">
        <ele>2734</ele>
        <time>2017-10-15T13:21:02.000Z</time>
      </trkpt>
      <trkpt lat="42.39485" lon="2.11242">
        <ele>2734</ele>
        <time>2017-10-15T13:21:03.000Z</time>
      </trkpt>
      <trkpt lat="42.39485" lon="2.11241">
        <ele>2734</ele>
        <time>2017-10-15T13:21:04.000Z</time>
      </trkpt>
      <trkpt lat="42.39486" lon="2.1124">
        <ele>2734</ele>
        <time>2017-10-15T13:21:05.000Z</time>
      </trkpt>
      <trkpt lat="42.39486" lon="2.1124">
        <ele>2734</ele>
        <time>2017-10-15T13:21:06.000Z</time>
      </trkpt>
      <trkpt lat="42.39486" lon="2.1124">
        <ele>2734</ele>
        <time>2017-10-15T13:21:07.000Z</time>
      </trkpt>
      <trkpt lat="42.39487" lon="2.11239">
        <ele>2734</ele>
        <time>2017-10-15T13:21:08.000Z</time>
      </trkpt>
      <trkpt lat="42.39488" lon="2.11225">
        <ele>2733</ele>
        <time>2017-10-15T13:21:28.000Z</time>
      </trkpt>
      <trkpt lat="42.39489" lon="2.11224">
        <ele>2733</ele>
        <time>2017-10-15T13:21:29.000Z</time>
      </trkpt>
      <trkpt lat="42.39489" lon="2.11223">
        <ele>2733</ele>
        <time>2017-10-15T13:21:30.000Z</time>
      </trkpt>
      <trkpt lat="42.39489" lon="2.11222">
        <ele>2734</ele>
        <time>2017-10-15T13:21:31.000Z</time>
      </trkpt>
      <trkpt lat="42.3949" lon="2.11221">
        <ele>2734</ele>
        <time>2017-10-15T13:21:32.000Z</time>
      </trkpt>
      <trkpt lat="42.3949" lon="2.1122">
        <ele>2734</ele>
        <time>2017-10-15T13:21:33.000Z</time>
      </trkpt>
      <trkpt lat="42.39491" lon="2.11219">
        <ele>2734</ele>
        <time>2017-10-15T13:21:34.000Z</time>
      </trkpt>
      <trkpt lat="42.39491" lon="2.11218">
        <ele>2734</ele>
        <time>2017-10-15T13:21:35.000Z</time>
      </trkpt>
      <trkpt lat="42.39491" lon="2.11217">
        <ele>2734</ele>
        <time>2017-10-15T13:21:36.000Z</time>
      </trkpt>
      <trkpt lat="42.39491" lon="2.11216">
        <ele>2734</ele>
        <time>2017-10-15T13:21:37.000Z</time>
      </trkpt>
      <trkpt lat="42.39491" lon="2.11215">
        <ele>2734</ele>
        <time>2017-10-15T13:21:38.000Z</time>
      </trkpt>
      <trkpt lat="42.39491" lon="2.11214">
        <ele>2734</ele>
        <time>2017-10-15T13:21:39.000Z</time>
      </trkpt>
      <trkpt lat="42.39491" lon="2.11213">
        <ele>2734</ele>
        <time>2017-10-15T13:21:40.000Z</time>
      </trkpt>
      <trkpt lat="42.39491" lon="2.11212">
        <ele>2734</ele>
        <time>2017-10-15T13:21:41.000Z</time>
      </trkpt>
      <trkpt lat="42.39491" lon="2.11211">
        <ele>2734</ele>
        <time>2017-10-15T13:21:42.000Z</time>
      </trkpt>
      <trkpt lat="42.39491" lon="2.1121">
        <ele>2733</ele>
        <time>2017-10-15T13:21:43.000Z</time>
      </trkpt>
      <trkpt lat="42.39491" lon="2.11209">
        <ele>2733</ele>
        <time>2017-10-15T13:21:44.000Z</time>
      </trkpt>
      <trkpt lat="42.39491" lon="2.11208">
        <ele>2733</ele>
        <time>2017-10-15T13:21:45.000Z</time>
      </trkpt>
      <trkpt lat="42.39491" lon="2.11207">
        <ele>2734</ele>
        <time>2017-10-15T13:21:46.000Z</time>
      </trkpt>
      <trkpt lat="42.39491" lon="2.11205">
        <ele>2734</ele>
        <time>2017-10-15T13:21:47.000Z</time>
      </trkpt>
      <trkpt lat="42.39492" lon="2.11204">
        <ele>2734</ele>
        <time>2017-10-15T13:21:48.000Z</time>
      </trkpt>
      <trkpt lat="42.39492" lon="2.11203">
        <ele>2734</ele>
        <time>2017-10-15T13:21:49.000Z</time>
      </trkpt>
      <trkpt lat="42.39492" lon="2.11201">
        <ele>2734</ele>
        <time>2017-10-15T13:21:50.000Z</time>
      </trkpt>
      <trkpt lat="42.39493" lon="2.11199">
        <ele>2734</ele>
        <time>2017-10-15T13:21:51.000Z</time>
      </trkpt>
      <trkpt lat="42.39493" lon="2.11197">
        <ele>2734</ele>
        <time>2017-10-15T13:21:52.000Z</time>
      </trkpt>
      <trkpt lat="42.39494" lon="2.11196">
        <ele>2734</ele>
        <time>2017-10-15T13:21:53.000Z</time>
      </trkpt>
      <trkpt lat="42.39494" lon="2.11195">
        <ele>2734</ele>
        <time>2017-10-15T13:21:54.000Z</time>
      </trkpt>
      <trkpt lat="42.39494" lon="2.11194">
        <ele>2734</ele>
        <time>2017-10-15T13:21:55.000Z</time>
      </trkpt>
      <trkpt lat="42.39494" lon="2.11192">
        <ele>2734</ele>
        <time>2017-10-15T13:21:56.000Z</time>
      </trkpt>
      <trkpt lat="42.39494" lon="2.11192">
        <ele>2734</ele>
        <time>2017-10-15T13:21:57.000Z</time>
      </trkpt>
      <trkpt lat="42.39494" lon="2.11191">
        <ele>2734</ele>
        <time>2017-10-15T13:21:58.000Z</time>
      </trkpt>
      <trkpt lat="42.39494" lon="2.1119">
        <ele>2734</ele>
        <time>2017-10-15T13:21:59.000Z</time>
      </trkpt>
      <trkpt lat="42.39494" lon="2.11189">
        <ele>2734</ele>
        <time>2017-10-15T13:22:00.000Z</time>
      </trkpt>
      <trkpt lat="42.39494" lon="2.11189">
        <ele>2734</ele>
        <time>2017-10-15T13:22:01.000Z</time>
      </trkpt>
      <trkpt lat="42.39493" lon="2.11184">
        <ele>2733</ele>
        <time>2017-10-15T13:22:08.000Z</time>
      </trkpt>
      <trkpt lat="42.39493" lon="2.11183">
        <ele>2733</ele>
        <time>2017-10-15T13:22:09.000Z</time>
      </trkpt>
      <trkpt lat="42.39493" lon="2.11182">
        <ele>2733</ele>
        <time>2017-10-15T13:22:10.000Z</time>
      </trkpt>
      <trkpt lat="42.39493" lon="2.11181">
        <ele>2733</ele>
        <time>2017-10-15T13:22:11.000Z</time>
      </trkpt>
      <trkpt lat="42.39493" lon="2.11181">
        <ele>2733</ele>
        <time>2017-10-15T13:22:12.000Z</time>
      </trkpt>
      <trkpt lat="42.39493" lon="2.1118">
        <ele>2733</ele>
        <time>2017-10-15T13:22:13.000Z</time>
      </trkpt>
      <trkpt lat="42.39492" lon="2.11179">
        <ele>2733</ele>
        <time>2017-10-15T13:22:14.000Z</time>
      </trkpt>
      <trkpt lat="42.39492" lon="2.11179">
        <ele>2733</ele>
        <time>2017-10-15T13:22:15.000Z</time>
      </trkpt>
      <trkpt lat="42.39492" lon="2.11178">
        <ele>2733</ele>
        <time>2017-10-15T13:22:16.000Z</time>
      </trkpt>
      <trkpt lat="42.39492" lon="2.11177">
        <ele>2733</ele>
        <time>2017-10-15T13:22:17.000Z</time>
      </trkpt>
      <trkpt lat="42.39491" lon="2.11177">
        <ele>2733</ele>
        <time>2017-10-15T13:22:18.000Z</time>
      </trkpt>
      <trkpt lat="42.39491" lon="2.11176">
        <ele>2732</ele>
        <time>2017-10-15T13:22:19.000Z</time>
      </trkpt>
      <trkpt lat="42.39491" lon="2.11176">
        <ele>2732</ele>
        <time>2017-10-15T13:22:20.000Z</time>
      </trkpt>
      <trkpt lat="42.3949" lon="2.11175">
        <ele>2732</ele>
        <time>2017-10-15T13:22:21.000Z</time>
      </trkpt>
      <trkpt lat="42.3949" lon="2.11174">
        <ele>2732</ele>
        <time>2017-10-15T13:22:22.000Z</time>
      </trkpt>
      <trkpt lat="42.3949" lon="2.11173">
        <ele>2732</ele>
        <time>2017-10-15T13:22:23.000Z</time>
      </trkpt>
      <trkpt lat="42.3949" lon="2.11172">
        <ele>2732</ele>
        <time>2017-10-15T13:22:24.000Z</time>
      </trkpt>
      <trkpt lat="42.3949" lon="2.11172">
        <ele>2732</ele>
        <time>2017-10-15T13:22:25.000Z</time>
      </trkpt>
      <trkpt lat="42.3949" lon="2.11171">
        <ele>2732</ele>
        <time>2017-10-15T13:22:26.000Z</time>
      </trkpt>
      <trkpt lat="42.3949" lon="2.11169">
        <ele>2732</ele>
        <time>2017-10-15T13:22:27.000Z</time>
      </trkpt>
      <trkpt lat="42.3949" lon="2.11168">
        <ele>2732</ele>
        <time>2017-10-15T13:22:28.000Z</time>
      </trkpt>
      <trkpt lat="42.39489" lon="2.11167">
        <ele>2732</ele>
        <time>2017-10-15T13:22:29.000Z</time>
      </trkpt>
      <trkpt lat="42.39489" lon="2.11166">
        <ele>2731</ele>
        <time>2017-10-15T13:22:30.000Z</time>
      </trkpt>
      <trkpt lat="42.39489" lon="2.11165">
        <ele>2731</ele>
        <time>2017-10-15T13:22:31.000Z</time>
      </trkpt>
      <trkpt lat="42.39489" lon="2.11164">
        <ele>2731</ele>
        <time>2017-10-15T13:22:32.000Z</time>
      </trkpt>
      <trkpt lat="42.39488" lon="2.11163">
        <ele>2731</ele>
        <time>2017-10-15T13:22:33.000Z</time>
      </trkpt>
      <trkpt lat="42.39488" lon="2.11162">
        <ele>2731</ele>
        <time>2017-10-15T13:22:34.000Z</time>
      </trkpt>
      <trkpt lat="42.39488" lon="2.1116">
        <ele>2731</ele>
        <time>2017-10-15T13:22:35.000Z</time>
      </trkpt>
      <trkpt lat="42.39487" lon="2.11159">
        <ele>2731</ele>
        <time>2017-10-15T13:22:36.000Z</time>
      </trkpt>
      <trkpt lat="42.39487" lon="2.11158">
        <ele>2731</ele>
        <time>2017-10-15T13:22:37.000Z</time>
      </trkpt>
      <trkpt lat="42.39487" lon="2.11156">
        <ele>2731</ele>
        <time>2017-10-15T13:22:38.000Z</time>
      </trkpt>
      <trkpt lat="42.39487" lon="2.11155">
        <ele>2731</ele>
        <time>2017-10-15T13:22:39.000Z</time>
      </trkpt>
      <trkpt lat="42.39486" lon="2.11154">
        <ele>2731</ele>
        <time>2017-10-15T13:22:40.000Z</time>
      </trkpt>
      <trkpt lat="42.39486" lon="2.11152">
        <ele>2731</ele>
        <time>2017-10-15T13:22:41.000Z</time>
      </trkpt>
      <trkpt lat="42.39486" lon="2.11151">
        <ele>2731</ele>
        <time>2017-10-15T13:22:42.000Z</time>
      </trkpt>
      <trkpt lat="42.39486" lon="2.1115">
        <ele>2731</ele>
        <time>2017-10-15T13:22:43.000Z</time>
      </trkpt>
      <trkpt lat="42.39486" lon="2.11149">
        <ele>2732</ele>
        <time>2017-10-15T13:22:44.000Z</time>
      </trkpt>
      <trkpt lat="42.39486" lon="2.11148">
        <ele>2732</ele>
        <time>2017-10-15T13:22:45.000Z</time>
      </trkpt>
      <trkpt lat="42.39486" lon="2.11147">
        <ele>2732</ele>
        <time>2017-10-15T13:22:46.000Z</time>
      </trkpt>
      <trkpt lat="42.39485" lon="2.11145">
        <ele>2732</ele>
        <time>2017-10-15T13:22:47.000Z</time>
      </trkpt>
      <trkpt lat="42.39485" lon="2.11144">
        <ele>2732</ele>
        <time>2017-10-15T13:22:48.000Z</time>
      </trkpt>
      <trkpt lat="42.39485" lon="2.11143">
        <ele>2732</ele>
        <time>2017-10-15T13:22:49.000Z</time>
      </trkpt>
      <trkpt lat="42.39485" lon="2.11142">
        <ele>2732</ele>
        <time>2017-10-15T13:22:50.000Z</time>
      </trkpt>
      <trkpt lat="42.39485" lon="2.11141">
        <ele>2733</ele>
        <time>2017-10-15T13:22:51.000Z</time>
      </trkpt>
      <trkpt lat="42.39485" lon="2.1114">
        <ele>2733</ele>
        <time>2017-10-15T13:22:52.000Z</time>
      </trkpt>
      <trkpt lat="42.39484" lon="2.11139">
        <ele>2733</ele>
        <time>2017-10-15T13:22:53.000Z</time>
      </trkpt>
      <trkpt lat="42.39484" lon="2.11139">
        <ele>2733</ele>
        <time>2017-10-15T13:22:54.000Z</time>
      </trkpt>
      <trkpt lat="42.39484" lon="2.11138">
        <ele>2733</ele>
        <time>2017-10-15T13:22:55.000Z</time>
      </trkpt>
      <trkpt lat="42.39484" lon="2.11138">
        <ele>2733</ele>
        <time>2017-10-15T13:22:56.000Z</time>
      </trkpt>
      <trkpt lat="42.39483" lon="2.11138">
        <ele>2733</ele>
        <time>2017-10-15T13:22:57.000Z</time>
      </trkpt>
      <trkpt lat="42.39483" lon="2.11137">
        <ele>2733</ele>
        <time>2017-10-15T13:22:58.000Z</time>
      </trkpt>
      <trkpt lat="42.39483" lon="2.11136">
        <ele>2733</ele>
        <time>2017-10-15T13:22:59.000Z</time>
      </trkpt>
      <trkpt lat="42.39482" lon="2.11136">
        <ele>2733</ele>
        <time>2017-10-15T13:23:00.000Z</time>
      </trkpt>
      <trkpt lat="42.39481" lon="2.1113">
        <ele>2733</ele>
        <time>2017-10-15T13:23:08.000Z</time>
      </trkpt>
      <trkpt lat="42.39481" lon="2.11129">
        <ele>2733</ele>
        <time>2017-10-15T13:23:09.000Z</time>
      </trkpt>
      <trkpt lat="42.39481" lon="2.11127">
        <ele>2734</ele>
        <time>2017-10-15T13:23:10.000Z</time>
      </trkpt>
      <trkpt lat="42.39481" lon="2.11126">
        <ele>2734</ele>
        <time>2017-10-15T13:23:11.000Z</time>
      </trkpt>
      <trkpt lat="42.39481" lon="2.11125">
        <ele>2734</ele>
        <time>2017-10-15T13:23:12.000Z</time>
      </trkpt>
      <trkpt lat="42.3948" lon="2.11123">
        <ele>2734</ele>
        <time>2017-10-15T13:23:13.000Z</time>
      </trkpt>
      <trkpt lat="42.39481" lon="2.11122">
        <ele>2734</ele>
        <time>2017-10-15T13:23:14.000Z</time>
      </trkpt>
      <trkpt lat="42.39481" lon="2.11121">
        <ele>2735</ele>
        <time>2017-10-15T13:23:15.000Z</time>
      </trkpt>
      <trkpt lat="42.39481" lon="2.11119">
        <ele>2735</ele>
        <time>2017-10-15T13:23:16.000Z</time>
      </trkpt>
      <trkpt lat="42.39481" lon="2.11117">
        <ele>2735</ele>
        <time>2017-10-15T13:23:17.000Z</time>
      </trkpt>
      <trkpt lat="42.39481" lon="2.11115">
        <ele>2736</ele>
        <time>2017-10-15T13:23:18.000Z</time>
      </trkpt>
      <trkpt lat="42.39481" lon="2.11114">
        <ele>2736</ele>
        <time>2017-10-15T13:23:19.000Z</time>
      </trkpt>
      <trkpt lat="42.39481" lon="2.11113">
        <ele>2736</ele>
        <time>2017-10-15T13:23:20.000Z</time>
      </trkpt>
      <trkpt lat="42.39482" lon="2.11112">
        <ele>2736</ele>
        <time>2017-10-15T13:23:21.000Z</time>
      </trkpt>
      <trkpt lat="42.39482" lon="2.11111">
        <ele>2736</ele>
        <time>2017-10-15T13:23:22.000Z</time>
      </trkpt>
      <trkpt lat="42.39482" lon="2.1111">
        <ele>2737</ele>
        <time>2017-10-15T13:23:23.000Z</time>
      </trkpt>
      <trkpt lat="42.39482" lon="2.11109">
        <ele>2737</ele>
        <time>2017-10-15T13:23:24.000Z</time>
      </trkpt>
      <trkpt lat="42.39482" lon="2.11108">
        <ele>2737</ele>
        <time>2017-10-15T13:23:25.000Z</time>
      </trkpt>
      <trkpt lat="42.39482" lon="2.11108">
        <ele>2737</ele>
        <time>2017-10-15T13:23:26.000Z</time>
      </trkpt>
      <trkpt lat="42.39482" lon="2.11107">
        <ele>2737</ele>
        <time>2017-10-15T13:23:27.000Z</time>
      </trkpt>
      <trkpt lat="42.39482" lon="2.11106">
        <ele>2737</ele>
        <time>2017-10-15T13:23:28.000Z</time>
      </trkpt>
      <trkpt lat="42.39482" lon="2.11105">
        <ele>2738</ele>
        <time>2017-10-15T13:23:29.000Z</time>
      </trkpt>
      <trkpt lat="42.39482" lon="2.11105">
        <ele>2738</ele>
        <time>2017-10-15T13:23:30.000Z</time>
      </trkpt>
      <trkpt lat="42.39486" lon="2.11074">
        <ele>2744</ele>
        <time>2017-10-15T13:24:10.000Z</time>
      </trkpt>
      <trkpt lat="42.39486" lon="2.11073">
        <ele>2745</ele>
        <time>2017-10-15T13:24:11.000Z</time>
      </trkpt>
      <trkpt lat="42.39486" lon="2.11072">
        <ele>2745</ele>
        <time>2017-10-15T13:24:12.000Z</time>
      </trkpt>
      <trkpt lat="42.39487" lon="2.11072">
        <ele>2745</ele>
        <time>2017-10-15T13:24:13.000Z</time>
      </trkpt>
      <trkpt lat="42.39487" lon="2.11071">
        <ele>2746</ele>
        <time>2017-10-15T13:24:14.000Z</time>
      </trkpt>
      <trkpt lat="42.39487" lon="2.1107">
        <ele>2746</ele>
        <time>2017-10-15T13:24:15.000Z</time>
      </trkpt>
      <trkpt lat="42.39488" lon="2.11069">
        <ele>2747</ele>
        <time>2017-10-15T13:24:16.000Z</time>
      </trkpt>
      <trkpt lat="42.39488" lon="2.11068">
        <ele>2747</ele>
        <time>2017-10-15T13:24:17.000Z</time>
      </trkpt>
      <trkpt lat="42.39488" lon="2.11067">
        <ele>2747</ele>
        <time>2017-10-15T13:24:18.000Z</time>
      </trkpt>
      <trkpt lat="42.39488" lon="2.11067">
        <ele>2747</ele>
        <time>2017-10-15T13:24:19.000Z</time>
      </trkpt>
      <trkpt lat="42.39488" lon="2.11066">
        <ele>2748</ele>
        <time>2017-10-15T13:24:20.000Z</time>
      </trkpt>
      <trkpt lat="42.39489" lon="2.11065">
        <ele>2748</ele>
        <time>2017-10-15T13:24:21.000Z</time>
      </trkpt>
      <trkpt lat="42.39489" lon="2.11064">
        <ele>2748</ele>
        <time>2017-10-15T13:24:22.000Z</time>
      </trkpt>
      <trkpt lat="42.39489" lon="2.11063">
        <ele>2748</ele>
        <time>2017-10-15T13:24:23.000Z</time>
      </trkpt>
      <trkpt lat="42.39489" lon="2.11062">
        <ele>2749</ele>
        <time>2017-10-15T13:24:24.000Z</time>
      </trkpt>
      <trkpt lat="42.39489" lon="2.11061">
        <ele>2749</ele>
        <time>2017-10-15T13:24:25.000Z</time>
      </trkpt>
      <trkpt lat="42.3949" lon="2.1106">
        <ele>2749</ele>
        <time>2017-10-15T13:24:26.000Z</time>
      </trkpt>
      <trkpt lat="42.3949" lon="2.11059">
        <ele>2750</ele>
        <time>2017-10-15T13:24:27.000Z</time>
      </trkpt>
      <trkpt lat="42.3949" lon="2.11058">
        <ele>2750</ele>
        <time>2017-10-15T13:24:28.000Z</time>
      </trkpt>
      <trkpt lat="42.3949" lon="2.11057">
        <ele>2750</ele>
        <time>2017-10-15T13:24:29.000Z</time>
      </trkpt>
      <trkpt lat="42.3949" lon="2.11056">
        <ele>2750</ele>
        <time>2017-10-15T13:24:30.000Z</time>
      </trkpt>
      <trkpt lat="42.39491" lon="2.11055">
        <ele>2751</ele>
        <time>2017-10-15T13:24:31.000Z</time>
      </trkpt>
      <trkpt lat="42.39491" lon="2.11054">
        <ele>2751</ele>
        <time>2017-10-15T13:24:32.000Z</time>
      </trkpt>
      <trkpt lat="42.39491" lon="2.11053">
        <ele>2751</ele>
        <time>2017-10-15T13:24:33.000Z</time>
      </trkpt>
      <trkpt lat="42.39491" lon="2.11052">
        <ele>2751</ele>
        <time>2017-10-15T13:24:34.000Z</time>
      </trkpt>
      <trkpt lat="42.39491" lon="2.11051">
        <ele>2751</ele>
        <time>2017-10-15T13:24:35.000Z</time>
      </trkpt>
      <trkpt lat="42.39491" lon="2.1105">
        <ele>2752</ele>
        <time>2017-10-15T13:24:36.000Z</time>
      </trkpt>
      <trkpt lat="42.39491" lon="2.1105">
        <ele>2752</ele>
        <time>2017-10-15T13:24:37.000Z</time>
      </trkpt>
      <trkpt lat="42.39491" lon="2.11049">
        <ele>2752</ele>
        <time>2017-10-15T13:24:38.000Z</time>
      </trkpt>
      <trkpt lat="42.39491" lon="2.11048">
        <ele>2752</ele>
        <time>2017-10-15T13:24:39.000Z</time>
      </trkpt>
      <trkpt lat="42.39491" lon="2.11047">
        <ele>2752</ele>
        <time>2017-10-15T13:24:40.000Z</time>
      </trkpt>
      <trkpt lat="42.39491" lon="2.11047">
        <ele>2753</ele>
        <time>2017-10-15T13:24:41.000Z</time>
      </trkpt>
      <trkpt lat="42.39491" lon="2.11046">
        <ele>2753</ele>
        <time>2017-10-15T13:24:42.000Z</time>
      </trkpt>
      <trkpt lat="42.39492" lon="2.11046">
        <ele>2753</ele>
        <time>2017-10-15T13:24:43.000Z</time>
      </trkpt>
      <trkpt lat="42.39492" lon="2.11045">
        <ele>2753</ele>
        <time>2017-10-15T13:24:44.000Z</time>
      </trkpt>
      <trkpt lat="42.39492" lon="2.11045">
        <ele>2753</ele>
        <time>2017-10-15T13:24:45.000Z</time>
      </trkpt>
      <trkpt lat="42.39527" lon="2.10868">
        <ele>2755</ele>
        <time>2017-10-15T13:33:57.000Z</time>
      </trkpt>
      <trkpt lat="42.39528" lon="2.10867">
        <ele>2755</ele>
        <time>2017-10-15T13:33:58.000Z</time>
      </trkpt>
      <trkpt lat="42.39528" lon="2.10866">
        <ele>2754</ele>
        <time>2017-10-15T13:33:59.000Z</time>
      </trkpt>
      <trkpt lat="42.39529" lon="2.10865">
        <ele>2754</ele>
        <time>2017-10-15T13:34:00.000Z</time>
      </trkpt>
      <trkpt lat="42.3953" lon="2.10865">
        <ele>2753</ele>
        <time>2017-10-15T13:34:01.000Z</time>
      </trkpt>
      <trkpt lat="42.39531" lon="2.10864">
        <ele>2753</ele>
        <time>2017-10-15T13:34:02.000Z</time>
      </trkpt>
      <trkpt lat="42.39532" lon="2.10863">
        <ele>2752</ele>
        <time>2017-10-15T13:34:03.000Z</time>
      </trkpt>
      <trkpt lat="42.39533" lon="2.10863">
        <ele>2752</ele>
        <time>2017-10-15T13:34:04.000Z</time>
      </trkpt>
      <trkpt lat="42.39533" lon="2.10862">
        <ele>2752</ele>
        <time>2017-10-15T13:34:05.000Z</time>
      </trkpt>
      <trkpt lat="42.39534" lon="2.10861">
        <ele>2752</ele>
        <time>2017-10-15T13:34:06.000Z</time>
      </trkpt>
      <trkpt lat="42.39535" lon="2.1086">
        <ele>2752</ele>
        <time>2017-10-15T13:34:07.000Z</time>
      </trkpt>
      <trkpt lat="42.39536" lon="2.10859">
        <ele>2752</ele>
        <time>2017-10-15T13:34:08.000Z</time>
      </trkpt>
      <trkpt lat="42.39536" lon="2.10858">
        <ele>2752</ele>
        <time>2017-10-15T13:34:09.000Z</time>
      </trkpt>
      <trkpt lat="42.39537" lon="2.10857">
        <ele>2752</ele>
        <time>2017-10-15T13:34:10.000Z</time>
      </trkpt>
      <trkpt lat="42.39537" lon="2.10856">
        <ele>2752</ele>
        <time>2017-10-15T13:34:11.000Z</time>
      </trkpt>
      <trkpt lat="42.39538" lon="2.10855">
        <ele>2752</ele>
        <time>2017-10-15T13:34:12.000Z</time>
      </trkpt>
      <trkpt lat="42.39538" lon="2.10854">
        <ele>2752</ele>
        <time>2017-10-15T13:34:13.000Z</time>
      </trkpt>
      <trkpt lat="42.39539" lon="2.10853">
        <ele>2752</ele>
        <time>2017-10-15T13:34:14.000Z</time>
      </trkpt>
      <trkpt lat="42.3954" lon="2.10852">
        <ele>2753</ele>
        <time>2017-10-15T13:34:15.000Z</time>
      </trkpt>
      <trkpt lat="42.3954" lon="2.10851">
        <ele>2753</ele>
        <time>2017-10-15T13:34:16.000Z</time>
      </trkpt>
      <trkpt lat="42.39541" lon="2.1085">
        <ele>2753</ele>
        <time>2017-10-15T13:34:17.000Z</time>
      </trkpt>
      <trkpt lat="42.39541" lon="2.10849">
        <ele>2753</ele>
        <time>2017-10-15T13:34:18.000Z</time>
      </trkpt>
      <trkpt lat="42.39542" lon="2.10849">
        <ele>2753</ele>
        <time>2017-10-15T13:34:19.000Z</time>
      </trkpt>
      <trkpt lat="42.39542" lon="2.10848">
        <ele>2753</ele>
        <time>2017-10-15T13:34:20.000Z</time>
      </trkpt>
      <trkpt lat="42.39543" lon="2.10847">
        <ele>2753</ele>
        <time>2017-10-15T13:34:21.000Z</time>
      </trkpt>
      <trkpt lat="42.39543" lon="2.10847">
        <ele>2753</ele>
        <time>2017-10-15T13:34:22.000Z</time>
      </trkpt>
      <trkpt lat="42.39544" lon="2.10846">
        <ele>2753</ele>
        <time>2017-10-15T13:34:23.000Z</time>
      </trkpt>
      <trkpt lat="42.39544" lon="2.10845">
        <ele>2753</ele>
        <time>2017-10-15T13:34:24.000Z</time>
      </trkpt>
      <trkpt lat="42.39544" lon="2.10845">
        <ele>2753</ele>
        <time>2017-10-15T13:34:25.000Z</time>
      </trkpt>
      <trkpt lat="42.39545" lon="2.10844">
        <ele>2753</ele>
        <time>2017-10-15T13:34:26.000Z</time>
      </trkpt>
      <trkpt lat="42.39545" lon="2.10843">
        <ele>2753</ele>
        <time>2017-10-15T13:34:27.000Z</time>
      </trkpt>
      <trkpt lat="42.39545" lon="2.10841">
        <ele>2754</ele>
        <time>2017-10-15T13:34:28.000Z</time>
      </trkpt>
      <trkpt lat="42.39545" lon="2.10841">
        <ele>2754</ele>
        <time>2017-10-15T13:34:29.000Z</time>
      </trkpt>
      <trkpt lat="42.39546" lon="2.1084">
        <ele>2754</ele>
        <time>2017-10-15T13:34:30.000Z</time>
      </trkpt>
      <trkpt lat="42.39546" lon="2.10839">
        <ele>2754</ele>
        <time>2017-10-15T13:34:31.000Z</time>
      </trkpt>
      <trkpt lat="42.39546" lon="2.10838">
        <ele>2754</ele>
        <time>2017-10-15T13:34:32.000Z</time>
      </trkpt>
      <trkpt lat="42.39547" lon="2.10837">
        <ele>2754</ele>
        <time>2017-10-15T13:34:33.000Z</time>
      </trkpt>
      <trkpt lat="42.39547" lon="2.10836">
        <ele>2754</ele>
        <time>2017-10-15T13:34:34.000Z</time>
      </trkpt>
      <trkpt lat="42.39548" lon="2.10835">
        <ele>2754</ele>
        <time>2017-10-15T13:34:35.000Z</time>
      </trkpt>
      <trkpt lat="42.39548" lon="2.10834">
        <ele>2754</ele>
        <time>2017-10-15T13:34:36.000Z</time>
      </trkpt>
      <trkpt lat="42.39548" lon="2.10833">
        <ele>2754</ele>
        <time>2017-10-15T13:34:37.000Z</time>
      </trkpt>
      <trkpt lat="42.39548" lon="2.10833">
        <ele>2754</ele>
        <time>2017-10-15T13:34:38.000Z</time>
      </trkpt>
      <trkpt lat="42.39549" lon="2.10832">
        <ele>2755</ele>
        <time>2017-10-15T13:34:39.000Z</time>
      </trkpt>
      <trkpt lat="42.39549" lon="2.10831">
        <ele>2755</ele>
        <time>2017-10-15T13:34:40.000Z</time>
      </trkpt>
      <trkpt lat="42.39549" lon="2.10831">
        <ele>2755</ele>
        <time>2017-10-15T13:34:41.000Z</time>
      </trkpt>
      <trkpt lat="42.3955" lon="2.10831">
        <ele>2755</ele>
        <time>2017-10-15T13:34:42.000Z</time>
      </trkpt>
      <trkpt lat="42.3955" lon="2.1083">
        <ele>2755</ele>
        <time>2017-10-15T13:34:43.000Z</time>
      </trkpt>
      <trkpt lat="42.3955" lon="2.10829">
        <ele>2755</ele>
        <time>2017-10-15T13:34:44.000Z</time>
      </trkpt>
      <trkpt lat="42.3955" lon="2.10829">
        <ele>2755</ele>
        <time>2017-10-15T13:34:45.000Z</time>
      </trkpt>
      <trkpt lat="42.39551" lon="2.10828">
        <ele>2755</ele>
        <time>2017-10-15T13:34:46.000Z</time>
      </trkpt>
      <trkpt lat="42.39551" lon="2.10828">
        <ele>2755</ele>
        <time>2017-10-15T13:34:47.000Z</time>
      </trkpt>
      <trkpt lat="42.39551" lon="2.10827">
        <ele>2755</ele>
        <time>2017-10-15T13:34:48.000Z</time>
      </trkpt>
      <trkpt lat="42.39552" lon="2.10827">
        <ele>2755</ele>
        <time>2017-10-15T13:34:49.000Z</time>
      </trkpt>
      <trkpt lat="42.39552" lon="2.10826">
        <ele>2755</ele>
        <time>2017-10-15T13:34:50.000Z</time>
      </trkpt>
      <trkpt lat="42.39552" lon="2.10825">
        <ele>2755</ele>
        <time>2017-10-15T13:34:51.000Z</time>
      </trkpt>
      <trkpt lat="42.39552" lon="2.10825">
        <ele>2754</ele>
        <time>2017-10-15T13:34:52.000Z</time>
      </trkpt>
      <trkpt lat="42.39553" lon="2.10824">
        <ele>2754</ele>
        <time>2017-10-15T13:34:53.000Z</time>
      </trkpt>
      <trkpt lat="42.39553" lon="2.10823">
        <ele>2754</ele>
        <time>2017-10-15T13:34:54.000Z</time>
      </trkpt>
      <trkpt lat="42.39553" lon="2.10822">
        <ele>2754</ele>
        <time>2017-10-15T13:34:55.000Z</time>
      </trkpt>
      <trkpt lat="42.39554" lon="2.10821">
        <ele>2754</ele>
        <time>2017-10-15T13:34:56.000Z</time>
      </trkpt>
      <trkpt lat="42.39554" lon="2.1082">
        <ele>2753</ele>
        <time>2017-10-15T13:34:57.000Z</time>
      </trkpt>
      <trkpt lat="42.39554" lon="2.1082">
        <ele>2753</ele>
        <time>2017-10-15T13:34:58.000Z</time>
      </trkpt>
      <trkpt lat="42.39555" lon="2.10819">
        <ele>2753</ele>
        <time>2017-10-15T13:34:59.000Z</time>
      </trkpt>
      <trkpt lat="42.39555" lon="2.10818">
        <ele>2753</ele>
        <time>2017-10-15T13:35:00.000Z</time>
      </trkpt>
      <trkpt lat="42.39556" lon="2.10818">
        <ele>2753</ele>
        <time>2017-10-15T13:35:01.000Z</time>
      </trkpt>
      <trkpt lat="42.39556" lon="2.10817">
        <ele>2753</ele>
        <time>2017-10-15T13:35:02.000Z</time>
      </trkpt>
      <trkpt lat="42.39557" lon="2.10817">
        <ele>2752</ele>
        <time>2017-10-15T13:35:03.000Z</time>
      </trkpt>
      <trkpt lat="42.39557" lon="2.10817">
        <ele>2752</ele>
        <time>2017-10-15T13:35:04.000Z</time>
      </trkpt>
      <trkpt lat="42.39557" lon="2.10816">
        <ele>2752</ele>
        <time>2017-10-15T13:35:05.000Z</time>
      </trkpt>
      <trkpt lat="42.39558" lon="2.10815">
        <ele>2752</ele>
        <time>2017-10-15T13:35:06.000Z</time>
      </trkpt>
      <trkpt lat="42.39558" lon="2.10815">
        <ele>2752</ele>
        <time>2017-10-15T13:35:07.000Z</time>
      </trkpt>
      <trkpt lat="42.39558" lon="2.10814">
        <ele>2752</ele>
        <time>2017-10-15T13:35:08.000Z</time>
      </trkpt>
      <trkpt lat="42.39558" lon="2.10813">
        <ele>2751</ele>
        <time>2017-10-15T13:35:09.000Z</time>
      </trkpt>
      <trkpt lat="42.39559" lon="2.10813">
        <ele>2751</ele>
        <time>2017-10-15T13:35:10.000Z</time>
      </trkpt>
      <trkpt lat="42.39559" lon="2.10812">
        <ele>2751</ele>
        <time>2017-10-15T13:35:11.000Z</time>
      </trkpt>
      <trkpt lat="42.39559" lon="2.10812">
        <ele>2751</ele>
        <time>2017-10-15T13:35:12.000Z</time>
      </trkpt>
      <trkpt lat="42.3956" lon="2.10811">
        <ele>2751</ele>
        <time>2017-10-15T13:35:13.000Z</time>
      </trkpt>
      <trkpt lat="42.3956" lon="2.1081">
        <ele>2751</ele>
        <time>2017-10-15T13:35:14.000Z</time>
      </trkpt>
      <trkpt lat="42.3956" lon="2.1081">
        <ele>2750</ele>
        <time>2017-10-15T13:35:15.000Z</time>
      </trkpt>
      <trkpt lat="42.39562" lon="2.10802">
        <ele>2750</ele>
        <time>2017-10-15T13:35:29.000Z</time>
      </trkpt>
      <trkpt lat="42.39563" lon="2.10801">
        <ele>2750</ele>
        <time>2017-10-15T13:35:30.000Z</time>
      </trkpt>
      <trkpt lat="42.39563" lon="2.10801">
        <ele>2750</ele>
        <time>2017-10-15T13:35:31.000Z</time>
      </trkpt>
      <trkpt lat="42.39564" lon="2.108">
        <ele>2750</ele>
        <time>2017-10-15T13:35:32.000Z</time>
      </trkpt>
      <trkpt lat="42.39564" lon="2.10799">
        <ele>2750</ele>
        <time>2017-10-15T13:35:33.000Z</time>
      </trkpt>
      <trkpt lat="42.39565" lon="2.10799">
        <ele>2750</ele>
        <time>2017-10-15T13:35:34.000Z</time>
      </trkpt>
      <trkpt lat="42.39565" lon="2.10798">
        <ele>2751</ele>
        <time>2017-10-15T13:35:35.000Z</time>
      </trkpt>
      <trkpt lat="42.39565" lon="2.10797">
        <ele>2751</ele>
        <time>2017-10-15T13:35:36.000Z</time>
      </trkpt>
      <trkpt lat="42.39565" lon="2.10797">
        <ele>2751</ele>
        <time>2017-10-15T13:35:37.000Z</time>
      </trkpt>
      <trkpt lat="42.39566" lon="2.10796">
        <ele>2751</ele>
        <time>2017-10-15T13:35:38.000Z</time>
      </trkpt>
      <trkpt lat="42.39566" lon="2.10796">
        <ele>2751</ele>
        <time>2017-10-15T13:35:39.000Z</time>
      </trkpt>
      <trkpt lat="42.39566" lon="2.10795">
        <ele>2751</ele>
        <time>2017-10-15T13:35:40.000Z</time>
      </trkpt>
      <trkpt lat="42.39567" lon="2.10795">
        <ele>2751</ele>
        <time>2017-10-15T13:35:41.000Z</time>
      </trkpt>
      <trkpt lat="42.39572" lon="2.10779">
        <ele>2752</ele>
        <time>2017-10-15T13:36:03.000Z</time>
      </trkpt>
      <trkpt lat="42.39573" lon="2.10778">
        <ele>2753</ele>
        <time>2017-10-15T13:36:04.000Z</time>
      </trkpt>
      <trkpt lat="42.39573" lon="2.10777">
        <ele>2753</ele>
        <time>2017-10-15T13:36:05.000Z</time>
      </trkpt>
      <trkpt lat="42.39574" lon="2.10777">
        <ele>2753</ele>
        <time>2017-10-15T13:36:06.000Z</time>
      </trkpt>
      <trkpt lat="42.39575" lon="2.10775">
        <ele>2753</ele>
        <time>2017-10-15T13:36:07.000Z</time>
      </trkpt>
      <trkpt lat="42.39575" lon="2.10775">
        <ele>2753</ele>
        <time>2017-10-15T13:36:08.000Z</time>
      </trkpt>
      <trkpt lat="42.39576" lon="2.10774">
        <ele>2753</ele>
        <time>2017-10-15T13:36:09.000Z</time>
      </trkpt>
      <trkpt lat="42.39576" lon="2.10773">
        <ele>2753</ele>
        <time>2017-10-15T13:36:10.000Z</time>
      </trkpt>
      <trkpt lat="42.39577" lon="2.10772">
        <ele>2754</ele>
        <time>2017-10-15T13:36:11.000Z</time>
      </trkpt>
      <trkpt lat="42.39577" lon="2.10772">
        <ele>2754</ele>
        <time>2017-10-15T13:36:12.000Z</time>
      </trkpt>
      <trkpt lat="42.39578" lon="2.1077">
        <ele>2754</ele>
        <time>2017-10-15T13:36:13.000Z</time>
      </trkpt>
      <trkpt lat="42.39578" lon="2.10769">
        <ele>2754</ele>
        <time>2017-10-15T13:36:14.000Z</time>
      </trkpt>
      <trkpt lat="42.39579" lon="2.10769">
        <ele>2754</ele>
        <time>2017-10-15T13:36:15.000Z</time>
      </trkpt>
      <trkpt lat="42.39579" lon="2.10767">
        <ele>2754</ele>
        <time>2017-10-15T13:36:16.000Z</time>
      </trkpt>
      <trkpt lat="42.3958" lon="2.10766">
        <ele>2754</ele>
        <time>2017-10-15T13:36:17.000Z</time>
      </trkpt>
      <trkpt lat="42.3958" lon="2.10765">
        <ele>2754</ele>
        <time>2017-10-15T13:36:18.000Z</time>
      </trkpt>
      <trkpt lat="42.39581" lon="2.10764">
        <ele>2755</ele>
        <time>2017-10-15T13:36:19.000Z</time>
      </trkpt>
      <trkpt lat="42.39581" lon="2.10763">
        <ele>2755</ele>
        <time>2017-10-15T13:36:20.000Z</time>
      </trkpt>
      <trkpt lat="42.39582" lon="2.10762">
        <ele>2755</ele>
        <time>2017-10-15T13:36:21.000Z</time>
      </trkpt>
      <trkpt lat="42.39582" lon="2.10761">
        <ele>2755</ele>
        <time>2017-10-15T13:36:22.000Z</time>
      </trkpt>
      <trkpt lat="42.39582" lon="2.1076">
        <ele>2755</ele>
        <time>2017-10-15T13:36:23.000Z</time>
      </trkpt>
      <trkpt lat="42.39582" lon="2.10759">
        <ele>2755</ele>
        <time>2017-10-15T13:36:24.000Z</time>
      </trkpt>
      <trkpt lat="42.39583" lon="2.10758">
        <ele>2754</ele>
        <time>2017-10-15T13:36:25.000Z</time>
      </trkpt>
      <trkpt lat="42.39583" lon="2.10758">
        <ele>2754</ele>
        <time>2017-10-15T13:36:26.000Z</time>
      </trkpt>
      <trkpt lat="42.39583" lon="2.10757">
        <ele>2754</ele>
        <time>2017-10-15T13:36:27.000Z</time>
      </trkpt>
      <trkpt lat="42.39583" lon="2.10757">
        <ele>2754</ele>
        <time>2017-10-15T13:36:28.000Z</time>
      </trkpt>
      <trkpt lat="42.39583" lon="2.10756">
        <ele>2754</ele>
        <time>2017-10-15T13:36:29.000Z</time>
      </trkpt>
      <trkpt lat="42.39587" lon="2.10749">
        <ele>2753</ele>
        <time>2017-10-15T13:36:43.000Z</time>
      </trkpt>
      <trkpt lat="42.39587" lon="2.10748">
        <ele>2753</ele>
        <time>2017-10-15T13:36:44.000Z</time>
      </trkpt>
      <trkpt lat="42.39588" lon="2.10747">
        <ele>2753</ele>
        <time>2017-10-15T13:36:45.000Z</time>
      </trkpt>
      <trkpt lat="42.39589" lon="2.10745">
        <ele>2753</ele>
        <time>2017-10-15T13:36:46.000Z</time>
      </trkpt>
      <trkpt lat="42.39589" lon="2.10744">
        <ele>2753</ele>
        <time>2017-10-15T13:36:47.000Z</time>
      </trkpt>
      <trkpt lat="42.39589" lon="2.10743">
        <ele>2753</ele>
        <time>2017-10-15T13:36:48.000Z</time>
      </trkpt>
      <trkpt lat="42.3959" lon="2.10742">
        <ele>2753</ele>
        <time>2017-10-15T13:36:49.000Z</time>
      </trkpt>
      <trkpt lat="42.3959" lon="2.10741">
        <ele>2752</ele>
        <time>2017-10-15T13:36:50.000Z</time>
      </trkpt>
      <trkpt lat="42.3959" lon="2.1074">
        <ele>2752</ele>
        <time>2017-10-15T13:36:51.000Z</time>
      </trkpt>
      <trkpt lat="42.39591" lon="2.1074">
        <ele>2752</ele>
        <time>2017-10-15T13:36:52.000Z</time>
      </trkpt>
      <trkpt lat="42.39591" lon="2.10739">
        <ele>2752</ele>
        <time>2017-10-15T13:36:53.000Z</time>
      </trkpt>
      <trkpt lat="42.39591" lon="2.10738">
        <ele>2752</ele>
        <time>2017-10-15T13:36:54.000Z</time>
      </trkpt>
      <trkpt lat="42.39591" lon="2.10737">
        <ele>2751</ele>
        <time>2017-10-15T13:36:55.000Z</time>
      </trkpt>
      <trkpt lat="42.39592" lon="2.10736">
        <ele>2751</ele>
        <time>2017-10-15T13:36:56.000Z</time>
      </trkpt>
      <trkpt lat="42.39592" lon="2.10735">
        <ele>2751</ele>
        <time>2017-10-15T13:36:57.000Z</time>
      </trkpt>
      <trkpt lat="42.39593" lon="2.10734">
        <ele>2751</ele>
        <time>2017-10-15T13:36:58.000Z</time>
      </trkpt>
      <trkpt lat="42.39593" lon="2.10734">
        <ele>2750</ele>
        <time>2017-10-15T13:36:59.000Z</time>
      </trkpt>
      <trkpt lat="42.39593" lon="2.10733">
        <ele>2750</ele>
        <time>2017-10-15T13:37:00.000Z</time>
      </trkpt>
      <trkpt lat="42.39593" lon="2.10732">
        <ele>2750</ele>
        <time>2017-10-15T13:37:01.000Z</time>
      </trkpt>
      <trkpt lat="42.39594" lon="2.10731">
        <ele>2750</ele>
        <time>2017-10-15T13:37:02.000Z</time>
      </trkpt>
      <trkpt lat="42.39594" lon="2.10729">
        <ele>2750</ele>
        <time>2017-10-15T13:37:03.000Z</time>
      </trkpt>
      <trkpt lat="42.39594" lon="2.10728">
        <ele>2749</ele>
        <time>2017-10-15T13:37:04.000Z</time>
      </trkpt>
      <trkpt lat="42.39594" lon="2.10727">
        <ele>2749</ele>
        <time>2017-10-15T13:37:05.000Z</time>
      </trkpt>
      <trkpt lat="42.39594" lon="2.10726">
        <ele>2749</ele>
        <time>2017-10-15T13:37:06.000Z</time>
      </trkpt>
      <trkpt lat="42.39595" lon="2.10726">
        <ele>2749</ele>
        <time>2017-10-15T13:37:07.000Z</time>
      </trkpt>
      <trkpt lat="42.39595" lon="2.10725">
        <ele>2749</ele>
        <time>2017-10-15T13:37:08.000Z</time>
      </trkpt>
      <trkpt lat="42.39595" lon="2.10724">
        <ele>2748</ele>
        <time>2017-10-15T13:37:09.000Z</time>
      </trkpt>
      <trkpt lat="42.39595" lon="2.10723">
        <ele>2748</ele>
        <time>2017-10-15T13:37:10.000Z</time>
      </trkpt>
      <trkpt lat="42.39596" lon="2.10723">
        <ele>2748</ele>
        <time>2017-10-15T13:37:11.000Z</time>
      </trkpt>
      <trkpt lat="42.39596" lon="2.10722">
        <ele>2748</ele>
        <time>2017-10-15T13:37:12.000Z</time>
      </trkpt>
      <trkpt lat="42.39596" lon="2.10722">
        <ele>2748</ele>
        <time>2017-10-15T13:37:13.000Z</time>
      </trkpt>
      <trkpt lat="42.39596" lon="2.10721">
        <ele>2748</ele>
        <time>2017-10-15T13:37:14.000Z</time>
      </trkpt>
      <trkpt lat="42.39596" lon="2.1072">
        <ele>2747</ele>
        <time>2017-10-15T13:37:15.000Z</time>
      </trkpt>
      <trkpt lat="42.39597" lon="2.10719">
        <ele>2747</ele>
        <time>2017-10-15T13:37:16.000Z</time>
      </trkpt>
      <trkpt lat="42.39597" lon="2.10718">
        <ele>2747</ele>
        <time>2017-10-15T13:37:17.000Z</time>
      </trkpt>
      <trkpt lat="42.39597" lon="2.10718">
        <ele>2747</ele>
        <time>2017-10-15T13:37:18.000Z</time>
      </trkpt>
      <trkpt lat="42.39598" lon="2.10717">
        <ele>2747</ele>
        <time>2017-10-15T13:37:19.000Z</time>
      </trkpt>
      <trkpt lat="42.39598" lon="2.10716">
        <ele>2746</ele>
        <time>2017-10-15T13:37:20.000Z</time>
      </trkpt>
      <trkpt lat="42.39598" lon="2.10715">
        <ele>2746</ele>
        <time>2017-10-15T13:37:21.000Z</time>
      </trkpt>
      <trkpt lat="42.39599" lon="2.10714">
        <ele>2746</ele>
        <time>2017-10-15T13:37:22.000Z</time>
      </trkpt>
      <trkpt lat="42.39599" lon="2.10713">
        <ele>2746</ele>
        <time>2017-10-15T13:37:23.000Z</time>
      </trkpt>
      <trkpt lat="42.39599" lon="2.10712">
        <ele>2745</ele>
        <time>2017-10-15T13:37:24.000Z</time>
      </trkpt>
      <trkpt lat="42.396" lon="2.10711">
        <ele>2745</ele>
        <time>2017-10-15T13:37:25.000Z</time>
      </trkpt>
      <trkpt lat="42.396" lon="2.1071">
        <ele>2745</ele>
        <time>2017-10-15T13:37:26.000Z</time>
      </trkpt>
      <trkpt lat="42.396" lon="2.10709">
        <ele>2745</ele>
        <time>2017-10-15T13:37:27.000Z</time>
      </trkpt>
      <trkpt lat="42.39601" lon="2.10708">
        <ele>2744</ele>
        <time>2017-10-15T13:37:28.000Z</time>
      </trkpt>
      <trkpt lat="42.39601" lon="2.10707">
        <ele>2744</ele>
        <time>2017-10-15T13:37:29.000Z</time>
      </trkpt>
      <trkpt lat="42.39601" lon="2.10706">
        <ele>2744</ele>
        <time>2017-10-15T13:37:30.000Z</time>
      </trkpt>
      <trkpt lat="42.39601" lon="2.10705">
        <ele>2744</ele>
        <time>2017-10-15T13:37:31.000Z</time>
      </trkpt>
      <trkpt lat="42.39602" lon="2.10704">
        <ele>2744</ele>
        <time>2017-10-15T13:37:32.000Z</time>
      </trkpt>
      <trkpt lat="42.39602" lon="2.10703">
        <ele>2743</ele>
        <time>2017-10-15T13:37:33.000Z</time>
      </trkpt>
      <trkpt lat="42.39603" lon="2.10702">
        <ele>2743</ele>
        <time>2017-10-15T13:37:34.000Z</time>
      </trkpt>
      <trkpt lat="42.39603" lon="2.10701">
        <ele>2743</ele>
        <time>2017-10-15T13:37:35.000Z</time>
      </trkpt>
      <trkpt lat="42.39604" lon="2.107">
        <ele>2742</ele>
        <time>2017-10-15T13:37:36.000Z</time>
      </trkpt>
      <trkpt lat="42.39605" lon="2.107">
        <ele>2742</ele>
        <time>2017-10-15T13:37:37.000Z</time>
      </trkpt>
      <trkpt lat="42.39605" lon="2.10699">
        <ele>2742</ele>
        <time>2017-10-15T13:37:38.000Z</time>
      </trkpt>
      <trkpt lat="42.39606" lon="2.10699">
        <ele>2742</ele>
        <time>2017-10-15T13:37:39.000Z</time>
      </trkpt>
      <trkpt lat="42.39607" lon="2.10698">
        <ele>2741</ele>
        <time>2017-10-15T13:37:40.000Z</time>
      </trkpt>
      <trkpt lat="42.39607" lon="2.10697">
        <ele>2741</ele>
        <time>2017-10-15T13:37:41.000Z</time>
      </trkpt>
      <trkpt lat="42.39607" lon="2.10696">
        <ele>2741</ele>
        <time>2017-10-15T13:37:42.000Z</time>
      </trkpt>
      <trkpt lat="42.39608" lon="2.10694">
        <ele>2740</ele>
        <time>2017-10-15T13:37:43.000Z</time>
      </trkpt>
      <trkpt lat="42.39608" lon="2.10692">
        <ele>2740</ele>
        <time>2017-10-15T13:37:44.000Z</time>
      </trkpt>
      <trkpt lat="42.39609" lon="2.10691">
        <ele>2740</ele>
        <time>2017-10-15T13:37:45.000Z</time>
      </trkpt>
      <trkpt lat="42.39609" lon="2.1069">
        <ele>2739</ele>
        <time>2017-10-15T13:37:46.000Z</time>
      </trkpt>
      <trkpt lat="42.3961" lon="2.10689">
        <ele>2739</ele>
        <time>2017-10-15T13:37:47.000Z</time>
      </trkpt>
      <trkpt lat="42.3961" lon="2.10688">
        <ele>2739</ele>
        <time>2017-10-15T13:37:48.000Z</time>
      </trkpt>
      <trkpt lat="42.3961" lon="2.10687">
        <ele>2739</ele>
        <time>2017-10-15T13:37:49.000Z</time>
      </trkpt>
      <trkpt lat="42.39611" lon="2.10686">
        <ele>2740</ele>
        <time>2017-10-15T13:37:50.000Z</time>
      </trkpt>
      <trkpt lat="42.39611" lon="2.10685">
        <ele>2740</ele>
        <time>2017-10-15T13:37:51.000Z</time>
      </trkpt>
      <trkpt lat="42.39611" lon="2.10684">
        <ele>2740</ele>
        <time>2017-10-15T13:37:52.000Z</time>
      </trkpt>
      <trkpt lat="42.39611" lon="2.10683">
        <ele>2740</ele>
        <time>2017-10-15T13:37:53.000Z</time>
      </trkpt>
      <trkpt lat="42.39612" lon="2.10681">
        <ele>2740</ele>
        <time>2017-10-15T13:37:54.000Z</time>
      </trkpt>
      <trkpt lat="42.39612" lon="2.10681">
        <ele>2740</ele>
        <time>2017-10-15T13:37:55.000Z</time>
      </trkpt>
      <trkpt lat="42.39612" lon="2.1068">
        <ele>2741</ele>
        <time>2017-10-15T13:37:56.000Z</time>
      </trkpt>
      <trkpt lat="42.39612" lon="2.10679">
        <ele>2741</ele>
        <time>2017-10-15T13:37:57.000Z</time>
      </trkpt>
      <trkpt lat="42.39613" lon="2.10678">
        <ele>2741</ele>
        <time>2017-10-15T13:37:58.000Z</time>
      </trkpt>
      <trkpt lat="42.39613" lon="2.10676">
        <ele>2741</ele>
        <time>2017-10-15T13:37:59.000Z</time>
      </trkpt>
      <trkpt lat="42.39613" lon="2.10675">
        <ele>2742</ele>
        <time>2017-10-15T13:38:00.000Z</time>
      </trkpt>
      <trkpt lat="42.39613" lon="2.10673">
        <ele>2742</ele>
        <time>2017-10-15T13:38:01.000Z</time>
      </trkpt>
      <trkpt lat="42.39613" lon="2.10672">
        <ele>2742</ele>
        <time>2017-10-15T13:38:02.000Z</time>
      </trkpt>
      <trkpt lat="42.39614" lon="2.10671">
        <ele>2742</ele>
        <time>2017-10-15T13:38:03.000Z</time>
      </trkpt>
      <trkpt lat="42.39614" lon="2.10669">
        <ele>2743</ele>
        <time>2017-10-15T13:38:04.000Z</time>
      </trkpt>
      <trkpt lat="42.39614" lon="2.10668">
        <ele>2743</ele>
        <time>2017-10-15T13:38:05.000Z</time>
      </trkpt>
      <trkpt lat="42.39614" lon="2.10667">
        <ele>2743</ele>
        <time>2017-10-15T13:38:06.000Z</time>
      </trkpt>
      <trkpt lat="42.39614" lon="2.10665">
        <ele>2743</ele>
        <time>2017-10-15T13:38:07.000Z</time>
      </trkpt>
      <trkpt lat="42.39615" lon="2.10664">
        <ele>2744</ele>
        <time>2017-10-15T13:38:08.000Z</time>
      </trkpt>
      <trkpt lat="42.39615" lon="2.10663">
        <ele>2744</ele>
        <time>2017-10-15T13:38:09.000Z</time>
      </trkpt>
      <trkpt lat="42.39615" lon="2.10661">
        <ele>2744</ele>
        <time>2017-10-15T13:38:10.000Z</time>
      </trkpt>
      <trkpt lat="42.39616" lon="2.1066">
        <ele>2744</ele>
        <time>2017-10-15T13:38:11.000Z</time>
      </trkpt>
      <trkpt lat="42.39616" lon="2.10659">
        <ele>2744</ele>
        <time>2017-10-15T13:38:12.000Z</time>
      </trkpt>
      <trkpt lat="42.39616" lon="2.10658">
        <ele>2744</ele>
        <time>2017-10-15T13:38:13.000Z</time>
      </trkpt>
      <trkpt lat="42.39617" lon="2.10657">
        <ele>2744</ele>
        <time>2017-10-15T13:38:14.000Z</time>
      </trkpt>
      <trkpt lat="42.39617" lon="2.10656">
        <ele>2744</ele>
        <time>2017-10-15T13:38:15.000Z</time>
      </trkpt>
      <trkpt lat="42.39618" lon="2.10654">
        <ele>2743</ele>
        <time>2017-10-15T13:38:16.000Z</time>
      </trkpt>
      <trkpt lat="42.39618" lon="2.10653">
        <ele>2743</ele>
        <time>2017-10-15T13:38:17.000Z</time>
      </trkpt>
      <trkpt lat="42.39619" lon="2.10652">
        <ele>2743</ele>
        <time>2017-10-15T13:38:18.000Z</time>
      </trkpt>
      <trkpt lat="42.39619" lon="2.10651">
        <ele>2743</ele>
        <time>2017-10-15T13:38:19.000Z</time>
      </trkpt>
      <trkpt lat="42.3962" lon="2.1065">
        <ele>2743</ele>
        <time>2017-10-15T13:38:20.000Z</time>
      </trkpt>
      <trkpt lat="42.39621" lon="2.10649">
        <ele>2742</ele>
        <time>2017-10-15T13:38:21.000Z</time>
      </trkpt>
      <trkpt lat="42.39621" lon="2.10648">
        <ele>2742</ele>
        <time>2017-10-15T13:38:22.000Z</time>
      </trkpt>
      <trkpt lat="42.39621" lon="2.10647">
        <ele>2742</ele>
        <time>2017-10-15T13:38:23.000Z</time>
      </trkpt>
      <trkpt lat="42.39622" lon="2.10646">
        <ele>2742</ele>
        <time>2017-10-15T13:38:24.000Z</time>
      </trkpt>
      <trkpt lat="42.39622" lon="2.10645">
        <ele>2742</ele>
        <time>2017-10-15T13:38:25.000Z</time>
      </trkpt>
      <trkpt lat="42.39623" lon="2.10644">
        <ele>2741</ele>
        <time>2017-10-15T13:38:26.000Z</time>
      </trkpt>
      <trkpt lat="42.39623" lon="2.10643">
        <ele>2741</ele>
        <time>2017-10-15T13:38:27.000Z</time>
      </trkpt>
      <trkpt lat="42.39623" lon="2.10642">
        <ele>2741</ele>
        <time>2017-10-15T13:38:28.000Z</time>
      </trkpt>
      <trkpt lat="42.39623" lon="2.1064">
        <ele>2741</ele>
        <time>2017-10-15T13:38:29.000Z</time>
      </trkpt>
      <trkpt lat="42.39623" lon="2.10639">
        <ele>2741</ele>
        <time>2017-10-15T13:38:30.000Z</time>
      </trkpt>
      <trkpt lat="42.39623" lon="2.10639">
        <ele>2740</ele>
        <time>2017-10-15T13:38:31.000Z</time>
      </trkpt>
      <trkpt lat="42.39624" lon="2.10637">
        <ele>2740</ele>
        <time>2017-10-15T13:38:32.000Z</time>
      </trkpt>
      <trkpt lat="42.39624" lon="2.10636">
        <ele>2740</ele>
        <time>2017-10-15T13:38:33.000Z</time>
      </trkpt>
      <trkpt lat="42.39624" lon="2.10635">
        <ele>2740</ele>
        <time>2017-10-15T13:38:34.000Z</time>
      </trkpt>
      <trkpt lat="42.39625" lon="2.10634">
        <ele>2739</ele>
        <time>2017-10-15T13:38:35.000Z</time>
      </trkpt>
      <trkpt lat="42.39626" lon="2.10633">
        <ele>2739</ele>
        <time>2017-10-15T13:38:36.000Z</time>
      </trkpt>
      <trkpt lat="42.39626" lon="2.10632">
        <ele>2739</ele>
        <time>2017-10-15T13:38:37.000Z</time>
      </trkpt>
      <trkpt lat="42.39627" lon="2.10631">
        <ele>2739</ele>
        <time>2017-10-15T13:38:38.000Z</time>
      </trkpt>
      <trkpt lat="42.39627" lon="2.1063">
        <ele>2739</ele>
        <time>2017-10-15T13:38:39.000Z</time>
      </trkpt>
      <trkpt lat="42.39628" lon="2.10629">
        <ele>2739</ele>
        <time>2017-10-15T13:38:40.000Z</time>
      </trkpt>
      <trkpt lat="42.39628" lon="2.10628">
        <ele>2738</ele>
        <time>2017-10-15T13:38:41.000Z</time>
      </trkpt>
      <trkpt lat="42.39629" lon="2.10627">
        <ele>2738</ele>
        <time>2017-10-15T13:38:42.000Z</time>
      </trkpt>
      <trkpt lat="42.39629" lon="2.10627">
        <ele>2738</ele>
        <time>2017-10-15T13:38:43.000Z</time>
      </trkpt>
      <trkpt lat="42.3963" lon="2.10626">
        <ele>2738</ele>
        <time>2017-10-15T13:38:44.000Z</time>
      </trkpt>
      <trkpt lat="42.3963" lon="2.10626">
        <ele>2738</ele>
        <time>2017-10-15T13:38:45.000Z</time>
      </trkpt>
      <trkpt lat="42.3963" lon="2.10625">
        <ele>2738</ele>
        <time>2017-10-15T13:38:46.000Z</time>
      </trkpt>
      <trkpt lat="42.39631" lon="2.10624">
        <ele>2738</ele>
        <time>2017-10-15T13:38:47.000Z</time>
      </trkpt>
      <trkpt lat="42.39631" lon="2.10623">
        <ele>2738</ele>
        <time>2017-10-15T13:38:48.000Z</time>
      </trkpt>
      <trkpt lat="42.39631" lon="2.10622">
        <ele>2738</ele>
        <time>2017-10-15T13:38:49.000Z</time>
      </trkpt>
      <trkpt lat="42.39632" lon="2.10621">
        <ele>2739</ele>
        <time>2017-10-15T13:38:50.000Z</time>
      </trkpt>
      <trkpt lat="42.39632" lon="2.1062">
        <ele>2739</ele>
        <time>2017-10-15T13:38:51.000Z</time>
      </trkpt>
      <trkpt lat="42.39633" lon="2.10619">
        <ele>2739</ele>
        <time>2017-10-15T13:38:52.000Z</time>
      </trkpt>
      <trkpt lat="42.39633" lon="2.10618">
        <ele>2739</ele>
        <time>2017-10-15T13:38:53.000Z</time>
      </trkpt>
      <trkpt lat="42.39634" lon="2.10617">
        <ele>2739</ele>
        <time>2017-10-15T13:38:54.000Z</time>
      </trkpt>
      <trkpt lat="42.39634" lon="2.10616">
        <ele>2739</ele>
        <time>2017-10-15T13:38:55.000Z</time>
      </trkpt>
      <trkpt lat="42.39634" lon="2.10615">
        <ele>2740</ele>
        <time>2017-10-15T13:38:56.000Z</time>
      </trkpt>
      <trkpt lat="42.39634" lon="2.10614">
        <ele>2740</ele>
        <time>2017-10-15T13:38:57.000Z</time>
      </trkpt>
      <trkpt lat="42.39634" lon="2.10613">
        <ele>2740</ele>
        <time>2017-10-15T13:38:58.000Z</time>
      </trkpt>
      <trkpt lat="42.39634" lon="2.10612">
        <ele>2740</ele>
        <time>2017-10-15T13:38:59.000Z</time>
      </trkpt>
      <trkpt lat="42.39635" lon="2.10611">
        <ele>2740</ele>
        <time>2017-10-15T13:39:00.000Z</time>
      </trkpt>
      <trkpt lat="42.39635" lon="2.10611">
        <ele>2740</ele>
        <time>2017-10-15T13:39:01.000Z</time>
      </trkpt>
      <trkpt lat="42.39635" lon="2.1061">
        <ele>2740</ele>
        <time>2017-10-15T13:39:02.000Z</time>
      </trkpt>
      <trkpt lat="42.39635" lon="2.10609">
        <ele>2740</ele>
        <time>2017-10-15T13:39:03.000Z</time>
      </trkpt>
      <trkpt lat="42.39635" lon="2.10608">
        <ele>2740</ele>
        <time>2017-10-15T13:39:04.000Z</time>
      </trkpt>
      <trkpt lat="42.39636" lon="2.10607">
        <ele>2740</ele>
        <time>2017-10-15T13:39:05.000Z</time>
      </trkpt>
      <trkpt lat="42.39636" lon="2.10606">
        <ele>2741</ele>
        <time>2017-10-15T13:39:06.000Z</time>
      </trkpt>
      <trkpt lat="42.39636" lon="2.10605">
        <ele>2741</ele>
        <time>2017-10-15T13:39:07.000Z</time>
      </trkpt>
      <trkpt lat="42.39636" lon="2.10604">
        <ele>2741</ele>
        <time>2017-10-15T13:39:08.000Z</time>
      </trkpt>
      <trkpt lat="42.39637" lon="2.10604">
        <ele>2741</ele>
        <time>2017-10-15T13:39:09.000Z</time>
      </trkpt>
      <trkpt lat="42.39637" lon="2.10603">
        <ele>2741</ele>
        <time>2017-10-15T13:39:10.000Z</time>
      </trkpt>
      <trkpt lat="42.39637" lon="2.10602">
        <ele>2741</ele>
        <time>2017-10-15T13:39:11.000Z</time>
      </trkpt>
      <trkpt lat="42.39638" lon="2.10601">
        <ele>2741</ele>
        <time>2017-10-15T13:39:12.000Z</time>
      </trkpt>
      <trkpt lat="42.39638" lon="2.106">
        <ele>2741</ele>
        <time>2017-10-15T13:39:13.000Z</time>
      </trkpt>
      <trkpt lat="42.39638" lon="2.10599">
        <ele>2742</ele>
        <time>2017-10-15T13:39:14.000Z</time>
      </trkpt>
      <trkpt lat="42.39639" lon="2.10597">
        <ele>2742</ele>
        <time>2017-10-15T13:39:15.000Z</time>
      </trkpt>
      <trkpt lat="42.39639" lon="2.10597">
        <ele>2742</ele>
        <time>2017-10-15T13:39:16.000Z</time>
      </trkpt>
      <trkpt lat="42.3964" lon="2.10596">
        <ele>2742</ele>
        <time>2017-10-15T13:39:17.000Z</time>
      </trkpt>
      <trkpt lat="42.3964" lon="2.10595">
        <ele>2742</ele>
        <time>2017-10-15T13:39:18.000Z</time>
      </trkpt>
      <trkpt lat="42.3964" lon="2.10594">
        <ele>2742</ele>
        <time>2017-10-15T13:39:19.000Z</time>
      </trkpt>
      <trkpt lat="42.39641" lon="2.10593">
        <ele>2743</ele>
        <time>2017-10-15T13:39:20.000Z</time>
      </trkpt>
      <trkpt lat="42.39642" lon="2.10592">
        <ele>2743</ele>
        <time>2017-10-15T13:39:21.000Z</time>
      </trkpt>
      <trkpt lat="42.39642" lon="2.10592">
        <ele>2743</ele>
        <time>2017-10-15T13:39:22.000Z</time>
      </trkpt>
      <trkpt lat="42.39643" lon="2.10591">
        <ele>2743</ele>
        <time>2017-10-15T13:39:23.000Z</time>
      </trkpt>
      <trkpt lat="42.39643" lon="2.1059">
        <ele>2743</ele>
        <time>2017-10-15T13:39:24.000Z</time>
      </trkpt>
      <trkpt lat="42.39644" lon="2.10589">
        <ele>2744</ele>
        <time>2017-10-15T13:39:25.000Z</time>
      </trkpt>
      <trkpt lat="42.39644" lon="2.10588">
        <ele>2744</ele>
        <time>2017-10-15T13:39:26.000Z</time>
      </trkpt>
      <trkpt lat="42.39644" lon="2.10587">
        <ele>2744</ele>
        <time>2017-10-15T13:39:27.000Z</time>
      </trkpt>
      <trkpt lat="42.39645" lon="2.10586">
        <ele>2744</ele>
        <time>2017-10-15T13:39:28.000Z</time>
      </trkpt>
      <trkpt lat="42.39645" lon="2.10585">
        <ele>2744</ele>
        <time>2017-10-15T13:39:29.000Z</time>
      </trkpt>
      <trkpt lat="42.39645" lon="2.10585">
        <ele>2744</ele>
        <time>2017-10-15T13:39:30.000Z</time>
      </trkpt>
      <trkpt lat="42.39646" lon="2.10584">
        <ele>2744</ele>
        <time>2017-10-15T13:39:31.000Z</time>
      </trkpt>
      <trkpt lat="42.39646" lon="2.10583">
        <ele>2745</ele>
        <time>2017-10-15T13:39:32.000Z</time>
      </trkpt>
      <trkpt lat="42.39647" lon="2.10582">
        <ele>2745</ele>
        <time>2017-10-15T13:39:33.000Z</time>
      </trkpt>
      <trkpt lat="42.39647" lon="2.10581">
        <ele>2745</ele>
        <time>2017-10-15T13:39:34.000Z</time>
      </trkpt>
      <trkpt lat="42.39647" lon="2.1058">
        <ele>2745</ele>
        <time>2017-10-15T13:39:35.000Z</time>
      </trkpt>
      <trkpt lat="42.39648" lon="2.10579">
        <ele>2745</ele>
        <time>2017-10-15T13:39:36.000Z</time>
      </trkpt>
      <trkpt lat="42.39648" lon="2.10578">
        <ele>2745</ele>
        <time>2017-10-15T13:39:37.000Z</time>
      </trkpt>
      <trkpt lat="42.39648" lon="2.10577">
        <ele>2745</ele>
        <time>2017-10-15T13:39:38.000Z</time>
      </trkpt>
      <trkpt lat="42.39648" lon="2.10575">
        <ele>2745</ele>
        <time>2017-10-15T13:39:39.000Z</time>
      </trkpt>
      <trkpt lat="42.39648" lon="2.10574">
        <ele>2745</ele>
        <time>2017-10-15T13:39:40.000Z</time>
      </trkpt>
      <trkpt lat="42.39649" lon="2.10573">
        <ele>2745</ele>
        <time>2017-10-15T13:39:41.000Z</time>
      </trkpt>
      <trkpt lat="42.39649" lon="2.10572">
        <ele>2745</ele>
        <time>2017-10-15T13:39:42.000Z</time>
      </trkpt>
      <trkpt lat="42.39649" lon="2.10571">
        <ele>2745</ele>
        <time>2017-10-15T13:39:43.000Z</time>
      </trkpt>
      <trkpt lat="42.39649" lon="2.1057">
        <ele>2744</ele>
        <time>2017-10-15T13:39:44.000Z</time>
      </trkpt>
      <trkpt lat="42.39649" lon="2.10569">
        <ele>2744</ele>
        <time>2017-10-15T13:39:45.000Z</time>
      </trkpt>
      <trkpt lat="42.39649" lon="2.10568">
        <ele>2744</ele>
        <time>2017-10-15T13:39:46.000Z</time>
      </trkpt>
      <trkpt lat="42.39649" lon="2.10567">
        <ele>2744</ele>
        <time>2017-10-15T13:39:47.000Z</time>
      </trkpt>
      <trkpt lat="42.3965" lon="2.10566">
        <ele>2744</ele>
        <time>2017-10-15T13:39:48.000Z</time>
      </trkpt>
      <trkpt lat="42.3965" lon="2.10565">
        <ele>2743</ele>
        <time>2017-10-15T13:39:49.000Z</time>
      </trkpt>
      <trkpt lat="42.3965" lon="2.10564">
        <ele>2743</ele>
        <time>2017-10-15T13:39:50.000Z</time>
      </trkpt>
      <trkpt lat="42.3965" lon="2.10563">
        <ele>2743</ele>
        <time>2017-10-15T13:39:51.000Z</time>
      </trkpt>
      <trkpt lat="42.3965" lon="2.10561">
        <ele>2743</ele>
        <time>2017-10-15T13:39:52.000Z</time>
      </trkpt>
      <trkpt lat="42.39651" lon="2.1056">
        <ele>2743</ele>
        <time>2017-10-15T13:39:53.000Z</time>
      </trkpt>
      <trkpt lat="42.39651" lon="2.10558">
        <ele>2743</ele>
        <time>2017-10-15T13:39:54.000Z</time>
      </trkpt>
      <trkpt lat="42.39651" lon="2.10556">
        <ele>2743</ele>
        <time>2017-10-15T13:39:55.000Z</time>
      </trkpt>
      <trkpt lat="42.39652" lon="2.10554">
        <ele>2742</ele>
        <time>2017-10-15T13:39:56.000Z</time>
      </trkpt>
      <trkpt lat="42.39652" lon="2.10553">
        <ele>2742</ele>
        <time>2017-10-15T13:39:57.000Z</time>
      </trkpt>
      <trkpt lat="42.39652" lon="2.10551">
        <ele>2742</ele>
        <time>2017-10-15T13:39:58.000Z</time>
      </trkpt>
      <trkpt lat="42.39652" lon="2.1055">
        <ele>2742</ele>
        <time>2017-10-15T13:39:59.000Z</time>
      </trkpt>
      <trkpt lat="42.39652" lon="2.10548">
        <ele>2742</ele>
        <time>2017-10-15T13:40:00.000Z</time>
      </trkpt>
      <trkpt lat="42.39652" lon="2.10547">
        <ele>2742</ele>
        <time>2017-10-15T13:40:01.000Z</time>
      </trkpt>
      <trkpt lat="42.39652" lon="2.10546">
        <ele>2742</ele>
        <time>2017-10-15T13:40:02.000Z</time>
      </trkpt>
      <trkpt lat="42.39652" lon="2.10545">
        <ele>2741</ele>
        <time>2017-10-15T13:40:03.000Z</time>
      </trkpt>
      <trkpt lat="42.39652" lon="2.10544">
        <ele>2741</ele>
        <time>2017-10-15T13:40:04.000Z</time>
      </trkpt>
      <trkpt lat="42.39652" lon="2.10543">
        <ele>2741</ele>
        <time>2017-10-15T13:40:05.000Z</time>
      </trkpt>
      <trkpt lat="42.39652" lon="2.10542">
        <ele>2741</ele>
        <time>2017-10-15T13:40:06.000Z</time>
      </trkpt>
      <trkpt lat="42.39652" lon="2.10541">
        <ele>2741</ele>
        <time>2017-10-15T13:40:07.000Z</time>
      </trkpt>
      <trkpt lat="42.39652" lon="2.1054">
        <ele>2740</ele>
        <time>2017-10-15T13:40:08.000Z</time>
      </trkpt>
      <trkpt lat="42.39651" lon="2.10539">
        <ele>2740</ele>
        <time>2017-10-15T13:40:09.000Z</time>
      </trkpt>
      <trkpt lat="42.39651" lon="2.10538">
        <ele>2740</ele>
        <time>2017-10-15T13:40:10.000Z</time>
      </trkpt>
      <trkpt lat="42.39651" lon="2.10537">
        <ele>2740</ele>
        <time>2017-10-15T13:40:11.000Z</time>
      </trkpt>
      <trkpt lat="42.39651" lon="2.10536">
        <ele>2740</ele>
        <time>2017-10-15T13:40:12.000Z</time>
      </trkpt>
      <trkpt lat="42.39651" lon="2.10536">
        <ele>2740</ele>
        <time>2017-10-15T13:40:13.000Z</time>
      </trkpt>
      <trkpt lat="42.39651" lon="2.10535">
        <ele>2739</ele>
        <time>2017-10-15T13:40:14.000Z</time>
      </trkpt>
      <trkpt lat="42.39651" lon="2.10534">
        <ele>2739</ele>
        <time>2017-10-15T13:40:15.000Z</time>
      </trkpt>
      <trkpt lat="42.39651" lon="2.10533">
        <ele>2739</ele>
        <time>2017-10-15T13:40:16.000Z</time>
      </trkpt>
      <trkpt lat="42.39651" lon="2.10532">
        <ele>2739</ele>
        <time>2017-10-15T13:40:17.000Z</time>
      </trkpt>
      <trkpt lat="42.39651" lon="2.10531">
        <ele>2739</ele>
        <time>2017-10-15T13:40:18.000Z</time>
      </trkpt>
      <trkpt lat="42.39651" lon="2.1053">
        <ele>2739</ele>
        <time>2017-10-15T13:40:19.000Z</time>
      </trkpt>
      <trkpt lat="42.39652" lon="2.1053">
        <ele>2739</ele>
        <time>2017-10-15T13:40:20.000Z</time>
      </trkpt>
      <trkpt lat="42.39652" lon="2.10529">
        <ele>2739</ele>
        <time>2017-10-15T13:40:21.000Z</time>
      </trkpt>
      <trkpt lat="42.39652" lon="2.10528">
        <ele>2739</ele>
        <time>2017-10-15T13:40:22.000Z</time>
      </trkpt>
      <trkpt lat="42.39652" lon="2.10528">
        <ele>2739</ele>
        <time>2017-10-15T13:40:23.000Z</time>
      </trkpt>
      <trkpt lat="42.39653" lon="2.10528">
        <ele>2739</ele>
        <time>2017-10-15T13:40:24.000Z</time>
      </trkpt>
      <trkpt lat="42.39653" lon="2.10527">
        <ele>2739</ele>
        <time>2017-10-15T13:40:25.000Z</time>
      </trkpt>
      <trkpt lat="42.39652" lon="2.10526">
        <ele>2739</ele>
        <time>2017-10-15T13:40:26.000Z</time>
      </trkpt>
      <trkpt lat="42.39652" lon="2.10526">
        <ele>2739</ele>
        <time>2017-10-15T13:40:27.000Z</time>
      </trkpt>
      <trkpt lat="42.39652" lon="2.10525">
        <ele>2738</ele>
        <time>2017-10-15T13:40:28.000Z</time>
      </trkpt>
      <trkpt lat="42.39652" lon="2.10524">
        <ele>2738</ele>
        <time>2017-10-15T13:40:29.000Z</time>
      </trkpt>
      <trkpt lat="42.39652" lon="2.10523">
        <ele>2738</ele>
        <time>2017-10-15T13:40:30.000Z</time>
      </trkpt>
      <trkpt lat="42.39652" lon="2.10522">
        <ele>2738</ele>
        <time>2017-10-15T13:40:31.000Z</time>
      </trkpt>
      <trkpt lat="42.39652" lon="2.10521">
        <ele>2738</ele>
        <time>2017-10-15T13:40:32.000Z</time>
      </trkpt>
      <trkpt lat="42.39652" lon="2.1052">
        <ele>2738</ele>
        <time>2017-10-15T13:40:33.000Z</time>
      </trkpt>
      <trkpt lat="42.39652" lon="2.10519">
        <ele>2737</ele>
        <time>2017-10-15T13:40:34.000Z</time>
      </trkpt>
      <trkpt lat="42.39652" lon="2.10518">
        <ele>2737</ele>
        <time>2017-10-15T13:40:35.000Z</time>
      </trkpt>
      <trkpt lat="42.39652" lon="2.10517">
        <ele>2737</ele>
        <time>2017-10-15T13:40:36.000Z</time>
      </trkpt>
      <trkpt lat="42.39651" lon="2.10516">
        <ele>2737</ele>
        <time>2017-10-15T13:40:37.000Z</time>
      </trkpt>
      <trkpt lat="42.39652" lon="2.10515">
        <ele>2737</ele>
        <time>2017-10-15T13:40:38.000Z</time>
      </trkpt>
      <trkpt lat="42.39652" lon="2.10514">
        <ele>2737</ele>
        <time>2017-10-15T13:40:39.000Z</time>
      </trkpt>
      <trkpt lat="42.39652" lon="2.10513">
        <ele>2737</ele>
        <time>2017-10-15T13:40:40.000Z</time>
      </trkpt>
      <trkpt lat="42.39652" lon="2.10512">
        <ele>2737</ele>
        <time>2017-10-15T13:40:41.000Z</time>
      </trkpt>
      <trkpt lat="42.39652" lon="2.10511">
        <ele>2736</ele>
        <time>2017-10-15T13:40:42.000Z</time>
      </trkpt>
      <trkpt lat="42.39652" lon="2.1051">
        <ele>2736</ele>
        <time>2017-10-15T13:40:43.000Z</time>
      </trkpt>
      <trkpt lat="42.39651" lon="2.10509">
        <ele>2736</ele>
        <time>2017-10-15T13:40:44.000Z</time>
      </trkpt>
      <trkpt lat="42.39651" lon="2.10508">
        <ele>2736</ele>
        <time>2017-10-15T13:40:45.000Z</time>
      </trkpt>
      <trkpt lat="42.39651" lon="2.10507">
        <ele>2735</ele>
        <time>2017-10-15T13:40:46.000Z</time>
      </trkpt>
      <trkpt lat="42.39651" lon="2.10506">
        <ele>2735</ele>
        <time>2017-10-15T13:40:47.000Z</time>
      </trkpt>
      <trkpt lat="42.39651" lon="2.10506">
        <ele>2735</ele>
        <time>2017-10-15T13:40:48.000Z</time>
      </trkpt>
      <trkpt lat="42.39651" lon="2.10505">
        <ele>2735</ele>
        <time>2017-10-15T13:40:49.000Z</time>
      </trkpt>
      <trkpt lat="42.39651" lon="2.10504">
        <ele>2735</ele>
        <time>2017-10-15T13:40:50.000Z</time>
      </trkpt>
      <trkpt lat="42.3965" lon="2.10503">
        <ele>2735</ele>
        <time>2017-10-15T13:40:51.000Z</time>
      </trkpt>
      <trkpt lat="42.3965" lon="2.10503">
        <ele>2734</ele>
        <time>2017-10-15T13:40:52.000Z</time>
      </trkpt>
      <trkpt lat="42.3965" lon="2.10502">
        <ele>2734</ele>
        <time>2017-10-15T13:40:53.000Z</time>
      </trkpt>
      <trkpt lat="42.3965" lon="2.10501">
        <ele>2734</ele>
        <time>2017-10-15T13:40:54.000Z</time>
      </trkpt>
      <trkpt lat="42.39649" lon="2.105">
        <ele>2734</ele>
        <time>2017-10-15T13:40:55.000Z</time>
      </trkpt>
      <trkpt lat="42.39649" lon="2.10499">
        <ele>2734</ele>
        <time>2017-10-15T13:40:56.000Z</time>
      </trkpt>
      <trkpt lat="42.39649" lon="2.10499">
        <ele>2733</ele>
        <time>2017-10-15T13:40:57.000Z</time>
      </trkpt>
      <trkpt lat="42.39649" lon="2.10498">
        <ele>2733</ele>
        <time>2017-10-15T13:40:58.000Z</time>
      </trkpt>
      <trkpt lat="42.39649" lon="2.10497">
        <ele>2733</ele>
        <time>2017-10-15T13:40:59.000Z</time>
      </trkpt>
      <trkpt lat="42.39648" lon="2.10496">
        <ele>2733</ele>
        <time>2017-10-15T13:41:00.000Z</time>
      </trkpt>
      <trkpt lat="42.39648" lon="2.10495">
        <ele>2733</ele>
        <time>2017-10-15T13:41:01.000Z</time>
      </trkpt>
      <trkpt lat="42.39648" lon="2.10495">
        <ele>2733</ele>
        <time>2017-10-15T13:41:02.000Z</time>
      </trkpt>
      <trkpt lat="42.39648" lon="2.10494">
        <ele>2732</ele>
        <time>2017-10-15T13:41:03.000Z</time>
      </trkpt>
      <trkpt lat="42.39648" lon="2.10493">
        <ele>2732</ele>
        <time>2017-10-15T13:41:04.000Z</time>
      </trkpt>
      <trkpt lat="42.39648" lon="2.10493">
        <ele>2732</ele>
        <time>2017-10-15T13:41:05.000Z</time>
      </trkpt>
      <trkpt lat="42.39648" lon="2.10492">
        <ele>2732</ele>
        <time>2017-10-15T13:41:06.000Z</time>
      </trkpt>
      <trkpt lat="42.39647" lon="2.10492">
        <ele>2732</ele>
        <time>2017-10-15T13:41:07.000Z</time>
      </trkpt>
      <trkpt lat="42.39647" lon="2.10491">
        <ele>2732</ele>
        <time>2017-10-15T13:41:08.000Z</time>
      </trkpt>
      <trkpt lat="42.39647" lon="2.10491">
        <ele>2731</ele>
        <time>2017-10-15T13:41:09.000Z</time>
      </trkpt>
      <trkpt lat="42.39646" lon="2.10491">
        <ele>2731</ele>
        <time>2017-10-15T13:41:10.000Z</time>
      </trkpt>
      <trkpt lat="42.39646" lon="2.1049">
        <ele>2731</ele>
        <time>2017-10-15T13:41:11.000Z</time>
      </trkpt>
      <trkpt lat="42.39646" lon="2.1049">
        <ele>2731</ele>
        <time>2017-10-15T13:41:12.000Z</time>
      </trkpt>
      <trkpt lat="42.39646" lon="2.10489">
        <ele>2731</ele>
        <time>2017-10-15T13:41:13.000Z</time>
      </trkpt>
      <trkpt lat="42.39646" lon="2.10488">
        <ele>2731</ele>
        <time>2017-10-15T13:41:14.000Z</time>
      </trkpt>
      <trkpt lat="42.39646" lon="2.10488">
        <ele>2731</ele>
        <time>2017-10-15T13:41:15.000Z</time>
      </trkpt>
      <trkpt lat="42.39646" lon="2.10487">
        <ele>2731</ele>
        <time>2017-10-15T13:41:16.000Z</time>
      </trkpt>
      <trkpt lat="42.39617" lon="2.10385">
        <ele>2699</ele>
        <time>2017-10-15T13:46:16.000Z</time>
      </trkpt>
      <trkpt lat="42.39617" lon="2.10384">
        <ele>2699</ele>
        <time>2017-10-15T13:46:18.000Z</time>
      </trkpt>
      <trkpt lat="42.39617" lon="2.10383">
        <ele>2698</ele>
        <time>2017-10-15T13:46:19.000Z</time>
      </trkpt>
      <trkpt lat="42.39617" lon="2.10383">
        <ele>2698</ele>
        <time>2017-10-15T13:46:20.000Z</time>
      </trkpt>
      <trkpt lat="42.39617" lon="2.10382">
        <ele>2698</ele>
        <time>2017-10-15T13:46:21.000Z</time>
      </trkpt>
      <trkpt lat="42.39616" lon="2.10381">
        <ele>2698</ele>
        <time>2017-10-15T13:46:22.000Z</time>
      </trkpt>
      <trkpt lat="42.39615" lon="2.10381">
        <ele>2698</ele>
        <time>2017-10-15T13:46:24.000Z</time>
      </trkpt>
      <trkpt lat="42.39614" lon="2.10379">
        <ele>2697</ele>
        <time>2017-10-15T13:46:25.000Z</time>
      </trkpt>
      <trkpt lat="42.39614" lon="2.10378">
        <ele>2697</ele>
        <time>2017-10-15T13:46:27.000Z</time>
      </trkpt>
      <trkpt lat="42.39614" lon="2.10378">
        <ele>2697</ele>
        <time>2017-10-15T13:46:28.000Z</time>
      </trkpt>
      <trkpt lat="42.39614" lon="2.10377">
        <ele>2697</ele>
        <time>2017-10-15T13:46:29.000Z</time>
      </trkpt>
      <trkpt lat="42.39613" lon="2.10376">
        <ele>2696</ele>
        <time>2017-10-15T13:46:31.000Z</time>
      </trkpt>
      <trkpt lat="42.39612" lon="2.10375">
        <ele>2696</ele>
        <time>2017-10-15T13:46:33.000Z</time>
      </trkpt>
      <trkpt lat="42.39611" lon="2.10374">
        <ele>2695</ele>
        <time>2017-10-15T13:46:35.000Z</time>
      </trkpt>
      <trkpt lat="42.39611" lon="2.10374">
        <ele>2695</ele>
        <time>2017-10-15T13:46:36.000Z</time>
      </trkpt>
      <trkpt lat="42.3961" lon="2.10373">
        <ele>2695</ele>
        <time>2017-10-15T13:46:37.000Z</time>
      </trkpt>
      <trkpt lat="42.3961" lon="2.10372">
        <ele>2695</ele>
        <time>2017-10-15T13:46:39.000Z</time>
      </trkpt>
      <trkpt lat="42.39609" lon="2.10372">
        <ele>2695</ele>
        <time>2017-10-15T13:46:40.000Z</time>
      </trkpt>
      <trkpt lat="42.39609" lon="2.10372">
        <ele>2695</ele>
        <time>2017-10-15T13:46:41.000Z</time>
      </trkpt>
      <trkpt lat="42.39609" lon="2.10371">
        <ele>2694</ele>
        <time>2017-10-15T13:46:42.000Z</time>
      </trkpt>
      <trkpt lat="42.39605" lon="2.10367">
        <ele>2693</ele>
        <time>2017-10-15T13:47:18.000Z</time>
      </trkpt>
      <trkpt lat="42.39605" lon="2.10365">
        <ele>2692</ele>
        <time>2017-10-15T13:47:19.000Z</time>
      </trkpt>
      <trkpt lat="42.39605" lon="2.10364">
        <ele>2692</ele>
        <time>2017-10-15T13:47:20.000Z</time>
      </trkpt>
      <trkpt lat="42.39605" lon="2.10363">
        <ele>2692</ele>
        <time>2017-10-15T13:47:22.000Z</time>
      </trkpt>
      <trkpt lat="42.39605" lon="2.10362">
        <ele>2692</ele>
        <time>2017-10-15T13:47:24.000Z</time>
      </trkpt>
      <trkpt lat="42.39605" lon="2.10361">
        <ele>2692</ele>
        <time>2017-10-15T13:47:25.000Z</time>
      </trkpt>
      <trkpt lat="42.39604" lon="2.10361">
        <ele>2691</ele>
        <time>2017-10-15T13:47:26.000Z</time>
      </trkpt>
      <trkpt lat="42.39604" lon="2.1036">
        <ele>2691</ele>
        <time>2017-10-15T13:47:27.000Z</time>
      </trkpt>
      <trkpt lat="42.39604" lon="2.1036">
        <ele>2691</ele>
        <time>2017-10-15T13:47:28.000Z</time>
      </trkpt>
      <trkpt lat="42.39603" lon="2.1036">
        <ele>2691</ele>
        <time>2017-10-15T13:47:29.000Z</time>
      </trkpt>
      <trkpt lat="42.39602" lon="2.1036">
        <ele>2691</ele>
        <time>2017-10-15T13:47:30.000Z</time>
      </trkpt>
      <trkpt lat="42.39602" lon="2.1036">
        <ele>2691</ele>
        <time>2017-10-15T13:47:31.000Z</time>
      </trkpt>
      <trkpt lat="42.39601" lon="2.10359">
        <ele>2690</ele>
        <time>2017-10-15T13:47:32.000Z</time>
      </trkpt>
      <trkpt lat="42.396" lon="2.10358">
        <ele>2690</ele>
        <time>2017-10-15T13:47:33.000Z</time>
      </trkpt>
      <trkpt lat="42.396" lon="2.10357">
        <ele>2690</ele>
        <time>2017-10-15T13:47:34.000Z</time>
      </trkpt>
      <trkpt lat="42.396" lon="2.10356">
        <ele>2689</ele>
        <time>2017-10-15T13:47:35.000Z</time>
      </trkpt>
      <trkpt lat="42.396" lon="2.10355">
        <ele>2689</ele>
        <time>2017-10-15T13:47:36.000Z</time>
      </trkpt>
      <trkpt lat="42.396" lon="2.10354">
        <ele>2689</ele>
        <time>2017-10-15T13:47:37.000Z</time>
      </trkpt>
      <trkpt lat="42.39599" lon="2.10353">
        <ele>2689</ele>
        <time>2017-10-15T13:47:39.000Z</time>
      </trkpt>
      <trkpt lat="42.39599" lon="2.10352">
        <ele>2689</ele>
        <time>2017-10-15T13:47:40.000Z</time>
      </trkpt>
      <trkpt lat="42.39598" lon="2.10352">
        <ele>2688</ele>
        <time>2017-10-15T13:47:41.000Z</time>
      </trkpt>
      <trkpt lat="42.39597" lon="2.10352">
        <ele>2688</ele>
        <time>2017-10-15T13:47:42.000Z</time>
      </trkpt>
      <trkpt lat="42.39596" lon="2.10351">
        <ele>2688</ele>
        <time>2017-10-15T13:47:43.000Z</time>
      </trkpt>
      <trkpt lat="42.39595" lon="2.1035">
        <ele>2687</ele>
        <time>2017-10-15T13:47:44.000Z</time>
      </trkpt>
      <trkpt lat="42.39595" lon="2.10349">
        <ele>2687</ele>
        <time>2017-10-15T13:47:45.000Z</time>
      </trkpt>
      <trkpt lat="42.39595" lon="2.10348">
        <ele>2687</ele>
        <time>2017-10-15T13:47:46.000Z</time>
      </trkpt>
      <trkpt lat="42.39594" lon="2.10346">
        <ele>2686</ele>
        <time>2017-10-15T13:47:47.000Z</time>
      </trkpt>
      <trkpt lat="42.39594" lon="2.10345">
        <ele>2686</ele>
        <time>2017-10-15T13:47:49.000Z</time>
      </trkpt>
      <trkpt lat="42.39594" lon="2.10344">
        <ele>2686</ele>
        <time>2017-10-15T13:47:50.000Z</time>
      </trkpt>
      <trkpt lat="42.39594" lon="2.10343">
        <ele>2686</ele>
        <time>2017-10-15T13:47:51.000Z</time>
      </trkpt>
      <trkpt lat="42.39594" lon="2.10342">
        <ele>2685</ele>
        <time>2017-10-15T13:47:52.000Z</time>
      </trkpt>
      <trkpt lat="42.39593" lon="2.10341">
        <ele>2685</ele>
        <time>2017-10-15T13:47:53.000Z</time>
      </trkpt>
      <trkpt lat="42.39593" lon="2.10339">
        <ele>2685</ele>
        <time>2017-10-15T13:47:54.000Z</time>
      </trkpt>
      <trkpt lat="42.39593" lon="2.10338">
        <ele>2685</ele>
        <time>2017-10-15T13:47:56.000Z</time>
      </trkpt>
      <trkpt lat="42.39592" lon="2.10337">
        <ele>2684</ele>
        <time>2017-10-15T13:47:57.000Z</time>
      </trkpt>
      <trkpt lat="42.39592" lon="2.10336">
        <ele>2684</ele>
        <time>2017-10-15T13:47:58.000Z</time>
      </trkpt>
      <trkpt lat="42.39591" lon="2.10336">
        <ele>2684</ele>
        <time>2017-10-15T13:47:59.000Z</time>
      </trkpt>
      <trkpt lat="42.3959" lon="2.10335">
        <ele>2684</ele>
        <time>2017-10-15T13:48:00.000Z</time>
      </trkpt>
      <trkpt lat="42.3959" lon="2.10334">
        <ele>2683</ele>
        <time>2017-10-15T13:48:01.000Z</time>
      </trkpt>
      <trkpt lat="42.39589" lon="2.10334">
        <ele>2683</ele>
        <time>2017-10-15T13:48:02.000Z</time>
      </trkpt>
      <trkpt lat="42.39589" lon="2.10333">
        <ele>2683</ele>
        <time>2017-10-15T13:48:03.000Z</time>
      </trkpt>
      <trkpt lat="42.39589" lon="2.10332">
        <ele>2682</ele>
        <time>2017-10-15T13:48:05.000Z</time>
      </trkpt>
      <trkpt lat="42.39589" lon="2.10332">
        <ele>2682</ele>
        <time>2017-10-15T13:48:06.000Z</time>
      </trkpt>
      <trkpt lat="42.39589" lon="2.10331">
        <ele>2682</ele>
        <time>2017-10-15T13:48:07.000Z</time>
      </trkpt>
      <trkpt lat="42.39589" lon="2.10331">
        <ele>2682</ele>
        <time>2017-10-15T13:48:08.000Z</time>
      </trkpt>
      <trkpt lat="42.39529" lon="2.10263">
        <ele>2655</ele>
        <time>2017-10-15T13:51:14.000Z</time>
      </trkpt>
      <trkpt lat="42.39528" lon="2.10262">
        <ele>2654</ele>
        <time>2017-10-15T13:51:15.000Z</time>
      </trkpt>
      <trkpt lat="42.39528" lon="2.10261">
        <ele>2654</ele>
        <time>2017-10-15T13:51:17.000Z</time>
      </trkpt>
      <trkpt lat="42.39526" lon="2.10259">
        <ele>2653</ele>
        <time>2017-10-15T13:51:18.000Z</time>
      </trkpt>
      <trkpt lat="42.39526" lon="2.10258">
        <ele>2653</ele>
        <time>2017-10-15T13:51:19.000Z</time>
      </trkpt>
      <trkpt lat="42.39525" lon="2.10258">
        <ele>2653</ele>
        <time>2017-10-15T13:51:20.000Z</time>
      </trkpt>
      <trkpt lat="42.39525" lon="2.10257">
        <ele>2652</ele>
        <time>2017-10-15T13:51:21.000Z</time>
      </trkpt>
      <trkpt lat="42.39524" lon="2.10256">
        <ele>2652</ele>
        <time>2017-10-15T13:51:22.000Z</time>
      </trkpt>
      <trkpt lat="42.39523" lon="2.10255">
        <ele>2651</ele>
        <time>2017-10-15T13:51:24.000Z</time>
      </trkpt>
      <trkpt lat="42.39522" lon="2.10255">
        <ele>2651</ele>
        <time>2017-10-15T13:51:25.000Z</time>
      </trkpt>
      <trkpt lat="42.39521" lon="2.10254">
        <ele>2651</ele>
        <time>2017-10-15T13:51:26.000Z</time>
      </trkpt>
      <trkpt lat="42.39521" lon="2.10254">
        <ele>2651</ele>
        <time>2017-10-15T13:51:27.000Z</time>
      </trkpt>
      <trkpt lat="42.3952" lon="2.10253">
        <ele>2651</ele>
        <time>2017-10-15T13:51:29.000Z</time>
      </trkpt>
      <trkpt lat="42.39519" lon="2.10253">
        <ele>2650</ele>
        <time>2017-10-15T13:51:30.000Z</time>
      </trkpt>
      <trkpt lat="42.39519" lon="2.10253">
        <ele>2650</ele>
        <time>2017-10-15T13:51:31.000Z</time>
      </trkpt>
      <trkpt lat="42.39518" lon="2.10252">
        <ele>2650</ele>
        <time>2017-10-15T13:51:32.000Z</time>
      </trkpt>
      <trkpt lat="42.39517" lon="2.10251">
        <ele>2650</ele>
        <time>2017-10-15T13:51:33.000Z</time>
      </trkpt>
      <trkpt lat="42.39516" lon="2.1025">
        <ele>2649</ele>
        <time>2017-10-15T13:51:35.000Z</time>
      </trkpt>
      <trkpt lat="42.39516" lon="2.1025">
        <ele>2649</ele>
        <time>2017-10-15T13:51:36.000Z</time>
      </trkpt>
      <trkpt lat="42.39515" lon="2.1025">
        <ele>2649</ele>
        <time>2017-10-15T13:51:38.000Z</time>
      </trkpt>
      <trkpt lat="42.39515" lon="2.1025">
        <ele>2649</ele>
        <time>2017-10-15T13:51:39.000Z</time>
      </trkpt>
      <trkpt lat="42.39514" lon="2.1025">
        <ele>2649</ele>
        <time>2017-10-15T13:51:40.000Z</time>
      </trkpt>
      <trkpt lat="42.39513" lon="2.10249">
        <ele>2649</ele>
        <time>2017-10-15T13:51:41.000Z</time>
      </trkpt>
      <trkpt lat="42.39513" lon="2.10249">
        <ele>2648</ele>
        <time>2017-10-15T13:51:42.000Z</time>
      </trkpt>
      <trkpt lat="42.39512" lon="2.10249">
        <ele>2648</ele>
        <time>2017-10-15T13:51:43.000Z</time>
      </trkpt>
      <trkpt lat="42.39512" lon="2.10248">
        <ele>2648</ele>
        <time>2017-10-15T13:51:44.000Z</time>
      </trkpt>
      <trkpt lat="42.39511" lon="2.10248">
        <ele>2648</ele>
        <time>2017-10-15T13:51:45.000Z</time>
      </trkpt>
      <trkpt lat="42.39511" lon="2.10248">
        <ele>2648</ele>
        <time>2017-10-15T13:51:46.000Z</time>
      </trkpt>
      <trkpt lat="42.3951" lon="2.10247">
        <ele>2648</ele>
        <time>2017-10-15T13:51:47.000Z</time>
      </trkpt>
      <trkpt lat="42.3951" lon="2.10247">
        <ele>2647</ele>
        <time>2017-10-15T13:51:48.000Z</time>
      </trkpt>
      <trkpt lat="42.39509" lon="2.10246">
        <ele>2647</ele>
        <time>2017-10-15T13:51:49.000Z</time>
      </trkpt>
      <trkpt lat="42.39509" lon="2.10246">
        <ele>2647</ele>
        <time>2017-10-15T13:51:50.000Z</time>
      </trkpt>
      <trkpt lat="42.39509" lon="2.10245">
        <ele>2647</ele>
        <time>2017-10-15T13:51:51.000Z</time>
      </trkpt>
      <trkpt lat="42.39508" lon="2.10245">
        <ele>2647</ele>
        <time>2017-10-15T13:51:52.000Z</time>
      </trkpt>
      <trkpt lat="42.39508" lon="2.10244">
        <ele>2646</ele>
        <time>2017-10-15T13:51:53.000Z</time>
      </trkpt>
      <trkpt lat="42.39507" lon="2.10244">
        <ele>2646</ele>
        <time>2017-10-15T13:51:54.000Z</time>
      </trkpt>
      <trkpt lat="42.39507" lon="2.10244">
        <ele>2646</ele>
        <time>2017-10-15T13:51:55.000Z</time>
      </trkpt>
      <trkpt lat="42.39506" lon="2.10244">
        <ele>2646</ele>
        <time>2017-10-15T13:51:56.000Z</time>
      </trkpt>
      <trkpt lat="42.39505" lon="2.10244">
        <ele>2646</ele>
        <time>2017-10-15T13:51:57.000Z</time>
      </trkpt>
      <trkpt lat="42.39505" lon="2.10244">
        <ele>2646</ele>
        <time>2017-10-15T13:51:58.000Z</time>
      </trkpt>
      <trkpt lat="42.39504" lon="2.10243">
        <ele>2646</ele>
        <time>2017-10-15T13:51:59.000Z</time>
      </trkpt>
      <trkpt lat="42.39503" lon="2.10243">
        <ele>2646</ele>
        <time>2017-10-15T13:52:00.000Z</time>
      </trkpt>
      <trkpt lat="42.39503" lon="2.10243">
        <ele>2645</ele>
        <time>2017-10-15T13:52:01.000Z</time>
      </trkpt>
      <trkpt lat="42.39502" lon="2.10242">
        <ele>2645</ele>
        <time>2017-10-15T13:52:02.000Z</time>
      </trkpt>
      <trkpt lat="42.39501" lon="2.10241">
        <ele>2645</ele>
        <time>2017-10-15T13:52:03.000Z</time>
      </trkpt>
      <trkpt lat="42.39501" lon="2.10241">
        <ele>2645</ele>
        <time>2017-10-15T13:52:04.000Z</time>
      </trkpt>
      <trkpt lat="42.39501" lon="2.1024">
        <ele>2645</ele>
        <time>2017-10-15T13:52:05.000Z</time>
      </trkpt>
      <trkpt lat="42.395" lon="2.1024">
        <ele>2645</ele>
        <time>2017-10-15T13:52:06.000Z</time>
      </trkpt>
      <trkpt lat="42.39499" lon="2.1024">
        <ele>2644</ele>
        <time>2017-10-15T13:52:07.000Z</time>
      </trkpt>
      <trkpt lat="42.39499" lon="2.1024">
        <ele>2644</ele>
        <time>2017-10-15T13:52:08.000Z</time>
      </trkpt>
      <trkpt lat="42.39498" lon="2.10239">
        <ele>2644</ele>
        <time>2017-10-15T13:52:09.000Z</time>
      </trkpt>
      <trkpt lat="42.39498" lon="2.10239">
        <ele>2644</ele>
        <time>2017-10-15T13:52:10.000Z</time>
      </trkpt>
      <trkpt lat="42.39497" lon="2.10238">
        <ele>2644</ele>
        <time>2017-10-15T13:52:11.000Z</time>
      </trkpt>
      <trkpt lat="42.39497" lon="2.10237">
        <ele>2643</ele>
        <time>2017-10-15T13:52:12.000Z</time>
      </trkpt>
      <trkpt lat="42.39497" lon="2.10236">
        <ele>2643</ele>
        <time>2017-10-15T13:52:13.000Z</time>
      </trkpt>
      <trkpt lat="42.39497" lon="2.10235">
        <ele>2643</ele>
        <time>2017-10-15T13:52:15.000Z</time>
      </trkpt>
      <trkpt lat="42.39497" lon="2.10234">
        <ele>2643</ele>
        <time>2017-10-15T13:52:16.000Z</time>
      </trkpt>
      <trkpt lat="42.39496" lon="2.10234">
        <ele>2643</ele>
        <time>2017-10-15T13:52:17.000Z</time>
      </trkpt>
      <trkpt lat="42.39496" lon="2.10233">
        <ele>2643</ele>
        <time>2017-10-15T13:52:18.000Z</time>
      </trkpt>
      <trkpt lat="42.39453" lon="2.10193">
        <ele>2628</ele>
        <time>2017-10-15T13:54:01.000Z</time>
      </trkpt>
      <trkpt lat="42.39452" lon="2.10193">
        <ele>2628</ele>
        <time>2017-10-15T13:54:02.000Z</time>
      </trkpt>
      <trkpt lat="42.39452" lon="2.10193">
        <ele>2628</ele>
        <time>2017-10-15T13:54:03.000Z</time>
      </trkpt>
      <trkpt lat="42.39451" lon="2.10192">
        <ele>2628</ele>
        <time>2017-10-15T13:54:04.000Z</time>
      </trkpt>
      <trkpt lat="42.39449" lon="2.10192">
        <ele>2627</ele>
        <time>2017-10-15T13:54:05.000Z</time>
      </trkpt>
      <trkpt lat="42.39448" lon="2.10192">
        <ele>2627</ele>
        <time>2017-10-15T13:54:06.000Z</time>
      </trkpt>
      <trkpt lat="42.39448" lon="2.10191">
        <ele>2627</ele>
        <time>2017-10-15T13:54:07.000Z</time>
      </trkpt>
      <trkpt lat="42.39447" lon="2.10191">
        <ele>2627</ele>
        <time>2017-10-15T13:54:08.000Z</time>
      </trkpt>
      <trkpt lat="42.39446" lon="2.10191">
        <ele>2627</ele>
        <time>2017-10-15T13:54:09.000Z</time>
      </trkpt>
      <trkpt lat="42.39445" lon="2.1019">
        <ele>2627</ele>
        <time>2017-10-15T13:54:10.000Z</time>
      </trkpt>
      <trkpt lat="42.39445" lon="2.1019">
        <ele>2626</ele>
        <time>2017-10-15T13:54:11.000Z</time>
      </trkpt>
      <trkpt lat="42.39444" lon="2.10189">
        <ele>2626</ele>
        <time>2017-10-15T13:54:12.000Z</time>
      </trkpt>
      <trkpt lat="42.39444" lon="2.10189">
        <ele>2626</ele>
        <time>2017-10-15T13:54:13.000Z</time>
      </trkpt>
      <trkpt lat="42.39443" lon="2.10189">
        <ele>2626</ele>
        <time>2017-10-15T13:54:14.000Z</time>
      </trkpt>
      <trkpt lat="42.39442" lon="2.10189">
        <ele>2625</ele>
        <time>2017-10-15T13:54:15.000Z</time>
      </trkpt>
      <trkpt lat="42.39441" lon="2.10189">
        <ele>2625</ele>
        <time>2017-10-15T13:54:16.000Z</time>
      </trkpt>
      <trkpt lat="42.3944" lon="2.10189">
        <ele>2625</ele>
        <time>2017-10-15T13:54:17.000Z</time>
      </trkpt>
      <trkpt lat="42.39439" lon="2.10189">
        <ele>2624</ele>
        <time>2017-10-15T13:54:18.000Z</time>
      </trkpt>
      <trkpt lat="42.39438" lon="2.10189">
        <ele>2624</ele>
        <time>2017-10-15T13:54:19.000Z</time>
      </trkpt>
      <trkpt lat="42.39437" lon="2.10189">
        <ele>2623</ele>
        <time>2017-10-15T13:54:20.000Z</time>
      </trkpt>
      <trkpt lat="42.39437" lon="2.10188">
        <ele>2623</ele>
        <time>2017-10-15T13:54:21.000Z</time>
      </trkpt>
      <trkpt lat="42.39436" lon="2.10187">
        <ele>2623</ele>
        <time>2017-10-15T13:54:22.000Z</time>
      </trkpt>
      <trkpt lat="42.39435" lon="2.10187">
        <ele>2622</ele>
        <time>2017-10-15T13:54:23.000Z</time>
      </trkpt>
      <trkpt lat="42.39434" lon="2.10187">
        <ele>2622</ele>
        <time>2017-10-15T13:54:24.000Z</time>
      </trkpt>
      <trkpt lat="42.39433" lon="2.10186">
        <ele>2622</ele>
        <time>2017-10-15T13:54:25.000Z</time>
      </trkpt>
      <trkpt lat="42.39432" lon="2.10186">
        <ele>2622</ele>
        <time>2017-10-15T13:54:26.000Z</time>
      </trkpt>
      <trkpt lat="42.39431" lon="2.10186">
        <ele>2621</ele>
        <time>2017-10-15T13:54:27.000Z</time>
      </trkpt>
      <trkpt lat="42.3943" lon="2.10186">
        <ele>2621</ele>
        <time>2017-10-15T13:54:28.000Z</time>
      </trkpt>
      <trkpt lat="42.39429" lon="2.10186">
        <ele>2620</ele>
        <time>2017-10-15T13:54:29.000Z</time>
      </trkpt>
      <trkpt lat="42.39428" lon="2.10186">
        <ele>2620</ele>
        <time>2017-10-15T13:54:30.000Z</time>
      </trkpt>
      <trkpt lat="42.39428" lon="2.10186">
        <ele>2620</ele>
        <time>2017-10-15T13:54:31.000Z</time>
      </trkpt>
      <trkpt lat="42.39426" lon="2.10187">
        <ele>2619</ele>
        <time>2017-10-15T13:54:32.000Z</time>
      </trkpt>
      <trkpt lat="42.39425" lon="2.10187">
        <ele>2619</ele>
        <time>2017-10-15T13:54:33.000Z</time>
      </trkpt>
      <trkpt lat="42.39424" lon="2.10187">
        <ele>2618</ele>
        <time>2017-10-15T13:54:34.000Z</time>
      </trkpt>
      <trkpt lat="42.39423" lon="2.10186">
        <ele>2618</ele>
        <time>2017-10-15T13:54:35.000Z</time>
      </trkpt>
      <trkpt lat="42.39422" lon="2.10186">
        <ele>2617</ele>
        <time>2017-10-15T13:54:36.000Z</time>
      </trkpt>
      <trkpt lat="42.39421" lon="2.10186">
        <ele>2617</ele>
        <time>2017-10-15T13:54:37.000Z</time>
      </trkpt>
      <trkpt lat="42.3942" lon="2.10185">
        <ele>2617</ele>
        <time>2017-10-15T13:54:38.000Z</time>
      </trkpt>
      <trkpt lat="42.39419" lon="2.10185">
        <ele>2616</ele>
        <time>2017-10-15T13:54:39.000Z</time>
      </trkpt>
      <trkpt lat="42.39418" lon="2.10185">
        <ele>2616</ele>
        <time>2017-10-15T13:54:40.000Z</time>
      </trkpt>
      <trkpt lat="42.39417" lon="2.10184">
        <ele>2615</ele>
        <time>2017-10-15T13:54:41.000Z</time>
      </trkpt>
      <trkpt lat="42.39416" lon="2.10184">
        <ele>2615</ele>
        <time>2017-10-15T13:54:42.000Z</time>
      </trkpt>
      <trkpt lat="42.39415" lon="2.10183">
        <ele>2615</ele>
        <time>2017-10-15T13:54:43.000Z</time>
      </trkpt>
      <trkpt lat="42.39414" lon="2.10183">
        <ele>2614</ele>
        <time>2017-10-15T13:54:44.000Z</time>
      </trkpt>
      <trkpt lat="42.39413" lon="2.10182">
        <ele>2614</ele>
        <time>2017-10-15T13:54:45.000Z</time>
      </trkpt>
      <trkpt lat="42.39412" lon="2.10182">
        <ele>2614</ele>
        <time>2017-10-15T13:54:46.000Z</time>
      </trkpt>
      <trkpt lat="42.39411" lon="2.10182">
        <ele>2614</ele>
        <time>2017-10-15T13:54:47.000Z</time>
      </trkpt>
      <trkpt lat="42.3941" lon="2.10182">
        <ele>2614</ele>
        <time>2017-10-15T13:54:48.000Z</time>
      </trkpt>
      <trkpt lat="42.39409" lon="2.10182">
        <ele>2614</ele>
        <time>2017-10-15T13:54:49.000Z</time>
      </trkpt>
      <trkpt lat="42.39408" lon="2.10181">
        <ele>2614</ele>
        <time>2017-10-15T13:54:50.000Z</time>
      </trkpt>
      <trkpt lat="42.39406" lon="2.10181">
        <ele>2613</ele>
        <time>2017-10-15T13:54:51.000Z</time>
      </trkpt>
      <trkpt lat="42.39405" lon="2.10181">
        <ele>2613</ele>
        <time>2017-10-15T13:54:52.000Z</time>
      </trkpt>
      <trkpt lat="42.39404" lon="2.10181">
        <ele>2613</ele>
        <time>2017-10-15T13:54:53.000Z</time>
      </trkpt>
      <trkpt lat="42.39402" lon="2.10181">
        <ele>2613</ele>
        <time>2017-10-15T13:54:54.000Z</time>
      </trkpt>
      <trkpt lat="42.394" lon="2.10181">
        <ele>2613</ele>
        <time>2017-10-15T13:54:55.000Z</time>
      </trkpt>
      <trkpt lat="42.39399" lon="2.1018">
        <ele>2612</ele>
        <time>2017-10-15T13:54:56.000Z</time>
      </trkpt>
      <trkpt lat="42.39398" lon="2.1018">
        <ele>2612</ele>
        <time>2017-10-15T13:54:57.000Z</time>
      </trkpt>
      <trkpt lat="42.39397" lon="2.10179">
        <ele>2612</ele>
        <time>2017-10-15T13:54:58.000Z</time>
      </trkpt>
      <trkpt lat="42.39396" lon="2.10179">
        <ele>2612</ele>
        <time>2017-10-15T13:54:59.000Z</time>
      </trkpt>
      <trkpt lat="42.39395" lon="2.10178">
        <ele>2612</ele>
        <time>2017-10-15T13:55:00.000Z</time>
      </trkpt>
      <trkpt lat="42.39394" lon="2.10178">
        <ele>2612</ele>
        <time>2017-10-15T13:55:01.000Z</time>
      </trkpt>
      <trkpt lat="42.39393" lon="2.10178">
        <ele>2611</ele>
        <time>2017-10-15T13:55:02.000Z</time>
      </trkpt>
      <trkpt lat="42.39392" lon="2.10178">
        <ele>2611</ele>
        <time>2017-10-15T13:55:03.000Z</time>
      </trkpt>
      <trkpt lat="42.39391" lon="2.10178">
        <ele>2611</ele>
        <time>2017-10-15T13:55:04.000Z</time>
      </trkpt>
      <trkpt lat="42.3939" lon="2.10177">
        <ele>2611</ele>
        <time>2017-10-15T13:55:05.000Z</time>
      </trkpt>
      <trkpt lat="42.39389" lon="2.10177">
        <ele>2611</ele>
        <time>2017-10-15T13:55:06.000Z</time>
      </trkpt>
      <trkpt lat="42.39389" lon="2.10177">
        <ele>2611</ele>
        <time>2017-10-15T13:55:07.000Z</time>
      </trkpt>
      <trkpt lat="42.39388" lon="2.10177">
        <ele>2611</ele>
        <time>2017-10-15T13:55:08.000Z</time>
      </trkpt>
      <trkpt lat="42.39387" lon="2.10177">
        <ele>2611</ele>
        <time>2017-10-15T13:55:09.000Z</time>
      </trkpt>
      <trkpt lat="42.39386" lon="2.10176">
        <ele>2610</ele>
        <time>2017-10-15T13:55:10.000Z</time>
      </trkpt>
      <trkpt lat="42.39385" lon="2.10176">
        <ele>2610</ele>
        <time>2017-10-15T13:55:11.000Z</time>
      </trkpt>
      <trkpt lat="42.39384" lon="2.10176">
        <ele>2610</ele>
        <time>2017-10-15T13:55:12.000Z</time>
      </trkpt>
      <trkpt lat="42.39383" lon="2.10176">
        <ele>2610</ele>
        <time>2017-10-15T13:55:13.000Z</time>
      </trkpt>
      <trkpt lat="42.39382" lon="2.10175">
        <ele>2610</ele>
        <time>2017-10-15T13:55:14.000Z</time>
      </trkpt>
      <trkpt lat="42.39381" lon="2.10175">
        <ele>2610</ele>
        <time>2017-10-15T13:55:15.000Z</time>
      </trkpt>
      <trkpt lat="42.3938" lon="2.10175">
        <ele>2610</ele>
        <time>2017-10-15T13:55:16.000Z</time>
      </trkpt>
      <trkpt lat="42.39378" lon="2.10175">
        <ele>2609</ele>
        <time>2017-10-15T13:55:17.000Z</time>
      </trkpt>
      <trkpt lat="42.39377" lon="2.10175">
        <ele>2609</ele>
        <time>2017-10-15T13:55:18.000Z</time>
      </trkpt>
      <trkpt lat="42.39377" lon="2.10174">
        <ele>2609</ele>
        <time>2017-10-15T13:55:19.000Z</time>
      </trkpt>
      <trkpt lat="42.39375" lon="2.10174">
        <ele>2609</ele>
        <time>2017-10-15T13:55:20.000Z</time>
      </trkpt>
      <trkpt lat="42.39374" lon="2.10174">
        <ele>2609</ele>
        <time>2017-10-15T13:55:21.000Z</time>
      </trkpt>
      <trkpt lat="42.39373" lon="2.10174">
        <ele>2609</ele>
        <time>2017-10-15T13:55:22.000Z</time>
      </trkpt>
      <trkpt lat="42.39372" lon="2.10174">
        <ele>2608</ele>
        <time>2017-10-15T13:55:23.000Z</time>
      </trkpt>
      <trkpt lat="42.39371" lon="2.10174">
        <ele>2608</ele>
        <time>2017-10-15T13:55:24.000Z</time>
      </trkpt>
      <trkpt lat="42.3937" lon="2.10174">
        <ele>2608</ele>
        <time>2017-10-15T13:55:25.000Z</time>
      </trkpt>
      <trkpt lat="42.39369" lon="2.10174">
        <ele>2608</ele>
        <time>2017-10-15T13:55:26.000Z</time>
      </trkpt>
      <trkpt lat="42.39368" lon="2.10173">
        <ele>2608</ele>
        <time>2017-10-15T13:55:27.000Z</time>
      </trkpt>
      <trkpt lat="42.39367" lon="2.10173">
        <ele>2608</ele>
        <time>2017-10-15T13:55:28.000Z</time>
      </trkpt>
      <trkpt lat="42.39365" lon="2.10173">
        <ele>2608</ele>
        <time>2017-10-15T13:55:29.000Z</time>
      </trkpt>
      <trkpt lat="42.39364" lon="2.10173">
        <ele>2607</ele>
        <time>2017-10-15T13:55:30.000Z</time>
      </trkpt>
      <trkpt lat="42.39363" lon="2.10172">
        <ele>2607</ele>
        <time>2017-10-15T13:55:31.000Z</time>
      </trkpt>
      <trkpt lat="42.39363" lon="2.10172">
        <ele>2607</ele>
        <time>2017-10-15T13:55:32.000Z</time>
      </trkpt>
      <trkpt lat="42.39361" lon="2.10172">
        <ele>2607</ele>
        <time>2017-10-15T13:55:33.000Z</time>
      </trkpt>
      <trkpt lat="42.3936" lon="2.10172">
        <ele>2607</ele>
        <time>2017-10-15T13:55:34.000Z</time>
      </trkpt>
      <trkpt lat="42.39359" lon="2.10172">
        <ele>2607</ele>
        <time>2017-10-15T13:55:35.000Z</time>
      </trkpt>
      <trkpt lat="42.39359" lon="2.10172">
        <ele>2606</ele>
        <time>2017-10-15T13:55:36.000Z</time>
      </trkpt>
      <trkpt lat="42.39358" lon="2.10172">
        <ele>2606</ele>
        <time>2017-10-15T13:55:37.000Z</time>
      </trkpt>
      <trkpt lat="42.39357" lon="2.10172">
        <ele>2606</ele>
        <time>2017-10-15T13:55:38.000Z</time>
      </trkpt>
      <trkpt lat="42.39356" lon="2.10171">
        <ele>2606</ele>
        <time>2017-10-15T13:55:39.000Z</time>
      </trkpt>
      <trkpt lat="42.39355" lon="2.10171">
        <ele>2606</ele>
        <time>2017-10-15T13:55:40.000Z</time>
      </trkpt>
      <trkpt lat="42.39354" lon="2.10171">
        <ele>2606</ele>
        <time>2017-10-15T13:55:41.000Z</time>
      </trkpt>
      <trkpt lat="42.39353" lon="2.10171">
        <ele>2606</ele>
        <time>2017-10-15T13:55:42.000Z</time>
      </trkpt>
      <trkpt lat="42.39353" lon="2.10171">
        <ele>2606</ele>
        <time>2017-10-15T13:55:43.000Z</time>
      </trkpt>
      <trkpt lat="42.39352" lon="2.10171">
        <ele>2606</ele>
        <time>2017-10-15T13:55:44.000Z</time>
      </trkpt>
      <trkpt lat="42.39351" lon="2.1017">
        <ele>2605</ele>
        <time>2017-10-15T13:55:45.000Z</time>
      </trkpt>
      <trkpt lat="42.39351" lon="2.1017">
        <ele>2605</ele>
        <time>2017-10-15T13:55:46.000Z</time>
      </trkpt>
      <trkpt lat="42.3935" lon="2.1017">
        <ele>2605</ele>
        <time>2017-10-15T13:55:47.000Z</time>
      </trkpt>
      <trkpt lat="42.39295" lon="2.10193">
        <ele>2577</ele>
        <time>2017-10-15T14:12:38.000Z</time>
      </trkpt>
      <trkpt lat="42.39295" lon="2.10194">
        <ele>2577</ele>
        <time>2017-10-15T14:12:39.000Z</time>
      </trkpt>
      <trkpt lat="42.39294" lon="2.10195">
        <ele>2576</ele>
        <time>2017-10-15T14:12:40.000Z</time>
      </trkpt>
      <trkpt lat="42.39293" lon="2.10195">
        <ele>2576</ele>
        <time>2017-10-15T14:12:41.000Z</time>
      </trkpt>
      <trkpt lat="42.39293" lon="2.10196">
        <ele>2575</ele>
        <time>2017-10-15T14:12:42.000Z</time>
      </trkpt>
      <trkpt lat="42.39292" lon="2.10196">
        <ele>2575</ele>
        <time>2017-10-15T14:12:43.000Z</time>
      </trkpt>
      <trkpt lat="42.39291" lon="2.10197">
        <ele>2574</ele>
        <time>2017-10-15T14:12:44.000Z</time>
      </trkpt>
      <trkpt lat="42.39291" lon="2.10198">
        <ele>2574</ele>
        <time>2017-10-15T14:12:45.000Z</time>
      </trkpt>
      <trkpt lat="42.3929" lon="2.10197">
        <ele>2574</ele>
        <time>2017-10-15T14:12:46.000Z</time>
      </trkpt>
      <trkpt lat="42.3929" lon="2.10198">
        <ele>2574</ele>
        <time>2017-10-15T14:12:47.000Z</time>
      </trkpt>
      <trkpt lat="42.3929" lon="2.10198">
        <ele>2573</ele>
        <time>2017-10-15T14:12:48.000Z</time>
      </trkpt>
      <trkpt lat="42.39289" lon="2.10199">
        <ele>2573</ele>
        <time>2017-10-15T14:12:49.000Z</time>
      </trkpt>
      <trkpt lat="42.39288" lon="2.10199">
        <ele>2572</ele>
        <time>2017-10-15T14:12:50.000Z</time>
      </trkpt>
      <trkpt lat="42.39288" lon="2.102">
        <ele>2572</ele>
        <time>2017-10-15T14:12:51.000Z</time>
      </trkpt>
      <trkpt lat="42.39287" lon="2.102">
        <ele>2572</ele>
        <time>2017-10-15T14:12:52.000Z</time>
      </trkpt>
      <trkpt lat="42.39287" lon="2.102">
        <ele>2572</ele>
        <time>2017-10-15T14:12:53.000Z</time>
      </trkpt>
      <trkpt lat="42.39286" lon="2.10201">
        <ele>2571</ele>
        <time>2017-10-15T14:12:54.000Z</time>
      </trkpt>
      <trkpt lat="42.39285" lon="2.10201">
        <ele>2571</ele>
        <time>2017-10-15T14:12:55.000Z</time>
      </trkpt>
      <trkpt lat="42.39285" lon="2.10201">
        <ele>2571</ele>
        <time>2017-10-15T14:12:56.000Z</time>
      </trkpt>
      <trkpt lat="42.39284" lon="2.10201">
        <ele>2571</ele>
        <time>2017-10-15T14:12:57.000Z</time>
      </trkpt>
      <trkpt lat="42.39283" lon="2.10201">
        <ele>2571</ele>
        <time>2017-10-15T14:12:58.000Z</time>
      </trkpt>
      <trkpt lat="42.39283" lon="2.10201">
        <ele>2571</ele>
        <time>2017-10-15T14:12:59.000Z</time>
      </trkpt>
      <trkpt lat="42.39282" lon="2.10201">
        <ele>2571</ele>
        <time>2017-10-15T14:13:00.000Z</time>
      </trkpt>
      <trkpt lat="42.39282" lon="2.10201">
        <ele>2570</ele>
        <time>2017-10-15T14:13:01.000Z</time>
      </trkpt>
      <trkpt lat="42.39281" lon="2.10201">
        <ele>2570</ele>
        <time>2017-10-15T14:13:02.000Z</time>
      </trkpt>
      <trkpt lat="42.39281" lon="2.10201">
        <ele>2570</ele>
        <time>2017-10-15T14:13:03.000Z</time>
      </trkpt>
      <trkpt lat="42.3928" lon="2.10201">
        <ele>2570</ele>
        <time>2017-10-15T14:13:04.000Z</time>
      </trkpt>
      <trkpt lat="42.39279" lon="2.10202">
        <ele>2570</ele>
        <time>2017-10-15T14:13:05.000Z</time>
      </trkpt>
      <trkpt lat="42.39279" lon="2.10202">
        <ele>2570</ele>
        <time>2017-10-15T14:13:06.000Z</time>
      </trkpt>
      <trkpt lat="42.39278" lon="2.10202">
        <ele>2570</ele>
        <time>2017-10-15T14:13:07.000Z</time>
      </trkpt>
      <trkpt lat="42.39278" lon="2.10203">
        <ele>2570</ele>
        <time>2017-10-15T14:13:08.000Z</time>
      </trkpt>
      <trkpt lat="42.39278" lon="2.10204">
        <ele>2569</ele>
        <time>2017-10-15T14:13:09.000Z</time>
      </trkpt>
      <trkpt lat="42.39277" lon="2.10204">
        <ele>2569</ele>
        <time>2017-10-15T14:13:10.000Z</time>
      </trkpt>
      <trkpt lat="42.39277" lon="2.10205">
        <ele>2569</ele>
        <time>2017-10-15T14:13:11.000Z</time>
      </trkpt>
      <trkpt lat="42.39276" lon="2.10205">
        <ele>2569</ele>
        <time>2017-10-15T14:13:12.000Z</time>
      </trkpt>
      <trkpt lat="42.39276" lon="2.10206">
        <ele>2569</ele>
        <time>2017-10-15T14:13:13.000Z</time>
      </trkpt>
      <trkpt lat="42.39275" lon="2.10206">
        <ele>2569</ele>
        <time>2017-10-15T14:13:14.000Z</time>
      </trkpt>
      <trkpt lat="42.39275" lon="2.10206">
        <ele>2569</ele>
        <time>2017-10-15T14:13:15.000Z</time>
      </trkpt>
      <trkpt lat="42.39274" lon="2.10206">
        <ele>2569</ele>
        <time>2017-10-15T14:13:16.000Z</time>
      </trkpt>
      <trkpt lat="42.39274" lon="2.10207">
        <ele>2569</ele>
        <time>2017-10-15T14:13:17.000Z</time>
      </trkpt>
      <trkpt lat="42.39274" lon="2.10207">
        <ele>2568</ele>
        <time>2017-10-15T14:13:18.000Z</time>
      </trkpt>
      <trkpt lat="42.39273" lon="2.10208">
        <ele>2568</ele>
        <time>2017-10-15T14:13:19.000Z</time>
      </trkpt>
      <trkpt lat="42.39272" lon="2.10208">
        <ele>2568</ele>
        <time>2017-10-15T14:13:20.000Z</time>
      </trkpt>
      <trkpt lat="42.39272" lon="2.10208">
        <ele>2568</ele>
        <time>2017-10-15T14:13:22.000Z</time>
      </trkpt>
      <trkpt lat="42.39271" lon="2.10209">
        <ele>2568</ele>
        <time>2017-10-15T14:13:23.000Z</time>
      </trkpt>
      <trkpt lat="42.39271" lon="2.10209">
        <ele>2568</ele>
        <time>2017-10-15T14:13:24.000Z</time>
      </trkpt>
      <trkpt lat="42.39236" lon="2.10268">
        <ele>2550</ele>
        <time>2017-10-15T14:15:54.000Z</time>
      </trkpt>
      <trkpt lat="42.39236" lon="2.10269">
        <ele>2550</ele>
        <time>2017-10-15T14:15:55.000Z</time>
      </trkpt>
      <trkpt lat="42.39236" lon="2.1027">
        <ele>2550</ele>
        <time>2017-10-15T14:15:56.000Z</time>
      </trkpt>
      <trkpt lat="42.39237" lon="2.10273">
        <ele>2550</ele>
        <time>2017-10-15T14:15:58.000Z</time>
      </trkpt>
      <trkpt lat="42.39237" lon="2.10274">
        <ele>2550</ele>
        <time>2017-10-15T14:15:59.000Z</time>
      </trkpt>
      <trkpt lat="42.39237" lon="2.10276">
        <ele>2550</ele>
        <time>2017-10-15T14:16:00.000Z</time>
      </trkpt>
      <trkpt lat="42.39237" lon="2.10277">
        <ele>2549</ele>
        <time>2017-10-15T14:16:01.000Z</time>
      </trkpt>
      <trkpt lat="42.39236" lon="2.10277">
        <ele>2549</ele>
        <time>2017-10-15T14:16:02.000Z</time>
      </trkpt>
      <trkpt lat="42.39236" lon="2.10278">
        <ele>2548</ele>
        <time>2017-10-15T14:16:03.000Z</time>
      </trkpt>
      <trkpt lat="42.39236" lon="2.10279">
        <ele>2548</ele>
        <time>2017-10-15T14:16:04.000Z</time>
      </trkpt>
      <trkpt lat="42.39235" lon="2.1028">
        <ele>2547</ele>
        <time>2017-10-15T14:16:06.000Z</time>
      </trkpt>
      <trkpt lat="42.39235" lon="2.10281">
        <ele>2547</ele>
        <time>2017-10-15T14:16:07.000Z</time>
      </trkpt>
      <trkpt lat="42.39235" lon="2.10281">
        <ele>2547</ele>
        <time>2017-10-15T14:16:08.000Z</time>
      </trkpt>
      <trkpt lat="42.39235" lon="2.10282">
        <ele>2547</ele>
        <time>2017-10-15T14:16:09.000Z</time>
      </trkpt>
      <trkpt lat="42.39234" lon="2.10283">
        <ele>2547</ele>
        <time>2017-10-15T14:16:10.000Z</time>
      </trkpt>
      <trkpt lat="42.39234" lon="2.10283">
        <ele>2546</ele>
        <time>2017-10-15T14:16:11.000Z</time>
      </trkpt>
      <trkpt lat="42.39234" lon="2.10284">
        <ele>2546</ele>
        <time>2017-10-15T14:16:12.000Z</time>
      </trkpt>
      <trkpt lat="42.39234" lon="2.10285">
        <ele>2546</ele>
        <time>2017-10-15T14:16:13.000Z</time>
      </trkpt>
      <trkpt lat="42.39234" lon="2.10285">
        <ele>2546</ele>
        <time>2017-10-15T14:16:14.000Z</time>
      </trkpt>
      <trkpt lat="42.39234" lon="2.10286">
        <ele>2546</ele>
        <time>2017-10-15T14:16:15.000Z</time>
      </trkpt>
      <trkpt lat="42.39233" lon="2.10287">
        <ele>2545</ele>
        <time>2017-10-15T14:16:16.000Z</time>
      </trkpt>
      <trkpt lat="42.39233" lon="2.10287">
        <ele>2545</ele>
        <time>2017-10-15T14:16:17.000Z</time>
      </trkpt>
      <trkpt lat="42.39232" lon="2.10289">
        <ele>2544</ele>
        <time>2017-10-15T14:16:19.000Z</time>
      </trkpt>
      <trkpt lat="42.39232" lon="2.1029">
        <ele>2544</ele>
        <time>2017-10-15T14:16:20.000Z</time>
      </trkpt>
      <trkpt lat="42.39232" lon="2.10291">
        <ele>2543</ele>
        <time>2017-10-15T14:16:21.000Z</time>
      </trkpt>
      <trkpt lat="42.39231" lon="2.10292">
        <ele>2543</ele>
        <time>2017-10-15T14:16:22.000Z</time>
      </trkpt>
      <trkpt lat="42.39231" lon="2.10293">
        <ele>2543</ele>
        <time>2017-10-15T14:16:23.000Z</time>
      </trkpt>
      <trkpt lat="42.39231" lon="2.10293">
        <ele>2543</ele>
        <time>2017-10-15T14:16:24.000Z</time>
      </trkpt>
      <trkpt lat="42.39231" lon="2.10294">
        <ele>2542</ele>
        <time>2017-10-15T14:16:25.000Z</time>
      </trkpt>
      <trkpt lat="42.3923" lon="2.10296">
        <ele>2542</ele>
        <time>2017-10-15T14:16:27.000Z</time>
      </trkpt>
      <trkpt lat="42.3923" lon="2.10296">
        <ele>2541</ele>
        <time>2017-10-15T14:16:28.000Z</time>
      </trkpt>
      <trkpt lat="42.39229" lon="2.10297">
        <ele>2541</ele>
        <time>2017-10-15T14:16:30.000Z</time>
      </trkpt>
      <trkpt lat="42.39229" lon="2.10298">
        <ele>2541</ele>
        <time>2017-10-15T14:16:31.000Z</time>
      </trkpt>
      <trkpt lat="42.39229" lon="2.10299">
        <ele>2540</ele>
        <time>2017-10-15T14:16:32.000Z</time>
      </trkpt>
      <trkpt lat="42.39229" lon="2.103">
        <ele>2540</ele>
        <time>2017-10-15T14:16:34.000Z</time>
      </trkpt>
      <trkpt lat="42.39229" lon="2.103">
        <ele>2540</ele>
        <time>2017-10-15T14:16:36.000Z</time>
      </trkpt>
      <trkpt lat="42.3923" lon="2.10305">
        <ele>2540</ele>
        <time>2017-10-15T14:16:42.000Z</time>
      </trkpt>
      <trkpt lat="42.39229" lon="2.10308">
        <ele>2539</ele>
        <time>2017-10-15T14:16:44.000Z</time>
      </trkpt>
      <trkpt lat="42.39228" lon="2.10309">
        <ele>2539</ele>
        <time>2017-10-15T14:16:45.000Z</time>
      </trkpt>
      <trkpt lat="42.39228" lon="2.10311">
        <ele>2538</ele>
        <time>2017-10-15T14:16:47.000Z</time>
      </trkpt>
      <trkpt lat="42.39227" lon="2.10312">
        <ele>2538</ele>
        <time>2017-10-15T14:16:48.000Z</time>
      </trkpt>
      <trkpt lat="42.39226" lon="2.10315">
        <ele>2537</ele>
        <time>2017-10-15T14:16:49.000Z</time>
      </trkpt>
      <trkpt lat="42.39225" lon="2.10317">
        <ele>2537</ele>
        <time>2017-10-15T14:16:51.000Z</time>
      </trkpt>
      <trkpt lat="42.39224" lon="2.10319">
        <ele>2536</ele>
        <time>2017-10-15T14:16:52.000Z</time>
      </trkpt>
      <trkpt lat="42.39224" lon="2.1032">
        <ele>2536</ele>
        <time>2017-10-15T14:16:53.000Z</time>
      </trkpt>
      <trkpt lat="42.39223" lon="2.10322">
        <ele>2536</ele>
        <time>2017-10-15T14:16:55.000Z</time>
      </trkpt>
      <trkpt lat="42.39223" lon="2.10323">
        <ele>2536</ele>
        <time>2017-10-15T14:16:56.000Z</time>
      </trkpt>
      <trkpt lat="42.39222" lon="2.10325">
        <ele>2535</ele>
        <time>2017-10-15T14:16:58.000Z</time>
      </trkpt>
      <trkpt lat="42.39221" lon="2.10326">
        <ele>2535</ele>
        <time>2017-10-15T14:16:59.000Z</time>
      </trkpt>
      <trkpt lat="42.39221" lon="2.10326">
        <ele>2535</ele>
        <time>2017-10-15T14:17:01.000Z</time>
      </trkpt>
      <trkpt lat="42.3922" lon="2.10327">
        <ele>2534</ele>
        <time>2017-10-15T14:17:02.000Z</time>
      </trkpt>
      <trkpt lat="42.3922" lon="2.10328">
        <ele>2534</ele>
        <time>2017-10-15T14:17:03.000Z</time>
      </trkpt>
      <trkpt lat="42.3922" lon="2.10328">
        <ele>2534</ele>
        <time>2017-10-15T14:17:05.000Z</time>
      </trkpt>
      <trkpt lat="42.39219" lon="2.10329">
        <ele>2533</ele>
        <time>2017-10-15T14:17:06.000Z</time>
      </trkpt>
      <trkpt lat="42.39218" lon="2.1033">
        <ele>2533</ele>
        <time>2017-10-15T14:17:08.000Z</time>
      </trkpt>
      <trkpt lat="42.39218" lon="2.10331">
        <ele>2533</ele>
        <time>2017-10-15T14:17:10.000Z</time>
      </trkpt>
      <trkpt lat="42.39218" lon="2.10332">
        <ele>2533</ele>
        <time>2017-10-15T14:17:12.000Z</time>
      </trkpt>
      <trkpt lat="42.39218" lon="2.10333">
        <ele>2532</ele>
        <time>2017-10-15T14:17:13.000Z</time>
      </trkpt>
      <trkpt lat="42.39218" lon="2.10334">
        <ele>2532</ele>
        <time>2017-10-15T14:17:15.000Z</time>
      </trkpt>
      <trkpt lat="42.39218" lon="2.10335">
        <ele>2532</ele>
        <time>2017-10-15T14:17:16.000Z</time>
      </trkpt>
      <trkpt lat="42.39218" lon="2.10336">
        <ele>2532</ele>
        <time>2017-10-15T14:17:18.000Z</time>
      </trkpt>
      <trkpt lat="42.39218" lon="2.10337">
        <ele>2531</ele>
        <time>2017-10-15T14:17:19.000Z</time>
      </trkpt>
      <trkpt lat="42.39218" lon="2.10338">
        <ele>2531</ele>
        <time>2017-10-15T14:17:20.000Z</time>
      </trkpt>
      <trkpt lat="42.39217" lon="2.10338">
        <ele>2531</ele>
        <time>2017-10-15T14:17:21.000Z</time>
      </trkpt>
      <trkpt lat="42.39217" lon="2.1034">
        <ele>2531</ele>
        <time>2017-10-15T14:17:23.000Z</time>
      </trkpt>
      <trkpt lat="42.39217" lon="2.10341">
        <ele>2530</ele>
        <time>2017-10-15T14:17:24.000Z</time>
      </trkpt>
      <trkpt lat="42.39217" lon="2.10342">
        <ele>2530</ele>
        <time>2017-10-15T14:17:26.000Z</time>
      </trkpt>
      <trkpt lat="42.39216" lon="2.10342">
        <ele>2530</ele>
        <time>2017-10-15T14:17:27.000Z</time>
      </trkpt>
      <trkpt lat="42.39216" lon="2.10343">
        <ele>2530</ele>
        <time>2017-10-15T14:17:28.000Z</time>
      </trkpt>
      <trkpt lat="42.39216" lon="2.10344">
        <ele>2529</ele>
        <time>2017-10-15T14:17:29.000Z</time>
      </trkpt>
      <trkpt lat="42.39216" lon="2.10344">
        <ele>2529</ele>
        <time>2017-10-15T14:17:30.000Z</time>
      </trkpt>
      <trkpt lat="42.39215" lon="2.10345">
        <ele>2529</ele>
        <time>2017-10-15T14:17:31.000Z</time>
      </trkpt>
      <trkpt lat="42.39215" lon="2.10345">
        <ele>2529</ele>
        <time>2017-10-15T14:17:32.000Z</time>
      </trkpt>
      <trkpt lat="42.39214" lon="2.10346">
        <ele>2528</ele>
        <time>2017-10-15T14:17:33.000Z</time>
      </trkpt>
      <trkpt lat="42.39214" lon="2.10347">
        <ele>2528</ele>
        <time>2017-10-15T14:17:35.000Z</time>
      </trkpt>
      <trkpt lat="42.39214" lon="2.10348">
        <ele>2528</ele>
        <time>2017-10-15T14:17:36.000Z</time>
      </trkpt>
      <trkpt lat="42.39213" lon="2.10349">
        <ele>2527</ele>
        <time>2017-10-15T14:17:37.000Z</time>
      </trkpt>
      <trkpt lat="42.39213" lon="2.1035">
        <ele>2527</ele>
        <time>2017-10-15T14:17:38.000Z</time>
      </trkpt>
      <trkpt lat="42.39213" lon="2.1035">
        <ele>2527</ele>
        <time>2017-10-15T14:17:39.000Z</time>
      </trkpt>
      <trkpt lat="42.39213" lon="2.10351">
        <ele>2527</ele>
        <time>2017-10-15T14:17:40.000Z</time>
      </trkpt>
      <trkpt lat="42.39213" lon="2.10353">
        <ele>2526</ele>
        <time>2017-10-15T14:17:42.000Z</time>
      </trkpt>
      <trkpt lat="42.39213" lon="2.10353">
        <ele>2526</ele>
        <time>2017-10-15T14:17:43.000Z</time>
      </trkpt>
      <trkpt lat="42.39213" lon="2.10354">
        <ele>2526</ele>
        <time>2017-10-15T14:17:44.000Z</time>
      </trkpt>
      <trkpt lat="42.39212" lon="2.10355">
        <ele>2526</ele>
        <time>2017-10-15T14:17:45.000Z</time>
      </trkpt>
      <trkpt lat="42.39212" lon="2.10356">
        <ele>2525</ele>
        <time>2017-10-15T14:17:46.000Z</time>
      </trkpt>
      <trkpt lat="42.39212" lon="2.10357">
        <ele>2525</ele>
        <time>2017-10-15T14:17:48.000Z</time>
      </trkpt>
      <trkpt lat="42.39212" lon="2.10358">
        <ele>2525</ele>
        <time>2017-10-15T14:17:49.000Z</time>
      </trkpt>
      <trkpt lat="42.39212" lon="2.10359">
        <ele>2525</ele>
        <time>2017-10-15T14:17:50.000Z</time>
      </trkpt>
      <trkpt lat="42.39212" lon="2.1036">
        <ele>2524</ele>
        <time>2017-10-15T14:17:51.000Z</time>
      </trkpt>
      <trkpt lat="42.39211" lon="2.10361">
        <ele>2524</ele>
        <time>2017-10-15T14:17:52.000Z</time>
      </trkpt>
      <trkpt lat="42.39211" lon="2.10361">
        <ele>2524</ele>
        <time>2017-10-15T14:17:53.000Z</time>
      </trkpt>
      <trkpt lat="42.3921" lon="2.10363">
        <ele>2523</ele>
        <time>2017-10-15T14:17:55.000Z</time>
      </trkpt>
      <trkpt lat="42.3921" lon="2.10364">
        <ele>2523</ele>
        <time>2017-10-15T14:17:56.000Z</time>
      </trkpt>
      <trkpt lat="42.39209" lon="2.10364">
        <ele>2522</ele>
        <time>2017-10-15T14:17:57.000Z</time>
      </trkpt>
      <trkpt lat="42.39209" lon="2.10365">
        <ele>2522</ele>
        <time>2017-10-15T14:17:58.000Z</time>
      </trkpt>
      <trkpt lat="42.39209" lon="2.10366">
        <ele>2522</ele>
        <time>2017-10-15T14:17:59.000Z</time>
      </trkpt>
      <trkpt lat="42.39209" lon="2.10367">
        <ele>2522</ele>
        <time>2017-10-15T14:18:00.000Z</time>
      </trkpt>
      <trkpt lat="42.39208" lon="2.10367">
        <ele>2522</ele>
        <time>2017-10-15T14:18:01.000Z</time>
      </trkpt>
      <trkpt lat="42.39208" lon="2.10369">
        <ele>2521</ele>
        <time>2017-10-15T14:18:02.000Z</time>
      </trkpt>
      <trkpt lat="42.39208" lon="2.10369">
        <ele>2521</ele>
        <time>2017-10-15T14:18:03.000Z</time>
      </trkpt>
      <trkpt lat="42.39207" lon="2.1037">
        <ele>2521</ele>
        <time>2017-10-15T14:18:04.000Z</time>
      </trkpt>
      <trkpt lat="42.39206" lon="2.10371">
        <ele>2520</ele>
        <time>2017-10-15T14:18:05.000Z</time>
      </trkpt>
      <trkpt lat="42.39206" lon="2.10371">
        <ele>2520</ele>
        <time>2017-10-15T14:18:06.000Z</time>
      </trkpt>
      <trkpt lat="42.39205" lon="2.10372">
        <ele>2520</ele>
        <time>2017-10-15T14:18:07.000Z</time>
      </trkpt>
      <trkpt lat="42.39205" lon="2.10373">
        <ele>2519</ele>
        <time>2017-10-15T14:18:08.000Z</time>
      </trkpt>
      <trkpt lat="42.39204" lon="2.10374">
        <ele>2519</ele>
        <time>2017-10-15T14:18:09.000Z</time>
      </trkpt>
      <trkpt lat="42.39203" lon="2.10375">
        <ele>2519</ele>
        <time>2017-10-15T14:18:10.000Z</time>
      </trkpt>
      <trkpt lat="42.39203" lon="2.10375">
        <ele>2519</ele>
        <time>2017-10-15T14:18:11.000Z</time>
      </trkpt>
      <trkpt lat="42.39202" lon="2.10376">
        <ele>2518</ele>
        <time>2017-10-15T14:18:12.000Z</time>
      </trkpt>
      <trkpt lat="42.39202" lon="2.10376">
        <ele>2518</ele>
        <time>2017-10-15T14:18:13.000Z</time>
      </trkpt>
      <trkpt lat="42.39202" lon="2.10377">
        <ele>2518</ele>
        <time>2017-10-15T14:18:14.000Z</time>
      </trkpt>
      <trkpt lat="42.39201" lon="2.10377">
        <ele>2518</ele>
        <time>2017-10-15T14:18:15.000Z</time>
      </trkpt>
      <trkpt lat="42.39201" lon="2.10378">
        <ele>2518</ele>
        <time>2017-10-15T14:18:16.000Z</time>
      </trkpt>
      <trkpt lat="42.39201" lon="2.10379">
        <ele>2518</ele>
        <time>2017-10-15T14:18:17.000Z</time>
      </trkpt>
      <trkpt lat="42.392" lon="2.10379">
        <ele>2517</ele>
        <time>2017-10-15T14:18:18.000Z</time>
      </trkpt>
      <trkpt lat="42.392" lon="2.1038">
        <ele>2517</ele>
        <time>2017-10-15T14:18:19.000Z</time>
      </trkpt>
      <trkpt lat="42.392" lon="2.10381">
        <ele>2517</ele>
        <time>2017-10-15T14:18:20.000Z</time>
      </trkpt>
      <trkpt lat="42.39199" lon="2.10382">
        <ele>2517</ele>
        <time>2017-10-15T14:18:21.000Z</time>
      </trkpt>
      <trkpt lat="42.39199" lon="2.10383">
        <ele>2517</ele>
        <time>2017-10-15T14:18:22.000Z</time>
      </trkpt>
      <trkpt lat="42.39199" lon="2.10384">
        <ele>2517</ele>
        <time>2017-10-15T14:18:23.000Z</time>
      </trkpt>
      <trkpt lat="42.39199" lon="2.10385">
        <ele>2516</ele>
        <time>2017-10-15T14:18:24.000Z</time>
      </trkpt>
      <trkpt lat="42.39198" lon="2.10385">
        <ele>2516</ele>
        <time>2017-10-15T14:18:25.000Z</time>
      </trkpt>
      <trkpt lat="42.39198" lon="2.10387">
        <ele>2516</ele>
        <time>2017-10-15T14:18:27.000Z</time>
      </trkpt>
      <trkpt lat="42.39198" lon="2.10388">
        <ele>2516</ele>
        <time>2017-10-15T14:18:28.000Z</time>
      </trkpt>
      <trkpt lat="42.39197" lon="2.10389">
        <ele>2516</ele>
        <time>2017-10-15T14:18:29.000Z</time>
      </trkpt>
      <trkpt lat="42.39197" lon="2.10389">
        <ele>2516</ele>
        <time>2017-10-15T14:18:30.000Z</time>
      </trkpt>
      <trkpt lat="42.39197" lon="2.1039">
        <ele>2515</ele>
        <time>2017-10-15T14:18:31.000Z</time>
      </trkpt>
      <trkpt lat="42.39197" lon="2.1039">
        <ele>2515</ele>
        <time>2017-10-15T14:18:32.000Z</time>
      </trkpt>
      <trkpt lat="42.39196" lon="2.10392">
        <ele>2515</ele>
        <time>2017-10-15T14:18:34.000Z</time>
      </trkpt>
      <trkpt lat="42.39195" lon="2.10393">
        <ele>2515</ele>
        <time>2017-10-15T14:18:35.000Z</time>
      </trkpt>
      <trkpt lat="42.39195" lon="2.10393">
        <ele>2514</ele>
        <time>2017-10-15T14:18:36.000Z</time>
      </trkpt>
      <trkpt lat="42.39194" lon="2.10394">
        <ele>2514</ele>
        <time>2017-10-15T14:18:37.000Z</time>
      </trkpt>
      <trkpt lat="42.39193" lon="2.10394">
        <ele>2514</ele>
        <time>2017-10-15T14:18:38.000Z</time>
      </trkpt>
      <trkpt lat="42.39192" lon="2.10395">
        <ele>2514</ele>
        <time>2017-10-15T14:18:39.000Z</time>
      </trkpt>
      <trkpt lat="42.39191" lon="2.10395">
        <ele>2513</ele>
        <time>2017-10-15T14:18:41.000Z</time>
      </trkpt>
      <trkpt lat="42.39191" lon="2.10396">
        <ele>2513</ele>
        <time>2017-10-15T14:18:42.000Z</time>
      </trkpt>
      <trkpt lat="42.3919" lon="2.10396">
        <ele>2513</ele>
        <time>2017-10-15T14:18:43.000Z</time>
      </trkpt>
      <trkpt lat="42.3919" lon="2.10397">
        <ele>2512</ele>
        <time>2017-10-15T14:18:44.000Z</time>
      </trkpt>
      <trkpt lat="42.39189" lon="2.10397">
        <ele>2512</ele>
        <time>2017-10-15T14:18:45.000Z</time>
      </trkpt>
      <trkpt lat="42.39188" lon="2.10398">
        <ele>2512</ele>
        <time>2017-10-15T14:18:46.000Z</time>
      </trkpt>
      <trkpt lat="42.39186" lon="2.10398">
        <ele>2511</ele>
        <time>2017-10-15T14:18:48.000Z</time>
      </trkpt>
      <trkpt lat="42.39186" lon="2.10399">
        <ele>2511</ele>
        <time>2017-10-15T14:18:49.000Z</time>
      </trkpt>
      <trkpt lat="42.39185" lon="2.10399">
        <ele>2511</ele>
        <time>2017-10-15T14:18:50.000Z</time>
      </trkpt>
      <trkpt lat="42.39184" lon="2.104">
        <ele>2510</ele>
        <time>2017-10-15T14:18:51.000Z</time>
      </trkpt>
      <trkpt lat="42.39184" lon="2.104">
        <ele>2510</ele>
        <time>2017-10-15T14:18:52.000Z</time>
      </trkpt>
      <trkpt lat="42.39183" lon="2.10401">
        <ele>2510</ele>
        <time>2017-10-15T14:18:53.000Z</time>
      </trkpt>
      <trkpt lat="42.39182" lon="2.10401">
        <ele>2510</ele>
        <time>2017-10-15T14:18:54.000Z</time>
      </trkpt>
      <trkpt lat="42.39182" lon="2.10401">
        <ele>2510</ele>
        <time>2017-10-15T14:18:55.000Z</time>
      </trkpt>
      <trkpt lat="42.39182" lon="2.10401">
        <ele>2509</ele>
        <time>2017-10-15T14:18:56.000Z</time>
      </trkpt>
      <trkpt lat="42.39181" lon="2.10401">
        <ele>2509</ele>
        <time>2017-10-15T14:18:57.000Z</time>
      </trkpt>
      <trkpt lat="42.39181" lon="2.104">
        <ele>2509</ele>
        <time>2017-10-15T14:18:58.000Z</time>
      </trkpt>
      <trkpt lat="42.39181" lon="2.10401">
        <ele>2509</ele>
        <time>2017-10-15T14:18:59.000Z</time>
      </trkpt>
      <trkpt lat="42.39181" lon="2.10401">
        <ele>2509</ele>
        <time>2017-10-15T14:19:00.000Z</time>
      </trkpt>
      <trkpt lat="42.3918" lon="2.10402">
        <ele>2509</ele>
        <time>2017-10-15T14:19:01.000Z</time>
      </trkpt>
      <trkpt lat="42.3918" lon="2.10403">
        <ele>2509</ele>
        <time>2017-10-15T14:19:02.000Z</time>
      </trkpt>
      <trkpt lat="42.3918" lon="2.10403">
        <ele>2509</ele>
        <time>2017-10-15T14:19:03.000Z</time>
      </trkpt>
      <trkpt lat="42.3918" lon="2.10404">
        <ele>2509</ele>
        <time>2017-10-15T14:19:04.000Z</time>
      </trkpt>
      <trkpt lat="42.39179" lon="2.10405">
        <ele>2508</ele>
        <time>2017-10-15T14:19:06.000Z</time>
      </trkpt>
      <trkpt lat="42.39179" lon="2.10406">
        <ele>2508</ele>
        <time>2017-10-15T14:19:07.000Z</time>
      </trkpt>
      <trkpt lat="42.39178" lon="2.10406">
        <ele>2508</ele>
        <time>2017-10-15T14:19:08.000Z</time>
      </trkpt>
      <trkpt lat="42.39178" lon="2.10407">
        <ele>2508</ele>
        <time>2017-10-15T14:19:09.000Z</time>
      </trkpt>
      <trkpt lat="42.39178" lon="2.10407">
        <ele>2507</ele>
        <time>2017-10-15T14:19:10.000Z</time>
      </trkpt>
      <trkpt lat="42.39177" lon="2.10408">
        <ele>2507</ele>
        <time>2017-10-15T14:19:11.000Z</time>
      </trkpt>
      <trkpt lat="42.39176" lon="2.10409">
        <ele>2507</ele>
        <time>2017-10-15T14:19:13.000Z</time>
      </trkpt>
      <trkpt lat="42.39175" lon="2.1041">
        <ele>2506</ele>
        <time>2017-10-15T14:19:14.000Z</time>
      </trkpt>
      <trkpt lat="42.39175" lon="2.1041">
        <ele>2506</ele>
        <time>2017-10-15T14:19:15.000Z</time>
      </trkpt>
      <trkpt lat="42.39174" lon="2.10411">
        <ele>2506</ele>
        <time>2017-10-15T14:19:16.000Z</time>
      </trkpt>
      <trkpt lat="42.39174" lon="2.1041">
        <ele>2506</ele>
        <time>2017-10-15T14:19:17.000Z</time>
      </trkpt>
      <trkpt lat="42.39173" lon="2.10411">
        <ele>2506</ele>
        <time>2017-10-15T14:19:18.000Z</time>
      </trkpt>
      <trkpt lat="42.39173" lon="2.1041">
        <ele>2506</ele>
        <time>2017-10-15T14:19:20.000Z</time>
      </trkpt>
      <trkpt lat="42.39171" lon="2.10417">
        <ele>2505</ele>
        <time>2017-10-15T14:19:27.000Z</time>
      </trkpt>
      <trkpt lat="42.39171" lon="2.10418">
        <ele>2505</ele>
        <time>2017-10-15T14:19:28.000Z</time>
      </trkpt>
      <trkpt lat="42.3917" lon="2.10418">
        <ele>2505</ele>
        <time>2017-10-15T14:19:29.000Z</time>
      </trkpt>
      <trkpt lat="42.3917" lon="2.10418">
        <ele>2504</ele>
        <time>2017-10-15T14:19:30.000Z</time>
      </trkpt>
      <trkpt lat="42.39169" lon="2.10418">
        <ele>2504</ele>
        <time>2017-10-15T14:19:31.000Z</time>
      </trkpt>
      <trkpt lat="42.39166" lon="2.10423">
        <ele>2503</ele>
        <time>2017-10-15T14:19:39.000Z</time>
      </trkpt>
      <trkpt lat="42.39165" lon="2.10423">
        <ele>2503</ele>
        <time>2017-10-15T14:19:40.000Z</time>
      </trkpt>
      <trkpt lat="42.39165" lon="2.10423">
        <ele>2502</ele>
        <time>2017-10-15T14:19:41.000Z</time>
      </trkpt>
      <trkpt lat="42.39164" lon="2.10422">
        <ele>2502</ele>
        <time>2017-10-15T14:19:42.000Z</time>
      </trkpt>
      <trkpt lat="42.39164" lon="2.10423">
        <ele>2502</ele>
        <time>2017-10-15T14:19:43.000Z</time>
      </trkpt>
      <trkpt lat="42.39164" lon="2.10423">
        <ele>2502</ele>
        <time>2017-10-15T14:19:44.000Z</time>
      </trkpt>
      <trkpt lat="42.39164" lon="2.10424">
        <ele>2502</ele>
        <time>2017-10-15T14:19:45.000Z</time>
      </trkpt>
      <trkpt lat="42.39164" lon="2.10425">
        <ele>2502</ele>
        <time>2017-10-15T14:19:46.000Z</time>
      </trkpt>
      <trkpt lat="42.39164" lon="2.10426">
        <ele>2502</ele>
        <time>2017-10-15T14:19:47.000Z</time>
      </trkpt>
      <trkpt lat="42.39165" lon="2.10427">
        <ele>2502</ele>
        <time>2017-10-15T14:19:48.000Z</time>
      </trkpt>
      <trkpt lat="42.39165" lon="2.10428">
        <ele>2502</ele>
        <time>2017-10-15T14:19:49.000Z</time>
      </trkpt>
      <trkpt lat="42.39164" lon="2.10429">
        <ele>2502</ele>
        <time>2017-10-15T14:19:50.000Z</time>
      </trkpt>
      <trkpt lat="42.39165" lon="2.1043">
        <ele>2502</ele>
        <time>2017-10-15T14:19:51.000Z</time>
      </trkpt>
      <trkpt lat="42.39165" lon="2.10431">
        <ele>2502</ele>
        <time>2017-10-15T14:19:52.000Z</time>
      </trkpt>
      <trkpt lat="42.39164" lon="2.10432">
        <ele>2502</ele>
        <time>2017-10-15T14:19:53.000Z</time>
      </trkpt>
      <trkpt lat="42.39163" lon="2.10433">
        <ele>2501</ele>
        <time>2017-10-15T14:19:54.000Z</time>
      </trkpt>
      <trkpt lat="42.39163" lon="2.10433">
        <ele>2501</ele>
        <time>2017-10-15T14:19:55.000Z</time>
      </trkpt>
      <trkpt lat="42.39162" lon="2.10434">
        <ele>2501</ele>
        <time>2017-10-15T14:19:56.000Z</time>
      </trkpt>
      <trkpt lat="42.39161" lon="2.10434">
        <ele>2500</ele>
        <time>2017-10-15T14:19:57.000Z</time>
      </trkpt>
      <trkpt lat="42.3916" lon="2.10434">
        <ele>2500</ele>
        <time>2017-10-15T14:19:59.000Z</time>
      </trkpt>
      <trkpt lat="42.39159" lon="2.10435">
        <ele>2499</ele>
        <time>2017-10-15T14:20:00.000Z</time>
      </trkpt>
      <trkpt lat="42.39158" lon="2.10435">
        <ele>2499</ele>
        <time>2017-10-15T14:20:01.000Z</time>
      </trkpt>
      <trkpt lat="42.39158" lon="2.10434">
        <ele>2499</ele>
        <time>2017-10-15T14:20:02.000Z</time>
      </trkpt>
      <trkpt lat="42.39158" lon="2.10434">
        <ele>2499</ele>
        <time>2017-10-15T14:20:03.000Z</time>
      </trkpt>
      <trkpt lat="42.39157" lon="2.10434">
        <ele>2499</ele>
        <time>2017-10-15T14:20:04.000Z</time>
      </trkpt>
      <trkpt lat="42.39156" lon="2.10434">
        <ele>2498</ele>
        <time>2017-10-15T14:20:06.000Z</time>
      </trkpt>
      <trkpt lat="42.39156" lon="2.10434">
        <ele>2498</ele>
        <time>2017-10-15T14:20:07.000Z</time>
      </trkpt>
      <trkpt lat="42.39135" lon="2.10495">
        <ele>2488</ele>
        <time>2017-10-15T14:22:00.000Z</time>
      </trkpt>
      <trkpt lat="42.39135" lon="2.10496">
        <ele>2488</ele>
        <time>2017-10-15T14:22:01.000Z</time>
      </trkpt>
      <trkpt lat="42.39135" lon="2.10496">
        <ele>2488</ele>
        <time>2017-10-15T14:22:02.000Z</time>
      </trkpt>
      <trkpt lat="42.39134" lon="2.10497">
        <ele>2488</ele>
        <time>2017-10-15T14:22:03.000Z</time>
      </trkpt>
      <trkpt lat="42.39133" lon="2.10498">
        <ele>2487</ele>
        <time>2017-10-15T14:22:05.000Z</time>
      </trkpt>
      <trkpt lat="42.39133" lon="2.10498">
        <ele>2487</ele>
        <time>2017-10-15T14:22:06.000Z</time>
      </trkpt>
      <trkpt lat="42.39132" lon="2.10498">
        <ele>2487</ele>
        <time>2017-10-15T14:22:07.000Z</time>
      </trkpt>
      <trkpt lat="42.39132" lon="2.10498">
        <ele>2487</ele>
        <time>2017-10-15T14:22:08.000Z</time>
      </trkpt>
      <trkpt lat="42.39131" lon="2.10499">
        <ele>2487</ele>
        <time>2017-10-15T14:22:09.000Z</time>
      </trkpt>
      <trkpt lat="42.3913" lon="2.10499">
        <ele>2486</ele>
        <time>2017-10-15T14:22:10.000Z</time>
      </trkpt>
      <trkpt lat="42.3913" lon="2.10498">
        <ele>2486</ele>
        <time>2017-10-15T14:22:12.000Z</time>
      </trkpt>
      <trkpt lat="42.3912" lon="2.10502">
        <ele>2483</ele>
        <time>2017-10-15T14:22:39.000Z</time>
      </trkpt>
      <trkpt lat="42.3912" lon="2.10502">
        <ele>2482</ele>
        <time>2017-10-15T14:22:40.000Z</time>
      </trkpt>
      <trkpt lat="42.39118" lon="2.10503">
        <ele>2482</ele>
        <time>2017-10-15T14:22:41.000Z</time>
      </trkpt>
      <trkpt lat="42.39117" lon="2.10503">
        <ele>2482</ele>
        <time>2017-10-15T14:22:42.000Z</time>
      </trkpt>
      <trkpt lat="42.39117" lon="2.10503">
        <ele>2481</ele>
        <time>2017-10-15T14:22:43.000Z</time>
      </trkpt>
      <trkpt lat="42.39116" lon="2.10502">
        <ele>2481</ele>
        <time>2017-10-15T14:22:45.000Z</time>
      </trkpt>
      <trkpt lat="42.39115" lon="2.10502">
        <ele>2481</ele>
        <time>2017-10-15T14:22:46.000Z</time>
      </trkpt>
      <trkpt lat="42.39115" lon="2.10502">
        <ele>2480</ele>
        <time>2017-10-15T14:22:47.000Z</time>
      </trkpt>
      <trkpt lat="42.39113" lon="2.10501">
        <ele>2480</ele>
        <time>2017-10-15T14:22:48.000Z</time>
      </trkpt>
      <trkpt lat="42.39112" lon="2.10501">
        <ele>2479</ele>
        <time>2017-10-15T14:22:49.000Z</time>
      </trkpt>
      <trkpt lat="42.39111" lon="2.10501">
        <ele>2479</ele>
        <time>2017-10-15T14:22:50.000Z</time>
      </trkpt>
      <trkpt lat="42.3911" lon="2.105">
        <ele>2478</ele>
        <time>2017-10-15T14:22:51.000Z</time>
      </trkpt>
      <trkpt lat="42.39109" lon="2.105">
        <ele>2478</ele>
        <time>2017-10-15T14:22:52.000Z</time>
      </trkpt>
      <trkpt lat="42.39109" lon="2.105">
        <ele>2478</ele>
        <time>2017-10-15T14:22:54.000Z</time>
      </trkpt>
      <trkpt lat="42.39107" lon="2.105">
        <ele>2477</ele>
        <time>2017-10-15T14:22:55.000Z</time>
      </trkpt>
      <trkpt lat="42.39106" lon="2.105">
        <ele>2477</ele>
        <time>2017-10-15T14:22:56.000Z</time>
      </trkpt>
      <trkpt lat="42.39105" lon="2.10501">
        <ele>2476</ele>
        <time>2017-10-15T14:22:57.000Z</time>
      </trkpt>
      <trkpt lat="42.39104" lon="2.10501">
        <ele>2476</ele>
        <time>2017-10-15T14:22:58.000Z</time>
      </trkpt>
      <trkpt lat="42.39102" lon="2.10502">
        <ele>2475</ele>
        <time>2017-10-15T14:23:00.000Z</time>
      </trkpt>
      <trkpt lat="42.39101" lon="2.10503">
        <ele>2475</ele>
        <time>2017-10-15T14:23:01.000Z</time>
      </trkpt>
      <trkpt lat="42.391" lon="2.10503">
        <ele>2475</ele>
        <time>2017-10-15T14:23:02.000Z</time>
      </trkpt>
      <trkpt lat="42.39099" lon="2.10504">
        <ele>2474</ele>
        <time>2017-10-15T14:23:04.000Z</time>
      </trkpt>
      <trkpt lat="42.39098" lon="2.10505">
        <ele>2474</ele>
        <time>2017-10-15T14:23:05.000Z</time>
      </trkpt>
      <trkpt lat="42.39097" lon="2.10506">
        <ele>2474</ele>
        <time>2017-10-15T14:23:06.000Z</time>
      </trkpt>
      <trkpt lat="42.39096" lon="2.10506">
        <ele>2473</ele>
        <time>2017-10-15T14:23:07.000Z</time>
      </trkpt>
      <trkpt lat="42.39095" lon="2.10507">
        <ele>2473</ele>
        <time>2017-10-15T14:23:08.000Z</time>
      </trkpt>
      <trkpt lat="42.39094" lon="2.10508">
        <ele>2473</ele>
        <time>2017-10-15T14:23:09.000Z</time>
      </trkpt>
      <trkpt lat="42.39092" lon="2.1051">
        <ele>2472</ele>
        <time>2017-10-15T14:23:10.000Z</time>
      </trkpt>
      <trkpt lat="42.39091" lon="2.10512">
        <ele>2471</ele>
        <time>2017-10-15T14:23:12.000Z</time>
      </trkpt>
      <trkpt lat="42.3909" lon="2.10512">
        <ele>2471</ele>
        <time>2017-10-15T14:23:13.000Z</time>
      </trkpt>
      <trkpt lat="42.39089" lon="2.10513">
        <ele>2471</ele>
        <time>2017-10-15T14:23:14.000Z</time>
      </trkpt>
      <trkpt lat="42.39088" lon="2.10513">
        <ele>2470</ele>
        <time>2017-10-15T14:23:16.000Z</time>
      </trkpt>
      <trkpt lat="42.39088" lon="2.10513">
        <ele>2470</ele>
        <time>2017-10-15T14:23:17.000Z</time>
      </trkpt>
      <trkpt lat="42.39087" lon="2.10513">
        <ele>2470</ele>
        <time>2017-10-15T14:23:18.000Z</time>
      </trkpt>
      <trkpt lat="42.39085" lon="2.10514">
        <ele>2469</ele>
        <time>2017-10-15T14:23:19.000Z</time>
      </trkpt>
      <trkpt lat="42.39084" lon="2.10515">
        <ele>2469</ele>
        <time>2017-10-15T14:23:21.000Z</time>
      </trkpt>
      <trkpt lat="42.39083" lon="2.10516">
        <ele>2468</ele>
        <time>2017-10-15T14:23:22.000Z</time>
      </trkpt>
      <trkpt lat="42.39082" lon="2.10517">
        <ele>2468</ele>
        <time>2017-10-15T14:23:23.000Z</time>
      </trkpt>
      <trkpt lat="42.39081" lon="2.10517">
        <ele>2467</ele>
        <time>2017-10-15T14:23:24.000Z</time>
      </trkpt>
      <trkpt lat="42.39079" lon="2.10519">
        <ele>2467</ele>
        <time>2017-10-15T14:23:25.000Z</time>
      </trkpt>
      <trkpt lat="42.39078" lon="2.1052">
        <ele>2466</ele>
        <time>2017-10-15T14:23:26.000Z</time>
      </trkpt>
      <trkpt lat="42.39077" lon="2.10521">
        <ele>2466</ele>
        <time>2017-10-15T14:23:27.000Z</time>
      </trkpt>
      <trkpt lat="42.39076" lon="2.10521">
        <ele>2466</ele>
        <time>2017-10-15T14:23:28.000Z</time>
      </trkpt>
      <trkpt lat="42.39074" lon="2.10521">
        <ele>2465</ele>
        <time>2017-10-15T14:23:30.000Z</time>
      </trkpt>
      <trkpt lat="42.39073" lon="2.10521">
        <ele>2465</ele>
        <time>2017-10-15T14:23:31.000Z</time>
      </trkpt>
      <trkpt lat="42.39072" lon="2.10522">
        <ele>2465</ele>
        <time>2017-10-15T14:23:32.000Z</time>
      </trkpt>
      <trkpt lat="42.39071" lon="2.10522">
        <ele>2464</ele>
        <time>2017-10-15T14:23:33.000Z</time>
      </trkpt>
      <trkpt lat="42.3907" lon="2.10522">
        <ele>2464</ele>
        <time>2017-10-15T14:23:34.000Z</time>
      </trkpt>
      <trkpt lat="42.39067" lon="2.10522">
        <ele>2463</ele>
        <time>2017-10-15T14:23:36.000Z</time>
      </trkpt>
      <trkpt lat="42.39066" lon="2.10522">
        <ele>2463</ele>
        <time>2017-10-15T14:23:37.000Z</time>
      </trkpt>
      <trkpt lat="42.39065" lon="2.10522">
        <ele>2462</ele>
        <time>2017-10-15T14:23:38.000Z</time>
      </trkpt>
      <trkpt lat="42.39063" lon="2.10521">
        <ele>2462</ele>
        <time>2017-10-15T14:23:40.000Z</time>
      </trkpt>
      <trkpt lat="42.39061" lon="2.1052">
        <ele>2461</ele>
        <time>2017-10-15T14:23:42.000Z</time>
      </trkpt>
      <trkpt lat="42.39058" lon="2.10518">
        <ele>2460</ele>
        <time>2017-10-15T14:23:44.000Z</time>
      </trkpt>
      <trkpt lat="42.39057" lon="2.10517">
        <ele>2460</ele>
        <time>2017-10-15T14:23:46.000Z</time>
      </trkpt>
      <trkpt lat="42.39057" lon="2.10515">
        <ele>2459</ele>
        <time>2017-10-15T14:23:47.000Z</time>
      </trkpt>
      <trkpt lat="42.39056" lon="2.10514">
        <ele>2459</ele>
        <time>2017-10-15T14:23:48.000Z</time>
      </trkpt>
      <trkpt lat="42.39056" lon="2.10513">
        <ele>2459</ele>
        <time>2017-10-15T14:23:49.000Z</time>
      </trkpt>
      <trkpt lat="42.39055" lon="2.10511">
        <ele>2458</ele>
        <time>2017-10-15T14:23:50.000Z</time>
      </trkpt>
      <trkpt lat="42.39054" lon="2.1051">
        <ele>2458</ele>
        <time>2017-10-15T14:23:52.000Z</time>
      </trkpt>
      <trkpt lat="42.39053" lon="2.10509">
        <ele>2458</ele>
        <time>2017-10-15T14:23:53.000Z</time>
      </trkpt>
      <trkpt lat="42.39052" lon="2.10508">
        <ele>2457</ele>
        <time>2017-10-15T14:23:54.000Z</time>
      </trkpt>
      <trkpt lat="42.39051" lon="2.10508">
        <ele>2457</ele>
        <time>2017-10-15T14:23:55.000Z</time>
      </trkpt>
      <trkpt lat="42.3905" lon="2.10508">
        <ele>2457</ele>
        <time>2017-10-15T14:23:56.000Z</time>
      </trkpt>
      <trkpt lat="42.39049" lon="2.10508">
        <ele>2456</ele>
        <time>2017-10-15T14:23:57.000Z</time>
      </trkpt>
      <trkpt lat="42.39049" lon="2.10508">
        <ele>2456</ele>
        <time>2017-10-15T14:23:58.000Z</time>
      </trkpt>
      <trkpt lat="42.39049" lon="2.10507">
        <ele>2456</ele>
        <time>2017-10-15T14:23:59.000Z</time>
      </trkpt>
      <trkpt lat="42.39033" lon="2.10497">
        <ele>2450</ele>
        <time>2017-10-15T14:24:37.000Z</time>
      </trkpt>
      <trkpt lat="42.39032" lon="2.10497">
        <ele>2450</ele>
        <time>2017-10-15T14:24:38.000Z</time>
      </trkpt>
      <trkpt lat="42.39032" lon="2.10497">
        <ele>2450</ele>
        <time>2017-10-15T14:24:39.000Z</time>
      </trkpt>
      <trkpt lat="42.39032" lon="2.10497">
        <ele>2450</ele>
        <time>2017-10-15T14:24:40.000Z</time>
      </trkpt>
      <trkpt lat="42.39031" lon="2.10498">
        <ele>2450</ele>
        <time>2017-10-15T14:24:41.000Z</time>
      </trkpt>
      <trkpt lat="42.39031" lon="2.10498">
        <ele>2450</ele>
        <time>2017-10-15T14:24:42.000Z</time>
      </trkpt>
      <trkpt lat="42.39031" lon="2.10499">
        <ele>2450</ele>
        <time>2017-10-15T14:24:43.000Z</time>
      </trkpt>
      <trkpt lat="42.3903" lon="2.10499">
        <ele>2450</ele>
        <time>2017-10-15T14:24:44.000Z</time>
      </trkpt>
      <trkpt lat="42.3903" lon="2.10499">
        <ele>2450</ele>
        <time>2017-10-15T14:24:45.000Z</time>
      </trkpt>
      <trkpt lat="42.39029" lon="2.10499">
        <ele>2449</ele>
        <time>2017-10-15T14:24:46.000Z</time>
      </trkpt>
      <trkpt lat="42.39029" lon="2.10499">
        <ele>2449</ele>
        <time>2017-10-15T14:24:47.000Z</time>
      </trkpt>
      <trkpt lat="42.39029" lon="2.105">
        <ele>2449</ele>
        <time>2017-10-15T14:24:48.000Z</time>
      </trkpt>
      <trkpt lat="42.39028" lon="2.105">
        <ele>2449</ele>
        <time>2017-10-15T14:24:49.000Z</time>
      </trkpt>
      <trkpt lat="42.39028" lon="2.105">
        <ele>2449</ele>
        <time>2017-10-15T14:24:50.000Z</time>
      </trkpt>
      <trkpt lat="42.39013" lon="2.10511">
        <ele>2445</ele>
        <time>2017-10-15T14:25:30.000Z</time>
      </trkpt>
      <trkpt lat="42.39012" lon="2.1051">
        <ele>2445</ele>
        <time>2017-10-15T14:25:32.000Z</time>
      </trkpt>
      <trkpt lat="42.39012" lon="2.1051">
        <ele>2445</ele>
        <time>2017-10-15T14:25:33.000Z</time>
      </trkpt>
      <trkpt lat="42.39007" lon="2.10535">
        <ele>2446</ele>
        <time>2017-10-15T14:26:10.000Z</time>
      </trkpt>
      <trkpt lat="42.39007" lon="2.10536">
        <ele>2446</ele>
        <time>2017-10-15T14:26:11.000Z</time>
      </trkpt>
      <trkpt lat="42.39006" lon="2.10537">
        <ele>2446</ele>
        <time>2017-10-15T14:26:12.000Z</time>
      </trkpt>
      <trkpt lat="42.39006" lon="2.10538">
        <ele>2446</ele>
        <time>2017-10-15T14:26:13.000Z</time>
      </trkpt>
      <trkpt lat="42.39005" lon="2.1054">
        <ele>2446</ele>
        <time>2017-10-15T14:26:14.000Z</time>
      </trkpt>
      <trkpt lat="42.39005" lon="2.10541">
        <ele>2445</ele>
        <time>2017-10-15T14:26:15.000Z</time>
      </trkpt>
      <trkpt lat="42.39004" lon="2.10542">
        <ele>2445</ele>
        <time>2017-10-15T14:26:16.000Z</time>
      </trkpt>
      <trkpt lat="42.39004" lon="2.10542">
        <ele>2445</ele>
        <time>2017-10-15T14:26:17.000Z</time>
      </trkpt>
      <trkpt lat="42.39003" lon="2.10543">
        <ele>2445</ele>
        <time>2017-10-15T14:26:18.000Z</time>
      </trkpt>
      <trkpt lat="42.39002" lon="2.10544">
        <ele>2445</ele>
        <time>2017-10-15T14:26:19.000Z</time>
      </trkpt>
      <trkpt lat="42.39002" lon="2.10544">
        <ele>2445</ele>
        <time>2017-10-15T14:26:20.000Z</time>
      </trkpt>
      <trkpt lat="42.39001" lon="2.10545">
        <ele>2445</ele>
        <time>2017-10-15T14:26:21.000Z</time>
      </trkpt>
      <trkpt lat="42.39" lon="2.10546">
        <ele>2445</ele>
        <time>2017-10-15T14:26:22.000Z</time>
      </trkpt>
      <trkpt lat="42.39" lon="2.10546">
        <ele>2445</ele>
        <time>2017-10-15T14:26:23.000Z</time>
      </trkpt>
      <trkpt lat="42.38999" lon="2.10547">
        <ele>2445</ele>
        <time>2017-10-15T14:26:24.000Z</time>
      </trkpt>
      <trkpt lat="42.39" lon="2.10547">
        <ele>2445</ele>
        <time>2017-10-15T14:26:25.000Z</time>
      </trkpt>
      <trkpt lat="42.38995" lon="2.10554">
        <ele>2443</ele>
        <time>2017-10-15T14:26:58.000Z</time>
      </trkpt>
      <trkpt lat="42.38994" lon="2.10555">
        <ele>2443</ele>
        <time>2017-10-15T14:26:59.000Z</time>
      </trkpt>
      <trkpt lat="42.38993" lon="2.10555">
        <ele>2443</ele>
        <time>2017-10-15T14:27:00.000Z</time>
      </trkpt>
      <trkpt lat="42.38992" lon="2.10555">
        <ele>2442</ele>
        <time>2017-10-15T14:27:02.000Z</time>
      </trkpt>
      <trkpt lat="42.38991" lon="2.10555">
        <ele>2442</ele>
        <time>2017-10-15T14:27:03.000Z</time>
      </trkpt>
      <trkpt lat="42.38991" lon="2.10555">
        <ele>2441</ele>
        <time>2017-10-15T14:27:04.000Z</time>
      </trkpt>
      <trkpt lat="42.3899" lon="2.10555">
        <ele>2441</ele>
        <time>2017-10-15T14:27:05.000Z</time>
      </trkpt>
      <trkpt lat="42.38989" lon="2.10555">
        <ele>2441</ele>
        <time>2017-10-15T14:27:06.000Z</time>
      </trkpt>
      <trkpt lat="42.38989" lon="2.10555">
        <ele>2441</ele>
        <time>2017-10-15T14:27:07.000Z</time>
      </trkpt>
      <trkpt lat="42.38988" lon="2.10556">
        <ele>2440</ele>
        <time>2017-10-15T14:27:08.000Z</time>
      </trkpt>
      <trkpt lat="42.38988" lon="2.10556">
        <ele>2440</ele>
        <time>2017-10-15T14:27:09.000Z</time>
      </trkpt>
      <trkpt lat="42.38987" lon="2.10556">
        <ele>2440</ele>
        <time>2017-10-15T14:27:10.000Z</time>
      </trkpt>
      <trkpt lat="42.38986" lon="2.10557">
        <ele>2440</ele>
        <time>2017-10-15T14:27:11.000Z</time>
      </trkpt>
      <trkpt lat="42.38986" lon="2.10557">
        <ele>2439</ele>
        <time>2017-10-15T14:27:12.000Z</time>
      </trkpt>
      <trkpt lat="42.38985" lon="2.10558">
        <ele>2439</ele>
        <time>2017-10-15T14:27:13.000Z</time>
      </trkpt>
      <trkpt lat="42.38984" lon="2.10559">
        <ele>2439</ele>
        <time>2017-10-15T14:27:14.000Z</time>
      </trkpt>
      <trkpt lat="42.38983" lon="2.10559">
        <ele>2438</ele>
        <time>2017-10-15T14:27:15.000Z</time>
      </trkpt>
      <trkpt lat="42.38982" lon="2.1056">
        <ele>2438</ele>
        <time>2017-10-15T14:27:16.000Z</time>
      </trkpt>
      <trkpt lat="42.38981" lon="2.1056">
        <ele>2438</ele>
        <time>2017-10-15T14:27:17.000Z</time>
      </trkpt>
      <trkpt lat="42.3898" lon="2.10561">
        <ele>2437</ele>
        <time>2017-10-15T14:27:18.000Z</time>
      </trkpt>
      <trkpt lat="42.38979" lon="2.10561">
        <ele>2437</ele>
        <time>2017-10-15T14:27:19.000Z</time>
      </trkpt>
      <trkpt lat="42.38978" lon="2.10561">
        <ele>2437</ele>
        <time>2017-10-15T14:27:20.000Z</time>
      </trkpt>
      <trkpt lat="42.38977" lon="2.10562">
        <ele>2437</ele>
        <time>2017-10-15T14:27:21.000Z</time>
      </trkpt>
      <trkpt lat="42.38976" lon="2.10562">
        <ele>2436</ele>
        <time>2017-10-15T14:27:22.000Z</time>
      </trkpt>
      <trkpt lat="42.38976" lon="2.10562">
        <ele>2436</ele>
        <time>2017-10-15T14:27:23.000Z</time>
      </trkpt>
      <trkpt lat="42.38975" lon="2.10562">
        <ele>2436</ele>
        <time>2017-10-15T14:27:24.000Z</time>
      </trkpt>
      <trkpt lat="42.38974" lon="2.10562">
        <ele>2436</ele>
        <time>2017-10-15T14:27:25.000Z</time>
      </trkpt>
      <trkpt lat="42.38974" lon="2.10562">
        <ele>2436</ele>
        <time>2017-10-15T14:27:26.000Z</time>
      </trkpt>
      <trkpt lat="42.38973" lon="2.10562">
        <ele>2435</ele>
        <time>2017-10-15T14:27:27.000Z</time>
      </trkpt>
      <trkpt lat="42.38972" lon="2.10562">
        <ele>2435</ele>
        <time>2017-10-15T14:27:28.000Z</time>
      </trkpt>
      <trkpt lat="42.38972" lon="2.10562">
        <ele>2435</ele>
        <time>2017-10-15T14:27:29.000Z</time>
      </trkpt>
      <trkpt lat="42.38971" lon="2.10562">
        <ele>2435</ele>
        <time>2017-10-15T14:27:30.000Z</time>
      </trkpt>
      <trkpt lat="42.38971" lon="2.10562">
        <ele>2435</ele>
        <time>2017-10-15T14:27:31.000Z</time>
      </trkpt>
      <trkpt lat="42.3897" lon="2.10562">
        <ele>2435</ele>
        <time>2017-10-15T14:27:32.000Z</time>
      </trkpt>
      <trkpt lat="42.3897" lon="2.10562">
        <ele>2434</ele>
        <time>2017-10-15T14:27:33.000Z</time>
      </trkpt>
      <trkpt lat="42.38969" lon="2.10563">
        <ele>2434</ele>
        <time>2017-10-15T14:27:34.000Z</time>
      </trkpt>
      <trkpt lat="42.38968" lon="2.10562">
        <ele>2434</ele>
        <time>2017-10-15T14:27:35.000Z</time>
      </trkpt>
      <trkpt lat="42.38968" lon="2.10562">
        <ele>2434</ele>
        <time>2017-10-15T14:27:36.000Z</time>
      </trkpt>
      <trkpt lat="42.38967" lon="2.10563">
        <ele>2434</ele>
        <time>2017-10-15T14:27:37.000Z</time>
      </trkpt>
      <trkpt lat="42.38966" lon="2.10563">
        <ele>2434</ele>
        <time>2017-10-15T14:27:38.000Z</time>
      </trkpt>
      <trkpt lat="42.38966" lon="2.10563">
        <ele>2433</ele>
        <time>2017-10-15T14:27:39.000Z</time>
      </trkpt>
      <trkpt lat="42.38965" lon="2.10563">
        <ele>2433</ele>
        <time>2017-10-15T14:27:40.000Z</time>
      </trkpt>
      <trkpt lat="42.38965" lon="2.10564">
        <ele>2433</ele>
        <time>2017-10-15T14:27:41.000Z</time>
      </trkpt>
      <trkpt lat="42.38965" lon="2.10564">
        <ele>2433</ele>
        <time>2017-10-15T14:27:42.000Z</time>
      </trkpt>
      <trkpt lat="42.38965" lon="2.10564">
        <ele>2433</ele>
        <time>2017-10-15T14:27:43.000Z</time>
      </trkpt>
      <trkpt lat="42.38961" lon="2.10567">
        <ele>2433</ele>
        <time>2017-10-15T14:27:50.000Z</time>
      </trkpt>
      <trkpt lat="42.3896" lon="2.10567">
        <ele>2432</ele>
        <time>2017-10-15T14:27:51.000Z</time>
      </trkpt>
      <trkpt lat="42.38959" lon="2.10568">
        <ele>2432</ele>
        <time>2017-10-15T14:27:52.000Z</time>
      </trkpt>
      <trkpt lat="42.38958" lon="2.10568">
        <ele>2432</ele>
        <time>2017-10-15T14:27:53.000Z</time>
      </trkpt>
      <trkpt lat="42.38958" lon="2.10569">
        <ele>2432</ele>
        <time>2017-10-15T14:27:54.000Z</time>
      </trkpt>
      <trkpt lat="42.38957" lon="2.10569">
        <ele>2432</ele>
        <time>2017-10-15T14:27:55.000Z</time>
      </trkpt>
      <trkpt lat="42.38956" lon="2.1057">
        <ele>2432</ele>
        <time>2017-10-15T14:27:56.000Z</time>
      </trkpt>
      <trkpt lat="42.38955" lon="2.10571">
        <ele>2432</ele>
        <time>2017-10-15T14:27:57.000Z</time>
      </trkpt>
      <trkpt lat="42.38955" lon="2.10571">
        <ele>2432</ele>
        <time>2017-10-15T14:27:58.000Z</time>
      </trkpt>
      <trkpt lat="42.38954" lon="2.10572">
        <ele>2432</ele>
        <time>2017-10-15T14:27:59.000Z</time>
      </trkpt>
      <trkpt lat="42.38953" lon="2.10573">
        <ele>2431</ele>
        <time>2017-10-15T14:28:00.000Z</time>
      </trkpt>
      <trkpt lat="42.38953" lon="2.10573">
        <ele>2431</ele>
        <time>2017-10-15T14:28:01.000Z</time>
      </trkpt>
      <trkpt lat="42.38952" lon="2.10573">
        <ele>2431</ele>
        <time>2017-10-15T14:28:02.000Z</time>
      </trkpt>
      <trkpt lat="42.38951" lon="2.10574">
        <ele>2431</ele>
        <time>2017-10-15T14:28:03.000Z</time>
      </trkpt>
      <trkpt lat="42.3895" lon="2.10574">
        <ele>2431</ele>
        <time>2017-10-15T14:28:04.000Z</time>
      </trkpt>
      <trkpt lat="42.3895" lon="2.10574">
        <ele>2431</ele>
        <time>2017-10-15T14:28:05.000Z</time>
      </trkpt>
      <trkpt lat="42.38949" lon="2.10575">
        <ele>2431</ele>
        <time>2017-10-15T14:28:06.000Z</time>
      </trkpt>
      <trkpt lat="42.38948" lon="2.10575">
        <ele>2430</ele>
        <time>2017-10-15T14:28:07.000Z</time>
      </trkpt>
      <trkpt lat="42.38947" lon="2.10576">
        <ele>2430</ele>
        <time>2017-10-15T14:28:08.000Z</time>
      </trkpt>
      <trkpt lat="42.38947" lon="2.10577">
        <ele>2430</ele>
        <time>2017-10-15T14:28:09.000Z</time>
      </trkpt>
      <trkpt lat="42.38946" lon="2.10577">
        <ele>2430</ele>
        <time>2017-10-15T14:28:10.000Z</time>
      </trkpt>
      <trkpt lat="42.38945" lon="2.10577">
        <ele>2430</ele>
        <time>2017-10-15T14:28:11.000Z</time>
      </trkpt>
      <trkpt lat="42.38945" lon="2.10578">
        <ele>2430</ele>
        <time>2017-10-15T14:28:12.000Z</time>
      </trkpt>
      <trkpt lat="42.38944" lon="2.10579">
        <ele>2430</ele>
        <time>2017-10-15T14:28:13.000Z</time>
      </trkpt>
      <trkpt lat="42.38943" lon="2.10579">
        <ele>2430</ele>
        <time>2017-10-15T14:28:14.000Z</time>
      </trkpt>
      <trkpt lat="42.38943" lon="2.10579">
        <ele>2429</ele>
        <time>2017-10-15T14:28:15.000Z</time>
      </trkpt>
      <trkpt lat="42.38943" lon="2.10579">
        <ele>2429</ele>
        <time>2017-10-15T14:28:16.000Z</time>
      </trkpt>
      <trkpt lat="42.38942" lon="2.10581">
        <ele>2430</ele>
        <time>2017-10-15T14:28:17.000Z</time>
      </trkpt>
      <trkpt lat="42.38942" lon="2.10581">
        <ele>2430</ele>
        <time>2017-10-15T14:28:18.000Z</time>
      </trkpt>
      <trkpt lat="42.38941" lon="2.10582">
        <ele>2429</ele>
        <time>2017-10-15T14:28:19.000Z</time>
      </trkpt>
      <trkpt lat="42.3894" lon="2.10583">
        <ele>2429</ele>
        <time>2017-10-15T14:28:20.000Z</time>
      </trkpt>
      <trkpt lat="42.38939" lon="2.10584">
        <ele>2429</ele>
        <time>2017-10-15T14:28:21.000Z</time>
      </trkpt>
      <trkpt lat="42.38938" lon="2.10585">
        <ele>2429</ele>
        <time>2017-10-15T14:28:22.000Z</time>
      </trkpt>
      <trkpt lat="42.38937" lon="2.10586">
        <ele>2429</ele>
        <time>2017-10-15T14:28:23.000Z</time>
      </trkpt>
      <trkpt lat="42.38936" lon="2.10587">
        <ele>2429</ele>
        <time>2017-10-15T14:28:24.000Z</time>
      </trkpt>
      <trkpt lat="42.38935" lon="2.10588">
        <ele>2428</ele>
        <time>2017-10-15T14:28:25.000Z</time>
      </trkpt>
      <trkpt lat="42.38933" lon="2.10589">
        <ele>2428</ele>
        <time>2017-10-15T14:28:26.000Z</time>
      </trkpt>
      <trkpt lat="42.38932" lon="2.10589">
        <ele>2428</ele>
        <time>2017-10-15T14:28:27.000Z</time>
      </trkpt>
      <trkpt lat="42.38932" lon="2.1059">
        <ele>2428</ele>
        <time>2017-10-15T14:28:28.000Z</time>
      </trkpt>
      <trkpt lat="42.3893" lon="2.1059">
        <ele>2428</ele>
        <time>2017-10-15T14:28:29.000Z</time>
      </trkpt>
      <trkpt lat="42.38929" lon="2.10591">
        <ele>2427</ele>
        <time>2017-10-15T14:28:30.000Z</time>
      </trkpt>
      <trkpt lat="42.38928" lon="2.10592">
        <ele>2427</ele>
        <time>2017-10-15T14:28:31.000Z</time>
      </trkpt>
      <trkpt lat="42.38927" lon="2.10592">
        <ele>2427</ele>
        <time>2017-10-15T14:28:32.000Z</time>
      </trkpt>
      <trkpt lat="42.38926" lon="2.10593">
        <ele>2427</ele>
        <time>2017-10-15T14:28:33.000Z</time>
      </trkpt>
      <trkpt lat="42.38925" lon="2.10593">
        <ele>2427</ele>
        <time>2017-10-15T14:28:34.000Z</time>
      </trkpt>
      <trkpt lat="42.38923" lon="2.10593">
        <ele>2427</ele>
        <time>2017-10-15T14:28:35.000Z</time>
      </trkpt>
      <trkpt lat="42.38922" lon="2.10594">
        <ele>2426</ele>
        <time>2017-10-15T14:28:36.000Z</time>
      </trkpt>
      <trkpt lat="42.38921" lon="2.10594">
        <ele>2426</ele>
        <time>2017-10-15T14:28:37.000Z</time>
      </trkpt>
      <trkpt lat="42.3892" lon="2.10595">
        <ele>2426</ele>
        <time>2017-10-15T14:28:38.000Z</time>
      </trkpt>
      <trkpt lat="42.38919" lon="2.10595">
        <ele>2426</ele>
        <time>2017-10-15T14:28:39.000Z</time>
      </trkpt>
      <trkpt lat="42.38918" lon="2.10595">
        <ele>2426</ele>
        <time>2017-10-15T14:28:40.000Z</time>
      </trkpt>
      <trkpt lat="42.38917" lon="2.10595">
        <ele>2426</ele>
        <time>2017-10-15T14:28:41.000Z</time>
      </trkpt>
      <trkpt lat="42.38916" lon="2.10596">
        <ele>2425</ele>
        <time>2017-10-15T14:28:42.000Z</time>
      </trkpt>
      <trkpt lat="42.38915" lon="2.10596">
        <ele>2425</ele>
        <time>2017-10-15T14:28:43.000Z</time>
      </trkpt>
      <trkpt lat="42.38914" lon="2.10596">
        <ele>2425</ele>
        <time>2017-10-15T14:28:44.000Z</time>
      </trkpt>
      <trkpt lat="42.38913" lon="2.10596">
        <ele>2425</ele>
        <time>2017-10-15T14:28:45.000Z</time>
      </trkpt>
      <trkpt lat="42.38912" lon="2.10596">
        <ele>2425</ele>
        <time>2017-10-15T14:28:46.000Z</time>
      </trkpt>
      <trkpt lat="42.38912" lon="2.10596">
        <ele>2425</ele>
        <time>2017-10-15T14:28:47.000Z</time>
      </trkpt>
      <trkpt lat="42.38911" lon="2.10596">
        <ele>2425</ele>
        <time>2017-10-15T14:28:48.000Z</time>
      </trkpt>
      <trkpt lat="42.3891" lon="2.10596">
        <ele>2425</ele>
        <time>2017-10-15T14:28:49.000Z</time>
      </trkpt>
      <trkpt lat="42.3891" lon="2.10596">
        <ele>2424</ele>
        <time>2017-10-15T14:28:50.000Z</time>
      </trkpt>
      <trkpt lat="42.38909" lon="2.10596">
        <ele>2424</ele>
        <time>2017-10-15T14:28:51.000Z</time>
      </trkpt>
      <trkpt lat="42.38909" lon="2.10596">
        <ele>2424</ele>
        <time>2017-10-15T14:28:52.000Z</time>
      </trkpt>
      <trkpt lat="42.38908" lon="2.10595">
        <ele>2424</ele>
        <time>2017-10-15T14:28:53.000Z</time>
      </trkpt>
      <trkpt lat="42.38907" lon="2.10595">
        <ele>2424</ele>
        <time>2017-10-15T14:28:54.000Z</time>
      </trkpt>
      <trkpt lat="42.38906" lon="2.10595">
        <ele>2424</ele>
        <time>2017-10-15T14:28:55.000Z</time>
      </trkpt>
      <trkpt lat="42.38906" lon="2.10595">
        <ele>2424</ele>
        <time>2017-10-15T14:28:56.000Z</time>
      </trkpt>
      <trkpt lat="42.38905" lon="2.10595">
        <ele>2423</ele>
        <time>2017-10-15T14:28:57.000Z</time>
      </trkpt>
      <trkpt lat="42.38904" lon="2.10594">
        <ele>2423</ele>
        <time>2017-10-15T14:28:58.000Z</time>
      </trkpt>
      <trkpt lat="42.38903" lon="2.10595">
        <ele>2423</ele>
        <time>2017-10-15T14:28:59.000Z</time>
      </trkpt>
      <trkpt lat="42.38902" lon="2.10595">
        <ele>2423</ele>
        <time>2017-10-15T14:29:00.000Z</time>
      </trkpt>
      <trkpt lat="42.38901" lon="2.10595">
        <ele>2423</ele>
        <time>2017-10-15T14:29:01.000Z</time>
      </trkpt>
      <trkpt lat="42.38901" lon="2.10595">
        <ele>2423</ele>
        <time>2017-10-15T14:29:02.000Z</time>
      </trkpt>
      <trkpt lat="42.389" lon="2.10595">
        <ele>2423</ele>
        <time>2017-10-15T14:29:03.000Z</time>
      </trkpt>
      <trkpt lat="42.389" lon="2.10595">
        <ele>2423</ele>
        <time>2017-10-15T14:29:04.000Z</time>
      </trkpt>
      <trkpt lat="42.38899" lon="2.10595">
        <ele>2423</ele>
        <time>2017-10-15T14:29:05.000Z</time>
      </trkpt>
      <trkpt lat="42.38898" lon="2.10595">
        <ele>2422</ele>
        <time>2017-10-15T14:29:06.000Z</time>
      </trkpt>
      <trkpt lat="42.38897" lon="2.10595">
        <ele>2422</ele>
        <time>2017-10-15T14:29:07.000Z</time>
      </trkpt>
      <trkpt lat="42.38896" lon="2.10595">
        <ele>2422</ele>
        <time>2017-10-15T14:29:08.000Z</time>
      </trkpt>
      <trkpt lat="42.38896" lon="2.10595">
        <ele>2422</ele>
        <time>2017-10-15T14:29:09.000Z</time>
      </trkpt>
      <trkpt lat="42.38895" lon="2.10595">
        <ele>2422</ele>
        <time>2017-10-15T14:29:10.000Z</time>
      </trkpt>
      <trkpt lat="42.38894" lon="2.10595">
        <ele>2422</ele>
        <time>2017-10-15T14:29:11.000Z</time>
      </trkpt>
      <trkpt lat="42.38894" lon="2.10596">
        <ele>2422</ele>
        <time>2017-10-15T14:29:12.000Z</time>
      </trkpt>
      <trkpt lat="42.38893" lon="2.10596">
        <ele>2422</ele>
        <time>2017-10-15T14:29:13.000Z</time>
      </trkpt>
      <trkpt lat="42.38892" lon="2.10596">
        <ele>2422</ele>
        <time>2017-10-15T14:29:14.000Z</time>
      </trkpt>
      <trkpt lat="42.38892" lon="2.10596">
        <ele>2422</ele>
        <time>2017-10-15T14:29:15.000Z</time>
      </trkpt>
      <trkpt lat="42.38891" lon="2.10596">
        <ele>2422</ele>
        <time>2017-10-15T14:29:16.000Z</time>
      </trkpt>
      <trkpt lat="42.38891" lon="2.10596">
        <ele>2422</ele>
        <time>2017-10-15T14:29:17.000Z</time>
      </trkpt>
      <trkpt lat="42.38891" lon="2.10596">
        <ele>2422</ele>
        <time>2017-10-15T14:29:18.000Z</time>
      </trkpt>
      <trkpt lat="42.3889" lon="2.10596">
        <ele>2422</ele>
        <time>2017-10-15T14:29:19.000Z</time>
      </trkpt>
      <trkpt lat="42.3889" lon="2.10595">
        <ele>2421</ele>
        <time>2017-10-15T14:29:20.000Z</time>
      </trkpt>
      <trkpt lat="42.3889" lon="2.10594">
        <ele>2421</ele>
        <time>2017-10-15T14:29:21.000Z</time>
      </trkpt>
      <trkpt lat="42.3889" lon="2.10593">
        <ele>2421</ele>
        <time>2017-10-15T14:29:22.000Z</time>
      </trkpt>
      <trkpt lat="42.38891" lon="2.10592">
        <ele>2421</ele>
        <time>2017-10-15T14:29:23.000Z</time>
      </trkpt>
      <trkpt lat="42.38891" lon="2.10592">
        <ele>2421</ele>
        <time>2017-10-15T14:29:24.000Z</time>
      </trkpt>
      <trkpt lat="42.38891" lon="2.10591">
        <ele>2421</ele>
        <time>2017-10-15T14:29:25.000Z</time>
      </trkpt>
      <trkpt lat="42.38891" lon="2.10591">
        <ele>2420</ele>
        <time>2017-10-15T14:29:26.000Z</time>
      </trkpt>
      <trkpt lat="42.38891" lon="2.1059">
        <ele>2420</ele>
        <time>2017-10-15T14:29:27.000Z</time>
      </trkpt>
      <trkpt lat="42.38891" lon="2.1059">
        <ele>2420</ele>
        <time>2017-10-15T14:29:28.000Z</time>
      </trkpt>
      <trkpt lat="42.3889" lon="2.10589">
        <ele>2420</ele>
        <time>2017-10-15T14:29:29.000Z</time>
      </trkpt>
      <trkpt lat="42.3889" lon="2.10589">
        <ele>2420</ele>
        <time>2017-10-15T14:29:30.000Z</time>
      </trkpt>
      <trkpt lat="42.3889" lon="2.10589">
        <ele>2420</ele>
        <time>2017-10-15T14:29:31.000Z</time>
      </trkpt>
      <trkpt lat="42.38889" lon="2.10589">
        <ele>2420</ele>
        <time>2017-10-15T14:29:32.000Z</time>
      </trkpt>
      <trkpt lat="42.38883" lon="2.10589">
        <ele>2419</ele>
        <time>2017-10-15T14:29:45.000Z</time>
      </trkpt>
      <trkpt lat="42.38883" lon="2.10588">
        <ele>2419</ele>
        <time>2017-10-15T14:29:46.000Z</time>
      </trkpt>
      <trkpt lat="42.38882" lon="2.10588">
        <ele>2418</ele>
        <time>2017-10-15T14:29:47.000Z</time>
      </trkpt>
      <trkpt lat="42.38881" lon="2.10588">
        <ele>2418</ele>
        <time>2017-10-15T14:29:48.000Z</time>
      </trkpt>
      <trkpt lat="42.38881" lon="2.10588">
        <ele>2418</ele>
        <time>2017-10-15T14:29:49.000Z</time>
      </trkpt>
      <trkpt lat="42.3888" lon="2.10588">
        <ele>2418</ele>
        <time>2017-10-15T14:29:50.000Z</time>
      </trkpt>
      <trkpt lat="42.3888" lon="2.10587">
        <ele>2418</ele>
        <time>2017-10-15T14:29:51.000Z</time>
      </trkpt>
      <trkpt lat="42.38879" lon="2.10587">
        <ele>2418</ele>
        <time>2017-10-15T14:29:52.000Z</time>
      </trkpt>
      <trkpt lat="42.38878" lon="2.10587">
        <ele>2418</ele>
        <time>2017-10-15T14:29:53.000Z</time>
      </trkpt>
      <trkpt lat="42.38878" lon="2.10587">
        <ele>2417</ele>
        <time>2017-10-15T14:29:54.000Z</time>
      </trkpt>
      <trkpt lat="42.38878" lon="2.10587">
        <ele>2417</ele>
        <time>2017-10-15T14:29:55.000Z</time>
      </trkpt>
      <trkpt lat="42.38877" lon="2.10587">
        <ele>2417</ele>
        <time>2017-10-15T14:29:56.000Z</time>
      </trkpt>
      <trkpt lat="42.38877" lon="2.10587">
        <ele>2417</ele>
        <time>2017-10-15T14:29:57.000Z</time>
      </trkpt>
      <trkpt lat="42.38876" lon="2.10587">
        <ele>2417</ele>
        <time>2017-10-15T14:29:58.000Z</time>
      </trkpt>
      <trkpt lat="42.38875" lon="2.10587">
        <ele>2417</ele>
        <time>2017-10-15T14:29:59.000Z</time>
      </trkpt>
      <trkpt lat="42.38874" lon="2.10588">
        <ele>2417</ele>
        <time>2017-10-15T14:30:00.000Z</time>
      </trkpt>
      <trkpt lat="42.38874" lon="2.10588">
        <ele>2417</ele>
        <time>2017-10-15T14:30:01.000Z</time>
      </trkpt>
      <trkpt lat="42.38873" lon="2.10588">
        <ele>2417</ele>
        <time>2017-10-15T14:30:02.000Z</time>
      </trkpt>
      <trkpt lat="42.38872" lon="2.10589">
        <ele>2417</ele>
        <time>2017-10-15T14:30:03.000Z</time>
      </trkpt>
      <trkpt lat="42.38872" lon="2.1059">
        <ele>2417</ele>
        <time>2017-10-15T14:30:04.000Z</time>
      </trkpt>
      <trkpt lat="42.38871" lon="2.10591">
        <ele>2418</ele>
        <time>2017-10-15T14:30:05.000Z</time>
      </trkpt>
      <trkpt lat="42.3887" lon="2.10592">
        <ele>2418</ele>
        <time>2017-10-15T14:30:06.000Z</time>
      </trkpt>
      <trkpt lat="42.38869" lon="2.10593">
        <ele>2418</ele>
        <time>2017-10-15T14:30:07.000Z</time>
      </trkpt>
      <trkpt lat="42.38868" lon="2.10594">
        <ele>2418</ele>
        <time>2017-10-15T14:30:08.000Z</time>
      </trkpt>
      <trkpt lat="42.38867" lon="2.10594">
        <ele>2418</ele>
        <time>2017-10-15T14:30:09.000Z</time>
      </trkpt>
      <trkpt lat="42.38866" lon="2.10594">
        <ele>2418</ele>
        <time>2017-10-15T14:30:10.000Z</time>
      </trkpt>
      <trkpt lat="42.38865" lon="2.10595">
        <ele>2418</ele>
        <time>2017-10-15T14:30:11.000Z</time>
      </trkpt>
      <trkpt lat="42.38864" lon="2.10595">
        <ele>2418</ele>
        <time>2017-10-15T14:30:12.000Z</time>
      </trkpt>
      <trkpt lat="42.38863" lon="2.10595">
        <ele>2417</ele>
        <time>2017-10-15T14:30:13.000Z</time>
      </trkpt>
      <trkpt lat="42.38862" lon="2.10594">
        <ele>2417</ele>
        <time>2017-10-15T14:30:14.000Z</time>
      </trkpt>
      <trkpt lat="42.38861" lon="2.10594">
        <ele>2417</ele>
        <time>2017-10-15T14:30:15.000Z</time>
      </trkpt>
      <trkpt lat="42.38861" lon="2.10594">
        <ele>2417</ele>
        <time>2017-10-15T14:30:16.000Z</time>
      </trkpt>
      <trkpt lat="42.3886" lon="2.10594">
        <ele>2417</ele>
        <time>2017-10-15T14:30:17.000Z</time>
      </trkpt>
      <trkpt lat="42.38859" lon="2.10593">
        <ele>2417</ele>
        <time>2017-10-15T14:30:18.000Z</time>
      </trkpt>
      <trkpt lat="42.38858" lon="2.10593">
        <ele>2416</ele>
        <time>2017-10-15T14:30:19.000Z</time>
      </trkpt>
      <trkpt lat="42.38857" lon="2.10593">
        <ele>2416</ele>
        <time>2017-10-15T14:30:20.000Z</time>
      </trkpt>
      <trkpt lat="42.38857" lon="2.10593">
        <ele>2416</ele>
        <time>2017-10-15T14:30:21.000Z</time>
      </trkpt>
      <trkpt lat="42.38856" lon="2.10592">
        <ele>2416</ele>
        <time>2017-10-15T14:30:22.000Z</time>
      </trkpt>
      <trkpt lat="42.38855" lon="2.10591">
        <ele>2415</ele>
        <time>2017-10-15T14:30:23.000Z</time>
      </trkpt>
      <trkpt lat="42.38855" lon="2.10591">
        <ele>2415</ele>
        <time>2017-10-15T14:30:24.000Z</time>
      </trkpt>
      <trkpt lat="42.38854" lon="2.1059">
        <ele>2415</ele>
        <time>2017-10-15T14:30:25.000Z</time>
      </trkpt>
      <trkpt lat="42.38853" lon="2.1059">
        <ele>2415</ele>
        <time>2017-10-15T14:30:26.000Z</time>
      </trkpt>
      <trkpt lat="42.38853" lon="2.10588">
        <ele>2414</ele>
        <time>2017-10-15T14:30:27.000Z</time>
      </trkpt>
      <trkpt lat="42.38853" lon="2.10588">
        <ele>2414</ele>
        <time>2017-10-15T14:30:28.000Z</time>
      </trkpt>
      <trkpt lat="42.38852" lon="2.10587">
        <ele>2414</ele>
        <time>2017-10-15T14:30:29.000Z</time>
      </trkpt>
      <trkpt lat="42.38852" lon="2.10587">
        <ele>2414</ele>
        <time>2017-10-15T14:30:30.000Z</time>
      </trkpt>
      <trkpt lat="42.38851" lon="2.10587">
        <ele>2413</ele>
        <time>2017-10-15T14:30:31.000Z</time>
      </trkpt>
      <trkpt lat="42.3885" lon="2.10586">
        <ele>2413</ele>
        <time>2017-10-15T14:30:32.000Z</time>
      </trkpt>
      <trkpt lat="42.38849" lon="2.10585">
        <ele>2413</ele>
        <time>2017-10-15T14:30:33.000Z</time>
      </trkpt>
      <trkpt lat="42.38848" lon="2.10585">
        <ele>2413</ele>
        <time>2017-10-15T14:30:34.000Z</time>
      </trkpt>
      <trkpt lat="42.38847" lon="2.10584">
        <ele>2412</ele>
        <time>2017-10-15T14:30:35.000Z</time>
      </trkpt>
      <trkpt lat="42.38847" lon="2.10584">
        <ele>2412</ele>
        <time>2017-10-15T14:30:36.000Z</time>
      </trkpt>
      <trkpt lat="42.38846" lon="2.10583">
        <ele>2412</ele>
        <time>2017-10-15T14:30:37.000Z</time>
      </trkpt>
      <trkpt lat="42.38845" lon="2.10582">
        <ele>2411</ele>
        <time>2017-10-15T14:30:38.000Z</time>
      </trkpt>
      <trkpt lat="42.38844" lon="2.10581">
        <ele>2411</ele>
        <time>2017-10-15T14:30:39.000Z</time>
      </trkpt>
      <trkpt lat="42.38843" lon="2.10581">
        <ele>2411</ele>
        <time>2017-10-15T14:30:40.000Z</time>
      </trkpt>
      <trkpt lat="42.38843" lon="2.1058">
        <ele>2410</ele>
        <time>2017-10-15T14:30:41.000Z</time>
      </trkpt>
      <trkpt lat="42.38842" lon="2.10579">
        <ele>2410</ele>
        <time>2017-10-15T14:30:42.000Z</time>
      </trkpt>
      <trkpt lat="42.38841" lon="2.10578">
        <ele>2410</ele>
        <time>2017-10-15T14:30:43.000Z</time>
      </trkpt>
      <trkpt lat="42.38841" lon="2.10578">
        <ele>2410</ele>
        <time>2017-10-15T14:30:44.000Z</time>
      </trkpt>
      <trkpt lat="42.3884" lon="2.10577">
        <ele>2409</ele>
        <time>2017-10-15T14:30:45.000Z</time>
      </trkpt>
      <trkpt lat="42.38839" lon="2.10576">
        <ele>2409</ele>
        <time>2017-10-15T14:30:46.000Z</time>
      </trkpt>
      <trkpt lat="42.38838" lon="2.10576">
        <ele>2409</ele>
        <time>2017-10-15T14:30:47.000Z</time>
      </trkpt>
      <trkpt lat="42.38837" lon="2.10575">
        <ele>2408</ele>
        <time>2017-10-15T14:30:48.000Z</time>
      </trkpt>
      <trkpt lat="42.38837" lon="2.10575">
        <ele>2408</ele>
        <time>2017-10-15T14:30:49.000Z</time>
      </trkpt>
      <trkpt lat="42.38836" lon="2.10574">
        <ele>2408</ele>
        <time>2017-10-15T14:30:50.000Z</time>
      </trkpt>
      <trkpt lat="42.38835" lon="2.10573">
        <ele>2407</ele>
        <time>2017-10-15T14:30:51.000Z</time>
      </trkpt>
      <trkpt lat="42.38835" lon="2.10571">
        <ele>2407</ele>
        <time>2017-10-15T14:30:52.000Z</time>
      </trkpt>
      <trkpt lat="42.38833" lon="2.10569">
        <ele>2406</ele>
        <time>2017-10-15T14:30:54.000Z</time>
      </trkpt>
      <trkpt lat="42.38832" lon="2.10568">
        <ele>2406</ele>
        <time>2017-10-15T14:30:55.000Z</time>
      </trkpt>
      <trkpt lat="42.38831" lon="2.10568">
        <ele>2405</ele>
        <time>2017-10-15T14:30:56.000Z</time>
      </trkpt>
      <trkpt lat="42.38831" lon="2.10567">
        <ele>2405</ele>
        <time>2017-10-15T14:30:57.000Z</time>
      </trkpt>
      <trkpt lat="42.3883" lon="2.10567">
        <ele>2405</ele>
        <time>2017-10-15T14:30:58.000Z</time>
      </trkpt>
      <trkpt lat="42.38829" lon="2.10567">
        <ele>2405</ele>
        <time>2017-10-15T14:30:59.000Z</time>
      </trkpt>
      <trkpt lat="42.38828" lon="2.10566">
        <ele>2405</ele>
        <time>2017-10-15T14:31:00.000Z</time>
      </trkpt>
      <trkpt lat="42.38827" lon="2.10565">
        <ele>2405</ele>
        <time>2017-10-15T14:31:01.000Z</time>
      </trkpt>
      <trkpt lat="42.38827" lon="2.10564">
        <ele>2405</ele>
        <time>2017-10-15T14:31:02.000Z</time>
      </trkpt>
      <trkpt lat="42.38826" lon="2.10564">
        <ele>2405</ele>
        <time>2017-10-15T14:31:03.000Z</time>
      </trkpt>
      <trkpt lat="42.38826" lon="2.10563">
        <ele>2405</ele>
        <time>2017-10-15T14:31:04.000Z</time>
      </trkpt>
      <trkpt lat="42.38825" lon="2.10563">
        <ele>2405</ele>
        <time>2017-10-15T14:31:05.000Z</time>
      </trkpt>
      <trkpt lat="42.38824" lon="2.10562">
        <ele>2404</ele>
        <time>2017-10-15T14:31:06.000Z</time>
      </trkpt>
      <trkpt lat="42.38824" lon="2.10562">
        <ele>2404</ele>
        <time>2017-10-15T14:31:07.000Z</time>
      </trkpt>
      <trkpt lat="42.38823" lon="2.1056">
        <ele>2404</ele>
        <time>2017-10-15T14:31:09.000Z</time>
      </trkpt>
      <trkpt lat="42.38823" lon="2.10559">
        <ele>2404</ele>
        <time>2017-10-15T14:31:10.000Z</time>
      </trkpt>
      <trkpt lat="42.38823" lon="2.10559">
        <ele>2403</ele>
        <time>2017-10-15T14:31:11.000Z</time>
      </trkpt>
      <trkpt lat="42.38823" lon="2.10558">
        <ele>2403</ele>
        <time>2017-10-15T14:31:12.000Z</time>
      </trkpt>
      <trkpt lat="42.38822" lon="2.10557">
        <ele>2403</ele>
        <time>2017-10-15T14:31:13.000Z</time>
      </trkpt>
      <trkpt lat="42.38822" lon="2.10556">
        <ele>2403</ele>
        <time>2017-10-15T14:31:14.000Z</time>
      </trkpt>
      <trkpt lat="42.38821" lon="2.10555">
        <ele>2403</ele>
        <time>2017-10-15T14:31:15.000Z</time>
      </trkpt>
      <trkpt lat="42.38821" lon="2.10554">
        <ele>2402</ele>
        <time>2017-10-15T14:31:16.000Z</time>
      </trkpt>
      <trkpt lat="42.38821" lon="2.10554">
        <ele>2402</ele>
        <time>2017-10-15T14:31:17.000Z</time>
      </trkpt>
      <trkpt lat="42.38821" lon="2.10553">
        <ele>2402</ele>
        <time>2017-10-15T14:31:18.000Z</time>
      </trkpt>
      <trkpt lat="42.3882" lon="2.10552">
        <ele>2402</ele>
        <time>2017-10-15T14:31:19.000Z</time>
      </trkpt>
      <trkpt lat="42.3882" lon="2.10552">
        <ele>2402</ele>
        <time>2017-10-15T14:31:20.000Z</time>
      </trkpt>
      <trkpt lat="42.3882" lon="2.10551">
        <ele>2402</ele>
        <time>2017-10-15T14:31:21.000Z</time>
      </trkpt>
      <trkpt lat="42.38819" lon="2.10551">
        <ele>2401</ele>
        <time>2017-10-15T14:31:22.000Z</time>
      </trkpt>
      <trkpt lat="42.38819" lon="2.1055">
        <ele>2401</ele>
        <time>2017-10-15T14:31:23.000Z</time>
      </trkpt>
      <trkpt lat="42.38819" lon="2.10548">
        <ele>2401</ele>
        <time>2017-10-15T14:31:24.000Z</time>
      </trkpt>
      <trkpt lat="42.38819" lon="2.10548">
        <ele>2401</ele>
        <time>2017-10-15T14:31:25.000Z</time>
      </trkpt>
      <trkpt lat="42.38819" lon="2.10547">
        <ele>2400</ele>
        <time>2017-10-15T14:31:26.000Z</time>
      </trkpt>
      <trkpt lat="42.3882" lon="2.10546">
        <ele>2400</ele>
        <time>2017-10-15T14:31:27.000Z</time>
      </trkpt>
      <trkpt lat="42.3882" lon="2.10545">
        <ele>2400</ele>
        <time>2017-10-15T14:31:28.000Z</time>
      </trkpt>
      <trkpt lat="42.38821" lon="2.10544">
        <ele>2399</ele>
        <time>2017-10-15T14:31:29.000Z</time>
      </trkpt>
      <trkpt lat="42.38822" lon="2.10544">
        <ele>2399</ele>
        <time>2017-10-15T14:31:30.000Z</time>
      </trkpt>
      <trkpt lat="42.38822" lon="2.10543">
        <ele>2399</ele>
        <time>2017-10-15T14:31:31.000Z</time>
      </trkpt>
      <trkpt lat="42.38822" lon="2.10543">
        <ele>2399</ele>
        <time>2017-10-15T14:31:32.000Z</time>
      </trkpt>
      <trkpt lat="42.38823" lon="2.10542">
        <ele>2398</ele>
        <time>2017-10-15T14:31:33.000Z</time>
      </trkpt>
      <trkpt lat="42.38823" lon="2.10541">
        <ele>2398</ele>
        <time>2017-10-15T14:31:34.000Z</time>
      </trkpt>
      <trkpt lat="42.38824" lon="2.10541">
        <ele>2398</ele>
        <time>2017-10-15T14:31:35.000Z</time>
      </trkpt>
      <trkpt lat="42.38824" lon="2.1054">
        <ele>2397</ele>
        <time>2017-10-15T14:31:36.000Z</time>
      </trkpt>
      <trkpt lat="42.38825" lon="2.1054">
        <ele>2397</ele>
        <time>2017-10-15T14:31:37.000Z</time>
      </trkpt>
      <trkpt lat="42.38825" lon="2.10539">
        <ele>2397</ele>
        <time>2017-10-15T14:31:38.000Z</time>
      </trkpt>
      <trkpt lat="42.38826" lon="2.10539">
        <ele>2397</ele>
        <time>2017-10-15T14:31:39.000Z</time>
      </trkpt>
      <trkpt lat="42.38827" lon="2.10539">
        <ele>2397</ele>
        <time>2017-10-15T14:31:40.000Z</time>
      </trkpt>
      <trkpt lat="42.38828" lon="2.10539">
        <ele>2397</ele>
        <time>2017-10-15T14:31:41.000Z</time>
      </trkpt>
      <trkpt lat="42.38828" lon="2.10539">
        <ele>2397</ele>
        <time>2017-10-15T14:31:42.000Z</time>
      </trkpt>
      <trkpt lat="42.38829" lon="2.10539">
        <ele>2396</ele>
        <time>2017-10-15T14:31:43.000Z</time>
      </trkpt>
      <trkpt lat="42.38829" lon="2.10539">
        <ele>2396</ele>
        <time>2017-10-15T14:31:44.000Z</time>
      </trkpt>
      <trkpt lat="42.3883" lon="2.10539">
        <ele>2396</ele>
        <time>2017-10-15T14:31:45.000Z</time>
      </trkpt>
      <trkpt lat="42.3883" lon="2.10538">
        <ele>2396</ele>
        <time>2017-10-15T14:31:46.000Z</time>
      </trkpt>
      <trkpt lat="42.38831" lon="2.10538">
        <ele>2396</ele>
        <time>2017-10-15T14:31:47.000Z</time>
      </trkpt>
      <trkpt lat="42.38831" lon="2.10538">
        <ele>2396</ele>
        <time>2017-10-15T14:31:48.000Z</time>
      </trkpt>
      <trkpt lat="42.38832" lon="2.10537">
        <ele>2396</ele>
        <time>2017-10-15T14:31:49.000Z</time>
      </trkpt>
      <trkpt lat="42.38832" lon="2.10537">
        <ele>2396</ele>
        <time>2017-10-15T14:31:50.000Z</time>
      </trkpt>
      <trkpt lat="42.38833" lon="2.10537">
        <ele>2396</ele>
        <time>2017-10-15T14:31:51.000Z</time>
      </trkpt>
      <trkpt lat="42.38833" lon="2.10536">
        <ele>2396</ele>
        <time>2017-10-15T14:31:52.000Z</time>
      </trkpt>
      <trkpt lat="42.38834" lon="2.10536">
        <ele>2396</ele>
        <time>2017-10-15T14:31:53.000Z</time>
      </trkpt>
      <trkpt lat="42.38834" lon="2.10536">
        <ele>2396</ele>
        <time>2017-10-15T14:31:54.000Z</time>
      </trkpt>
      <trkpt lat="42.38834" lon="2.10536">
        <ele>2396</ele>
        <time>2017-10-15T14:31:55.000Z</time>
      </trkpt>
      <trkpt lat="42.38835" lon="2.10536">
        <ele>2396</ele>
        <time>2017-10-15T14:31:56.000Z</time>
      </trkpt>
      <trkpt lat="42.38846" lon="2.10524">
        <ele>2394</ele>
        <time>2017-10-15T14:32:22.000Z</time>
      </trkpt>
      <trkpt lat="42.38846" lon="2.10523">
        <ele>2393</ele>
        <time>2017-10-15T14:32:23.000Z</time>
      </trkpt>
      <trkpt lat="42.38847" lon="2.10523">
        <ele>2393</ele>
        <time>2017-10-15T14:32:24.000Z</time>
      </trkpt>
      <trkpt lat="42.38847" lon="2.10522">
        <ele>2393</ele>
        <time>2017-10-15T14:32:25.000Z</time>
      </trkpt>
      <trkpt lat="42.38847" lon="2.10521">
        <ele>2393</ele>
        <time>2017-10-15T14:32:26.000Z</time>
      </trkpt>
      <trkpt lat="42.38847" lon="2.1052">
        <ele>2392</ele>
        <time>2017-10-15T14:32:27.000Z</time>
      </trkpt>
      <trkpt lat="42.38848" lon="2.10519">
        <ele>2392</ele>
        <time>2017-10-15T14:32:28.000Z</time>
      </trkpt>
      <trkpt lat="42.38848" lon="2.10518">
        <ele>2392</ele>
        <time>2017-10-15T14:32:29.000Z</time>
      </trkpt>
      <trkpt lat="42.38849" lon="2.10517">
        <ele>2392</ele>
        <time>2017-10-15T14:32:30.000Z</time>
      </trkpt>
      <trkpt lat="42.38849" lon="2.10517">
        <ele>2392</ele>
        <time>2017-10-15T14:32:31.000Z</time>
      </trkpt>
      <trkpt lat="42.38849" lon="2.10517">
        <ele>2392</ele>
        <time>2017-10-15T14:32:32.000Z</time>
      </trkpt>
      <trkpt lat="42.38838" lon="2.10493">
        <ele>2383</ele>
        <time>2017-10-15T14:40:26.000Z</time>
      </trkpt>
      <trkpt lat="42.38838" lon="2.10493">
        <ele>2383</ele>
        <time>2017-10-15T14:40:27.000Z</time>
      </trkpt>
      <trkpt lat="42.38838" lon="2.10492">
        <ele>2383</ele>
        <time>2017-10-15T14:40:28.000Z</time>
      </trkpt>
      <trkpt lat="42.38838" lon="2.10492">
        <ele>2383</ele>
        <time>2017-10-15T14:40:29.000Z</time>
      </trkpt>
      <trkpt lat="42.38838" lon="2.10491">
        <ele>2383</ele>
        <time>2017-10-15T14:40:30.000Z</time>
      </trkpt>
      <trkpt lat="42.38837" lon="2.10475">
        <ele>2378</ele>
        <time>2017-10-15T14:40:59.000Z</time>
      </trkpt>
      <trkpt lat="42.38838" lon="2.10475">
        <ele>2378</ele>
        <time>2017-10-15T14:41:00.000Z</time>
      </trkpt>
      <trkpt lat="42.38838" lon="2.10474">
        <ele>2378</ele>
        <time>2017-10-15T14:41:01.000Z</time>
      </trkpt>
      <trkpt lat="42.38839" lon="2.10473">
        <ele>2378</ele>
        <time>2017-10-15T14:41:02.000Z</time>
      </trkpt>
      <trkpt lat="42.38839" lon="2.10473">
        <ele>2378</ele>
        <time>2017-10-15T14:41:03.000Z</time>
      </trkpt>
      <trkpt lat="42.3884" lon="2.10472">
        <ele>2377</ele>
        <time>2017-10-15T14:41:04.000Z</time>
      </trkpt>
      <trkpt lat="42.3884" lon="2.10472">
        <ele>2377</ele>
        <time>2017-10-15T14:41:05.000Z</time>
      </trkpt>
      <trkpt lat="42.3884" lon="2.10471">
        <ele>2377</ele>
        <time>2017-10-15T14:41:06.000Z</time>
      </trkpt>
      <trkpt lat="42.3884" lon="2.1047">
        <ele>2377</ele>
        <time>2017-10-15T14:41:07.000Z</time>
      </trkpt>
      <trkpt lat="42.3884" lon="2.10469">
        <ele>2377</ele>
        <time>2017-10-15T14:41:08.000Z</time>
      </trkpt>
      <trkpt lat="42.3884" lon="2.10468">
        <ele>2376</ele>
        <time>2017-10-15T14:41:09.000Z</time>
      </trkpt>
      <trkpt lat="42.3884" lon="2.10467">
        <ele>2376</ele>
        <time>2017-10-15T14:41:10.000Z</time>
      </trkpt>
      <trkpt lat="42.3884" lon="2.10466">
        <ele>2376</ele>
        <time>2017-10-15T14:41:11.000Z</time>
      </trkpt>
      <trkpt lat="42.38841" lon="2.10465">
        <ele>2376</ele>
        <time>2017-10-15T14:41:12.000Z</time>
      </trkpt>
      <trkpt lat="42.38842" lon="2.10464">
        <ele>2375</ele>
        <time>2017-10-15T14:41:13.000Z</time>
      </trkpt>
      <trkpt lat="42.38842" lon="2.10463">
        <ele>2375</ele>
        <time>2017-10-15T14:41:14.000Z</time>
      </trkpt>
      <trkpt lat="42.38842" lon="2.10463">
        <ele>2375</ele>
        <time>2017-10-15T14:41:15.000Z</time>
      </trkpt>
      <trkpt lat="42.38842" lon="2.10462">
        <ele>2375</ele>
        <time>2017-10-15T14:41:16.000Z</time>
      </trkpt>
      <trkpt lat="42.38842" lon="2.1046">
        <ele>2375</ele>
        <time>2017-10-15T14:41:17.000Z</time>
      </trkpt>
      <trkpt lat="42.38843" lon="2.10459">
        <ele>2374</ele>
        <time>2017-10-15T14:41:18.000Z</time>
      </trkpt>
      <trkpt lat="42.38843" lon="2.10459">
        <ele>2374</ele>
        <time>2017-10-15T14:41:19.000Z</time>
      </trkpt>
      <trkpt lat="42.38844" lon="2.10458">
        <ele>2374</ele>
        <time>2017-10-15T14:41:20.000Z</time>
      </trkpt>
      <trkpt lat="42.38844" lon="2.10458">
        <ele>2374</ele>
        <time>2017-10-15T14:41:21.000Z</time>
      </trkpt>
      <trkpt lat="42.38845" lon="2.10457">
        <ele>2374</ele>
        <time>2017-10-15T14:41:22.000Z</time>
      </trkpt>
      <trkpt lat="42.38845" lon="2.10456">
        <ele>2374</ele>
        <time>2017-10-15T14:41:23.000Z</time>
      </trkpt>
      <trkpt lat="42.38845" lon="2.10456">
        <ele>2374</ele>
        <time>2017-10-15T14:41:24.000Z</time>
      </trkpt>
      <trkpt lat="42.38846" lon="2.10455">
        <ele>2374</ele>
        <time>2017-10-15T14:41:25.000Z</time>
      </trkpt>
      <trkpt lat="42.38846" lon="2.10455">
        <ele>2374</ele>
        <time>2017-10-15T14:41:26.000Z</time>
      </trkpt>
      <trkpt lat="42.38846" lon="2.10454">
        <ele>2374</ele>
        <time>2017-10-15T14:41:27.000Z</time>
      </trkpt>
      <trkpt lat="42.38847" lon="2.10453">
        <ele>2373</ele>
        <time>2017-10-15T14:41:28.000Z</time>
      </trkpt>
      <trkpt lat="42.38847" lon="2.10453">
        <ele>2373</ele>
        <time>2017-10-15T14:41:29.000Z</time>
      </trkpt>
      <trkpt lat="42.38847" lon="2.10452">
        <ele>2373</ele>
        <time>2017-10-15T14:41:30.000Z</time>
      </trkpt>
      <trkpt lat="42.38847" lon="2.10451">
        <ele>2373</ele>
        <time>2017-10-15T14:41:31.000Z</time>
      </trkpt>
      <trkpt lat="42.38846" lon="2.1045">
        <ele>2372</ele>
        <time>2017-10-15T14:41:32.000Z</time>
      </trkpt>
      <trkpt lat="42.38846" lon="2.10448">
        <ele>2372</ele>
        <time>2017-10-15T14:41:33.000Z</time>
      </trkpt>
      <trkpt lat="42.38846" lon="2.10447">
        <ele>2371</ele>
        <time>2017-10-15T14:41:34.000Z</time>
      </trkpt>
      <trkpt lat="42.38847" lon="2.10445">
        <ele>2371</ele>
        <time>2017-10-15T14:41:35.000Z</time>
      </trkpt>
      <trkpt lat="42.38847" lon="2.10443">
        <ele>2371</ele>
        <time>2017-10-15T14:41:36.000Z</time>
      </trkpt>
      <trkpt lat="42.38847" lon="2.10442">
        <ele>2370</ele>
        <time>2017-10-15T14:41:37.000Z</time>
      </trkpt>
      <trkpt lat="42.38847" lon="2.1044">
        <ele>2369</ele>
        <time>2017-10-15T14:41:38.000Z</time>
      </trkpt>
      <trkpt lat="42.38846" lon="2.10439">
        <ele>2369</ele>
        <time>2017-10-15T14:41:39.000Z</time>
      </trkpt>
      <trkpt lat="42.38846" lon="2.10437">
        <ele>2368</ele>
        <time>2017-10-15T14:41:40.000Z</time>
      </trkpt>
      <trkpt lat="42.38845" lon="2.10435">
        <ele>2368</ele>
        <time>2017-10-15T14:41:41.000Z</time>
      </trkpt>
      <trkpt lat="42.38844" lon="2.10434">
        <ele>2367</ele>
        <time>2017-10-15T14:41:42.000Z</time>
      </trkpt>
      <trkpt lat="42.38843" lon="2.10433">
        <ele>2367</ele>
        <time>2017-10-15T14:41:43.000Z</time>
      </trkpt>
      <trkpt lat="42.38843" lon="2.10432">
        <ele>2366</ele>
        <time>2017-10-15T14:41:44.000Z</time>
      </trkpt>
      <trkpt lat="42.38842" lon="2.10431">
        <ele>2366</ele>
        <time>2017-10-15T14:41:45.000Z</time>
      </trkpt>
      <trkpt lat="42.38841" lon="2.10431">
        <ele>2365</ele>
        <time>2017-10-15T14:41:46.000Z</time>
      </trkpt>
      <trkpt lat="42.3884" lon="2.1043">
        <ele>2365</ele>
        <time>2017-10-15T14:41:47.000Z</time>
      </trkpt>
      <trkpt lat="42.38839" lon="2.10429">
        <ele>2365</ele>
        <time>2017-10-15T14:41:48.000Z</time>
      </trkpt>
      <trkpt lat="42.38838" lon="2.10429">
        <ele>2364</ele>
        <time>2017-10-15T14:41:49.000Z</time>
      </trkpt>
      <trkpt lat="42.38838" lon="2.10429">
        <ele>2364</ele>
        <time>2017-10-15T14:41:50.000Z</time>
      </trkpt>
      <trkpt lat="42.38837" lon="2.10428">
        <ele>2364</ele>
        <time>2017-10-15T14:41:51.000Z</time>
      </trkpt>
      <trkpt lat="42.38836" lon="2.10428">
        <ele>2363</ele>
        <time>2017-10-15T14:41:52.000Z</time>
      </trkpt>
      <trkpt lat="42.38836" lon="2.10427">
        <ele>2363</ele>
        <time>2017-10-15T14:41:53.000Z</time>
      </trkpt>
      <trkpt lat="42.38835" lon="2.10426">
        <ele>2363</ele>
        <time>2017-10-15T14:41:54.000Z</time>
      </trkpt>
      <trkpt lat="42.38834" lon="2.10426">
        <ele>2362</ele>
        <time>2017-10-15T14:41:55.000Z</time>
      </trkpt>
      <trkpt lat="42.38834" lon="2.10425">
        <ele>2362</ele>
        <time>2017-10-15T14:41:56.000Z</time>
      </trkpt>
      <trkpt lat="42.38834" lon="2.10425">
        <ele>2362</ele>
        <time>2017-10-15T14:41:57.000Z</time>
      </trkpt>
      <trkpt lat="42.38833" lon="2.10424">
        <ele>2362</ele>
        <time>2017-10-15T14:41:58.000Z</time>
      </trkpt>
      <trkpt lat="42.38833" lon="2.10423">
        <ele>2361</ele>
        <time>2017-10-15T14:41:59.000Z</time>
      </trkpt>
      <trkpt lat="42.38832" lon="2.10423">
        <ele>2361</ele>
        <time>2017-10-15T14:42:00.000Z</time>
      </trkpt>
      <trkpt lat="42.38831" lon="2.10422">
        <ele>2361</ele>
        <time>2017-10-15T14:42:01.000Z</time>
      </trkpt>
      <trkpt lat="42.38831" lon="2.10421">
        <ele>2360</ele>
        <time>2017-10-15T14:42:02.000Z</time>
      </trkpt>
      <trkpt lat="42.3883" lon="2.10421">
        <ele>2360</ele>
        <time>2017-10-15T14:42:03.000Z</time>
      </trkpt>
      <trkpt lat="42.38829" lon="2.1042">
        <ele>2360</ele>
        <time>2017-10-15T14:42:04.000Z</time>
      </trkpt>
      <trkpt lat="42.38829" lon="2.10419">
        <ele>2360</ele>
        <time>2017-10-15T14:42:05.000Z</time>
      </trkpt>
      <trkpt lat="42.38828" lon="2.10418">
        <ele>2360</ele>
        <time>2017-10-15T14:42:06.000Z</time>
      </trkpt>
      <trkpt lat="42.38828" lon="2.10417">
        <ele>2359</ele>
        <time>2017-10-15T14:42:07.000Z</time>
      </trkpt>
      <trkpt lat="42.38827" lon="2.10416">
        <ele>2359</ele>
        <time>2017-10-15T14:42:08.000Z</time>
      </trkpt>
      <trkpt lat="42.38827" lon="2.10415">
        <ele>2359</ele>
        <time>2017-10-15T14:42:09.000Z</time>
      </trkpt>
      <trkpt lat="42.38827" lon="2.10414">
        <ele>2359</ele>
        <time>2017-10-15T14:42:10.000Z</time>
      </trkpt>
      <trkpt lat="42.38826" lon="2.10413">
        <ele>2358</ele>
        <time>2017-10-15T14:42:11.000Z</time>
      </trkpt>
      <trkpt lat="42.38826" lon="2.10412">
        <ele>2358</ele>
        <time>2017-10-15T14:42:12.000Z</time>
      </trkpt>
      <trkpt lat="42.38826" lon="2.10411">
        <ele>2358</ele>
        <time>2017-10-15T14:42:13.000Z</time>
      </trkpt>
      <trkpt lat="42.38826" lon="2.1041">
        <ele>2357</ele>
        <time>2017-10-15T14:42:14.000Z</time>
      </trkpt>
      <trkpt lat="42.38825" lon="2.10409">
        <ele>2357</ele>
        <time>2017-10-15T14:42:15.000Z</time>
      </trkpt>
      <trkpt lat="42.38825" lon="2.10407">
        <ele>2357</ele>
        <time>2017-10-15T14:42:16.000Z</time>
      </trkpt>
      <trkpt lat="42.38825" lon="2.10406">
        <ele>2357</ele>
        <time>2017-10-15T14:42:17.000Z</time>
      </trkpt>
      <trkpt lat="42.38824" lon="2.10405">
        <ele>2357</ele>
        <time>2017-10-15T14:42:18.000Z</time>
      </trkpt>
      <trkpt lat="42.38824" lon="2.10404">
        <ele>2356</ele>
        <time>2017-10-15T14:42:19.000Z</time>
      </trkpt>
      <trkpt lat="42.38824" lon="2.10403">
        <ele>2356</ele>
        <time>2017-10-15T14:42:20.000Z</time>
      </trkpt>
      <trkpt lat="42.38823" lon="2.10402">
        <ele>2356</ele>
        <time>2017-10-15T14:42:21.000Z</time>
      </trkpt>
      <trkpt lat="42.38822" lon="2.10401">
        <ele>2356</ele>
        <time>2017-10-15T14:42:22.000Z</time>
      </trkpt>
      <trkpt lat="42.38822" lon="2.104">
        <ele>2356</ele>
        <time>2017-10-15T14:42:23.000Z</time>
      </trkpt>
      <trkpt lat="42.38821" lon="2.10399">
        <ele>2356</ele>
        <time>2017-10-15T14:42:24.000Z</time>
      </trkpt>
      <trkpt lat="42.38821" lon="2.10398">
        <ele>2356</ele>
        <time>2017-10-15T14:42:25.000Z</time>
      </trkpt>
      <trkpt lat="42.3882" lon="2.10397">
        <ele>2355</ele>
        <time>2017-10-15T14:42:26.000Z</time>
      </trkpt>
      <trkpt lat="42.3882" lon="2.10396">
        <ele>2355</ele>
        <time>2017-10-15T14:42:27.000Z</time>
      </trkpt>
      <trkpt lat="42.38819" lon="2.10395">
        <ele>2355</ele>
        <time>2017-10-15T14:42:28.000Z</time>
      </trkpt>
      <trkpt lat="42.38819" lon="2.10394">
        <ele>2355</ele>
        <time>2017-10-15T14:42:29.000Z</time>
      </trkpt>
      <trkpt lat="42.38819" lon="2.10394">
        <ele>2355</ele>
        <time>2017-10-15T14:42:30.000Z</time>
      </trkpt>
      <trkpt lat="42.38818" lon="2.10393">
        <ele>2355</ele>
        <time>2017-10-15T14:42:31.000Z</time>
      </trkpt>
      <trkpt lat="42.38817" lon="2.10392">
        <ele>2355</ele>
        <time>2017-10-15T14:42:32.000Z</time>
      </trkpt>
      <trkpt lat="42.38817" lon="2.10391">
        <ele>2354</ele>
        <time>2017-10-15T14:42:33.000Z</time>
      </trkpt>
      <trkpt lat="42.38816" lon="2.1039">
        <ele>2354</ele>
        <time>2017-10-15T14:42:34.000Z</time>
      </trkpt>
      <trkpt lat="42.38816" lon="2.10389">
        <ele>2354</ele>
        <time>2017-10-15T14:42:35.000Z</time>
      </trkpt>
      <trkpt lat="42.38816" lon="2.10388">
        <ele>2354</ele>
        <time>2017-10-15T14:42:36.000Z</time>
      </trkpt>
      <trkpt lat="42.38816" lon="2.10387">
        <ele>2354</ele>
        <time>2017-10-15T14:42:37.000Z</time>
      </trkpt>
      <trkpt lat="42.38815" lon="2.10386">
        <ele>2354</ele>
        <time>2017-10-15T14:42:38.000Z</time>
      </trkpt>
      <trkpt lat="42.38815" lon="2.10386">
        <ele>2354</ele>
        <time>2017-10-15T14:42:39.000Z</time>
      </trkpt>
      <trkpt lat="42.38814" lon="2.10385">
        <ele>2354</ele>
        <time>2017-10-15T14:42:40.000Z</time>
      </trkpt>
      <trkpt lat="42.38814" lon="2.10384">
        <ele>2353</ele>
        <time>2017-10-15T14:42:41.000Z</time>
      </trkpt>
      <trkpt lat="42.38813" lon="2.10383">
        <ele>2353</ele>
        <time>2017-10-15T14:42:42.000Z</time>
      </trkpt>
      <trkpt lat="42.38813" lon="2.10382">
        <ele>2353</ele>
        <time>2017-10-15T14:42:43.000Z</time>
      </trkpt>
      <trkpt lat="42.38812" lon="2.10381">
        <ele>2353</ele>
        <time>2017-10-15T14:42:44.000Z</time>
      </trkpt>
      <trkpt lat="42.38811" lon="2.1038">
        <ele>2353</ele>
        <time>2017-10-15T14:42:45.000Z</time>
      </trkpt>
      <trkpt lat="42.38811" lon="2.10379">
        <ele>2353</ele>
        <time>2017-10-15T14:42:46.000Z</time>
      </trkpt>
      <trkpt lat="42.3881" lon="2.10378">
        <ele>2353</ele>
        <time>2017-10-15T14:42:47.000Z</time>
      </trkpt>
      <trkpt lat="42.38809" lon="2.10377">
        <ele>2353</ele>
        <time>2017-10-15T14:42:48.000Z</time>
      </trkpt>
      <trkpt lat="42.38809" lon="2.10376">
        <ele>2352</ele>
        <time>2017-10-15T14:42:49.000Z</time>
      </trkpt>
      <trkpt lat="42.38809" lon="2.10375">
        <ele>2352</ele>
        <time>2017-10-15T14:42:50.000Z</time>
      </trkpt>
      <trkpt lat="42.38808" lon="2.10374">
        <ele>2352</ele>
        <time>2017-10-15T14:42:51.000Z</time>
      </trkpt>
      <trkpt lat="42.38807" lon="2.10373">
        <ele>2352</ele>
        <time>2017-10-15T14:42:52.000Z</time>
      </trkpt>
      <trkpt lat="42.38807" lon="2.10372">
        <ele>2352</ele>
        <time>2017-10-15T14:42:53.000Z</time>
      </trkpt>
      <trkpt lat="42.38806" lon="2.1037">
        <ele>2352</ele>
        <time>2017-10-15T14:42:54.000Z</time>
      </trkpt>
      <trkpt lat="42.38806" lon="2.10369">
        <ele>2351</ele>
        <time>2017-10-15T14:42:55.000Z</time>
      </trkpt>
      <trkpt lat="42.38806" lon="2.10368">
        <ele>2351</ele>
        <time>2017-10-15T14:42:56.000Z</time>
      </trkpt>
      <trkpt lat="42.38806" lon="2.10367">
        <ele>2351</ele>
        <time>2017-10-15T14:42:57.000Z</time>
      </trkpt>
      <trkpt lat="42.38805" lon="2.10365">
        <ele>2351</ele>
        <time>2017-10-15T14:42:58.000Z</time>
      </trkpt>
      <trkpt lat="42.38805" lon="2.10364">
        <ele>2351</ele>
        <time>2017-10-15T14:42:59.000Z</time>
      </trkpt>
      <trkpt lat="42.38805" lon="2.10363">
        <ele>2350</ele>
        <time>2017-10-15T14:43:00.000Z</time>
      </trkpt>
      <trkpt lat="42.38805" lon="2.10362">
        <ele>2350</ele>
        <time>2017-10-15T14:43:01.000Z</time>
      </trkpt>
      <trkpt lat="42.38805" lon="2.1036">
        <ele>2350</ele>
        <time>2017-10-15T14:43:02.000Z</time>
      </trkpt>
      <trkpt lat="42.38804" lon="2.10359">
        <ele>2350</ele>
        <time>2017-10-15T14:43:03.000Z</time>
      </trkpt>
      <trkpt lat="42.38804" lon="2.10357">
        <ele>2349</ele>
        <time>2017-10-15T14:43:04.000Z</time>
      </trkpt>
      <trkpt lat="42.38804" lon="2.10356">
        <ele>2349</ele>
        <time>2017-10-15T14:43:05.000Z</time>
      </trkpt>
      <trkpt lat="42.38804" lon="2.10355">
        <ele>2349</ele>
        <time>2017-10-15T14:43:06.000Z</time>
      </trkpt>
      <trkpt lat="42.38804" lon="2.10353">
        <ele>2349</ele>
        <time>2017-10-15T14:43:07.000Z</time>
      </trkpt>
      <trkpt lat="42.38804" lon="2.10352">
        <ele>2349</ele>
        <time>2017-10-15T14:43:08.000Z</time>
      </trkpt>
      <trkpt lat="42.38804" lon="2.10351">
        <ele>2348</ele>
        <time>2017-10-15T14:43:09.000Z</time>
      </trkpt>
      <trkpt lat="42.38803" lon="2.1035">
        <ele>2348</ele>
        <time>2017-10-15T14:43:10.000Z</time>
      </trkpt>
      <trkpt lat="42.38803" lon="2.10349">
        <ele>2348</ele>
        <time>2017-10-15T14:43:11.000Z</time>
      </trkpt>
      <trkpt lat="42.38803" lon="2.10349">
        <ele>2348</ele>
        <time>2017-10-15T14:43:12.000Z</time>
      </trkpt>
      <trkpt lat="42.38802" lon="2.10349">
        <ele>2348</ele>
        <time>2017-10-15T14:43:13.000Z</time>
      </trkpt>
      <trkpt lat="42.38802" lon="2.10349">
        <ele>2348</ele>
        <time>2017-10-15T14:43:14.000Z</time>
      </trkpt>
      <trkpt lat="42.38801" lon="2.10348">
        <ele>2348</ele>
        <time>2017-10-15T14:43:15.000Z</time>
      </trkpt>
      <trkpt lat="42.38801" lon="2.10347">
        <ele>2348</ele>
        <time>2017-10-15T14:43:16.000Z</time>
      </trkpt>
      <trkpt lat="42.38801" lon="2.10346">
        <ele>2348</ele>
        <time>2017-10-15T14:43:17.000Z</time>
      </trkpt>
      <trkpt lat="42.38801" lon="2.10344">
        <ele>2347</ele>
        <time>2017-10-15T14:43:18.000Z</time>
      </trkpt>
      <trkpt lat="42.38801" lon="2.10343">
        <ele>2347</ele>
        <time>2017-10-15T14:43:19.000Z</time>
      </trkpt>
      <trkpt lat="42.38801" lon="2.10342">
        <ele>2347</ele>
        <time>2017-10-15T14:43:20.000Z</time>
      </trkpt>
      <trkpt lat="42.38801" lon="2.10341">
        <ele>2347</ele>
        <time>2017-10-15T14:43:21.000Z</time>
      </trkpt>
      <trkpt lat="42.38801" lon="2.10339">
        <ele>2347</ele>
        <time>2017-10-15T14:43:22.000Z</time>
      </trkpt>
      <trkpt lat="42.38802" lon="2.10338">
        <ele>2346</ele>
        <time>2017-10-15T14:43:23.000Z</time>
      </trkpt>
      <trkpt lat="42.38802" lon="2.10336">
        <ele>2346</ele>
        <time>2017-10-15T14:43:24.000Z</time>
      </trkpt>
      <trkpt lat="42.38803" lon="2.10335">
        <ele>2346</ele>
        <time>2017-10-15T14:43:25.000Z</time>
      </trkpt>
      <trkpt lat="42.38804" lon="2.10334">
        <ele>2346</ele>
        <time>2017-10-15T14:43:26.000Z</time>
      </trkpt>
      <trkpt lat="42.38805" lon="2.10333">
        <ele>2345</ele>
        <time>2017-10-15T14:43:27.000Z</time>
      </trkpt>
      <trkpt lat="42.38805" lon="2.10333">
        <ele>2345</ele>
        <time>2017-10-15T14:43:28.000Z</time>
      </trkpt>
      <trkpt lat="42.38806" lon="2.10332">
        <ele>2345</ele>
        <time>2017-10-15T14:43:29.000Z</time>
      </trkpt>
      <trkpt lat="42.38807" lon="2.10331">
        <ele>2345</ele>
        <time>2017-10-15T14:43:30.000Z</time>
      </trkpt>
      <trkpt lat="42.38808" lon="2.1033">
        <ele>2345</ele>
        <time>2017-10-15T14:43:31.000Z</time>
      </trkpt>
      <trkpt lat="42.38808" lon="2.10329">
        <ele>2344</ele>
        <time>2017-10-15T14:43:32.000Z</time>
      </trkpt>
      <trkpt lat="42.38808" lon="2.10328">
        <ele>2344</ele>
        <time>2017-10-15T14:43:33.000Z</time>
      </trkpt>
      <trkpt lat="42.38809" lon="2.10326">
        <ele>2344</ele>
        <time>2017-10-15T14:43:34.000Z</time>
      </trkpt>
      <trkpt lat="42.3881" lon="2.10325">
        <ele>2344</ele>
        <time>2017-10-15T14:43:35.000Z</time>
      </trkpt>
      <trkpt lat="42.38811" lon="2.10324">
        <ele>2344</ele>
        <time>2017-10-15T14:43:36.000Z</time>
      </trkpt>
      <trkpt lat="42.38811" lon="2.10323">
        <ele>2344</ele>
        <time>2017-10-15T14:43:37.000Z</time>
      </trkpt>
      <trkpt lat="42.38812" lon="2.10321">
        <ele>2343</ele>
        <time>2017-10-15T14:43:38.000Z</time>
      </trkpt>
      <trkpt lat="42.38812" lon="2.1032">
        <ele>2343</ele>
        <time>2017-10-15T14:43:39.000Z</time>
      </trkpt>
      <trkpt lat="42.38813" lon="2.1032">
        <ele>2343</ele>
        <time>2017-10-15T14:43:40.000Z</time>
      </trkpt>
      <trkpt lat="42.38813" lon="2.10319">
        <ele>2343</ele>
        <time>2017-10-15T14:43:41.000Z</time>
      </trkpt>
      <trkpt lat="42.38813" lon="2.10318">
        <ele>2343</ele>
        <time>2017-10-15T14:43:42.000Z</time>
      </trkpt>
      <trkpt lat="42.38814" lon="2.10318">
        <ele>2343</ele>
        <time>2017-10-15T14:43:43.000Z</time>
      </trkpt>
      <trkpt lat="42.38814" lon="2.10317">
        <ele>2343</ele>
        <time>2017-10-15T14:43:44.000Z</time>
      </trkpt>
      <trkpt lat="42.38814" lon="2.10315">
        <ele>2343</ele>
        <time>2017-10-15T14:43:45.000Z</time>
      </trkpt>
      <trkpt lat="42.38815" lon="2.10314">
        <ele>2343</ele>
        <time>2017-10-15T14:43:46.000Z</time>
      </trkpt>
      <trkpt lat="42.38815" lon="2.10313">
        <ele>2343</ele>
        <time>2017-10-15T14:43:47.000Z</time>
      </trkpt>
      <trkpt lat="42.38816" lon="2.10311">
        <ele>2342</ele>
        <time>2017-10-15T14:43:48.000Z</time>
      </trkpt>
      <trkpt lat="42.38816" lon="2.1031">
        <ele>2342</ele>
        <time>2017-10-15T14:43:49.000Z</time>
      </trkpt>
      <trkpt lat="42.38817" lon="2.10309">
        <ele>2342</ele>
        <time>2017-10-15T14:43:50.000Z</time>
      </trkpt>
      <trkpt lat="42.38818" lon="2.10307">
        <ele>2342</ele>
        <time>2017-10-15T14:43:51.000Z</time>
      </trkpt>
      <trkpt lat="42.38819" lon="2.10306">
        <ele>2342</ele>
        <time>2017-10-15T14:43:52.000Z</time>
      </trkpt>
      <trkpt lat="42.38819" lon="2.10304">
        <ele>2341</ele>
        <time>2017-10-15T14:43:53.000Z</time>
      </trkpt>
      <trkpt lat="42.3882" lon="2.10303">
        <ele>2341</ele>
        <time>2017-10-15T14:43:54.000Z</time>
      </trkpt>
      <trkpt lat="42.3882" lon="2.10301">
        <ele>2341</ele>
        <time>2017-10-15T14:43:55.000Z</time>
      </trkpt>
      <trkpt lat="42.38821" lon="2.10299">
        <ele>2341</ele>
        <time>2017-10-15T14:43:56.000Z</time>
      </trkpt>
      <trkpt lat="42.38821" lon="2.10298">
        <ele>2340</ele>
        <time>2017-10-15T14:43:57.000Z</time>
      </trkpt>
      <trkpt lat="42.38822" lon="2.10297">
        <ele>2340</ele>
        <time>2017-10-15T14:43:58.000Z</time>
      </trkpt>
      <trkpt lat="42.38822" lon="2.10295">
        <ele>2340</ele>
        <time>2017-10-15T14:43:59.000Z</time>
      </trkpt>
      <trkpt lat="42.38822" lon="2.10293">
        <ele>2340</ele>
        <time>2017-10-15T14:44:00.000Z</time>
      </trkpt>
      <trkpt lat="42.38823" lon="2.10292">
        <ele>2340</ele>
        <time>2017-10-15T14:44:01.000Z</time>
      </trkpt>
      <trkpt lat="42.38823" lon="2.10291">
        <ele>2339</ele>
        <time>2017-10-15T14:44:02.000Z</time>
      </trkpt>
      <trkpt lat="42.38823" lon="2.1029">
        <ele>2339</ele>
        <time>2017-10-15T14:44:03.000Z</time>
      </trkpt>
      <trkpt lat="42.38823" lon="2.10289">
        <ele>2339</ele>
        <time>2017-10-15T14:44:04.000Z</time>
      </trkpt>
      <trkpt lat="42.38824" lon="2.10288">
        <ele>2339</ele>
        <time>2017-10-15T14:44:05.000Z</time>
      </trkpt>
      <trkpt lat="42.38824" lon="2.10287">
        <ele>2339</ele>
        <time>2017-10-15T14:44:06.000Z</time>
      </trkpt>
      <trkpt lat="42.38824" lon="2.10286">
        <ele>2339</ele>
        <time>2017-10-15T14:44:07.000Z</time>
      </trkpt>
      <trkpt lat="42.38824" lon="2.10285">
        <ele>2339</ele>
        <time>2017-10-15T14:44:08.000Z</time>
      </trkpt>
      <trkpt lat="42.38824" lon="2.10284">
        <ele>2339</ele>
        <time>2017-10-15T14:44:09.000Z</time>
      </trkpt>
      <trkpt lat="42.38824" lon="2.10283">
        <ele>2338</ele>
        <time>2017-10-15T14:44:10.000Z</time>
      </trkpt>
      <trkpt lat="42.38825" lon="2.10283">
        <ele>2338</ele>
        <time>2017-10-15T14:44:11.000Z</time>
      </trkpt>
      <trkpt lat="42.38825" lon="2.10282">
        <ele>2338</ele>
        <time>2017-10-15T14:44:12.000Z</time>
      </trkpt>
      <trkpt lat="42.38824" lon="2.10281">
        <ele>2338</ele>
        <time>2017-10-15T14:44:13.000Z</time>
      </trkpt>
      <trkpt lat="42.38824" lon="2.1028">
        <ele>2338</ele>
        <time>2017-10-15T14:44:14.000Z</time>
      </trkpt>
      <trkpt lat="42.38824" lon="2.10279">
        <ele>2338</ele>
        <time>2017-10-15T14:44:15.000Z</time>
      </trkpt>
      <trkpt lat="42.38824" lon="2.10278">
        <ele>2338</ele>
        <time>2017-10-15T14:44:16.000Z</time>
      </trkpt>
      <trkpt lat="42.38824" lon="2.10277">
        <ele>2338</ele>
        <time>2017-10-15T14:44:17.000Z</time>
      </trkpt>
      <trkpt lat="42.38824" lon="2.10276">
        <ele>2337</ele>
        <time>2017-10-15T14:44:18.000Z</time>
      </trkpt>
      <trkpt lat="42.38824" lon="2.10275">
        <ele>2337</ele>
        <time>2017-10-15T14:44:19.000Z</time>
      </trkpt>
      <trkpt lat="42.38825" lon="2.10274">
        <ele>2337</ele>
        <time>2017-10-15T14:44:20.000Z</time>
      </trkpt>
      <trkpt lat="42.38824" lon="2.10273">
        <ele>2337</ele>
        <time>2017-10-15T14:44:21.000Z</time>
      </trkpt>
      <trkpt lat="42.38824" lon="2.10273">
        <ele>2337</ele>
        <time>2017-10-15T14:44:22.000Z</time>
      </trkpt>
      <trkpt lat="42.38824" lon="2.10272">
        <ele>2337</ele>
        <time>2017-10-15T14:44:23.000Z</time>
      </trkpt>
      <trkpt lat="42.38824" lon="2.10272">
        <ele>2337</ele>
        <time>2017-10-15T14:44:24.000Z</time>
      </trkpt>
      <trkpt lat="42.38824" lon="2.10271">
        <ele>2337</ele>
        <time>2017-10-15T14:44:25.000Z</time>
      </trkpt>
      <trkpt lat="42.38824" lon="2.1027">
        <ele>2337</ele>
        <time>2017-10-15T14:44:26.000Z</time>
      </trkpt>
      <trkpt lat="42.38823" lon="2.1027">
        <ele>2337</ele>
        <time>2017-10-15T14:44:27.000Z</time>
      </trkpt>
      <trkpt lat="42.38823" lon="2.10269">
        <ele>2337</ele>
        <time>2017-10-15T14:44:28.000Z</time>
      </trkpt>
      <trkpt lat="42.38823" lon="2.10269">
        <ele>2337</ele>
        <time>2017-10-15T14:44:29.000Z</time>
      </trkpt>
      <trkpt lat="42.38823" lon="2.10268">
        <ele>2337</ele>
        <time>2017-10-15T14:44:30.000Z</time>
      </trkpt>
      <trkpt lat="42.38823" lon="2.10267">
        <ele>2337</ele>
        <time>2017-10-15T14:44:31.000Z</time>
      </trkpt>
      <trkpt lat="42.38823" lon="2.10266">
        <ele>2336</ele>
        <time>2017-10-15T14:44:32.000Z</time>
      </trkpt>
      <trkpt lat="42.38823" lon="2.10265">
        <ele>2336</ele>
        <time>2017-10-15T14:44:33.000Z</time>
      </trkpt>
      <trkpt lat="42.38824" lon="2.10265">
        <ele>2336</ele>
        <time>2017-10-15T14:44:34.000Z</time>
      </trkpt>
      <trkpt lat="42.38824" lon="2.10265">
        <ele>2336</ele>
        <time>2017-10-15T14:44:35.000Z</time>
      </trkpt>
      <trkpt lat="42.38823" lon="2.10259">
        <ele>2336</ele>
        <time>2017-10-15T14:45:09.000Z</time>
      </trkpt>
      <trkpt lat="42.38823" lon="2.10258">
        <ele>2335</ele>
        <time>2017-10-15T14:45:10.000Z</time>
      </trkpt>
      <trkpt lat="42.38822" lon="2.10257">
        <ele>2335</ele>
        <time>2017-10-15T14:45:11.000Z</time>
      </trkpt>
      <trkpt lat="42.38823" lon="2.10255">
        <ele>2335</ele>
        <time>2017-10-15T14:45:12.000Z</time>
      </trkpt>
      <trkpt lat="42.38823" lon="2.10255">
        <ele>2335</ele>
        <time>2017-10-15T14:45:13.000Z</time>
      </trkpt>
      <trkpt lat="42.38824" lon="2.10254">
        <ele>2335</ele>
        <time>2017-10-15T14:45:14.000Z</time>
      </trkpt>
      <trkpt lat="42.38824" lon="2.10254">
        <ele>2335</ele>
        <time>2017-10-15T14:45:15.000Z</time>
      </trkpt>
      <trkpt lat="42.38824" lon="2.10253">
        <ele>2335</ele>
        <time>2017-10-15T14:45:16.000Z</time>
      </trkpt>
      <trkpt lat="42.38825" lon="2.10253">
        <ele>2335</ele>
        <time>2017-10-15T14:45:17.000Z</time>
      </trkpt>
      <trkpt lat="42.38824" lon="2.10252">
        <ele>2335</ele>
        <time>2017-10-15T14:45:18.000Z</time>
      </trkpt>
      <trkpt lat="42.38824" lon="2.10251">
        <ele>2335</ele>
        <time>2017-10-15T14:45:19.000Z</time>
      </trkpt>
      <trkpt lat="42.38824" lon="2.1025">
        <ele>2334</ele>
        <time>2017-10-15T14:45:20.000Z</time>
      </trkpt>
      <trkpt lat="42.38824" lon="2.1025">
        <ele>2334</ele>
        <time>2017-10-15T14:45:21.000Z</time>
      </trkpt>
      <trkpt lat="42.38823" lon="2.10249">
        <ele>2334</ele>
        <time>2017-10-15T14:45:22.000Z</time>
      </trkpt>
      <trkpt lat="42.38823" lon="2.10248">
        <ele>2334</ele>
        <time>2017-10-15T14:45:23.000Z</time>
      </trkpt>
      <trkpt lat="42.38822" lon="2.10247">
        <ele>2334</ele>
        <time>2017-10-15T14:45:24.000Z</time>
      </trkpt>
      <trkpt lat="42.38822" lon="2.10246">
        <ele>2334</ele>
        <time>2017-10-15T14:45:25.000Z</time>
      </trkpt>
      <trkpt lat="42.38822" lon="2.10246">
        <ele>2334</ele>
        <time>2017-10-15T14:45:26.000Z</time>
      </trkpt>
      <trkpt lat="42.38821" lon="2.10245">
        <ele>2334</ele>
        <time>2017-10-15T14:45:27.000Z</time>
      </trkpt>
      <trkpt lat="42.38821" lon="2.10245">
        <ele>2334</ele>
        <time>2017-10-15T14:45:28.000Z</time>
      </trkpt>
      <trkpt lat="42.38821" lon="2.10244">
        <ele>2334</ele>
        <time>2017-10-15T14:45:29.000Z</time>
      </trkpt>
      <trkpt lat="42.3882" lon="2.10243">
        <ele>2334</ele>
        <time>2017-10-15T14:45:30.000Z</time>
      </trkpt>
      <trkpt lat="42.38819" lon="2.10243">
        <ele>2334</ele>
        <time>2017-10-15T14:45:31.000Z</time>
      </trkpt>
      <trkpt lat="42.38819" lon="2.10242">
        <ele>2334</ele>
        <time>2017-10-15T14:45:32.000Z</time>
      </trkpt>
      <trkpt lat="42.38818" lon="2.10241">
        <ele>2333</ele>
        <time>2017-10-15T14:45:33.000Z</time>
      </trkpt>
      <trkpt lat="42.38818" lon="2.1024">
        <ele>2333</ele>
        <time>2017-10-15T14:45:34.000Z</time>
      </trkpt>
      <trkpt lat="42.38818" lon="2.10239">
        <ele>2333</ele>
        <time>2017-10-15T14:45:35.000Z</time>
      </trkpt>
      <trkpt lat="42.38818" lon="2.10238">
        <ele>2333</ele>
        <time>2017-10-15T14:45:36.000Z</time>
      </trkpt>
      <trkpt lat="42.38818" lon="2.10237">
        <ele>2332</ele>
        <time>2017-10-15T14:45:37.000Z</time>
      </trkpt>
      <trkpt lat="42.38819" lon="2.10236">
        <ele>2332</ele>
        <time>2017-10-15T14:45:38.000Z</time>
      </trkpt>
      <trkpt lat="42.38819" lon="2.10236">
        <ele>2332</ele>
        <time>2017-10-15T14:45:39.000Z</time>
      </trkpt>
      <trkpt lat="42.38819" lon="2.10235">
        <ele>2332</ele>
        <time>2017-10-15T14:45:40.000Z</time>
      </trkpt>
      <trkpt lat="42.38819" lon="2.10234">
        <ele>2331</ele>
        <time>2017-10-15T14:45:41.000Z</time>
      </trkpt>
      <trkpt lat="42.38818" lon="2.10234">
        <ele>2331</ele>
        <time>2017-10-15T14:45:42.000Z</time>
      </trkpt>
      <trkpt lat="42.38818" lon="2.10234">
        <ele>2331</ele>
        <time>2017-10-15T14:45:43.000Z</time>
      </trkpt>
      <trkpt lat="42.38813" lon="2.10224">
        <ele>2329</ele>
        <time>2017-10-15T14:46:00.000Z</time>
      </trkpt>
      <trkpt lat="42.38813" lon="2.10224">
        <ele>2329</ele>
        <time>2017-10-15T14:46:01.000Z</time>
      </trkpt>
      <trkpt lat="42.38813" lon="2.10223">
        <ele>2329</ele>
        <time>2017-10-15T14:46:02.000Z</time>
      </trkpt>
      <trkpt lat="42.38813" lon="2.10222">
        <ele>2329</ele>
        <time>2017-10-15T14:46:03.000Z</time>
      </trkpt>
      <trkpt lat="42.38813" lon="2.10221">
        <ele>2329</ele>
        <time>2017-10-15T14:46:04.000Z</time>
      </trkpt>
      <trkpt lat="42.38813" lon="2.1022">
        <ele>2329</ele>
        <time>2017-10-15T14:46:05.000Z</time>
      </trkpt>
      <trkpt lat="42.38813" lon="2.10219">
        <ele>2329</ele>
        <time>2017-10-15T14:46:06.000Z</time>
      </trkpt>
      <trkpt lat="42.38813" lon="2.10219">
        <ele>2329</ele>
        <time>2017-10-15T14:46:07.000Z</time>
      </trkpt>
      <trkpt lat="42.38813" lon="2.10218">
        <ele>2329</ele>
        <time>2017-10-15T14:46:08.000Z</time>
      </trkpt>
      <trkpt lat="42.38813" lon="2.10217">
        <ele>2329</ele>
        <time>2017-10-15T14:46:09.000Z</time>
      </trkpt>
      <trkpt lat="42.38813" lon="2.10217">
        <ele>2329</ele>
        <time>2017-10-15T14:46:10.000Z</time>
      </trkpt>
      <trkpt lat="42.38813" lon="2.10216">
        <ele>2329</ele>
        <time>2017-10-15T14:46:11.000Z</time>
      </trkpt>
      <trkpt lat="42.38813" lon="2.10215">
        <ele>2329</ele>
        <time>2017-10-15T14:46:12.000Z</time>
      </trkpt>
      <trkpt lat="42.38813" lon="2.10214">
        <ele>2329</ele>
        <time>2017-10-15T14:46:13.000Z</time>
      </trkpt>
      <trkpt lat="42.38813" lon="2.10214">
        <ele>2329</ele>
        <time>2017-10-15T14:46:14.000Z</time>
      </trkpt>
      <trkpt lat="42.38813" lon="2.10213">
        <ele>2329</ele>
        <time>2017-10-15T14:46:15.000Z</time>
      </trkpt>
      <trkpt lat="42.38776" lon="2.10177">
        <ele>2322</ele>
        <time>2017-10-15T14:47:46.000Z</time>
      </trkpt>
      <trkpt lat="42.38775" lon="2.10177">
        <ele>2321</ele>
        <time>2017-10-15T14:47:47.000Z</time>
      </trkpt>
      <trkpt lat="42.38775" lon="2.10176">
        <ele>2321</ele>
        <time>2017-10-15T14:47:48.000Z</time>
      </trkpt>
      <trkpt lat="42.38773" lon="2.10175">
        <ele>2321</ele>
        <time>2017-10-15T14:47:49.000Z</time>
      </trkpt>
      <trkpt lat="42.38772" lon="2.10174">
        <ele>2321</ele>
        <time>2017-10-15T14:47:50.000Z</time>
      </trkpt>
      <trkpt lat="42.38771" lon="2.10173">
        <ele>2321</ele>
        <time>2017-10-15T14:47:51.000Z</time>
      </trkpt>
      <trkpt lat="42.3877" lon="2.10172">
        <ele>2321</ele>
        <time>2017-10-15T14:47:52.000Z</time>
      </trkpt>
      <trkpt lat="42.3877" lon="2.10171">
        <ele>2320</ele>
        <time>2017-10-15T14:47:53.000Z</time>
      </trkpt>
      <trkpt lat="42.38769" lon="2.1017">
        <ele>2320</ele>
        <time>2017-10-15T14:47:54.000Z</time>
      </trkpt>
      <trkpt lat="42.38769" lon="2.10169">
        <ele>2320</ele>
        <time>2017-10-15T14:47:55.000Z</time>
      </trkpt>
      <trkpt lat="42.38768" lon="2.10168">
        <ele>2320</ele>
        <time>2017-10-15T14:47:56.000Z</time>
      </trkpt>
      <trkpt lat="42.38768" lon="2.10166">
        <ele>2320</ele>
        <time>2017-10-15T14:47:57.000Z</time>
      </trkpt>
      <trkpt lat="42.38767" lon="2.10165">
        <ele>2320</ele>
        <time>2017-10-15T14:47:58.000Z</time>
      </trkpt>
      <trkpt lat="42.38767" lon="2.10163">
        <ele>2320</ele>
        <time>2017-10-15T14:47:59.000Z</time>
      </trkpt>
      <trkpt lat="42.38767" lon="2.10161">
        <ele>2320</ele>
        <time>2017-10-15T14:48:00.000Z</time>
      </trkpt>
      <trkpt lat="42.38767" lon="2.1016">
        <ele>2320</ele>
        <time>2017-10-15T14:48:01.000Z</time>
      </trkpt>
      <trkpt lat="42.38766" lon="2.10159">
        <ele>2319</ele>
        <time>2017-10-15T14:48:02.000Z</time>
      </trkpt>
      <trkpt lat="42.38766" lon="2.10158">
        <ele>2319</ele>
        <time>2017-10-15T14:48:03.000Z</time>
      </trkpt>
      <trkpt lat="42.38765" lon="2.10157">
        <ele>2319</ele>
        <time>2017-10-15T14:48:04.000Z</time>
      </trkpt>
      <trkpt lat="42.38765" lon="2.10156">
        <ele>2319</ele>
        <time>2017-10-15T14:48:05.000Z</time>
      </trkpt>
      <trkpt lat="42.38765" lon="2.10154">
        <ele>2318</ele>
        <time>2017-10-15T14:48:06.000Z</time>
      </trkpt>
      <trkpt lat="42.38764" lon="2.10154">
        <ele>2318</ele>
        <time>2017-10-15T14:48:07.000Z</time>
      </trkpt>
      <trkpt lat="42.38763" lon="2.10153">
        <ele>2318</ele>
        <time>2017-10-15T14:48:08.000Z</time>
      </trkpt>
      <trkpt lat="42.38762" lon="2.10152">
        <ele>2317</ele>
        <time>2017-10-15T14:48:09.000Z</time>
      </trkpt>
      <trkpt lat="42.38762" lon="2.10152">
        <ele>2317</ele>
        <time>2017-10-15T14:48:10.000Z</time>
      </trkpt>
      <trkpt lat="42.38761" lon="2.10151">
        <ele>2317</ele>
        <time>2017-10-15T14:48:11.000Z</time>
      </trkpt>
      <trkpt lat="42.38761" lon="2.1015">
        <ele>2317</ele>
        <time>2017-10-15T14:48:12.000Z</time>
      </trkpt>
      <trkpt lat="42.3876" lon="2.10149">
        <ele>2316</ele>
        <time>2017-10-15T14:48:13.000Z</time>
      </trkpt>
      <trkpt lat="42.38759" lon="2.10149">
        <ele>2316</ele>
        <time>2017-10-15T14:48:14.000Z</time>
      </trkpt>
      <trkpt lat="42.38758" lon="2.10148">
        <ele>2316</ele>
        <time>2017-10-15T14:48:15.000Z</time>
      </trkpt>
      <trkpt lat="42.38757" lon="2.10148">
        <ele>2316</ele>
        <time>2017-10-15T14:48:16.000Z</time>
      </trkpt>
      <trkpt lat="42.38756" lon="2.10147">
        <ele>2315</ele>
        <time>2017-10-15T14:48:17.000Z</time>
      </trkpt>
      <trkpt lat="42.38756" lon="2.10147">
        <ele>2315</ele>
        <time>2017-10-15T14:48:18.000Z</time>
      </trkpt>
      <trkpt lat="42.38755" lon="2.10146">
        <ele>2315</ele>
        <time>2017-10-15T14:48:19.000Z</time>
      </trkpt>
      <trkpt lat="42.38755" lon="2.10145">
        <ele>2315</ele>
        <time>2017-10-15T14:48:20.000Z</time>
      </trkpt>
      <trkpt lat="42.38754" lon="2.10144">
        <ele>2314</ele>
        <time>2017-10-15T14:48:21.000Z</time>
      </trkpt>
      <trkpt lat="42.38754" lon="2.10143">
        <ele>2314</ele>
        <time>2017-10-15T14:48:22.000Z</time>
      </trkpt>
      <trkpt lat="42.38753" lon="2.10142">
        <ele>2314</ele>
        <time>2017-10-15T14:48:23.000Z</time>
      </trkpt>
      <trkpt lat="42.38753" lon="2.10141">
        <ele>2313</ele>
        <time>2017-10-15T14:48:24.000Z</time>
      </trkpt>
      <trkpt lat="42.38752" lon="2.1014">
        <ele>2313</ele>
        <time>2017-10-15T14:48:25.000Z</time>
      </trkpt>
      <trkpt lat="42.38752" lon="2.10139">
        <ele>2313</ele>
        <time>2017-10-15T14:48:26.000Z</time>
      </trkpt>
      <trkpt lat="42.38751" lon="2.10139">
        <ele>2313</ele>
        <time>2017-10-15T14:48:27.000Z</time>
      </trkpt>
      <trkpt lat="42.38751" lon="2.10138">
        <ele>2312</ele>
        <time>2017-10-15T14:48:28.000Z</time>
      </trkpt>
      <trkpt lat="42.38749" lon="2.10138">
        <ele>2312</ele>
        <time>2017-10-15T14:48:29.000Z</time>
      </trkpt>
      <trkpt lat="42.38748" lon="2.10139">
        <ele>2312</ele>
        <time>2017-10-15T14:48:30.000Z</time>
      </trkpt>
      <trkpt lat="42.38747" lon="2.1014">
        <ele>2312</ele>
        <time>2017-10-15T14:48:31.000Z</time>
      </trkpt>
      <trkpt lat="42.38745" lon="2.1014">
        <ele>2312</ele>
        <time>2017-10-15T14:48:32.000Z</time>
      </trkpt>
      <trkpt lat="42.38744" lon="2.1014">
        <ele>2312</ele>
        <time>2017-10-15T14:48:33.000Z</time>
      </trkpt>
      <trkpt lat="42.38743" lon="2.1014">
        <ele>2312</ele>
        <time>2017-10-15T14:48:34.000Z</time>
      </trkpt>
      <trkpt lat="42.38742" lon="2.10139">
        <ele>2312</ele>
        <time>2017-10-15T14:48:35.000Z</time>
      </trkpt>
      <trkpt lat="42.38741" lon="2.10139">
        <ele>2312</ele>
        <time>2017-10-15T14:48:36.000Z</time>
      </trkpt>
      <trkpt lat="42.3874" lon="2.10138">
        <ele>2312</ele>
        <time>2017-10-15T14:48:37.000Z</time>
      </trkpt>
      <trkpt lat="42.38739" lon="2.10138">
        <ele>2312</ele>
        <time>2017-10-15T14:48:38.000Z</time>
      </trkpt>
      <trkpt lat="42.38739" lon="2.10137">
        <ele>2312</ele>
        <time>2017-10-15T14:48:39.000Z</time>
      </trkpt>
      <trkpt lat="42.38738" lon="2.10136">
        <ele>2312</ele>
        <time>2017-10-15T14:48:40.000Z</time>
      </trkpt>
      <trkpt lat="42.38738" lon="2.10136">
        <ele>2312</ele>
        <time>2017-10-15T14:48:41.000Z</time>
      </trkpt>
      <trkpt lat="42.38737" lon="2.10135">
        <ele>2311</ele>
        <time>2017-10-15T14:48:42.000Z</time>
      </trkpt>
      <trkpt lat="42.38737" lon="2.10134">
        <ele>2311</ele>
        <time>2017-10-15T14:48:43.000Z</time>
      </trkpt>
      <trkpt lat="42.38736" lon="2.10133">
        <ele>2311</ele>
        <time>2017-10-15T14:48:44.000Z</time>
      </trkpt>
      <trkpt lat="42.38735" lon="2.10132">
        <ele>2311</ele>
        <time>2017-10-15T14:48:45.000Z</time>
      </trkpt>
      <trkpt lat="42.38735" lon="2.10131">
        <ele>2311</ele>
        <time>2017-10-15T14:48:46.000Z</time>
      </trkpt>
      <trkpt lat="42.38735" lon="2.1013">
        <ele>2311</ele>
        <time>2017-10-15T14:48:47.000Z</time>
      </trkpt>
      <trkpt lat="42.38734" lon="2.10129">
        <ele>2310</ele>
        <time>2017-10-15T14:48:48.000Z</time>
      </trkpt>
      <trkpt lat="42.38734" lon="2.10128">
        <ele>2310</ele>
        <time>2017-10-15T14:48:49.000Z</time>
      </trkpt>
      <trkpt lat="42.38733" lon="2.10127">
        <ele>2310</ele>
        <time>2017-10-15T14:48:50.000Z</time>
      </trkpt>
      <trkpt lat="42.38732" lon="2.10126">
        <ele>2310</ele>
        <time>2017-10-15T14:48:51.000Z</time>
      </trkpt>
      <trkpt lat="42.38732" lon="2.10125">
        <ele>2310</ele>
        <time>2017-10-15T14:48:52.000Z</time>
      </trkpt>
      <trkpt lat="42.38731" lon="2.10125">
        <ele>2310</ele>
        <time>2017-10-15T14:48:53.000Z</time>
      </trkpt>
      <trkpt lat="42.38731" lon="2.10124">
        <ele>2309</ele>
        <time>2017-10-15T14:48:54.000Z</time>
      </trkpt>
      <trkpt lat="42.38731" lon="2.10123">
        <ele>2309</ele>
        <time>2017-10-15T14:48:55.000Z</time>
      </trkpt>
      <trkpt lat="42.38731" lon="2.10122">
        <ele>2309</ele>
        <time>2017-10-15T14:48:56.000Z</time>
      </trkpt>
      <trkpt lat="42.3873" lon="2.10121">
        <ele>2309</ele>
        <time>2017-10-15T14:48:57.000Z</time>
      </trkpt>
      <trkpt lat="42.38729" lon="2.10121">
        <ele>2309</ele>
        <time>2017-10-15T14:48:58.000Z</time>
      </trkpt>
      <trkpt lat="42.38729" lon="2.1012">
        <ele>2309</ele>
        <time>2017-10-15T14:48:59.000Z</time>
      </trkpt>
      <trkpt lat="42.38729" lon="2.10119">
        <ele>2309</ele>
        <time>2017-10-15T14:49:00.000Z</time>
      </trkpt>
      <trkpt lat="42.38728" lon="2.10118">
        <ele>2308</ele>
        <time>2017-10-15T14:49:01.000Z</time>
      </trkpt>
      <trkpt lat="42.38728" lon="2.10117">
        <ele>2308</ele>
        <time>2017-10-15T14:49:02.000Z</time>
      </trkpt>
      <trkpt lat="42.38727" lon="2.10116">
        <ele>2308</ele>
        <time>2017-10-15T14:49:03.000Z</time>
      </trkpt>
      <trkpt lat="42.38726" lon="2.10115">
        <ele>2308</ele>
        <time>2017-10-15T14:49:04.000Z</time>
      </trkpt>
      <trkpt lat="42.38726" lon="2.10114">
        <ele>2308</ele>
        <time>2017-10-15T14:49:05.000Z</time>
      </trkpt>
      <trkpt lat="42.38726" lon="2.10114">
        <ele>2308</ele>
        <time>2017-10-15T14:49:06.000Z</time>
      </trkpt>
      <trkpt lat="42.38725" lon="2.10113">
        <ele>2307</ele>
        <time>2017-10-15T14:49:07.000Z</time>
      </trkpt>
      <trkpt lat="42.38725" lon="2.10111">
        <ele>2307</ele>
        <time>2017-10-15T14:49:08.000Z</time>
      </trkpt>
      <trkpt lat="42.38724" lon="2.1011">
        <ele>2307</ele>
        <time>2017-10-15T14:49:09.000Z</time>
      </trkpt>
      <trkpt lat="42.38723" lon="2.10108">
        <ele>2307</ele>
        <time>2017-10-15T14:49:10.000Z</time>
      </trkpt>
      <trkpt lat="42.38723" lon="2.10107">
        <ele>2306</ele>
        <time>2017-10-15T14:49:11.000Z</time>
      </trkpt>
      <trkpt lat="42.38722" lon="2.10106">
        <ele>2306</ele>
        <time>2017-10-15T14:49:12.000Z</time>
      </trkpt>
      <trkpt lat="42.38722" lon="2.10105">
        <ele>2306</ele>
        <time>2017-10-15T14:49:13.000Z</time>
      </trkpt>
      <trkpt lat="42.38721" lon="2.10105">
        <ele>2306</ele>
        <time>2017-10-15T14:49:14.000Z</time>
      </trkpt>
      <trkpt lat="42.38721" lon="2.10104">
        <ele>2306</ele>
        <time>2017-10-15T14:49:15.000Z</time>
      </trkpt>
      <trkpt lat="42.38721" lon="2.10104">
        <ele>2306</ele>
        <time>2017-10-15T14:49:16.000Z</time>
      </trkpt>
      <trkpt lat="42.38721" lon="2.10103">
        <ele>2306</ele>
        <time>2017-10-15T14:49:17.000Z</time>
      </trkpt>
      <trkpt lat="42.3872" lon="2.10102">
        <ele>2306</ele>
        <time>2017-10-15T14:49:18.000Z</time>
      </trkpt>
      <trkpt lat="42.3872" lon="2.10101">
        <ele>2305</ele>
        <time>2017-10-15T14:49:19.000Z</time>
      </trkpt>
      <trkpt lat="42.3872" lon="2.101">
        <ele>2305</ele>
        <time>2017-10-15T14:49:20.000Z</time>
      </trkpt>
      <trkpt lat="42.38719" lon="2.101">
        <ele>2305</ele>
        <time>2017-10-15T14:49:21.000Z</time>
      </trkpt>
      <trkpt lat="42.38719" lon="2.10099">
        <ele>2305</ele>
        <time>2017-10-15T14:49:22.000Z</time>
      </trkpt>
      <trkpt lat="42.38718" lon="2.10098">
        <ele>2305</ele>
        <time>2017-10-15T14:49:23.000Z</time>
      </trkpt>
      <trkpt lat="42.38717" lon="2.10097">
        <ele>2305</ele>
        <time>2017-10-15T14:49:24.000Z</time>
      </trkpt>
      <trkpt lat="42.38716" lon="2.10096">
        <ele>2304</ele>
        <time>2017-10-15T14:49:25.000Z</time>
      </trkpt>
      <trkpt lat="42.38715" lon="2.10095">
        <ele>2304</ele>
        <time>2017-10-15T14:49:26.000Z</time>
      </trkpt>
      <trkpt lat="42.38716" lon="2.10092">
        <ele>2304</ele>
        <time>2017-10-15T14:49:27.000Z</time>
      </trkpt>
      <trkpt lat="42.38715" lon="2.10091">
        <ele>2304</ele>
        <time>2017-10-15T14:49:28.000Z</time>
      </trkpt>
      <trkpt lat="42.38714" lon="2.10091">
        <ele>2303</ele>
        <time>2017-10-15T14:49:29.000Z</time>
      </trkpt>
      <trkpt lat="42.38713" lon="2.1009">
        <ele>2303</ele>
        <time>2017-10-15T14:49:30.000Z</time>
      </trkpt>
      <trkpt lat="42.38712" lon="2.10088">
        <ele>2303</ele>
        <time>2017-10-15T14:49:31.000Z</time>
      </trkpt>
      <trkpt lat="42.38711" lon="2.10087">
        <ele>2303</ele>
        <time>2017-10-15T14:49:32.000Z</time>
      </trkpt>
      <trkpt lat="42.3871" lon="2.10086">
        <ele>2303</ele>
        <time>2017-10-15T14:49:33.000Z</time>
      </trkpt>
      <trkpt lat="42.38709" lon="2.10085">
        <ele>2303</ele>
        <time>2017-10-15T14:49:34.000Z</time>
      </trkpt>
      <trkpt lat="42.38709" lon="2.10084">
        <ele>2302</ele>
        <time>2017-10-15T14:49:35.000Z</time>
      </trkpt>
      <trkpt lat="42.38708" lon="2.10083">
        <ele>2302</ele>
        <time>2017-10-15T14:49:36.000Z</time>
      </trkpt>
      <trkpt lat="42.38708" lon="2.10081">
        <ele>2302</ele>
        <time>2017-10-15T14:49:37.000Z</time>
      </trkpt>
      <trkpt lat="42.38708" lon="2.1008">
        <ele>2302</ele>
        <time>2017-10-15T14:49:38.000Z</time>
      </trkpt>
      <trkpt lat="42.38707" lon="2.10079">
        <ele>2301</ele>
        <time>2017-10-15T14:49:39.000Z</time>
      </trkpt>
      <trkpt lat="42.38707" lon="2.10078">
        <ele>2301</ele>
        <time>2017-10-15T14:49:40.000Z</time>
      </trkpt>
      <trkpt lat="42.38706" lon="2.10077">
        <ele>2301</ele>
        <time>2017-10-15T14:49:41.000Z</time>
      </trkpt>
      <trkpt lat="42.38706" lon="2.10076">
        <ele>2301</ele>
        <time>2017-10-15T14:49:42.000Z</time>
      </trkpt>
      <trkpt lat="42.38706" lon="2.10075">
        <ele>2300</ele>
        <time>2017-10-15T14:49:43.000Z</time>
      </trkpt>
      <trkpt lat="42.38705" lon="2.10074">
        <ele>2300</ele>
        <time>2017-10-15T14:49:44.000Z</time>
      </trkpt>
      <trkpt lat="42.38704" lon="2.10074">
        <ele>2300</ele>
        <time>2017-10-15T14:49:45.000Z</time>
      </trkpt>
      <trkpt lat="42.38703" lon="2.10073">
        <ele>2300</ele>
        <time>2017-10-15T14:49:46.000Z</time>
      </trkpt>
      <trkpt lat="42.38702" lon="2.10073">
        <ele>2300</ele>
        <time>2017-10-15T14:49:47.000Z</time>
      </trkpt>
      <trkpt lat="42.38701" lon="2.10072">
        <ele>2300</ele>
        <time>2017-10-15T14:49:48.000Z</time>
      </trkpt>
      <trkpt lat="42.38701" lon="2.10071">
        <ele>2299</ele>
        <time>2017-10-15T14:49:49.000Z</time>
      </trkpt>
      <trkpt lat="42.38701" lon="2.10069">
        <ele>2299</ele>
        <time>2017-10-15T14:49:50.000Z</time>
      </trkpt>
      <trkpt lat="42.38701" lon="2.10068">
        <ele>2299</ele>
        <time>2017-10-15T14:49:51.000Z</time>
      </trkpt>
      <trkpt lat="42.38701" lon="2.10066">
        <ele>2298</ele>
        <time>2017-10-15T14:49:52.000Z</time>
      </trkpt>
      <trkpt lat="42.387" lon="2.10065">
        <ele>2298</ele>
        <time>2017-10-15T14:49:53.000Z</time>
      </trkpt>
      <trkpt lat="42.387" lon="2.10063">
        <ele>2297</ele>
        <time>2017-10-15T14:49:54.000Z</time>
      </trkpt>
      <trkpt lat="42.387" lon="2.10062">
        <ele>2297</ele>
        <time>2017-10-15T14:49:55.000Z</time>
      </trkpt>
      <trkpt lat="42.387" lon="2.1006">
        <ele>2296</ele>
        <time>2017-10-15T14:49:56.000Z</time>
      </trkpt>
      <trkpt lat="42.387" lon="2.10059">
        <ele>2296</ele>
        <time>2017-10-15T14:49:57.000Z</time>
      </trkpt>
      <trkpt lat="42.38699" lon="2.10057">
        <ele>2296</ele>
        <time>2017-10-15T14:49:58.000Z</time>
      </trkpt>
      <trkpt lat="42.38699" lon="2.10056">
        <ele>2295</ele>
        <time>2017-10-15T14:49:59.000Z</time>
      </trkpt>
      <trkpt lat="42.38699" lon="2.10054">
        <ele>2295</ele>
        <time>2017-10-15T14:50:00.000Z</time>
      </trkpt>
      <trkpt lat="42.38699" lon="2.10053">
        <ele>2294</ele>
        <time>2017-10-15T14:50:01.000Z</time>
      </trkpt>
      <trkpt lat="42.38698" lon="2.10051">
        <ele>2294</ele>
        <time>2017-10-15T14:50:02.000Z</time>
      </trkpt>
      <trkpt lat="42.38698" lon="2.1005">
        <ele>2293</ele>
        <time>2017-10-15T14:50:03.000Z</time>
      </trkpt>
      <trkpt lat="42.38698" lon="2.10049">
        <ele>2293</ele>
        <time>2017-10-15T14:50:04.000Z</time>
      </trkpt>
      <trkpt lat="42.38698" lon="2.10048">
        <ele>2293</ele>
        <time>2017-10-15T14:50:05.000Z</time>
      </trkpt>
      <trkpt lat="42.38697" lon="2.10047">
        <ele>2293</ele>
        <time>2017-10-15T14:50:06.000Z</time>
      </trkpt>
      <trkpt lat="42.38697" lon="2.10046">
        <ele>2292</ele>
        <time>2017-10-15T14:50:07.000Z</time>
      </trkpt>
      <trkpt lat="42.38697" lon="2.10046">
        <ele>2292</ele>
        <time>2017-10-15T14:50:08.000Z</time>
      </trkpt>
      <trkpt lat="42.38696" lon="2.10045">
        <ele>2292</ele>
        <time>2017-10-15T14:50:09.000Z</time>
      </trkpt>
      <trkpt lat="42.38695" lon="2.10044">
        <ele>2292</ele>
        <time>2017-10-15T14:50:10.000Z</time>
      </trkpt>
      <trkpt lat="42.38695" lon="2.10043">
        <ele>2291</ele>
        <time>2017-10-15T14:50:11.000Z</time>
      </trkpt>
      <trkpt lat="42.38695" lon="2.10041">
        <ele>2291</ele>
        <time>2017-10-15T14:50:12.000Z</time>
      </trkpt>
      <trkpt lat="42.38695" lon="2.1004">
        <ele>2291</ele>
        <time>2017-10-15T14:50:13.000Z</time>
      </trkpt>
      <trkpt lat="42.38694" lon="2.10039">
        <ele>2290</ele>
        <time>2017-10-15T14:50:14.000Z</time>
      </trkpt>
      <trkpt lat="42.38694" lon="2.10038">
        <ele>2290</ele>
        <time>2017-10-15T14:50:15.000Z</time>
      </trkpt>
      <trkpt lat="42.38694" lon="2.10037">
        <ele>2290</ele>
        <time>2017-10-15T14:50:16.000Z</time>
      </trkpt>
      <trkpt lat="42.38694" lon="2.10036">
        <ele>2290</ele>
        <time>2017-10-15T14:50:17.000Z</time>
      </trkpt>
      <trkpt lat="42.38694" lon="2.10035">
        <ele>2289</ele>
        <time>2017-10-15T14:50:18.000Z</time>
      </trkpt>
      <trkpt lat="42.38693" lon="2.10033">
        <ele>2289</ele>
        <time>2017-10-15T14:50:19.000Z</time>
      </trkpt>
      <trkpt lat="42.38693" lon="2.10033">
        <ele>2289</ele>
        <time>2017-10-15T14:50:20.000Z</time>
      </trkpt>
      <trkpt lat="42.38693" lon="2.10031">
        <ele>2288</ele>
        <time>2017-10-15T14:50:21.000Z</time>
      </trkpt>
      <trkpt lat="42.38692" lon="2.1003">
        <ele>2288</ele>
        <time>2017-10-15T14:50:22.000Z</time>
      </trkpt>
      <trkpt lat="42.38692" lon="2.10029">
        <ele>2288</ele>
        <time>2017-10-15T14:50:23.000Z</time>
      </trkpt>
      <trkpt lat="42.38692" lon="2.10027">
        <ele>2287</ele>
        <time>2017-10-15T14:50:24.000Z</time>
      </trkpt>
      <trkpt lat="42.38692" lon="2.10026">
        <ele>2287</ele>
        <time>2017-10-15T14:50:25.000Z</time>
      </trkpt>
      <trkpt lat="42.38692" lon="2.10025">
        <ele>2287</ele>
        <time>2017-10-15T14:50:26.000Z</time>
      </trkpt>
      <trkpt lat="42.38692" lon="2.10024">
        <ele>2286</ele>
        <time>2017-10-15T14:50:27.000Z</time>
      </trkpt>
      <trkpt lat="42.38691" lon="2.10023">
        <ele>2286</ele>
        <time>2017-10-15T14:50:28.000Z</time>
      </trkpt>
      <trkpt lat="42.38691" lon="2.10022">
        <ele>2286</ele>
        <time>2017-10-15T14:50:29.000Z</time>
      </trkpt>
      <trkpt lat="42.3869" lon="2.10021">
        <ele>2285</ele>
        <time>2017-10-15T14:50:30.000Z</time>
      </trkpt>
      <trkpt lat="42.3869" lon="2.1002">
        <ele>2285</ele>
        <time>2017-10-15T14:50:31.000Z</time>
      </trkpt>
      <trkpt lat="42.3869" lon="2.10019">
        <ele>2285</ele>
        <time>2017-10-15T14:50:32.000Z</time>
      </trkpt>
      <trkpt lat="42.3869" lon="2.10017">
        <ele>2285</ele>
        <time>2017-10-15T14:50:33.000Z</time>
      </trkpt>
      <trkpt lat="42.3869" lon="2.10016">
        <ele>2285</ele>
        <time>2017-10-15T14:50:34.000Z</time>
      </trkpt>
      <trkpt lat="42.38689" lon="2.10016">
        <ele>2285</ele>
        <time>2017-10-15T14:50:35.000Z</time>
      </trkpt>
      <trkpt lat="42.38689" lon="2.10015">
        <ele>2284</ele>
        <time>2017-10-15T14:50:36.000Z</time>
      </trkpt>
      <trkpt lat="42.38688" lon="2.10015">
        <ele>2284</ele>
        <time>2017-10-15T14:50:37.000Z</time>
      </trkpt>
      <trkpt lat="42.38687" lon="2.10014">
        <ele>2284</ele>
        <time>2017-10-15T14:50:38.000Z</time>
      </trkpt>
      <trkpt lat="42.38687" lon="2.10014">
        <ele>2284</ele>
        <time>2017-10-15T14:50:39.000Z</time>
      </trkpt>
      <trkpt lat="42.38686" lon="2.10013">
        <ele>2284</ele>
        <time>2017-10-15T14:50:40.000Z</time>
      </trkpt>
      <trkpt lat="42.38686" lon="2.10013">
        <ele>2284</ele>
        <time>2017-10-15T14:50:41.000Z</time>
      </trkpt>
      <trkpt lat="42.38685" lon="2.10012">
        <ele>2283</ele>
        <time>2017-10-15T14:50:42.000Z</time>
      </trkpt>
      <trkpt lat="42.38684" lon="2.10011">
        <ele>2283</ele>
        <time>2017-10-15T14:50:43.000Z</time>
      </trkpt>
      <trkpt lat="42.38683" lon="2.1001">
        <ele>2283</ele>
        <time>2017-10-15T14:50:44.000Z</time>
      </trkpt>
      <trkpt lat="42.38682" lon="2.1001">
        <ele>2283</ele>
        <time>2017-10-15T14:50:45.000Z</time>
      </trkpt>
      <trkpt lat="42.38681" lon="2.10009">
        <ele>2282</ele>
        <time>2017-10-15T14:50:46.000Z</time>
      </trkpt>
      <trkpt lat="42.3868" lon="2.10007">
        <ele>2282</ele>
        <time>2017-10-15T14:50:47.000Z</time>
      </trkpt>
      <trkpt lat="42.38679" lon="2.10006">
        <ele>2282</ele>
        <time>2017-10-15T14:50:48.000Z</time>
      </trkpt>
      <trkpt lat="42.38679" lon="2.10005">
        <ele>2282</ele>
        <time>2017-10-15T14:50:49.000Z</time>
      </trkpt>
      <trkpt lat="42.38679" lon="2.10004">
        <ele>2282</ele>
        <time>2017-10-15T14:50:50.000Z</time>
      </trkpt>
      <trkpt lat="42.38678" lon="2.10003">
        <ele>2282</ele>
        <time>2017-10-15T14:50:51.000Z</time>
      </trkpt>
      <trkpt lat="42.38678" lon="2.10003">
        <ele>2282</ele>
        <time>2017-10-15T14:50:52.000Z</time>
      </trkpt>
      <trkpt lat="42.38677" lon="2.10003">
        <ele>2281</ele>
        <time>2017-10-15T14:50:53.000Z</time>
      </trkpt>
      <trkpt lat="42.38676" lon="2.10002">
        <ele>2281</ele>
        <time>2017-10-15T14:50:54.000Z</time>
      </trkpt>
      <trkpt lat="42.38676" lon="2.10002">
        <ele>2281</ele>
        <time>2017-10-15T14:50:55.000Z</time>
      </trkpt>
      <trkpt lat="42.38675" lon="2.10001">
        <ele>2281</ele>
        <time>2017-10-15T14:50:56.000Z</time>
      </trkpt>
      <trkpt lat="42.38673" lon="2.10001">
        <ele>2280</ele>
        <time>2017-10-15T14:50:57.000Z</time>
      </trkpt>
      <trkpt lat="42.38672" lon="2.10001">
        <ele>2280</ele>
        <time>2017-10-15T14:50:58.000Z</time>
      </trkpt>
      <trkpt lat="42.38671" lon="2.1">
        <ele>2280</ele>
        <time>2017-10-15T14:50:59.000Z</time>
      </trkpt>
      <trkpt lat="42.38669" lon="2.09999">
        <ele>2280</ele>
        <time>2017-10-15T14:51:00.000Z</time>
      </trkpt>
      <trkpt lat="42.38668" lon="2.09999">
        <ele>2279</ele>
        <time>2017-10-15T14:51:01.000Z</time>
      </trkpt>
      <trkpt lat="42.38667" lon="2.09997">
        <ele>2279</ele>
        <time>2017-10-15T14:51:02.000Z</time>
      </trkpt>
      <trkpt lat="42.38666" lon="2.09996">
        <ele>2279</ele>
        <time>2017-10-15T14:51:03.000Z</time>
      </trkpt>
      <trkpt lat="42.38665" lon="2.09994">
        <ele>2278</ele>
        <time>2017-10-15T14:51:04.000Z</time>
      </trkpt>
      <trkpt lat="42.38664" lon="2.09993">
        <ele>2278</ele>
        <time>2017-10-15T14:51:05.000Z</time>
      </trkpt>
      <trkpt lat="42.38664" lon="2.09992">
        <ele>2278</ele>
        <time>2017-10-15T14:51:06.000Z</time>
      </trkpt>
      <trkpt lat="42.38663" lon="2.09991">
        <ele>2278</ele>
        <time>2017-10-15T14:51:07.000Z</time>
      </trkpt>
      <trkpt lat="42.38663" lon="2.0999">
        <ele>2278</ele>
        <time>2017-10-15T14:51:08.000Z</time>
      </trkpt>
      <trkpt lat="42.38663" lon="2.09988">
        <ele>2277</ele>
        <time>2017-10-15T14:51:09.000Z</time>
      </trkpt>
      <trkpt lat="42.38663" lon="2.09986">
        <ele>2277</ele>
        <time>2017-10-15T14:51:10.000Z</time>
      </trkpt>
      <trkpt lat="42.38663" lon="2.09985">
        <ele>2277</ele>
        <time>2017-10-15T14:51:11.000Z</time>
      </trkpt>
      <trkpt lat="42.38663" lon="2.09985">
        <ele>2277</ele>
        <time>2017-10-15T14:51:12.000Z</time>
      </trkpt>
      <trkpt lat="42.38663" lon="2.09984">
        <ele>2277</ele>
        <time>2017-10-15T14:51:13.000Z</time>
      </trkpt>
      <trkpt lat="42.38664" lon="2.09984">
        <ele>2277</ele>
        <time>2017-10-15T14:51:14.000Z</time>
      </trkpt>
      <trkpt lat="42.38664" lon="2.09984">
        <ele>2277</ele>
        <time>2017-10-15T14:51:15.000Z</time>
      </trkpt>
      <trkpt lat="42.38663" lon="2.09984">
        <ele>2277</ele>
        <time>2017-10-15T14:51:16.000Z</time>
      </trkpt>
      <trkpt lat="42.38662" lon="2.09984">
        <ele>2277</ele>
        <time>2017-10-15T14:51:17.000Z</time>
      </trkpt>
      <trkpt lat="42.38662" lon="2.09983">
        <ele>2277</ele>
        <time>2017-10-15T14:51:18.000Z</time>
      </trkpt>
      <trkpt lat="42.38661" lon="2.09982">
        <ele>2277</ele>
        <time>2017-10-15T14:51:19.000Z</time>
      </trkpt>
      <trkpt lat="42.38661" lon="2.09981">
        <ele>2277</ele>
        <time>2017-10-15T14:51:20.000Z</time>
      </trkpt>
      <trkpt lat="42.38661" lon="2.0998">
        <ele>2277</ele>
        <time>2017-10-15T14:51:21.000Z</time>
      </trkpt>
      <trkpt lat="42.3866" lon="2.09979">
        <ele>2276</ele>
        <time>2017-10-15T14:51:22.000Z</time>
      </trkpt>
      <trkpt lat="42.38659" lon="2.09978">
        <ele>2276</ele>
        <time>2017-10-15T14:51:23.000Z</time>
      </trkpt>
      <trkpt lat="42.38659" lon="2.09977">
        <ele>2276</ele>
        <time>2017-10-15T14:51:24.000Z</time>
      </trkpt>
      <trkpt lat="42.38658" lon="2.09976">
        <ele>2276</ele>
        <time>2017-10-15T14:51:25.000Z</time>
      </trkpt>
      <trkpt lat="42.38657" lon="2.09974">
        <ele>2276</ele>
        <time>2017-10-15T14:51:26.000Z</time>
      </trkpt>
      <trkpt lat="42.38657" lon="2.09973">
        <ele>2276</ele>
        <time>2017-10-15T14:51:27.000Z</time>
      </trkpt>
      <trkpt lat="42.38657" lon="2.09972">
        <ele>2276</ele>
        <time>2017-10-15T14:51:28.000Z</time>
      </trkpt>
      <trkpt lat="42.38657" lon="2.0997">
        <ele>2276</ele>
        <time>2017-10-15T14:51:29.000Z</time>
      </trkpt>
      <trkpt lat="42.38657" lon="2.0997">
        <ele>2276</ele>
        <time>2017-10-15T14:51:30.000Z</time>
      </trkpt>
      <trkpt lat="42.38656" lon="2.09968">
        <ele>2275</ele>
        <time>2017-10-15T14:51:31.000Z</time>
      </trkpt>
      <trkpt lat="42.38656" lon="2.09967">
        <ele>2275</ele>
        <time>2017-10-15T14:51:32.000Z</time>
      </trkpt>
      <trkpt lat="42.38656" lon="2.09966">
        <ele>2275</ele>
        <time>2017-10-15T14:51:33.000Z</time>
      </trkpt>
      <trkpt lat="42.38655" lon="2.09965">
        <ele>2275</ele>
        <time>2017-10-15T14:51:34.000Z</time>
      </trkpt>
      <trkpt lat="42.38655" lon="2.09964">
        <ele>2275</ele>
        <time>2017-10-15T14:51:35.000Z</time>
      </trkpt>
      <trkpt lat="42.38654" lon="2.09963">
        <ele>2275</ele>
        <time>2017-10-15T14:51:36.000Z</time>
      </trkpt>
      <trkpt lat="42.38653" lon="2.09962">
        <ele>2275</ele>
        <time>2017-10-15T14:51:37.000Z</time>
      </trkpt>
      <trkpt lat="42.38653" lon="2.09961">
        <ele>2275</ele>
        <time>2017-10-15T14:51:38.000Z</time>
      </trkpt>
      <trkpt lat="42.38653" lon="2.0996">
        <ele>2274</ele>
        <time>2017-10-15T14:51:39.000Z</time>
      </trkpt>
      <trkpt lat="42.38652" lon="2.09959">
        <ele>2274</ele>
        <time>2017-10-15T14:51:40.000Z</time>
      </trkpt>
      <trkpt lat="42.38652" lon="2.09957">
        <ele>2274</ele>
        <time>2017-10-15T14:51:41.000Z</time>
      </trkpt>
      <trkpt lat="42.38652" lon="2.09955">
        <ele>2274</ele>
        <time>2017-10-15T14:51:42.000Z</time>
      </trkpt>
      <trkpt lat="42.38652" lon="2.09954">
        <ele>2274</ele>
        <time>2017-10-15T14:51:43.000Z</time>
      </trkpt>
      <trkpt lat="42.38652" lon="2.09952">
        <ele>2274</ele>
        <time>2017-10-15T14:51:44.000Z</time>
      </trkpt>
      <trkpt lat="42.38651" lon="2.09951">
        <ele>2274</ele>
        <time>2017-10-15T14:51:45.000Z</time>
      </trkpt>
      <trkpt lat="42.38651" lon="2.0995">
        <ele>2274</ele>
        <time>2017-10-15T14:51:46.000Z</time>
      </trkpt>
      <trkpt lat="42.3865" lon="2.09949">
        <ele>2273</ele>
        <time>2017-10-15T14:51:47.000Z</time>
      </trkpt>
      <trkpt lat="42.3865" lon="2.09948">
        <ele>2273</ele>
        <time>2017-10-15T14:51:48.000Z</time>
      </trkpt>
      <trkpt lat="42.3865" lon="2.09947">
        <ele>2273</ele>
        <time>2017-10-15T14:51:49.000Z</time>
      </trkpt>
      <trkpt lat="42.3865" lon="2.09946">
        <ele>2273</ele>
        <time>2017-10-15T14:51:50.000Z</time>
      </trkpt>
      <trkpt lat="42.38649" lon="2.09945">
        <ele>2273</ele>
        <time>2017-10-15T14:51:51.000Z</time>
      </trkpt>
      <trkpt lat="42.38649" lon="2.09944">
        <ele>2273</ele>
        <time>2017-10-15T14:51:52.000Z</time>
      </trkpt>
      <trkpt lat="42.38649" lon="2.09943">
        <ele>2273</ele>
        <time>2017-10-15T14:51:53.000Z</time>
      </trkpt>
      <trkpt lat="42.38649" lon="2.09942">
        <ele>2273</ele>
        <time>2017-10-15T14:51:54.000Z</time>
      </trkpt>
      <trkpt lat="42.38649" lon="2.09941">
        <ele>2273</ele>
        <time>2017-10-15T14:51:55.000Z</time>
      </trkpt>
      <trkpt lat="42.38648" lon="2.09939">
        <ele>2272</ele>
        <time>2017-10-15T14:51:56.000Z</time>
      </trkpt>
      <trkpt lat="42.38648" lon="2.09938">
        <ele>2272</ele>
        <time>2017-10-15T14:51:57.000Z</time>
      </trkpt>
      <trkpt lat="42.38648" lon="2.09938">
        <ele>2272</ele>
        <time>2017-10-15T14:51:58.000Z</time>
      </trkpt>
      <trkpt lat="42.38648" lon="2.09937">
        <ele>2272</ele>
        <time>2017-10-15T14:51:59.000Z</time>
      </trkpt>
      <trkpt lat="42.38647" lon="2.09935">
        <ele>2272</ele>
        <time>2017-10-15T14:52:00.000Z</time>
      </trkpt>
      <trkpt lat="42.38647" lon="2.09934">
        <ele>2272</ele>
        <time>2017-10-15T14:52:01.000Z</time>
      </trkpt>
      <trkpt lat="42.38647" lon="2.09933">
        <ele>2272</ele>
        <time>2017-10-15T14:52:02.000Z</time>
      </trkpt>
      <trkpt lat="42.38647" lon="2.09931">
        <ele>2272</ele>
        <time>2017-10-15T14:52:03.000Z</time>
      </trkpt>
      <trkpt lat="42.38646" lon="2.0993">
        <ele>2272</ele>
        <time>2017-10-15T14:52:04.000Z</time>
      </trkpt>
      <trkpt lat="42.38646" lon="2.09929">
        <ele>2272</ele>
        <time>2017-10-15T14:52:05.000Z</time>
      </trkpt>
      <trkpt lat="42.38646" lon="2.09928">
        <ele>2271</ele>
        <time>2017-10-15T14:52:06.000Z</time>
      </trkpt>
      <trkpt lat="42.38646" lon="2.09927">
        <ele>2271</ele>
        <time>2017-10-15T14:52:07.000Z</time>
      </trkpt>
      <trkpt lat="42.38646" lon="2.09926">
        <ele>2271</ele>
        <time>2017-10-15T14:52:08.000Z</time>
      </trkpt>
      <trkpt lat="42.38645" lon="2.09925">
        <ele>2271</ele>
        <time>2017-10-15T14:52:09.000Z</time>
      </trkpt>
      <trkpt lat="42.38645" lon="2.09924">
        <ele>2271</ele>
        <time>2017-10-15T14:52:10.000Z</time>
      </trkpt>
      <trkpt lat="42.38644" lon="2.09923">
        <ele>2271</ele>
        <time>2017-10-15T14:52:11.000Z</time>
      </trkpt>
      <trkpt lat="42.38643" lon="2.09921">
        <ele>2271</ele>
        <time>2017-10-15T14:52:12.000Z</time>
      </trkpt>
      <trkpt lat="42.38643" lon="2.0992">
        <ele>2271</ele>
        <time>2017-10-15T14:52:13.000Z</time>
      </trkpt>
      <trkpt lat="42.38642" lon="2.0992">
        <ele>2270</ele>
        <time>2017-10-15T14:52:14.000Z</time>
      </trkpt>
      <trkpt lat="42.38642" lon="2.09919">
        <ele>2270</ele>
        <time>2017-10-15T14:52:15.000Z</time>
      </trkpt>
      <trkpt lat="42.38641" lon="2.09918">
        <ele>2270</ele>
        <time>2017-10-15T14:52:16.000Z</time>
      </trkpt>
      <trkpt lat="42.3864" lon="2.09918">
        <ele>2270</ele>
        <time>2017-10-15T14:52:17.000Z</time>
      </trkpt>
      <trkpt lat="42.3864" lon="2.09917">
        <ele>2270</ele>
        <time>2017-10-15T14:52:18.000Z</time>
      </trkpt>
      <trkpt lat="42.3864" lon="2.09915">
        <ele>2270</ele>
        <time>2017-10-15T14:52:19.000Z</time>
      </trkpt>
      <trkpt lat="42.3864" lon="2.09914">
        <ele>2270</ele>
        <time>2017-10-15T14:52:20.000Z</time>
      </trkpt>
      <trkpt lat="42.38639" lon="2.09913">
        <ele>2270</ele>
        <time>2017-10-15T14:52:21.000Z</time>
      </trkpt>
      <trkpt lat="42.38639" lon="2.09911">
        <ele>2270</ele>
        <time>2017-10-15T14:52:22.000Z</time>
      </trkpt>
      <trkpt lat="42.38639" lon="2.09911">
        <ele>2269</ele>
        <time>2017-10-15T14:52:23.000Z</time>
      </trkpt>
      <trkpt lat="42.38638" lon="2.0991">
        <ele>2269</ele>
        <time>2017-10-15T14:52:24.000Z</time>
      </trkpt>
      <trkpt lat="42.38638" lon="2.09909">
        <ele>2269</ele>
        <time>2017-10-15T14:52:25.000Z</time>
      </trkpt>
      <trkpt lat="42.38637" lon="2.09908">
        <ele>2269</ele>
        <time>2017-10-15T14:52:26.000Z</time>
      </trkpt>
      <trkpt lat="42.38637" lon="2.09908">
        <ele>2269</ele>
        <time>2017-10-15T14:52:27.000Z</time>
      </trkpt>
      <trkpt lat="42.38636" lon="2.09907">
        <ele>2269</ele>
        <time>2017-10-15T14:52:28.000Z</time>
      </trkpt>
      <trkpt lat="42.38635" lon="2.09906">
        <ele>2268</ele>
        <time>2017-10-15T14:52:29.000Z</time>
      </trkpt>
      <trkpt lat="42.38636" lon="2.09906">
        <ele>2268</ele>
        <time>2017-10-15T14:52:30.000Z</time>
      </trkpt>
      <trkpt lat="42.38635" lon="2.09905">
        <ele>2268</ele>
        <time>2017-10-15T14:52:31.000Z</time>
      </trkpt>
      <trkpt lat="42.38634" lon="2.09904">
        <ele>2268</ele>
        <time>2017-10-15T14:52:32.000Z</time>
      </trkpt>
      <trkpt lat="42.38633" lon="2.09903">
        <ele>2268</ele>
        <time>2017-10-15T14:52:33.000Z</time>
      </trkpt>
      <trkpt lat="42.38634" lon="2.09902">
        <ele>2267</ele>
        <time>2017-10-15T14:52:34.000Z</time>
      </trkpt>
      <trkpt lat="42.38633" lon="2.09901">
        <ele>2267</ele>
        <time>2017-10-15T14:52:35.000Z</time>
      </trkpt>
      <trkpt lat="42.38632" lon="2.099">
        <ele>2267</ele>
        <time>2017-10-15T14:52:36.000Z</time>
      </trkpt>
      <trkpt lat="42.38632" lon="2.09899">
        <ele>2266</ele>
        <time>2017-10-15T14:52:37.000Z</time>
      </trkpt>
      <trkpt lat="42.38631" lon="2.09898">
        <ele>2266</ele>
        <time>2017-10-15T14:52:38.000Z</time>
      </trkpt>
      <trkpt lat="42.38631" lon="2.09897">
        <ele>2266</ele>
        <time>2017-10-15T14:52:39.000Z</time>
      </trkpt>
      <trkpt lat="42.38631" lon="2.09897">
        <ele>2266</ele>
        <time>2017-10-15T14:52:40.000Z</time>
      </trkpt>
      <trkpt lat="42.38631" lon="2.09896">
        <ele>2266</ele>
        <time>2017-10-15T14:52:41.000Z</time>
      </trkpt>
      <trkpt lat="42.3863" lon="2.09895">
        <ele>2265</ele>
        <time>2017-10-15T14:52:42.000Z</time>
      </trkpt>
      <trkpt lat="42.38629" lon="2.09895">
        <ele>2265</ele>
        <time>2017-10-15T14:52:43.000Z</time>
      </trkpt>
      <trkpt lat="42.38628" lon="2.09894">
        <ele>2265</ele>
        <time>2017-10-15T14:52:44.000Z</time>
      </trkpt>
      <trkpt lat="42.38627" lon="2.09893">
        <ele>2265</ele>
        <time>2017-10-15T14:52:45.000Z</time>
      </trkpt>
      <trkpt lat="42.38626" lon="2.09892">
        <ele>2264</ele>
        <time>2017-10-15T14:52:46.000Z</time>
      </trkpt>
      <trkpt lat="42.38625" lon="2.09892">
        <ele>2264</ele>
        <time>2017-10-15T14:52:47.000Z</time>
      </trkpt>
      <trkpt lat="42.38624" lon="2.09891">
        <ele>2264</ele>
        <time>2017-10-15T14:52:48.000Z</time>
      </trkpt>
      <trkpt lat="42.38623" lon="2.0989">
        <ele>2264</ele>
        <time>2017-10-15T14:52:49.000Z</time>
      </trkpt>
      <trkpt lat="42.38622" lon="2.09889">
        <ele>2263</ele>
        <time>2017-10-15T14:52:50.000Z</time>
      </trkpt>
      <trkpt lat="42.38622" lon="2.09888">
        <ele>2263</ele>
        <time>2017-10-15T14:52:51.000Z</time>
      </trkpt>
      <trkpt lat="42.38621" lon="2.09887">
        <ele>2263</ele>
        <time>2017-10-15T14:52:52.000Z</time>
      </trkpt>
      <trkpt lat="42.3862" lon="2.09887">
        <ele>2263</ele>
        <time>2017-10-15T14:52:53.000Z</time>
      </trkpt>
      <trkpt lat="42.38619" lon="2.09886">
        <ele>2262</ele>
        <time>2017-10-15T14:52:54.000Z</time>
      </trkpt>
      <trkpt lat="42.38619" lon="2.09885">
        <ele>2262</ele>
        <time>2017-10-15T14:52:55.000Z</time>
      </trkpt>
      <trkpt lat="42.38617" lon="2.09884">
        <ele>2262</ele>
        <time>2017-10-15T14:52:56.000Z</time>
      </trkpt>
      <trkpt lat="42.38617" lon="2.09883">
        <ele>2262</ele>
        <time>2017-10-15T14:52:57.000Z</time>
      </trkpt>
      <trkpt lat="42.38616" lon="2.09882">
        <ele>2261</ele>
        <time>2017-10-15T14:52:58.000Z</time>
      </trkpt>
      <trkpt lat="42.38616" lon="2.09881">
        <ele>2261</ele>
        <time>2017-10-15T14:52:59.000Z</time>
      </trkpt>
      <trkpt lat="42.38615" lon="2.09881">
        <ele>2261</ele>
        <time>2017-10-15T14:53:00.000Z</time>
      </trkpt>
      <trkpt lat="42.38614" lon="2.09879">
        <ele>2261</ele>
        <time>2017-10-15T14:53:01.000Z</time>
      </trkpt>
      <trkpt lat="42.38614" lon="2.09878">
        <ele>2260</ele>
        <time>2017-10-15T14:53:02.000Z</time>
      </trkpt>
      <trkpt lat="42.38614" lon="2.09877">
        <ele>2260</ele>
        <time>2017-10-15T14:53:03.000Z</time>
      </trkpt>
      <trkpt lat="42.38613" lon="2.09876">
        <ele>2260</ele>
        <time>2017-10-15T14:53:04.000Z</time>
      </trkpt>
      <trkpt lat="42.38613" lon="2.09875">
        <ele>2259</ele>
        <time>2017-10-15T14:53:05.000Z</time>
      </trkpt>
      <trkpt lat="42.38613" lon="2.09874">
        <ele>2259</ele>
        <time>2017-10-15T14:53:06.000Z</time>
      </trkpt>
      <trkpt lat="42.38613" lon="2.09873">
        <ele>2259</ele>
        <time>2017-10-15T14:53:07.000Z</time>
      </trkpt>
      <trkpt lat="42.38613" lon="2.09872">
        <ele>2259</ele>
        <time>2017-10-15T14:53:08.000Z</time>
      </trkpt>
      <trkpt lat="42.38612" lon="2.09871">
        <ele>2258</ele>
        <time>2017-10-15T14:53:09.000Z</time>
      </trkpt>
      <trkpt lat="42.38612" lon="2.0987">
        <ele>2258</ele>
        <time>2017-10-15T14:53:10.000Z</time>
      </trkpt>
      <trkpt lat="42.38611" lon="2.09869">
        <ele>2258</ele>
        <time>2017-10-15T14:53:11.000Z</time>
      </trkpt>
      <trkpt lat="42.3861" lon="2.09868">
        <ele>2258</ele>
        <time>2017-10-15T14:53:12.000Z</time>
      </trkpt>
      <trkpt lat="42.3861" lon="2.09867">
        <ele>2257</ele>
        <time>2017-10-15T14:53:13.000Z</time>
      </trkpt>
      <trkpt lat="42.38609" lon="2.09865">
        <ele>2257</ele>
        <time>2017-10-15T14:53:14.000Z</time>
      </trkpt>
      <trkpt lat="42.38609" lon="2.09864">
        <ele>2257</ele>
        <time>2017-10-15T14:53:15.000Z</time>
      </trkpt>
      <trkpt lat="42.38609" lon="2.09864">
        <ele>2256</ele>
        <time>2017-10-15T14:53:16.000Z</time>
      </trkpt>
      <trkpt lat="42.38608" lon="2.09863">
        <ele>2256</ele>
        <time>2017-10-15T14:53:17.000Z</time>
      </trkpt>
      <trkpt lat="42.38608" lon="2.09862">
        <ele>2256</ele>
        <time>2017-10-15T14:53:18.000Z</time>
      </trkpt>
      <trkpt lat="42.38607" lon="2.09861">
        <ele>2256</ele>
        <time>2017-10-15T14:53:19.000Z</time>
      </trkpt>
      <trkpt lat="42.38607" lon="2.0986">
        <ele>2255</ele>
        <time>2017-10-15T14:53:20.000Z</time>
      </trkpt>
      <trkpt lat="42.38607" lon="2.09859">
        <ele>2255</ele>
        <time>2017-10-15T14:53:21.000Z</time>
      </trkpt>
      <trkpt lat="42.38607" lon="2.09857">
        <ele>2255</ele>
        <time>2017-10-15T14:53:22.000Z</time>
      </trkpt>
      <trkpt lat="42.38608" lon="2.09856">
        <ele>2255</ele>
        <time>2017-10-15T14:53:23.000Z</time>
      </trkpt>
      <trkpt lat="42.38607" lon="2.09855">
        <ele>2254</ele>
        <time>2017-10-15T14:53:24.000Z</time>
      </trkpt>
      <trkpt lat="42.38608" lon="2.09853">
        <ele>2254</ele>
        <time>2017-10-15T14:53:25.000Z</time>
      </trkpt>
      <trkpt lat="42.38607" lon="2.09852">
        <ele>2254</ele>
        <time>2017-10-15T14:53:26.000Z</time>
      </trkpt>
      <trkpt lat="42.38607" lon="2.09852">
        <ele>2254</ele>
        <time>2017-10-15T14:53:27.000Z</time>
      </trkpt>
      <trkpt lat="42.38607" lon="2.09851">
        <ele>2254</ele>
        <time>2017-10-15T14:53:28.000Z</time>
      </trkpt>
      <trkpt lat="42.38607" lon="2.0985">
        <ele>2254</ele>
        <time>2017-10-15T14:53:29.000Z</time>
      </trkpt>
      <trkpt lat="42.38607" lon="2.09849">
        <ele>2254</ele>
        <time>2017-10-15T14:53:30.000Z</time>
      </trkpt>
      <trkpt lat="42.38607" lon="2.09848">
        <ele>2254</ele>
        <time>2017-10-15T14:53:31.000Z</time>
      </trkpt>
      <trkpt lat="42.38607" lon="2.09847">
        <ele>2254</ele>
        <time>2017-10-15T14:53:32.000Z</time>
      </trkpt>
      <trkpt lat="42.38607" lon="2.09846">
        <ele>2254</ele>
        <time>2017-10-15T14:53:33.000Z</time>
      </trkpt>
      <trkpt lat="42.38607" lon="2.09845">
        <ele>2254</ele>
        <time>2017-10-15T14:53:34.000Z</time>
      </trkpt>
      <trkpt lat="42.38607" lon="2.09844">
        <ele>2254</ele>
        <time>2017-10-15T14:53:35.000Z</time>
      </trkpt>
      <trkpt lat="42.38607" lon="2.09844">
        <ele>2253</ele>
        <time>2017-10-15T14:53:36.000Z</time>
      </trkpt>
      <trkpt lat="42.38607" lon="2.09843">
        <ele>2253</ele>
        <time>2017-10-15T14:53:37.000Z</time>
      </trkpt>
      <trkpt lat="42.38606" lon="2.09843">
        <ele>2253</ele>
        <time>2017-10-15T14:53:38.000Z</time>
      </trkpt>
      <trkpt lat="42.38605" lon="2.09842">
        <ele>2253</ele>
        <time>2017-10-15T14:53:39.000Z</time>
      </trkpt>
      <trkpt lat="42.38604" lon="2.09841">
        <ele>2253</ele>
        <time>2017-10-15T14:53:40.000Z</time>
      </trkpt>
      <trkpt lat="42.38604" lon="2.09841">
        <ele>2253</ele>
        <time>2017-10-15T14:53:41.000Z</time>
      </trkpt>
      <trkpt lat="42.38603" lon="2.0984">
        <ele>2252</ele>
        <time>2017-10-15T14:53:42.000Z</time>
      </trkpt>
      <trkpt lat="42.38603" lon="2.09839">
        <ele>2252</ele>
        <time>2017-10-15T14:53:43.000Z</time>
      </trkpt>
      <trkpt lat="42.38603" lon="2.09838">
        <ele>2252</ele>
        <time>2017-10-15T14:53:44.000Z</time>
      </trkpt>
      <trkpt lat="42.38604" lon="2.09837">
        <ele>2252</ele>
        <time>2017-10-15T14:53:45.000Z</time>
      </trkpt>
      <trkpt lat="42.38603" lon="2.09836">
        <ele>2252</ele>
        <time>2017-10-15T14:53:46.000Z</time>
      </trkpt>
      <trkpt lat="42.38603" lon="2.09835">
        <ele>2252</ele>
        <time>2017-10-15T14:53:47.000Z</time>
      </trkpt>
      <trkpt lat="42.38603" lon="2.09834">
        <ele>2252</ele>
        <time>2017-10-15T14:53:48.000Z</time>
      </trkpt>
      <trkpt lat="42.38603" lon="2.09833">
        <ele>2252</ele>
        <time>2017-10-15T14:53:49.000Z</time>
      </trkpt>
      <trkpt lat="42.38603" lon="2.09832">
        <ele>2252</ele>
        <time>2017-10-15T14:53:50.000Z</time>
      </trkpt>
      <trkpt lat="42.38603" lon="2.0983">
        <ele>2252</ele>
        <time>2017-10-15T14:53:51.000Z</time>
      </trkpt>
      <trkpt lat="42.38602" lon="2.09829">
        <ele>2252</ele>
        <time>2017-10-15T14:53:52.000Z</time>
      </trkpt>
      <trkpt lat="42.38602" lon="2.09828">
        <ele>2252</ele>
        <time>2017-10-15T14:53:53.000Z</time>
      </trkpt>
      <trkpt lat="42.38602" lon="2.09826">
        <ele>2252</ele>
        <time>2017-10-15T14:53:54.000Z</time>
      </trkpt>
      <trkpt lat="42.38601" lon="2.09825">
        <ele>2251</ele>
        <time>2017-10-15T14:53:55.000Z</time>
      </trkpt>
      <trkpt lat="42.38601" lon="2.09823">
        <ele>2251</ele>
        <time>2017-10-15T14:53:56.000Z</time>
      </trkpt>
      <trkpt lat="42.38601" lon="2.09822">
        <ele>2251</ele>
        <time>2017-10-15T14:53:57.000Z</time>
      </trkpt>
      <trkpt lat="42.386" lon="2.09821">
        <ele>2250</ele>
        <time>2017-10-15T14:53:58.000Z</time>
      </trkpt>
      <trkpt lat="42.386" lon="2.0982">
        <ele>2250</ele>
        <time>2017-10-15T14:53:59.000Z</time>
      </trkpt>
      <trkpt lat="42.386" lon="2.09819">
        <ele>2250</ele>
        <time>2017-10-15T14:54:00.000Z</time>
      </trkpt>
      <trkpt lat="42.386" lon="2.09818">
        <ele>2250</ele>
        <time>2017-10-15T14:54:01.000Z</time>
      </trkpt>
      <trkpt lat="42.38599" lon="2.09817">
        <ele>2249</ele>
        <time>2017-10-15T14:54:02.000Z</time>
      </trkpt>
      <trkpt lat="42.38598" lon="2.09816">
        <ele>2249</ele>
        <time>2017-10-15T14:54:03.000Z</time>
      </trkpt>
      <trkpt lat="42.38598" lon="2.09815">
        <ele>2249</ele>
        <time>2017-10-15T14:54:04.000Z</time>
      </trkpt>
      <trkpt lat="42.38598" lon="2.09814">
        <ele>2248</ele>
        <time>2017-10-15T14:54:05.000Z</time>
      </trkpt>
      <trkpt lat="42.38597" lon="2.09813">
        <ele>2248</ele>
        <time>2017-10-15T14:54:06.000Z</time>
      </trkpt>
      <trkpt lat="42.38597" lon="2.09812">
        <ele>2248</ele>
        <time>2017-10-15T14:54:07.000Z</time>
      </trkpt>
      <trkpt lat="42.38597" lon="2.09812">
        <ele>2248</ele>
        <time>2017-10-15T14:54:08.000Z</time>
      </trkpt>
      <trkpt lat="42.38596" lon="2.09811">
        <ele>2247</ele>
        <time>2017-10-15T14:54:09.000Z</time>
      </trkpt>
      <trkpt lat="42.38596" lon="2.0981">
        <ele>2247</ele>
        <time>2017-10-15T14:54:10.000Z</time>
      </trkpt>
      <trkpt lat="42.38596" lon="2.09809">
        <ele>2247</ele>
        <time>2017-10-15T14:54:11.000Z</time>
      </trkpt>
      <trkpt lat="42.38595" lon="2.09808">
        <ele>2247</ele>
        <time>2017-10-15T14:54:12.000Z</time>
      </trkpt>
      <trkpt lat="42.38595" lon="2.09807">
        <ele>2246</ele>
        <time>2017-10-15T14:54:13.000Z</time>
      </trkpt>
      <trkpt lat="42.38595" lon="2.09805">
        <ele>2246</ele>
        <time>2017-10-15T14:54:14.000Z</time>
      </trkpt>
      <trkpt lat="42.38594" lon="2.09804">
        <ele>2246</ele>
        <time>2017-10-15T14:54:15.000Z</time>
      </trkpt>
      <trkpt lat="42.38595" lon="2.09803">
        <ele>2245</ele>
        <time>2017-10-15T14:54:16.000Z</time>
      </trkpt>
      <trkpt lat="42.38595" lon="2.09801">
        <ele>2245</ele>
        <time>2017-10-15T14:54:17.000Z</time>
      </trkpt>
      <trkpt lat="42.38595" lon="2.098">
        <ele>2245</ele>
        <time>2017-10-15T14:54:18.000Z</time>
      </trkpt>
      <trkpt lat="42.38594" lon="2.09798">
        <ele>2245</ele>
        <time>2017-10-15T14:54:19.000Z</time>
      </trkpt>
      <trkpt lat="42.38594" lon="2.09797">
        <ele>2244</ele>
        <time>2017-10-15T14:54:20.000Z</time>
      </trkpt>
      <trkpt lat="42.38594" lon="2.09796">
        <ele>2244</ele>
        <time>2017-10-15T14:54:21.000Z</time>
      </trkpt>
      <trkpt lat="42.38594" lon="2.09794">
        <ele>2244</ele>
        <time>2017-10-15T14:54:22.000Z</time>
      </trkpt>
      <trkpt lat="42.38594" lon="2.09793">
        <ele>2244</ele>
        <time>2017-10-15T14:54:23.000Z</time>
      </trkpt>
      <trkpt lat="42.38595" lon="2.09791">
        <ele>2243</ele>
        <time>2017-10-15T14:54:24.000Z</time>
      </trkpt>
      <trkpt lat="42.38595" lon="2.0979">
        <ele>2243</ele>
        <time>2017-10-15T14:54:25.000Z</time>
      </trkpt>
      <trkpt lat="42.38594" lon="2.09788">
        <ele>2243</ele>
        <time>2017-10-15T14:54:26.000Z</time>
      </trkpt>
      <trkpt lat="42.38594" lon="2.09787">
        <ele>2242</ele>
        <time>2017-10-15T14:54:27.000Z</time>
      </trkpt>
      <trkpt lat="42.38594" lon="2.09786">
        <ele>2242</ele>
        <time>2017-10-15T14:54:28.000Z</time>
      </trkpt>
      <trkpt lat="42.38594" lon="2.09785">
        <ele>2242</ele>
        <time>2017-10-15T14:54:29.000Z</time>
      </trkpt>
      <trkpt lat="42.38594" lon="2.09784">
        <ele>2242</ele>
        <time>2017-10-15T14:54:30.000Z</time>
      </trkpt>
      <trkpt lat="42.38593" lon="2.09783">
        <ele>2241</ele>
        <time>2017-10-15T14:54:31.000Z</time>
      </trkpt>
      <trkpt lat="42.38593" lon="2.09782">
        <ele>2241</ele>
        <time>2017-10-15T14:54:32.000Z</time>
      </trkpt>
      <trkpt lat="42.38592" lon="2.09781">
        <ele>2241</ele>
        <time>2017-10-15T14:54:33.000Z</time>
      </trkpt>
      <trkpt lat="42.38592" lon="2.0978">
        <ele>2241</ele>
        <time>2017-10-15T14:54:34.000Z</time>
      </trkpt>
      <trkpt lat="42.38591" lon="2.0978">
        <ele>2240</ele>
        <time>2017-10-15T14:54:35.000Z</time>
      </trkpt>
      <trkpt lat="42.3859" lon="2.09779">
        <ele>2240</ele>
        <time>2017-10-15T14:54:36.000Z</time>
      </trkpt>
      <trkpt lat="42.3859" lon="2.09779">
        <ele>2240</ele>
        <time>2017-10-15T14:54:37.000Z</time>
      </trkpt>
      <trkpt lat="42.38589" lon="2.09778">
        <ele>2239</ele>
        <time>2017-10-15T14:54:38.000Z</time>
      </trkpt>
      <trkpt lat="42.38589" lon="2.09777">
        <ele>2239</ele>
        <time>2017-10-15T14:54:39.000Z</time>
      </trkpt>
      <trkpt lat="42.38588" lon="2.09776">
        <ele>2239</ele>
        <time>2017-10-15T14:54:40.000Z</time>
      </trkpt>
      <trkpt lat="42.38587" lon="2.09775">
        <ele>2238</ele>
        <time>2017-10-15T14:54:41.000Z</time>
      </trkpt>
      <trkpt lat="42.38586" lon="2.09775">
        <ele>2238</ele>
        <time>2017-10-15T14:54:42.000Z</time>
      </trkpt>
      <trkpt lat="42.38585" lon="2.09774">
        <ele>2238</ele>
        <time>2017-10-15T14:54:43.000Z</time>
      </trkpt>
      <trkpt lat="42.38585" lon="2.09773">
        <ele>2237</ele>
        <time>2017-10-15T14:54:44.000Z</time>
      </trkpt>
      <trkpt lat="42.38584" lon="2.09773">
        <ele>2237</ele>
        <time>2017-10-15T14:54:45.000Z</time>
      </trkpt>
      <trkpt lat="42.38582" lon="2.09772">
        <ele>2236</ele>
        <time>2017-10-15T14:54:46.000Z</time>
      </trkpt>
      <trkpt lat="42.38581" lon="2.09772">
        <ele>2236</ele>
        <time>2017-10-15T14:54:47.000Z</time>
      </trkpt>
      <trkpt lat="42.3858" lon="2.09772">
        <ele>2236</ele>
        <time>2017-10-15T14:54:48.000Z</time>
      </trkpt>
      <trkpt lat="42.38579" lon="2.09771">
        <ele>2236</ele>
        <time>2017-10-15T14:54:49.000Z</time>
      </trkpt>
      <trkpt lat="42.38578" lon="2.09771">
        <ele>2236</ele>
        <time>2017-10-15T14:54:50.000Z</time>
      </trkpt>
      <trkpt lat="42.38577" lon="2.0977">
        <ele>2237</ele>
        <time>2017-10-15T14:54:51.000Z</time>
      </trkpt>
      <trkpt lat="42.38576" lon="2.0977">
        <ele>2237</ele>
        <time>2017-10-15T14:54:52.000Z</time>
      </trkpt>
      <trkpt lat="42.38575" lon="2.09769">
        <ele>2237</ele>
        <time>2017-10-15T14:54:53.000Z</time>
      </trkpt>
      <trkpt lat="42.38574" lon="2.09768">
        <ele>2237</ele>
        <time>2017-10-15T14:54:54.000Z</time>
      </trkpt>
      <trkpt lat="42.38574" lon="2.09768">
        <ele>2236</ele>
        <time>2017-10-15T14:54:55.000Z</time>
      </trkpt>
      <trkpt lat="42.38573" lon="2.09767">
        <ele>2236</ele>
        <time>2017-10-15T14:54:56.000Z</time>
      </trkpt>
      <trkpt lat="42.38572" lon="2.09766">
        <ele>2236</ele>
        <time>2017-10-15T14:54:57.000Z</time>
      </trkpt>
      <trkpt lat="42.38571" lon="2.09765">
        <ele>2236</ele>
        <time>2017-10-15T14:54:58.000Z</time>
      </trkpt>
      <trkpt lat="42.38571" lon="2.09764">
        <ele>2236</ele>
        <time>2017-10-15T14:54:59.000Z</time>
      </trkpt>
      <trkpt lat="42.3857" lon="2.09763">
        <ele>2236</ele>
        <time>2017-10-15T14:55:00.000Z</time>
      </trkpt>
      <trkpt lat="42.3857" lon="2.09763">
        <ele>2236</ele>
        <time>2017-10-15T14:55:01.000Z</time>
      </trkpt>
      <trkpt lat="42.38569" lon="2.09762">
        <ele>2236</ele>
        <time>2017-10-15T14:55:02.000Z</time>
      </trkpt>
      <trkpt lat="42.38569" lon="2.09761">
        <ele>2236</ele>
        <time>2017-10-15T14:55:03.000Z</time>
      </trkpt>
      <trkpt lat="42.38568" lon="2.0976">
        <ele>2236</ele>
        <time>2017-10-15T14:55:04.000Z</time>
      </trkpt>
      <trkpt lat="42.38568" lon="2.09759">
        <ele>2236</ele>
        <time>2017-10-15T14:55:05.000Z</time>
      </trkpt>
      <trkpt lat="42.38568" lon="2.09758">
        <ele>2235</ele>
        <time>2017-10-15T14:55:06.000Z</time>
      </trkpt>
      <trkpt lat="42.38568" lon="2.09756">
        <ele>2235</ele>
        <time>2017-10-15T14:55:07.000Z</time>
      </trkpt>
      <trkpt lat="42.38567" lon="2.09755">
        <ele>2235</ele>
        <time>2017-10-15T14:55:08.000Z</time>
      </trkpt>
      <trkpt lat="42.38567" lon="2.09754">
        <ele>2235</ele>
        <time>2017-10-15T14:55:09.000Z</time>
      </trkpt>
      <trkpt lat="42.38567" lon="2.09753">
        <ele>2235</ele>
        <time>2017-10-15T14:55:10.000Z</time>
      </trkpt>
      <trkpt lat="42.38566" lon="2.09752">
        <ele>2235</ele>
        <time>2017-10-15T14:55:11.000Z</time>
      </trkpt>
      <trkpt lat="42.38565" lon="2.09752">
        <ele>2235</ele>
        <time>2017-10-15T14:55:12.000Z</time>
      </trkpt>
      <trkpt lat="42.38564" lon="2.09751">
        <ele>2235</ele>
        <time>2017-10-15T14:55:13.000Z</time>
      </trkpt>
      <trkpt lat="42.38563" lon="2.0975">
        <ele>2235</ele>
        <time>2017-10-15T14:55:14.000Z</time>
      </trkpt>
      <trkpt lat="42.38563" lon="2.09749">
        <ele>2235</ele>
        <time>2017-10-15T14:55:15.000Z</time>
      </trkpt>
      <trkpt lat="42.38562" lon="2.09748">
        <ele>2235</ele>
        <time>2017-10-15T14:55:16.000Z</time>
      </trkpt>
      <trkpt lat="42.38561" lon="2.09747">
        <ele>2235</ele>
        <time>2017-10-15T14:55:17.000Z</time>
      </trkpt>
      <trkpt lat="42.38561" lon="2.09746">
        <ele>2234</ele>
        <time>2017-10-15T14:55:18.000Z</time>
      </trkpt>
      <trkpt lat="42.38559" lon="2.09745">
        <ele>2235</ele>
        <time>2017-10-15T14:55:19.000Z</time>
      </trkpt>
      <trkpt lat="42.38559" lon="2.09744">
        <ele>2234</ele>
        <time>2017-10-15T14:55:20.000Z</time>
      </trkpt>
      <trkpt lat="42.38558" lon="2.09743">
        <ele>2234</ele>
        <time>2017-10-15T14:55:21.000Z</time>
      </trkpt>
      <trkpt lat="42.38558" lon="2.09742">
        <ele>2234</ele>
        <time>2017-10-15T14:55:22.000Z</time>
      </trkpt>
      <trkpt lat="42.38557" lon="2.09741">
        <ele>2234</ele>
        <time>2017-10-15T14:55:23.000Z</time>
      </trkpt>
      <trkpt lat="42.38556" lon="2.0974">
        <ele>2234</ele>
        <time>2017-10-15T14:55:24.000Z</time>
      </trkpt>
      <trkpt lat="42.38555" lon="2.09739">
        <ele>2234</ele>
        <time>2017-10-15T14:55:25.000Z</time>
      </trkpt>
      <trkpt lat="42.38554" lon="2.09738">
        <ele>2234</ele>
        <time>2017-10-15T14:55:26.000Z</time>
      </trkpt>
      <trkpt lat="42.38553" lon="2.09738">
        <ele>2234</ele>
        <time>2017-10-15T14:55:27.000Z</time>
      </trkpt>
      <trkpt lat="42.38551" lon="2.09737">
        <ele>2234</ele>
        <time>2017-10-15T14:55:28.000Z</time>
      </trkpt>
      <trkpt lat="42.3855" lon="2.09736">
        <ele>2234</ele>
        <time>2017-10-15T14:55:29.000Z</time>
      </trkpt>
      <trkpt lat="42.3855" lon="2.09735">
        <ele>2233</ele>
        <time>2017-10-15T14:55:30.000Z</time>
      </trkpt>
      <trkpt lat="42.38549" lon="2.09734">
        <ele>2233</ele>
        <time>2017-10-15T14:55:31.000Z</time>
      </trkpt>
      <trkpt lat="42.38548" lon="2.09733">
        <ele>2233</ele>
        <time>2017-10-15T14:55:32.000Z</time>
      </trkpt>
      <trkpt lat="42.38547" lon="2.09731">
        <ele>2233</ele>
        <time>2017-10-15T14:55:33.000Z</time>
      </trkpt>
      <trkpt lat="42.38546" lon="2.0973">
        <ele>2233</ele>
        <time>2017-10-15T14:55:34.000Z</time>
      </trkpt>
      <trkpt lat="42.38545" lon="2.09729">
        <ele>2233</ele>
        <time>2017-10-15T14:55:35.000Z</time>
      </trkpt>
      <trkpt lat="42.38544" lon="2.09728">
        <ele>2233</ele>
        <time>2017-10-15T14:55:36.000Z</time>
      </trkpt>
      <trkpt lat="42.38544" lon="2.09727">
        <ele>2233</ele>
        <time>2017-10-15T14:55:37.000Z</time>
      </trkpt>
      <trkpt lat="42.38543" lon="2.09726">
        <ele>2232</ele>
        <time>2017-10-15T14:55:38.000Z</time>
      </trkpt>
      <trkpt lat="42.38542" lon="2.09725">
        <ele>2232</ele>
        <time>2017-10-15T14:55:39.000Z</time>
      </trkpt>
      <trkpt lat="42.38541" lon="2.09724">
        <ele>2232</ele>
        <time>2017-10-15T14:55:40.000Z</time>
      </trkpt>
      <trkpt lat="42.3854" lon="2.09722">
        <ele>2232</ele>
        <time>2017-10-15T14:55:41.000Z</time>
      </trkpt>
      <trkpt lat="42.38539" lon="2.09722">
        <ele>2232</ele>
        <time>2017-10-15T14:55:42.000Z</time>
      </trkpt>
      <trkpt lat="42.38538" lon="2.09721">
        <ele>2232</ele>
        <time>2017-10-15T14:55:43.000Z</time>
      </trkpt>
      <trkpt lat="42.38537" lon="2.0972">
        <ele>2232</ele>
        <time>2017-10-15T14:55:44.000Z</time>
      </trkpt>
      <trkpt lat="42.38537" lon="2.09718">
        <ele>2231</ele>
        <time>2017-10-15T14:55:45.000Z</time>
      </trkpt>
      <trkpt lat="42.38536" lon="2.09717">
        <ele>2231</ele>
        <time>2017-10-15T14:55:46.000Z</time>
      </trkpt>
      <trkpt lat="42.38534" lon="2.09716">
        <ele>2231</ele>
        <time>2017-10-15T14:55:47.000Z</time>
      </trkpt>
      <trkpt lat="42.38534" lon="2.09715">
        <ele>2231</ele>
        <time>2017-10-15T14:55:48.000Z</time>
      </trkpt>
      <trkpt lat="42.38533" lon="2.09713">
        <ele>2231</ele>
        <time>2017-10-15T14:55:49.000Z</time>
      </trkpt>
      <trkpt lat="42.38532" lon="2.09712">
        <ele>2231</ele>
        <time>2017-10-15T14:55:50.000Z</time>
      </trkpt>
      <trkpt lat="42.38531" lon="2.09711">
        <ele>2230</ele>
        <time>2017-10-15T14:55:51.000Z</time>
      </trkpt>
      <trkpt lat="42.38531" lon="2.09709">
        <ele>2230</ele>
        <time>2017-10-15T14:55:52.000Z</time>
      </trkpt>
      <trkpt lat="42.3853" lon="2.09708">
        <ele>2230</ele>
        <time>2017-10-15T14:55:53.000Z</time>
      </trkpt>
      <trkpt lat="42.3853" lon="2.09707">
        <ele>2230</ele>
        <time>2017-10-15T14:55:54.000Z</time>
      </trkpt>
      <trkpt lat="42.3853" lon="2.09705">
        <ele>2229</ele>
        <time>2017-10-15T14:55:55.000Z</time>
      </trkpt>
      <trkpt lat="42.38529" lon="2.09704">
        <ele>2229</ele>
        <time>2017-10-15T14:55:56.000Z</time>
      </trkpt>
      <trkpt lat="42.38529" lon="2.09703">
        <ele>2229</ele>
        <time>2017-10-15T14:55:57.000Z</time>
      </trkpt>
      <trkpt lat="42.38529" lon="2.09701">
        <ele>2229</ele>
        <time>2017-10-15T14:55:58.000Z</time>
      </trkpt>
      <trkpt lat="42.38529" lon="2.097">
        <ele>2228</ele>
        <time>2017-10-15T14:55:59.000Z</time>
      </trkpt>
      <trkpt lat="42.38528" lon="2.09699">
        <ele>2228</ele>
        <time>2017-10-15T14:56:00.000Z</time>
      </trkpt>
      <trkpt lat="42.38528" lon="2.09698">
        <ele>2228</ele>
        <time>2017-10-15T14:56:01.000Z</time>
      </trkpt>
      <trkpt lat="42.38527" lon="2.09697">
        <ele>2228</ele>
        <time>2017-10-15T14:56:02.000Z</time>
      </trkpt>
      <trkpt lat="42.38527" lon="2.09696">
        <ele>2227</ele>
        <time>2017-10-15T14:56:03.000Z</time>
      </trkpt>
      <trkpt lat="42.38527" lon="2.09695">
        <ele>2227</ele>
        <time>2017-10-15T14:56:04.000Z</time>
      </trkpt>
      <trkpt lat="42.38527" lon="2.09694">
        <ele>2227</ele>
        <time>2017-10-15T14:56:05.000Z</time>
      </trkpt>
      <trkpt lat="42.38527" lon="2.09693">
        <ele>2227</ele>
        <time>2017-10-15T14:56:06.000Z</time>
      </trkpt>
      <trkpt lat="42.38526" lon="2.09692">
        <ele>2227</ele>
        <time>2017-10-15T14:56:07.000Z</time>
      </trkpt>
      <trkpt lat="42.38526" lon="2.09691">
        <ele>2226</ele>
        <time>2017-10-15T14:56:08.000Z</time>
      </trkpt>
      <trkpt lat="42.38526" lon="2.09689">
        <ele>2226</ele>
        <time>2017-10-15T14:56:09.000Z</time>
      </trkpt>
      <trkpt lat="42.38526" lon="2.09688">
        <ele>2226</ele>
        <time>2017-10-15T14:56:10.000Z</time>
      </trkpt>
      <trkpt lat="42.38527" lon="2.09687">
        <ele>2226</ele>
        <time>2017-10-15T14:56:11.000Z</time>
      </trkpt>
      <trkpt lat="42.38527" lon="2.09685">
        <ele>2225</ele>
        <time>2017-10-15T14:56:12.000Z</time>
      </trkpt>
      <trkpt lat="42.38526" lon="2.09684">
        <ele>2225</ele>
        <time>2017-10-15T14:56:13.000Z</time>
      </trkpt>
      <trkpt lat="42.38526" lon="2.09682">
        <ele>2225</ele>
        <time>2017-10-15T14:56:14.000Z</time>
      </trkpt>
      <trkpt lat="42.38526" lon="2.09681">
        <ele>2225</ele>
        <time>2017-10-15T14:56:15.000Z</time>
      </trkpt>
      <trkpt lat="42.38526" lon="2.09679">
        <ele>2225</ele>
        <time>2017-10-15T14:56:16.000Z</time>
      </trkpt>
      <trkpt lat="42.38526" lon="2.09677">
        <ele>2225</ele>
        <time>2017-10-15T14:56:17.000Z</time>
      </trkpt>
      <trkpt lat="42.38526" lon="2.09675">
        <ele>2224</ele>
        <time>2017-10-15T14:56:18.000Z</time>
      </trkpt>
      <trkpt lat="42.38526" lon="2.09673">
        <ele>2224</ele>
        <time>2017-10-15T14:56:19.000Z</time>
      </trkpt>
      <trkpt lat="42.38526" lon="2.09672">
        <ele>2224</ele>
        <time>2017-10-15T14:56:20.000Z</time>
      </trkpt>
      <trkpt lat="42.38526" lon="2.09671">
        <ele>2224</ele>
        <time>2017-10-15T14:56:21.000Z</time>
      </trkpt>
      <trkpt lat="42.38527" lon="2.09669">
        <ele>2224</ele>
        <time>2017-10-15T14:56:22.000Z</time>
      </trkpt>
      <trkpt lat="42.38526" lon="2.09668">
        <ele>2224</ele>
        <time>2017-10-15T14:56:23.000Z</time>
      </trkpt>
      <trkpt lat="42.38526" lon="2.09667">
        <ele>2223</ele>
        <time>2017-10-15T14:56:24.000Z</time>
      </trkpt>
      <trkpt lat="42.38527" lon="2.09665">
        <ele>2223</ele>
        <time>2017-10-15T14:56:25.000Z</time>
      </trkpt>
      <trkpt lat="42.38527" lon="2.09664">
        <ele>2223</ele>
        <time>2017-10-15T14:56:26.000Z</time>
      </trkpt>
      <trkpt lat="42.38527" lon="2.09663">
        <ele>2223</ele>
        <time>2017-10-15T14:56:27.000Z</time>
      </trkpt>
      <trkpt lat="42.38527" lon="2.09661">
        <ele>2223</ele>
        <time>2017-10-15T14:56:28.000Z</time>
      </trkpt>
      <trkpt lat="42.38526" lon="2.0966">
        <ele>2223</ele>
        <time>2017-10-15T14:56:29.000Z</time>
      </trkpt>
      <trkpt lat="42.38526" lon="2.09659">
        <ele>2222</ele>
        <time>2017-10-15T14:56:30.000Z</time>
      </trkpt>
      <trkpt lat="42.38526" lon="2.09658">
        <ele>2222</ele>
        <time>2017-10-15T14:56:31.000Z</time>
      </trkpt>
      <trkpt lat="42.38525" lon="2.09656">
        <ele>2222</ele>
        <time>2017-10-15T14:56:32.000Z</time>
      </trkpt>
      <trkpt lat="42.38525" lon="2.09655">
        <ele>2222</ele>
        <time>2017-10-15T14:56:33.000Z</time>
      </trkpt>
      <trkpt lat="42.38525" lon="2.09654">
        <ele>2221</ele>
        <time>2017-10-15T14:56:34.000Z</time>
      </trkpt>
      <trkpt lat="42.38524" lon="2.09653">
        <ele>2221</ele>
        <time>2017-10-15T14:56:35.000Z</time>
      </trkpt>
      <trkpt lat="42.38524" lon="2.09652">
        <ele>2221</ele>
        <time>2017-10-15T14:56:36.000Z</time>
      </trkpt>
      <trkpt lat="42.38524" lon="2.0965">
        <ele>2221</ele>
        <time>2017-10-15T14:56:37.000Z</time>
      </trkpt>
      <trkpt lat="42.38524" lon="2.09649">
        <ele>2221</ele>
        <time>2017-10-15T14:56:38.000Z</time>
      </trkpt>
      <trkpt lat="42.38524" lon="2.09648">
        <ele>2220</ele>
        <time>2017-10-15T14:56:39.000Z</time>
      </trkpt>
      <trkpt lat="42.38523" lon="2.09647">
        <ele>2220</ele>
        <time>2017-10-15T14:56:40.000Z</time>
      </trkpt>
      <trkpt lat="42.38523" lon="2.09646">
        <ele>2220</ele>
        <time>2017-10-15T14:56:41.000Z</time>
      </trkpt>
      <trkpt lat="42.38523" lon="2.09644">
        <ele>2220</ele>
        <time>2017-10-15T14:56:42.000Z</time>
      </trkpt>
      <trkpt lat="42.38523" lon="2.09643">
        <ele>2219</ele>
        <time>2017-10-15T14:56:43.000Z</time>
      </trkpt>
      <trkpt lat="42.38523" lon="2.09641">
        <ele>2219</ele>
        <time>2017-10-15T14:56:44.000Z</time>
      </trkpt>
      <trkpt lat="42.38523" lon="2.0964">
        <ele>2219</ele>
        <time>2017-10-15T14:56:45.000Z</time>
      </trkpt>
      <trkpt lat="42.38523" lon="2.09638">
        <ele>2218</ele>
        <time>2017-10-15T14:56:46.000Z</time>
      </trkpt>
      <trkpt lat="42.38523" lon="2.09637">
        <ele>2218</ele>
        <time>2017-10-15T14:56:47.000Z</time>
      </trkpt>
      <trkpt lat="42.38523" lon="2.09635">
        <ele>2218</ele>
        <time>2017-10-15T14:56:48.000Z</time>
      </trkpt>
      <trkpt lat="42.38523" lon="2.09634">
        <ele>2218</ele>
        <time>2017-10-15T14:56:49.000Z</time>
      </trkpt>
      <trkpt lat="42.38523" lon="2.09633">
        <ele>2218</ele>
        <time>2017-10-15T14:56:50.000Z</time>
      </trkpt>
      <trkpt lat="42.38523" lon="2.09632">
        <ele>2217</ele>
        <time>2017-10-15T14:56:51.000Z</time>
      </trkpt>
      <trkpt lat="42.38522" lon="2.09631">
        <ele>2217</ele>
        <time>2017-10-15T14:56:52.000Z</time>
      </trkpt>
      <trkpt lat="42.38522" lon="2.0963">
        <ele>2217</ele>
        <time>2017-10-15T14:56:53.000Z</time>
      </trkpt>
      <trkpt lat="42.38521" lon="2.09628">
        <ele>2217</ele>
        <time>2017-10-15T14:56:54.000Z</time>
      </trkpt>
      <trkpt lat="42.38521" lon="2.09627">
        <ele>2216</ele>
        <time>2017-10-15T14:56:55.000Z</time>
      </trkpt>
      <trkpt lat="42.38521" lon="2.09625">
        <ele>2216</ele>
        <time>2017-10-15T14:56:56.000Z</time>
      </trkpt>
      <trkpt lat="42.38521" lon="2.09624">
        <ele>2216</ele>
        <time>2017-10-15T14:56:57.000Z</time>
      </trkpt>
      <trkpt lat="42.38521" lon="2.09622">
        <ele>2215</ele>
        <time>2017-10-15T14:56:58.000Z</time>
      </trkpt>
      <trkpt lat="42.3852" lon="2.09621">
        <ele>2215</ele>
        <time>2017-10-15T14:56:59.000Z</time>
      </trkpt>
      <trkpt lat="42.3852" lon="2.0962">
        <ele>2215</ele>
        <time>2017-10-15T14:57:00.000Z</time>
      </trkpt>
      <trkpt lat="42.38519" lon="2.09618">
        <ele>2215</ele>
        <time>2017-10-15T14:57:01.000Z</time>
      </trkpt>
      <trkpt lat="42.38519" lon="2.09617">
        <ele>2214</ele>
        <time>2017-10-15T14:57:02.000Z</time>
      </trkpt>
      <trkpt lat="42.38519" lon="2.09615">
        <ele>2214</ele>
        <time>2017-10-15T14:57:03.000Z</time>
      </trkpt>
      <trkpt lat="42.3852" lon="2.09613">
        <ele>2214</ele>
        <time>2017-10-15T14:57:04.000Z</time>
      </trkpt>
      <trkpt lat="42.38519" lon="2.09612">
        <ele>2214</ele>
        <time>2017-10-15T14:57:05.000Z</time>
      </trkpt>
      <trkpt lat="42.38519" lon="2.09611">
        <ele>2213</ele>
        <time>2017-10-15T14:57:06.000Z</time>
      </trkpt>
      <trkpt lat="42.38519" lon="2.09609">
        <ele>2213</ele>
        <time>2017-10-15T14:57:07.000Z</time>
      </trkpt>
      <trkpt lat="42.38518" lon="2.09608">
        <ele>2213</ele>
        <time>2017-10-15T14:57:08.000Z</time>
      </trkpt>
      <trkpt lat="42.38518" lon="2.09607">
        <ele>2213</ele>
        <time>2017-10-15T14:57:09.000Z</time>
      </trkpt>
      <trkpt lat="42.38518" lon="2.09605">
        <ele>2212</ele>
        <time>2017-10-15T14:57:10.000Z</time>
      </trkpt>
      <trkpt lat="42.38517" lon="2.09604">
        <ele>2212</ele>
        <time>2017-10-15T14:57:11.000Z</time>
      </trkpt>
      <trkpt lat="42.38517" lon="2.09602">
        <ele>2212</ele>
        <time>2017-10-15T14:57:12.000Z</time>
      </trkpt>
      <trkpt lat="42.38517" lon="2.09601">
        <ele>2211</ele>
        <time>2017-10-15T14:57:13.000Z</time>
      </trkpt>
      <trkpt lat="42.38517" lon="2.09599">
        <ele>2211</ele>
        <time>2017-10-15T14:57:14.000Z</time>
      </trkpt>
      <trkpt lat="42.38516" lon="2.09598">
        <ele>2211</ele>
        <time>2017-10-15T14:57:15.000Z</time>
      </trkpt>
      <trkpt lat="42.38516" lon="2.09597">
        <ele>2211</ele>
        <time>2017-10-15T14:57:16.000Z</time>
      </trkpt>
      <trkpt lat="42.38516" lon="2.09595">
        <ele>2210</ele>
        <time>2017-10-15T14:57:17.000Z</time>
      </trkpt>
      <trkpt lat="42.38516" lon="2.09594">
        <ele>2210</ele>
        <time>2017-10-15T14:57:18.000Z</time>
      </trkpt>
      <trkpt lat="42.38516" lon="2.09592">
        <ele>2210</ele>
        <time>2017-10-15T14:57:19.000Z</time>
      </trkpt>
      <trkpt lat="42.38516" lon="2.09591">
        <ele>2210</ele>
        <time>2017-10-15T14:57:20.000Z</time>
      </trkpt>
      <trkpt lat="42.38516" lon="2.09589">
        <ele>2210</ele>
        <time>2017-10-15T14:57:21.000Z</time>
      </trkpt>
      <trkpt lat="42.38516" lon="2.09587">
        <ele>2210</ele>
        <time>2017-10-15T14:57:22.000Z</time>
      </trkpt>
      <trkpt lat="42.38516" lon="2.09586">
        <ele>2210</ele>
        <time>2017-10-15T14:57:23.000Z</time>
      </trkpt>
      <trkpt lat="42.38516" lon="2.09584">
        <ele>2209</ele>
        <time>2017-10-15T14:57:24.000Z</time>
      </trkpt>
      <trkpt lat="42.38516" lon="2.09583">
        <ele>2209</ele>
        <time>2017-10-15T14:57:25.000Z</time>
      </trkpt>
      <trkpt lat="42.38516" lon="2.09582">
        <ele>2209</ele>
        <time>2017-10-15T14:57:26.000Z</time>
      </trkpt>
      <trkpt lat="42.38516" lon="2.09581">
        <ele>2209</ele>
        <time>2017-10-15T14:57:27.000Z</time>
      </trkpt>
      <trkpt lat="42.38516" lon="2.09579">
        <ele>2209</ele>
        <time>2017-10-15T14:57:28.000Z</time>
      </trkpt>
      <trkpt lat="42.38515" lon="2.09578">
        <ele>2209</ele>
        <time>2017-10-15T14:57:29.000Z</time>
      </trkpt>
      <trkpt lat="42.38515" lon="2.09577">
        <ele>2209</ele>
        <time>2017-10-15T14:57:30.000Z</time>
      </trkpt>
      <trkpt lat="42.38515" lon="2.09575">
        <ele>2209</ele>
        <time>2017-10-15T14:57:31.000Z</time>
      </trkpt>
      <trkpt lat="42.38515" lon="2.09574">
        <ele>2208</ele>
        <time>2017-10-15T14:57:32.000Z</time>
      </trkpt>
      <trkpt lat="42.38515" lon="2.09573">
        <ele>2208</ele>
        <time>2017-10-15T14:57:33.000Z</time>
      </trkpt>
      <trkpt lat="42.38516" lon="2.09571">
        <ele>2208</ele>
        <time>2017-10-15T14:57:34.000Z</time>
      </trkpt>
      <trkpt lat="42.38516" lon="2.09569">
        <ele>2208</ele>
        <time>2017-10-15T14:57:35.000Z</time>
      </trkpt>
      <trkpt lat="42.38517" lon="2.09568">
        <ele>2208</ele>
        <time>2017-10-15T14:57:36.000Z</time>
      </trkpt>
      <trkpt lat="42.38517" lon="2.09567">
        <ele>2208</ele>
        <time>2017-10-15T14:57:37.000Z</time>
      </trkpt>
      <trkpt lat="42.38518" lon="2.09565">
        <ele>2207</ele>
        <time>2017-10-15T14:57:38.000Z</time>
      </trkpt>
      <trkpt lat="42.38518" lon="2.09564">
        <ele>2207</ele>
        <time>2017-10-15T14:57:39.000Z</time>
      </trkpt>
      <trkpt lat="42.38518" lon="2.09563">
        <ele>2207</ele>
        <time>2017-10-15T14:57:40.000Z</time>
      </trkpt>
      <trkpt lat="42.38518" lon="2.09561">
        <ele>2207</ele>
        <time>2017-10-15T14:57:41.000Z</time>
      </trkpt>
      <trkpt lat="42.38518" lon="2.0956">
        <ele>2207</ele>
        <time>2017-10-15T14:57:42.000Z</time>
      </trkpt>
      <trkpt lat="42.38518" lon="2.09558">
        <ele>2207</ele>
        <time>2017-10-15T14:57:43.000Z</time>
      </trkpt>
      <trkpt lat="42.38519" lon="2.09557">
        <ele>2206</ele>
        <time>2017-10-15T14:57:44.000Z</time>
      </trkpt>
      <trkpt lat="42.38519" lon="2.09556">
        <ele>2206</ele>
        <time>2017-10-15T14:57:45.000Z</time>
      </trkpt>
      <trkpt lat="42.38519" lon="2.09555">
        <ele>2206</ele>
        <time>2017-10-15T14:57:46.000Z</time>
      </trkpt>
      <trkpt lat="42.38519" lon="2.09554">
        <ele>2206</ele>
        <time>2017-10-15T14:57:47.000Z</time>
      </trkpt>
      <trkpt lat="42.38519" lon="2.09553">
        <ele>2206</ele>
        <time>2017-10-15T14:57:48.000Z</time>
      </trkpt>
      <trkpt lat="42.38519" lon="2.09552">
        <ele>2206</ele>
        <time>2017-10-15T14:57:49.000Z</time>
      </trkpt>
      <trkpt lat="42.38519" lon="2.0955">
        <ele>2205</ele>
        <time>2017-10-15T14:57:50.000Z</time>
      </trkpt>
      <trkpt lat="42.38518" lon="2.09549">
        <ele>2205</ele>
        <time>2017-10-15T14:57:51.000Z</time>
      </trkpt>
      <trkpt lat="42.38518" lon="2.09548">
        <ele>2205</ele>
        <time>2017-10-15T14:57:52.000Z</time>
      </trkpt>
      <trkpt lat="42.38518" lon="2.09546">
        <ele>2205</ele>
        <time>2017-10-15T14:57:53.000Z</time>
      </trkpt>
      <trkpt lat="42.38518" lon="2.09545">
        <ele>2205</ele>
        <time>2017-10-15T14:57:54.000Z</time>
      </trkpt>
      <trkpt lat="42.38519" lon="2.09544">
        <ele>2205</ele>
        <time>2017-10-15T14:57:55.000Z</time>
      </trkpt>
      <trkpt lat="42.38519" lon="2.09544">
        <ele>2204</ele>
        <time>2017-10-15T14:57:56.000Z</time>
      </trkpt>
      <trkpt lat="42.38519" lon="2.09543">
        <ele>2204</ele>
        <time>2017-10-15T14:57:57.000Z</time>
      </trkpt>
      <trkpt lat="42.38519" lon="2.09542">
        <ele>2204</ele>
        <time>2017-10-15T14:57:58.000Z</time>
      </trkpt>
      <trkpt lat="42.38519" lon="2.09541">
        <ele>2204</ele>
        <time>2017-10-15T14:57:59.000Z</time>
      </trkpt>
      <trkpt lat="42.38519" lon="2.0954">
        <ele>2204</ele>
        <time>2017-10-15T14:58:00.000Z</time>
      </trkpt>
      <trkpt lat="42.38519" lon="2.09539">
        <ele>2204</ele>
        <time>2017-10-15T14:58:01.000Z</time>
      </trkpt>
      <trkpt lat="42.38519" lon="2.09538">
        <ele>2204</ele>
        <time>2017-10-15T14:58:02.000Z</time>
      </trkpt>
      <trkpt lat="42.38519" lon="2.09537">
        <ele>2204</ele>
        <time>2017-10-15T14:58:03.000Z</time>
      </trkpt>
      <trkpt lat="42.3852" lon="2.09536">
        <ele>2204</ele>
        <time>2017-10-15T14:58:04.000Z</time>
      </trkpt>
      <trkpt lat="42.3852" lon="2.09536">
        <ele>2204</ele>
        <time>2017-10-15T14:58:05.000Z</time>
      </trkpt>
      <trkpt lat="42.38521" lon="2.09535">
        <ele>2203</ele>
        <time>2017-10-15T14:58:06.000Z</time>
      </trkpt>
      <trkpt lat="42.38521" lon="2.09534">
        <ele>2203</ele>
        <time>2017-10-15T14:58:07.000Z</time>
      </trkpt>
      <trkpt lat="42.38522" lon="2.09533">
        <ele>2203</ele>
        <time>2017-10-15T14:58:08.000Z</time>
      </trkpt>
      <trkpt lat="42.38522" lon="2.09532">
        <ele>2203</ele>
        <time>2017-10-15T14:58:09.000Z</time>
      </trkpt>
      <trkpt lat="42.38522" lon="2.09531">
        <ele>2203</ele>
        <time>2017-10-15T14:58:10.000Z</time>
      </trkpt>
      <trkpt lat="42.38522" lon="2.0953">
        <ele>2203</ele>
        <time>2017-10-15T14:58:11.000Z</time>
      </trkpt>
      <trkpt lat="42.38522" lon="2.09528">
        <ele>2203</ele>
        <time>2017-10-15T14:58:12.000Z</time>
      </trkpt>
      <trkpt lat="42.38522" lon="2.09527">
        <ele>2203</ele>
        <time>2017-10-15T14:58:13.000Z</time>
      </trkpt>
      <trkpt lat="42.38522" lon="2.09526">
        <ele>2202</ele>
        <time>2017-10-15T14:58:14.000Z</time>
      </trkpt>
      <trkpt lat="42.38523" lon="2.09526">
        <ele>2202</ele>
        <time>2017-10-15T14:58:15.000Z</time>
      </trkpt>
      <trkpt lat="42.38523" lon="2.09525">
        <ele>2202</ele>
        <time>2017-10-15T14:58:16.000Z</time>
      </trkpt>
      <trkpt lat="42.38524" lon="2.09524">
        <ele>2202</ele>
        <time>2017-10-15T14:58:17.000Z</time>
      </trkpt>
      <trkpt lat="42.38524" lon="2.09524">
        <ele>2202</ele>
        <time>2017-10-15T14:58:18.000Z</time>
      </trkpt>
      <trkpt lat="42.38524" lon="2.09522">
        <ele>2202</ele>
        <time>2017-10-15T14:58:19.000Z</time>
      </trkpt>
      <trkpt lat="42.38524" lon="2.09521">
        <ele>2202</ele>
        <time>2017-10-15T14:58:20.000Z</time>
      </trkpt>
      <trkpt lat="42.38524" lon="2.0952">
        <ele>2202</ele>
        <time>2017-10-15T14:58:21.000Z</time>
      </trkpt>
      <trkpt lat="42.38524" lon="2.0952">
        <ele>2202</ele>
        <time>2017-10-15T14:58:22.000Z</time>
      </trkpt>
      <trkpt lat="42.38524" lon="2.09519">
        <ele>2201</ele>
        <time>2017-10-15T14:58:23.000Z</time>
      </trkpt>
      <trkpt lat="42.38524" lon="2.09518">
        <ele>2201</ele>
        <time>2017-10-15T14:58:24.000Z</time>
      </trkpt>
      <trkpt lat="42.38524" lon="2.09516">
        <ele>2201</ele>
        <time>2017-10-15T14:58:25.000Z</time>
      </trkpt>
      <trkpt lat="42.38524" lon="2.09515">
        <ele>2201</ele>
        <time>2017-10-15T14:58:26.000Z</time>
      </trkpt>
      <trkpt lat="42.38525" lon="2.09514">
        <ele>2201</ele>
        <time>2017-10-15T14:58:27.000Z</time>
      </trkpt>
      <trkpt lat="42.38525" lon="2.09513">
        <ele>2201</ele>
        <time>2017-10-15T14:58:28.000Z</time>
      </trkpt>
      <trkpt lat="42.38525" lon="2.09512">
        <ele>2200</ele>
        <time>2017-10-15T14:58:29.000Z</time>
      </trkpt>
      <trkpt lat="42.38525" lon="2.09511">
        <ele>2200</ele>
        <time>2017-10-15T14:58:30.000Z</time>
      </trkpt>
      <trkpt lat="42.38525" lon="2.0951">
        <ele>2200</ele>
        <time>2017-10-15T14:58:31.000Z</time>
      </trkpt>
      <trkpt lat="42.38525" lon="2.0951">
        <ele>2200</ele>
        <time>2017-10-15T14:58:32.000Z</time>
      </trkpt>
      <trkpt lat="42.38525" lon="2.09509">
        <ele>2200</ele>
        <time>2017-10-15T14:58:33.000Z</time>
      </trkpt>
      <trkpt lat="42.38525" lon="2.09508">
        <ele>2200</ele>
        <time>2017-10-15T14:58:34.000Z</time>
      </trkpt>
      <trkpt lat="42.38525" lon="2.09508">
        <ele>2200</ele>
        <time>2017-10-15T14:58:35.000Z</time>
      </trkpt>
      <trkpt lat="42.38525" lon="2.09507">
        <ele>2200</ele>
        <time>2017-10-15T14:58:36.000Z</time>
      </trkpt>
      <trkpt lat="42.38525" lon="2.09506">
        <ele>2199</ele>
        <time>2017-10-15T14:58:37.000Z</time>
      </trkpt>
      <trkpt lat="42.38525" lon="2.09505">
        <ele>2199</ele>
        <time>2017-10-15T14:58:38.000Z</time>
      </trkpt>
      <trkpt lat="42.38525" lon="2.09505">
        <ele>2199</ele>
        <time>2017-10-15T14:58:39.000Z</time>
      </trkpt>
      <trkpt lat="42.38525" lon="2.09504">
        <ele>2199</ele>
        <time>2017-10-15T14:58:40.000Z</time>
      </trkpt>
      <trkpt lat="42.38525" lon="2.09503">
        <ele>2199</ele>
        <time>2017-10-15T14:58:41.000Z</time>
      </trkpt>
      <trkpt lat="42.38525" lon="2.09502">
        <ele>2199</ele>
        <time>2017-10-15T14:58:42.000Z</time>
      </trkpt>
      <trkpt lat="42.38525" lon="2.09501">
        <ele>2199</ele>
        <time>2017-10-15T14:58:43.000Z</time>
      </trkpt>
      <trkpt lat="42.38526" lon="2.095">
        <ele>2198</ele>
        <time>2017-10-15T14:58:44.000Z</time>
      </trkpt>
      <trkpt lat="42.38526" lon="2.09499">
        <ele>2198</ele>
        <time>2017-10-15T14:58:45.000Z</time>
      </trkpt>
      <trkpt lat="42.38527" lon="2.09498">
        <ele>2198</ele>
        <time>2017-10-15T14:58:46.000Z</time>
      </trkpt>
      <trkpt lat="42.38527" lon="2.09498">
        <ele>2198</ele>
        <time>2017-10-15T14:58:47.000Z</time>
      </trkpt>
      <trkpt lat="42.38527" lon="2.09497">
        <ele>2198</ele>
        <time>2017-10-15T14:58:48.000Z</time>
      </trkpt>
      <trkpt lat="42.38528" lon="2.09497">
        <ele>2198</ele>
        <time>2017-10-15T14:58:49.000Z</time>
      </trkpt>
      <trkpt lat="42.38528" lon="2.09496">
        <ele>2198</ele>
        <time>2017-10-15T14:58:50.000Z</time>
      </trkpt>
      <trkpt lat="42.38529" lon="2.09496">
        <ele>2198</ele>
        <time>2017-10-15T14:58:51.000Z</time>
      </trkpt>
      <trkpt lat="42.38529" lon="2.09496">
        <ele>2198</ele>
        <time>2017-10-15T14:58:52.000Z</time>
      </trkpt>
      <trkpt lat="42.38529" lon="2.09495">
        <ele>2198</ele>
        <time>2017-10-15T14:58:53.000Z</time>
      </trkpt>
      <trkpt lat="42.38529" lon="2.09494">
        <ele>2198</ele>
        <time>2017-10-15T14:58:54.000Z</time>
      </trkpt>
      <trkpt lat="42.3853" lon="2.09493">
        <ele>2198</ele>
        <time>2017-10-15T14:58:55.000Z</time>
      </trkpt>
      <trkpt lat="42.3853" lon="2.09493">
        <ele>2198</ele>
        <time>2017-10-15T14:58:56.000Z</time>
      </trkpt>
      <trkpt lat="42.38531" lon="2.09492">
        <ele>2198</ele>
        <time>2017-10-15T14:58:57.000Z</time>
      </trkpt>
      <trkpt lat="42.38531" lon="2.09491">
        <ele>2197</ele>
        <time>2017-10-15T14:58:58.000Z</time>
      </trkpt>
      <trkpt lat="42.38532" lon="2.0949">
        <ele>2197</ele>
        <time>2017-10-15T14:58:59.000Z</time>
      </trkpt>
      <trkpt lat="42.38532" lon="2.0949">
        <ele>2197</ele>
        <time>2017-10-15T14:59:00.000Z</time>
      </trkpt>
      <trkpt lat="42.38533" lon="2.09489">
        <ele>2197</ele>
        <time>2017-10-15T14:59:01.000Z</time>
      </trkpt>
      <trkpt lat="42.38533" lon="2.09488">
        <ele>2197</ele>
        <time>2017-10-15T14:59:02.000Z</time>
      </trkpt>
      <trkpt lat="42.38534" lon="2.09488">
        <ele>2197</ele>
        <time>2017-10-15T14:59:03.000Z</time>
      </trkpt>
      <trkpt lat="42.38534" lon="2.09487">
        <ele>2197</ele>
        <time>2017-10-15T14:59:04.000Z</time>
      </trkpt>
      <trkpt lat="42.38535" lon="2.09486">
        <ele>2197</ele>
        <time>2017-10-15T14:59:05.000Z</time>
      </trkpt>
      <trkpt lat="42.38535" lon="2.09486">
        <ele>2197</ele>
        <time>2017-10-15T14:59:06.000Z</time>
      </trkpt>
      <trkpt lat="42.38535" lon="2.09478">
        <ele>2196</ele>
        <time>2017-10-15T14:59:18.000Z</time>
      </trkpt>
      <trkpt lat="42.38535" lon="2.09477">
        <ele>2196</ele>
        <time>2017-10-15T14:59:19.000Z</time>
      </trkpt>
      <trkpt lat="42.38535" lon="2.09476">
        <ele>2195</ele>
        <time>2017-10-15T14:59:20.000Z</time>
      </trkpt>
      <trkpt lat="42.38535" lon="2.09475">
        <ele>2195</ele>
        <time>2017-10-15T14:59:21.000Z</time>
      </trkpt>
      <trkpt lat="42.38534" lon="2.09473">
        <ele>2195</ele>
        <time>2017-10-15T14:59:22.000Z</time>
      </trkpt>
      <trkpt lat="42.38534" lon="2.09472">
        <ele>2195</ele>
        <time>2017-10-15T14:59:23.000Z</time>
      </trkpt>
      <trkpt lat="42.38533" lon="2.0947">
        <ele>2194</ele>
        <time>2017-10-15T14:59:24.000Z</time>
      </trkpt>
      <trkpt lat="42.38533" lon="2.09469">
        <ele>2194</ele>
        <time>2017-10-15T14:59:25.000Z</time>
      </trkpt>
      <trkpt lat="42.38533" lon="2.09468">
        <ele>2194</ele>
        <time>2017-10-15T14:59:26.000Z</time>
      </trkpt>
      <trkpt lat="42.38533" lon="2.09467">
        <ele>2194</ele>
        <time>2017-10-15T14:59:27.000Z</time>
      </trkpt>
      <trkpt lat="42.38533" lon="2.09465">
        <ele>2194</ele>
        <time>2017-10-15T14:59:28.000Z</time>
      </trkpt>
      <trkpt lat="42.38532" lon="2.09464">
        <ele>2193</ele>
        <time>2017-10-15T14:59:29.000Z</time>
      </trkpt>
      <trkpt lat="42.38533" lon="2.09462">
        <ele>2193</ele>
        <time>2017-10-15T14:59:30.000Z</time>
      </trkpt>
      <trkpt lat="42.38533" lon="2.09461">
        <ele>2193</ele>
        <time>2017-10-15T14:59:31.000Z</time>
      </trkpt>
      <trkpt lat="42.38533" lon="2.0946">
        <ele>2193</ele>
        <time>2017-10-15T14:59:32.000Z</time>
      </trkpt>
      <trkpt lat="42.38534" lon="2.09459">
        <ele>2193</ele>
        <time>2017-10-15T14:59:33.000Z</time>
      </trkpt>
      <trkpt lat="42.38534" lon="2.09457">
        <ele>2192</ele>
        <time>2017-10-15T14:59:34.000Z</time>
      </trkpt>
      <trkpt lat="42.38534" lon="2.09456">
        <ele>2192</ele>
        <time>2017-10-15T14:59:35.000Z</time>
      </trkpt>
      <trkpt lat="42.38534" lon="2.09455">
        <ele>2192</ele>
        <time>2017-10-15T14:59:36.000Z</time>
      </trkpt>
      <trkpt lat="42.38534" lon="2.09454">
        <ele>2192</ele>
        <time>2017-10-15T14:59:37.000Z</time>
      </trkpt>
      <trkpt lat="42.38534" lon="2.09453">
        <ele>2192</ele>
        <time>2017-10-15T14:59:38.000Z</time>
      </trkpt>
      <trkpt lat="42.38534" lon="2.09451">
        <ele>2192</ele>
        <time>2017-10-15T14:59:39.000Z</time>
      </trkpt>
      <trkpt lat="42.38534" lon="2.09451">
        <ele>2191</ele>
        <time>2017-10-15T14:59:40.000Z</time>
      </trkpt>
      <trkpt lat="42.38534" lon="2.0945">
        <ele>2191</ele>
        <time>2017-10-15T14:59:41.000Z</time>
      </trkpt>
      <trkpt lat="42.38534" lon="2.09448">
        <ele>2191</ele>
        <time>2017-10-15T14:59:42.000Z</time>
      </trkpt>
      <trkpt lat="42.38534" lon="2.09447">
        <ele>2191</ele>
        <time>2017-10-15T14:59:43.000Z</time>
      </trkpt>
      <trkpt lat="42.38534" lon="2.09446">
        <ele>2191</ele>
        <time>2017-10-15T14:59:44.000Z</time>
      </trkpt>
      <trkpt lat="42.38534" lon="2.09445">
        <ele>2190</ele>
        <time>2017-10-15T14:59:45.000Z</time>
      </trkpt>
      <trkpt lat="42.38534" lon="2.09444">
        <ele>2190</ele>
        <time>2017-10-15T14:59:46.000Z</time>
      </trkpt>
      <trkpt lat="42.38534" lon="2.09443">
        <ele>2190</ele>
        <time>2017-10-15T14:59:47.000Z</time>
      </trkpt>
      <trkpt lat="42.38535" lon="2.09442">
        <ele>2190</ele>
        <time>2017-10-15T14:59:48.000Z</time>
      </trkpt>
      <trkpt lat="42.38535" lon="2.0944">
        <ele>2189</ele>
        <time>2017-10-15T14:59:49.000Z</time>
      </trkpt>
      <trkpt lat="42.38536" lon="2.09439">
        <ele>2189</ele>
        <time>2017-10-15T14:59:50.000Z</time>
      </trkpt>
      <trkpt lat="42.38536" lon="2.09438">
        <ele>2189</ele>
        <time>2017-10-15T14:59:51.000Z</time>
      </trkpt>
      <trkpt lat="42.38537" lon="2.09438">
        <ele>2189</ele>
        <time>2017-10-15T14:59:52.000Z</time>
      </trkpt>
      <trkpt lat="42.38537" lon="2.09436">
        <ele>2189</ele>
        <time>2017-10-15T14:59:53.000Z</time>
      </trkpt>
      <trkpt lat="42.38538" lon="2.09435">
        <ele>2188</ele>
        <time>2017-10-15T14:59:54.000Z</time>
      </trkpt>
      <trkpt lat="42.38538" lon="2.09435">
        <ele>2188</ele>
        <time>2017-10-15T14:59:55.000Z</time>
      </trkpt>
      <trkpt lat="42.38539" lon="2.09434">
        <ele>2188</ele>
        <time>2017-10-15T14:59:56.000Z</time>
      </trkpt>
      <trkpt lat="42.38539" lon="2.09433">
        <ele>2188</ele>
        <time>2017-10-15T14:59:57.000Z</time>
      </trkpt>
      <trkpt lat="42.3854" lon="2.09432">
        <ele>2188</ele>
        <time>2017-10-15T14:59:58.000Z</time>
      </trkpt>
      <trkpt lat="42.3854" lon="2.09431">
        <ele>2187</ele>
        <time>2017-10-15T14:59:59.000Z</time>
      </trkpt>
      <trkpt lat="42.3854" lon="2.09429">
        <ele>2187</ele>
        <time>2017-10-15T15:00:00.000Z</time>
      </trkpt>
      <trkpt lat="42.3854" lon="2.09428">
        <ele>2187</ele>
        <time>2017-10-15T15:00:01.000Z</time>
      </trkpt>
      <trkpt lat="42.38541" lon="2.09427">
        <ele>2187</ele>
        <time>2017-10-15T15:00:02.000Z</time>
      </trkpt>
      <trkpt lat="42.38541" lon="2.09426">
        <ele>2187</ele>
        <time>2017-10-15T15:00:03.000Z</time>
      </trkpt>
      <trkpt lat="42.38541" lon="2.09425">
        <ele>2186</ele>
        <time>2017-10-15T15:00:04.000Z</time>
      </trkpt>
      <trkpt lat="42.38541" lon="2.09425">
        <ele>2186</ele>
        <time>2017-10-15T15:00:05.000Z</time>
      </trkpt>
      <trkpt lat="42.38541" lon="2.09423">
        <ele>2186</ele>
        <time>2017-10-15T15:00:06.000Z</time>
      </trkpt>
      <trkpt lat="42.38542" lon="2.09423">
        <ele>2186</ele>
        <time>2017-10-15T15:00:07.000Z</time>
      </trkpt>
      <trkpt lat="42.38542" lon="2.09422">
        <ele>2186</ele>
        <time>2017-10-15T15:00:08.000Z</time>
      </trkpt>
      <trkpt lat="42.38542" lon="2.09421">
        <ele>2185</ele>
        <time>2017-10-15T15:00:09.000Z</time>
      </trkpt>
      <trkpt lat="42.38542" lon="2.0942">
        <ele>2185</ele>
        <time>2017-10-15T15:00:10.000Z</time>
      </trkpt>
      <trkpt lat="42.38542" lon="2.09419">
        <ele>2185</ele>
        <time>2017-10-15T15:00:11.000Z</time>
      </trkpt>
      <trkpt lat="42.38542" lon="2.09419">
        <ele>2185</ele>
        <time>2017-10-15T15:00:12.000Z</time>
      </trkpt>
      <trkpt lat="42.38542" lon="2.09418">
        <ele>2185</ele>
        <time>2017-10-15T15:00:13.000Z</time>
      </trkpt>
      <trkpt lat="42.38542" lon="2.09417">
        <ele>2185</ele>
        <time>2017-10-15T15:00:14.000Z</time>
      </trkpt>
      <trkpt lat="42.38542" lon="2.09416">
        <ele>2184</ele>
        <time>2017-10-15T15:00:15.000Z</time>
      </trkpt>
      <trkpt lat="42.38543" lon="2.09415">
        <ele>2184</ele>
        <time>2017-10-15T15:00:16.000Z</time>
      </trkpt>
      <trkpt lat="42.38543" lon="2.09414">
        <ele>2184</ele>
        <time>2017-10-15T15:00:17.000Z</time>
      </trkpt>
      <trkpt lat="42.38543" lon="2.09413">
        <ele>2184</ele>
        <time>2017-10-15T15:00:18.000Z</time>
      </trkpt>
      <trkpt lat="42.38543" lon="2.09412">
        <ele>2184</ele>
        <time>2017-10-15T15:00:19.000Z</time>
      </trkpt>
      <trkpt lat="42.38543" lon="2.09411">
        <ele>2183</ele>
        <time>2017-10-15T15:00:20.000Z</time>
      </trkpt>
      <trkpt lat="42.38543" lon="2.09411">
        <ele>2183</ele>
        <time>2017-10-15T15:00:21.000Z</time>
      </trkpt>
      <trkpt lat="42.38543" lon="2.0941">
        <ele>2183</ele>
        <time>2017-10-15T15:00:22.000Z</time>
      </trkpt>
      <trkpt lat="42.38543" lon="2.09409">
        <ele>2183</ele>
        <time>2017-10-15T15:00:23.000Z</time>
      </trkpt>
      <trkpt lat="42.38544" lon="2.09408">
        <ele>2183</ele>
        <time>2017-10-15T15:00:24.000Z</time>
      </trkpt>
      <trkpt lat="42.38544" lon="2.09408">
        <ele>2183</ele>
        <time>2017-10-15T15:00:25.000Z</time>
      </trkpt>
      <trkpt lat="42.38544" lon="2.09407">
        <ele>2183</ele>
        <time>2017-10-15T15:00:26.000Z</time>
      </trkpt>
      <trkpt lat="42.38544" lon="2.09406">
        <ele>2183</ele>
        <time>2017-10-15T15:00:27.000Z</time>
      </trkpt>
      <trkpt lat="42.38544" lon="2.09404">
        <ele>2182</ele>
        <time>2017-10-15T15:00:28.000Z</time>
      </trkpt>
      <trkpt lat="42.38543" lon="2.09403">
        <ele>2182</ele>
        <time>2017-10-15T15:00:29.000Z</time>
      </trkpt>
      <trkpt lat="42.38543" lon="2.09402">
        <ele>2182</ele>
        <time>2017-10-15T15:00:30.000Z</time>
      </trkpt>
      <trkpt lat="42.38543" lon="2.09401">
        <ele>2182</ele>
        <time>2017-10-15T15:00:31.000Z</time>
      </trkpt>
      <trkpt lat="42.38543" lon="2.094">
        <ele>2182</ele>
        <time>2017-10-15T15:00:32.000Z</time>
      </trkpt>
      <trkpt lat="42.38543" lon="2.09399">
        <ele>2182</ele>
        <time>2017-10-15T15:00:33.000Z</time>
      </trkpt>
      <trkpt lat="42.38542" lon="2.09398">
        <ele>2182</ele>
        <time>2017-10-15T15:00:34.000Z</time>
      </trkpt>
      <trkpt lat="42.38542" lon="2.09396">
        <ele>2182</ele>
        <time>2017-10-15T15:00:35.000Z</time>
      </trkpt>
      <trkpt lat="42.38542" lon="2.09395">
        <ele>2181</ele>
        <time>2017-10-15T15:00:36.000Z</time>
      </trkpt>
      <trkpt lat="42.38542" lon="2.09394">
        <ele>2181</ele>
        <time>2017-10-15T15:00:37.000Z</time>
      </trkpt>
      <trkpt lat="42.38541" lon="2.09392">
        <ele>2181</ele>
        <time>2017-10-15T15:00:38.000Z</time>
      </trkpt>
      <trkpt lat="42.38541" lon="2.09391">
        <ele>2181</ele>
        <time>2017-10-15T15:00:39.000Z</time>
      </trkpt>
      <trkpt lat="42.38541" lon="2.0939">
        <ele>2181</ele>
        <time>2017-10-15T15:00:40.000Z</time>
      </trkpt>
      <trkpt lat="42.38541" lon="2.09388">
        <ele>2181</ele>
        <time>2017-10-15T15:00:41.000Z</time>
      </trkpt>
      <trkpt lat="42.38541" lon="2.09387">
        <ele>2181</ele>
        <time>2017-10-15T15:00:42.000Z</time>
      </trkpt>
      <trkpt lat="42.38541" lon="2.09386">
        <ele>2180</ele>
        <time>2017-10-15T15:00:43.000Z</time>
      </trkpt>
      <trkpt lat="42.38541" lon="2.09385">
        <ele>2180</ele>
        <time>2017-10-15T15:00:44.000Z</time>
      </trkpt>
      <trkpt lat="42.38541" lon="2.09384">
        <ele>2180</ele>
        <time>2017-10-15T15:00:45.000Z</time>
      </trkpt>
      <trkpt lat="42.38541" lon="2.09383">
        <ele>2180</ele>
        <time>2017-10-15T15:00:46.000Z</time>
      </trkpt>
      <trkpt lat="42.38541" lon="2.09382">
        <ele>2180</ele>
        <time>2017-10-15T15:00:47.000Z</time>
      </trkpt>
      <trkpt lat="42.3854" lon="2.09382">
        <ele>2180</ele>
        <time>2017-10-15T15:00:48.000Z</time>
      </trkpt>
      <trkpt lat="42.3854" lon="2.09381">
        <ele>2180</ele>
        <time>2017-10-15T15:00:49.000Z</time>
      </trkpt>
      <trkpt lat="42.38539" lon="2.0938">
        <ele>2180</ele>
        <time>2017-10-15T15:00:50.000Z</time>
      </trkpt>
      <trkpt lat="42.3854" lon="2.09379">
        <ele>2180</ele>
        <time>2017-10-15T15:00:51.000Z</time>
      </trkpt>
      <trkpt lat="42.3854" lon="2.09378">
        <ele>2180</ele>
        <time>2017-10-15T15:00:52.000Z</time>
      </trkpt>
      <trkpt lat="42.3854" lon="2.09377">
        <ele>2179</ele>
        <time>2017-10-15T15:00:53.000Z</time>
      </trkpt>
      <trkpt lat="42.3854" lon="2.09376">
        <ele>2179</ele>
        <time>2017-10-15T15:00:54.000Z</time>
      </trkpt>
      <trkpt lat="42.3854" lon="2.09375">
        <ele>2179</ele>
        <time>2017-10-15T15:00:55.000Z</time>
      </trkpt>
      <trkpt lat="42.3854" lon="2.09374">
        <ele>2179</ele>
        <time>2017-10-15T15:00:56.000Z</time>
      </trkpt>
      <trkpt lat="42.3854" lon="2.09373">
        <ele>2179</ele>
        <time>2017-10-15T15:00:57.000Z</time>
      </trkpt>
      <trkpt lat="42.3854" lon="2.09372">
        <ele>2179</ele>
        <time>2017-10-15T15:00:58.000Z</time>
      </trkpt>
      <trkpt lat="42.3854" lon="2.09371">
        <ele>2179</ele>
        <time>2017-10-15T15:00:59.000Z</time>
      </trkpt>
      <trkpt lat="42.38541" lon="2.09369">
        <ele>2179</ele>
        <time>2017-10-15T15:01:00.000Z</time>
      </trkpt>
      <trkpt lat="42.38542" lon="2.09368">
        <ele>2178</ele>
        <time>2017-10-15T15:01:01.000Z</time>
      </trkpt>
      <trkpt lat="42.38542" lon="2.09367">
        <ele>2178</ele>
        <time>2017-10-15T15:01:02.000Z</time>
      </trkpt>
      <trkpt lat="42.38542" lon="2.09367">
        <ele>2178</ele>
        <time>2017-10-15T15:01:03.000Z</time>
      </trkpt>
      <trkpt lat="42.38543" lon="2.09366">
        <ele>2178</ele>
        <time>2017-10-15T15:01:04.000Z</time>
      </trkpt>
      <trkpt lat="42.38542" lon="2.09365">
        <ele>2177</ele>
        <time>2017-10-15T15:01:05.000Z</time>
      </trkpt>
      <trkpt lat="42.38543" lon="2.09364">
        <ele>2177</ele>
        <time>2017-10-15T15:01:06.000Z</time>
      </trkpt>
      <trkpt lat="42.38543" lon="2.09363">
        <ele>2176</ele>
        <time>2017-10-15T15:01:07.000Z</time>
      </trkpt>
      <trkpt lat="42.38544" lon="2.09361">
        <ele>2176</ele>
        <time>2017-10-15T15:01:08.000Z</time>
      </trkpt>
      <trkpt lat="42.38545" lon="2.0936">
        <ele>2176</ele>
        <time>2017-10-15T15:01:09.000Z</time>
      </trkpt>
      <trkpt lat="42.38545" lon="2.0936">
        <ele>2176</ele>
        <time>2017-10-15T15:01:10.000Z</time>
      </trkpt>
      <trkpt lat="42.38545" lon="2.09359">
        <ele>2175</ele>
        <time>2017-10-15T15:01:11.000Z</time>
      </trkpt>
      <trkpt lat="42.38545" lon="2.09358">
        <ele>2175</ele>
        <time>2017-10-15T15:01:12.000Z</time>
      </trkpt>
      <trkpt lat="42.38545" lon="2.09358">
        <ele>2175</ele>
        <time>2017-10-15T15:01:13.000Z</time>
      </trkpt>
      <trkpt lat="42.38545" lon="2.09357">
        <ele>2175</ele>
        <time>2017-10-15T15:01:14.000Z</time>
      </trkpt>
      <trkpt lat="42.38546" lon="2.09356">
        <ele>2174</ele>
        <time>2017-10-15T15:01:15.000Z</time>
      </trkpt>
      <trkpt lat="42.38546" lon="2.09355">
        <ele>2174</ele>
        <time>2017-10-15T15:01:16.000Z</time>
      </trkpt>
      <trkpt lat="42.38546" lon="2.09355">
        <ele>2174</ele>
        <time>2017-10-15T15:01:17.000Z</time>
      </trkpt>
      <trkpt lat="42.38547" lon="2.09354">
        <ele>2174</ele>
        <time>2017-10-15T15:01:18.000Z</time>
      </trkpt>
      <trkpt lat="42.38547" lon="2.09353">
        <ele>2174</ele>
        <time>2017-10-15T15:01:19.000Z</time>
      </trkpt>
      <trkpt lat="42.38548" lon="2.09353">
        <ele>2173</ele>
        <time>2017-10-15T15:01:20.000Z</time>
      </trkpt>
      <trkpt lat="42.38548" lon="2.09352">
        <ele>2173</ele>
        <time>2017-10-15T15:01:21.000Z</time>
      </trkpt>
      <trkpt lat="42.38548" lon="2.09351">
        <ele>2173</ele>
        <time>2017-10-15T15:01:22.000Z</time>
      </trkpt>
      <trkpt lat="42.38548" lon="2.09351">
        <ele>2173</ele>
        <time>2017-10-15T15:01:23.000Z</time>
      </trkpt>
      <trkpt lat="42.38549" lon="2.0935">
        <ele>2173</ele>
        <time>2017-10-15T15:01:24.000Z</time>
      </trkpt>
      <trkpt lat="42.38549" lon="2.0935">
        <ele>2172</ele>
        <time>2017-10-15T15:01:25.000Z</time>
      </trkpt>
      <trkpt lat="42.38548" lon="2.09349">
        <ele>2172</ele>
        <time>2017-10-15T15:01:26.000Z</time>
      </trkpt>
      <trkpt lat="42.38548" lon="2.09348">
        <ele>2172</ele>
        <time>2017-10-15T15:01:27.000Z</time>
      </trkpt>
      <trkpt lat="42.38548" lon="2.09347">
        <ele>2172</ele>
        <time>2017-10-15T15:01:28.000Z</time>
      </trkpt>
      <trkpt lat="42.38548" lon="2.09346">
        <ele>2172</ele>
        <time>2017-10-15T15:01:29.000Z</time>
      </trkpt>
      <trkpt lat="42.38548" lon="2.09345">
        <ele>2171</ele>
        <time>2017-10-15T15:01:30.000Z</time>
      </trkpt>
      <trkpt lat="42.38548" lon="2.09344">
        <ele>2171</ele>
        <time>2017-10-15T15:01:31.000Z</time>
      </trkpt>
      <trkpt lat="42.38549" lon="2.09344">
        <ele>2171</ele>
        <time>2017-10-15T15:01:32.000Z</time>
      </trkpt>
      <trkpt lat="42.38549" lon="2.09343">
        <ele>2171</ele>
        <time>2017-10-15T15:01:33.000Z</time>
      </trkpt>
      <trkpt lat="42.38549" lon="2.09342">
        <ele>2170</ele>
        <time>2017-10-15T15:01:34.000Z</time>
      </trkpt>
      <trkpt lat="42.38549" lon="2.09341">
        <ele>2170</ele>
        <time>2017-10-15T15:01:35.000Z</time>
      </trkpt>
      <trkpt lat="42.38549" lon="2.09341">
        <ele>2170</ele>
        <time>2017-10-15T15:01:36.000Z</time>
      </trkpt>
      <trkpt lat="42.38549" lon="2.09339">
        <ele>2170</ele>
        <time>2017-10-15T15:01:37.000Z</time>
      </trkpt>
      <trkpt lat="42.38549" lon="2.09338">
        <ele>2169</ele>
        <time>2017-10-15T15:01:38.000Z</time>
      </trkpt>
      <trkpt lat="42.38549" lon="2.09337">
        <ele>2169</ele>
        <time>2017-10-15T15:01:39.000Z</time>
      </trkpt>
      <trkpt lat="42.38549" lon="2.09336">
        <ele>2169</ele>
        <time>2017-10-15T15:01:40.000Z</time>
      </trkpt>
      <trkpt lat="42.38549" lon="2.09335">
        <ele>2168</ele>
        <time>2017-10-15T15:01:41.000Z</time>
      </trkpt>
      <trkpt lat="42.38549" lon="2.09334">
        <ele>2168</ele>
        <time>2017-10-15T15:01:42.000Z</time>
      </trkpt>
      <trkpt lat="42.38549" lon="2.09333">
        <ele>2168</ele>
        <time>2017-10-15T15:01:43.000Z</time>
      </trkpt>
      <trkpt lat="42.3855" lon="2.09332">
        <ele>2168</ele>
        <time>2017-10-15T15:01:44.000Z</time>
      </trkpt>
      <trkpt lat="42.3855" lon="2.09331">
        <ele>2167</ele>
        <time>2017-10-15T15:01:45.000Z</time>
      </trkpt>
      <trkpt lat="42.38551" lon="2.0933">
        <ele>2167</ele>
        <time>2017-10-15T15:01:46.000Z</time>
      </trkpt>
      <trkpt lat="42.38551" lon="2.0933">
        <ele>2167</ele>
        <time>2017-10-15T15:01:47.000Z</time>
      </trkpt>
      <trkpt lat="42.38551" lon="2.09329">
        <ele>2167</ele>
        <time>2017-10-15T15:01:48.000Z</time>
      </trkpt>
      <trkpt lat="42.38552" lon="2.09328">
        <ele>2166</ele>
        <time>2017-10-15T15:01:49.000Z</time>
      </trkpt>
      <trkpt lat="42.38552" lon="2.09328">
        <ele>2166</ele>
        <time>2017-10-15T15:01:50.000Z</time>
      </trkpt>
      <trkpt lat="42.38555" lon="2.09312">
        <ele>2165</ele>
        <time>2017-10-15T15:02:26.000Z</time>
      </trkpt>
      <trkpt lat="42.38556" lon="2.09311">
        <ele>2165</ele>
        <time>2017-10-15T15:02:27.000Z</time>
      </trkpt>
      <trkpt lat="42.38557" lon="2.0931">
        <ele>2165</ele>
        <time>2017-10-15T15:02:28.000Z</time>
      </trkpt>
      <trkpt lat="42.38557" lon="2.09309">
        <ele>2165</ele>
        <time>2017-10-15T15:02:29.000Z</time>
      </trkpt>
      <trkpt lat="42.38557" lon="2.09308">
        <ele>2165</ele>
        <time>2017-10-15T15:02:30.000Z</time>
      </trkpt>
      <trkpt lat="42.38558" lon="2.09307">
        <ele>2164</ele>
        <time>2017-10-15T15:02:31.000Z</time>
      </trkpt>
      <trkpt lat="42.38558" lon="2.09305">
        <ele>2164</ele>
        <time>2017-10-15T15:02:32.000Z</time>
      </trkpt>
      <trkpt lat="42.38559" lon="2.09304">
        <ele>2164</ele>
        <time>2017-10-15T15:02:33.000Z</time>
      </trkpt>
      <trkpt lat="42.38559" lon="2.09303">
        <ele>2164</ele>
        <time>2017-10-15T15:02:34.000Z</time>
      </trkpt>
      <trkpt lat="42.38559" lon="2.09302">
        <ele>2164</ele>
        <time>2017-10-15T15:02:35.000Z</time>
      </trkpt>
      <trkpt lat="42.3856" lon="2.09301">
        <ele>2163</ele>
        <time>2017-10-15T15:02:36.000Z</time>
      </trkpt>
      <trkpt lat="42.38561" lon="2.093">
        <ele>2162</ele>
        <time>2017-10-15T15:02:37.000Z</time>
      </trkpt>
      <trkpt lat="42.38561" lon="2.09299">
        <ele>2162</ele>
        <time>2017-10-15T15:02:38.000Z</time>
      </trkpt>
      <trkpt lat="42.38561" lon="2.09298">
        <ele>2162</ele>
        <time>2017-10-15T15:02:39.000Z</time>
      </trkpt>
      <trkpt lat="42.38562" lon="2.09297">
        <ele>2161</ele>
        <time>2017-10-15T15:02:40.000Z</time>
      </trkpt>
      <trkpt lat="42.38562" lon="2.09296">
        <ele>2161</ele>
        <time>2017-10-15T15:02:41.000Z</time>
      </trkpt>
      <trkpt lat="42.38562" lon="2.09294">
        <ele>2161</ele>
        <time>2017-10-15T15:02:42.000Z</time>
      </trkpt>
      <trkpt lat="42.38563" lon="2.09294">
        <ele>2160</ele>
        <time>2017-10-15T15:02:43.000Z</time>
      </trkpt>
      <trkpt lat="42.38563" lon="2.09292">
        <ele>2160</ele>
        <time>2017-10-15T15:02:44.000Z</time>
      </trkpt>
      <trkpt lat="42.38564" lon="2.09292">
        <ele>2159</ele>
        <time>2017-10-15T15:02:45.000Z</time>
      </trkpt>
      <trkpt lat="42.38564" lon="2.09291">
        <ele>2159</ele>
        <time>2017-10-15T15:02:46.000Z</time>
      </trkpt>
      <trkpt lat="42.38565" lon="2.0929">
        <ele>2158</ele>
        <time>2017-10-15T15:02:47.000Z</time>
      </trkpt>
      <trkpt lat="42.38565" lon="2.09289">
        <ele>2158</ele>
        <time>2017-10-15T15:02:48.000Z</time>
      </trkpt>
      <trkpt lat="42.38566" lon="2.09288">
        <ele>2157</ele>
        <time>2017-10-15T15:02:49.000Z</time>
      </trkpt>
      <trkpt lat="42.38566" lon="2.09287">
        <ele>2157</ele>
        <time>2017-10-15T15:02:50.000Z</time>
      </trkpt>
      <trkpt lat="42.38566" lon="2.09286">
        <ele>2157</ele>
        <time>2017-10-15T15:02:51.000Z</time>
      </trkpt>
      <trkpt lat="42.38567" lon="2.09285">
        <ele>2156</ele>
        <time>2017-10-15T15:02:52.000Z</time>
      </trkpt>
      <trkpt lat="42.38567" lon="2.09284">
        <ele>2156</ele>
        <time>2017-10-15T15:02:53.000Z</time>
      </trkpt>
      <trkpt lat="42.38568" lon="2.09283">
        <ele>2155</ele>
        <time>2017-10-15T15:02:54.000Z</time>
      </trkpt>
      <trkpt lat="42.38568" lon="2.09283">
        <ele>2155</ele>
        <time>2017-10-15T15:02:55.000Z</time>
      </trkpt>
      <trkpt lat="42.38569" lon="2.09281">
        <ele>2155</ele>
        <time>2017-10-15T15:02:56.000Z</time>
      </trkpt>
      <trkpt lat="42.3857" lon="2.0928">
        <ele>2154</ele>
        <time>2017-10-15T15:02:57.000Z</time>
      </trkpt>
      <trkpt lat="42.3857" lon="2.0928">
        <ele>2154</ele>
        <time>2017-10-15T15:02:58.000Z</time>
      </trkpt>
      <trkpt lat="42.38571" lon="2.09279">
        <ele>2153</ele>
        <time>2017-10-15T15:02:59.000Z</time>
      </trkpt>
      <trkpt lat="42.38571" lon="2.09278">
        <ele>2153</ele>
        <time>2017-10-15T15:03:00.000Z</time>
      </trkpt>
      <trkpt lat="42.38572" lon="2.09277">
        <ele>2152</ele>
        <time>2017-10-15T15:03:01.000Z</time>
      </trkpt>
      <trkpt lat="42.38572" lon="2.09276">
        <ele>2152</ele>
        <time>2017-10-15T15:03:02.000Z</time>
      </trkpt>
      <trkpt lat="42.38573" lon="2.09275">
        <ele>2151</ele>
        <time>2017-10-15T15:03:03.000Z</time>
      </trkpt>
      <trkpt lat="42.38573" lon="2.09274">
        <ele>2151</ele>
        <time>2017-10-15T15:03:04.000Z</time>
      </trkpt>
      <trkpt lat="42.38574" lon="2.09273">
        <ele>2151</ele>
        <time>2017-10-15T15:03:05.000Z</time>
      </trkpt>
      <trkpt lat="42.38574" lon="2.09272">
        <ele>2150</ele>
        <time>2017-10-15T15:03:06.000Z</time>
      </trkpt>
      <trkpt lat="42.38574" lon="2.09271">
        <ele>2150</ele>
        <time>2017-10-15T15:03:07.000Z</time>
      </trkpt>
      <trkpt lat="42.38575" lon="2.0927">
        <ele>2150</ele>
        <time>2017-10-15T15:03:08.000Z</time>
      </trkpt>
      <trkpt lat="42.38575" lon="2.0927">
        <ele>2149</ele>
        <time>2017-10-15T15:03:09.000Z</time>
      </trkpt>
      <trkpt lat="42.38576" lon="2.09269">
        <ele>2149</ele>
        <time>2017-10-15T15:03:10.000Z</time>
      </trkpt>
      <trkpt lat="42.38576" lon="2.09268">
        <ele>2148</ele>
        <time>2017-10-15T15:03:11.000Z</time>
      </trkpt>
      <trkpt lat="42.38577" lon="2.09267">
        <ele>2148</ele>
        <time>2017-10-15T15:03:12.000Z</time>
      </trkpt>
      <trkpt lat="42.38577" lon="2.09266">
        <ele>2148</ele>
        <time>2017-10-15T15:03:13.000Z</time>
      </trkpt>
      <trkpt lat="42.38577" lon="2.09266">
        <ele>2148</ele>
        <time>2017-10-15T15:03:14.000Z</time>
      </trkpt>
      <trkpt lat="42.38577" lon="2.09265">
        <ele>2147</ele>
        <time>2017-10-15T15:03:15.000Z</time>
      </trkpt>
      <trkpt lat="42.38577" lon="2.09264">
        <ele>2147</ele>
        <time>2017-10-15T15:03:16.000Z</time>
      </trkpt>
      <trkpt lat="42.38577" lon="2.09264">
        <ele>2147</ele>
        <time>2017-10-15T15:03:17.000Z</time>
      </trkpt>
      <trkpt lat="42.38577" lon="2.09263">
        <ele>2147</ele>
        <time>2017-10-15T15:03:18.000Z</time>
      </trkpt>
      <trkpt lat="42.38578" lon="2.09263">
        <ele>2146</ele>
        <time>2017-10-15T15:03:19.000Z</time>
      </trkpt>
      <trkpt lat="42.38578" lon="2.09262">
        <ele>2146</ele>
        <time>2017-10-15T15:03:20.000Z</time>
      </trkpt>
      <trkpt lat="42.38579" lon="2.09262">
        <ele>2146</ele>
        <time>2017-10-15T15:03:21.000Z</time>
      </trkpt>
      <trkpt lat="42.3858" lon="2.09261">
        <ele>2145</ele>
        <time>2017-10-15T15:03:22.000Z</time>
      </trkpt>
      <trkpt lat="42.3858" lon="2.09261">
        <ele>2145</ele>
        <time>2017-10-15T15:03:23.000Z</time>
      </trkpt>
      <trkpt lat="42.38581" lon="2.09261">
        <ele>2145</ele>
        <time>2017-10-15T15:03:24.000Z</time>
      </trkpt>
      <trkpt lat="42.38581" lon="2.0926">
        <ele>2144</ele>
        <time>2017-10-15T15:03:25.000Z</time>
      </trkpt>
      <trkpt lat="42.38582" lon="2.09258">
        <ele>2144</ele>
        <time>2017-10-15T15:03:26.000Z</time>
      </trkpt>
      <trkpt lat="42.38583" lon="2.09258">
        <ele>2144</ele>
        <time>2017-10-15T15:03:27.000Z</time>
      </trkpt>
      <trkpt lat="42.38584" lon="2.09257">
        <ele>2144</ele>
        <time>2017-10-15T15:03:28.000Z</time>
      </trkpt>
      <trkpt lat="42.38584" lon="2.09256">
        <ele>2144</ele>
        <time>2017-10-15T15:03:29.000Z</time>
      </trkpt>
      <trkpt lat="42.38585" lon="2.09256">
        <ele>2144</ele>
        <time>2017-10-15T15:03:30.000Z</time>
      </trkpt>
      <trkpt lat="42.38585" lon="2.09255">
        <ele>2144</ele>
        <time>2017-10-15T15:03:31.000Z</time>
      </trkpt>
      <trkpt lat="42.38586" lon="2.09254">
        <ele>2144</ele>
        <time>2017-10-15T15:03:32.000Z</time>
      </trkpt>
      <trkpt lat="42.38586" lon="2.09253">
        <ele>2144</ele>
        <time>2017-10-15T15:03:33.000Z</time>
      </trkpt>
      <trkpt lat="42.38587" lon="2.09252">
        <ele>2144</ele>
        <time>2017-10-15T15:03:34.000Z</time>
      </trkpt>
      <trkpt lat="42.38588" lon="2.09252">
        <ele>2144</ele>
        <time>2017-10-15T15:03:35.000Z</time>
      </trkpt>
      <trkpt lat="42.38588" lon="2.09251">
        <ele>2144</ele>
        <time>2017-10-15T15:03:36.000Z</time>
      </trkpt>
      <trkpt lat="42.38588" lon="2.0925">
        <ele>2144</ele>
        <time>2017-10-15T15:03:37.000Z</time>
      </trkpt>
      <trkpt lat="42.38589" lon="2.09249">
        <ele>2143</ele>
        <time>2017-10-15T15:03:38.000Z</time>
      </trkpt>
      <trkpt lat="42.38589" lon="2.09248">
        <ele>2143</ele>
        <time>2017-10-15T15:03:39.000Z</time>
      </trkpt>
      <trkpt lat="42.3859" lon="2.09247">
        <ele>2143</ele>
        <time>2017-10-15T15:03:40.000Z</time>
      </trkpt>
      <trkpt lat="42.3859" lon="2.09247">
        <ele>2143</ele>
        <time>2017-10-15T15:03:41.000Z</time>
      </trkpt>
      <trkpt lat="42.3859" lon="2.09246">
        <ele>2142</ele>
        <time>2017-10-15T15:03:42.000Z</time>
      </trkpt>
      <trkpt lat="42.38591" lon="2.09246">
        <ele>2142</ele>
        <time>2017-10-15T15:03:43.000Z</time>
      </trkpt>
      <trkpt lat="42.38591" lon="2.09245">
        <ele>2142</ele>
        <time>2017-10-15T15:03:44.000Z</time>
      </trkpt>
      <trkpt lat="42.38592" lon="2.09245">
        <ele>2142</ele>
        <time>2017-10-15T15:03:45.000Z</time>
      </trkpt>
      <trkpt lat="42.38593" lon="2.09244">
        <ele>2142</ele>
        <time>2017-10-15T15:03:46.000Z</time>
      </trkpt>
      <trkpt lat="42.38593" lon="2.09243">
        <ele>2141</ele>
        <time>2017-10-15T15:03:47.000Z</time>
      </trkpt>
      <trkpt lat="42.38594" lon="2.09243">
        <ele>2141</ele>
        <time>2017-10-15T15:03:48.000Z</time>
      </trkpt>
      <trkpt lat="42.38595" lon="2.09242">
        <ele>2141</ele>
        <time>2017-10-15T15:03:49.000Z</time>
      </trkpt>
      <trkpt lat="42.38595" lon="2.09242">
        <ele>2141</ele>
        <time>2017-10-15T15:03:50.000Z</time>
      </trkpt>
      <trkpt lat="42.38595" lon="2.09241">
        <ele>2141</ele>
        <time>2017-10-15T15:03:51.000Z</time>
      </trkpt>
      <trkpt lat="42.38596" lon="2.0924">
        <ele>2141</ele>
        <time>2017-10-15T15:03:52.000Z</time>
      </trkpt>
      <trkpt lat="42.38596" lon="2.09239">
        <ele>2141</ele>
        <time>2017-10-15T15:03:53.000Z</time>
      </trkpt>
      <trkpt lat="42.38597" lon="2.09238">
        <ele>2141</ele>
        <time>2017-10-15T15:03:54.000Z</time>
      </trkpt>
      <trkpt lat="42.38597" lon="2.09238">
        <ele>2141</ele>
        <time>2017-10-15T15:03:55.000Z</time>
      </trkpt>
      <trkpt lat="42.38597" lon="2.09237">
        <ele>2141</ele>
        <time>2017-10-15T15:03:56.000Z</time>
      </trkpt>
      <trkpt lat="42.38598" lon="2.09236">
        <ele>2141</ele>
        <time>2017-10-15T15:03:57.000Z</time>
      </trkpt>
      <trkpt lat="42.38599" lon="2.09236">
        <ele>2141</ele>
        <time>2017-10-15T15:03:58.000Z</time>
      </trkpt>
      <trkpt lat="42.386" lon="2.09235">
        <ele>2141</ele>
        <time>2017-10-15T15:03:59.000Z</time>
      </trkpt>
      <trkpt lat="42.386" lon="2.09235">
        <ele>2141</ele>
        <time>2017-10-15T15:04:00.000Z</time>
      </trkpt>
      <trkpt lat="42.38601" lon="2.09234">
        <ele>2141</ele>
        <time>2017-10-15T15:04:01.000Z</time>
      </trkpt>
      <trkpt lat="42.38601" lon="2.09233">
        <ele>2141</ele>
        <time>2017-10-15T15:04:02.000Z</time>
      </trkpt>
      <trkpt lat="42.38602" lon="2.09232">
        <ele>2141</ele>
        <time>2017-10-15T15:04:03.000Z</time>
      </trkpt>
      <trkpt lat="42.38602" lon="2.09231">
        <ele>2141</ele>
        <time>2017-10-15T15:04:04.000Z</time>
      </trkpt>
      <trkpt lat="42.38603" lon="2.0923">
        <ele>2141</ele>
        <time>2017-10-15T15:04:05.000Z</time>
      </trkpt>
      <trkpt lat="42.38603" lon="2.09229">
        <ele>2141</ele>
        <time>2017-10-15T15:04:06.000Z</time>
      </trkpt>
      <trkpt lat="42.38604" lon="2.09228">
        <ele>2141</ele>
        <time>2017-10-15T15:04:07.000Z</time>
      </trkpt>
      <trkpt lat="42.38604" lon="2.09227">
        <ele>2141</ele>
        <time>2017-10-15T15:04:08.000Z</time>
      </trkpt>
      <trkpt lat="42.38605" lon="2.09227">
        <ele>2141</ele>
        <time>2017-10-15T15:04:09.000Z</time>
      </trkpt>
      <trkpt lat="42.38605" lon="2.09226">
        <ele>2141</ele>
        <time>2017-10-15T15:04:10.000Z</time>
      </trkpt>
      <trkpt lat="42.38606" lon="2.09226">
        <ele>2141</ele>
        <time>2017-10-15T15:04:11.000Z</time>
      </trkpt>
      <trkpt lat="42.38607" lon="2.09225">
        <ele>2141</ele>
        <time>2017-10-15T15:04:12.000Z</time>
      </trkpt>
      <trkpt lat="42.38607" lon="2.09224">
        <ele>2141</ele>
        <time>2017-10-15T15:04:13.000Z</time>
      </trkpt>
      <trkpt lat="42.38608" lon="2.09223">
        <ele>2141</ele>
        <time>2017-10-15T15:04:14.000Z</time>
      </trkpt>
      <trkpt lat="42.38608" lon="2.09222">
        <ele>2141</ele>
        <time>2017-10-15T15:04:15.000Z</time>
      </trkpt>
      <trkpt lat="42.38608" lon="2.09221">
        <ele>2141</ele>
        <time>2017-10-15T15:04:16.000Z</time>
      </trkpt>
      <trkpt lat="42.38609" lon="2.0922">
        <ele>2141</ele>
        <time>2017-10-15T15:04:17.000Z</time>
      </trkpt>
      <trkpt lat="42.3861" lon="2.09219">
        <ele>2141</ele>
        <time>2017-10-15T15:04:18.000Z</time>
      </trkpt>
      <trkpt lat="42.38611" lon="2.09218">
        <ele>2141</ele>
        <time>2017-10-15T15:04:19.000Z</time>
      </trkpt>
      <trkpt lat="42.38612" lon="2.09217">
        <ele>2141</ele>
        <time>2017-10-15T15:04:20.000Z</time>
      </trkpt>
      <trkpt lat="42.38612" lon="2.09217">
        <ele>2141</ele>
        <time>2017-10-15T15:04:21.000Z</time>
      </trkpt>
      <trkpt lat="42.38613" lon="2.09216">
        <ele>2141</ele>
        <time>2017-10-15T15:04:22.000Z</time>
      </trkpt>
      <trkpt lat="42.38614" lon="2.09215">
        <ele>2141</ele>
        <time>2017-10-15T15:04:23.000Z</time>
      </trkpt>
      <trkpt lat="42.38614" lon="2.09214">
        <ele>2141</ele>
        <time>2017-10-15T15:04:24.000Z</time>
      </trkpt>
      <trkpt lat="42.38615" lon="2.09213">
        <ele>2141</ele>
        <time>2017-10-15T15:04:25.000Z</time>
      </trkpt>
      <trkpt lat="42.38616" lon="2.09212">
        <ele>2141</ele>
        <time>2017-10-15T15:04:26.000Z</time>
      </trkpt>
      <trkpt lat="42.38616" lon="2.09211">
        <ele>2141</ele>
        <time>2017-10-15T15:04:27.000Z</time>
      </trkpt>
      <trkpt lat="42.38617" lon="2.0921">
        <ele>2141</ele>
        <time>2017-10-15T15:04:28.000Z</time>
      </trkpt>
      <trkpt lat="42.38617" lon="2.0921">
        <ele>2141</ele>
        <time>2017-10-15T15:04:29.000Z</time>
      </trkpt>
      <trkpt lat="42.38617" lon="2.09209">
        <ele>2141</ele>
        <time>2017-10-15T15:04:30.000Z</time>
      </trkpt>
      <trkpt lat="42.38618" lon="2.09208">
        <ele>2141</ele>
        <time>2017-10-15T15:04:31.000Z</time>
      </trkpt>
      <trkpt lat="42.38618" lon="2.09207">
        <ele>2141</ele>
        <time>2017-10-15T15:04:32.000Z</time>
      </trkpt>
      <trkpt lat="42.38619" lon="2.09206">
        <ele>2140</ele>
        <time>2017-10-15T15:04:33.000Z</time>
      </trkpt>
      <trkpt lat="42.3862" lon="2.09204">
        <ele>2140</ele>
        <time>2017-10-15T15:04:34.000Z</time>
      </trkpt>
      <trkpt lat="42.3862" lon="2.09203">
        <ele>2140</ele>
        <time>2017-10-15T15:04:35.000Z</time>
      </trkpt>
      <trkpt lat="42.38621" lon="2.09202">
        <ele>2140</ele>
        <time>2017-10-15T15:04:36.000Z</time>
      </trkpt>
      <trkpt lat="42.38621" lon="2.09201">
        <ele>2140</ele>
        <time>2017-10-15T15:04:37.000Z</time>
      </trkpt>
      <trkpt lat="42.38622" lon="2.092">
        <ele>2140</ele>
        <time>2017-10-15T15:04:38.000Z</time>
      </trkpt>
      <trkpt lat="42.38622" lon="2.09199">
        <ele>2140</ele>
        <time>2017-10-15T15:04:39.000Z</time>
      </trkpt>
      <trkpt lat="42.38623" lon="2.09198">
        <ele>2139</ele>
        <time>2017-10-15T15:04:40.000Z</time>
      </trkpt>
      <trkpt lat="42.38623" lon="2.09197">
        <ele>2139</ele>
        <time>2017-10-15T15:04:41.000Z</time>
      </trkpt>
      <trkpt lat="42.38624" lon="2.09196">
        <ele>2139</ele>
        <time>2017-10-15T15:04:42.000Z</time>
      </trkpt>
      <trkpt lat="42.38625" lon="2.09195">
        <ele>2138</ele>
        <time>2017-10-15T15:04:43.000Z</time>
      </trkpt>
      <trkpt lat="42.38625" lon="2.09194">
        <ele>2138</ele>
        <time>2017-10-15T15:04:44.000Z</time>
      </trkpt>
      <trkpt lat="42.38626" lon="2.09193">
        <ele>2138</ele>
        <time>2017-10-15T15:04:45.000Z</time>
      </trkpt>
      <trkpt lat="42.38627" lon="2.09192">
        <ele>2138</ele>
        <time>2017-10-15T15:04:46.000Z</time>
      </trkpt>
      <trkpt lat="42.38627" lon="2.09192">
        <ele>2137</ele>
        <time>2017-10-15T15:04:47.000Z</time>
      </trkpt>
      <trkpt lat="42.38628" lon="2.09191">
        <ele>2137</ele>
        <time>2017-10-15T15:04:48.000Z</time>
      </trkpt>
      <trkpt lat="42.38629" lon="2.09191">
        <ele>2137</ele>
        <time>2017-10-15T15:04:49.000Z</time>
      </trkpt>
      <trkpt lat="42.38629" lon="2.0919">
        <ele>2137</ele>
        <time>2017-10-15T15:04:50.000Z</time>
      </trkpt>
      <trkpt lat="42.3863" lon="2.0919">
        <ele>2137</ele>
        <time>2017-10-15T15:04:51.000Z</time>
      </trkpt>
      <trkpt lat="42.3863" lon="2.09189">
        <ele>2136</ele>
        <time>2017-10-15T15:04:52.000Z</time>
      </trkpt>
      <trkpt lat="42.38631" lon="2.09188">
        <ele>2136</ele>
        <time>2017-10-15T15:04:53.000Z</time>
      </trkpt>
      <trkpt lat="42.38631" lon="2.09187">
        <ele>2136</ele>
        <time>2017-10-15T15:04:54.000Z</time>
      </trkpt>
      <trkpt lat="42.38631" lon="2.09186">
        <ele>2136</ele>
        <time>2017-10-15T15:04:55.000Z</time>
      </trkpt>
      <trkpt lat="42.38632" lon="2.09186">
        <ele>2135</ele>
        <time>2017-10-15T15:04:56.000Z</time>
      </trkpt>
      <trkpt lat="42.38632" lon="2.09186">
        <ele>2135</ele>
        <time>2017-10-15T15:04:57.000Z</time>
      </trkpt>
      <trkpt lat="42.38633" lon="2.09185">
        <ele>2135</ele>
        <time>2017-10-15T15:04:58.000Z</time>
      </trkpt>
      <trkpt lat="42.38634" lon="2.09185">
        <ele>2135</ele>
        <time>2017-10-15T15:04:59.000Z</time>
      </trkpt>
      <trkpt lat="42.38634" lon="2.09185">
        <ele>2135</ele>
        <time>2017-10-15T15:05:00.000Z</time>
      </trkpt>
      <trkpt lat="42.38635" lon="2.09185">
        <ele>2135</ele>
        <time>2017-10-15T15:05:01.000Z</time>
      </trkpt>
      <trkpt lat="42.38635" lon="2.09184">
        <ele>2135</ele>
        <time>2017-10-15T15:05:02.000Z</time>
      </trkpt>
      <trkpt lat="42.38636" lon="2.09184">
        <ele>2135</ele>
        <time>2017-10-15T15:05:03.000Z</time>
      </trkpt>
      <trkpt lat="42.38636" lon="2.09184">
        <ele>2135</ele>
        <time>2017-10-15T15:05:04.000Z</time>
      </trkpt>
      <trkpt lat="42.38636" lon="2.09184">
        <ele>2135</ele>
        <time>2017-10-15T15:05:05.000Z</time>
      </trkpt>
      <trkpt lat="42.38639" lon="2.09176">
        <ele>2132</ele>
        <time>2017-10-15T15:05:29.000Z</time>
      </trkpt>
      <trkpt lat="42.3864" lon="2.09175">
        <ele>2132</ele>
        <time>2017-10-15T15:05:30.000Z</time>
      </trkpt>
      <trkpt lat="42.38641" lon="2.09174">
        <ele>2132</ele>
        <time>2017-10-15T15:05:31.000Z</time>
      </trkpt>
      <trkpt lat="42.38641" lon="2.09173">
        <ele>2131</ele>
        <time>2017-10-15T15:05:32.000Z</time>
      </trkpt>
      <trkpt lat="42.38642" lon="2.09172">
        <ele>2131</ele>
        <time>2017-10-15T15:05:33.000Z</time>
      </trkpt>
      <trkpt lat="42.38643" lon="2.09171">
        <ele>2130</ele>
        <time>2017-10-15T15:05:34.000Z</time>
      </trkpt>
      <trkpt lat="42.38643" lon="2.0917">
        <ele>2130</ele>
        <time>2017-10-15T15:05:35.000Z</time>
      </trkpt>
      <trkpt lat="42.38644" lon="2.09169">
        <ele>2130</ele>
        <time>2017-10-15T15:05:36.000Z</time>
      </trkpt>
      <trkpt lat="42.38644" lon="2.09168">
        <ele>2130</ele>
        <time>2017-10-15T15:05:37.000Z</time>
      </trkpt>
      <trkpt lat="42.38645" lon="2.09167">
        <ele>2129</ele>
        <time>2017-10-15T15:05:38.000Z</time>
      </trkpt>
      <trkpt lat="42.38645" lon="2.09166">
        <ele>2129</ele>
        <time>2017-10-15T15:05:39.000Z</time>
      </trkpt>
      <trkpt lat="42.38646" lon="2.09165">
        <ele>2128</ele>
        <time>2017-10-15T15:05:40.000Z</time>
      </trkpt>
      <trkpt lat="42.38646" lon="2.09164">
        <ele>2128</ele>
        <time>2017-10-15T15:05:41.000Z</time>
      </trkpt>
      <trkpt lat="42.38647" lon="2.09163">
        <ele>2128</ele>
        <time>2017-10-15T15:05:42.000Z</time>
      </trkpt>
      <trkpt lat="42.38648" lon="2.09162">
        <ele>2128</ele>
        <time>2017-10-15T15:05:43.000Z</time>
      </trkpt>
      <trkpt lat="42.38649" lon="2.09161">
        <ele>2127</ele>
        <time>2017-10-15T15:05:44.000Z</time>
      </trkpt>
      <trkpt lat="42.38649" lon="2.0916">
        <ele>2127</ele>
        <time>2017-10-15T15:05:45.000Z</time>
      </trkpt>
      <trkpt lat="42.3865" lon="2.09159">
        <ele>2127</ele>
        <time>2017-10-15T15:05:46.000Z</time>
      </trkpt>
      <trkpt lat="42.3865" lon="2.09158">
        <ele>2127</ele>
        <time>2017-10-15T15:05:47.000Z</time>
      </trkpt>
      <trkpt lat="42.38651" lon="2.09158">
        <ele>2127</ele>
        <time>2017-10-15T15:05:48.000Z</time>
      </trkpt>
      <trkpt lat="42.38652" lon="2.09157">
        <ele>2127</ele>
        <time>2017-10-15T15:05:49.000Z</time>
      </trkpt>
      <trkpt lat="42.38652" lon="2.09156">
        <ele>2127</ele>
        <time>2017-10-15T15:05:50.000Z</time>
      </trkpt>
      <trkpt lat="42.38653" lon="2.09155">
        <ele>2127</ele>
        <time>2017-10-15T15:05:51.000Z</time>
      </trkpt>
      <trkpt lat="42.38654" lon="2.09154">
        <ele>2127</ele>
        <time>2017-10-15T15:05:52.000Z</time>
      </trkpt>
      <trkpt lat="42.38654" lon="2.09153">
        <ele>2127</ele>
        <time>2017-10-15T15:05:53.000Z</time>
      </trkpt>
      <trkpt lat="42.38655" lon="2.09152">
        <ele>2127</ele>
        <time>2017-10-15T15:05:54.000Z</time>
      </trkpt>
      <trkpt lat="42.38655" lon="2.09151">
        <ele>2127</ele>
        <time>2017-10-15T15:05:55.000Z</time>
      </trkpt>
      <trkpt lat="42.38656" lon="2.0915">
        <ele>2127</ele>
        <time>2017-10-15T15:05:56.000Z</time>
      </trkpt>
      <trkpt lat="42.38656" lon="2.09149">
        <ele>2127</ele>
        <time>2017-10-15T15:05:57.000Z</time>
      </trkpt>
      <trkpt lat="42.38656" lon="2.09148">
        <ele>2126</ele>
        <time>2017-10-15T15:05:58.000Z</time>
      </trkpt>
      <trkpt lat="42.38657" lon="2.09147">
        <ele>2126</ele>
        <time>2017-10-15T15:05:59.000Z</time>
      </trkpt>
      <trkpt lat="42.38657" lon="2.09145">
        <ele>2126</ele>
        <time>2017-10-15T15:06:00.000Z</time>
      </trkpt>
      <trkpt lat="42.38658" lon="2.09144">
        <ele>2126</ele>
        <time>2017-10-15T15:06:01.000Z</time>
      </trkpt>
      <trkpt lat="42.38658" lon="2.09143">
        <ele>2125</ele>
        <time>2017-10-15T15:06:02.000Z</time>
      </trkpt>
      <trkpt lat="42.38659" lon="2.09142">
        <ele>2125</ele>
        <time>2017-10-15T15:06:03.000Z</time>
      </trkpt>
      <trkpt lat="42.38659" lon="2.09141">
        <ele>2125</ele>
        <time>2017-10-15T15:06:04.000Z</time>
      </trkpt>
      <trkpt lat="42.3866" lon="2.0914">
        <ele>2125</ele>
        <time>2017-10-15T15:06:05.000Z</time>
      </trkpt>
      <trkpt lat="42.3866" lon="2.09139">
        <ele>2124</ele>
        <time>2017-10-15T15:06:06.000Z</time>
      </trkpt>
      <trkpt lat="42.38661" lon="2.09138">
        <ele>2124</ele>
        <time>2017-10-15T15:06:07.000Z</time>
      </trkpt>
      <trkpt lat="42.38661" lon="2.09137">
        <ele>2124</ele>
        <time>2017-10-15T15:06:08.000Z</time>
      </trkpt>
      <trkpt lat="42.38662" lon="2.09136">
        <ele>2124</ele>
        <time>2017-10-15T15:06:09.000Z</time>
      </trkpt>
      <trkpt lat="42.38662" lon="2.09135">
        <ele>2123</ele>
        <time>2017-10-15T15:06:10.000Z</time>
      </trkpt>
      <trkpt lat="42.38663" lon="2.09134">
        <ele>2123</ele>
        <time>2017-10-15T15:06:11.000Z</time>
      </trkpt>
      <trkpt lat="42.38663" lon="2.09133">
        <ele>2123</ele>
        <time>2017-10-15T15:06:12.000Z</time>
      </trkpt>
      <trkpt lat="42.38664" lon="2.09132">
        <ele>2122</ele>
        <time>2017-10-15T15:06:13.000Z</time>
      </trkpt>
      <trkpt lat="42.38665" lon="2.09131">
        <ele>2122</ele>
        <time>2017-10-15T15:06:14.000Z</time>
      </trkpt>
      <trkpt lat="42.38666" lon="2.09129">
        <ele>2122</ele>
        <time>2017-10-15T15:06:15.000Z</time>
      </trkpt>
      <trkpt lat="42.38666" lon="2.09128">
        <ele>2122</ele>
        <time>2017-10-15T15:06:16.000Z</time>
      </trkpt>
      <trkpt lat="42.38667" lon="2.09127">
        <ele>2122</ele>
        <time>2017-10-15T15:06:17.000Z</time>
      </trkpt>
      <trkpt lat="42.38668" lon="2.09126">
        <ele>2122</ele>
        <time>2017-10-15T15:06:18.000Z</time>
      </trkpt>
      <trkpt lat="42.38668" lon="2.09124">
        <ele>2122</ele>
        <time>2017-10-15T15:06:19.000Z</time>
      </trkpt>
      <trkpt lat="42.38669" lon="2.09123">
        <ele>2122</ele>
        <time>2017-10-15T15:06:20.000Z</time>
      </trkpt>
      <trkpt lat="42.38669" lon="2.09122">
        <ele>2122</ele>
        <time>2017-10-15T15:06:21.000Z</time>
      </trkpt>
      <trkpt lat="42.3867" lon="2.0912">
        <ele>2122</ele>
        <time>2017-10-15T15:06:22.000Z</time>
      </trkpt>
      <trkpt lat="42.3867" lon="2.09119">
        <ele>2122</ele>
        <time>2017-10-15T15:06:23.000Z</time>
      </trkpt>
      <trkpt lat="42.38671" lon="2.09119">
        <ele>2122</ele>
        <time>2017-10-15T15:06:24.000Z</time>
      </trkpt>
      <trkpt lat="42.38672" lon="2.09117">
        <ele>2122</ele>
        <time>2017-10-15T15:06:25.000Z</time>
      </trkpt>
      <trkpt lat="42.38673" lon="2.09116">
        <ele>2122</ele>
        <time>2017-10-15T15:06:26.000Z</time>
      </trkpt>
      <trkpt lat="42.38673" lon="2.09115">
        <ele>2122</ele>
        <time>2017-10-15T15:06:27.000Z</time>
      </trkpt>
      <trkpt lat="42.38674" lon="2.09115">
        <ele>2122</ele>
        <time>2017-10-15T15:06:28.000Z</time>
      </trkpt>
      <trkpt lat="42.38674" lon="2.09114">
        <ele>2122</ele>
        <time>2017-10-15T15:06:29.000Z</time>
      </trkpt>
      <trkpt lat="42.38675" lon="2.09113">
        <ele>2122</ele>
        <time>2017-10-15T15:06:30.000Z</time>
      </trkpt>
      <trkpt lat="42.38675" lon="2.09113">
        <ele>2122</ele>
        <time>2017-10-15T15:06:31.000Z</time>
      </trkpt>
      <trkpt lat="42.38676" lon="2.09112">
        <ele>2122</ele>
        <time>2017-10-15T15:06:32.000Z</time>
      </trkpt>
      <trkpt lat="42.38676" lon="2.09111">
        <ele>2123</ele>
        <time>2017-10-15T15:06:33.000Z</time>
      </trkpt>
      <trkpt lat="42.38677" lon="2.09111">
        <ele>2123</ele>
        <time>2017-10-15T15:06:34.000Z</time>
      </trkpt>
      <trkpt lat="42.38677" lon="2.09109">
        <ele>2122</ele>
        <time>2017-10-15T15:06:35.000Z</time>
      </trkpt>
      <trkpt lat="42.38678" lon="2.09108">
        <ele>2123</ele>
        <time>2017-10-15T15:06:36.000Z</time>
      </trkpt>
      <trkpt lat="42.38678" lon="2.09108">
        <ele>2122</ele>
        <time>2017-10-15T15:06:37.000Z</time>
      </trkpt>
      <trkpt lat="42.38679" lon="2.09107">
        <ele>2123</ele>
        <time>2017-10-15T15:06:38.000Z</time>
      </trkpt>
      <trkpt lat="42.38679" lon="2.09106">
        <ele>2123</ele>
        <time>2017-10-15T15:06:39.000Z</time>
      </trkpt>
      <trkpt lat="42.3868" lon="2.09106">
        <ele>2123</ele>
        <time>2017-10-15T15:06:40.000Z</time>
      </trkpt>
      <trkpt lat="42.3868" lon="2.09105">
        <ele>2123</ele>
        <time>2017-10-15T15:06:41.000Z</time>
      </trkpt>
      <trkpt lat="42.38681" lon="2.09104">
        <ele>2123</ele>
        <time>2017-10-15T15:06:42.000Z</time>
      </trkpt>
      <trkpt lat="42.38681" lon="2.09104">
        <ele>2123</ele>
        <time>2017-10-15T15:06:43.000Z</time>
      </trkpt>
      <trkpt lat="42.38682" lon="2.09103">
        <ele>2123</ele>
        <time>2017-10-15T15:06:44.000Z</time>
      </trkpt>
      <trkpt lat="42.38683" lon="2.09102">
        <ele>2123</ele>
        <time>2017-10-15T15:06:45.000Z</time>
      </trkpt>
      <trkpt lat="42.38684" lon="2.09101">
        <ele>2123</ele>
        <time>2017-10-15T15:06:46.000Z</time>
      </trkpt>
      <trkpt lat="42.38685" lon="2.091">
        <ele>2123</ele>
        <time>2017-10-15T15:06:47.000Z</time>
      </trkpt>
      <trkpt lat="42.38686" lon="2.09099">
        <ele>2123</ele>
        <time>2017-10-15T15:06:48.000Z</time>
      </trkpt>
      <trkpt lat="42.38687" lon="2.09098">
        <ele>2123</ele>
        <time>2017-10-15T15:06:49.000Z</time>
      </trkpt>
      <trkpt lat="42.38687" lon="2.09097">
        <ele>2123</ele>
        <time>2017-10-15T15:06:50.000Z</time>
      </trkpt>
      <trkpt lat="42.38688" lon="2.09096">
        <ele>2123</ele>
        <time>2017-10-15T15:06:51.000Z</time>
      </trkpt>
      <trkpt lat="42.38689" lon="2.09095">
        <ele>2122</ele>
        <time>2017-10-15T15:06:52.000Z</time>
      </trkpt>
      <trkpt lat="42.38689" lon="2.09094">
        <ele>2122</ele>
        <time>2017-10-15T15:06:53.000Z</time>
      </trkpt>
      <trkpt lat="42.3869" lon="2.09094">
        <ele>2122</ele>
        <time>2017-10-15T15:06:54.000Z</time>
      </trkpt>
      <trkpt lat="42.3869" lon="2.09093">
        <ele>2122</ele>
        <time>2017-10-15T15:06:55.000Z</time>
      </trkpt>
      <trkpt lat="42.38691" lon="2.09092">
        <ele>2121</ele>
        <time>2017-10-15T15:06:56.000Z</time>
      </trkpt>
      <trkpt lat="42.38692" lon="2.09091">
        <ele>2121</ele>
        <time>2017-10-15T15:06:57.000Z</time>
      </trkpt>
      <trkpt lat="42.38692" lon="2.09091">
        <ele>2121</ele>
        <time>2017-10-15T15:06:58.000Z</time>
      </trkpt>
      <trkpt lat="42.38693" lon="2.0909">
        <ele>2121</ele>
        <time>2017-10-15T15:06:59.000Z</time>
      </trkpt>
      <trkpt lat="42.38693" lon="2.09089">
        <ele>2120</ele>
        <time>2017-10-15T15:07:00.000Z</time>
      </trkpt>
      <trkpt lat="42.38694" lon="2.09088">
        <ele>2120</ele>
        <time>2017-10-15T15:07:01.000Z</time>
      </trkpt>
      <trkpt lat="42.38694" lon="2.09088">
        <ele>2120</ele>
        <time>2017-10-15T15:07:02.000Z</time>
      </trkpt>
      <trkpt lat="42.38695" lon="2.09087">
        <ele>2120</ele>
        <time>2017-10-15T15:07:03.000Z</time>
      </trkpt>
      <trkpt lat="42.38695" lon="2.09086">
        <ele>2119</ele>
        <time>2017-10-15T15:07:04.000Z</time>
      </trkpt>
      <trkpt lat="42.38696" lon="2.09085">
        <ele>2119</ele>
        <time>2017-10-15T15:07:05.000Z</time>
      </trkpt>
      <trkpt lat="42.38697" lon="2.09084">
        <ele>2119</ele>
        <time>2017-10-15T15:07:06.000Z</time>
      </trkpt>
      <trkpt lat="42.38697" lon="2.09083">
        <ele>2119</ele>
        <time>2017-10-15T15:07:07.000Z</time>
      </trkpt>
      <trkpt lat="42.38698" lon="2.09083">
        <ele>2118</ele>
        <time>2017-10-15T15:07:08.000Z</time>
      </trkpt>
      <trkpt lat="42.38698" lon="2.09082">
        <ele>2118</ele>
        <time>2017-10-15T15:07:09.000Z</time>
      </trkpt>
      <trkpt lat="42.38698" lon="2.09081">
        <ele>2118</ele>
        <time>2017-10-15T15:07:10.000Z</time>
      </trkpt>
      <trkpt lat="42.38699" lon="2.0908">
        <ele>2117</ele>
        <time>2017-10-15T15:07:11.000Z</time>
      </trkpt>
      <trkpt lat="42.387" lon="2.09079">
        <ele>2117</ele>
        <time>2017-10-15T15:07:12.000Z</time>
      </trkpt>
      <trkpt lat="42.387" lon="2.09079">
        <ele>2117</ele>
        <time>2017-10-15T15:07:13.000Z</time>
      </trkpt>
      <trkpt lat="42.38701" lon="2.09078">
        <ele>2117</ele>
        <time>2017-10-15T15:07:14.000Z</time>
      </trkpt>
      <trkpt lat="42.38701" lon="2.09077">
        <ele>2117</ele>
        <time>2017-10-15T15:07:15.000Z</time>
      </trkpt>
      <trkpt lat="42.38702" lon="2.09077">
        <ele>2116</ele>
        <time>2017-10-15T15:07:16.000Z</time>
      </trkpt>
      <trkpt lat="42.38703" lon="2.09076">
        <ele>2116</ele>
        <time>2017-10-15T15:07:17.000Z</time>
      </trkpt>
      <trkpt lat="42.38703" lon="2.09075">
        <ele>2116</ele>
        <time>2017-10-15T15:07:18.000Z</time>
      </trkpt>
      <trkpt lat="42.38704" lon="2.09074">
        <ele>2116</ele>
        <time>2017-10-15T15:07:19.000Z</time>
      </trkpt>
      <trkpt lat="42.38704" lon="2.09073">
        <ele>2116</ele>
        <time>2017-10-15T15:07:20.000Z</time>
      </trkpt>
      <trkpt lat="42.38705" lon="2.09073">
        <ele>2116</ele>
        <time>2017-10-15T15:07:21.000Z</time>
      </trkpt>
      <trkpt lat="42.38706" lon="2.09072">
        <ele>2116</ele>
        <time>2017-10-15T15:07:22.000Z</time>
      </trkpt>
      <trkpt lat="42.38707" lon="2.09071">
        <ele>2116</ele>
        <time>2017-10-15T15:07:23.000Z</time>
      </trkpt>
      <trkpt lat="42.38708" lon="2.0907">
        <ele>2116</ele>
        <time>2017-10-15T15:07:24.000Z</time>
      </trkpt>
      <trkpt lat="42.38709" lon="2.09069">
        <ele>2116</ele>
        <time>2017-10-15T15:07:25.000Z</time>
      </trkpt>
      <trkpt lat="42.3871" lon="2.09069">
        <ele>2116</ele>
        <time>2017-10-15T15:07:26.000Z</time>
      </trkpt>
      <trkpt lat="42.38711" lon="2.09068">
        <ele>2116</ele>
        <time>2017-10-15T15:07:27.000Z</time>
      </trkpt>
      <trkpt lat="42.38712" lon="2.09067">
        <ele>2116</ele>
        <time>2017-10-15T15:07:28.000Z</time>
      </trkpt>
      <trkpt lat="42.38713" lon="2.09066">
        <ele>2116</ele>
        <time>2017-10-15T15:07:29.000Z</time>
      </trkpt>
      <trkpt lat="42.38714" lon="2.09065">
        <ele>2116</ele>
        <time>2017-10-15T15:07:30.000Z</time>
      </trkpt>
      <trkpt lat="42.38714" lon="2.09064">
        <ele>2116</ele>
        <time>2017-10-15T15:07:31.000Z</time>
      </trkpt>
      <trkpt lat="42.38715" lon="2.09063">
        <ele>2116</ele>
        <time>2017-10-15T15:07:32.000Z</time>
      </trkpt>
      <trkpt lat="42.38716" lon="2.09062">
        <ele>2116</ele>
        <time>2017-10-15T15:07:33.000Z</time>
      </trkpt>
      <trkpt lat="42.38716" lon="2.09061">
        <ele>2116</ele>
        <time>2017-10-15T15:07:34.000Z</time>
      </trkpt>
      <trkpt lat="42.38717" lon="2.0906">
        <ele>2116</ele>
        <time>2017-10-15T15:07:35.000Z</time>
      </trkpt>
      <trkpt lat="42.38718" lon="2.09059">
        <ele>2116</ele>
        <time>2017-10-15T15:07:36.000Z</time>
      </trkpt>
      <trkpt lat="42.38719" lon="2.09057">
        <ele>2116</ele>
        <time>2017-10-15T15:07:37.000Z</time>
      </trkpt>
      <trkpt lat="42.38719" lon="2.09056">
        <ele>2116</ele>
        <time>2017-10-15T15:07:38.000Z</time>
      </trkpt>
      <trkpt lat="42.3872" lon="2.09055">
        <ele>2116</ele>
        <time>2017-10-15T15:07:39.000Z</time>
      </trkpt>
      <trkpt lat="42.3872" lon="2.09053">
        <ele>2116</ele>
        <time>2017-10-15T15:07:40.000Z</time>
      </trkpt>
      <trkpt lat="42.38721" lon="2.09052">
        <ele>2116</ele>
        <time>2017-10-15T15:07:41.000Z</time>
      </trkpt>
      <trkpt lat="42.38721" lon="2.09051">
        <ele>2116</ele>
        <time>2017-10-15T15:07:42.000Z</time>
      </trkpt>
      <trkpt lat="42.38722" lon="2.0905">
        <ele>2116</ele>
        <time>2017-10-15T15:07:43.000Z</time>
      </trkpt>
      <trkpt lat="42.38722" lon="2.09049">
        <ele>2116</ele>
        <time>2017-10-15T15:07:44.000Z</time>
      </trkpt>
      <trkpt lat="42.38722" lon="2.09048">
        <ele>2116</ele>
        <time>2017-10-15T15:07:45.000Z</time>
      </trkpt>
      <trkpt lat="42.38723" lon="2.09047">
        <ele>2115</ele>
        <time>2017-10-15T15:07:46.000Z</time>
      </trkpt>
      <trkpt lat="42.38723" lon="2.09045">
        <ele>2115</ele>
        <time>2017-10-15T15:07:47.000Z</time>
      </trkpt>
      <trkpt lat="42.38723" lon="2.09045">
        <ele>2115</ele>
        <time>2017-10-15T15:07:48.000Z</time>
      </trkpt>
      <trkpt lat="42.38724" lon="2.09044">
        <ele>2115</ele>
        <time>2017-10-15T15:07:49.000Z</time>
      </trkpt>
      <trkpt lat="42.38724" lon="2.09042">
        <ele>2114</ele>
        <time>2017-10-15T15:07:50.000Z</time>
      </trkpt>
      <trkpt lat="42.38725" lon="2.09041">
        <ele>2114</ele>
        <time>2017-10-15T15:07:51.000Z</time>
      </trkpt>
      <trkpt lat="42.38725" lon="2.0904">
        <ele>2114</ele>
        <time>2017-10-15T15:07:52.000Z</time>
      </trkpt>
      <trkpt lat="42.38725" lon="2.09039">
        <ele>2113</ele>
        <time>2017-10-15T15:07:53.000Z</time>
      </trkpt>
      <trkpt lat="42.38725" lon="2.09038">
        <ele>2113</ele>
        <time>2017-10-15T15:07:54.000Z</time>
      </trkpt>
      <trkpt lat="42.38726" lon="2.09037">
        <ele>2113</ele>
        <time>2017-10-15T15:07:55.000Z</time>
      </trkpt>
      <trkpt lat="42.38726" lon="2.09036">
        <ele>2112</ele>
        <time>2017-10-15T15:07:56.000Z</time>
      </trkpt>
      <trkpt lat="42.38726" lon="2.09034">
        <ele>2112</ele>
        <time>2017-10-15T15:07:57.000Z</time>
      </trkpt>
      <trkpt lat="42.38726" lon="2.09034">
        <ele>2112</ele>
        <time>2017-10-15T15:07:58.000Z</time>
      </trkpt>
      <trkpt lat="42.38727" lon="2.09032">
        <ele>2111</ele>
        <time>2017-10-15T15:07:59.000Z</time>
      </trkpt>
      <trkpt lat="42.38727" lon="2.09031">
        <ele>2111</ele>
        <time>2017-10-15T15:08:00.000Z</time>
      </trkpt>
      <trkpt lat="42.38727" lon="2.09029">
        <ele>2111</ele>
        <time>2017-10-15T15:08:01.000Z</time>
      </trkpt>
      <trkpt lat="42.38728" lon="2.09028">
        <ele>2110</ele>
        <time>2017-10-15T15:08:02.000Z</time>
      </trkpt>
      <trkpt lat="42.38728" lon="2.09026">
        <ele>2110</ele>
        <time>2017-10-15T15:08:03.000Z</time>
      </trkpt>
      <trkpt lat="42.38728" lon="2.09025">
        <ele>2110</ele>
        <time>2017-10-15T15:08:04.000Z</time>
      </trkpt>
      <trkpt lat="42.38729" lon="2.09024">
        <ele>2109</ele>
        <time>2017-10-15T15:08:05.000Z</time>
      </trkpt>
      <trkpt lat="42.38729" lon="2.09023">
        <ele>2109</ele>
        <time>2017-10-15T15:08:06.000Z</time>
      </trkpt>
      <trkpt lat="42.38729" lon="2.09021">
        <ele>2109</ele>
        <time>2017-10-15T15:08:07.000Z</time>
      </trkpt>
      <trkpt lat="42.3873" lon="2.09019">
        <ele>2108</ele>
        <time>2017-10-15T15:08:08.000Z</time>
      </trkpt>
      <trkpt lat="42.3873" lon="2.09018">
        <ele>2108</ele>
        <time>2017-10-15T15:08:09.000Z</time>
      </trkpt>
      <trkpt lat="42.38731" lon="2.09016">
        <ele>2107</ele>
        <time>2017-10-15T15:08:10.000Z</time>
      </trkpt>
      <trkpt lat="42.38732" lon="2.09015">
        <ele>2107</ele>
        <time>2017-10-15T15:08:11.000Z</time>
      </trkpt>
      <trkpt lat="42.38732" lon="2.09013">
        <ele>2106</ele>
        <time>2017-10-15T15:08:12.000Z</time>
      </trkpt>
      <trkpt lat="42.38733" lon="2.09011">
        <ele>2106</ele>
        <time>2017-10-15T15:08:13.000Z</time>
      </trkpt>
      <trkpt lat="42.38734" lon="2.0901">
        <ele>2105</ele>
        <time>2017-10-15T15:08:14.000Z</time>
      </trkpt>
      <trkpt lat="42.38734" lon="2.09009">
        <ele>2105</ele>
        <time>2017-10-15T15:08:15.000Z</time>
      </trkpt>
      <trkpt lat="42.38735" lon="2.09007">
        <ele>2104</ele>
        <time>2017-10-15T15:08:16.000Z</time>
      </trkpt>
      <trkpt lat="42.38736" lon="2.09005">
        <ele>2104</ele>
        <time>2017-10-15T15:08:17.000Z</time>
      </trkpt>
      <trkpt lat="42.38737" lon="2.09003">
        <ele>2103</ele>
        <time>2017-10-15T15:08:18.000Z</time>
      </trkpt>
      <trkpt lat="42.38738" lon="2.09002">
        <ele>2103</ele>
        <time>2017-10-15T15:08:19.000Z</time>
      </trkpt>
      <trkpt lat="42.38739" lon="2.09001">
        <ele>2102</ele>
        <time>2017-10-15T15:08:20.000Z</time>
      </trkpt>
      <trkpt lat="42.38739" lon="2.09">
        <ele>2102</ele>
        <time>2017-10-15T15:08:21.000Z</time>
      </trkpt>
      <trkpt lat="42.3874" lon="2.08998">
        <ele>2101</ele>
        <time>2017-10-15T15:08:22.000Z</time>
      </trkpt>
      <trkpt lat="42.38741" lon="2.08996">
        <ele>2101</ele>
        <time>2017-10-15T15:08:23.000Z</time>
      </trkpt>
      <trkpt lat="42.38743" lon="2.08994">
        <ele>2100</ele>
        <time>2017-10-15T15:08:24.000Z</time>
      </trkpt>
      <trkpt lat="42.38744" lon="2.08993">
        <ele>2100</ele>
        <time>2017-10-15T15:08:25.000Z</time>
      </trkpt>
      <trkpt lat="42.38745" lon="2.08992">
        <ele>2100</ele>
        <time>2017-10-15T15:08:26.000Z</time>
      </trkpt>
      <trkpt lat="42.38745" lon="2.08991">
        <ele>2100</ele>
        <time>2017-10-15T15:08:27.000Z</time>
      </trkpt>
      <trkpt lat="42.38746" lon="2.0899">
        <ele>2100</ele>
        <time>2017-10-15T15:08:28.000Z</time>
      </trkpt>
      <trkpt lat="42.38747" lon="2.08989">
        <ele>2099</ele>
        <time>2017-10-15T15:08:29.000Z</time>
      </trkpt>
      <trkpt lat="42.38747" lon="2.08988">
        <ele>2099</ele>
        <time>2017-10-15T15:08:30.000Z</time>
      </trkpt>
      <trkpt lat="42.38748" lon="2.08986">
        <ele>2098</ele>
        <time>2017-10-15T15:08:31.000Z</time>
      </trkpt>
      <trkpt lat="42.38748" lon="2.08985">
        <ele>2098</ele>
        <time>2017-10-15T15:08:32.000Z</time>
      </trkpt>
      <trkpt lat="42.38749" lon="2.08983">
        <ele>2098</ele>
        <time>2017-10-15T15:08:33.000Z</time>
      </trkpt>
      <trkpt lat="42.3875" lon="2.08982">
        <ele>2098</ele>
        <time>2017-10-15T15:08:34.000Z</time>
      </trkpt>
      <trkpt lat="42.3875" lon="2.08981">
        <ele>2098</ele>
        <time>2017-10-15T15:08:35.000Z</time>
      </trkpt>
      <trkpt lat="42.38751" lon="2.0898">
        <ele>2098</ele>
        <time>2017-10-15T15:08:36.000Z</time>
      </trkpt>
      <trkpt lat="42.38752" lon="2.0898">
        <ele>2098</ele>
        <time>2017-10-15T15:08:37.000Z</time>
      </trkpt>
      <trkpt lat="42.38752" lon="2.08979">
        <ele>2098</ele>
        <time>2017-10-15T15:08:38.000Z</time>
      </trkpt>
      <trkpt lat="42.38753" lon="2.08978">
        <ele>2098</ele>
        <time>2017-10-15T15:08:39.000Z</time>
      </trkpt>
      <trkpt lat="42.38754" lon="2.08977">
        <ele>2098</ele>
        <time>2017-10-15T15:08:40.000Z</time>
      </trkpt>
      <trkpt lat="42.38754" lon="2.08977">
        <ele>2098</ele>
        <time>2017-10-15T15:08:41.000Z</time>
      </trkpt>
      <trkpt lat="42.38755" lon="2.08976">
        <ele>2098</ele>
        <time>2017-10-15T15:08:42.000Z</time>
      </trkpt>
      <trkpt lat="42.38755" lon="2.08975">
        <ele>2098</ele>
        <time>2017-10-15T15:08:43.000Z</time>
      </trkpt>
      <trkpt lat="42.38756" lon="2.08974">
        <ele>2098</ele>
        <time>2017-10-15T15:08:44.000Z</time>
      </trkpt>
      <trkpt lat="42.38757" lon="2.08972">
        <ele>2097</ele>
        <time>2017-10-15T15:08:45.000Z</time>
      </trkpt>
      <trkpt lat="42.38757" lon="2.08971">
        <ele>2097</ele>
        <time>2017-10-15T15:08:46.000Z</time>
      </trkpt>
      <trkpt lat="42.38757" lon="2.0897">
        <ele>2097</ele>
        <time>2017-10-15T15:08:47.000Z</time>
      </trkpt>
      <trkpt lat="42.38758" lon="2.08969">
        <ele>2097</ele>
        <time>2017-10-15T15:08:48.000Z</time>
      </trkpt>
      <trkpt lat="42.38759" lon="2.08968">
        <ele>2097</ele>
        <time>2017-10-15T15:08:49.000Z</time>
      </trkpt>
      <trkpt lat="42.3876" lon="2.08967">
        <ele>2097</ele>
        <time>2017-10-15T15:08:50.000Z</time>
      </trkpt>
      <trkpt lat="42.3876" lon="2.08966">
        <ele>2097</ele>
        <time>2017-10-15T15:08:51.000Z</time>
      </trkpt>
      <trkpt lat="42.38761" lon="2.08965">
        <ele>2097</ele>
        <time>2017-10-15T15:08:52.000Z</time>
      </trkpt>
      <trkpt lat="42.38761" lon="2.08964">
        <ele>2097</ele>
        <time>2017-10-15T15:08:53.000Z</time>
      </trkpt>
      <trkpt lat="42.38762" lon="2.08963">
        <ele>2097</ele>
        <time>2017-10-15T15:08:54.000Z</time>
      </trkpt>
      <trkpt lat="42.38763" lon="2.08962">
        <ele>2097</ele>
        <time>2017-10-15T15:08:55.000Z</time>
      </trkpt>
      <trkpt lat="42.38764" lon="2.08961">
        <ele>2097</ele>
        <time>2017-10-15T15:08:56.000Z</time>
      </trkpt>
      <trkpt lat="42.38765" lon="2.08959">
        <ele>2097</ele>
        <time>2017-10-15T15:08:57.000Z</time>
      </trkpt>
      <trkpt lat="42.38765" lon="2.08958">
        <ele>2097</ele>
        <time>2017-10-15T15:08:58.000Z</time>
      </trkpt>
      <trkpt lat="42.38766" lon="2.08958">
        <ele>2097</ele>
        <time>2017-10-15T15:08:59.000Z</time>
      </trkpt>
      <trkpt lat="42.38767" lon="2.08957">
        <ele>2097</ele>
        <time>2017-10-15T15:09:00.000Z</time>
      </trkpt>
      <trkpt lat="42.38768" lon="2.08956">
        <ele>2097</ele>
        <time>2017-10-15T15:09:01.000Z</time>
      </trkpt>
      <trkpt lat="42.38768" lon="2.08955">
        <ele>2097</ele>
        <time>2017-10-15T15:09:02.000Z</time>
      </trkpt>
      <trkpt lat="42.38769" lon="2.08954">
        <ele>2096</ele>
        <time>2017-10-15T15:09:03.000Z</time>
      </trkpt>
      <trkpt lat="42.38769" lon="2.08953">
        <ele>2096</ele>
        <time>2017-10-15T15:09:04.000Z</time>
      </trkpt>
      <trkpt lat="42.3877" lon="2.08953">
        <ele>2096</ele>
        <time>2017-10-15T15:09:05.000Z</time>
      </trkpt>
      <trkpt lat="42.3877" lon="2.08952">
        <ele>2096</ele>
        <time>2017-10-15T15:09:06.000Z</time>
      </trkpt>
      <trkpt lat="42.38771" lon="2.08951">
        <ele>2096</ele>
        <time>2017-10-15T15:09:07.000Z</time>
      </trkpt>
      <trkpt lat="42.38771" lon="2.0895">
        <ele>2096</ele>
        <time>2017-10-15T15:09:08.000Z</time>
      </trkpt>
      <trkpt lat="42.38772" lon="2.08949">
        <ele>2096</ele>
        <time>2017-10-15T15:09:09.000Z</time>
      </trkpt>
      <trkpt lat="42.38773" lon="2.08949">
        <ele>2096</ele>
        <time>2017-10-15T15:09:10.000Z</time>
      </trkpt>
      <trkpt lat="42.38773" lon="2.08948">
        <ele>2096</ele>
        <time>2017-10-15T15:09:11.000Z</time>
      </trkpt>
      <trkpt lat="42.38774" lon="2.08948">
        <ele>2096</ele>
        <time>2017-10-15T15:09:12.000Z</time>
      </trkpt>
      <trkpt lat="42.38774" lon="2.08947">
        <ele>2096</ele>
        <time>2017-10-15T15:09:13.000Z</time>
      </trkpt>
      <trkpt lat="42.38774" lon="2.08946">
        <ele>2096</ele>
        <time>2017-10-15T15:09:14.000Z</time>
      </trkpt>
      <trkpt lat="42.38774" lon="2.08946">
        <ele>2096</ele>
        <time>2017-10-15T15:09:15.000Z</time>
      </trkpt>
      <trkpt lat="42.38774" lon="2.08945">
        <ele>2096</ele>
        <time>2017-10-15T15:09:16.000Z</time>
      </trkpt>
      <trkpt lat="42.38774" lon="2.08944">
        <ele>2096</ele>
        <time>2017-10-15T15:09:17.000Z</time>
      </trkpt>
      <trkpt lat="42.38774" lon="2.08943">
        <ele>2096</ele>
        <time>2017-10-15T15:09:18.000Z</time>
      </trkpt>
      <trkpt lat="42.38774" lon="2.08942">
        <ele>2096</ele>
        <time>2017-10-15T15:09:19.000Z</time>
      </trkpt>
      <trkpt lat="42.38775" lon="2.08941">
        <ele>2096</ele>
        <time>2017-10-15T15:09:20.000Z</time>
      </trkpt>
      <trkpt lat="42.38775" lon="2.0894">
        <ele>2095</ele>
        <time>2017-10-15T15:09:21.000Z</time>
      </trkpt>
      <trkpt lat="42.38776" lon="2.08938">
        <ele>2095</ele>
        <time>2017-10-15T15:09:22.000Z</time>
      </trkpt>
      <trkpt lat="42.38776" lon="2.08937">
        <ele>2095</ele>
        <time>2017-10-15T15:09:23.000Z</time>
      </trkpt>
      <trkpt lat="42.38777" lon="2.08936">
        <ele>2095</ele>
        <time>2017-10-15T15:09:24.000Z</time>
      </trkpt>
      <trkpt lat="42.38777" lon="2.08935">
        <ele>2094</ele>
        <time>2017-10-15T15:09:25.000Z</time>
      </trkpt>
      <trkpt lat="42.38778" lon="2.08933">
        <ele>2094</ele>
        <time>2017-10-15T15:09:26.000Z</time>
      </trkpt>
      <trkpt lat="42.38779" lon="2.08932">
        <ele>2093</ele>
        <time>2017-10-15T15:09:27.000Z</time>
      </trkpt>
      <trkpt lat="42.38779" lon="2.08931">
        <ele>2093</ele>
        <time>2017-10-15T15:09:28.000Z</time>
      </trkpt>
      <trkpt lat="42.3878" lon="2.0893">
        <ele>2092</ele>
        <time>2017-10-15T15:09:29.000Z</time>
      </trkpt>
      <trkpt lat="42.3878" lon="2.08929">
        <ele>2092</ele>
        <time>2017-10-15T15:09:30.000Z</time>
      </trkpt>
      <trkpt lat="42.38781" lon="2.08928">
        <ele>2091</ele>
        <time>2017-10-15T15:09:31.000Z</time>
      </trkpt>
      <trkpt lat="42.38781" lon="2.08927">
        <ele>2091</ele>
        <time>2017-10-15T15:09:32.000Z</time>
      </trkpt>
      <trkpt lat="42.38782" lon="2.08926">
        <ele>2090</ele>
        <time>2017-10-15T15:09:33.000Z</time>
      </trkpt>
      <trkpt lat="42.38783" lon="2.08924">
        <ele>2090</ele>
        <time>2017-10-15T15:09:34.000Z</time>
      </trkpt>
      <trkpt lat="42.38783" lon="2.08923">
        <ele>2089</ele>
        <time>2017-10-15T15:09:35.000Z</time>
      </trkpt>
      <trkpt lat="42.38784" lon="2.08922">
        <ele>2089</ele>
        <time>2017-10-15T15:09:36.000Z</time>
      </trkpt>
      <trkpt lat="42.38785" lon="2.08921">
        <ele>2088</ele>
        <time>2017-10-15T15:09:37.000Z</time>
      </trkpt>
      <trkpt lat="42.38785" lon="2.0892">
        <ele>2088</ele>
        <time>2017-10-15T15:09:38.000Z</time>
      </trkpt>
      <trkpt lat="42.38787" lon="2.08919">
        <ele>2087</ele>
        <time>2017-10-15T15:09:39.000Z</time>
      </trkpt>
      <trkpt lat="42.38787" lon="2.08917">
        <ele>2086</ele>
        <time>2017-10-15T15:09:40.000Z</time>
      </trkpt>
      <trkpt lat="42.38789" lon="2.08916">
        <ele>2086</ele>
        <time>2017-10-15T15:09:41.000Z</time>
      </trkpt>
      <trkpt lat="42.38789" lon="2.08915">
        <ele>2085</ele>
        <time>2017-10-15T15:09:42.000Z</time>
      </trkpt>
      <trkpt lat="42.3879" lon="2.08915">
        <ele>2085</ele>
        <time>2017-10-15T15:09:43.000Z</time>
      </trkpt>
      <trkpt lat="42.38791" lon="2.08914">
        <ele>2085</ele>
        <time>2017-10-15T15:09:44.000Z</time>
      </trkpt>
      <trkpt lat="42.38792" lon="2.08912">
        <ele>2084</ele>
        <time>2017-10-15T15:09:45.000Z</time>
      </trkpt>
      <trkpt lat="42.38792" lon="2.08911">
        <ele>2084</ele>
        <time>2017-10-15T15:09:46.000Z</time>
      </trkpt>
      <trkpt lat="42.38793" lon="2.08911">
        <ele>2083</ele>
        <time>2017-10-15T15:09:47.000Z</time>
      </trkpt>
      <trkpt lat="42.38793" lon="2.08909">
        <ele>2083</ele>
        <time>2017-10-15T15:09:48.000Z</time>
      </trkpt>
      <trkpt lat="42.38794" lon="2.08909">
        <ele>2083</ele>
        <time>2017-10-15T15:09:49.000Z</time>
      </trkpt>
      <trkpt lat="42.38794" lon="2.08908">
        <ele>2083</ele>
        <time>2017-10-15T15:09:50.000Z</time>
      </trkpt>
      <trkpt lat="42.38794" lon="2.08907">
        <ele>2083</ele>
        <time>2017-10-15T15:09:51.000Z</time>
      </trkpt>
      <trkpt lat="42.38795" lon="2.08907">
        <ele>2083</ele>
        <time>2017-10-15T15:09:52.000Z</time>
      </trkpt>
      <trkpt lat="42.38795" lon="2.08907">
        <ele>2083</ele>
        <time>2017-10-15T15:09:53.000Z</time>
      </trkpt>
      <trkpt lat="42.38795" lon="2.08908">
        <ele>2083</ele>
        <time>2017-10-15T15:09:54.000Z</time>
      </trkpt>
      <trkpt lat="42.38795" lon="2.08908">
        <ele>2083</ele>
        <time>2017-10-15T15:09:55.000Z</time>
      </trkpt>
      <trkpt lat="42.38796" lon="2.08908">
        <ele>2083</ele>
        <time>2017-10-15T15:09:56.000Z</time>
      </trkpt>
      <trkpt lat="42.38796" lon="2.08908">
        <ele>2083</ele>
        <time>2017-10-15T15:09:57.000Z</time>
      </trkpt>
      <trkpt lat="42.38797" lon="2.08908">
        <ele>2083</ele>
        <time>2017-10-15T15:09:58.000Z</time>
      </trkpt>
      <trkpt lat="42.38797" lon="2.08908">
        <ele>2083</ele>
        <time>2017-10-15T15:09:59.000Z</time>
      </trkpt>
      <trkpt lat="42.38796" lon="2.0891">
        <ele>2083</ele>
        <time>2017-10-15T15:10:20.000Z</time>
      </trkpt>
      <trkpt lat="42.38796" lon="2.0891">
        <ele>2083</ele>
        <time>2017-10-15T15:10:21.000Z</time>
      </trkpt>
      <trkpt lat="42.38796" lon="2.0891">
        <ele>2083</ele>
        <time>2017-10-15T15:10:22.000Z</time>
      </trkpt>
      <trkpt lat="42.38797" lon="2.08906">
        <ele>2083</ele>
        <time>2017-10-15T15:10:26.000Z</time>
      </trkpt>
      <trkpt lat="42.38797" lon="2.08904">
        <ele>2083</ele>
        <time>2017-10-15T15:10:27.000Z</time>
      </trkpt>
      <trkpt lat="42.38798" lon="2.08903">
        <ele>2084</ele>
        <time>2017-10-15T15:10:28.000Z</time>
      </trkpt>
      <trkpt lat="42.38798" lon="2.08901">
        <ele>2084</ele>
        <time>2017-10-15T15:10:29.000Z</time>
      </trkpt>
      <trkpt lat="42.38799" lon="2.089">
        <ele>2084</ele>
        <time>2017-10-15T15:10:30.000Z</time>
      </trkpt>
      <trkpt lat="42.388" lon="2.08899">
        <ele>2084</ele>
        <time>2017-10-15T15:10:31.000Z</time>
      </trkpt>
      <trkpt lat="42.38801" lon="2.08898">
        <ele>2084</ele>
        <time>2017-10-15T15:10:32.000Z</time>
      </trkpt>
      <trkpt lat="42.38802" lon="2.08896">
        <ele>2084</ele>
        <time>2017-10-15T15:10:33.000Z</time>
      </trkpt>
      <trkpt lat="42.38803" lon="2.08895">
        <ele>2085</ele>
        <time>2017-10-15T15:10:34.000Z</time>
      </trkpt>
      <trkpt lat="42.38803" lon="2.08894">
        <ele>2085</ele>
        <time>2017-10-15T15:10:35.000Z</time>
      </trkpt>
      <trkpt lat="42.38804" lon="2.08893">
        <ele>2085</ele>
        <time>2017-10-15T15:10:36.000Z</time>
      </trkpt>
      <trkpt lat="42.38805" lon="2.08891">
        <ele>2085</ele>
        <time>2017-10-15T15:10:37.000Z</time>
      </trkpt>
      <trkpt lat="42.38805" lon="2.0889">
        <ele>2085</ele>
        <time>2017-10-15T15:10:38.000Z</time>
      </trkpt>
      <trkpt lat="42.38806" lon="2.08888">
        <ele>2085</ele>
        <time>2017-10-15T15:10:39.000Z</time>
      </trkpt>
      <trkpt lat="42.38806" lon="2.08887">
        <ele>2086</ele>
        <time>2017-10-15T15:10:40.000Z</time>
      </trkpt>
      <trkpt lat="42.38807" lon="2.08886">
        <ele>2086</ele>
        <time>2017-10-15T15:10:41.000Z</time>
      </trkpt>
      <trkpt lat="42.38807" lon="2.08884">
        <ele>2086</ele>
        <time>2017-10-15T15:10:42.000Z</time>
      </trkpt>
      <trkpt lat="42.38808" lon="2.08883">
        <ele>2086</ele>
        <time>2017-10-15T15:10:43.000Z</time>
      </trkpt>
      <trkpt lat="42.38809" lon="2.08882">
        <ele>2085</ele>
        <time>2017-10-15T15:10:44.000Z</time>
      </trkpt>
      <trkpt lat="42.38809" lon="2.08881">
        <ele>2085</ele>
        <time>2017-10-15T15:10:45.000Z</time>
      </trkpt>
      <trkpt lat="42.3881" lon="2.0888">
        <ele>2085</ele>
        <time>2017-10-15T15:10:46.000Z</time>
      </trkpt>
      <trkpt lat="42.3881" lon="2.08879">
        <ele>2085</ele>
        <time>2017-10-15T15:10:47.000Z</time>
      </trkpt>
      <trkpt lat="42.38811" lon="2.08878">
        <ele>2084</ele>
        <time>2017-10-15T15:10:48.000Z</time>
      </trkpt>
      <trkpt lat="42.38812" lon="2.08877">
        <ele>2084</ele>
        <time>2017-10-15T15:10:49.000Z</time>
      </trkpt>
      <trkpt lat="42.38812" lon="2.08876">
        <ele>2084</ele>
        <time>2017-10-15T15:10:50.000Z</time>
      </trkpt>
      <trkpt lat="42.38813" lon="2.08874">
        <ele>2084</ele>
        <time>2017-10-15T15:10:51.000Z</time>
      </trkpt>
      <trkpt lat="42.38814" lon="2.08873">
        <ele>2083</ele>
        <time>2017-10-15T15:10:52.000Z</time>
      </trkpt>
      <trkpt lat="42.38814" lon="2.08872">
        <ele>2083</ele>
        <time>2017-10-15T15:10:53.000Z</time>
      </trkpt>
      <trkpt lat="42.38815" lon="2.08871">
        <ele>2083</ele>
        <time>2017-10-15T15:10:54.000Z</time>
      </trkpt>
      <trkpt lat="42.38816" lon="2.0887">
        <ele>2083</ele>
        <time>2017-10-15T15:10:55.000Z</time>
      </trkpt>
      <trkpt lat="42.38817" lon="2.08869">
        <ele>2082</ele>
        <time>2017-10-15T15:10:56.000Z</time>
      </trkpt>
      <trkpt lat="42.38817" lon="2.08867">
        <ele>2082</ele>
        <time>2017-10-15T15:10:57.000Z</time>
      </trkpt>
      <trkpt lat="42.38818" lon="2.08866">
        <ele>2082</ele>
        <time>2017-10-15T15:10:58.000Z</time>
      </trkpt>
      <trkpt lat="42.38818" lon="2.08865">
        <ele>2082</ele>
        <time>2017-10-15T15:10:59.000Z</time>
      </trkpt>
      <trkpt lat="42.38818" lon="2.08864">
        <ele>2082</ele>
        <time>2017-10-15T15:11:00.000Z</time>
      </trkpt>
      <trkpt lat="42.38818" lon="2.08862">
        <ele>2082</ele>
        <time>2017-10-15T15:11:01.000Z</time>
      </trkpt>
      <trkpt lat="42.38819" lon="2.08861">
        <ele>2082</ele>
        <time>2017-10-15T15:11:02.000Z</time>
      </trkpt>
      <trkpt lat="42.38819" lon="2.08859">
        <ele>2081</ele>
        <time>2017-10-15T15:11:03.000Z</time>
      </trkpt>
      <trkpt lat="42.3882" lon="2.08858">
        <ele>2081</ele>
        <time>2017-10-15T15:11:04.000Z</time>
      </trkpt>
      <trkpt lat="42.38821" lon="2.08858">
        <ele>2081</ele>
        <time>2017-10-15T15:11:05.000Z</time>
      </trkpt>
      <trkpt lat="42.38822" lon="2.08857">
        <ele>2080</ele>
        <time>2017-10-15T15:11:06.000Z</time>
      </trkpt>
      <trkpt lat="42.38823" lon="2.08856">
        <ele>2080</ele>
        <time>2017-10-15T15:11:07.000Z</time>
      </trkpt>
      <trkpt lat="42.38824" lon="2.08855">
        <ele>2080</ele>
        <time>2017-10-15T15:11:08.000Z</time>
      </trkpt>
      <trkpt lat="42.38825" lon="2.08853">
        <ele>2080</ele>
        <time>2017-10-15T15:11:09.000Z</time>
      </trkpt>
      <trkpt lat="42.38825" lon="2.08853">
        <ele>2079</ele>
        <time>2017-10-15T15:11:10.000Z</time>
      </trkpt>
      <trkpt lat="42.38826" lon="2.08851">
        <ele>2079</ele>
        <time>2017-10-15T15:11:11.000Z</time>
      </trkpt>
      <trkpt lat="42.38827" lon="2.0885">
        <ele>2079</ele>
        <time>2017-10-15T15:11:12.000Z</time>
      </trkpt>
      <trkpt lat="42.38827" lon="2.08849">
        <ele>2078</ele>
        <time>2017-10-15T15:11:13.000Z</time>
      </trkpt>
      <trkpt lat="42.38828" lon="2.08848">
        <ele>2078</ele>
        <time>2017-10-15T15:11:14.000Z</time>
      </trkpt>
      <trkpt lat="42.38829" lon="2.08847">
        <ele>2078</ele>
        <time>2017-10-15T15:11:15.000Z</time>
      </trkpt>
      <trkpt lat="42.3883" lon="2.08846">
        <ele>2077</ele>
        <time>2017-10-15T15:11:16.000Z</time>
      </trkpt>
      <trkpt lat="42.38832" lon="2.08844">
        <ele>2077</ele>
        <time>2017-10-15T15:11:17.000Z</time>
      </trkpt>
      <trkpt lat="42.38833" lon="2.08843">
        <ele>2077</ele>
        <time>2017-10-15T15:11:18.000Z</time>
      </trkpt>
      <trkpt lat="42.38834" lon="2.08842">
        <ele>2077</ele>
        <time>2017-10-15T15:11:19.000Z</time>
      </trkpt>
      <trkpt lat="42.38835" lon="2.08841">
        <ele>2077</ele>
        <time>2017-10-15T15:11:20.000Z</time>
      </trkpt>
      <trkpt lat="42.38836" lon="2.08841">
        <ele>2077</ele>
        <time>2017-10-15T15:11:21.000Z</time>
      </trkpt>
      <trkpt lat="42.38837" lon="2.0884">
        <ele>2077</ele>
        <time>2017-10-15T15:11:22.000Z</time>
      </trkpt>
      <trkpt lat="42.38837" lon="2.08839">
        <ele>2077</ele>
        <time>2017-10-15T15:11:23.000Z</time>
      </trkpt>
      <trkpt lat="42.38838" lon="2.08838">
        <ele>2078</ele>
        <time>2017-10-15T15:11:24.000Z</time>
      </trkpt>
      <trkpt lat="42.38839" lon="2.08836">
        <ele>2078</ele>
        <time>2017-10-15T15:11:25.000Z</time>
      </trkpt>
      <trkpt lat="42.3884" lon="2.08835">
        <ele>2078</ele>
        <time>2017-10-15T15:11:26.000Z</time>
      </trkpt>
      <trkpt lat="42.3884" lon="2.08834">
        <ele>2077</ele>
        <time>2017-10-15T15:11:27.000Z</time>
      </trkpt>
      <trkpt lat="42.38841" lon="2.08833">
        <ele>2077</ele>
        <time>2017-10-15T15:11:28.000Z</time>
      </trkpt>
      <trkpt lat="42.38842" lon="2.08832">
        <ele>2076</ele>
        <time>2017-10-15T15:11:29.000Z</time>
      </trkpt>
      <trkpt lat="42.38843" lon="2.08831">
        <ele>2076</ele>
        <time>2017-10-15T15:11:30.000Z</time>
      </trkpt>
      <trkpt lat="42.38843" lon="2.0883">
        <ele>2075</ele>
        <time>2017-10-15T15:11:31.000Z</time>
      </trkpt>
      <trkpt lat="42.38844" lon="2.08829">
        <ele>2074</ele>
        <time>2017-10-15T15:11:32.000Z</time>
      </trkpt>
      <trkpt lat="42.38845" lon="2.08828">
        <ele>2074</ele>
        <time>2017-10-15T15:11:33.000Z</time>
      </trkpt>
      <trkpt lat="42.38846" lon="2.08827">
        <ele>2073</ele>
        <time>2017-10-15T15:11:34.000Z</time>
      </trkpt>
      <trkpt lat="42.38847" lon="2.08826">
        <ele>2073</ele>
        <time>2017-10-15T15:11:35.000Z</time>
      </trkpt>
      <trkpt lat="42.38847" lon="2.08825">
        <ele>2073</ele>
        <time>2017-10-15T15:11:36.000Z</time>
      </trkpt>
      <trkpt lat="42.38848" lon="2.08824">
        <ele>2073</ele>
        <time>2017-10-15T15:11:37.000Z</time>
      </trkpt>
      <trkpt lat="42.38849" lon="2.08823">
        <ele>2073</ele>
        <time>2017-10-15T15:11:38.000Z</time>
      </trkpt>
      <trkpt lat="42.38849" lon="2.08822">
        <ele>2073</ele>
        <time>2017-10-15T15:11:39.000Z</time>
      </trkpt>
      <trkpt lat="42.3885" lon="2.08821">
        <ele>2073</ele>
        <time>2017-10-15T15:11:40.000Z</time>
      </trkpt>
      <trkpt lat="42.3885" lon="2.0882">
        <ele>2073</ele>
        <time>2017-10-15T15:11:41.000Z</time>
      </trkpt>
      <trkpt lat="42.38851" lon="2.08819">
        <ele>2073</ele>
        <time>2017-10-15T15:11:42.000Z</time>
      </trkpt>
      <trkpt lat="42.38852" lon="2.08818">
        <ele>2073</ele>
        <time>2017-10-15T15:11:43.000Z</time>
      </trkpt>
      <trkpt lat="42.38853" lon="2.08817">
        <ele>2073</ele>
        <time>2017-10-15T15:11:44.000Z</time>
      </trkpt>
      <trkpt lat="42.38853" lon="2.08816">
        <ele>2073</ele>
        <time>2017-10-15T15:11:45.000Z</time>
      </trkpt>
      <trkpt lat="42.38854" lon="2.08816">
        <ele>2073</ele>
        <time>2017-10-15T15:11:46.000Z</time>
      </trkpt>
      <trkpt lat="42.38854" lon="2.08815">
        <ele>2073</ele>
        <time>2017-10-15T15:11:47.000Z</time>
      </trkpt>
      <trkpt lat="42.38855" lon="2.08815">
        <ele>2073</ele>
        <time>2017-10-15T15:11:48.000Z</time>
      </trkpt>
      <trkpt lat="42.38856" lon="2.08814">
        <ele>2073</ele>
        <time>2017-10-15T15:11:49.000Z</time>
      </trkpt>
      <trkpt lat="42.38857" lon="2.08813">
        <ele>2073</ele>
        <time>2017-10-15T15:11:50.000Z</time>
      </trkpt>
      <trkpt lat="42.38857" lon="2.08813">
        <ele>2073</ele>
        <time>2017-10-15T15:11:51.000Z</time>
      </trkpt>
      <trkpt lat="42.38858" lon="2.08811">
        <ele>2073</ele>
        <time>2017-10-15T15:11:52.000Z</time>
      </trkpt>
      <trkpt lat="42.3886" lon="2.0881">
        <ele>2073</ele>
        <time>2017-10-15T15:11:53.000Z</time>
      </trkpt>
      <trkpt lat="42.3886" lon="2.08809">
        <ele>2073</ele>
        <time>2017-10-15T15:11:54.000Z</time>
      </trkpt>
      <trkpt lat="42.38861" lon="2.08809">
        <ele>2073</ele>
        <time>2017-10-15T15:11:55.000Z</time>
      </trkpt>
      <trkpt lat="42.38862" lon="2.08809">
        <ele>2073</ele>
        <time>2017-10-15T15:11:56.000Z</time>
      </trkpt>
      <trkpt lat="42.38863" lon="2.08807">
        <ele>2073</ele>
        <time>2017-10-15T15:11:57.000Z</time>
      </trkpt>
      <trkpt lat="42.38864" lon="2.08806">
        <ele>2073</ele>
        <time>2017-10-15T15:11:58.000Z</time>
      </trkpt>
      <trkpt lat="42.38865" lon="2.08805">
        <ele>2073</ele>
        <time>2017-10-15T15:11:59.000Z</time>
      </trkpt>
      <trkpt lat="42.38866" lon="2.08804">
        <ele>2073</ele>
        <time>2017-10-15T15:12:00.000Z</time>
      </trkpt>
      <trkpt lat="42.38867" lon="2.08803">
        <ele>2073</ele>
        <time>2017-10-15T15:12:01.000Z</time>
      </trkpt>
      <trkpt lat="42.38868" lon="2.08802">
        <ele>2073</ele>
        <time>2017-10-15T15:12:02.000Z</time>
      </trkpt>
      <trkpt lat="42.38869" lon="2.08801">
        <ele>2073</ele>
        <time>2017-10-15T15:12:03.000Z</time>
      </trkpt>
      <trkpt lat="42.3887" lon="2.088">
        <ele>2073</ele>
        <time>2017-10-15T15:12:04.000Z</time>
      </trkpt>
      <trkpt lat="42.38871" lon="2.08798">
        <ele>2073</ele>
        <time>2017-10-15T15:12:05.000Z</time>
      </trkpt>
      <trkpt lat="42.38871" lon="2.08797">
        <ele>2073</ele>
        <time>2017-10-15T15:12:06.000Z</time>
      </trkpt>
      <trkpt lat="42.38872" lon="2.08796">
        <ele>2073</ele>
        <time>2017-10-15T15:12:07.000Z</time>
      </trkpt>
      <trkpt lat="42.38873" lon="2.08795">
        <ele>2073</ele>
        <time>2017-10-15T15:12:08.000Z</time>
      </trkpt>
      <trkpt lat="42.38874" lon="2.08794">
        <ele>2073</ele>
        <time>2017-10-15T15:12:09.000Z</time>
      </trkpt>
      <trkpt lat="42.38875" lon="2.08793">
        <ele>2073</ele>
        <time>2017-10-15T15:12:10.000Z</time>
      </trkpt>
      <trkpt lat="42.38876" lon="2.08791">
        <ele>2073</ele>
        <time>2017-10-15T15:12:11.000Z</time>
      </trkpt>
      <trkpt lat="42.38877" lon="2.0879">
        <ele>2073</ele>
        <time>2017-10-15T15:12:12.000Z</time>
      </trkpt>
      <trkpt lat="42.38877" lon="2.08789">
        <ele>2073</ele>
        <time>2017-10-15T15:12:13.000Z</time>
      </trkpt>
      <trkpt lat="42.38878" lon="2.08789">
        <ele>2072</ele>
        <time>2017-10-15T15:12:14.000Z</time>
      </trkpt>
      <trkpt lat="42.38879" lon="2.08788">
        <ele>2072</ele>
        <time>2017-10-15T15:12:15.000Z</time>
      </trkpt>
      <trkpt lat="42.3888" lon="2.08787">
        <ele>2072</ele>
        <time>2017-10-15T15:12:16.000Z</time>
      </trkpt>
      <trkpt lat="42.38881" lon="2.08787">
        <ele>2072</ele>
        <time>2017-10-15T15:12:17.000Z</time>
      </trkpt>
      <trkpt lat="42.38881" lon="2.08786">
        <ele>2071</ele>
        <time>2017-10-15T15:12:18.000Z</time>
      </trkpt>
      <trkpt lat="42.38881" lon="2.08784">
        <ele>2071</ele>
        <time>2017-10-15T15:12:19.000Z</time>
      </trkpt>
      <trkpt lat="42.38882" lon="2.08783">
        <ele>2071</ele>
        <time>2017-10-15T15:12:20.000Z</time>
      </trkpt>
      <trkpt lat="42.38882" lon="2.08781">
        <ele>2071</ele>
        <time>2017-10-15T15:12:21.000Z</time>
      </trkpt>
      <trkpt lat="42.38883" lon="2.0878">
        <ele>2071</ele>
        <time>2017-10-15T15:12:22.000Z</time>
      </trkpt>
      <trkpt lat="42.38884" lon="2.08779">
        <ele>2071</ele>
        <time>2017-10-15T15:12:23.000Z</time>
      </trkpt>
      <trkpt lat="42.38884" lon="2.08777">
        <ele>2070</ele>
        <time>2017-10-15T15:12:24.000Z</time>
      </trkpt>
      <trkpt lat="42.38885" lon="2.08776">
        <ele>2070</ele>
        <time>2017-10-15T15:12:25.000Z</time>
      </trkpt>
      <trkpt lat="42.38886" lon="2.08775">
        <ele>2070</ele>
        <time>2017-10-15T15:12:26.000Z</time>
      </trkpt>
      <trkpt lat="42.38886" lon="2.08774">
        <ele>2070</ele>
        <time>2017-10-15T15:12:27.000Z</time>
      </trkpt>
      <trkpt lat="42.38887" lon="2.08773">
        <ele>2069</ele>
        <time>2017-10-15T15:12:28.000Z</time>
      </trkpt>
      <trkpt lat="42.38887" lon="2.08772">
        <ele>2069</ele>
        <time>2017-10-15T15:12:29.000Z</time>
      </trkpt>
      <trkpt lat="42.38888" lon="2.08771">
        <ele>2069</ele>
        <time>2017-10-15T15:12:30.000Z</time>
      </trkpt>
      <trkpt lat="42.38889" lon="2.08769">
        <ele>2069</ele>
        <time>2017-10-15T15:12:31.000Z</time>
      </trkpt>
      <trkpt lat="42.3889" lon="2.08768">
        <ele>2068</ele>
        <time>2017-10-15T15:12:32.000Z</time>
      </trkpt>
      <trkpt lat="42.3889" lon="2.08767">
        <ele>2068</ele>
        <time>2017-10-15T15:12:33.000Z</time>
      </trkpt>
      <trkpt lat="42.38891" lon="2.08766">
        <ele>2068</ele>
        <time>2017-10-15T15:12:34.000Z</time>
      </trkpt>
      <trkpt lat="42.38892" lon="2.08764">
        <ele>2068</ele>
        <time>2017-10-15T15:12:35.000Z</time>
      </trkpt>
      <trkpt lat="42.38893" lon="2.08763">
        <ele>2067</ele>
        <time>2017-10-15T15:12:36.000Z</time>
      </trkpt>
      <trkpt lat="42.38893" lon="2.08762">
        <ele>2067</ele>
        <time>2017-10-15T15:12:37.000Z</time>
      </trkpt>
      <trkpt lat="42.38895" lon="2.08761">
        <ele>2066</ele>
        <time>2017-10-15T15:12:38.000Z</time>
      </trkpt>
      <trkpt lat="42.38896" lon="2.08759">
        <ele>2066</ele>
        <time>2017-10-15T15:12:39.000Z</time>
      </trkpt>
      <trkpt lat="42.38897" lon="2.08759">
        <ele>2065</ele>
        <time>2017-10-15T15:12:40.000Z</time>
      </trkpt>
      <trkpt lat="42.38898" lon="2.08758">
        <ele>2065</ele>
        <time>2017-10-15T15:12:41.000Z</time>
      </trkpt>
      <trkpt lat="42.38897" lon="2.08757">
        <ele>2065</ele>
        <time>2017-10-15T15:12:42.000Z</time>
      </trkpt>
      <trkpt lat="42.38898" lon="2.08756">
        <ele>2065</ele>
        <time>2017-10-15T15:12:43.000Z</time>
      </trkpt>
      <trkpt lat="42.38899" lon="2.08754">
        <ele>2065</ele>
        <time>2017-10-15T15:12:44.000Z</time>
      </trkpt>
      <trkpt lat="42.38899" lon="2.08753">
        <ele>2065</ele>
        <time>2017-10-15T15:12:45.000Z</time>
      </trkpt>
      <trkpt lat="42.389" lon="2.08752">
        <ele>2064</ele>
        <time>2017-10-15T15:12:46.000Z</time>
      </trkpt>
      <trkpt lat="42.38901" lon="2.0875">
        <ele>2064</ele>
        <time>2017-10-15T15:12:47.000Z</time>
      </trkpt>
      <trkpt lat="42.38902" lon="2.08749">
        <ele>2064</ele>
        <time>2017-10-15T15:12:48.000Z</time>
      </trkpt>
      <trkpt lat="42.38902" lon="2.08747">
        <ele>2064</ele>
        <time>2017-10-15T15:12:49.000Z</time>
      </trkpt>
      <trkpt lat="42.38903" lon="2.08746">
        <ele>2063</ele>
        <time>2017-10-15T15:12:50.000Z</time>
      </trkpt>
      <trkpt lat="42.38903" lon="2.08745">
        <ele>2063</ele>
        <time>2017-10-15T15:12:51.000Z</time>
      </trkpt>
      <trkpt lat="42.38904" lon="2.08744">
        <ele>2063</ele>
        <time>2017-10-15T15:12:52.000Z</time>
      </trkpt>
      <trkpt lat="42.38905" lon="2.08743">
        <ele>2063</ele>
        <time>2017-10-15T15:12:53.000Z</time>
      </trkpt>
      <trkpt lat="42.38906" lon="2.08741">
        <ele>2063</ele>
        <time>2017-10-15T15:12:54.000Z</time>
      </trkpt>
      <trkpt lat="42.38906" lon="2.0874">
        <ele>2063</ele>
        <time>2017-10-15T15:12:55.000Z</time>
      </trkpt>
      <trkpt lat="42.38907" lon="2.08738">
        <ele>2063</ele>
        <time>2017-10-15T15:12:56.000Z</time>
      </trkpt>
      <trkpt lat="42.38908" lon="2.08737">
        <ele>2063</ele>
        <time>2017-10-15T15:12:57.000Z</time>
      </trkpt>
      <trkpt lat="42.38909" lon="2.08736">
        <ele>2062</ele>
        <time>2017-10-15T15:12:58.000Z</time>
      </trkpt>
      <trkpt lat="42.3891" lon="2.08735">
        <ele>2062</ele>
        <time>2017-10-15T15:12:59.000Z</time>
      </trkpt>
      <trkpt lat="42.38911" lon="2.08734">
        <ele>2062</ele>
        <time>2017-10-15T15:13:00.000Z</time>
      </trkpt>
      <trkpt lat="42.38912" lon="2.08732">
        <ele>2062</ele>
        <time>2017-10-15T15:13:01.000Z</time>
      </trkpt>
      <trkpt lat="42.38913" lon="2.08731">
        <ele>2062</ele>
        <time>2017-10-15T15:13:02.000Z</time>
      </trkpt>
      <trkpt lat="42.38913" lon="2.0873">
        <ele>2062</ele>
        <time>2017-10-15T15:13:03.000Z</time>
      </trkpt>
      <trkpt lat="42.38914" lon="2.08729">
        <ele>2062</ele>
        <time>2017-10-15T15:13:04.000Z</time>
      </trkpt>
      <trkpt lat="42.38915" lon="2.08728">
        <ele>2061</ele>
        <time>2017-10-15T15:13:05.000Z</time>
      </trkpt>
      <trkpt lat="42.38916" lon="2.08727">
        <ele>2061</ele>
        <time>2017-10-15T15:13:06.000Z</time>
      </trkpt>
      <trkpt lat="42.38918" lon="2.08725">
        <ele>2061</ele>
        <time>2017-10-15T15:13:07.000Z</time>
      </trkpt>
      <trkpt lat="42.38918" lon="2.08724">
        <ele>2062</ele>
        <time>2017-10-15T15:13:08.000Z</time>
      </trkpt>
      <trkpt lat="42.38919" lon="2.08723">
        <ele>2062</ele>
        <time>2017-10-15T15:13:09.000Z</time>
      </trkpt>
      <trkpt lat="42.3892" lon="2.08721">
        <ele>2062</ele>
        <time>2017-10-15T15:13:10.000Z</time>
      </trkpt>
      <trkpt lat="42.38921" lon="2.0872">
        <ele>2062</ele>
        <time>2017-10-15T15:13:11.000Z</time>
      </trkpt>
      <trkpt lat="42.38921" lon="2.08719">
        <ele>2062</ele>
        <time>2017-10-15T15:13:12.000Z</time>
      </trkpt>
      <trkpt lat="42.38921" lon="2.08717">
        <ele>2062</ele>
        <time>2017-10-15T15:13:13.000Z</time>
      </trkpt>
      <trkpt lat="42.38922" lon="2.08716">
        <ele>2062</ele>
        <time>2017-10-15T15:13:14.000Z</time>
      </trkpt>
      <trkpt lat="42.38923" lon="2.08714">
        <ele>2062</ele>
        <time>2017-10-15T15:13:15.000Z</time>
      </trkpt>
      <trkpt lat="42.38923" lon="2.08713">
        <ele>2062</ele>
        <time>2017-10-15T15:13:16.000Z</time>
      </trkpt>
      <trkpt lat="42.38924" lon="2.08712">
        <ele>2062</ele>
        <time>2017-10-15T15:13:17.000Z</time>
      </trkpt>
      <trkpt lat="42.38925" lon="2.0871">
        <ele>2062</ele>
        <time>2017-10-15T15:13:18.000Z</time>
      </trkpt>
      <trkpt lat="42.38926" lon="2.08709">
        <ele>2062</ele>
        <time>2017-10-15T15:13:19.000Z</time>
      </trkpt>
      <trkpt lat="42.38927" lon="2.08707">
        <ele>2062</ele>
        <time>2017-10-15T15:13:20.000Z</time>
      </trkpt>
      <trkpt lat="42.38928" lon="2.08706">
        <ele>2062</ele>
        <time>2017-10-15T15:13:21.000Z</time>
      </trkpt>
      <trkpt lat="42.38929" lon="2.08705">
        <ele>2062</ele>
        <time>2017-10-15T15:13:22.000Z</time>
      </trkpt>
      <trkpt lat="42.3893" lon="2.08704">
        <ele>2062</ele>
        <time>2017-10-15T15:13:23.000Z</time>
      </trkpt>
      <trkpt lat="42.3893" lon="2.08703">
        <ele>2062</ele>
        <time>2017-10-15T15:13:24.000Z</time>
      </trkpt>
      <trkpt lat="42.38931" lon="2.08701">
        <ele>2062</ele>
        <time>2017-10-15T15:13:25.000Z</time>
      </trkpt>
      <trkpt lat="42.38932" lon="2.087">
        <ele>2063</ele>
        <time>2017-10-15T15:13:26.000Z</time>
      </trkpt>
      <trkpt lat="42.38932" lon="2.08699">
        <ele>2062</ele>
        <time>2017-10-15T15:13:27.000Z</time>
      </trkpt>
      <trkpt lat="42.38933" lon="2.08698">
        <ele>2062</ele>
        <time>2017-10-15T15:13:28.000Z</time>
      </trkpt>
      <trkpt lat="42.38934" lon="2.08698">
        <ele>2062</ele>
        <time>2017-10-15T15:13:29.000Z</time>
      </trkpt>
      <trkpt lat="42.38935" lon="2.08696">
        <ele>2062</ele>
        <time>2017-10-15T15:13:30.000Z</time>
      </trkpt>
      <trkpt lat="42.38935" lon="2.08695">
        <ele>2063</ele>
        <time>2017-10-15T15:13:31.000Z</time>
      </trkpt>
      <trkpt lat="42.38936" lon="2.08694">
        <ele>2063</ele>
        <time>2017-10-15T15:13:32.000Z</time>
      </trkpt>
      <trkpt lat="42.38936" lon="2.08693">
        <ele>2063</ele>
        <time>2017-10-15T15:13:33.000Z</time>
      </trkpt>
      <trkpt lat="42.38937" lon="2.08692">
        <ele>2063</ele>
        <time>2017-10-15T15:13:34.000Z</time>
      </trkpt>
      <trkpt lat="42.38937" lon="2.08691">
        <ele>2063</ele>
        <time>2017-10-15T15:13:35.000Z</time>
      </trkpt>
      <trkpt lat="42.38938" lon="2.08689">
        <ele>2063</ele>
        <time>2017-10-15T15:13:36.000Z</time>
      </trkpt>
      <trkpt lat="42.38938" lon="2.08688">
        <ele>2063</ele>
        <time>2017-10-15T15:13:37.000Z</time>
      </trkpt>
      <trkpt lat="42.38939" lon="2.08687">
        <ele>2063</ele>
        <time>2017-10-15T15:13:38.000Z</time>
      </trkpt>
      <trkpt lat="42.38939" lon="2.08686">
        <ele>2063</ele>
        <time>2017-10-15T15:13:39.000Z</time>
      </trkpt>
      <trkpt lat="42.3894" lon="2.08685">
        <ele>2063</ele>
        <time>2017-10-15T15:13:40.000Z</time>
      </trkpt>
      <trkpt lat="42.38941" lon="2.08683">
        <ele>2063</ele>
        <time>2017-10-15T15:13:41.000Z</time>
      </trkpt>
      <trkpt lat="42.38942" lon="2.08682">
        <ele>2062</ele>
        <time>2017-10-15T15:13:42.000Z</time>
      </trkpt>
      <trkpt lat="42.38942" lon="2.08681">
        <ele>2062</ele>
        <time>2017-10-15T15:13:43.000Z</time>
      </trkpt>
      <trkpt lat="42.38943" lon="2.0868">
        <ele>2062</ele>
        <time>2017-10-15T15:13:44.000Z</time>
      </trkpt>
      <trkpt lat="42.38944" lon="2.08679">
        <ele>2061</ele>
        <time>2017-10-15T15:13:45.000Z</time>
      </trkpt>
      <trkpt lat="42.38944" lon="2.08677">
        <ele>2061</ele>
        <time>2017-10-15T15:13:46.000Z</time>
      </trkpt>
      <trkpt lat="42.38945" lon="2.08676">
        <ele>2060</ele>
        <time>2017-10-15T15:13:47.000Z</time>
      </trkpt>
      <trkpt lat="42.38946" lon="2.08675">
        <ele>2060</ele>
        <time>2017-10-15T15:13:48.000Z</time>
      </trkpt>
      <trkpt lat="42.38946" lon="2.08674">
        <ele>2060</ele>
        <time>2017-10-15T15:13:49.000Z</time>
      </trkpt>
      <trkpt lat="42.38947" lon="2.08673">
        <ele>2059</ele>
        <time>2017-10-15T15:13:50.000Z</time>
      </trkpt>
      <trkpt lat="42.38948" lon="2.08671">
        <ele>2059</ele>
        <time>2017-10-15T15:13:51.000Z</time>
      </trkpt>
      <trkpt lat="42.38948" lon="2.0867">
        <ele>2059</ele>
        <time>2017-10-15T15:13:52.000Z</time>
      </trkpt>
      <trkpt lat="42.38949" lon="2.08669">
        <ele>2059</ele>
        <time>2017-10-15T15:13:53.000Z</time>
      </trkpt>
      <trkpt lat="42.38949" lon="2.08667">
        <ele>2058</ele>
        <time>2017-10-15T15:13:54.000Z</time>
      </trkpt>
      <trkpt lat="42.3895" lon="2.08666">
        <ele>2058</ele>
        <time>2017-10-15T15:13:55.000Z</time>
      </trkpt>
      <trkpt lat="42.38951" lon="2.08665">
        <ele>2057</ele>
        <time>2017-10-15T15:13:56.000Z</time>
      </trkpt>
      <trkpt lat="42.38952" lon="2.08664">
        <ele>2057</ele>
        <time>2017-10-15T15:13:57.000Z</time>
      </trkpt>
      <trkpt lat="42.38953" lon="2.08663">
        <ele>2056</ele>
        <time>2017-10-15T15:13:58.000Z</time>
      </trkpt>
      <trkpt lat="42.38953" lon="2.08662">
        <ele>2056</ele>
        <time>2017-10-15T15:13:59.000Z</time>
      </trkpt>
      <trkpt lat="42.38954" lon="2.08661">
        <ele>2055</ele>
        <time>2017-10-15T15:14:00.000Z</time>
      </trkpt>
      <trkpt lat="42.38956" lon="2.0866">
        <ele>2055</ele>
        <time>2017-10-15T15:14:01.000Z</time>
      </trkpt>
      <trkpt lat="42.38956" lon="2.08658">
        <ele>2055</ele>
        <time>2017-10-15T15:14:02.000Z</time>
      </trkpt>
      <trkpt lat="42.38957" lon="2.08657">
        <ele>2055</ele>
        <time>2017-10-15T15:14:03.000Z</time>
      </trkpt>
      <trkpt lat="42.38957" lon="2.08655">
        <ele>2055</ele>
        <time>2017-10-15T15:14:04.000Z</time>
      </trkpt>
      <trkpt lat="42.38958" lon="2.08654">
        <ele>2055</ele>
        <time>2017-10-15T15:14:05.000Z</time>
      </trkpt>
      <trkpt lat="42.38959" lon="2.08652">
        <ele>2054</ele>
        <time>2017-10-15T15:14:06.000Z</time>
      </trkpt>
      <trkpt lat="42.3896" lon="2.08651">
        <ele>2054</ele>
        <time>2017-10-15T15:14:07.000Z</time>
      </trkpt>
      <trkpt lat="42.3896" lon="2.0865">
        <ele>2054</ele>
        <time>2017-10-15T15:14:08.000Z</time>
      </trkpt>
      <trkpt lat="42.38961" lon="2.08648">
        <ele>2054</ele>
        <time>2017-10-15T15:14:09.000Z</time>
      </trkpt>
      <trkpt lat="42.38962" lon="2.08647">
        <ele>2054</ele>
        <time>2017-10-15T15:14:10.000Z</time>
      </trkpt>
      <trkpt lat="42.38963" lon="2.08645">
        <ele>2054</ele>
        <time>2017-10-15T15:14:11.000Z</time>
      </trkpt>
      <trkpt lat="42.38963" lon="2.08644">
        <ele>2054</ele>
        <time>2017-10-15T15:14:12.000Z</time>
      </trkpt>
      <trkpt lat="42.38964" lon="2.08643">
        <ele>2054</ele>
        <time>2017-10-15T15:14:13.000Z</time>
      </trkpt>
      <trkpt lat="42.38964" lon="2.08642">
        <ele>2054</ele>
        <time>2017-10-15T15:14:14.000Z</time>
      </trkpt>
      <trkpt lat="42.38966" lon="2.0864">
        <ele>2054</ele>
        <time>2017-10-15T15:14:15.000Z</time>
      </trkpt>
      <trkpt lat="42.38967" lon="2.08638">
        <ele>2054</ele>
        <time>2017-10-15T15:14:16.000Z</time>
      </trkpt>
      <trkpt lat="42.38967" lon="2.08637">
        <ele>2054</ele>
        <time>2017-10-15T15:14:17.000Z</time>
      </trkpt>
      <trkpt lat="42.38968" lon="2.08636">
        <ele>2053</ele>
        <time>2017-10-15T15:14:18.000Z</time>
      </trkpt>
      <trkpt lat="42.38969" lon="2.08635">
        <ele>2053</ele>
        <time>2017-10-15T15:14:19.000Z</time>
      </trkpt>
      <trkpt lat="42.3897" lon="2.08634">
        <ele>2053</ele>
        <time>2017-10-15T15:14:20.000Z</time>
      </trkpt>
      <trkpt lat="42.38971" lon="2.08633">
        <ele>2053</ele>
        <time>2017-10-15T15:14:21.000Z</time>
      </trkpt>
      <trkpt lat="42.38971" lon="2.08632">
        <ele>2053</ele>
        <time>2017-10-15T15:14:22.000Z</time>
      </trkpt>
      <trkpt lat="42.38971" lon="2.0863">
        <ele>2053</ele>
        <time>2017-10-15T15:14:23.000Z</time>
      </trkpt>
      <trkpt lat="42.38972" lon="2.0863">
        <ele>2052</ele>
        <time>2017-10-15T15:14:24.000Z</time>
      </trkpt>
      <trkpt lat="42.38973" lon="2.08628">
        <ele>2052</ele>
        <time>2017-10-15T15:14:25.000Z</time>
      </trkpt>
      <trkpt lat="42.38974" lon="2.08627">
        <ele>2051</ele>
        <time>2017-10-15T15:14:26.000Z</time>
      </trkpt>
      <trkpt lat="42.38975" lon="2.08625">
        <ele>2051</ele>
        <time>2017-10-15T15:14:27.000Z</time>
      </trkpt>
      <trkpt lat="42.38976" lon="2.08624">
        <ele>2051</ele>
        <time>2017-10-15T15:14:28.000Z</time>
      </trkpt>
      <trkpt lat="42.38977" lon="2.08622">
        <ele>2051</ele>
        <time>2017-10-15T15:14:29.000Z</time>
      </trkpt>
      <trkpt lat="42.38977" lon="2.08621">
        <ele>2051</ele>
        <time>2017-10-15T15:14:30.000Z</time>
      </trkpt>
      <trkpt lat="42.38978" lon="2.08619">
        <ele>2051</ele>
        <time>2017-10-15T15:14:31.000Z</time>
      </trkpt>
      <trkpt lat="42.38978" lon="2.08618">
        <ele>2050</ele>
        <time>2017-10-15T15:14:32.000Z</time>
      </trkpt>
      <trkpt lat="42.38979" lon="2.08617">
        <ele>2050</ele>
        <time>2017-10-15T15:14:33.000Z</time>
      </trkpt>
      <trkpt lat="42.38979" lon="2.08616">
        <ele>2050</ele>
        <time>2017-10-15T15:14:34.000Z</time>
      </trkpt>
      <trkpt lat="42.3898" lon="2.08614">
        <ele>2050</ele>
        <time>2017-10-15T15:14:35.000Z</time>
      </trkpt>
      <trkpt lat="42.38981" lon="2.08613">
        <ele>2050</ele>
        <time>2017-10-15T15:14:36.000Z</time>
      </trkpt>
      <trkpt lat="42.38982" lon="2.08612">
        <ele>2049</ele>
        <time>2017-10-15T15:14:37.000Z</time>
      </trkpt>
      <trkpt lat="42.38983" lon="2.0861">
        <ele>2049</ele>
        <time>2017-10-15T15:14:38.000Z</time>
      </trkpt>
      <trkpt lat="42.38984" lon="2.08609">
        <ele>2049</ele>
        <time>2017-10-15T15:14:39.000Z</time>
      </trkpt>
      <trkpt lat="42.38984" lon="2.08607">
        <ele>2048</ele>
        <time>2017-10-15T15:14:40.000Z</time>
      </trkpt>
      <trkpt lat="42.38985" lon="2.08606">
        <ele>2048</ele>
        <time>2017-10-15T15:14:41.000Z</time>
      </trkpt>
      <trkpt lat="42.38986" lon="2.08605">
        <ele>2048</ele>
        <time>2017-10-15T15:14:42.000Z</time>
      </trkpt>
      <trkpt lat="42.38986" lon="2.08604">
        <ele>2048</ele>
        <time>2017-10-15T15:14:43.000Z</time>
      </trkpt>
      <trkpt lat="42.38986" lon="2.08602">
        <ele>2048</ele>
        <time>2017-10-15T15:14:44.000Z</time>
      </trkpt>
      <trkpt lat="42.38987" lon="2.086">
        <ele>2048</ele>
        <time>2017-10-15T15:14:45.000Z</time>
      </trkpt>
      <trkpt lat="42.38987" lon="2.08599">
        <ele>2048</ele>
        <time>2017-10-15T15:14:46.000Z</time>
      </trkpt>
      <trkpt lat="42.38988" lon="2.08598">
        <ele>2048</ele>
        <time>2017-10-15T15:14:47.000Z</time>
      </trkpt>
      <trkpt lat="42.38989" lon="2.08596">
        <ele>2048</ele>
        <time>2017-10-15T15:14:48.000Z</time>
      </trkpt>
      <trkpt lat="42.38989" lon="2.08595">
        <ele>2047</ele>
        <time>2017-10-15T15:14:49.000Z</time>
      </trkpt>
      <trkpt lat="42.3899" lon="2.08594">
        <ele>2047</ele>
        <time>2017-10-15T15:14:50.000Z</time>
      </trkpt>
      <trkpt lat="42.3899" lon="2.08592">
        <ele>2048</ele>
        <time>2017-10-15T15:14:51.000Z</time>
      </trkpt>
      <trkpt lat="42.3899" lon="2.0859">
        <ele>2048</ele>
        <time>2017-10-15T15:14:52.000Z</time>
      </trkpt>
      <trkpt lat="42.38991" lon="2.08589">
        <ele>2048</ele>
        <time>2017-10-15T15:14:53.000Z</time>
      </trkpt>
      <trkpt lat="42.38992" lon="2.08587">
        <ele>2047</ele>
        <time>2017-10-15T15:14:54.000Z</time>
      </trkpt>
      <trkpt lat="42.38993" lon="2.08586">
        <ele>2047</ele>
        <time>2017-10-15T15:14:55.000Z</time>
      </trkpt>
      <trkpt lat="42.38993" lon="2.08584">
        <ele>2047</ele>
        <time>2017-10-15T15:14:56.000Z</time>
      </trkpt>
      <trkpt lat="42.38993" lon="2.08582">
        <ele>2047</ele>
        <time>2017-10-15T15:14:57.000Z</time>
      </trkpt>
      <trkpt lat="42.38994" lon="2.08581">
        <ele>2047</ele>
        <time>2017-10-15T15:14:58.000Z</time>
      </trkpt>
      <trkpt lat="42.38994" lon="2.0858">
        <ele>2047</ele>
        <time>2017-10-15T15:14:59.000Z</time>
      </trkpt>
      <trkpt lat="42.38995" lon="2.08578">
        <ele>2047</ele>
        <time>2017-10-15T15:15:00.000Z</time>
      </trkpt>
      <trkpt lat="42.38995" lon="2.08577">
        <ele>2047</ele>
        <time>2017-10-15T15:15:01.000Z</time>
      </trkpt>
      <trkpt lat="42.38995" lon="2.08576">
        <ele>2047</ele>
        <time>2017-10-15T15:15:02.000Z</time>
      </trkpt>
      <trkpt lat="42.38995" lon="2.08575">
        <ele>2047</ele>
        <time>2017-10-15T15:15:03.000Z</time>
      </trkpt>
      <trkpt lat="42.38996" lon="2.08574">
        <ele>2047</ele>
        <time>2017-10-15T15:15:04.000Z</time>
      </trkpt>
      <trkpt lat="42.38996" lon="2.08573">
        <ele>2047</ele>
        <time>2017-10-15T15:15:05.000Z</time>
      </trkpt>
      <trkpt lat="42.38996" lon="2.08572">
        <ele>2047</ele>
        <time>2017-10-15T15:15:06.000Z</time>
      </trkpt>
      <trkpt lat="42.38997" lon="2.0857">
        <ele>2047</ele>
        <time>2017-10-15T15:15:07.000Z</time>
      </trkpt>
      <trkpt lat="42.38997" lon="2.08569">
        <ele>2047</ele>
        <time>2017-10-15T15:15:08.000Z</time>
      </trkpt>
      <trkpt lat="42.38998" lon="2.08568">
        <ele>2047</ele>
        <time>2017-10-15T15:15:09.000Z</time>
      </trkpt>
      <trkpt lat="42.38998" lon="2.08567">
        <ele>2047</ele>
        <time>2017-10-15T15:15:10.000Z</time>
      </trkpt>
      <trkpt lat="42.38999" lon="2.08566">
        <ele>2047</ele>
        <time>2017-10-15T15:15:11.000Z</time>
      </trkpt>
      <trkpt lat="42.39" lon="2.08564">
        <ele>2047</ele>
        <time>2017-10-15T15:15:12.000Z</time>
      </trkpt>
      <trkpt lat="42.39" lon="2.08563">
        <ele>2047</ele>
        <time>2017-10-15T15:15:13.000Z</time>
      </trkpt>
      <trkpt lat="42.39001" lon="2.08562">
        <ele>2047</ele>
        <time>2017-10-15T15:15:14.000Z</time>
      </trkpt>
      <trkpt lat="42.39001" lon="2.0856">
        <ele>2047</ele>
        <time>2017-10-15T15:15:15.000Z</time>
      </trkpt>
      <trkpt lat="42.39002" lon="2.08559">
        <ele>2047</ele>
        <time>2017-10-15T15:15:16.000Z</time>
      </trkpt>
      <trkpt lat="42.39002" lon="2.08557">
        <ele>2047</ele>
        <time>2017-10-15T15:15:17.000Z</time>
      </trkpt>
      <trkpt lat="42.39003" lon="2.08556">
        <ele>2047</ele>
        <time>2017-10-15T15:15:18.000Z</time>
      </trkpt>
      <trkpt lat="42.39003" lon="2.08554">
        <ele>2048</ele>
        <time>2017-10-15T15:15:19.000Z</time>
      </trkpt>
      <trkpt lat="42.39003" lon="2.08552">
        <ele>2048</ele>
        <time>2017-10-15T15:15:20.000Z</time>
      </trkpt>
      <trkpt lat="42.39004" lon="2.08551">
        <ele>2048</ele>
        <time>2017-10-15T15:15:21.000Z</time>
      </trkpt>
      <trkpt lat="42.39005" lon="2.08549">
        <ele>2048</ele>
        <time>2017-10-15T15:15:22.000Z</time>
      </trkpt>
      <trkpt lat="42.39006" lon="2.08547">
        <ele>2048</ele>
        <time>2017-10-15T15:15:23.000Z</time>
      </trkpt>
      <trkpt lat="42.39007" lon="2.08546">
        <ele>2047</ele>
        <time>2017-10-15T15:15:24.000Z</time>
      </trkpt>
      <trkpt lat="42.39007" lon="2.08544">
        <ele>2048</ele>
        <time>2017-10-15T15:15:25.000Z</time>
      </trkpt>
      <trkpt lat="42.39008" lon="2.08543">
        <ele>2047</ele>
        <time>2017-10-15T15:15:26.000Z</time>
      </trkpt>
      <trkpt lat="42.39009" lon="2.08542">
        <ele>2048</ele>
        <time>2017-10-15T15:15:27.000Z</time>
      </trkpt>
      <trkpt lat="42.39009" lon="2.08541">
        <ele>2047</ele>
        <time>2017-10-15T15:15:28.000Z</time>
      </trkpt>
      <trkpt lat="42.3901" lon="2.08539">
        <ele>2048</ele>
        <time>2017-10-15T15:15:29.000Z</time>
      </trkpt>
      <trkpt lat="42.3901" lon="2.08537">
        <ele>2048</ele>
        <time>2017-10-15T15:15:30.000Z</time>
      </trkpt>
      <trkpt lat="42.3901" lon="2.08536">
        <ele>2048</ele>
        <time>2017-10-15T15:15:31.000Z</time>
      </trkpt>
      <trkpt lat="42.39011" lon="2.08535">
        <ele>2048</ele>
        <time>2017-10-15T15:15:32.000Z</time>
      </trkpt>
      <trkpt lat="42.39011" lon="2.08533">
        <ele>2048</ele>
        <time>2017-10-15T15:15:33.000Z</time>
      </trkpt>
      <trkpt lat="42.39012" lon="2.08532">
        <ele>2048</ele>
        <time>2017-10-15T15:15:34.000Z</time>
      </trkpt>
      <trkpt lat="42.39012" lon="2.0853">
        <ele>2048</ele>
        <time>2017-10-15T15:15:35.000Z</time>
      </trkpt>
      <trkpt lat="42.39012" lon="2.08529">
        <ele>2048</ele>
        <time>2017-10-15T15:15:36.000Z</time>
      </trkpt>
      <trkpt lat="42.39013" lon="2.08528">
        <ele>2048</ele>
        <time>2017-10-15T15:15:37.000Z</time>
      </trkpt>
      <trkpt lat="42.39013" lon="2.08527">
        <ele>2048</ele>
        <time>2017-10-15T15:15:38.000Z</time>
      </trkpt>
      <trkpt lat="42.39014" lon="2.08526">
        <ele>2048</ele>
        <time>2017-10-15T15:15:39.000Z</time>
      </trkpt>
      <trkpt lat="42.39015" lon="2.08524">
        <ele>2048</ele>
        <time>2017-10-15T15:15:40.000Z</time>
      </trkpt>
      <trkpt lat="42.39015" lon="2.08523">
        <ele>2048</ele>
        <time>2017-10-15T15:15:41.000Z</time>
      </trkpt>
      <trkpt lat="42.39015" lon="2.08522">
        <ele>2049</ele>
        <time>2017-10-15T15:15:42.000Z</time>
      </trkpt>
      <trkpt lat="42.39016" lon="2.0852">
        <ele>2049</ele>
        <time>2017-10-15T15:15:43.000Z</time>
      </trkpt>
      <trkpt lat="42.39016" lon="2.08519">
        <ele>2049</ele>
        <time>2017-10-15T15:15:44.000Z</time>
      </trkpt>
      <trkpt lat="42.39017" lon="2.08517">
        <ele>2049</ele>
        <time>2017-10-15T15:15:45.000Z</time>
      </trkpt>
      <trkpt lat="42.39017" lon="2.08516">
        <ele>2049</ele>
        <time>2017-10-15T15:15:46.000Z</time>
      </trkpt>
      <trkpt lat="42.39018" lon="2.08514">
        <ele>2049</ele>
        <time>2017-10-15T15:15:47.000Z</time>
      </trkpt>
      <trkpt lat="42.39018" lon="2.08513">
        <ele>2049</ele>
        <time>2017-10-15T15:15:48.000Z</time>
      </trkpt>
      <trkpt lat="42.39018" lon="2.08512">
        <ele>2049</ele>
        <time>2017-10-15T15:15:49.000Z</time>
      </trkpt>
      <trkpt lat="42.39019" lon="2.0851">
        <ele>2049</ele>
        <time>2017-10-15T15:15:50.000Z</time>
      </trkpt>
      <trkpt lat="42.3902" lon="2.08509">
        <ele>2049</ele>
        <time>2017-10-15T15:15:51.000Z</time>
      </trkpt>
      <trkpt lat="42.3902" lon="2.08507">
        <ele>2049</ele>
        <time>2017-10-15T15:15:52.000Z</time>
      </trkpt>
      <trkpt lat="42.39021" lon="2.08506">
        <ele>2049</ele>
        <time>2017-10-15T15:15:53.000Z</time>
      </trkpt>
      <trkpt lat="42.39021" lon="2.08504">
        <ele>2049</ele>
        <time>2017-10-15T15:15:54.000Z</time>
      </trkpt>
      <trkpt lat="42.39022" lon="2.08503">
        <ele>2048</ele>
        <time>2017-10-15T15:15:55.000Z</time>
      </trkpt>
      <trkpt lat="42.39023" lon="2.08502">
        <ele>2048</ele>
        <time>2017-10-15T15:15:56.000Z</time>
      </trkpt>
      <trkpt lat="42.39024" lon="2.08501">
        <ele>2048</ele>
        <time>2017-10-15T15:15:57.000Z</time>
      </trkpt>
      <trkpt lat="42.39024" lon="2.08499">
        <ele>2048</ele>
        <time>2017-10-15T15:15:58.000Z</time>
      </trkpt>
      <trkpt lat="42.39024" lon="2.08497">
        <ele>2048</ele>
        <time>2017-10-15T15:15:59.000Z</time>
      </trkpt>
      <trkpt lat="42.39025" lon="2.08496">
        <ele>2048</ele>
        <time>2017-10-15T15:16:00.000Z</time>
      </trkpt>
      <trkpt lat="42.39026" lon="2.08495">
        <ele>2047</ele>
        <time>2017-10-15T15:16:01.000Z</time>
      </trkpt>
      <trkpt lat="42.39028" lon="2.08493">
        <ele>2046</ele>
        <time>2017-10-15T15:16:02.000Z</time>
      </trkpt>
      <trkpt lat="42.39029" lon="2.08491">
        <ele>2046</ele>
        <time>2017-10-15T15:16:03.000Z</time>
      </trkpt>
      <trkpt lat="42.3903" lon="2.0849">
        <ele>2046</ele>
        <time>2017-10-15T15:16:04.000Z</time>
      </trkpt>
      <trkpt lat="42.39031" lon="2.08489">
        <ele>2045</ele>
        <time>2017-10-15T15:16:05.000Z</time>
      </trkpt>
      <trkpt lat="42.39032" lon="2.08488">
        <ele>2045</ele>
        <time>2017-10-15T15:16:06.000Z</time>
      </trkpt>
      <trkpt lat="42.39032" lon="2.08487">
        <ele>2045</ele>
        <time>2017-10-15T15:16:07.000Z</time>
      </trkpt>
      <trkpt lat="42.39033" lon="2.08486">
        <ele>2045</ele>
        <time>2017-10-15T15:16:08.000Z</time>
      </trkpt>
      <trkpt lat="42.39033" lon="2.08485">
        <ele>2045</ele>
        <time>2017-10-15T15:16:09.000Z</time>
      </trkpt>
      <trkpt lat="42.39034" lon="2.08484">
        <ele>2045</ele>
        <time>2017-10-15T15:16:10.000Z</time>
      </trkpt>
      <trkpt lat="42.39035" lon="2.08483">
        <ele>2045</ele>
        <time>2017-10-15T15:16:11.000Z</time>
      </trkpt>
      <trkpt lat="42.39036" lon="2.08481">
        <ele>2044</ele>
        <time>2017-10-15T15:16:12.000Z</time>
      </trkpt>
      <trkpt lat="42.39037" lon="2.0848">
        <ele>2044</ele>
        <time>2017-10-15T15:16:13.000Z</time>
      </trkpt>
      <trkpt lat="42.39038" lon="2.08479">
        <ele>2044</ele>
        <time>2017-10-15T15:16:14.000Z</time>
      </trkpt>
      <trkpt lat="42.39038" lon="2.08478">
        <ele>2043</ele>
        <time>2017-10-15T15:16:15.000Z</time>
      </trkpt>
      <trkpt lat="42.39039" lon="2.08477">
        <ele>2043</ele>
        <time>2017-10-15T15:16:16.000Z</time>
      </trkpt>
      <trkpt lat="42.3904" lon="2.08476">
        <ele>2043</ele>
        <time>2017-10-15T15:16:17.000Z</time>
      </trkpt>
      <trkpt lat="42.39041" lon="2.08474">
        <ele>2043</ele>
        <time>2017-10-15T15:16:18.000Z</time>
      </trkpt>
      <trkpt lat="42.39042" lon="2.08473">
        <ele>2042</ele>
        <time>2017-10-15T15:16:19.000Z</time>
      </trkpt>
      <trkpt lat="42.39042" lon="2.08472">
        <ele>2042</ele>
        <time>2017-10-15T15:16:20.000Z</time>
      </trkpt>
      <trkpt lat="42.39043" lon="2.08471">
        <ele>2042</ele>
        <time>2017-10-15T15:16:21.000Z</time>
      </trkpt>
      <trkpt lat="42.39044" lon="2.0847">
        <ele>2042</ele>
        <time>2017-10-15T15:16:22.000Z</time>
      </trkpt>
      <trkpt lat="42.39044" lon="2.08468">
        <ele>2042</ele>
        <time>2017-10-15T15:16:23.000Z</time>
      </trkpt>
      <trkpt lat="42.39045" lon="2.08466">
        <ele>2042</ele>
        <time>2017-10-15T15:16:24.000Z</time>
      </trkpt>
      <trkpt lat="42.39046" lon="2.08465">
        <ele>2042</ele>
        <time>2017-10-15T15:16:25.000Z</time>
      </trkpt>
      <trkpt lat="42.39046" lon="2.08464">
        <ele>2042</ele>
        <time>2017-10-15T15:16:26.000Z</time>
      </trkpt>
      <trkpt lat="42.39047" lon="2.08463">
        <ele>2041</ele>
        <time>2017-10-15T15:16:27.000Z</time>
      </trkpt>
      <trkpt lat="42.39048" lon="2.08461">
        <ele>2041</ele>
        <time>2017-10-15T15:16:28.000Z</time>
      </trkpt>
      <trkpt lat="42.39048" lon="2.0846">
        <ele>2041</ele>
        <time>2017-10-15T15:16:29.000Z</time>
      </trkpt>
      <trkpt lat="42.3905" lon="2.08458">
        <ele>2041</ele>
        <time>2017-10-15T15:16:30.000Z</time>
      </trkpt>
      <trkpt lat="42.3905" lon="2.08457">
        <ele>2041</ele>
        <time>2017-10-15T15:16:31.000Z</time>
      </trkpt>
      <trkpt lat="42.39051" lon="2.08456">
        <ele>2041</ele>
        <time>2017-10-15T15:16:32.000Z</time>
      </trkpt>
      <trkpt lat="42.39051" lon="2.08454">
        <ele>2041</ele>
        <time>2017-10-15T15:16:33.000Z</time>
      </trkpt>
      <trkpt lat="42.39052" lon="2.08453">
        <ele>2041</ele>
        <time>2017-10-15T15:16:34.000Z</time>
      </trkpt>
      <trkpt lat="42.39053" lon="2.08451">
        <ele>2041</ele>
        <time>2017-10-15T15:16:35.000Z</time>
      </trkpt>
      <trkpt lat="42.39054" lon="2.0845">
        <ele>2040</ele>
        <time>2017-10-15T15:16:36.000Z</time>
      </trkpt>
      <trkpt lat="42.39055" lon="2.08449">
        <ele>2040</ele>
        <time>2017-10-15T15:16:37.000Z</time>
      </trkpt>
      <trkpt lat="42.39055" lon="2.08448">
        <ele>2040</ele>
        <time>2017-10-15T15:16:38.000Z</time>
      </trkpt>
      <trkpt lat="42.39056" lon="2.08446">
        <ele>2040</ele>
        <time>2017-10-15T15:16:39.000Z</time>
      </trkpt>
      <trkpt lat="42.39057" lon="2.08444">
        <ele>2040</ele>
        <time>2017-10-15T15:16:40.000Z</time>
      </trkpt>
      <trkpt lat="42.39057" lon="2.08443">
        <ele>2040</ele>
        <time>2017-10-15T15:16:41.000Z</time>
      </trkpt>
      <trkpt lat="42.39057" lon="2.08442">
        <ele>2041</ele>
        <time>2017-10-15T15:16:42.000Z</time>
      </trkpt>
      <trkpt lat="42.39058" lon="2.08441">
        <ele>2040</ele>
        <time>2017-10-15T15:16:43.000Z</time>
      </trkpt>
      <trkpt lat="42.39059" lon="2.0844">
        <ele>2040</ele>
        <time>2017-10-15T15:16:44.000Z</time>
      </trkpt>
      <trkpt lat="42.3906" lon="2.08439">
        <ele>2040</ele>
        <time>2017-10-15T15:16:45.000Z</time>
      </trkpt>
      <trkpt lat="42.39061" lon="2.08438">
        <ele>2039</ele>
        <time>2017-10-15T15:16:46.000Z</time>
      </trkpt>
      <trkpt lat="42.39062" lon="2.08436">
        <ele>2040</ele>
        <time>2017-10-15T15:16:47.000Z</time>
      </trkpt>
      <trkpt lat="42.39062" lon="2.08434">
        <ele>2040</ele>
        <time>2017-10-15T15:16:48.000Z</time>
      </trkpt>
      <trkpt lat="42.39062" lon="2.08434">
        <ele>2040</ele>
        <time>2017-10-15T15:16:49.000Z</time>
      </trkpt>
      <trkpt lat="42.39063" lon="2.08432">
        <ele>2040</ele>
        <time>2017-10-15T15:16:50.000Z</time>
      </trkpt>
      <trkpt lat="42.39063" lon="2.08431">
        <ele>2040</ele>
        <time>2017-10-15T15:16:51.000Z</time>
      </trkpt>
      <trkpt lat="42.39063" lon="2.08429">
        <ele>2040</ele>
        <time>2017-10-15T15:16:52.000Z</time>
      </trkpt>
      <trkpt lat="42.39064" lon="2.08428">
        <ele>2040</ele>
        <time>2017-10-15T15:16:53.000Z</time>
      </trkpt>
      <trkpt lat="42.39064" lon="2.08427">
        <ele>2040</ele>
        <time>2017-10-15T15:16:54.000Z</time>
      </trkpt>
      <trkpt lat="42.39064" lon="2.08426">
        <ele>2040</ele>
        <time>2017-10-15T15:16:55.000Z</time>
      </trkpt>
      <trkpt lat="42.39065" lon="2.08424">
        <ele>2040</ele>
        <time>2017-10-15T15:16:56.000Z</time>
      </trkpt>
      <trkpt lat="42.39065" lon="2.08423">
        <ele>2040</ele>
        <time>2017-10-15T15:16:57.000Z</time>
      </trkpt>
      <trkpt lat="42.39066" lon="2.08422">
        <ele>2040</ele>
        <time>2017-10-15T15:16:58.000Z</time>
      </trkpt>
      <trkpt lat="42.39066" lon="2.08421">
        <ele>2040</ele>
        <time>2017-10-15T15:16:59.000Z</time>
      </trkpt>
      <trkpt lat="42.39067" lon="2.0842">
        <ele>2040</ele>
        <time>2017-10-15T15:17:00.000Z</time>
      </trkpt>
      <trkpt lat="42.39067" lon="2.08419">
        <ele>2040</ele>
        <time>2017-10-15T15:17:01.000Z</time>
      </trkpt>
      <trkpt lat="42.39068" lon="2.08418">
        <ele>2040</ele>
        <time>2017-10-15T15:17:02.000Z</time>
      </trkpt>
      <trkpt lat="42.39068" lon="2.08417">
        <ele>2040</ele>
        <time>2017-10-15T15:17:03.000Z</time>
      </trkpt>
      <trkpt lat="42.39069" lon="2.08416">
        <ele>2040</ele>
        <time>2017-10-15T15:17:04.000Z</time>
      </trkpt>
      <trkpt lat="42.39069" lon="2.08415">
        <ele>2040</ele>
        <time>2017-10-15T15:17:05.000Z</time>
      </trkpt>
      <trkpt lat="42.39069" lon="2.08413">
        <ele>2040</ele>
        <time>2017-10-15T15:17:06.000Z</time>
      </trkpt>
      <trkpt lat="42.3907" lon="2.08412">
        <ele>2040</ele>
        <time>2017-10-15T15:17:07.000Z</time>
      </trkpt>
      <trkpt lat="42.3907" lon="2.08411">
        <ele>2041</ele>
        <time>2017-10-15T15:17:08.000Z</time>
      </trkpt>
      <trkpt lat="42.3907" lon="2.0841">
        <ele>2041</ele>
        <time>2017-10-15T15:17:09.000Z</time>
      </trkpt>
      <trkpt lat="42.3907" lon="2.08409">
        <ele>2041</ele>
        <time>2017-10-15T15:17:10.000Z</time>
      </trkpt>
      <trkpt lat="42.39071" lon="2.08407">
        <ele>2041</ele>
        <time>2017-10-15T15:17:11.000Z</time>
      </trkpt>
      <trkpt lat="42.39071" lon="2.08405">
        <ele>2042</ele>
        <time>2017-10-15T15:17:12.000Z</time>
      </trkpt>
      <trkpt lat="42.39071" lon="2.08404">
        <ele>2042</ele>
        <time>2017-10-15T15:17:13.000Z</time>
      </trkpt>
      <trkpt lat="42.39071" lon="2.08403">
        <ele>2042</ele>
        <time>2017-10-15T15:17:14.000Z</time>
      </trkpt>
      <trkpt lat="42.39072" lon="2.08402">
        <ele>2042</ele>
        <time>2017-10-15T15:17:15.000Z</time>
      </trkpt>
      <trkpt lat="42.39073" lon="2.084">
        <ele>2042</ele>
        <time>2017-10-15T15:17:16.000Z</time>
      </trkpt>
      <trkpt lat="42.39073" lon="2.08398">
        <ele>2042</ele>
        <time>2017-10-15T15:17:17.000Z</time>
      </trkpt>
      <trkpt lat="42.39074" lon="2.08397">
        <ele>2042</ele>
        <time>2017-10-15T15:17:18.000Z</time>
      </trkpt>
      <trkpt lat="42.39074" lon="2.08396">
        <ele>2042</ele>
        <time>2017-10-15T15:17:19.000Z</time>
      </trkpt>
      <trkpt lat="42.39075" lon="2.08394">
        <ele>2042</ele>
        <time>2017-10-15T15:17:20.000Z</time>
      </trkpt>
      <trkpt lat="42.39076" lon="2.08393">
        <ele>2042</ele>
        <time>2017-10-15T15:17:21.000Z</time>
      </trkpt>
      <trkpt lat="42.39077" lon="2.08391">
        <ele>2042</ele>
        <time>2017-10-15T15:17:22.000Z</time>
      </trkpt>
      <trkpt lat="42.39078" lon="2.0839">
        <ele>2042</ele>
        <time>2017-10-15T15:17:23.000Z</time>
      </trkpt>
      <trkpt lat="42.39078" lon="2.08389">
        <ele>2041</ele>
        <time>2017-10-15T15:17:24.000Z</time>
      </trkpt>
      <trkpt lat="42.39079" lon="2.08388">
        <ele>2042</ele>
        <time>2017-10-15T15:17:25.000Z</time>
      </trkpt>
      <trkpt lat="42.39079" lon="2.08387">
        <ele>2042</ele>
        <time>2017-10-15T15:17:26.000Z</time>
      </trkpt>
      <trkpt lat="42.3908" lon="2.08385">
        <ele>2042</ele>
        <time>2017-10-15T15:17:27.000Z</time>
      </trkpt>
      <trkpt lat="42.3908" lon="2.08384">
        <ele>2042</ele>
        <time>2017-10-15T15:17:28.000Z</time>
      </trkpt>
      <trkpt lat="42.3908" lon="2.08383">
        <ele>2042</ele>
        <time>2017-10-15T15:17:29.000Z</time>
      </trkpt>
      <trkpt lat="42.39081" lon="2.08382">
        <ele>2042</ele>
        <time>2017-10-15T15:17:30.000Z</time>
      </trkpt>
      <trkpt lat="42.39081" lon="2.0838">
        <ele>2042</ele>
        <time>2017-10-15T15:17:31.000Z</time>
      </trkpt>
      <trkpt lat="42.39082" lon="2.08379">
        <ele>2042</ele>
        <time>2017-10-15T15:17:32.000Z</time>
      </trkpt>
      <trkpt lat="42.39082" lon="2.08378">
        <ele>2042</ele>
        <time>2017-10-15T15:17:33.000Z</time>
      </trkpt>
      <trkpt lat="42.39083" lon="2.08377">
        <ele>2042</ele>
        <time>2017-10-15T15:17:34.000Z</time>
      </trkpt>
      <trkpt lat="42.39083" lon="2.08375">
        <ele>2042</ele>
        <time>2017-10-15T15:17:35.000Z</time>
      </trkpt>
      <trkpt lat="42.39083" lon="2.08374">
        <ele>2042</ele>
        <time>2017-10-15T15:17:36.000Z</time>
      </trkpt>
      <trkpt lat="42.39084" lon="2.08372">
        <ele>2043</ele>
        <time>2017-10-15T15:17:37.000Z</time>
      </trkpt>
      <trkpt lat="42.39084" lon="2.08372">
        <ele>2043</ele>
        <time>2017-10-15T15:17:38.000Z</time>
      </trkpt>
      <trkpt lat="42.39084" lon="2.0837">
        <ele>2043</ele>
        <time>2017-10-15T15:17:39.000Z</time>
      </trkpt>
      <trkpt lat="42.39085" lon="2.08369">
        <ele>2043</ele>
        <time>2017-10-15T15:17:40.000Z</time>
      </trkpt>
      <trkpt lat="42.39086" lon="2.08368">
        <ele>2043</ele>
        <time>2017-10-15T15:17:41.000Z</time>
      </trkpt>
      <trkpt lat="42.39087" lon="2.08367">
        <ele>2042</ele>
        <time>2017-10-15T15:17:42.000Z</time>
      </trkpt>
      <trkpt lat="42.39088" lon="2.08366">
        <ele>2042</ele>
        <time>2017-10-15T15:17:43.000Z</time>
      </trkpt>
      <trkpt lat="42.39088" lon="2.08365">
        <ele>2042</ele>
        <time>2017-10-15T15:17:44.000Z</time>
      </trkpt>
      <trkpt lat="42.39089" lon="2.08365">
        <ele>2042</ele>
        <time>2017-10-15T15:17:45.000Z</time>
      </trkpt>
      <trkpt lat="42.3909" lon="2.08364">
        <ele>2042</ele>
        <time>2017-10-15T15:17:46.000Z</time>
      </trkpt>
      <trkpt lat="42.3909" lon="2.08363">
        <ele>2042</ele>
        <time>2017-10-15T15:17:47.000Z</time>
      </trkpt>
      <trkpt lat="42.3909" lon="2.08363">
        <ele>2042</ele>
        <time>2017-10-15T15:17:48.000Z</time>
      </trkpt>
      <trkpt lat="42.3909" lon="2.08363">
        <ele>2042</ele>
        <time>2017-10-15T15:17:49.000Z</time>
      </trkpt>
      <trkpt lat="42.39091" lon="2.08363">
        <ele>2042</ele>
        <time>2017-10-15T15:17:50.000Z</time>
      </trkpt>
      <trkpt lat="42.39091" lon="2.08362">
        <ele>2041</ele>
        <time>2017-10-15T15:17:51.000Z</time>
      </trkpt>
      <trkpt lat="42.39092" lon="2.08362">
        <ele>2041</ele>
        <time>2017-10-15T15:17:52.000Z</time>
      </trkpt>
      <trkpt lat="42.39094" lon="2.08358">
        <ele>2041</ele>
        <time>2017-10-15T15:18:00.000Z</time>
      </trkpt>
      <trkpt lat="42.39095" lon="2.08357">
        <ele>2041</ele>
        <time>2017-10-15T15:18:01.000Z</time>
      </trkpt>
      <trkpt lat="42.39096" lon="2.08356">
        <ele>2041</ele>
        <time>2017-10-15T15:18:02.000Z</time>
      </trkpt>
      <trkpt lat="42.39097" lon="2.08356">
        <ele>2040</ele>
        <time>2017-10-15T15:18:03.000Z</time>
      </trkpt>
      <trkpt lat="42.39097" lon="2.08356">
        <ele>2040</ele>
        <time>2017-10-15T15:18:04.000Z</time>
      </trkpt>
      <trkpt lat="42.39093" lon="2.08357">
        <ele>2042</ele>
        <time>2017-10-15T15:20:46.000Z</time>
      </trkpt>
      <trkpt lat="42.39094" lon="2.08357">
        <ele>2041</ele>
        <time>2017-10-15T15:20:47.000Z</time>
      </trkpt>
      <trkpt lat="42.39094" lon="2.08358">
        <ele>2041</ele>
        <time>2017-10-15T15:20:48.000Z</time>
      </trkpt>
      <trkpt lat="42.39094" lon="2.08358">
        <ele>2041</ele>
        <time>2017-10-15T15:20:49.000Z</time>
      </trkpt>
      <trkpt lat="42.39094" lon="2.08359">
        <ele>2041</ele>
        <time>2017-10-15T15:20:50.000Z</time>
      </trkpt>
      <trkpt lat="42.39094" lon="2.08359">
        <ele>2041</ele>
        <time>2017-10-15T15:20:51.000Z</time>
      </trkpt>
      <trkpt lat="42.39093" lon="2.08359">
        <ele>2042</ele>
        <time>2017-10-15T15:25:49.000Z</time>
      </trkpt>
      <trkpt lat="42.39092" lon="2.08358">
        <ele>2042</ele>
        <time>2017-10-15T15:25:50.000Z</time>
      </trkpt>
      <trkpt lat="42.39093" lon="2.08358">
        <ele>2042</ele>
        <time>2017-10-15T15:25:51.000Z</time>
      </trkpt>
      <trkpt lat="42.39093" lon="2.08358">
        <ele>2042</ele>
        <time>2017-10-15T15:25:52.000Z</time>
      </trkpt>
      <trkpt lat="42.391" lon="2.08356">
        <ele>2039</ele>
        <time>2017-10-15T15:29:03.000Z</time>
      </trkpt>
      <trkpt lat="42.391" lon="2.08355">
        <ele>2039</ele>
        <time>2017-10-15T15:29:04.000Z</time>
      </trkpt>
      <trkpt lat="42.39101" lon="2.08354">
        <ele>2039</ele>
        <time>2017-10-15T15:29:05.000Z</time>
      </trkpt>
      <trkpt lat="42.39101" lon="2.08353">
        <ele>2039</ele>
        <time>2017-10-15T15:29:06.000Z</time>
      </trkpt>
      <trkpt lat="42.39102" lon="2.08352">
        <ele>2039</ele>
        <time>2017-10-15T15:29:07.000Z</time>
      </trkpt>
      <trkpt lat="42.39102" lon="2.08351">
        <ele>2039</ele>
        <time>2017-10-15T15:29:08.000Z</time>
      </trkpt>
      <trkpt lat="42.39103" lon="2.08351">
        <ele>2039</ele>
        <time>2017-10-15T15:29:09.000Z</time>
      </trkpt>
      <trkpt lat="42.39104" lon="2.0835">
        <ele>2039</ele>
        <time>2017-10-15T15:29:10.000Z</time>
      </trkpt>
      <trkpt lat="42.39104" lon="2.08349">
        <ele>2039</ele>
        <time>2017-10-15T15:29:11.000Z</time>
      </trkpt>
      <trkpt lat="42.39104" lon="2.08348">
        <ele>2039</ele>
        <time>2017-10-15T15:29:14.000Z</time>
      </trkpt>
      <trkpt lat="42.39104" lon="2.08347">
        <ele>2039</ele>
        <time>2017-10-15T15:29:15.000Z</time>
      </trkpt>
      <trkpt lat="42.39105" lon="2.08347">
        <ele>2039</ele>
        <time>2017-10-15T15:29:16.000Z</time>
      </trkpt>
      <trkpt lat="42.39105" lon="2.08347">
        <ele>2039</ele>
        <time>2017-10-15T15:29:17.000Z</time>
      </trkpt>
      <trkpt lat="42.39105" lon="2.08346">
        <ele>2039</ele>
        <time>2017-10-15T15:29:18.000Z</time>
      </trkpt>
      <trkpt lat="42.39105" lon="2.08346">
        <ele>2039</ele>
        <time>2017-10-15T15:29:19.000Z</time>
      </trkpt>
      <trkpt lat="42.39107" lon="2.08345">
        <ele>2038</ele>
        <time>2017-10-15T15:29:53.000Z</time>
      </trkpt>
      <trkpt lat="42.39108" lon="2.08345">
        <ele>2037</ele>
        <time>2017-10-15T15:29:54.000Z</time>
      </trkpt>
      <trkpt lat="42.39108" lon="2.08345">
        <ele>2037</ele>
        <time>2017-10-15T15:29:55.000Z</time>
      </trkpt>
      <trkpt lat="42.39109" lon="2.08345">
        <ele>2037</ele>
        <time>2017-10-15T15:29:56.000Z</time>
      </trkpt>
      <trkpt lat="42.3911" lon="2.08346">
        <ele>2036</ele>
        <time>2017-10-15T15:29:57.000Z</time>
      </trkpt>
      <trkpt lat="42.39111" lon="2.08346">
        <ele>2036</ele>
        <time>2017-10-15T15:29:58.000Z</time>
      </trkpt>
      <trkpt lat="42.3911" lon="2.08346">
        <ele>2036</ele>
        <time>2017-10-15T15:29:59.000Z</time>
      </trkpt>
      <trkpt lat="42.3911" lon="2.08345">
        <ele>2036</ele>
        <time>2017-10-15T15:30:00.000Z</time>
      </trkpt>
      <trkpt lat="42.39112" lon="2.08346">
        <ele>2035</ele>
        <time>2017-10-15T15:30:01.000Z</time>
      </trkpt>
      <trkpt lat="42.39113" lon="2.08348">
        <ele>2034</ele>
        <time>2017-10-15T15:30:02.000Z</time>
      </trkpt>
      <trkpt lat="42.39112" lon="2.08348">
        <ele>2035</ele>
        <time>2017-10-15T15:30:03.000Z</time>
      </trkpt>
      <trkpt lat="42.39111" lon="2.08349">
        <ele>2035</ele>
        <time>2017-10-15T15:30:04.000Z</time>
      </trkpt>
      <trkpt lat="42.39111" lon="2.0835">
        <ele>2035</ele>
        <time>2017-10-15T15:30:05.000Z</time>
      </trkpt>
      <trkpt lat="42.39111" lon="2.08351">
        <ele>2034</ele>
        <time>2017-10-15T15:30:06.000Z</time>
      </trkpt>
      <trkpt lat="42.39109" lon="2.08352">
        <ele>2035</ele>
        <time>2017-10-15T15:30:07.000Z</time>
      </trkpt>
      <trkpt lat="42.39109" lon="2.08353">
        <ele>2036</ele>
        <time>2017-10-15T15:30:08.000Z</time>
      </trkpt>
      <trkpt lat="42.39107" lon="2.08353">
        <ele>2036</ele>
        <time>2017-10-15T15:30:09.000Z</time>
      </trkpt>
      <trkpt lat="42.39108" lon="2.08355">
        <ele>2036</ele>
        <time>2017-10-15T15:30:10.000Z</time>
      </trkpt>
      <trkpt lat="42.39107" lon="2.08355">
        <ele>2036</ele>
        <time>2017-10-15T15:30:11.000Z</time>
      </trkpt>
      <trkpt lat="42.39107" lon="2.08357">
        <ele>2036</ele>
        <time>2017-10-15T15:30:12.000Z</time>
      </trkpt>
      <trkpt lat="42.39106" lon="2.08357">
        <ele>2036</ele>
        <time>2017-10-15T15:30:13.000Z</time>
      </trkpt>
      <trkpt lat="42.39106" lon="2.08358">
        <ele>2036</ele>
        <time>2017-10-15T15:30:14.000Z</time>
      </trkpt>
      <trkpt lat="42.39106" lon="2.08359">
        <ele>2035</ele>
        <time>2017-10-15T15:30:15.000Z</time>
      </trkpt>
      <trkpt lat="42.39106" lon="2.0836">
        <ele>2035</ele>
        <time>2017-10-15T15:30:16.000Z</time>
      </trkpt>
      <trkpt lat="42.39106" lon="2.08361">
        <ele>2035</ele>
        <time>2017-10-15T15:30:17.000Z</time>
      </trkpt>
      <trkpt lat="42.39105" lon="2.08361">
        <ele>2035</ele>
        <time>2017-10-15T15:30:18.000Z</time>
      </trkpt>
      <trkpt lat="42.39105" lon="2.08362">
        <ele>2035</ele>
        <time>2017-10-15T15:30:19.000Z</time>
      </trkpt>
      <trkpt lat="42.39104" lon="2.08362">
        <ele>2036</ele>
        <time>2017-10-15T15:30:20.000Z</time>
      </trkpt>
      <trkpt lat="42.39104" lon="2.08362">
        <ele>2036</ele>
        <time>2017-10-15T15:30:21.000Z</time>
      </trkpt>
      <trkpt lat="42.39103" lon="2.08363">
        <ele>2036</ele>
        <time>2017-10-15T15:32:27.000Z</time>
      </trkpt>
      <trkpt lat="42.39103" lon="2.08362">
        <ele>2036</ele>
        <time>2017-10-15T15:32:28.000Z</time>
      </trkpt>
      <trkpt lat="42.39102" lon="2.08362">
        <ele>2036</ele>
        <time>2017-10-15T15:32:29.000Z</time>
      </trkpt>
      <trkpt lat="42.39102" lon="2.08363">
        <ele>2036</ele>
        <time>2017-10-15T15:32:30.000Z</time>
      </trkpt>
    </trkseg>
  </trk>
</gpx>